<?xml version="1.0" encoding="UTF-8" standalone="no" ?>
<gpx xmlns="http://www.topografix.com/GPX/1/1" xmlns:xsi="http://www.w3.org/2001/XMLSchema-instance" xsi:schemaLocation="http://www.topografix.com/GPX/1/1 http://www.topografix.com/GPX/1/1/gpx.xsd" version="1.1" creator="VisuGPX - https://www.visugpx.com">
  <metadata>
    <name>Les îles éoliennes 01</name>
    <desc><![CDATA[Avril 18 Oceanis 43 équipage Bruno S J M et G. depuis Portorosa]]></desc>
  </metadata>
  <trk>
    <name><![CDATA[Tracé actuel: 15 AVR 2018 16:51]]></name>
    <trkseg>
      <trkpt lat="38.2748" lon="15.11658">
        <ele>1.1</ele>
        <time>2018-04-15T14:51:31Z</time>
      </trkpt>
      <trkpt lat="38.27507" lon="15.11652">
        <ele>1.58</ele>
        <time>2018-04-15T14:51:40Z</time>
      </trkpt>
      <trkpt lat="38.27539" lon="15.11643">
        <ele>1.1</ele>
        <time>2018-04-15T14:51:51Z</time>
      </trkpt>
      <trkpt lat="38.2758" lon="15.11631">
        <ele>1.1</ele>
        <time>2018-04-15T14:52:05Z</time>
      </trkpt>
      <trkpt lat="38.27582" lon="15.1163">
        <ele>1.1</ele>
        <time>2018-04-15T14:52:06Z</time>
      </trkpt>
      <trkpt lat="38.2762" lon="15.1162">
        <ele>1.58</ele>
        <time>2018-04-15T14:52:19Z</time>
      </trkpt>
      <trkpt lat="38.27659" lon="15.11618">
        <ele>0.62</ele>
        <time>2018-04-15T14:52:31Z</time>
      </trkpt>
      <trkpt lat="38.27694" lon="15.11615">
        <ele>0.62</ele>
        <time>2018-04-15T14:52:41Z</time>
      </trkpt>
      <trkpt lat="38.2773" lon="15.1161">
        <ele>0.62</ele>
        <time>2018-04-15T14:52:52Z</time>
      </trkpt>
      <trkpt lat="38.27762" lon="15.11603">
        <ele>1.1</ele>
        <time>2018-04-15T14:53:03Z</time>
      </trkpt>
      <trkpt lat="38.27765" lon="15.11604">
        <ele>1.58</ele>
        <time>2018-04-15T14:53:04Z</time>
      </trkpt>
      <trkpt lat="38.27783" lon="15.116">
        <ele>1.1</ele>
        <time>2018-04-15T14:53:10Z</time>
      </trkpt>
      <trkpt lat="38.2782" lon="15.11596">
        <ele>1.1</ele>
        <time>2018-04-15T14:53:22Z</time>
      </trkpt>
      <trkpt lat="38.27848" lon="15.11591">
        <ele>1.58</ele>
        <time>2018-04-15T14:53:31Z</time>
      </trkpt>
      <trkpt lat="38.27892" lon="15.11587">
        <ele>1.58</ele>
        <time>2018-04-15T14:53:45Z</time>
      </trkpt>
      <trkpt lat="38.27928" lon="15.11586">
        <ele>1.58</ele>
        <time>2018-04-15T14:53:56Z</time>
      </trkpt>
      <trkpt lat="38.27962" lon="15.11592">
        <ele>1.1</ele>
        <time>2018-04-15T14:54:06Z</time>
      </trkpt>
      <trkpt lat="38.28001" lon="15.11602">
        <ele>0.62</ele>
        <time>2018-04-15T14:54:17Z</time>
      </trkpt>
      <trkpt lat="38.2804" lon="15.11603">
        <ele>0.14</ele>
        <time>2018-04-15T14:54:28Z</time>
      </trkpt>
      <trkpt lat="38.28074" lon="15.11607">
        <ele>0.62</ele>
        <time>2018-04-15T14:54:38Z</time>
      </trkpt>
      <trkpt lat="38.28107" lon="15.11606">
        <ele>0.62</ele>
        <time>2018-04-15T14:54:48Z</time>
      </trkpt>
      <trkpt lat="38.28142" lon="15.11607">
        <ele>0.62</ele>
        <time>2018-04-15T14:54:59Z</time>
      </trkpt>
      <trkpt lat="38.28171" lon="15.11605">
        <ele>0.62</ele>
        <time>2018-04-15T14:55:08Z</time>
      </trkpt>
      <trkpt lat="38.28203" lon="15.11603">
        <ele>1.1</ele>
        <time>2018-04-15T14:55:18Z</time>
      </trkpt>
      <trkpt lat="38.28234" lon="15.11596">
        <ele>1.1</ele>
        <time>2018-04-15T14:55:28Z</time>
      </trkpt>
      <trkpt lat="38.28277" lon="15.11599">
        <ele>1.1</ele>
        <time>2018-04-15T14:55:41Z</time>
      </trkpt>
      <trkpt lat="38.28313" lon="15.11596">
        <ele>1.1</ele>
        <time>2018-04-15T14:55:52Z</time>
      </trkpt>
      <trkpt lat="38.28326" lon="15.11595">
        <ele>1.1</ele>
        <time>2018-04-15T14:55:56Z</time>
      </trkpt>
      <trkpt lat="38.28362" lon="15.11587">
        <ele>1.1</ele>
        <time>2018-04-15T14:56:09Z</time>
      </trkpt>
      <trkpt lat="38.28404" lon="15.11576">
        <ele>0.62</ele>
        <time>2018-04-15T14:56:24Z</time>
      </trkpt>
      <trkpt lat="38.28407" lon="15.11577">
        <ele>1.1</ele>
        <time>2018-04-15T14:56:25Z</time>
      </trkpt>
      <trkpt lat="38.28418" lon="15.11574">
        <ele>0.14</ele>
        <time>2018-04-15T14:56:29Z</time>
      </trkpt>
      <trkpt lat="38.28462" lon="15.11569">
        <ele>1.1</ele>
        <time>2018-04-15T14:56:43Z</time>
      </trkpt>
      <trkpt lat="38.28496" lon="15.11564">
        <ele>0.62</ele>
        <time>2018-04-15T14:56:54Z</time>
      </trkpt>
      <trkpt lat="38.28532" lon="15.11562">
        <ele>0.62</ele>
        <time>2018-04-15T14:57:05Z</time>
      </trkpt>
      <trkpt lat="38.28562" lon="15.11561">
        <ele>1.1</ele>
        <time>2018-04-15T14:57:14Z</time>
      </trkpt>
      <trkpt lat="38.2858" lon="15.11556">
        <ele>1.1</ele>
        <time>2018-04-15T14:57:20Z</time>
      </trkpt>
      <trkpt lat="38.28619" lon="15.11549">
        <ele>1.1</ele>
        <time>2018-04-15T14:57:33Z</time>
      </trkpt>
      <trkpt lat="38.28647" lon="15.11538">
        <ele>0.62</ele>
        <time>2018-04-15T14:57:44Z</time>
      </trkpt>
      <trkpt lat="38.28659" lon="15.11537">
        <ele>0.62</ele>
        <time>2018-04-15T14:57:48Z</time>
      </trkpt>
      <trkpt lat="38.28688" lon="15.11531">
        <ele>1.1</ele>
        <time>2018-04-15T14:57:58Z</time>
      </trkpt>
      <trkpt lat="38.28697" lon="15.11529">
        <ele>0.62</ele>
        <time>2018-04-15T14:58:01Z</time>
      </trkpt>
      <trkpt lat="38.28722" lon="15.11525">
        <ele>1.1</ele>
        <time>2018-04-15T14:58:10Z</time>
      </trkpt>
      <trkpt lat="38.28731" lon="15.11522">
        <ele>1.1</ele>
        <time>2018-04-15T14:58:13Z</time>
      </trkpt>
      <trkpt lat="38.28762" lon="15.11511">
        <ele>0.62</ele>
        <time>2018-04-15T14:58:25Z</time>
      </trkpt>
      <trkpt lat="38.28774" lon="15.11507">
        <ele>0.62</ele>
        <time>2018-04-15T14:58:30Z</time>
      </trkpt>
      <trkpt lat="38.2878" lon="15.11509">
        <ele>1.1</ele>
        <time>2018-04-15T14:58:32Z</time>
      </trkpt>
      <trkpt lat="38.28807" lon="15.11499">
        <ele>1.1</ele>
        <time>2018-04-15T14:58:43Z</time>
      </trkpt>
      <trkpt lat="38.28813" lon="15.11499">
        <ele>1.1</ele>
        <time>2018-04-15T14:58:45Z</time>
      </trkpt>
      <trkpt lat="38.2884" lon="15.11497">
        <ele>1.58</ele>
        <time>2018-04-15T14:58:54Z</time>
      </trkpt>
      <trkpt lat="38.28854" lon="15.11491">
        <ele>1.1</ele>
        <time>2018-04-15T14:58:59Z</time>
      </trkpt>
      <trkpt lat="38.28895" lon="15.11484">
        <ele>1.1</ele>
        <time>2018-04-15T14:59:13Z</time>
      </trkpt>
      <trkpt lat="38.28938" lon="15.1148">
        <ele>1.1</ele>
        <time>2018-04-15T14:59:26Z</time>
      </trkpt>
      <trkpt lat="38.28968" lon="15.11476">
        <ele>1.1</ele>
        <time>2018-04-15T14:59:35Z</time>
      </trkpt>
      <trkpt lat="38.29004" lon="15.11473">
        <ele>0.62</ele>
        <time>2018-04-15T14:59:46Z</time>
      </trkpt>
      <trkpt lat="38.29041" lon="15.11472">
        <ele>1.1</ele>
        <time>2018-04-15T14:59:57Z</time>
      </trkpt>
      <trkpt lat="38.29047" lon="15.11472">
        <ele>1.58</ele>
        <time>2018-04-15T14:59:59Z</time>
      </trkpt>
      <trkpt lat="38.2908" lon="15.11463">
        <ele>0.62</ele>
        <time>2018-04-15T15:00:10Z</time>
      </trkpt>
      <trkpt lat="38.29116" lon="15.11457">
        <ele>0.62</ele>
        <time>2018-04-15T15:00:21Z</time>
      </trkpt>
      <trkpt lat="38.29157" lon="15.11458">
        <ele>0.62</ele>
        <time>2018-04-15T15:00:33Z</time>
      </trkpt>
      <trkpt lat="38.29193" lon="15.11452">
        <ele>1.1</ele>
        <time>2018-04-15T15:00:44Z</time>
      </trkpt>
      <trkpt lat="38.29228" lon="15.11444">
        <ele>0.62</ele>
        <time>2018-04-15T15:00:55Z</time>
      </trkpt>
      <trkpt lat="38.29265" lon="15.11437">
        <ele>0.62</ele>
        <time>2018-04-15T15:01:07Z</time>
      </trkpt>
      <trkpt lat="38.29299" lon="15.11433">
        <ele>0.62</ele>
        <time>2018-04-15T15:01:18Z</time>
      </trkpt>
      <trkpt lat="38.2933" lon="15.11429">
        <ele>0.62</ele>
        <time>2018-04-15T15:01:28Z</time>
      </trkpt>
      <trkpt lat="38.29371" lon="15.1142">
        <ele>0.62</ele>
        <time>2018-04-15T15:01:41Z</time>
      </trkpt>
      <trkpt lat="38.29395" lon="15.11411">
        <ele>0.14</ele>
        <time>2018-04-15T15:01:50Z</time>
      </trkpt>
      <trkpt lat="38.29424" lon="15.11408">
        <ele>1.1</ele>
        <time>2018-04-15T15:01:59Z</time>
      </trkpt>
      <trkpt lat="38.2943" lon="15.11408">
        <ele>0.62</ele>
        <time>2018-04-15T15:02:01Z</time>
      </trkpt>
      <trkpt lat="38.29461" lon="15.11405">
        <ele>0.62</ele>
        <time>2018-04-15T15:02:11Z</time>
      </trkpt>
      <trkpt lat="38.29474" lon="15.11404">
        <ele>0.62</ele>
        <time>2018-04-15T15:02:15Z</time>
      </trkpt>
      <trkpt lat="38.2952" lon="15.11401">
        <ele>1.1</ele>
        <time>2018-04-15T15:02:29Z</time>
      </trkpt>
      <trkpt lat="38.29548" lon="15.11393">
        <ele>1.1</ele>
        <time>2018-04-15T15:02:38Z</time>
      </trkpt>
      <trkpt lat="38.29587" lon="15.11397">
        <ele>0.62</ele>
        <time>2018-04-15T15:02:50Z</time>
      </trkpt>
      <trkpt lat="38.29624" lon="15.11393">
        <ele>1.1</ele>
        <time>2018-04-15T15:03:01Z</time>
      </trkpt>
      <trkpt lat="38.29662" lon="15.11392">
        <ele>1.58</ele>
        <time>2018-04-15T15:03:12Z</time>
      </trkpt>
      <trkpt lat="38.29701" lon="15.11387">
        <ele>0.62</ele>
        <time>2018-04-15T15:03:24Z</time>
      </trkpt>
      <trkpt lat="38.29736" lon="15.11376">
        <ele>0.62</ele>
        <time>2018-04-15T15:03:36Z</time>
      </trkpt>
      <trkpt lat="38.29769" lon="15.11369">
        <ele>1.58</ele>
        <time>2018-04-15T15:03:48Z</time>
      </trkpt>
      <trkpt lat="38.29785" lon="15.11368">
        <ele>1.1</ele>
        <time>2018-04-15T15:03:53Z</time>
      </trkpt>
      <trkpt lat="38.29798" lon="15.11362">
        <ele>1.1</ele>
        <time>2018-04-15T15:03:58Z</time>
      </trkpt>
      <trkpt lat="38.29832" lon="15.11358">
        <ele>1.1</ele>
        <time>2018-04-15T15:04:09Z</time>
      </trkpt>
      <trkpt lat="38.29871" lon="15.11351">
        <ele>0.62</ele>
        <time>2018-04-15T15:04:21Z</time>
      </trkpt>
      <trkpt lat="38.29908" lon="15.11341">
        <ele>0.14</ele>
        <time>2018-04-15T15:04:33Z</time>
      </trkpt>
      <trkpt lat="38.29938" lon="15.11335">
        <ele>0.62</ele>
        <time>2018-04-15T15:04:42Z</time>
      </trkpt>
      <trkpt lat="38.29976" lon="15.11319">
        <ele>1.1</ele>
        <time>2018-04-15T15:04:56Z</time>
      </trkpt>
      <trkpt lat="38.29978" lon="15.11317">
        <ele>1.1</ele>
        <time>2018-04-15T15:04:57Z</time>
      </trkpt>
      <trkpt lat="38.30005" lon="15.11302">
        <ele>1.1</ele>
        <time>2018-04-15T15:05:09Z</time>
      </trkpt>
      <trkpt lat="38.30036" lon="15.11295">
        <ele>1.1</ele>
        <time>2018-04-15T15:05:20Z</time>
      </trkpt>
      <trkpt lat="38.30059" lon="15.11282">
        <ele>1.58</ele>
        <time>2018-04-15T15:05:30Z</time>
      </trkpt>
      <trkpt lat="38.30093" lon="15.11272">
        <ele>3.02</ele>
        <time>2018-04-15T15:05:42Z</time>
      </trkpt>
      <trkpt lat="38.30109" lon="15.11266">
        <ele>3.02</ele>
        <time>2018-04-15T15:05:48Z</time>
      </trkpt>
      <trkpt lat="38.30139" lon="15.11263">
        <ele>2.06</ele>
        <time>2018-04-15T15:05:57Z</time>
      </trkpt>
      <trkpt lat="38.30188" lon="15.11269">
        <ele>1.58</ele>
        <time>2018-04-15T15:06:11Z</time>
      </trkpt>
      <trkpt lat="38.30227" lon="15.11264">
        <ele>1.1</ele>
        <time>2018-04-15T15:06:22Z</time>
      </trkpt>
      <trkpt lat="38.30275" lon="15.11269">
        <ele>1.1</ele>
        <time>2018-04-15T15:06:35Z</time>
      </trkpt>
      <trkpt lat="38.3032" lon="15.11282">
        <ele>1.58</ele>
        <time>2018-04-15T15:06:48Z</time>
      </trkpt>
      <trkpt lat="38.3036" lon="15.11294">
        <ele>2.06</ele>
        <time>2018-04-15T15:07:00Z</time>
      </trkpt>
      <trkpt lat="38.30393" lon="15.11299">
        <ele>2.06</ele>
        <time>2018-04-15T15:07:10Z</time>
      </trkpt>
      <trkpt lat="38.30429" lon="15.113">
        <ele>2.06</ele>
        <time>2018-04-15T15:07:20Z</time>
      </trkpt>
      <trkpt lat="38.30468" lon="15.113">
        <ele>1.58</ele>
        <time>2018-04-15T15:07:31Z</time>
      </trkpt>
      <trkpt lat="38.30517" lon="15.11304">
        <ele>3.02</ele>
        <time>2018-04-15T15:07:44Z</time>
      </trkpt>
      <trkpt lat="38.30556" lon="15.11299">
        <ele>2.54</ele>
        <time>2018-04-15T15:07:55Z</time>
      </trkpt>
      <trkpt lat="38.30598" lon="15.1129">
        <ele>2.06</ele>
        <time>2018-04-15T15:08:07Z</time>
      </trkpt>
      <trkpt lat="38.30608" lon="15.11287">
        <ele>1.58</ele>
        <time>2018-04-15T15:08:10Z</time>
      </trkpt>
      <trkpt lat="38.30642" lon="15.1128">
        <ele>1.1</ele>
        <time>2018-04-15T15:08:20Z</time>
      </trkpt>
      <trkpt lat="38.30694" lon="15.11273">
        <ele>1.1</ele>
        <time>2018-04-15T15:08:35Z</time>
      </trkpt>
      <trkpt lat="38.30736" lon="15.11274">
        <ele>1.1</ele>
        <time>2018-04-15T15:08:47Z</time>
      </trkpt>
      <trkpt lat="38.30778" lon="15.11281">
        <ele>1.1</ele>
        <time>2018-04-15T15:08:59Z</time>
      </trkpt>
      <trkpt lat="38.30811" lon="15.11284">
        <ele>1.1</ele>
        <time>2018-04-15T15:09:09Z</time>
      </trkpt>
      <trkpt lat="38.30853" lon="15.11289">
        <ele>1.1</ele>
        <time>2018-04-15T15:09:21Z</time>
      </trkpt>
      <trkpt lat="38.3089" lon="15.11296">
        <ele>1.1</ele>
        <time>2018-04-15T15:09:32Z</time>
      </trkpt>
      <trkpt lat="38.30945" lon="15.11308">
        <ele>1.1</ele>
        <time>2018-04-15T15:09:48Z</time>
      </trkpt>
      <trkpt lat="38.30982" lon="15.11315">
        <ele>1.1</ele>
        <time>2018-04-15T15:09:59Z</time>
      </trkpt>
      <trkpt lat="38.3102" lon="15.1132">
        <ele>1.58</ele>
        <time>2018-04-15T15:10:10Z</time>
      </trkpt>
      <trkpt lat="38.31057" lon="15.11318">
        <ele>1.58</ele>
        <time>2018-04-15T15:10:21Z</time>
      </trkpt>
      <trkpt lat="38.31102" lon="15.1131">
        <ele>1.1</ele>
        <time>2018-04-15T15:10:34Z</time>
      </trkpt>
      <trkpt lat="38.31148" lon="15.11299">
        <ele>0.62</ele>
        <time>2018-04-15T15:10:48Z</time>
      </trkpt>
      <trkpt lat="38.31186" lon="15.1129">
        <ele>1.1</ele>
        <time>2018-04-15T15:10:59Z</time>
      </trkpt>
      <trkpt lat="38.31226" lon="15.11275">
        <ele>1.1</ele>
        <time>2018-04-15T15:11:12Z</time>
      </trkpt>
      <trkpt lat="38.31261" lon="15.11264">
        <ele>0.62</ele>
        <time>2018-04-15T15:11:23Z</time>
      </trkpt>
      <trkpt lat="38.31305" lon="15.11252">
        <ele>1.1</ele>
        <time>2018-04-15T15:11:36Z</time>
      </trkpt>
      <trkpt lat="38.31342" lon="15.11238">
        <ele>1.1</ele>
        <time>2018-04-15T15:11:48Z</time>
      </trkpt>
      <trkpt lat="38.31376" lon="15.11225">
        <ele>0.62</ele>
        <time>2018-04-15T15:11:59Z</time>
      </trkpt>
      <trkpt lat="38.31402" lon="15.11217">
        <ele>1.1</ele>
        <time>2018-04-15T15:12:07Z</time>
      </trkpt>
      <trkpt lat="38.31424" lon="15.11202">
        <ele>1.58</ele>
        <time>2018-04-15T15:12:16Z</time>
      </trkpt>
      <trkpt lat="38.31453" lon="15.11192">
        <ele>0.62</ele>
        <time>2018-04-15T15:12:26Z</time>
      </trkpt>
      <trkpt lat="38.31493" lon="15.11178">
        <ele>0.14</ele>
        <time>2018-04-15T15:12:39Z</time>
      </trkpt>
      <trkpt lat="38.3153" lon="15.11163">
        <ele>1.1</ele>
        <time>2018-04-15T15:12:51Z</time>
      </trkpt>
      <trkpt lat="38.31555" lon="15.11147">
        <ele>1.58</ele>
        <time>2018-04-15T15:13:01Z</time>
      </trkpt>
      <trkpt lat="38.31588" lon="15.11129">
        <ele>1.58</ele>
        <time>2018-04-15T15:13:14Z</time>
      </trkpt>
      <trkpt lat="38.31622" lon="15.11111">
        <ele>1.1</ele>
        <time>2018-04-15T15:13:27Z</time>
      </trkpt>
      <trkpt lat="38.31654" lon="15.11094">
        <ele>1.58</ele>
        <time>2018-04-15T15:13:39Z</time>
      </trkpt>
      <trkpt lat="38.31682" lon="15.11081">
        <ele>1.58</ele>
        <time>2018-04-15T15:13:49Z</time>
      </trkpt>
      <trkpt lat="38.31709" lon="15.11062">
        <ele>2.06</ele>
        <time>2018-04-15T15:14:00Z</time>
      </trkpt>
      <trkpt lat="38.31732" lon="15.11047">
        <ele>1.58</ele>
        <time>2018-04-15T15:14:10Z</time>
      </trkpt>
      <trkpt lat="38.31762" lon="15.11028">
        <ele>1.1</ele>
        <time>2018-04-15T15:14:23Z</time>
      </trkpt>
      <trkpt lat="38.31788" lon="15.11014">
        <ele>1.58</ele>
        <time>2018-04-15T15:14:34Z</time>
      </trkpt>
      <trkpt lat="38.31815" lon="15.10997">
        <ele>1.58</ele>
        <time>2018-04-15T15:14:45Z</time>
      </trkpt>
      <trkpt lat="38.31841" lon="15.1098">
        <ele>1.58</ele>
        <time>2018-04-15T15:14:56Z</time>
      </trkpt>
      <trkpt lat="38.31873" lon="15.10961">
        <ele>2.06</ele>
        <time>2018-04-15T15:15:09Z</time>
      </trkpt>
      <trkpt lat="38.31902" lon="15.10942">
        <ele>2.06</ele>
        <time>2018-04-15T15:15:21Z</time>
      </trkpt>
      <trkpt lat="38.31938" lon="15.10921">
        <ele>2.06</ele>
        <time>2018-04-15T15:15:35Z</time>
      </trkpt>
      <trkpt lat="38.31971" lon="15.10896">
        <ele>2.06</ele>
        <time>2018-04-15T15:15:50Z</time>
      </trkpt>
      <trkpt lat="38.31999" lon="15.10876">
        <ele>1.1</ele>
        <time>2018-04-15T15:16:03Z</time>
      </trkpt>
      <trkpt lat="38.32026" lon="15.10856">
        <ele>1.1</ele>
        <time>2018-04-15T15:16:16Z</time>
      </trkpt>
      <trkpt lat="38.32055" lon="15.10843">
        <ele>1.58</ele>
        <time>2018-04-15T15:16:28Z</time>
      </trkpt>
      <trkpt lat="38.32082" lon="15.10828">
        <ele>1.58</ele>
        <time>2018-04-15T15:16:38Z</time>
      </trkpt>
      <trkpt lat="38.32112" lon="15.10815">
        <ele>1.1</ele>
        <time>2018-04-15T15:16:48Z</time>
      </trkpt>
      <trkpt lat="38.32146" lon="15.10801">
        <ele>1.1</ele>
        <time>2018-04-15T15:16:59Z</time>
      </trkpt>
      <trkpt lat="38.32175" lon="15.10784">
        <ele>1.58</ele>
        <time>2018-04-15T15:17:09Z</time>
      </trkpt>
      <trkpt lat="38.32209" lon="15.10772">
        <ele>1.58</ele>
        <time>2018-04-15T15:17:20Z</time>
      </trkpt>
      <trkpt lat="38.32238" lon="15.1075">
        <ele>2.06</ele>
        <time>2018-04-15T15:17:32Z</time>
      </trkpt>
      <trkpt lat="38.32267" lon="15.10734">
        <ele>2.06</ele>
        <time>2018-04-15T15:17:43Z</time>
      </trkpt>
      <trkpt lat="38.32304" lon="15.10712">
        <ele>1.1</ele>
        <time>2018-04-15T15:17:57Z</time>
      </trkpt>
      <trkpt lat="38.32336" lon="15.10692">
        <ele>1.58</ele>
        <time>2018-04-15T15:18:09Z</time>
      </trkpt>
      <trkpt lat="38.32361" lon="15.1068">
        <ele>1.1</ele>
        <time>2018-04-15T15:18:18Z</time>
      </trkpt>
      <trkpt lat="38.32377" lon="15.10671">
        <ele>1.58</ele>
        <time>2018-04-15T15:18:24Z</time>
      </trkpt>
      <trkpt lat="38.32412" lon="15.10647">
        <ele>1.1</ele>
        <time>2018-04-15T15:18:38Z</time>
      </trkpt>
      <trkpt lat="38.32441" lon="15.10629">
        <ele>1.58</ele>
        <time>2018-04-15T15:18:50Z</time>
      </trkpt>
      <trkpt lat="38.32477" lon="15.1061">
        <ele>1.58</ele>
        <time>2018-04-15T15:19:03Z</time>
      </trkpt>
      <trkpt lat="38.32507" lon="15.1059">
        <ele>2.06</ele>
        <time>2018-04-15T15:19:15Z</time>
      </trkpt>
      <trkpt lat="38.32534" lon="15.10573">
        <ele>2.06</ele>
        <time>2018-04-15T15:19:26Z</time>
      </trkpt>
      <trkpt lat="38.32566" lon="15.10553">
        <ele>2.06</ele>
        <time>2018-04-15T15:19:39Z</time>
      </trkpt>
      <trkpt lat="38.32593" lon="15.10534">
        <ele>1.58</ele>
        <time>2018-04-15T15:19:51Z</time>
      </trkpt>
      <trkpt lat="38.32625" lon="15.10515">
        <ele>1.1</ele>
        <time>2018-04-15T15:20:04Z</time>
      </trkpt>
      <trkpt lat="38.32652" lon="15.10502">
        <ele>0.62</ele>
        <time>2018-04-15T15:20:14Z</time>
      </trkpt>
      <trkpt lat="38.32669" lon="15.10494">
        <ele>0.62</ele>
        <time>2018-04-15T15:20:20Z</time>
      </trkpt>
      <trkpt lat="38.32692" lon="15.1048">
        <ele>1.1</ele>
        <time>2018-04-15T15:20:29Z</time>
      </trkpt>
      <trkpt lat="38.32728" lon="15.1046">
        <ele>1.1</ele>
        <time>2018-04-15T15:20:43Z</time>
      </trkpt>
      <trkpt lat="38.32762" lon="15.1044">
        <ele>1.1</ele>
        <time>2018-04-15T15:20:56Z</time>
      </trkpt>
      <trkpt lat="38.32794" lon="15.10421">
        <ele>1.1</ele>
        <time>2018-04-15T15:21:09Z</time>
      </trkpt>
      <trkpt lat="38.32826" lon="15.10404">
        <ele>1.1</ele>
        <time>2018-04-15T15:21:22Z</time>
      </trkpt>
      <trkpt lat="38.32867" lon="15.10377">
        <ele>1.58</ele>
        <time>2018-04-15T15:21:39Z</time>
      </trkpt>
      <trkpt lat="38.32901" lon="15.1036">
        <ele>1.1</ele>
        <time>2018-04-15T15:21:52Z</time>
      </trkpt>
      <trkpt lat="38.32934" lon="15.10341">
        <ele>1.1</ele>
        <time>2018-04-15T15:22:05Z</time>
      </trkpt>
      <trkpt lat="38.32969" lon="15.10321">
        <ele>1.1</ele>
        <time>2018-04-15T15:22:19Z</time>
      </trkpt>
      <trkpt lat="38.32996" lon="15.10306">
        <ele>1.1</ele>
        <time>2018-04-15T15:22:30Z</time>
      </trkpt>
      <trkpt lat="38.33022" lon="15.10289">
        <ele>1.58</ele>
        <time>2018-04-15T15:22:42Z</time>
      </trkpt>
      <trkpt lat="38.33051" lon="15.10273">
        <ele>1.58</ele>
        <time>2018-04-15T15:22:56Z</time>
      </trkpt>
      <trkpt lat="38.33077" lon="15.10259">
        <ele>1.58</ele>
        <time>2018-04-15T15:23:07Z</time>
      </trkpt>
      <trkpt lat="38.33111" lon="15.10244">
        <ele>2.06</ele>
        <time>2018-04-15T15:23:20Z</time>
      </trkpt>
      <trkpt lat="38.33139" lon="15.10228">
        <ele>1.58</ele>
        <time>2018-04-15T15:23:32Z</time>
      </trkpt>
      <trkpt lat="38.33167" lon="15.10211">
        <ele>2.06</ele>
        <time>2018-04-15T15:23:45Z</time>
      </trkpt>
      <trkpt lat="38.3319" lon="15.10197">
        <ele>2.06</ele>
        <time>2018-04-15T15:23:57Z</time>
      </trkpt>
      <trkpt lat="38.33214" lon="15.10184">
        <ele>2.06</ele>
        <time>2018-04-15T15:24:08Z</time>
      </trkpt>
      <trkpt lat="38.33238" lon="15.10172">
        <ele>1.58</ele>
        <time>2018-04-15T15:24:19Z</time>
      </trkpt>
      <trkpt lat="38.33264" lon="15.10156">
        <ele>2.06</ele>
        <time>2018-04-15T15:24:31Z</time>
      </trkpt>
      <trkpt lat="38.33292" lon="15.1014">
        <ele>2.06</ele>
        <time>2018-04-15T15:24:44Z</time>
      </trkpt>
      <trkpt lat="38.33324" lon="15.1012">
        <ele>2.06</ele>
        <time>2018-04-15T15:24:59Z</time>
      </trkpt>
      <trkpt lat="38.3335" lon="15.10102">
        <ele>2.06</ele>
        <time>2018-04-15T15:25:12Z</time>
      </trkpt>
      <trkpt lat="38.33375" lon="15.10087">
        <ele>2.06</ele>
        <time>2018-04-15T15:25:24Z</time>
      </trkpt>
      <trkpt lat="38.334" lon="15.10075">
        <ele>1.1</ele>
        <time>2018-04-15T15:25:35Z</time>
      </trkpt>
      <trkpt lat="38.33415" lon="15.10066">
        <ele>2.06</ele>
        <time>2018-04-15T15:25:42Z</time>
      </trkpt>
      <trkpt lat="38.33419" lon="15.10063">
        <ele>1.58</ele>
        <time>2018-04-15T15:25:44Z</time>
      </trkpt>
      <trkpt lat="38.33427" lon="15.10057">
        <ele>1.58</ele>
        <time>2018-04-15T15:25:48Z</time>
      </trkpt>
      <trkpt lat="38.33456" lon="15.10039">
        <ele>2.06</ele>
        <time>2018-04-15T15:26:02Z</time>
      </trkpt>
      <trkpt lat="38.33486" lon="15.10021">
        <ele>1.58</ele>
        <time>2018-04-15T15:26:16Z</time>
      </trkpt>
      <trkpt lat="38.33513" lon="15.09998">
        <ele>1.58</ele>
        <time>2018-04-15T15:26:32Z</time>
      </trkpt>
      <trkpt lat="38.3352" lon="15.09993">
        <ele>2.06</ele>
        <time>2018-04-15T15:26:36Z</time>
      </trkpt>
      <trkpt lat="38.33537" lon="15.09981">
        <ele>2.54</ele>
        <time>2018-04-15T15:26:46Z</time>
      </trkpt>
      <trkpt lat="38.33564" lon="15.09969">
        <ele>2.06</ele>
        <time>2018-04-15T15:26:59Z</time>
      </trkpt>
      <trkpt lat="38.33597" lon="15.09948">
        <ele>2.06</ele>
        <time>2018-04-15T15:27:16Z</time>
      </trkpt>
      <trkpt lat="38.33623" lon="15.09934">
        <ele>2.54</ele>
        <time>2018-04-15T15:27:29Z</time>
      </trkpt>
      <trkpt lat="38.33627" lon="15.09932">
        <ele>2.54</ele>
        <time>2018-04-15T15:27:31Z</time>
      </trkpt>
      <trkpt lat="38.33658" lon="15.09913">
        <ele>1.58</ele>
        <time>2018-04-15T15:27:49Z</time>
      </trkpt>
      <trkpt lat="38.33685" lon="15.09896">
        <ele>2.06</ele>
        <time>2018-04-15T15:28:03Z</time>
      </trkpt>
      <trkpt lat="38.33715" lon="15.09874">
        <ele>1.1</ele>
        <time>2018-04-15T15:28:18Z</time>
      </trkpt>
      <trkpt lat="38.33741" lon="15.09855">
        <ele>1.58</ele>
        <time>2018-04-15T15:28:32Z</time>
      </trkpt>
      <trkpt lat="38.33764" lon="15.09836">
        <ele>1.58</ele>
        <time>2018-04-15T15:28:46Z</time>
      </trkpt>
      <trkpt lat="38.33799" lon="15.09815">
        <ele>1.58</ele>
        <time>2018-04-15T15:29:02Z</time>
      </trkpt>
      <trkpt lat="38.33823" lon="15.09799">
        <ele>2.54</ele>
        <time>2018-04-15T15:29:15Z</time>
      </trkpt>
      <trkpt lat="38.33839" lon="15.09787">
        <ele>1.58</ele>
        <time>2018-04-15T15:29:25Z</time>
      </trkpt>
      <trkpt lat="38.3384" lon="15.09785">
        <ele>1.58</ele>
        <time>2018-04-15T15:29:26Z</time>
      </trkpt>
      <trkpt lat="38.33858" lon="15.09779">
        <ele>1.58</ele>
        <time>2018-04-15T15:29:35Z</time>
      </trkpt>
      <trkpt lat="38.33889" lon="15.09755">
        <ele>1.1</ele>
        <time>2018-04-15T15:29:50Z</time>
      </trkpt>
      <trkpt lat="38.33923" lon="15.09734">
        <ele>1.1</ele>
        <time>2018-04-15T15:30:05Z</time>
      </trkpt>
      <trkpt lat="38.33951" lon="15.09716">
        <ele>1.58</ele>
        <time>2018-04-15T15:30:17Z</time>
      </trkpt>
      <trkpt lat="38.33979" lon="15.09696">
        <ele>1.1</ele>
        <time>2018-04-15T15:30:30Z</time>
      </trkpt>
      <trkpt lat="38.34005" lon="15.09672">
        <ele>0.62</ele>
        <time>2018-04-15T15:30:43Z</time>
      </trkpt>
      <trkpt lat="38.34028" lon="15.0965">
        <ele>1.1</ele>
        <time>2018-04-15T15:30:56Z</time>
      </trkpt>
      <trkpt lat="38.34056" lon="15.0963">
        <ele>2.54</ele>
        <time>2018-04-15T15:31:09Z</time>
      </trkpt>
      <trkpt lat="38.34092" lon="15.09607">
        <ele>2.54</ele>
        <time>2018-04-15T15:31:23Z</time>
      </trkpt>
      <trkpt lat="38.3412" lon="15.09586">
        <ele>2.54</ele>
        <time>2018-04-15T15:31:35Z</time>
      </trkpt>
      <trkpt lat="38.34148" lon="15.09567">
        <ele>3.02</ele>
        <time>2018-04-15T15:31:47Z</time>
      </trkpt>
      <trkpt lat="38.34176" lon="15.09547">
        <ele>3.02</ele>
        <time>2018-04-15T15:31:59Z</time>
      </trkpt>
      <trkpt lat="38.34206" lon="15.09527">
        <ele>3.02</ele>
        <time>2018-04-15T15:32:11Z</time>
      </trkpt>
      <trkpt lat="38.34235" lon="15.09505">
        <ele>3.02</ele>
        <time>2018-04-15T15:32:23Z</time>
      </trkpt>
      <trkpt lat="38.34263" lon="15.09484">
        <ele>2.54</ele>
        <time>2018-04-15T15:32:35Z</time>
      </trkpt>
      <trkpt lat="38.34285" lon="15.09467">
        <ele>2.06</ele>
        <time>2018-04-15T15:32:44Z</time>
      </trkpt>
      <trkpt lat="38.34313" lon="15.09445">
        <ele>2.06</ele>
        <time>2018-04-15T15:32:56Z</time>
      </trkpt>
      <trkpt lat="38.34344" lon="15.09423">
        <ele>2.06</ele>
        <time>2018-04-15T15:33:09Z</time>
      </trkpt>
      <trkpt lat="38.34372" lon="15.094">
        <ele>1.58</ele>
        <time>2018-04-15T15:33:21Z</time>
      </trkpt>
      <trkpt lat="38.34406" lon="15.09373">
        <ele>1.1</ele>
        <time>2018-04-15T15:33:35Z</time>
      </trkpt>
      <trkpt lat="38.34447" lon="15.09339">
        <ele>2.06</ele>
        <time>2018-04-15T15:33:52Z</time>
      </trkpt>
      <trkpt lat="38.3448" lon="15.09311">
        <ele>2.54</ele>
        <time>2018-04-15T15:34:06Z</time>
      </trkpt>
      <trkpt lat="38.34515" lon="15.09284">
        <ele>2.54</ele>
        <time>2018-04-15T15:34:20Z</time>
      </trkpt>
      <trkpt lat="38.34552" lon="15.09265">
        <ele>2.54</ele>
        <time>2018-04-15T15:34:32Z</time>
      </trkpt>
      <trkpt lat="38.34593" lon="15.0924">
        <ele>2.54</ele>
        <time>2018-04-15T15:34:46Z</time>
      </trkpt>
      <trkpt lat="38.34623" lon="15.09217">
        <ele>2.06</ele>
        <time>2018-04-15T15:34:57Z</time>
      </trkpt>
      <trkpt lat="38.34664" lon="15.0919">
        <ele>1.58</ele>
        <time>2018-04-15T15:35:11Z</time>
      </trkpt>
      <trkpt lat="38.34709" lon="15.09162">
        <ele>1.58</ele>
        <time>2018-04-15T15:35:26Z</time>
      </trkpt>
      <trkpt lat="38.34764" lon="15.09127">
        <ele>1.1</ele>
        <time>2018-04-15T15:35:44Z</time>
      </trkpt>
      <trkpt lat="38.34801" lon="15.09106">
        <ele>1.58</ele>
        <time>2018-04-15T15:35:56Z</time>
      </trkpt>
      <trkpt lat="38.34836" lon="15.09082">
        <ele>1.58</ele>
        <time>2018-04-15T15:36:08Z</time>
      </trkpt>
      <trkpt lat="38.34872" lon="15.09053">
        <ele>1.1</ele>
        <time>2018-04-15T15:36:21Z</time>
      </trkpt>
      <trkpt lat="38.34902" lon="15.09025">
        <ele>2.06</ele>
        <time>2018-04-15T15:36:33Z</time>
      </trkpt>
      <trkpt lat="38.34937" lon="15.09">
        <ele>2.54</ele>
        <time>2018-04-15T15:36:46Z</time>
      </trkpt>
      <trkpt lat="38.34978" lon="15.08987">
        <ele>2.54</ele>
        <time>2018-04-15T15:36:58Z</time>
      </trkpt>
      <trkpt lat="38.35011" lon="15.08962">
        <ele>2.06</ele>
        <time>2018-04-15T15:37:10Z</time>
      </trkpt>
      <trkpt lat="38.35045" lon="15.08934">
        <ele>3.02</ele>
        <time>2018-04-15T15:37:23Z</time>
      </trkpt>
      <trkpt lat="38.3508" lon="15.08907">
        <ele>3.02</ele>
        <time>2018-04-15T15:37:36Z</time>
      </trkpt>
      <trkpt lat="38.35121" lon="15.08885">
        <ele>3.02</ele>
        <time>2018-04-15T15:37:49Z</time>
      </trkpt>
      <trkpt lat="38.35143" lon="15.08865">
        <ele>3.5</ele>
        <time>2018-04-15T15:37:58Z</time>
      </trkpt>
      <trkpt lat="38.35177" lon="15.08833">
        <ele>3.02</ele>
        <time>2018-04-15T15:38:12Z</time>
      </trkpt>
      <trkpt lat="38.35218" lon="15.08803">
        <ele>3.02</ele>
        <time>2018-04-15T15:38:27Z</time>
      </trkpt>
      <trkpt lat="38.35248" lon="15.08774">
        <ele>3.5</ele>
        <time>2018-04-15T15:38:40Z</time>
      </trkpt>
      <trkpt lat="38.35282" lon="15.08744">
        <ele>3.5</ele>
        <time>2018-04-15T15:38:54Z</time>
      </trkpt>
      <trkpt lat="38.35323" lon="15.08712">
        <ele>3.5</ele>
        <time>2018-04-15T15:39:09Z</time>
      </trkpt>
      <trkpt lat="38.35363" lon="15.08683">
        <ele>2.54</ele>
        <time>2018-04-15T15:39:23Z</time>
      </trkpt>
      <trkpt lat="38.35396" lon="15.08654">
        <ele>2.54</ele>
        <time>2018-04-15T15:39:36Z</time>
      </trkpt>
      <trkpt lat="38.35434" lon="15.08618">
        <ele>3.02</ele>
        <time>2018-04-15T15:39:52Z</time>
      </trkpt>
      <trkpt lat="38.35462" lon="15.0859">
        <ele>2.54</ele>
        <time>2018-04-15T15:40:05Z</time>
      </trkpt>
      <trkpt lat="38.35492" lon="15.08559">
        <ele>3.02</ele>
        <time>2018-04-15T15:40:20Z</time>
      </trkpt>
      <trkpt lat="38.35523" lon="15.08527">
        <ele>3.02</ele>
        <time>2018-04-15T15:40:35Z</time>
      </trkpt>
      <trkpt lat="38.35558" lon="15.08493">
        <ele>3.98</ele>
        <time>2018-04-15T15:40:51Z</time>
      </trkpt>
      <trkpt lat="38.35584" lon="15.08466">
        <ele>3.98</ele>
        <time>2018-04-15T15:41:03Z</time>
      </trkpt>
      <trkpt lat="38.3561" lon="15.08436">
        <ele>3.98</ele>
        <time>2018-04-15T15:41:16Z</time>
      </trkpt>
      <trkpt lat="38.35633" lon="15.08414">
        <ele>3.98</ele>
        <time>2018-04-15T15:41:26Z</time>
      </trkpt>
      <trkpt lat="38.35668" lon="15.08377">
        <ele>3.02</ele>
        <time>2018-04-15T15:41:41Z</time>
      </trkpt>
      <trkpt lat="38.35699" lon="15.08342">
        <ele>1.58</ele>
        <time>2018-04-15T15:41:55Z</time>
      </trkpt>
      <trkpt lat="38.35725" lon="15.08313">
        <ele>1.58</ele>
        <time>2018-04-15T15:42:07Z</time>
      </trkpt>
      <trkpt lat="38.35758" lon="15.08281">
        <ele>1.58</ele>
        <time>2018-04-15T15:42:21Z</time>
      </trkpt>
      <trkpt lat="38.35785" lon="15.08252">
        <ele>1.58</ele>
        <time>2018-04-15T15:42:33Z</time>
      </trkpt>
      <trkpt lat="38.35823" lon="15.08213">
        <ele>2.06</ele>
        <time>2018-04-15T15:42:49Z</time>
      </trkpt>
      <trkpt lat="38.35853" lon="15.0818">
        <ele>2.54</ele>
        <time>2018-04-15T15:43:02Z</time>
      </trkpt>
      <trkpt lat="38.35887" lon="15.08145">
        <ele>2.06</ele>
        <time>2018-04-15T15:43:17Z</time>
      </trkpt>
      <trkpt lat="38.35921" lon="15.08111">
        <ele>2.06</ele>
        <time>2018-04-15T15:43:32Z</time>
      </trkpt>
      <trkpt lat="38.35951" lon="15.08081">
        <ele>2.54</ele>
        <time>2018-04-15T15:43:45Z</time>
      </trkpt>
      <trkpt lat="38.35983" lon="15.08044">
        <ele>3.02</ele>
        <time>2018-04-15T15:44:00Z</time>
      </trkpt>
      <trkpt lat="38.36012" lon="15.08011">
        <ele>3.02</ele>
        <time>2018-04-15T15:44:14Z</time>
      </trkpt>
      <trkpt lat="38.36041" lon="15.0798">
        <ele>2.54</ele>
        <time>2018-04-15T15:44:27Z</time>
      </trkpt>
      <trkpt lat="38.36069" lon="15.07949">
        <ele>2.54</ele>
        <time>2018-04-15T15:44:40Z</time>
      </trkpt>
      <trkpt lat="38.36101" lon="15.07913">
        <ele>2.54</ele>
        <time>2018-04-15T15:44:55Z</time>
      </trkpt>
      <trkpt lat="38.36136" lon="15.07875">
        <ele>3.5</ele>
        <time>2018-04-15T15:45:11Z</time>
      </trkpt>
      <trkpt lat="38.36174" lon="15.07834">
        <ele>3.5</ele>
        <time>2018-04-15T15:45:27Z</time>
      </trkpt>
      <trkpt lat="38.36217" lon="15.07782">
        <ele>2.54</ele>
        <time>2018-04-15T15:45:46Z</time>
      </trkpt>
      <trkpt lat="38.36248" lon="15.07744">
        <ele>2.54</ele>
        <time>2018-04-15T15:46:00Z</time>
      </trkpt>
      <trkpt lat="38.36278" lon="15.07708">
        <ele>3.5</ele>
        <time>2018-04-15T15:46:14Z</time>
      </trkpt>
      <trkpt lat="38.36311" lon="15.07669">
        <ele>3.98</ele>
        <time>2018-04-15T15:46:29Z</time>
      </trkpt>
      <trkpt lat="38.36344" lon="15.07631">
        <ele>3.98</ele>
        <time>2018-04-15T15:46:44Z</time>
      </trkpt>
      <trkpt lat="38.36373" lon="15.07597">
        <ele>3.98</ele>
        <time>2018-04-15T15:46:57Z</time>
      </trkpt>
      <trkpt lat="38.36403" lon="15.07552">
        <ele>3.98</ele>
        <time>2018-04-15T15:47:12Z</time>
      </trkpt>
      <trkpt lat="38.36427" lon="15.07515">
        <ele>4.46</ele>
        <time>2018-04-15T15:47:24Z</time>
      </trkpt>
      <trkpt lat="38.3646" lon="15.07465">
        <ele>4.94</ele>
        <time>2018-04-15T15:47:40Z</time>
      </trkpt>
      <trkpt lat="38.3649" lon="15.07418">
        <ele>4.46</ele>
        <time>2018-04-15T15:47:55Z</time>
      </trkpt>
      <trkpt lat="38.36527" lon="15.07364">
        <ele>3.98</ele>
        <time>2018-04-15T15:48:12Z</time>
      </trkpt>
      <trkpt lat="38.36559" lon="15.07314">
        <ele>4.94</ele>
        <time>2018-04-15T15:48:27Z</time>
      </trkpt>
      <trkpt lat="38.36583" lon="15.07272">
        <ele>4.94</ele>
        <time>2018-04-15T15:48:39Z</time>
      </trkpt>
      <trkpt lat="38.36615" lon="15.07215">
        <ele>4.46</ele>
        <time>2018-04-15T15:48:55Z</time>
      </trkpt>
      <trkpt lat="38.36651" lon="15.07173">
        <ele>3.98</ele>
        <time>2018-04-15T15:49:09Z</time>
      </trkpt>
      <trkpt lat="38.36679" lon="15.07141">
        <ele>4.46</ele>
        <time>2018-04-15T15:49:20Z</time>
      </trkpt>
      <trkpt lat="38.36712" lon="15.07088">
        <ele>3.98</ele>
        <time>2018-04-15T15:49:35Z</time>
      </trkpt>
      <trkpt lat="38.36736" lon="15.07045">
        <ele>3.98</ele>
        <time>2018-04-15T15:49:47Z</time>
      </trkpt>
      <trkpt lat="38.36763" lon="15.06992">
        <ele>4.94</ele>
        <time>2018-04-15T15:50:01Z</time>
      </trkpt>
      <trkpt lat="38.36792" lon="15.06936">
        <ele>4.46</ele>
        <time>2018-04-15T15:50:16Z</time>
      </trkpt>
      <trkpt lat="38.36817" lon="15.06887">
        <ele>4.46</ele>
        <time>2018-04-15T15:50:29Z</time>
      </trkpt>
      <trkpt lat="38.36844" lon="15.06835">
        <ele>3.98</ele>
        <time>2018-04-15T15:50:43Z</time>
      </trkpt>
      <trkpt lat="38.36866" lon="15.06795">
        <ele>4.46</ele>
        <time>2018-04-15T15:50:54Z</time>
      </trkpt>
      <trkpt lat="38.36892" lon="15.06748">
        <ele>3.98</ele>
        <time>2018-04-15T15:51:07Z</time>
      </trkpt>
      <trkpt lat="38.36915" lon="15.06702">
        <ele>3.98</ele>
        <time>2018-04-15T15:51:19Z</time>
      </trkpt>
      <trkpt lat="38.36949" lon="15.06638">
        <ele>4.46</ele>
        <time>2018-04-15T15:51:36Z</time>
      </trkpt>
      <trkpt lat="38.36975" lon="15.06594">
        <ele>4.94</ele>
        <time>2018-04-15T15:51:48Z</time>
      </trkpt>
      <trkpt lat="38.36999" lon="15.06549">
        <ele>4.94</ele>
        <time>2018-04-15T15:52:00Z</time>
      </trkpt>
      <trkpt lat="38.3702" lon="15.06509">
        <ele>4.46</ele>
        <time>2018-04-15T15:52:11Z</time>
      </trkpt>
      <trkpt lat="38.37048" lon="15.06459">
        <ele>4.94</ele>
        <time>2018-04-15T15:52:25Z</time>
      </trkpt>
      <trkpt lat="38.37069" lon="15.0642">
        <ele>4.46</ele>
        <time>2018-04-15T15:52:36Z</time>
      </trkpt>
      <trkpt lat="38.37093" lon="15.06377">
        <ele>4.94</ele>
        <time>2018-04-15T15:52:48Z</time>
      </trkpt>
      <trkpt lat="38.37117" lon="15.06334">
        <ele>3.5</ele>
        <time>2018-04-15T15:53:00Z</time>
      </trkpt>
      <trkpt lat="38.3714" lon="15.06293">
        <ele>3.5</ele>
        <time>2018-04-15T15:53:11Z</time>
      </trkpt>
      <trkpt lat="38.37162" lon="15.06253">
        <ele>3.5</ele>
        <time>2018-04-15T15:53:22Z</time>
      </trkpt>
      <trkpt lat="38.37193" lon="15.06199">
        <ele>3.98</ele>
        <time>2018-04-15T15:53:37Z</time>
      </trkpt>
      <trkpt lat="38.37222" lon="15.06153">
        <ele>3.5</ele>
        <time>2018-04-15T15:53:50Z</time>
      </trkpt>
      <trkpt lat="38.37251" lon="15.06102">
        <ele>3.98</ele>
        <time>2018-04-15T15:54:04Z</time>
      </trkpt>
      <trkpt lat="38.3728" lon="15.06051">
        <ele>3.98</ele>
        <time>2018-04-15T15:54:18Z</time>
      </trkpt>
      <trkpt lat="38.373" lon="15.06016">
        <ele>3.98</ele>
        <time>2018-04-15T15:54:28Z</time>
      </trkpt>
      <trkpt lat="38.37326" lon="15.0597">
        <ele>3.98</ele>
        <time>2018-04-15T15:54:41Z</time>
      </trkpt>
      <trkpt lat="38.37354" lon="15.05925">
        <ele>3.98</ele>
        <time>2018-04-15T15:54:54Z</time>
      </trkpt>
      <trkpt lat="38.37377" lon="15.05883">
        <ele>3.5</ele>
        <time>2018-04-15T15:55:06Z</time>
      </trkpt>
      <trkpt lat="38.37399" lon="15.0584">
        <ele>3.98</ele>
        <time>2018-04-15T15:55:18Z</time>
      </trkpt>
      <trkpt lat="38.37425" lon="15.05794">
        <ele>3.5</ele>
        <time>2018-04-15T15:55:31Z</time>
      </trkpt>
      <trkpt lat="38.3745" lon="15.05756">
        <ele>3.5</ele>
        <time>2018-04-15T15:55:42Z</time>
      </trkpt>
      <trkpt lat="38.37476" lon="15.05714">
        <ele>3.98</ele>
        <time>2018-04-15T15:55:54Z</time>
      </trkpt>
      <trkpt lat="38.37498" lon="15.05676">
        <ele>3.98</ele>
        <time>2018-04-15T15:56:05Z</time>
      </trkpt>
      <trkpt lat="38.37517" lon="15.05641">
        <ele>3.5</ele>
        <time>2018-04-15T15:56:15Z</time>
      </trkpt>
      <trkpt lat="38.37542" lon="15.056">
        <ele>3.98</ele>
        <time>2018-04-15T15:56:27Z</time>
      </trkpt>
      <trkpt lat="38.37568" lon="15.05561">
        <ele>4.46</ele>
        <time>2018-04-15T15:56:39Z</time>
      </trkpt>
      <trkpt lat="38.37592" lon="15.0552">
        <ele>4.46</ele>
        <time>2018-04-15T15:56:51Z</time>
      </trkpt>
      <trkpt lat="38.37614" lon="15.05482">
        <ele>4.46</ele>
        <time>2018-04-15T15:57:02Z</time>
      </trkpt>
      <trkpt lat="38.37624" lon="15.05465">
        <ele>4.46</ele>
        <time>2018-04-15T15:57:07Z</time>
      </trkpt>
      <trkpt lat="38.3765" lon="15.05425">
        <ele>4.46</ele>
        <time>2018-04-15T15:57:19Z</time>
      </trkpt>
      <trkpt lat="38.37668" lon="15.05393">
        <ele>4.46</ele>
        <time>2018-04-15T15:57:28Z</time>
      </trkpt>
      <trkpt lat="38.37694" lon="15.05358">
        <ele>4.94</ele>
        <time>2018-04-15T15:57:39Z</time>
      </trkpt>
      <trkpt lat="38.3772" lon="15.05317">
        <ele>4.94</ele>
        <time>2018-04-15T15:57:51Z</time>
      </trkpt>
      <trkpt lat="38.37741" lon="15.05278">
        <ele>4.94</ele>
        <time>2018-04-15T15:58:02Z</time>
      </trkpt>
      <trkpt lat="38.37766" lon="15.05235">
        <ele>4.94</ele>
        <time>2018-04-15T15:58:14Z</time>
      </trkpt>
      <trkpt lat="38.37783" lon="15.05206">
        <ele>3.98</ele>
        <time>2018-04-15T15:58:22Z</time>
      </trkpt>
      <trkpt lat="38.37807" lon="15.05168">
        <ele>3.98</ele>
        <time>2018-04-15T15:58:33Z</time>
      </trkpt>
      <trkpt lat="38.37832" lon="15.05128">
        <ele>4.46</ele>
        <time>2018-04-15T15:58:44Z</time>
      </trkpt>
      <trkpt lat="38.37858" lon="15.05089">
        <ele>4.46</ele>
        <time>2018-04-15T15:58:55Z</time>
      </trkpt>
      <trkpt lat="38.37887" lon="15.05041">
        <ele>4.46</ele>
        <time>2018-04-15T15:59:08Z</time>
      </trkpt>
      <trkpt lat="38.37916" lon="15.04996">
        <ele>4.46</ele>
        <time>2018-04-15T15:59:21Z</time>
      </trkpt>
      <trkpt lat="38.3795" lon="15.04953">
        <ele>4.94</ele>
        <time>2018-04-15T15:59:34Z</time>
      </trkpt>
      <trkpt lat="38.37982" lon="15.04914">
        <ele>4.94</ele>
        <time>2018-04-15T15:59:46Z</time>
      </trkpt>
      <trkpt lat="38.38014" lon="15.04875">
        <ele>5.42</ele>
        <time>2018-04-15T15:59:58Z</time>
      </trkpt>
      <trkpt lat="38.3805" lon="15.04826">
        <ele>4.46</ele>
        <time>2018-04-15T16:00:12Z</time>
      </trkpt>
      <trkpt lat="38.38079" lon="15.04783">
        <ele>4.46</ele>
        <time>2018-04-15T16:00:24Z</time>
      </trkpt>
      <trkpt lat="38.38121" lon="15.04731">
        <ele>4.94</ele>
        <time>2018-04-15T16:00:40Z</time>
      </trkpt>
      <trkpt lat="38.38154" lon="15.04682">
        <ele>5.42</ele>
        <time>2018-04-15T16:00:54Z</time>
      </trkpt>
      <trkpt lat="38.38183" lon="15.04641">
        <ele>4.94</ele>
        <time>2018-04-15T16:01:06Z</time>
      </trkpt>
      <trkpt lat="38.38208" lon="15.04603">
        <ele>4.94</ele>
        <time>2018-04-15T16:01:17Z</time>
      </trkpt>
      <trkpt lat="38.38233" lon="15.04567">
        <ele>3.98</ele>
        <time>2018-04-15T16:01:28Z</time>
      </trkpt>
      <trkpt lat="38.38263" lon="15.04528">
        <ele>3.98</ele>
        <time>2018-04-15T16:01:40Z</time>
      </trkpt>
      <trkpt lat="38.38284" lon="15.04495">
        <ele>3.98</ele>
        <time>2018-04-15T16:01:50Z</time>
      </trkpt>
      <trkpt lat="38.38305" lon="15.04465">
        <ele>3.5</ele>
        <time>2018-04-15T16:01:59Z</time>
      </trkpt>
      <trkpt lat="38.38335" lon="15.04423">
        <ele>3.5</ele>
        <time>2018-04-15T16:02:12Z</time>
      </trkpt>
      <trkpt lat="38.38363" lon="15.04382">
        <ele>3.02</ele>
        <time>2018-04-15T16:02:24Z</time>
      </trkpt>
      <trkpt lat="38.38397" lon="15.04339">
        <ele>3.02</ele>
        <time>2018-04-15T16:02:37Z</time>
      </trkpt>
      <trkpt lat="38.3842" lon="15.04306">
        <ele>2.54</ele>
        <time>2018-04-15T16:02:47Z</time>
      </trkpt>
      <trkpt lat="38.38454" lon="15.04258">
        <ele>3.5</ele>
        <time>2018-04-15T16:03:01Z</time>
      </trkpt>
      <trkpt lat="38.38483" lon="15.04213">
        <ele>3.98</ele>
        <time>2018-04-15T16:03:14Z</time>
      </trkpt>
      <trkpt lat="38.38512" lon="15.0417">
        <ele>3.98</ele>
        <time>2018-04-15T16:03:26Z</time>
      </trkpt>
      <trkpt lat="38.38535" lon="15.04136">
        <ele>3.5</ele>
        <time>2018-04-15T16:03:36Z</time>
      </trkpt>
      <trkpt lat="38.38569" lon="15.04089">
        <ele>3.5</ele>
        <time>2018-04-15T16:03:50Z</time>
      </trkpt>
      <trkpt lat="38.38602" lon="15.04041">
        <ele>3.5</ele>
        <time>2018-04-15T16:04:04Z</time>
      </trkpt>
      <trkpt lat="38.38639" lon="15.03991">
        <ele>3.98</ele>
        <time>2018-04-15T16:04:19Z</time>
      </trkpt>
      <trkpt lat="38.38676" lon="15.03935">
        <ele>4.46</ele>
        <time>2018-04-15T16:04:35Z</time>
      </trkpt>
      <trkpt lat="38.38698" lon="15.03903">
        <ele>4.46</ele>
        <time>2018-04-15T16:04:44Z</time>
      </trkpt>
      <trkpt lat="38.38725" lon="15.0386">
        <ele>3.98</ele>
        <time>2018-04-15T16:04:56Z</time>
      </trkpt>
      <trkpt lat="38.38749" lon="15.03819">
        <ele>3.98</ele>
        <time>2018-04-15T16:05:07Z</time>
      </trkpt>
      <trkpt lat="38.3878" lon="15.03774">
        <ele>4.46</ele>
        <time>2018-04-15T16:05:20Z</time>
      </trkpt>
      <trkpt lat="38.38812" lon="15.03726">
        <ele>4.46</ele>
        <time>2018-04-15T16:05:34Z</time>
      </trkpt>
      <trkpt lat="38.38851" lon="15.03666">
        <ele>3.98</ele>
        <time>2018-04-15T16:05:52Z</time>
      </trkpt>
      <trkpt lat="38.38887" lon="15.0362">
        <ele>3.5</ele>
        <time>2018-04-15T16:06:07Z</time>
      </trkpt>
      <trkpt lat="38.38916" lon="15.03575">
        <ele>3.98</ele>
        <time>2018-04-15T16:06:20Z</time>
      </trkpt>
      <trkpt lat="38.38947" lon="15.03521">
        <ele>3.5</ele>
        <time>2018-04-15T16:06:34Z</time>
      </trkpt>
      <trkpt lat="38.38971" lon="15.0348">
        <ele>3.02</ele>
        <time>2018-04-15T16:06:45Z</time>
      </trkpt>
      <trkpt lat="38.38997" lon="15.03421">
        <ele>2.54</ele>
        <time>2018-04-15T16:07:00Z</time>
      </trkpt>
      <trkpt lat="38.39022" lon="15.03368">
        <ele>2.54</ele>
        <time>2018-04-15T16:07:13Z</time>
      </trkpt>
      <trkpt lat="38.39048" lon="15.03313">
        <ele>3.02</ele>
        <time>2018-04-15T16:07:27Z</time>
      </trkpt>
      <trkpt lat="38.39074" lon="15.03261">
        <ele>3.02</ele>
        <time>2018-04-15T16:07:40Z</time>
      </trkpt>
      <trkpt lat="38.39105" lon="15.03197">
        <ele>2.54</ele>
        <time>2018-04-15T16:07:56Z</time>
      </trkpt>
      <trkpt lat="38.39133" lon="15.03137">
        <ele>3.02</ele>
        <time>2018-04-15T16:08:11Z</time>
      </trkpt>
      <trkpt lat="38.39161" lon="15.03082">
        <ele>3.02</ele>
        <time>2018-04-15T16:08:25Z</time>
      </trkpt>
      <trkpt lat="38.3919" lon="15.03021">
        <ele>3.5</ele>
        <time>2018-04-15T16:08:42Z</time>
      </trkpt>
      <trkpt lat="38.39213" lon="15.02975">
        <ele>3.02</ele>
        <time>2018-04-15T16:08:57Z</time>
      </trkpt>
      <trkpt lat="38.39237" lon="15.02938">
        <ele>3.02</ele>
        <time>2018-04-15T16:09:11Z</time>
      </trkpt>
      <trkpt lat="38.3925" lon="15.0292">
        <ele>3.02</ele>
        <time>2018-04-15T16:09:19Z</time>
      </trkpt>
      <trkpt lat="38.39271" lon="15.02885">
        <ele>3.02</ele>
        <time>2018-04-15T16:09:33Z</time>
      </trkpt>
      <trkpt lat="38.3929" lon="15.02853">
        <ele>3.02</ele>
        <time>2018-04-15T16:09:47Z</time>
      </trkpt>
      <trkpt lat="38.39317" lon="15.02812">
        <ele>2.54</ele>
        <time>2018-04-15T16:10:05Z</time>
      </trkpt>
      <trkpt lat="38.39344" lon="15.02775">
        <ele>2.54</ele>
        <time>2018-04-15T16:10:22Z</time>
      </trkpt>
      <trkpt lat="38.39366" lon="15.02743">
        <ele>2.54</ele>
        <time>2018-04-15T16:10:38Z</time>
      </trkpt>
      <trkpt lat="38.39394" lon="15.02708">
        <ele>3.02</ele>
        <time>2018-04-15T16:10:56Z</time>
      </trkpt>
      <trkpt lat="38.39415" lon="15.02679">
        <ele>3.5</ele>
        <time>2018-04-15T16:11:11Z</time>
      </trkpt>
      <trkpt lat="38.39444" lon="15.02645">
        <ele>3.5</ele>
        <time>2018-04-15T16:11:27Z</time>
      </trkpt>
      <trkpt lat="38.39472" lon="15.02609">
        <ele>4.94</ele>
        <time>2018-04-15T16:11:42Z</time>
      </trkpt>
      <trkpt lat="38.39504" lon="15.02572">
        <ele>4.94</ele>
        <time>2018-04-15T16:12:00Z</time>
      </trkpt>
      <trkpt lat="38.39527" lon="15.02546">
        <ele>5.42</ele>
        <time>2018-04-15T16:12:16Z</time>
      </trkpt>
      <trkpt lat="38.39551" lon="15.02515">
        <ele>4.46</ele>
        <time>2018-04-15T16:12:32Z</time>
      </trkpt>
      <trkpt lat="38.39574" lon="15.02485">
        <ele>3.98</ele>
        <time>2018-04-15T16:12:47Z</time>
      </trkpt>
      <trkpt lat="38.39598" lon="15.02451">
        <ele>3.5</ele>
        <time>2018-04-15T16:13:02Z</time>
      </trkpt>
      <trkpt lat="38.39625" lon="15.02409">
        <ele>3.02</ele>
        <time>2018-04-15T16:13:18Z</time>
      </trkpt>
      <trkpt lat="38.39654" lon="15.02363">
        <ele>2.06</ele>
        <time>2018-04-15T16:13:35Z</time>
      </trkpt>
      <trkpt lat="38.39682" lon="15.02313">
        <ele>1.1</ele>
        <time>2018-04-15T16:13:51Z</time>
      </trkpt>
      <trkpt lat="38.39709" lon="15.0226">
        <ele>1.1</ele>
        <time>2018-04-15T16:14:08Z</time>
      </trkpt>
      <trkpt lat="38.39736" lon="15.02222">
        <ele>1.1</ele>
        <time>2018-04-15T16:14:23Z</time>
      </trkpt>
      <trkpt lat="38.3976" lon="15.02181">
        <ele>1.1</ele>
        <time>2018-04-15T16:14:40Z</time>
      </trkpt>
      <trkpt lat="38.3978" lon="15.02149">
        <ele>2.06</ele>
        <time>2018-04-15T16:14:57Z</time>
      </trkpt>
      <trkpt lat="38.39807" lon="15.02122">
        <ele>2.54</ele>
        <time>2018-04-15T16:15:16Z</time>
      </trkpt>
      <trkpt lat="38.39823" lon="15.02096">
        <ele>2.54</ele>
        <time>2018-04-15T16:15:29Z</time>
      </trkpt>
      <trkpt lat="38.39843" lon="15.02061">
        <ele>2.06</ele>
        <time>2018-04-15T16:15:46Z</time>
      </trkpt>
      <trkpt lat="38.39869" lon="15.02016">
        <ele>1.58</ele>
        <time>2018-04-15T16:16:04Z</time>
      </trkpt>
      <trkpt lat="38.39894" lon="15.01969">
        <ele>2.06</ele>
        <time>2018-04-15T16:16:21Z</time>
      </trkpt>
      <trkpt lat="38.39923" lon="15.01922">
        <ele>1.58</ele>
        <time>2018-04-15T16:16:39Z</time>
      </trkpt>
      <trkpt lat="38.39945" lon="15.01893">
        <ele>2.06</ele>
        <time>2018-04-15T16:16:53Z</time>
      </trkpt>
      <trkpt lat="38.3997" lon="15.0187">
        <ele>2.06</ele>
        <time>2018-04-15T16:17:07Z</time>
      </trkpt>
      <trkpt lat="38.40009" lon="15.01833">
        <ele>2.54</ele>
        <time>2018-04-15T16:17:26Z</time>
      </trkpt>
      <trkpt lat="38.40046" lon="15.01797">
        <ele>2.06</ele>
        <time>2018-04-15T16:17:43Z</time>
      </trkpt>
      <trkpt lat="38.40084" lon="15.01758">
        <ele>2.54</ele>
        <time>2018-04-15T16:18:00Z</time>
      </trkpt>
      <trkpt lat="38.40124" lon="15.01706">
        <ele>3.5</ele>
        <time>2018-04-15T16:18:21Z</time>
      </trkpt>
      <trkpt lat="38.40162" lon="15.01657">
        <ele>2.06</ele>
        <time>2018-04-15T16:18:42Z</time>
      </trkpt>
      <trkpt lat="38.40199" lon="15.01617">
        <ele>3.02</ele>
        <time>2018-04-15T16:19:00Z</time>
      </trkpt>
      <trkpt lat="38.4023" lon="15.01585">
        <ele>3.5</ele>
        <time>2018-04-15T16:19:16Z</time>
      </trkpt>
      <trkpt lat="38.4026" lon="15.01558">
        <ele>3.5</ele>
        <time>2018-04-15T16:19:30Z</time>
      </trkpt>
      <trkpt lat="38.40291" lon="15.01523">
        <ele>2.54</ele>
        <time>2018-04-15T16:19:45Z</time>
      </trkpt>
      <trkpt lat="38.4032" lon="15.01485">
        <ele>2.06</ele>
        <time>2018-04-15T16:20:00Z</time>
      </trkpt>
      <trkpt lat="38.40351" lon="15.0144">
        <ele>1.58</ele>
        <time>2018-04-15T16:20:16Z</time>
      </trkpt>
      <trkpt lat="38.40383" lon="15.01389">
        <ele>1.58</ele>
        <time>2018-04-15T16:20:34Z</time>
      </trkpt>
      <trkpt lat="38.40411" lon="15.01337">
        <ele>1.1</ele>
        <time>2018-04-15T16:20:51Z</time>
      </trkpt>
      <trkpt lat="38.4044" lon="15.013">
        <ele>1.58</ele>
        <time>2018-04-15T16:21:05Z</time>
      </trkpt>
      <trkpt lat="38.40481" lon="15.01246">
        <ele>1.58</ele>
        <time>2018-04-15T16:21:25Z</time>
      </trkpt>
      <trkpt lat="38.40525" lon="15.01182">
        <ele>1.58</ele>
        <time>2018-04-15T16:21:48Z</time>
      </trkpt>
      <trkpt lat="38.40559" lon="15.01138">
        <ele>1.58</ele>
        <time>2018-04-15T16:22:04Z</time>
      </trkpt>
      <trkpt lat="38.40584" lon="15.01098">
        <ele>1.1</ele>
        <time>2018-04-15T16:22:19Z</time>
      </trkpt>
      <trkpt lat="38.40606" lon="15.01061">
        <ele>2.54</ele>
        <time>2018-04-15T16:22:34Z</time>
      </trkpt>
      <trkpt lat="38.40626" lon="15.01031">
        <ele>2.54</ele>
        <time>2018-04-15T16:22:49Z</time>
      </trkpt>
      <trkpt lat="38.40657" lon="15.00989">
        <ele>2.06</ele>
        <time>2018-04-15T16:23:05Z</time>
      </trkpt>
      <trkpt lat="38.407" lon="15.00932">
        <ele>2.06</ele>
        <time>2018-04-15T16:23:25Z</time>
      </trkpt>
      <trkpt lat="38.40734" lon="15.00884">
        <ele>2.06</ele>
        <time>2018-04-15T16:23:42Z</time>
      </trkpt>
      <trkpt lat="38.4074" lon="15.00876">
        <ele>2.54</ele>
        <time>2018-04-15T16:23:45Z</time>
      </trkpt>
      <trkpt lat="38.40749" lon="15.00852">
        <ele>2.54</ele>
        <time>2018-04-15T16:23:59Z</time>
      </trkpt>
      <trkpt lat="38.40772" lon="15.00817">
        <ele>2.54</ele>
        <time>2018-04-15T16:24:13Z</time>
      </trkpt>
      <trkpt lat="38.40813" lon="15.00761">
        <ele>2.54</ele>
        <time>2018-04-15T16:24:34Z</time>
      </trkpt>
      <trkpt lat="38.40837" lon="15.00722">
        <ele>2.06</ele>
        <time>2018-04-15T16:24:48Z</time>
      </trkpt>
      <trkpt lat="38.40865" lon="15.00679">
        <ele>2.54</ele>
        <time>2018-04-15T16:25:03Z</time>
      </trkpt>
      <trkpt lat="38.40896" lon="15.00625">
        <ele>2.54</ele>
        <time>2018-04-15T16:25:21Z</time>
      </trkpt>
      <trkpt lat="38.40922" lon="15.00585">
        <ele>2.54</ele>
        <time>2018-04-15T16:25:38Z</time>
      </trkpt>
      <trkpt lat="38.40951" lon="15.00548">
        <ele>1.58</ele>
        <time>2018-04-15T16:25:55Z</time>
      </trkpt>
      <trkpt lat="38.40975" lon="15.00515">
        <ele>1.58</ele>
        <time>2018-04-15T16:26:10Z</time>
      </trkpt>
      <trkpt lat="38.41" lon="15.00478">
        <ele>1.1</ele>
        <time>2018-04-15T16:26:28Z</time>
      </trkpt>
      <trkpt lat="38.4102" lon="15.00442">
        <ele>2.06</ele>
        <time>2018-04-15T16:26:43Z</time>
      </trkpt>
      <trkpt lat="38.41034" lon="15.00406">
        <ele>3.02</ele>
        <time>2018-04-15T16:26:59Z</time>
      </trkpt>
      <trkpt lat="38.41059" lon="15.00378">
        <ele>2.06</ele>
        <time>2018-04-15T16:27:15Z</time>
      </trkpt>
      <trkpt lat="38.41103" lon="15.00342">
        <ele>1.58</ele>
        <time>2018-04-15T16:27:33Z</time>
      </trkpt>
      <trkpt lat="38.41129" lon="15.00291">
        <ele>2.54</ele>
        <time>2018-04-15T16:27:51Z</time>
      </trkpt>
      <trkpt lat="38.41151" lon="15.00249">
        <ele>3.02</ele>
        <time>2018-04-15T16:28:08Z</time>
      </trkpt>
      <trkpt lat="38.41182" lon="15.00199">
        <ele>2.54</ele>
        <time>2018-04-15T16:28:27Z</time>
      </trkpt>
      <trkpt lat="38.41212" lon="15.00153">
        <ele>1.58</ele>
        <time>2018-04-15T16:28:44Z</time>
      </trkpt>
      <trkpt lat="38.41249" lon="15.00106">
        <ele>1.58</ele>
        <time>2018-04-15T16:29:02Z</time>
      </trkpt>
      <trkpt lat="38.41289" lon="15.00045">
        <ele>1.1</ele>
        <time>2018-04-15T16:29:22Z</time>
      </trkpt>
      <trkpt lat="38.41334" lon="14.99983">
        <ele>1.58</ele>
        <time>2018-04-15T16:29:44Z</time>
      </trkpt>
      <trkpt lat="38.41369" lon="14.99933">
        <ele>2.06</ele>
        <time>2018-04-15T16:30:03Z</time>
      </trkpt>
      <trkpt lat="38.41396" lon="14.99882">
        <ele>1.58</ele>
        <time>2018-04-15T16:30:19Z</time>
      </trkpt>
      <trkpt lat="38.41413" lon="14.9984">
        <ele>2.54</ele>
        <time>2018-04-15T16:30:34Z</time>
      </trkpt>
      <trkpt lat="38.41436" lon="14.99813">
        <ele>3.02</ele>
        <time>2018-04-15T16:30:44Z</time>
      </trkpt>
      <trkpt lat="38.41466" lon="14.9983">
        <ele>3.5</ele>
        <time>2018-04-15T16:30:55Z</time>
      </trkpt>
      <trkpt lat="38.41493" lon="14.99861">
        <ele>3.02</ele>
        <time>2018-04-15T16:31:09Z</time>
      </trkpt>
      <trkpt lat="38.41528" lon="14.99895">
        <ele>3.02</ele>
        <time>2018-04-15T16:31:25Z</time>
      </trkpt>
      <trkpt lat="38.41575" lon="14.9993">
        <ele>3.02</ele>
        <time>2018-04-15T16:31:44Z</time>
      </trkpt>
      <trkpt lat="38.41622" lon="14.99956">
        <ele>3.5</ele>
        <time>2018-04-15T16:32:04Z</time>
      </trkpt>
      <trkpt lat="38.41659" lon="14.99946">
        <ele>3.02</ele>
        <time>2018-04-15T16:32:23Z</time>
      </trkpt>
      <trkpt lat="38.41669" lon="14.99906">
        <ele>3.98</ele>
        <time>2018-04-15T16:32:38Z</time>
      </trkpt>
      <trkpt lat="38.41666" lon="14.99863">
        <ele>3.5</ele>
        <time>2018-04-15T16:32:55Z</time>
      </trkpt>
      <trkpt lat="38.41644" lon="14.99836">
        <ele>2.54</ele>
        <time>2018-04-15T16:33:15Z</time>
      </trkpt>
      <trkpt lat="38.4162" lon="14.99817">
        <ele>3.02</ele>
        <time>2018-04-15T16:33:37Z</time>
      </trkpt>
      <trkpt lat="38.41628" lon="14.99771">
        <ele>4.46</ele>
        <time>2018-04-15T16:33:56Z</time>
      </trkpt>
      <trkpt lat="38.41632" lon="14.99715">
        <ele>4.94</ele>
        <time>2018-04-15T16:34:16Z</time>
      </trkpt>
      <trkpt lat="38.41628" lon="14.9968">
        <ele>4.46</ele>
        <time>2018-04-15T16:34:31Z</time>
      </trkpt>
      <trkpt lat="38.41601" lon="14.9966">
        <ele>3.98</ele>
        <time>2018-04-15T16:34:50Z</time>
      </trkpt>
      <trkpt lat="38.41575" lon="14.99644">
        <ele>4.46</ele>
        <time>2018-04-15T16:35:08Z</time>
      </trkpt>
      <trkpt lat="38.41552" lon="14.9962">
        <ele>3.5</ele>
        <time>2018-04-15T16:35:27Z</time>
      </trkpt>
      <trkpt lat="38.4153" lon="14.9959">
        <ele>3.98</ele>
        <time>2018-04-15T16:35:48Z</time>
      </trkpt>
      <trkpt lat="38.41512" lon="14.99552">
        <ele>4.46</ele>
        <time>2018-04-15T16:36:10Z</time>
      </trkpt>
      <trkpt lat="38.41497" lon="14.99515">
        <ele>4.46</ele>
        <time>2018-04-15T16:36:30Z</time>
      </trkpt>
      <trkpt lat="38.41479" lon="14.99485">
        <ele>3.5</ele>
        <time>2018-04-15T16:36:50Z</time>
      </trkpt>
      <trkpt lat="38.41455" lon="14.99452">
        <ele>3.5</ele>
        <time>2018-04-15T16:37:13Z</time>
      </trkpt>
      <trkpt lat="38.41426" lon="14.99417">
        <ele>2.06</ele>
        <time>2018-04-15T16:37:38Z</time>
      </trkpt>
      <trkpt lat="38.41419" lon="14.99383">
        <ele>3.02</ele>
        <time>2018-04-15T16:37:56Z</time>
      </trkpt>
      <trkpt lat="38.41415" lon="14.9933">
        <ele>4.46</ele>
        <time>2018-04-15T16:38:21Z</time>
      </trkpt>
      <trkpt lat="38.41417" lon="14.99289">
        <ele>3.98</ele>
        <time>2018-04-15T16:38:39Z</time>
      </trkpt>
      <trkpt lat="38.41421" lon="14.99246">
        <ele>4.46</ele>
        <time>2018-04-15T16:38:58Z</time>
      </trkpt>
      <trkpt lat="38.41426" lon="14.99199">
        <ele>4.46</ele>
        <time>2018-04-15T16:39:19Z</time>
      </trkpt>
      <trkpt lat="38.41442" lon="14.99155">
        <ele>3.02</ele>
        <time>2018-04-15T16:39:40Z</time>
      </trkpt>
      <trkpt lat="38.41451" lon="14.99109">
        <ele>3.98</ele>
        <time>2018-04-15T16:40:02Z</time>
      </trkpt>
      <trkpt lat="38.41454" lon="14.99069">
        <ele>3.98</ele>
        <time>2018-04-15T16:40:22Z</time>
      </trkpt>
      <trkpt lat="38.41457" lon="14.99029">
        <ele>3.98</ele>
        <time>2018-04-15T16:40:43Z</time>
      </trkpt>
      <trkpt lat="38.41458" lon="14.9898">
        <ele>4.46</ele>
        <time>2018-04-15T16:41:07Z</time>
      </trkpt>
      <trkpt lat="38.41461" lon="14.98941">
        <ele>4.46</ele>
        <time>2018-04-15T16:41:24Z</time>
      </trkpt>
      <trkpt lat="38.4147" lon="14.98891">
        <ele>5.42</ele>
        <time>2018-04-15T16:41:46Z</time>
      </trkpt>
      <trkpt lat="38.41482" lon="14.98846">
        <ele>5.42</ele>
        <time>2018-04-15T16:42:07Z</time>
      </trkpt>
      <trkpt lat="38.41487" lon="14.98795">
        <ele>5.42</ele>
        <time>2018-04-15T16:42:29Z</time>
      </trkpt>
      <trkpt lat="38.41494" lon="14.98756">
        <ele>6.39</ele>
        <time>2018-04-15T16:42:47Z</time>
      </trkpt>
      <trkpt lat="38.41501" lon="14.98704">
        <ele>6.39</ele>
        <time>2018-04-15T16:43:12Z</time>
      </trkpt>
      <trkpt lat="38.41506" lon="14.98668">
        <ele>5.91</ele>
        <time>2018-04-15T16:43:32Z</time>
      </trkpt>
      <trkpt lat="38.4151" lon="14.98634">
        <ele>5.42</ele>
        <time>2018-04-15T16:43:52Z</time>
      </trkpt>
      <trkpt lat="38.41515" lon="14.98596">
        <ele>5.42</ele>
        <time>2018-04-15T16:44:15Z</time>
      </trkpt>
      <trkpt lat="38.4152" lon="14.98552">
        <ele>4.94</ele>
        <time>2018-04-15T16:44:42Z</time>
      </trkpt>
      <trkpt lat="38.41519" lon="14.98519">
        <ele>3.98</ele>
        <time>2018-04-15T16:45:05Z</time>
      </trkpt>
      <trkpt lat="38.41517" lon="14.98484">
        <ele>4.46</ele>
        <time>2018-04-15T16:45:29Z</time>
      </trkpt>
      <trkpt lat="38.41516" lon="14.9845">
        <ele>4.46</ele>
        <time>2018-04-15T16:45:51Z</time>
      </trkpt>
      <trkpt lat="38.4152" lon="14.98408">
        <ele>3.98</ele>
        <time>2018-04-15T16:46:19Z</time>
      </trkpt>
      <trkpt lat="38.41524" lon="14.98376">
        <ele>4.46</ele>
        <time>2018-04-15T16:46:40Z</time>
      </trkpt>
      <trkpt lat="38.41536" lon="14.98337">
        <ele>4.94</ele>
        <time>2018-04-15T16:47:05Z</time>
      </trkpt>
      <trkpt lat="38.41545" lon="14.98298">
        <ele>4.94</ele>
        <time>2018-04-15T16:47:29Z</time>
      </trkpt>
      <trkpt lat="38.41545" lon="14.98262">
        <ele>4.46</ele>
        <time>2018-04-15T16:47:49Z</time>
      </trkpt>
      <trkpt lat="38.41548" lon="14.9821">
        <ele>3.5</ele>
        <time>2018-04-15T16:48:11Z</time>
      </trkpt>
      <trkpt lat="38.41549" lon="14.98135">
        <ele>4.46</ele>
        <time>2018-04-15T16:48:37Z</time>
      </trkpt>
      <trkpt lat="38.41546" lon="14.98062">
        <ele>4.94</ele>
        <time>2018-04-15T16:49:02Z</time>
      </trkpt>
      <trkpt lat="38.41542" lon="14.97994">
        <ele>4.94</ele>
        <time>2018-04-15T16:49:25Z</time>
      </trkpt>
      <trkpt lat="38.41543" lon="14.97922">
        <ele>5.42</ele>
        <time>2018-04-15T16:49:48Z</time>
      </trkpt>
      <trkpt lat="38.41547" lon="14.9785">
        <ele>4.94</ele>
        <time>2018-04-15T16:50:11Z</time>
      </trkpt>
      <trkpt lat="38.41552" lon="14.97779">
        <ele>3.98</ele>
        <time>2018-04-15T16:50:33Z</time>
      </trkpt>
      <trkpt lat="38.41554" lon="14.97714">
        <ele>3.98</ele>
        <time>2018-04-15T16:50:54Z</time>
      </trkpt>
      <trkpt lat="38.41557" lon="14.97642">
        <ele>3.98</ele>
        <time>2018-04-15T16:51:17Z</time>
      </trkpt>
      <trkpt lat="38.41553" lon="14.97566">
        <ele>3.02</ele>
        <time>2018-04-15T16:51:42Z</time>
      </trkpt>
      <trkpt lat="38.41547" lon="14.97499">
        <ele>3.5</ele>
        <time>2018-04-15T16:52:03Z</time>
      </trkpt>
      <trkpt lat="38.41547" lon="14.97424">
        <ele>3.5</ele>
        <time>2018-04-15T16:52:26Z</time>
      </trkpt>
      <trkpt lat="38.41551" lon="14.97353">
        <ele>3.98</ele>
        <time>2018-04-15T16:52:48Z</time>
      </trkpt>
      <trkpt lat="38.41555" lon="14.97303">
        <ele>3.98</ele>
        <time>2018-04-15T16:53:04Z</time>
      </trkpt>
      <trkpt lat="38.41564" lon="14.97262">
        <ele>3.02</ele>
        <time>2018-04-15T16:53:17Z</time>
      </trkpt>
      <trkpt lat="38.41572" lon="14.97205">
        <ele>2.54</ele>
        <time>2018-04-15T16:53:34Z</time>
      </trkpt>
      <trkpt lat="38.41574" lon="14.97146">
        <ele>3.5</ele>
        <time>2018-04-15T16:53:52Z</time>
      </trkpt>
      <trkpt lat="38.41576" lon="14.97085">
        <ele>3.5</ele>
        <time>2018-04-15T16:54:10Z</time>
      </trkpt>
      <trkpt lat="38.41576" lon="14.97049">
        <ele>3.5</ele>
        <time>2018-04-15T16:54:21Z</time>
      </trkpt>
      <trkpt lat="38.41578" lon="14.97002">
        <ele>4.94</ele>
        <time>2018-04-15T16:54:37Z</time>
      </trkpt>
      <trkpt lat="38.41581" lon="14.96961">
        <ele>4.94</ele>
        <time>2018-04-15T16:54:52Z</time>
      </trkpt>
      <trkpt lat="38.41581" lon="14.96914">
        <ele>5.91</ele>
        <time>2018-04-15T16:55:09Z</time>
      </trkpt>
      <trkpt lat="38.41575" lon="14.96873">
        <ele>4.46</ele>
        <time>2018-04-15T16:55:24Z</time>
      </trkpt>
      <trkpt lat="38.41567" lon="14.96834">
        <ele>3.02</ele>
        <time>2018-04-15T16:55:38Z</time>
      </trkpt>
      <trkpt lat="38.41559" lon="14.96784">
        <ele>2.06</ele>
        <time>2018-04-15T16:55:57Z</time>
      </trkpt>
      <trkpt lat="38.41549" lon="14.96742">
        <ele>3.5</ele>
        <time>2018-04-15T16:56:13Z</time>
      </trkpt>
      <trkpt lat="38.41537" lon="14.96701">
        <ele>3.5</ele>
        <time>2018-04-15T16:56:29Z</time>
      </trkpt>
      <trkpt lat="38.41527" lon="14.96661">
        <ele>2.06</ele>
        <time>2018-04-15T16:56:45Z</time>
      </trkpt>
      <trkpt lat="38.41516" lon="14.96621">
        <ele>2.54</ele>
        <time>2018-04-15T16:57:01Z</time>
      </trkpt>
      <trkpt lat="38.41501" lon="14.96587">
        <ele>3.02</ele>
        <time>2018-04-15T16:57:16Z</time>
      </trkpt>
      <trkpt lat="38.41483" lon="14.96543">
        <ele>0.62</ele>
        <time>2018-04-15T16:57:35Z</time>
      </trkpt>
      <trkpt lat="38.4147" lon="14.96487">
        <ele>2.06</ele>
        <time>2018-04-15T16:57:58Z</time>
      </trkpt>
      <trkpt lat="38.41469" lon="14.96458">
        <ele>2.54</ele>
        <time>2018-04-15T16:58:12Z</time>
      </trkpt>
      <trkpt lat="38.41467" lon="14.9643">
        <ele>2.54</ele>
        <time>2018-04-15T16:58:26Z</time>
      </trkpt>
      <trkpt lat="38.41476" lon="14.96422">
        <ele>3.5</ele>
        <time>2018-04-15T16:58:32Z</time>
      </trkpt>
      <trkpt lat="38.41524" lon="14.96411">
        <ele>3.02</ele>
        <time>2018-04-15T16:58:59Z</time>
      </trkpt>
      <trkpt lat="38.41561" lon="14.964">
        <ele>3.5</ele>
        <time>2018-04-15T16:59:18Z</time>
      </trkpt>
      <trkpt lat="38.41603" lon="14.9638">
        <ele>5.42</ele>
        <time>2018-04-15T16:59:40Z</time>
      </trkpt>
      <trkpt lat="38.41631" lon="14.96358">
        <ele>4.94</ele>
        <time>2018-04-15T16:59:58Z</time>
      </trkpt>
      <trkpt lat="38.41659" lon="14.9632">
        <ele>5.42</ele>
        <time>2018-04-15T17:00:20Z</time>
      </trkpt>
      <trkpt lat="38.41684" lon="14.96294">
        <ele>4.94</ele>
        <time>2018-04-15T17:00:37Z</time>
      </trkpt>
      <trkpt lat="38.41706" lon="14.96278">
        <ele>3.5</ele>
        <time>2018-04-15T17:00:50Z</time>
      </trkpt>
      <trkpt lat="38.41741" lon="14.96256">
        <ele>3.5</ele>
        <time>2018-04-15T17:01:11Z</time>
      </trkpt>
      <trkpt lat="38.41768" lon="14.96241">
        <ele>2.54</ele>
        <time>2018-04-15T17:01:28Z</time>
      </trkpt>
      <trkpt lat="38.41789" lon="14.96221">
        <ele>3.5</ele>
        <time>2018-04-15T17:01:45Z</time>
      </trkpt>
      <trkpt lat="38.41811" lon="14.96204">
        <ele>3.02</ele>
        <time>2018-04-15T17:02:03Z</time>
      </trkpt>
      <trkpt lat="38.41834" lon="14.96196">
        <ele>1.1</ele>
        <time>2018-04-15T17:02:16Z</time>
      </trkpt>
      <trkpt lat="38.41852" lon="14.96194">
        <ele>0.14</ele>
        <time>2018-04-15T17:02:25Z</time>
      </trkpt>
      <trkpt lat="38.41859" lon="14.9622">
        <ele>0.62</ele>
        <time>2018-04-15T17:02:40Z</time>
      </trkpt>
      <trkpt lat="38.41854" lon="14.96225">
        <ele>0.62</ele>
        <time>2018-04-15T17:02:44Z</time>
      </trkpt>
      <trkpt lat="38.41852" lon="14.96227">
        <ele>0.62</ele>
        <time>2018-04-15T17:02:46Z</time>
      </trkpt>
      <trkpt lat="38.41845" lon="14.96229">
        <ele>0.14</ele>
        <time>2018-04-15T17:02:50Z</time>
      </trkpt>
      <trkpt lat="38.41828" lon="14.96227">
        <ele>-0.82</ele>
        <time>2018-04-15T17:03:06Z</time>
      </trkpt>
      <trkpt lat="38.41821" lon="14.96225">
        <ele>0.62</ele>
        <time>2018-04-15T17:03:14Z</time>
      </trkpt>
      <trkpt lat="38.41819" lon="14.96226">
        <ele>0.62</ele>
        <time>2018-04-15T17:03:17Z</time>
      </trkpt>
      <trkpt lat="38.41809" lon="14.96218">
        <ele>0.14</ele>
        <time>2018-04-15T17:03:32Z</time>
      </trkpt>
      <trkpt lat="38.41806" lon="14.96214">
        <ele>1.58</ele>
        <time>2018-04-15T17:03:40Z</time>
      </trkpt>
      <trkpt lat="38.41804" lon="14.96213">
        <ele>1.58</ele>
        <time>2018-04-15T17:03:42Z</time>
      </trkpt>
      <trkpt lat="38.41797" lon="14.96212">
        <ele>1.1</ele>
        <time>2018-04-15T17:03:55Z</time>
      </trkpt>
      <trkpt lat="38.41791" lon="14.96211">
        <ele>0.62</ele>
        <time>2018-04-15T17:04:10Z</time>
      </trkpt>
      <trkpt lat="38.41784" lon="14.96207">
        <ele>0.14</ele>
        <time>2018-04-15T17:04:25Z</time>
      </trkpt>
      <trkpt lat="38.41778" lon="14.96204">
        <ele>0.14</ele>
        <time>2018-04-15T17:04:47Z</time>
      </trkpt>
      <trkpt lat="38.41766" lon="14.96191">
        <ele>-0.34</ele>
        <time>2018-04-15T17:05:06Z</time>
      </trkpt>
      <trkpt lat="38.41755" lon="14.96186">
        <ele>0.62</ele>
        <time>2018-04-15T17:05:26Z</time>
      </trkpt>
      <trkpt lat="38.41748" lon="14.96179">
        <ele>0.14</ele>
        <time>2018-04-15T17:05:41Z</time>
      </trkpt>
      <trkpt lat="38.41744" lon="14.96175">
        <ele>2.06</ele>
        <time>2018-04-15T17:05:57Z</time>
      </trkpt>
      <trkpt lat="38.41744" lon="14.96177">
        <ele>1.58</ele>
        <time>2018-04-15T17:06:01Z</time>
      </trkpt>
      <trkpt lat="38.41743" lon="14.9618">
        <ele>0.14</ele>
        <time>2018-04-15T17:06:12Z</time>
      </trkpt>
      <trkpt lat="38.41736" lon="14.96178">
        <ele>1.1</ele>
        <time>2018-04-15T17:06:24Z</time>
      </trkpt>
      <trkpt lat="38.41734" lon="14.9618">
        <ele>1.1</ele>
        <time>2018-04-15T17:06:40Z</time>
      </trkpt>
      <trkpt lat="38.41723" lon="14.9618">
        <ele>1.58</ele>
        <time>2018-04-15T17:06:59Z</time>
      </trkpt>
      <trkpt lat="38.41714" lon="14.9618">
        <ele>1.58</ele>
        <time>2018-04-15T17:07:09Z</time>
      </trkpt>
      <trkpt lat="38.41697" lon="14.96181">
        <ele>-0.34</ele>
        <time>2018-04-15T17:07:30Z</time>
      </trkpt>
      <trkpt lat="38.41681" lon="14.96176">
        <ele>-0.82</ele>
        <time>2018-04-15T17:07:50Z</time>
      </trkpt>
      <trkpt lat="38.41671" lon="14.96162">
        <ele>0.14</ele>
        <time>2018-04-15T17:08:13Z</time>
      </trkpt>
      <trkpt lat="38.41669" lon="14.96158">
        <ele>1.58</ele>
        <time>2018-04-15T17:08:31Z</time>
      </trkpt>
      <trkpt lat="38.41666" lon="14.96163">
        <ele>2.54</ele>
        <time>2018-04-15T17:08:52Z</time>
      </trkpt>
      <trkpt lat="38.4167" lon="14.96171">
        <ele>2.54</ele>
        <time>2018-04-15T17:09:11Z</time>
      </trkpt>
      <trkpt lat="38.41671" lon="14.96173">
        <ele>2.06</ele>
        <time>2018-04-15T17:09:25Z</time>
      </trkpt>
      <trkpt lat="38.41674" lon="14.96174">
        <ele>1.58</ele>
        <time>2018-04-15T17:09:44Z</time>
      </trkpt>
      <trkpt lat="38.41677" lon="14.96174">
        <ele>2.06</ele>
        <time>2018-04-15T17:10:05Z</time>
      </trkpt>
      <trkpt lat="38.4168" lon="14.96177">
        <ele>2.06</ele>
        <time>2018-04-15T17:10:23Z</time>
      </trkpt>
      <trkpt lat="38.41682" lon="14.96179">
        <ele>1.1</ele>
        <time>2018-04-15T17:10:41Z</time>
      </trkpt>
      <trkpt lat="38.41681" lon="14.96179">
        <ele>1.1</ele>
        <time>2018-04-15T17:11:02Z</time>
      </trkpt>
      <trkpt lat="38.41682" lon="14.96181">
        <ele>1.1</ele>
        <time>2018-04-15T17:11:25Z</time>
      </trkpt>
      <trkpt lat="38.41678" lon="14.96188">
        <ele>1.1</ele>
        <time>2018-04-15T17:11:49Z</time>
      </trkpt>
      <trkpt lat="38.41675" lon="14.96188">
        <ele>-1.3</ele>
        <time>2018-04-15T17:12:10Z</time>
      </trkpt>
      <trkpt lat="38.41673" lon="14.96191">
        <ele>-1.3</ele>
        <time>2018-04-15T17:12:29Z</time>
      </trkpt>
      <trkpt lat="38.4167" lon="14.96191">
        <ele>-0.82</ele>
        <time>2018-04-15T17:12:51Z</time>
      </trkpt>
      <trkpt lat="38.41672" lon="14.96191">
        <ele>-0.82</ele>
        <time>2018-04-15T17:13:11Z</time>
      </trkpt>
      <trkpt lat="38.41673" lon="14.9619">
        <ele>1.1</ele>
        <time>2018-04-15T17:13:28Z</time>
      </trkpt>
      <trkpt lat="38.41674" lon="14.9619">
        <ele>0.62</ele>
        <time>2018-04-15T17:13:51Z</time>
      </trkpt>
      <trkpt lat="38.41675" lon="14.9619">
        <ele>1.1</ele>
        <time>2018-04-15T17:14:24Z</time>
      </trkpt>
      <trkpt lat="38.41676" lon="14.96188">
        <ele>2.06</ele>
        <time>2018-04-15T17:14:44Z</time>
      </trkpt>
      <trkpt lat="38.41676" lon="14.96189">
        <ele>2.06</ele>
        <time>2018-04-15T17:15:08Z</time>
      </trkpt>
      <trkpt lat="38.41675" lon="14.96188">
        <ele>2.06</ele>
        <time>2018-04-15T17:15:33Z</time>
      </trkpt>
      <trkpt lat="38.41677" lon="14.96188">
        <ele>1.58</ele>
        <time>2018-04-15T17:16:00Z</time>
      </trkpt>
      <trkpt lat="38.41677" lon="14.96188">
        <ele>1.58</ele>
        <time>2018-04-15T17:16:29Z</time>
      </trkpt>
      <trkpt lat="38.41679" lon="14.96185">
        <ele>2.06</ele>
        <time>2018-04-15T17:16:59Z</time>
      </trkpt>
      <trkpt lat="38.4168" lon="14.96183">
        <ele>2.54</ele>
        <time>2018-04-15T17:17:27Z</time>
      </trkpt>
      <trkpt lat="38.4168" lon="14.96184">
        <ele>2.54</ele>
        <time>2018-04-15T17:17:52Z</time>
      </trkpt>
      <trkpt lat="38.41678" lon="14.96189">
        <ele>2.06</ele>
        <time>2018-04-15T17:18:17Z</time>
      </trkpt>
      <trkpt lat="38.41675" lon="14.96189">
        <ele>2.54</ele>
        <time>2018-04-15T17:18:38Z</time>
      </trkpt>
      <trkpt lat="38.41673" lon="14.96188">
        <ele>3.02</ele>
        <time>2018-04-15T17:18:56Z</time>
      </trkpt>
      <trkpt lat="38.41674" lon="14.9619">
        <ele>2.54</ele>
        <time>2018-04-15T17:19:12Z</time>
      </trkpt>
      <trkpt lat="38.41674" lon="14.96189">
        <ele>2.54</ele>
        <time>2018-04-15T17:19:38Z</time>
      </trkpt>
      <trkpt lat="38.41675" lon="14.96189">
        <ele>2.06</ele>
        <time>2018-04-15T17:19:56Z</time>
      </trkpt>
      <trkpt lat="38.41677" lon="14.96189">
        <ele>2.06</ele>
        <time>2018-04-15T17:20:17Z</time>
      </trkpt>
      <trkpt lat="38.41677" lon="14.96189">
        <ele>2.06</ele>
        <time>2018-04-15T17:20:49Z</time>
      </trkpt>
      <trkpt lat="38.41677" lon="14.96189">
        <ele>2.06</ele>
        <time>2018-04-15T17:21:11Z</time>
      </trkpt>
      <trkpt lat="38.41676" lon="14.96189">
        <ele>2.06</ele>
        <time>2018-04-15T17:21:36Z</time>
      </trkpt>
      <trkpt lat="38.41677" lon="14.96189">
        <ele>2.06</ele>
        <time>2018-04-15T17:22:04Z</time>
      </trkpt>
      <trkpt lat="38.4168" lon="14.96192">
        <ele>1.1</ele>
        <time>2018-04-15T17:22:22Z</time>
      </trkpt>
      <trkpt lat="38.41682" lon="14.96197">
        <ele>-0.34</ele>
        <time>2018-04-15T17:22:35Z</time>
      </trkpt>
      <trkpt lat="38.41682" lon="14.96196">
        <ele>-0.34</ele>
        <time>2018-04-15T17:23:02Z</time>
      </trkpt>
      <trkpt lat="38.41683" lon="14.96196">
        <ele>0.62</ele>
        <time>2018-04-15T17:23:26Z</time>
      </trkpt>
      <trkpt lat="38.41685" lon="14.96196">
        <ele>0.62</ele>
        <time>2018-04-15T17:23:41Z</time>
      </trkpt>
      <trkpt lat="38.41686" lon="14.96197">
        <ele>0.62</ele>
        <time>2018-04-15T17:23:58Z</time>
      </trkpt>
      <trkpt lat="38.41685" lon="14.96194">
        <ele>-0.34</ele>
        <time>2018-04-15T17:24:11Z</time>
      </trkpt>
      <trkpt lat="38.41686" lon="14.96194">
        <ele>-0.82</ele>
        <time>2018-04-15T17:24:25Z</time>
      </trkpt>
      <trkpt lat="38.41685" lon="14.96196">
        <ele>-1.79</ele>
        <time>2018-04-15T17:24:41Z</time>
      </trkpt>
      <trkpt lat="38.41686" lon="14.96198">
        <ele>-2.75</ele>
        <time>2018-04-15T17:24:57Z</time>
      </trkpt>
      <trkpt lat="38.41686" lon="14.96203">
        <ele>-3.23</ele>
        <time>2018-04-15T17:25:07Z</time>
      </trkpt>
      <trkpt lat="38.41684" lon="14.96204">
        <ele>-1.79</ele>
        <time>2018-04-15T17:25:27Z</time>
      </trkpt>
      <trkpt lat="38.41684" lon="14.96202">
        <ele>0.14</ele>
        <time>2018-04-15T17:25:46Z</time>
      </trkpt>
      <trkpt lat="38.41687" lon="14.96201">
        <ele>-0.34</ele>
        <time>2018-04-15T17:26:00Z</time>
      </trkpt>
      <trkpt lat="38.41689" lon="14.96199">
        <ele>0.62</ele>
        <time>2018-04-15T17:26:15Z</time>
      </trkpt>
      <trkpt lat="38.41689" lon="14.96195">
        <ele>0.62</ele>
        <time>2018-04-15T17:26:30Z</time>
      </trkpt>
      <trkpt lat="38.41689" lon="14.96195">
        <ele>0.14</ele>
        <time>2018-04-15T17:26:47Z</time>
      </trkpt>
      <trkpt lat="38.41684" lon="14.96194">
        <ele>0.62</ele>
        <time>2018-04-15T17:27:05Z</time>
      </trkpt>
      <trkpt lat="38.41683" lon="14.96194">
        <ele>0.62</ele>
        <time>2018-04-15T17:27:19Z</time>
      </trkpt>
      <trkpt lat="38.41684" lon="14.96196">
        <ele>0.62</ele>
        <time>2018-04-15T17:27:42Z</time>
      </trkpt>
      <trkpt lat="38.41682" lon="14.96194">
        <ele>0.14</ele>
        <time>2018-04-15T17:27:57Z</time>
      </trkpt>
      <trkpt lat="38.41683" lon="14.96196">
        <ele>-0.34</ele>
        <time>2018-04-15T17:28:08Z</time>
      </trkpt>
      <trkpt lat="38.41682" lon="14.96196">
        <ele>0.14</ele>
        <time>2018-04-15T17:28:24Z</time>
      </trkpt>
      <trkpt lat="38.4168" lon="14.96197">
        <ele>1.58</ele>
        <time>2018-04-15T17:28:41Z</time>
      </trkpt>
      <trkpt lat="38.4168" lon="14.962">
        <ele>1.58</ele>
        <time>2018-04-15T17:28:56Z</time>
      </trkpt>
      <trkpt lat="38.4168" lon="14.96199">
        <ele>1.1</ele>
        <time>2018-04-15T17:29:16Z</time>
      </trkpt>
      <trkpt lat="38.4168" lon="14.96199">
        <ele>1.1</ele>
        <time>2018-04-15T17:29:38Z</time>
      </trkpt>
      <trkpt lat="38.41682" lon="14.96198">
        <ele>2.54</ele>
        <time>2018-04-15T17:30:00Z</time>
      </trkpt>
      <trkpt lat="38.41684" lon="14.96197">
        <ele>3.02</ele>
        <time>2018-04-15T17:30:23Z</time>
      </trkpt>
      <trkpt lat="38.41684" lon="14.96197">
        <ele>2.54</ele>
        <time>2018-04-15T17:30:39Z</time>
      </trkpt>
      <trkpt lat="38.41683" lon="14.96197">
        <ele>2.54</ele>
        <time>2018-04-15T17:30:56Z</time>
      </trkpt>
      <trkpt lat="38.41681" lon="14.96196">
        <ele>2.54</ele>
        <time>2018-04-15T17:31:06Z</time>
      </trkpt>
      <trkpt lat="38.41681" lon="14.96197">
        <ele>2.54</ele>
        <time>2018-04-15T17:31:22Z</time>
      </trkpt>
      <trkpt lat="38.4168" lon="14.96199">
        <ele>2.54</ele>
        <time>2018-04-15T17:31:34Z</time>
      </trkpt>
      <trkpt lat="38.41679" lon="14.96199">
        <ele>2.54</ele>
        <time>2018-04-15T17:31:46Z</time>
      </trkpt>
    </trkseg>
  </trk>
  <trk>
    <name><![CDATA[Tracé actuel: 16 AVR 2018 09:24]]></name>
    <trkseg>
      <trkpt lat="38.41656" lon="14.96191">
        <ele>-0.34</ele>
        <time>2018-04-16T07:24:51Z</time>
      </trkpt>
      <trkpt lat="38.4165" lon="14.96198">
        <ele>-17.65</ele>
        <time>2018-04-16T07:25:04Z</time>
      </trkpt>
      <trkpt lat="38.41647" lon="14.96198">
        <ele>-25.82</ele>
        <time>2018-04-16T07:25:20Z</time>
      </trkpt>
      <trkpt lat="38.41648" lon="14.96196">
        <ele>-27.74</ele>
        <time>2018-04-16T07:25:33Z</time>
      </trkpt>
      <trkpt lat="38.41647" lon="14.96193">
        <ele>-30.14</ele>
        <time>2018-04-16T07:25:46Z</time>
      </trkpt>
      <trkpt lat="38.41648" lon="14.96194">
        <ele>-30.14</ele>
        <time>2018-04-16T07:25:58Z</time>
      </trkpt>
      <trkpt lat="38.41647" lon="14.96193">
        <ele>-32.07</ele>
        <time>2018-04-16T07:26:10Z</time>
      </trkpt>
      <trkpt lat="38.41647" lon="14.96193">
        <ele>-33.03</ele>
        <time>2018-04-16T07:26:17Z</time>
      </trkpt>
      <trkpt lat="38.41647" lon="14.96197">
        <ele>-32.55</ele>
        <time>2018-04-16T07:26:36Z</time>
      </trkpt>
      <trkpt lat="38.41649" lon="14.96203">
        <ele>-28.7</ele>
        <time>2018-04-16T07:26:52Z</time>
      </trkpt>
      <trkpt lat="38.41653" lon="14.96202">
        <ele>-13.8</ele>
        <time>2018-04-16T07:27:06Z</time>
      </trkpt>
      <trkpt lat="38.41653" lon="14.96202">
        <ele>-12.36</ele>
        <time>2018-04-16T07:27:15Z</time>
      </trkpt>
      <trkpt lat="38.41653" lon="14.96203">
        <ele>-10.92</ele>
        <time>2018-04-16T07:27:28Z</time>
      </trkpt>
      <trkpt lat="38.41655" lon="14.96206">
        <ele>-8.03</ele>
        <time>2018-04-16T07:27:42Z</time>
      </trkpt>
      <trkpt lat="38.41674" lon="14.96204">
        <ele>-1.3</ele>
        <time>2018-04-16T07:27:57Z</time>
      </trkpt>
      <trkpt lat="38.41679" lon="14.96203">
        <ele>0.62</ele>
        <time>2018-04-16T07:28:10Z</time>
      </trkpt>
      <trkpt lat="38.41677" lon="14.96206">
        <ele>1.1</ele>
        <time>2018-04-16T07:28:29Z</time>
      </trkpt>
      <trkpt lat="38.41675" lon="14.96207">
        <ele>1.1</ele>
        <time>2018-04-16T07:28:43Z</time>
      </trkpt>
      <trkpt lat="38.41674" lon="14.96208">
        <ele>1.1</ele>
        <time>2018-04-16T07:28:56Z</time>
      </trkpt>
      <trkpt lat="38.41675" lon="14.96209">
        <ele>1.58</ele>
        <time>2018-04-16T07:29:15Z</time>
      </trkpt>
      <trkpt lat="38.41675" lon="14.96209">
        <ele>1.58</ele>
        <time>2018-04-16T07:29:34Z</time>
      </trkpt>
      <trkpt lat="38.41675" lon="14.96209">
        <ele>1.1</ele>
        <time>2018-04-16T07:29:50Z</time>
      </trkpt>
      <trkpt lat="38.41678" lon="14.96206">
        <ele>0.62</ele>
        <time>2018-04-16T07:30:08Z</time>
      </trkpt>
      <trkpt lat="38.41678" lon="14.96203">
        <ele>0.14</ele>
        <time>2018-04-16T07:30:23Z</time>
      </trkpt>
      <trkpt lat="38.41679" lon="14.96204">
        <ele>0.14</ele>
        <time>2018-04-16T07:30:32Z</time>
      </trkpt>
      <trkpt lat="38.41679" lon="14.96205">
        <ele>1.58</ele>
        <time>2018-04-16T07:30:53Z</time>
      </trkpt>
      <trkpt lat="38.41677" lon="14.96207">
        <ele>2.06</ele>
        <time>2018-04-16T07:31:16Z</time>
      </trkpt>
      <trkpt lat="38.41675" lon="14.96208">
        <ele>1.58</ele>
        <time>2018-04-16T07:31:30Z</time>
      </trkpt>
      <trkpt lat="38.41675" lon="14.96208">
        <ele>1.58</ele>
        <time>2018-04-16T07:31:46Z</time>
      </trkpt>
      <trkpt lat="38.41675" lon="14.96207">
        <ele>2.54</ele>
        <time>2018-04-16T07:32:04Z</time>
      </trkpt>
      <trkpt lat="38.41676" lon="14.96206">
        <ele>2.54</ele>
        <time>2018-04-16T07:32:22Z</time>
      </trkpt>
      <trkpt lat="38.41677" lon="14.96205">
        <ele>2.06</ele>
        <time>2018-04-16T07:32:38Z</time>
      </trkpt>
      <trkpt lat="38.41678" lon="14.96204">
        <ele>2.06</ele>
        <time>2018-04-16T07:32:54Z</time>
      </trkpt>
      <trkpt lat="38.41678" lon="14.962">
        <ele>0.62</ele>
        <time>2018-04-16T07:33:04Z</time>
      </trkpt>
      <trkpt lat="38.4168" lon="14.962">
        <ele>0.62</ele>
        <time>2018-04-16T07:33:19Z</time>
      </trkpt>
      <trkpt lat="38.4168" lon="14.962">
        <ele>1.1</ele>
        <time>2018-04-16T07:33:42Z</time>
      </trkpt>
      <trkpt lat="38.41679" lon="14.962">
        <ele>1.58</ele>
        <time>2018-04-16T07:33:58Z</time>
      </trkpt>
      <trkpt lat="38.41679" lon="14.962">
        <ele>1.58</ele>
        <time>2018-04-16T07:34:13Z</time>
      </trkpt>
      <trkpt lat="38.41679" lon="14.962">
        <ele>1.58</ele>
        <time>2018-04-16T07:34:25Z</time>
      </trkpt>
      <trkpt lat="38.4168" lon="14.96201">
        <ele>2.06</ele>
        <time>2018-04-16T07:34:36Z</time>
      </trkpt>
      <trkpt lat="38.41681" lon="14.96204">
        <ele>2.54</ele>
        <time>2018-04-16T07:34:54Z</time>
      </trkpt>
      <trkpt lat="38.41682" lon="14.96205">
        <ele>2.06</ele>
        <time>2018-04-16T07:35:04Z</time>
      </trkpt>
      <trkpt lat="38.41686" lon="14.96202">
        <ele>2.06</ele>
        <time>2018-04-16T07:35:20Z</time>
      </trkpt>
      <trkpt lat="38.41687" lon="14.962">
        <ele>2.54</ele>
        <time>2018-04-16T07:35:36Z</time>
      </trkpt>
      <trkpt lat="38.41687" lon="14.96198">
        <ele>2.54</ele>
        <time>2018-04-16T07:35:52Z</time>
      </trkpt>
      <trkpt lat="38.41688" lon="14.96197">
        <ele>2.06</ele>
        <time>2018-04-16T07:36:10Z</time>
      </trkpt>
      <trkpt lat="38.41687" lon="14.96198">
        <ele>2.06</ele>
        <time>2018-04-16T07:36:29Z</time>
      </trkpt>
      <trkpt lat="38.41685" lon="14.96199">
        <ele>1.58</ele>
        <time>2018-04-16T07:36:51Z</time>
      </trkpt>
      <trkpt lat="38.41683" lon="14.96202">
        <ele>3.5</ele>
        <time>2018-04-16T07:37:15Z</time>
      </trkpt>
      <trkpt lat="38.41682" lon="14.96203">
        <ele>4.94</ele>
        <time>2018-04-16T07:37:34Z</time>
      </trkpt>
      <trkpt lat="38.4168" lon="14.96205">
        <ele>4.94</ele>
        <time>2018-04-16T07:37:56Z</time>
      </trkpt>
      <trkpt lat="38.41677" lon="14.96206">
        <ele>4.94</ele>
        <time>2018-04-16T07:38:16Z</time>
      </trkpt>
      <trkpt lat="38.41673" lon="14.96206">
        <ele>3.98</ele>
        <time>2018-04-16T07:38:36Z</time>
      </trkpt>
      <trkpt lat="38.41662" lon="14.96209">
        <ele>4.94</ele>
        <time>2018-04-16T07:38:58Z</time>
      </trkpt>
      <trkpt lat="38.41659" lon="14.96217">
        <ele>4.94</ele>
        <time>2018-04-16T07:39:23Z</time>
      </trkpt>
      <trkpt lat="38.41658" lon="14.96223">
        <ele>6.87</ele>
        <time>2018-04-16T07:39:47Z</time>
      </trkpt>
      <trkpt lat="38.41656" lon="14.96234">
        <ele>6.39</ele>
        <time>2018-04-16T07:40:08Z</time>
      </trkpt>
      <trkpt lat="38.41664" lon="14.96248">
        <ele>4.94</ele>
        <time>2018-04-16T07:40:25Z</time>
      </trkpt>
      <trkpt lat="38.4168" lon="14.96229">
        <ele>3.5</ele>
        <time>2018-04-16T07:40:41Z</time>
      </trkpt>
      <trkpt lat="38.41696" lon="14.96194">
        <ele>3.5</ele>
        <time>2018-04-16T07:41:00Z</time>
      </trkpt>
      <trkpt lat="38.41709" lon="14.96164">
        <ele>3.02</ele>
        <time>2018-04-16T07:41:17Z</time>
      </trkpt>
      <trkpt lat="38.41724" lon="14.9613">
        <ele>3.5</ele>
        <time>2018-04-16T07:41:35Z</time>
      </trkpt>
      <trkpt lat="38.41728" lon="14.96094">
        <ele>3.5</ele>
        <time>2018-04-16T07:41:54Z</time>
      </trkpt>
      <trkpt lat="38.41727" lon="14.96052">
        <ele>3.98</ele>
        <time>2018-04-16T07:42:18Z</time>
      </trkpt>
      <trkpt lat="38.4172" lon="14.96015">
        <ele>3.98</ele>
        <time>2018-04-16T07:42:41Z</time>
      </trkpt>
      <trkpt lat="38.41711" lon="14.95999">
        <ele>2.54</ele>
        <time>2018-04-16T07:43:00Z</time>
      </trkpt>
      <trkpt lat="38.41711" lon="14.95986">
        <ele>3.5</ele>
        <time>2018-04-16T07:43:21Z</time>
      </trkpt>
      <trkpt lat="38.41712" lon="14.95983">
        <ele>4.46</ele>
        <time>2018-04-16T07:43:37Z</time>
      </trkpt>
      <trkpt lat="38.41714" lon="14.95983">
        <ele>4.94</ele>
        <time>2018-04-16T07:43:55Z</time>
      </trkpt>
      <trkpt lat="38.41712" lon="14.95973">
        <ele>4.94</ele>
        <time>2018-04-16T07:44:10Z</time>
      </trkpt>
      <trkpt lat="38.41712" lon="14.95965">
        <ele>4.46</ele>
        <time>2018-04-16T07:44:24Z</time>
      </trkpt>
      <trkpt lat="38.41712" lon="14.95968">
        <ele>3.5</ele>
        <time>2018-04-16T07:44:33Z</time>
      </trkpt>
      <trkpt lat="38.41712" lon="14.95966">
        <ele>3.98</ele>
        <time>2018-04-16T07:44:42Z</time>
      </trkpt>
      <trkpt lat="38.41712" lon="14.95963">
        <ele>3.98</ele>
        <time>2018-04-16T07:44:44Z</time>
      </trkpt>
      <trkpt lat="38.41711" lon="14.95959">
        <ele>4.46</ele>
        <time>2018-04-16T07:44:47Z</time>
      </trkpt>
      <trkpt lat="38.41708" lon="14.95948">
        <ele>4.94</ele>
        <time>2018-04-16T07:45:00Z</time>
      </trkpt>
      <trkpt lat="38.41713" lon="14.95962">
        <ele>4.94</ele>
        <time>2018-04-16T07:45:12Z</time>
      </trkpt>
      <trkpt lat="38.41716" lon="14.95966">
        <ele>4.46</ele>
        <time>2018-04-16T07:45:22Z</time>
      </trkpt>
      <trkpt lat="38.41716" lon="14.95964">
        <ele>3.98</ele>
        <time>2018-04-16T07:45:36Z</time>
      </trkpt>
      <trkpt lat="38.41716" lon="14.95964">
        <ele>3.98</ele>
        <time>2018-04-16T07:45:40Z</time>
      </trkpt>
      <trkpt lat="38.41714" lon="14.9596">
        <ele>3.98</ele>
        <time>2018-04-16T07:45:51Z</time>
      </trkpt>
      <trkpt lat="38.41714" lon="14.95961">
        <ele>3.98</ele>
        <time>2018-04-16T07:45:52Z</time>
      </trkpt>
      <trkpt lat="38.41714" lon="14.95964">
        <ele>3.5</ele>
        <time>2018-04-16T07:46:04Z</time>
      </trkpt>
      <trkpt lat="38.41711" lon="14.95958">
        <ele>2.54</ele>
        <time>2018-04-16T07:46:09Z</time>
      </trkpt>
      <trkpt lat="38.41703" lon="14.95947">
        <ele>2.06</ele>
        <time>2018-04-16T07:46:23Z</time>
      </trkpt>
      <trkpt lat="38.41694" lon="14.95938">
        <ele>2.54</ele>
        <time>2018-04-16T07:46:37Z</time>
      </trkpt>
      <trkpt lat="38.41688" lon="14.9593">
        <ele>3.98</ele>
        <time>2018-04-16T07:46:49Z</time>
      </trkpt>
      <trkpt lat="38.41682" lon="14.95924">
        <ele>4.46</ele>
        <time>2018-04-16T07:47:02Z</time>
      </trkpt>
      <trkpt lat="38.4168" lon="14.9592">
        <ele>3.98</ele>
        <time>2018-04-16T07:47:12Z</time>
      </trkpt>
      <trkpt lat="38.41671" lon="14.95909">
        <ele>2.06</ele>
        <time>2018-04-16T07:47:25Z</time>
      </trkpt>
      <trkpt lat="38.41667" lon="14.959">
        <ele>2.06</ele>
        <time>2018-04-16T07:47:37Z</time>
      </trkpt>
      <trkpt lat="38.41665" lon="14.959">
        <ele>3.02</ele>
        <time>2018-04-16T07:47:50Z</time>
      </trkpt>
      <trkpt lat="38.41662" lon="14.95901">
        <ele>2.54</ele>
        <time>2018-04-16T07:47:54Z</time>
      </trkpt>
      <trkpt lat="38.41648" lon="14.95906">
        <ele>-1.3</ele>
        <time>2018-04-16T07:48:10Z</time>
      </trkpt>
      <trkpt lat="38.41635" lon="14.95909">
        <ele>-3.71</ele>
        <time>2018-04-16T07:48:24Z</time>
      </trkpt>
      <trkpt lat="38.41623" lon="14.95913">
        <ele>-2.75</ele>
        <time>2018-04-16T07:48:37Z</time>
      </trkpt>
      <trkpt lat="38.41618" lon="14.95915">
        <ele>-2.75</ele>
        <time>2018-04-16T07:48:43Z</time>
      </trkpt>
      <trkpt lat="38.41607" lon="14.95918">
        <ele>-0.82</ele>
        <time>2018-04-16T07:48:56Z</time>
      </trkpt>
      <trkpt lat="38.41606" lon="14.95923">
        <ele>1.58</ele>
        <time>2018-04-16T07:49:08Z</time>
      </trkpt>
      <trkpt lat="38.41607" lon="14.95923">
        <ele>3.5</ele>
        <time>2018-04-16T07:49:26Z</time>
      </trkpt>
      <trkpt lat="38.41607" lon="14.95922">
        <ele>3.98</ele>
        <time>2018-04-16T07:49:44Z</time>
      </trkpt>
      <trkpt lat="38.41607" lon="14.95922">
        <ele>3.02</ele>
        <time>2018-04-16T07:49:53Z</time>
      </trkpt>
      <trkpt lat="38.41605" lon="14.95921">
        <ele>3.02</ele>
        <time>2018-04-16T07:50:17Z</time>
      </trkpt>
      <trkpt lat="38.41605" lon="14.95921">
        <ele>3.02</ele>
        <time>2018-04-16T07:50:18Z</time>
      </trkpt>
      <trkpt lat="38.41593" lon="14.95922">
        <ele>0.62</ele>
        <time>2018-04-16T07:50:31Z</time>
      </trkpt>
      <trkpt lat="38.41585" lon="14.95922">
        <ele>0.62</ele>
        <time>2018-04-16T07:50:42Z</time>
      </trkpt>
      <trkpt lat="38.41584" lon="14.95916">
        <ele>1.1</ele>
        <time>2018-04-16T07:50:55Z</time>
      </trkpt>
      <trkpt lat="38.4158" lon="14.95918">
        <ele>0.62</ele>
        <time>2018-04-16T07:51:00Z</time>
      </trkpt>
      <trkpt lat="38.41567" lon="14.95922">
        <ele>-0.34</ele>
        <time>2018-04-16T07:51:14Z</time>
      </trkpt>
      <trkpt lat="38.41557" lon="14.95914">
        <ele>-1.79</ele>
        <time>2018-04-16T07:51:27Z</time>
      </trkpt>
      <trkpt lat="38.41557" lon="14.95914">
        <ele>-1.79</ele>
        <time>2018-04-16T07:51:28Z</time>
      </trkpt>
      <trkpt lat="38.41555" lon="14.95907">
        <ele>-0.82</ele>
        <time>2018-04-16T07:51:35Z</time>
      </trkpt>
      <trkpt lat="38.41554" lon="14.95891">
        <ele>4.46</ele>
        <time>2018-04-16T07:51:48Z</time>
      </trkpt>
      <trkpt lat="38.41553" lon="14.9588">
        <ele>6.39</ele>
        <time>2018-04-16T07:51:56Z</time>
      </trkpt>
      <trkpt lat="38.41549" lon="14.95868">
        <ele>5.42</ele>
        <time>2018-04-16T07:52:10Z</time>
      </trkpt>
      <trkpt lat="38.41542" lon="14.95857">
        <ele>3.5</ele>
        <time>2018-04-16T07:52:23Z</time>
      </trkpt>
      <trkpt lat="38.41534" lon="14.95839">
        <ele>3.02</ele>
        <time>2018-04-16T07:52:38Z</time>
      </trkpt>
      <trkpt lat="38.41535" lon="14.95836">
        <ele>5.91</ele>
        <time>2018-04-16T07:52:51Z</time>
      </trkpt>
      <trkpt lat="38.41536" lon="14.95838">
        <ele>6.39</ele>
        <time>2018-04-16T07:53:04Z</time>
      </trkpt>
      <trkpt lat="38.41534" lon="14.9584">
        <ele>5.42</ele>
        <time>2018-04-16T07:53:24Z</time>
      </trkpt>
      <trkpt lat="38.41527" lon="14.95848">
        <ele>5.42</ele>
        <time>2018-04-16T07:53:36Z</time>
      </trkpt>
      <trkpt lat="38.41516" lon="14.95854">
        <ele>6.39</ele>
        <time>2018-04-16T07:53:47Z</time>
      </trkpt>
      <trkpt lat="38.41512" lon="14.95855">
        <ele>5.91</ele>
        <time>2018-04-16T07:53:57Z</time>
      </trkpt>
      <trkpt lat="38.41503" lon="14.95853">
        <ele>4.46</ele>
        <time>2018-04-16T07:54:10Z</time>
      </trkpt>
      <trkpt lat="38.41493" lon="14.95853">
        <ele>-0.82</ele>
        <time>2018-04-16T07:54:28Z</time>
      </trkpt>
      <trkpt lat="38.41513" lon="14.9586">
        <ele>13.6</ele>
        <time>2018-04-16T07:55:07Z</time>
      </trkpt>
      <trkpt lat="38.41514" lon="14.95859">
        <ele>12.63</ele>
        <time>2018-04-16T07:55:09Z</time>
      </trkpt>
      <trkpt lat="38.41515" lon="14.95857">
        <ele>11.67</ele>
        <time>2018-04-16T07:55:15Z</time>
      </trkpt>
      <trkpt lat="38.41498" lon="14.95852">
        <ele>5.91</ele>
        <time>2018-04-16T07:55:28Z</time>
      </trkpt>
      <trkpt lat="38.41491" lon="14.95852">
        <ele>-4.67</ele>
        <time>2018-04-16T07:55:52Z</time>
      </trkpt>
      <trkpt lat="38.4149" lon="14.95845">
        <ele>-17.65</ele>
        <time>2018-04-16T07:56:20Z</time>
      </trkpt>
      <trkpt lat="38.41495" lon="14.95846">
        <ele>-23.41</ele>
        <time>2018-04-16T07:56:43Z</time>
      </trkpt>
      <trkpt lat="38.41508" lon="14.95857">
        <ele>4.94</ele>
        <time>2018-04-16T07:56:56Z</time>
      </trkpt>
      <trkpt lat="38.41511" lon="14.95861">
        <ele>6.39</ele>
        <time>2018-04-16T07:57:07Z</time>
      </trkpt>
      <trkpt lat="38.41508" lon="14.95861">
        <ele>7.35</ele>
        <time>2018-04-16T07:57:25Z</time>
      </trkpt>
      <trkpt lat="38.41509" lon="14.95861">
        <ele>8.31</ele>
        <time>2018-04-16T07:57:38Z</time>
      </trkpt>
      <trkpt lat="38.41508" lon="14.9586">
        <ele>7.83</ele>
        <time>2018-04-16T07:57:59Z</time>
      </trkpt>
      <trkpt lat="38.41508" lon="14.9586">
        <ele>8.79</ele>
        <time>2018-04-16T07:58:24Z</time>
      </trkpt>
      <trkpt lat="38.41508" lon="14.95861">
        <ele>8.31</ele>
        <time>2018-04-16T07:58:33Z</time>
      </trkpt>
      <trkpt lat="38.41512" lon="14.95855">
        <ele>8.31</ele>
        <time>2018-04-16T07:58:49Z</time>
      </trkpt>
      <trkpt lat="38.41514" lon="14.95853">
        <ele>8.31</ele>
        <time>2018-04-16T07:58:54Z</time>
      </trkpt>
      <trkpt lat="38.41524" lon="14.95851">
        <ele>8.79</ele>
        <time>2018-04-16T07:59:07Z</time>
      </trkpt>
      <trkpt lat="38.41525" lon="14.95851">
        <ele>8.79</ele>
        <time>2018-04-16T07:59:08Z</time>
      </trkpt>
      <trkpt lat="38.41486" lon="14.95894">
        <ele>9.27</ele>
        <time>2018-04-16T09:05:33Z</time>
      </trkpt>
      <trkpt lat="38.41483" lon="14.95891">
        <ele>10.71</ele>
        <time>2018-04-16T09:05:35Z</time>
      </trkpt>
      <trkpt lat="38.41475" lon="14.9589">
        <ele>18.4</ele>
        <time>2018-04-16T09:05:41Z</time>
      </trkpt>
      <trkpt lat="38.41473" lon="14.95892">
        <ele>18.88</ele>
        <time>2018-04-16T09:05:43Z</time>
      </trkpt>
      <trkpt lat="38.4146" lon="14.95916">
        <ele>15.04</ele>
        <time>2018-04-16T09:05:58Z</time>
      </trkpt>
      <trkpt lat="38.41453" lon="14.9593">
        <ele>15.52</ele>
        <time>2018-04-16T09:06:15Z</time>
      </trkpt>
      <trkpt lat="38.41452" lon="14.95932">
        <ele>15.52</ele>
        <time>2018-04-16T09:06:16Z</time>
      </trkpt>
      <trkpt lat="38.41445" lon="14.95949">
        <ele>12.63</ele>
        <time>2018-04-16T09:06:31Z</time>
      </trkpt>
      <trkpt lat="38.41443" lon="14.95952">
        <ele>12.15</ele>
        <time>2018-04-16T09:06:34Z</time>
      </trkpt>
      <trkpt lat="38.41436" lon="14.95974">
        <ele>12.63</ele>
        <time>2018-04-16T09:06:49Z</time>
      </trkpt>
      <trkpt lat="38.41432" lon="14.95986">
        <ele>10.71</ele>
        <time>2018-04-16T09:07:03Z</time>
      </trkpt>
      <trkpt lat="38.41431" lon="14.95986">
        <ele>10.23</ele>
        <time>2018-04-16T09:07:06Z</time>
      </trkpt>
      <trkpt lat="38.41418" lon="14.95986">
        <ele>10.23</ele>
        <time>2018-04-16T09:07:21Z</time>
      </trkpt>
      <trkpt lat="38.41401" lon="14.95982">
        <ele>6.39</ele>
        <time>2018-04-16T09:07:36Z</time>
      </trkpt>
      <trkpt lat="38.41386" lon="14.95977">
        <ele>5.91</ele>
        <time>2018-04-16T09:07:51Z</time>
      </trkpt>
      <trkpt lat="38.4137" lon="14.95968">
        <ele>4.94</ele>
        <time>2018-04-16T09:08:08Z</time>
      </trkpt>
      <trkpt lat="38.41356" lon="14.95956">
        <ele>5.42</ele>
        <time>2018-04-16T09:08:23Z</time>
      </trkpt>
      <trkpt lat="38.41344" lon="14.95942">
        <ele>5.91</ele>
        <time>2018-04-16T09:08:38Z</time>
      </trkpt>
      <trkpt lat="38.41329" lon="14.95925">
        <ele>5.91</ele>
        <time>2018-04-16T09:08:52Z</time>
      </trkpt>
      <trkpt lat="38.41319" lon="14.95914">
        <ele>7.83</ele>
        <time>2018-04-16T09:09:06Z</time>
      </trkpt>
      <trkpt lat="38.41305" lon="14.95899">
        <ele>3.98</ele>
        <time>2018-04-16T09:09:23Z</time>
      </trkpt>
      <trkpt lat="38.41294" lon="14.95886">
        <ele>-0.34</ele>
        <time>2018-04-16T09:09:38Z</time>
      </trkpt>
      <trkpt lat="38.41287" lon="14.95872">
        <ele>-1.3</ele>
        <time>2018-04-16T09:09:50Z</time>
      </trkpt>
      <trkpt lat="38.41278" lon="14.95864">
        <ele>-4.19</ele>
        <time>2018-04-16T09:09:59Z</time>
      </trkpt>
      <trkpt lat="38.41274" lon="14.95859">
        <ele>-3.71</ele>
        <time>2018-04-16T09:10:04Z</time>
      </trkpt>
      <trkpt lat="38.41262" lon="14.95848">
        <ele>0.14</ele>
        <time>2018-04-16T09:10:18Z</time>
      </trkpt>
      <trkpt lat="38.41254" lon="14.95836">
        <ele>0.62</ele>
        <time>2018-04-16T09:10:31Z</time>
      </trkpt>
      <trkpt lat="38.41243" lon="14.95823">
        <ele>3.5</ele>
        <time>2018-04-16T09:10:41Z</time>
      </trkpt>
      <trkpt lat="38.4124" lon="14.95819">
        <ele>4.46</ele>
        <time>2018-04-16T09:10:45Z</time>
      </trkpt>
      <trkpt lat="38.41226" lon="14.95804">
        <ele>5.42</ele>
        <time>2018-04-16T09:10:59Z</time>
      </trkpt>
      <trkpt lat="38.41222" lon="14.95799">
        <ele>6.39</ele>
        <time>2018-04-16T09:11:03Z</time>
      </trkpt>
      <trkpt lat="38.41209" lon="14.95781">
        <ele>3.98</ele>
        <time>2018-04-16T09:11:20Z</time>
      </trkpt>
      <trkpt lat="38.41199" lon="14.95769">
        <ele>2.06</ele>
        <time>2018-04-16T09:11:33Z</time>
      </trkpt>
      <trkpt lat="38.41188" lon="14.95756">
        <ele>3.02</ele>
        <time>2018-04-16T09:11:46Z</time>
      </trkpt>
      <trkpt lat="38.41175" lon="14.9574">
        <ele>4.94</ele>
        <time>2018-04-16T09:12:02Z</time>
      </trkpt>
      <trkpt lat="38.4117" lon="14.95735">
        <ele>4.94</ele>
        <time>2018-04-16T09:12:07Z</time>
      </trkpt>
      <trkpt lat="38.41159" lon="14.95718">
        <ele>6.87</ele>
        <time>2018-04-16T09:12:21Z</time>
      </trkpt>
      <trkpt lat="38.41155" lon="14.95715">
        <ele>7.35</ele>
        <time>2018-04-16T09:12:24Z</time>
      </trkpt>
      <trkpt lat="38.41143" lon="14.95697">
        <ele>9.27</ele>
        <time>2018-04-16T09:12:39Z</time>
      </trkpt>
      <trkpt lat="38.41129" lon="14.9568">
        <ele>9.27</ele>
        <time>2018-04-16T09:12:53Z</time>
      </trkpt>
      <trkpt lat="38.41112" lon="14.9566">
        <ele>7.35</ele>
        <time>2018-04-16T09:13:12Z</time>
      </trkpt>
      <trkpt lat="38.41096" lon="14.9564">
        <ele>6.87</ele>
        <time>2018-04-16T09:13:30Z</time>
      </trkpt>
      <trkpt lat="38.41084" lon="14.95626">
        <ele>7.35</ele>
        <time>2018-04-16T09:13:41Z</time>
      </trkpt>
      <trkpt lat="38.41081" lon="14.95622">
        <ele>7.83</ele>
        <time>2018-04-16T09:13:45Z</time>
      </trkpt>
      <trkpt lat="38.4107" lon="14.95608">
        <ele>8.31</ele>
        <time>2018-04-16T09:14:00Z</time>
      </trkpt>
      <trkpt lat="38.41059" lon="14.95593">
        <ele>10.71</ele>
        <time>2018-04-16T09:14:16Z</time>
      </trkpt>
      <trkpt lat="38.41046" lon="14.95578">
        <ele>14.08</ele>
        <time>2018-04-16T09:14:29Z</time>
      </trkpt>
      <trkpt lat="38.41028" lon="14.95557">
        <ele>18.4</ele>
        <time>2018-04-16T09:14:47Z</time>
      </trkpt>
      <trkpt lat="38.41013" lon="14.95536">
        <ele>21.29</ele>
        <time>2018-04-16T09:15:05Z</time>
      </trkpt>
      <trkpt lat="38.41001" lon="14.95523">
        <ele>19.36</ele>
        <time>2018-04-16T09:15:19Z</time>
      </trkpt>
      <trkpt lat="38.40989" lon="14.95508">
        <ele>16.96</ele>
        <time>2018-04-16T09:15:33Z</time>
      </trkpt>
      <trkpt lat="38.40978" lon="14.95494">
        <ele>22.73</ele>
        <time>2018-04-16T09:15:45Z</time>
      </trkpt>
      <trkpt lat="38.4096" lon="14.95477">
        <ele>27.05</ele>
        <time>2018-04-16T09:16:03Z</time>
      </trkpt>
      <trkpt lat="38.40946" lon="14.95457">
        <ele>27.53</ele>
        <time>2018-04-16T09:16:19Z</time>
      </trkpt>
      <trkpt lat="38.40933" lon="14.9544">
        <ele>28.5</ele>
        <time>2018-04-16T09:16:34Z</time>
      </trkpt>
      <trkpt lat="38.40919" lon="14.95421">
        <ele>31.38</ele>
        <time>2018-04-16T09:16:50Z</time>
      </trkpt>
      <trkpt lat="38.40916" lon="14.95415">
        <ele>31.38</ele>
        <time>2018-04-16T09:17:00Z</time>
      </trkpt>
      <trkpt lat="38.409" lon="14.95399">
        <ele>33.3</ele>
        <time>2018-04-16T09:17:16Z</time>
      </trkpt>
      <trkpt lat="38.40895" lon="14.95394">
        <ele>32.82</ele>
        <time>2018-04-16T09:17:22Z</time>
      </trkpt>
      <trkpt lat="38.40892" lon="14.95393">
        <ele>32.34</ele>
        <time>2018-04-16T09:17:24Z</time>
      </trkpt>
      <trkpt lat="38.40889" lon="14.95388">
        <ele>31.38</ele>
        <time>2018-04-16T09:17:28Z</time>
      </trkpt>
      <trkpt lat="38.40872" lon="14.95376">
        <ele>31.86</ele>
        <time>2018-04-16T09:17:45Z</time>
      </trkpt>
      <trkpt lat="38.40865" lon="14.95374">
        <ele>34.26</ele>
        <time>2018-04-16T09:17:57Z</time>
      </trkpt>
      <trkpt lat="38.40865" lon="14.95374">
        <ele>34.74</ele>
        <time>2018-04-16T09:18:13Z</time>
      </trkpt>
      <trkpt lat="38.4086" lon="14.95377">
        <ele>35.23</ele>
        <time>2018-04-16T09:18:19Z</time>
      </trkpt>
      <trkpt lat="38.40855" lon="14.9538">
        <ele>36.19</ele>
        <time>2018-04-16T09:18:24Z</time>
      </trkpt>
      <trkpt lat="38.40851" lon="14.95383">
        <ele>37.15</ele>
        <time>2018-04-16T09:18:28Z</time>
      </trkpt>
      <trkpt lat="38.40837" lon="14.95387">
        <ele>39.07</ele>
        <time>2018-04-16T09:18:42Z</time>
      </trkpt>
      <trkpt lat="38.40826" lon="14.95388">
        <ele>40.99</ele>
        <time>2018-04-16T09:18:54Z</time>
      </trkpt>
      <trkpt lat="38.40813" lon="14.95396">
        <ele>43.88</ele>
        <time>2018-04-16T09:19:08Z</time>
      </trkpt>
      <trkpt lat="38.40811" lon="14.95399">
        <ele>44.36</ele>
        <time>2018-04-16T09:19:11Z</time>
      </trkpt>
      <trkpt lat="38.40805" lon="14.95408">
        <ele>47.72</ele>
        <time>2018-04-16T09:19:22Z</time>
      </trkpt>
      <trkpt lat="38.40799" lon="14.95414">
        <ele>49.65</ele>
        <time>2018-04-16T09:19:33Z</time>
      </trkpt>
      <trkpt lat="38.40791" lon="14.95421">
        <ele>52.05</ele>
        <time>2018-04-16T09:19:46Z</time>
      </trkpt>
      <trkpt lat="38.40786" lon="14.95429">
        <ele>52.53</ele>
        <time>2018-04-16T09:19:55Z</time>
      </trkpt>
      <trkpt lat="38.40783" lon="14.95436">
        <ele>54.93</ele>
        <time>2018-04-16T09:20:06Z</time>
      </trkpt>
      <trkpt lat="38.40778" lon="14.95434">
        <ele>56.86</ele>
        <time>2018-04-16T09:20:18Z</time>
      </trkpt>
      <trkpt lat="38.40778" lon="14.95435">
        <ele>56.86</ele>
        <time>2018-04-16T09:20:19Z</time>
      </trkpt>
      <trkpt lat="38.40785" lon="14.95452">
        <ele>58.3</ele>
        <time>2018-04-16T09:20:30Z</time>
      </trkpt>
      <trkpt lat="38.40788" lon="14.95468">
        <ele>59.74</ele>
        <time>2018-04-16T09:20:44Z</time>
      </trkpt>
      <trkpt lat="38.40794" lon="14.95477">
        <ele>61.18</ele>
        <time>2018-04-16T09:20:54Z</time>
      </trkpt>
      <trkpt lat="38.40798" lon="14.95485">
        <ele>62.14</ele>
        <time>2018-04-16T09:21:00Z</time>
      </trkpt>
      <trkpt lat="38.40801" lon="14.95497">
        <ele>62.62</ele>
        <time>2018-04-16T09:21:10Z</time>
      </trkpt>
      <trkpt lat="38.40802" lon="14.955">
        <ele>62.62</ele>
        <time>2018-04-16T09:21:12Z</time>
      </trkpt>
      <trkpt lat="38.40808" lon="14.95513">
        <ele>61.18</ele>
        <time>2018-04-16T09:21:23Z</time>
      </trkpt>
      <trkpt lat="38.40809" lon="14.95515">
        <ele>61.18</ele>
        <time>2018-04-16T09:21:25Z</time>
      </trkpt>
      <trkpt lat="38.40811" lon="14.95521">
        <ele>61.18</ele>
        <time>2018-04-16T09:21:29Z</time>
      </trkpt>
      <trkpt lat="38.40812" lon="14.95524">
        <ele>61.66</ele>
        <time>2018-04-16T09:21:31Z</time>
      </trkpt>
      <trkpt lat="38.40815" lon="14.95533">
        <ele>63.1</ele>
        <time>2018-04-16T09:21:42Z</time>
      </trkpt>
      <trkpt lat="38.40817" lon="14.95541">
        <ele>63.1</ele>
        <time>2018-04-16T09:21:51Z</time>
      </trkpt>
      <trkpt lat="38.40822" lon="14.95553">
        <ele>64.55</ele>
        <time>2018-04-16T09:22:03Z</time>
      </trkpt>
      <trkpt lat="38.40823" lon="14.95554">
        <ele>65.51</ele>
        <time>2018-04-16T09:22:20Z</time>
      </trkpt>
      <trkpt lat="38.40827" lon="14.9556">
        <ele>65.03</ele>
        <time>2018-04-16T09:22:30Z</time>
      </trkpt>
      <trkpt lat="38.40827" lon="14.95561">
        <ele>65.03</ele>
        <time>2018-04-16T09:22:31Z</time>
      </trkpt>
      <trkpt lat="38.40827" lon="14.95565">
        <ele>65.03</ele>
        <time>2018-04-16T09:22:34Z</time>
      </trkpt>
      <trkpt lat="38.40831" lon="14.95578">
        <ele>64.55</ele>
        <time>2018-04-16T09:22:45Z</time>
      </trkpt>
      <trkpt lat="38.40829" lon="14.95591">
        <ele>67.43</ele>
        <time>2018-04-16T09:22:57Z</time>
      </trkpt>
      <trkpt lat="38.40828" lon="14.95591">
        <ele>68.39</ele>
        <time>2018-04-16T09:23:00Z</time>
      </trkpt>
      <trkpt lat="38.40817" lon="14.95587">
        <ele>71.27</ele>
        <time>2018-04-16T09:23:11Z</time>
      </trkpt>
      <trkpt lat="38.40811" lon="14.95583">
        <ele>74.16</ele>
        <time>2018-04-16T09:23:19Z</time>
      </trkpt>
      <trkpt lat="38.40802" lon="14.95579">
        <ele>77.52</ele>
        <time>2018-04-16T09:23:31Z</time>
      </trkpt>
      <trkpt lat="38.40801" lon="14.95578">
        <ele>78.48</ele>
        <time>2018-04-16T09:23:44Z</time>
      </trkpt>
      <trkpt lat="38.40794" lon="14.95577">
        <ele>80.41</ele>
        <time>2018-04-16T09:23:54Z</time>
      </trkpt>
      <trkpt lat="38.40789" lon="14.95577">
        <ele>82.81</ele>
        <time>2018-04-16T09:24:01Z</time>
      </trkpt>
      <trkpt lat="38.4078" lon="14.95573">
        <ele>87.62</ele>
        <time>2018-04-16T09:24:14Z</time>
      </trkpt>
      <trkpt lat="38.40775" lon="14.95571">
        <ele>89.54</ele>
        <time>2018-04-16T09:24:23Z</time>
      </trkpt>
      <trkpt lat="38.40772" lon="14.95571">
        <ele>90.5</ele>
        <time>2018-04-16T09:24:36Z</time>
      </trkpt>
      <trkpt lat="38.40772" lon="14.95572">
        <ele>88.58</ele>
        <time>2018-04-16T09:24:46Z</time>
      </trkpt>
      <trkpt lat="38.40768" lon="14.9557">
        <ele>89.54</ele>
        <time>2018-04-16T09:24:55Z</time>
      </trkpt>
      <trkpt lat="38.40768" lon="14.9557">
        <ele>89.54</ele>
        <time>2018-04-16T09:25:01Z</time>
      </trkpt>
      <trkpt lat="38.40768" lon="14.95568">
        <ele>89.54</ele>
        <time>2018-04-16T09:25:04Z</time>
      </trkpt>
      <trkpt lat="38.40756" lon="14.9556">
        <ele>92.42</ele>
        <time>2018-04-16T09:25:18Z</time>
      </trkpt>
      <trkpt lat="38.40746" lon="14.95557">
        <ele>95.79</ele>
        <time>2018-04-16T09:25:31Z</time>
      </trkpt>
      <trkpt lat="38.40745" lon="14.95556">
        <ele>98.19</ele>
        <time>2018-04-16T09:25:44Z</time>
      </trkpt>
      <trkpt lat="38.40741" lon="14.95556">
        <ele>99.15</ele>
        <time>2018-04-16T09:26:00Z</time>
      </trkpt>
      <trkpt lat="38.40739" lon="14.95555">
        <ele>99.15</ele>
        <time>2018-04-16T09:26:02Z</time>
      </trkpt>
      <trkpt lat="38.40734" lon="14.95555">
        <ele>100.6</ele>
        <time>2018-04-16T09:26:12Z</time>
      </trkpt>
      <trkpt lat="38.40728" lon="14.95557">
        <ele>100.11</ele>
        <time>2018-04-16T09:26:22Z</time>
      </trkpt>
      <trkpt lat="38.40725" lon="14.95555">
        <ele>101.08</ele>
        <time>2018-04-16T09:26:26Z</time>
      </trkpt>
      <trkpt lat="38.40719" lon="14.95553">
        <ele>101.56</ele>
        <time>2018-04-16T09:26:37Z</time>
      </trkpt>
      <trkpt lat="38.40717" lon="14.95551">
        <ele>102.04</ele>
        <time>2018-04-16T09:26:41Z</time>
      </trkpt>
      <trkpt lat="38.40716" lon="14.95542">
        <ele>102.52</ele>
        <time>2018-04-16T09:26:48Z</time>
      </trkpt>
      <trkpt lat="38.40715" lon="14.9554">
        <ele>103</ele>
        <time>2018-04-16T09:26:50Z</time>
      </trkpt>
      <trkpt lat="38.40714" lon="14.95538">
        <ele>103.48</ele>
        <time>2018-04-16T09:26:52Z</time>
      </trkpt>
      <trkpt lat="38.40705" lon="14.95536">
        <ele>106.84</ele>
        <time>2018-04-16T09:27:01Z</time>
      </trkpt>
      <trkpt lat="38.40702" lon="14.95535">
        <ele>108.77</ele>
        <time>2018-04-16T09:27:04Z</time>
      </trkpt>
      <trkpt lat="38.40694" lon="14.95533">
        <ele>110.21</ele>
        <time>2018-04-16T09:27:15Z</time>
      </trkpt>
      <trkpt lat="38.40689" lon="14.9553">
        <ele>111.17</ele>
        <time>2018-04-16T09:27:23Z</time>
      </trkpt>
      <trkpt lat="38.40685" lon="14.95534">
        <ele>112.13</ele>
        <time>2018-04-16T09:27:29Z</time>
      </trkpt>
      <trkpt lat="38.40681" lon="14.95527">
        <ele>113.57</ele>
        <time>2018-04-16T09:27:37Z</time>
      </trkpt>
      <trkpt lat="38.40678" lon="14.95526">
        <ele>113.57</ele>
        <time>2018-04-16T09:27:45Z</time>
      </trkpt>
      <trkpt lat="38.4067" lon="14.95528">
        <ele>113.57</ele>
        <time>2018-04-16T09:27:54Z</time>
      </trkpt>
      <trkpt lat="38.40661" lon="14.95518">
        <ele>113.09</ele>
        <time>2018-04-16T09:28:08Z</time>
      </trkpt>
      <trkpt lat="38.40654" lon="14.95516">
        <ele>116.46</ele>
        <time>2018-04-16T09:28:21Z</time>
      </trkpt>
      <trkpt lat="38.40648" lon="14.95516">
        <ele>117.42</ele>
        <time>2018-04-16T09:28:28Z</time>
      </trkpt>
      <trkpt lat="38.40641" lon="14.9552">
        <ele>118.38</ele>
        <time>2018-04-16T09:28:36Z</time>
      </trkpt>
      <trkpt lat="38.40633" lon="14.9551">
        <ele>119.34</ele>
        <time>2018-04-16T09:28:49Z</time>
      </trkpt>
      <trkpt lat="38.40627" lon="14.95509">
        <ele>121.26</ele>
        <time>2018-04-16T09:28:57Z</time>
      </trkpt>
      <trkpt lat="38.40613" lon="14.95507">
        <ele>126.07</ele>
        <time>2018-04-16T09:29:12Z</time>
      </trkpt>
      <trkpt lat="38.40605" lon="14.95509">
        <ele>128.47</ele>
        <time>2018-04-16T09:29:26Z</time>
      </trkpt>
      <trkpt lat="38.40602" lon="14.9551">
        <ele>129.43</ele>
        <time>2018-04-16T09:29:30Z</time>
      </trkpt>
      <trkpt lat="38.40596" lon="14.95513">
        <ele>130.4</ele>
        <time>2018-04-16T09:29:38Z</time>
      </trkpt>
      <trkpt lat="38.40589" lon="14.95509">
        <ele>130.4</ele>
        <time>2018-04-16T09:29:48Z</time>
      </trkpt>
      <trkpt lat="38.40579" lon="14.95503">
        <ele>133.28</ele>
        <time>2018-04-16T09:30:03Z</time>
      </trkpt>
      <trkpt lat="38.40576" lon="14.95501">
        <ele>134.72</ele>
        <time>2018-04-16T09:30:17Z</time>
      </trkpt>
      <trkpt lat="38.40576" lon="14.955">
        <ele>135.2</ele>
        <time>2018-04-16T09:30:34Z</time>
      </trkpt>
      <trkpt lat="38.40574" lon="14.955">
        <ele>134.72</ele>
        <time>2018-04-16T09:30:45Z</time>
      </trkpt>
      <trkpt lat="38.40574" lon="14.955">
        <ele>135.2</ele>
        <time>2018-04-16T09:31:00Z</time>
      </trkpt>
      <trkpt lat="38.40565" lon="14.95501">
        <ele>137.13</ele>
        <time>2018-04-16T09:31:14Z</time>
      </trkpt>
      <trkpt lat="38.40565" lon="14.95501">
        <ele>137.61</ele>
        <time>2018-04-16T09:31:20Z</time>
      </trkpt>
      <trkpt lat="38.40572" lon="14.95499">
        <ele>136.16</ele>
        <time>2018-04-16T09:31:30Z</time>
      </trkpt>
      <trkpt lat="38.40573" lon="14.95497">
        <ele>135.68</ele>
        <time>2018-04-16T09:31:39Z</time>
      </trkpt>
      <trkpt lat="38.40564" lon="14.95499">
        <ele>136.16</ele>
        <time>2018-04-16T09:31:53Z</time>
      </trkpt>
      <trkpt lat="38.40556" lon="14.95501">
        <ele>138.09</ele>
        <time>2018-04-16T09:32:06Z</time>
      </trkpt>
      <trkpt lat="38.40551" lon="14.95496">
        <ele>140.01</ele>
        <time>2018-04-16T09:32:19Z</time>
      </trkpt>
      <trkpt lat="38.40548" lon="14.95496">
        <ele>140.97</ele>
        <time>2018-04-16T09:32:25Z</time>
      </trkpt>
      <trkpt lat="38.40542" lon="14.95498">
        <ele>142.41</ele>
        <time>2018-04-16T09:32:37Z</time>
      </trkpt>
      <trkpt lat="38.40533" lon="14.95499">
        <ele>143.85</ele>
        <time>2018-04-16T09:32:50Z</time>
      </trkpt>
      <trkpt lat="38.40524" lon="14.95498">
        <ele>144.82</ele>
        <time>2018-04-16T09:33:03Z</time>
      </trkpt>
      <trkpt lat="38.40521" lon="14.95496">
        <ele>145.3</ele>
        <time>2018-04-16T09:33:12Z</time>
      </trkpt>
      <trkpt lat="38.40511" lon="14.95498">
        <ele>147.7</ele>
        <time>2018-04-16T09:33:30Z</time>
      </trkpt>
      <trkpt lat="38.40505" lon="14.95499">
        <ele>149.14</ele>
        <time>2018-04-16T09:33:42Z</time>
      </trkpt>
      <trkpt lat="38.40499" lon="14.95499">
        <ele>149.62</ele>
        <time>2018-04-16T09:33:49Z</time>
      </trkpt>
      <trkpt lat="38.40489" lon="14.955">
        <ele>151.54</ele>
        <time>2018-04-16T09:34:02Z</time>
      </trkpt>
      <trkpt lat="38.40484" lon="14.95499">
        <ele>153.47</ele>
        <time>2018-04-16T09:34:10Z</time>
      </trkpt>
      <trkpt lat="38.40475" lon="14.95504">
        <ele>154.91</ele>
        <time>2018-04-16T09:34:24Z</time>
      </trkpt>
      <trkpt lat="38.40464" lon="14.95506">
        <ele>157.79</ele>
        <time>2018-04-16T09:34:38Z</time>
      </trkpt>
      <trkpt lat="38.40453" lon="14.95508">
        <ele>160.2</ele>
        <time>2018-04-16T09:34:51Z</time>
      </trkpt>
      <trkpt lat="38.40444" lon="14.95512">
        <ele>161.64</ele>
        <time>2018-04-16T09:35:04Z</time>
      </trkpt>
      <trkpt lat="38.40436" lon="14.95514">
        <ele>165</ele>
        <time>2018-04-16T09:35:18Z</time>
      </trkpt>
      <trkpt lat="38.40431" lon="14.95516">
        <ele>166.45</ele>
        <time>2018-04-16T09:35:24Z</time>
      </trkpt>
      <trkpt lat="38.40424" lon="14.95518">
        <ele>167.41</ele>
        <time>2018-04-16T09:35:31Z</time>
      </trkpt>
      <trkpt lat="38.40415" lon="14.95526">
        <ele>167.89</ele>
        <time>2018-04-16T09:35:46Z</time>
      </trkpt>
      <trkpt lat="38.40405" lon="14.95531">
        <ele>171.25</ele>
        <time>2018-04-16T09:36:01Z</time>
      </trkpt>
      <trkpt lat="38.40397" lon="14.95536">
        <ele>172.21</ele>
        <time>2018-04-16T09:36:15Z</time>
      </trkpt>
      <trkpt lat="38.40389" lon="14.95542">
        <ele>174.62</ele>
        <time>2018-04-16T09:36:29Z</time>
      </trkpt>
      <trkpt lat="38.40384" lon="14.95548">
        <ele>177.5</ele>
        <time>2018-04-16T09:36:42Z</time>
      </trkpt>
      <trkpt lat="38.40386" lon="14.9555">
        <ele>178.94</ele>
        <time>2018-04-16T09:36:47Z</time>
      </trkpt>
      <trkpt lat="38.4039" lon="14.95552">
        <ele>179.42</ele>
        <time>2018-04-16T09:36:52Z</time>
      </trkpt>
      <trkpt lat="38.40398" lon="14.95552">
        <ele>180.87</ele>
        <time>2018-04-16T09:37:05Z</time>
      </trkpt>
      <trkpt lat="38.40398" lon="14.95553">
        <ele>181.35</ele>
        <time>2018-04-16T09:37:06Z</time>
      </trkpt>
      <trkpt lat="38.40408" lon="14.95555">
        <ele>184.23</ele>
        <time>2018-04-16T09:37:18Z</time>
      </trkpt>
      <trkpt lat="38.40416" lon="14.95558">
        <ele>184.71</ele>
        <time>2018-04-16T09:37:32Z</time>
      </trkpt>
      <trkpt lat="38.4042" lon="14.95558">
        <ele>185.19</ele>
        <time>2018-04-16T09:37:36Z</time>
      </trkpt>
      <trkpt lat="38.40425" lon="14.95561">
        <ele>186.15</ele>
        <time>2018-04-16T09:37:42Z</time>
      </trkpt>
      <trkpt lat="38.40434" lon="14.95563">
        <ele>188.08</ele>
        <time>2018-04-16T09:37:54Z</time>
      </trkpt>
      <trkpt lat="38.40436" lon="14.95564">
        <ele>188.56</ele>
        <time>2018-04-16T09:37:56Z</time>
      </trkpt>
      <trkpt lat="38.40446" lon="14.95573">
        <ele>190</ele>
        <time>2018-04-16T09:38:11Z</time>
      </trkpt>
      <trkpt lat="38.40454" lon="14.95577">
        <ele>191.92</ele>
        <time>2018-04-16T09:38:24Z</time>
      </trkpt>
      <trkpt lat="38.40463" lon="14.95583">
        <ele>194.8</ele>
        <time>2018-04-16T09:38:37Z</time>
      </trkpt>
      <trkpt lat="38.40471" lon="14.9559">
        <ele>196.73</ele>
        <time>2018-04-16T09:38:51Z</time>
      </trkpt>
      <trkpt lat="38.40473" lon="14.95592">
        <ele>197.21</ele>
        <time>2018-04-16T09:38:53Z</time>
      </trkpt>
      <trkpt lat="38.40478" lon="14.95594">
        <ele>197.21</ele>
        <time>2018-04-16T09:38:58Z</time>
      </trkpt>
      <trkpt lat="38.40485" lon="14.95604">
        <ele>197.21</ele>
        <time>2018-04-16T09:39:11Z</time>
      </trkpt>
      <trkpt lat="38.40493" lon="14.95613">
        <ele>197.69</ele>
        <time>2018-04-16T09:39:21Z</time>
      </trkpt>
      <trkpt lat="38.40503" lon="14.9562">
        <ele>197.69</ele>
        <time>2018-04-16T09:39:35Z</time>
      </trkpt>
      <trkpt lat="38.40513" lon="14.95628">
        <ele>199.13</ele>
        <time>2018-04-16T09:39:48Z</time>
      </trkpt>
      <trkpt lat="38.40521" lon="14.95636">
        <ele>200.09</ele>
        <time>2018-04-16T09:40:00Z</time>
      </trkpt>
      <trkpt lat="38.40531" lon="14.95644">
        <ele>202.49</ele>
        <time>2018-04-16T09:40:13Z</time>
      </trkpt>
      <trkpt lat="38.40537" lon="14.9565">
        <ele>203.46</ele>
        <time>2018-04-16T09:40:21Z</time>
      </trkpt>
      <trkpt lat="38.4054" lon="14.95652">
        <ele>203.94</ele>
        <time>2018-04-16T09:40:24Z</time>
      </trkpt>
      <trkpt lat="38.40544" lon="14.95656">
        <ele>204.9</ele>
        <time>2018-04-16T09:40:37Z</time>
      </trkpt>
      <trkpt lat="38.40545" lon="14.95658">
        <ele>204.9</ele>
        <time>2018-04-16T09:40:39Z</time>
      </trkpt>
      <trkpt lat="38.40549" lon="14.95659">
        <ele>205.38</ele>
        <time>2018-04-16T09:40:43Z</time>
      </trkpt>
      <trkpt lat="38.40559" lon="14.95669">
        <ele>205.86</ele>
        <time>2018-04-16T09:40:57Z</time>
      </trkpt>
      <trkpt lat="38.40568" lon="14.95679">
        <ele>207.78</ele>
        <time>2018-04-16T09:41:08Z</time>
      </trkpt>
      <trkpt lat="38.4058" lon="14.95693">
        <ele>209.22</ele>
        <time>2018-04-16T09:41:23Z</time>
      </trkpt>
      <trkpt lat="38.40585" lon="14.95697">
        <ele>210.19</ele>
        <time>2018-04-16T09:41:33Z</time>
      </trkpt>
      <trkpt lat="38.40585" lon="14.95698">
        <ele>210.19</ele>
        <time>2018-04-16T09:41:34Z</time>
      </trkpt>
      <trkpt lat="38.40589" lon="14.95705">
        <ele>210.19</ele>
        <time>2018-04-16T09:41:40Z</time>
      </trkpt>
      <trkpt lat="38.40594" lon="14.95713">
        <ele>210.19</ele>
        <time>2018-04-16T09:41:52Z</time>
      </trkpt>
      <trkpt lat="38.40597" lon="14.95717">
        <ele>210.19</ele>
        <time>2018-04-16T09:42:00Z</time>
      </trkpt>
      <trkpt lat="38.40603" lon="14.95726">
        <ele>212.59</ele>
        <time>2018-04-16T09:42:12Z</time>
      </trkpt>
      <trkpt lat="38.40604" lon="14.95728">
        <ele>213.55</ele>
        <time>2018-04-16T09:42:15Z</time>
      </trkpt>
      <trkpt lat="38.40607" lon="14.95736">
        <ele>215.47</ele>
        <time>2018-04-16T09:42:27Z</time>
      </trkpt>
      <trkpt lat="38.4061" lon="14.95742">
        <ele>216.43</ele>
        <time>2018-04-16T09:42:36Z</time>
      </trkpt>
      <trkpt lat="38.40615" lon="14.95755">
        <ele>217.4</ele>
        <time>2018-04-16T09:42:49Z</time>
      </trkpt>
      <trkpt lat="38.40617" lon="14.95762">
        <ele>218.84</ele>
        <time>2018-04-16T09:43:00Z</time>
      </trkpt>
      <trkpt lat="38.40619" lon="14.9577">
        <ele>220.76</ele>
        <time>2018-04-16T09:43:12Z</time>
      </trkpt>
      <trkpt lat="38.40623" lon="14.95779">
        <ele>225.09</ele>
        <time>2018-04-16T09:43:26Z</time>
      </trkpt>
      <trkpt lat="38.40627" lon="14.9579">
        <ele>227.97</ele>
        <time>2018-04-16T09:43:40Z</time>
      </trkpt>
      <trkpt lat="38.4063" lon="14.95801">
        <ele>229.41</ele>
        <time>2018-04-16T09:43:53Z</time>
      </trkpt>
      <trkpt lat="38.40631" lon="14.95808">
        <ele>230.85</ele>
        <time>2018-04-16T09:44:06Z</time>
      </trkpt>
      <trkpt lat="38.40635" lon="14.95818">
        <ele>234.22</ele>
        <time>2018-04-16T09:44:20Z</time>
      </trkpt>
      <trkpt lat="38.40638" lon="14.95827">
        <ele>237.58</ele>
        <time>2018-04-16T09:44:31Z</time>
      </trkpt>
      <trkpt lat="38.40639" lon="14.95836">
        <ele>239.99</ele>
        <time>2018-04-16T09:44:43Z</time>
      </trkpt>
      <trkpt lat="38.4064" lon="14.95843">
        <ele>241.91</ele>
        <time>2018-04-16T09:44:55Z</time>
      </trkpt>
      <trkpt lat="38.40641" lon="14.95846">
        <ele>242.39</ele>
        <time>2018-04-16T09:45:10Z</time>
      </trkpt>
      <trkpt lat="38.40641" lon="14.95846">
        <ele>242.87</ele>
        <time>2018-04-16T09:45:22Z</time>
      </trkpt>
      <trkpt lat="38.40643" lon="14.95851">
        <ele>243.35</ele>
        <time>2018-04-16T09:45:32Z</time>
      </trkpt>
      <trkpt lat="38.4065" lon="14.95863">
        <ele>244.79</ele>
        <time>2018-04-16T09:45:45Z</time>
      </trkpt>
      <trkpt lat="38.40655" lon="14.95872">
        <ele>246.23</ele>
        <time>2018-04-16T09:45:57Z</time>
      </trkpt>
      <trkpt lat="38.40654" lon="14.95877">
        <ele>247.68</ele>
        <time>2018-04-16T09:46:09Z</time>
      </trkpt>
      <trkpt lat="38.40654" lon="14.95876">
        <ele>248.16</ele>
        <time>2018-04-16T09:46:30Z</time>
      </trkpt>
      <trkpt lat="38.40655" lon="14.95878">
        <ele>248.16</ele>
        <time>2018-04-16T09:46:38Z</time>
      </trkpt>
      <trkpt lat="38.40655" lon="14.95878">
        <ele>248.64</ele>
        <time>2018-04-16T09:46:52Z</time>
      </trkpt>
      <trkpt lat="38.40655" lon="14.95877">
        <ele>249.12</ele>
        <time>2018-04-16T09:47:10Z</time>
      </trkpt>
      <trkpt lat="38.40652" lon="14.95877">
        <ele>249.12</ele>
        <time>2018-04-16T09:47:16Z</time>
      </trkpt>
      <trkpt lat="38.4064" lon="14.95872">
        <ele>249.6</ele>
        <time>2018-04-16T09:47:28Z</time>
      </trkpt>
      <trkpt lat="38.40634" lon="14.9587">
        <ele>250.56</ele>
        <time>2018-04-16T09:47:35Z</time>
      </trkpt>
      <trkpt lat="38.40631" lon="14.95868">
        <ele>251.52</ele>
        <time>2018-04-16T09:47:46Z</time>
      </trkpt>
      <trkpt lat="38.40632" lon="14.95868">
        <ele>251.52</ele>
        <time>2018-04-16T09:48:09Z</time>
      </trkpt>
      <trkpt lat="38.40632" lon="14.95868">
        <ele>251.52</ele>
        <time>2018-04-16T09:48:26Z</time>
      </trkpt>
      <trkpt lat="38.40618" lon="14.95864">
        <ele>252.96</ele>
        <time>2018-04-16T09:48:40Z</time>
      </trkpt>
      <trkpt lat="38.40619" lon="14.95849">
        <ele>253.93</ele>
        <time>2018-04-16T09:48:51Z</time>
      </trkpt>
      <trkpt lat="38.40618" lon="14.95846">
        <ele>254.41</ele>
        <time>2018-04-16T09:49:03Z</time>
      </trkpt>
      <trkpt lat="38.40614" lon="14.95843">
        <ele>254.41</ele>
        <time>2018-04-16T09:49:16Z</time>
      </trkpt>
      <trkpt lat="38.40612" lon="14.9584">
        <ele>255.37</ele>
        <time>2018-04-16T09:49:29Z</time>
      </trkpt>
      <trkpt lat="38.40609" lon="14.95833">
        <ele>257.29</ele>
        <time>2018-04-16T09:49:41Z</time>
      </trkpt>
      <trkpt lat="38.406" lon="14.95826">
        <ele>260.65</ele>
        <time>2018-04-16T09:49:53Z</time>
      </trkpt>
      <trkpt lat="38.40593" lon="14.95822">
        <ele>263.06</ele>
        <time>2018-04-16T09:50:07Z</time>
      </trkpt>
      <trkpt lat="38.40587" lon="14.95817">
        <ele>264.5</ele>
        <time>2018-04-16T09:50:22Z</time>
      </trkpt>
      <trkpt lat="38.4058" lon="14.95809">
        <ele>267.38</ele>
        <time>2018-04-16T09:50:34Z</time>
      </trkpt>
      <trkpt lat="38.40571" lon="14.95803">
        <ele>271.23</ele>
        <time>2018-04-16T09:50:47Z</time>
      </trkpt>
      <trkpt lat="38.40567" lon="14.95801">
        <ele>273.15</ele>
        <time>2018-04-16T09:50:59Z</time>
      </trkpt>
      <trkpt lat="38.40565" lon="14.958">
        <ele>273.63</ele>
        <time>2018-04-16T09:51:02Z</time>
      </trkpt>
      <trkpt lat="38.40558" lon="14.95795">
        <ele>275.56</ele>
        <time>2018-04-16T09:51:15Z</time>
      </trkpt>
      <trkpt lat="38.40551" lon="14.95793">
        <ele>277.48</ele>
        <time>2018-04-16T09:51:27Z</time>
      </trkpt>
      <trkpt lat="38.40544" lon="14.95789">
        <ele>278.92</ele>
        <time>2018-04-16T09:51:39Z</time>
      </trkpt>
      <trkpt lat="38.40535" lon="14.95786">
        <ele>279.88</ele>
        <time>2018-04-16T09:51:52Z</time>
      </trkpt>
      <trkpt lat="38.4053" lon="14.95783">
        <ele>281.8</ele>
        <time>2018-04-16T09:52:04Z</time>
      </trkpt>
      <trkpt lat="38.4053" lon="14.95783">
        <ele>283.25</ele>
        <time>2018-04-16T09:52:17Z</time>
      </trkpt>
      <trkpt lat="38.40526" lon="14.95782">
        <ele>284.21</ele>
        <time>2018-04-16T09:52:31Z</time>
      </trkpt>
      <trkpt lat="38.40518" lon="14.95778">
        <ele>286.61</ele>
        <time>2018-04-16T09:52:43Z</time>
      </trkpt>
      <trkpt lat="38.40508" lon="14.95776">
        <ele>288.53</ele>
        <time>2018-04-16T09:52:55Z</time>
      </trkpt>
      <trkpt lat="38.40498" lon="14.95773">
        <ele>291.42</ele>
        <time>2018-04-16T09:53:08Z</time>
      </trkpt>
      <trkpt lat="38.40487" lon="14.95771">
        <ele>292.86</ele>
        <time>2018-04-16T09:53:20Z</time>
      </trkpt>
      <trkpt lat="38.40478" lon="14.95769">
        <ele>294.78</ele>
        <time>2018-04-16T09:53:30Z</time>
      </trkpt>
      <trkpt lat="38.40472" lon="14.95769">
        <ele>295.74</ele>
        <time>2018-04-16T09:53:43Z</time>
      </trkpt>
      <trkpt lat="38.40461" lon="14.95769">
        <ele>296.7</ele>
        <time>2018-04-16T09:53:56Z</time>
      </trkpt>
      <trkpt lat="38.4045" lon="14.95769">
        <ele>298.63</ele>
        <time>2018-04-16T09:54:09Z</time>
      </trkpt>
      <trkpt lat="38.40451" lon="14.95768">
        <ele>298.63</ele>
        <time>2018-04-16T09:54:19Z</time>
      </trkpt>
      <trkpt lat="38.40449" lon="14.95769">
        <ele>299.59</ele>
        <time>2018-04-16T09:54:35Z</time>
      </trkpt>
      <trkpt lat="38.40443" lon="14.95771">
        <ele>301.03</ele>
        <time>2018-04-16T09:54:48Z</time>
      </trkpt>
      <trkpt lat="38.40431" lon="14.95774">
        <ele>303.43</ele>
        <time>2018-04-16T09:55:02Z</time>
      </trkpt>
      <trkpt lat="38.40419" lon="14.95779">
        <ele>304.88</ele>
        <time>2018-04-16T09:55:17Z</time>
      </trkpt>
      <trkpt lat="38.40413" lon="14.95781">
        <ele>305.36</ele>
        <time>2018-04-16T09:55:23Z</time>
      </trkpt>
      <trkpt lat="38.40404" lon="14.95784">
        <ele>306.32</ele>
        <time>2018-04-16T09:55:37Z</time>
      </trkpt>
      <trkpt lat="38.40397" lon="14.95789">
        <ele>306.32</ele>
        <time>2018-04-16T09:55:50Z</time>
      </trkpt>
      <trkpt lat="38.40393" lon="14.95791">
        <ele>306.8</ele>
        <time>2018-04-16T09:56:00Z</time>
      </trkpt>
      <trkpt lat="38.40388" lon="14.95798">
        <ele>308.24</ele>
        <time>2018-04-16T09:56:13Z</time>
      </trkpt>
      <trkpt lat="38.40386" lon="14.95801">
        <ele>309.2</ele>
        <time>2018-04-16T09:56:24Z</time>
      </trkpt>
      <trkpt lat="38.40378" lon="14.9581">
        <ele>311.6</ele>
        <time>2018-04-16T09:56:37Z</time>
      </trkpt>
      <trkpt lat="38.40371" lon="14.95819">
        <ele>314.01</ele>
        <time>2018-04-16T09:56:50Z</time>
      </trkpt>
      <trkpt lat="38.40365" lon="14.95828">
        <ele>316.89</ele>
        <time>2018-04-16T09:57:02Z</time>
      </trkpt>
      <trkpt lat="38.4036" lon="14.95835">
        <ele>319.3</ele>
        <time>2018-04-16T09:57:14Z</time>
      </trkpt>
      <trkpt lat="38.40352" lon="14.95845">
        <ele>322.66</ele>
        <time>2018-04-16T09:57:29Z</time>
      </trkpt>
      <trkpt lat="38.4035" lon="14.9585">
        <ele>323.14</ele>
        <time>2018-04-16T09:57:36Z</time>
      </trkpt>
      <trkpt lat="38.40349" lon="14.95852">
        <ele>323.62</ele>
        <time>2018-04-16T09:57:38Z</time>
      </trkpt>
      <trkpt lat="38.40343" lon="14.9586">
        <ele>325.54</ele>
        <time>2018-04-16T09:57:49Z</time>
      </trkpt>
      <trkpt lat="38.40343" lon="14.95861">
        <ele>325.54</ele>
        <time>2018-04-16T09:58:01Z</time>
      </trkpt>
      <trkpt lat="38.40342" lon="14.95861">
        <ele>324.1</ele>
        <time>2018-04-16T09:58:34Z</time>
      </trkpt>
      <trkpt lat="38.4034" lon="14.95861">
        <ele>323.62</ele>
        <time>2018-04-16T09:59:00Z</time>
      </trkpt>
      <trkpt lat="38.4034" lon="14.95862">
        <ele>322.66</ele>
        <time>2018-04-16T09:59:24Z</time>
      </trkpt>
      <trkpt lat="38.4034" lon="14.95861">
        <ele>322.18</ele>
        <time>2018-04-16T09:59:57Z</time>
      </trkpt>
      <trkpt lat="38.4034" lon="14.95861">
        <ele>322.18</ele>
        <time>2018-04-16T10:00:28Z</time>
      </trkpt>
      <trkpt lat="38.40341" lon="14.95861">
        <ele>321.22</ele>
        <time>2018-04-16T10:00:53Z</time>
      </trkpt>
      <trkpt lat="38.40341" lon="14.95861">
        <ele>321.22</ele>
        <time>2018-04-16T10:01:23Z</time>
      </trkpt>
      <trkpt lat="38.4034" lon="14.95861">
        <ele>321.22</ele>
        <time>2018-04-16T10:02:02Z</time>
      </trkpt>
      <trkpt lat="38.4034" lon="14.95861">
        <ele>321.22</ele>
        <time>2018-04-16T10:02:34Z</time>
      </trkpt>
      <trkpt lat="38.4034" lon="14.95861">
        <ele>321.22</ele>
        <time>2018-04-16T10:02:58Z</time>
      </trkpt>
      <trkpt lat="38.4034" lon="14.95861">
        <ele>321.22</ele>
        <time>2018-04-16T10:03:15Z</time>
      </trkpt>
      <trkpt lat="38.40343" lon="14.95859">
        <ele>321.22</ele>
        <time>2018-04-16T10:03:32Z</time>
      </trkpt>
      <trkpt lat="38.40343" lon="14.9586">
        <ele>320.74</ele>
        <time>2018-04-16T10:03:47Z</time>
      </trkpt>
      <trkpt lat="38.40344" lon="14.9586">
        <ele>320.26</ele>
        <time>2018-04-16T10:04:03Z</time>
      </trkpt>
      <trkpt lat="38.40345" lon="14.9586">
        <ele>320.26</ele>
        <time>2018-04-16T10:04:09Z</time>
      </trkpt>
      <trkpt lat="38.40351" lon="14.95858">
        <ele>318.33</ele>
        <time>2018-04-16T10:04:14Z</time>
      </trkpt>
      <trkpt lat="38.40362" lon="14.95857">
        <ele>313.05</ele>
        <time>2018-04-16T10:04:24Z</time>
      </trkpt>
      <trkpt lat="38.40368" lon="14.95859">
        <ele>309.68</ele>
        <time>2018-04-16T10:04:33Z</time>
      </trkpt>
      <trkpt lat="38.40369" lon="14.95857">
        <ele>307.76</ele>
        <time>2018-04-16T10:04:41Z</time>
      </trkpt>
      <trkpt lat="38.40367" lon="14.95857">
        <ele>309.68</ele>
        <time>2018-04-16T10:04:48Z</time>
      </trkpt>
      <trkpt lat="38.40368" lon="14.9586">
        <ele>309.68</ele>
        <time>2018-04-16T10:05:00Z</time>
      </trkpt>
      <trkpt lat="38.4037" lon="14.95859">
        <ele>310.16</ele>
        <time>2018-04-16T10:05:21Z</time>
      </trkpt>
      <trkpt lat="38.40369" lon="14.9586">
        <ele>310.64</ele>
        <time>2018-04-16T10:05:35Z</time>
      </trkpt>
      <trkpt lat="38.40373" lon="14.95861">
        <ele>309.68</ele>
        <time>2018-04-16T10:05:50Z</time>
      </trkpt>
      <trkpt lat="38.40376" lon="14.95861">
        <ele>308.24</ele>
        <time>2018-04-16T10:05:58Z</time>
      </trkpt>
      <trkpt lat="38.4038" lon="14.95865">
        <ele>306.32</ele>
        <time>2018-04-16T10:06:05Z</time>
      </trkpt>
      <trkpt lat="38.40386" lon="14.95866">
        <ele>303.43</ele>
        <time>2018-04-16T10:06:14Z</time>
      </trkpt>
      <trkpt lat="38.40393" lon="14.95868">
        <ele>301.03</ele>
        <time>2018-04-16T10:06:21Z</time>
      </trkpt>
      <trkpt lat="38.404" lon="14.9587">
        <ele>298.63</ele>
        <time>2018-04-16T10:06:29Z</time>
      </trkpt>
      <trkpt lat="38.40413" lon="14.95875">
        <ele>295.26</ele>
        <time>2018-04-16T10:06:41Z</time>
      </trkpt>
      <trkpt lat="38.40421" lon="14.95881">
        <ele>293.82</ele>
        <time>2018-04-16T10:06:49Z</time>
      </trkpt>
      <trkpt lat="38.40432" lon="14.95884">
        <ele>291.9</ele>
        <time>2018-04-16T10:07:00Z</time>
      </trkpt>
      <trkpt lat="38.40443" lon="14.95891">
        <ele>291.9</ele>
        <time>2018-04-16T10:07:13Z</time>
      </trkpt>
      <trkpt lat="38.40456" lon="14.959">
        <ele>293.34</ele>
        <time>2018-04-16T10:07:27Z</time>
      </trkpt>
      <trkpt lat="38.40465" lon="14.95905">
        <ele>292.38</ele>
        <time>2018-04-16T10:07:37Z</time>
      </trkpt>
      <trkpt lat="38.4047" lon="14.95907">
        <ele>292.86</ele>
        <time>2018-04-16T10:07:50Z</time>
      </trkpt>
      <trkpt lat="38.40472" lon="14.95907">
        <ele>292.86</ele>
        <time>2018-04-16T10:07:52Z</time>
      </trkpt>
      <trkpt lat="38.40476" lon="14.95909">
        <ele>293.34</ele>
        <time>2018-04-16T10:07:56Z</time>
      </trkpt>
      <trkpt lat="38.4049" lon="14.95915">
        <ele>293.34</ele>
        <time>2018-04-16T10:08:10Z</time>
      </trkpt>
      <trkpt lat="38.40503" lon="14.95919">
        <ele>293.34</ele>
        <time>2018-04-16T10:08:22Z</time>
      </trkpt>
      <trkpt lat="38.40505" lon="14.95919">
        <ele>293.34</ele>
        <time>2018-04-16T10:08:24Z</time>
      </trkpt>
      <trkpt lat="38.40513" lon="14.95925">
        <ele>292.38</ele>
        <time>2018-04-16T10:08:32Z</time>
      </trkpt>
      <trkpt lat="38.4053" lon="14.95934">
        <ele>291.9</ele>
        <time>2018-04-16T10:08:49Z</time>
      </trkpt>
      <trkpt lat="38.40532" lon="14.95935">
        <ele>291.42</ele>
        <time>2018-04-16T10:08:52Z</time>
      </trkpt>
      <trkpt lat="38.40539" lon="14.9594">
        <ele>290.94</ele>
        <time>2018-04-16T10:08:58Z</time>
      </trkpt>
      <trkpt lat="38.40545" lon="14.95944">
        <ele>289.49</ele>
        <time>2018-04-16T10:09:04Z</time>
      </trkpt>
      <trkpt lat="38.40558" lon="14.95954">
        <ele>287.09</ele>
        <time>2018-04-16T10:09:17Z</time>
      </trkpt>
      <trkpt lat="38.40567" lon="14.95964">
        <ele>283.73</ele>
        <time>2018-04-16T10:09:31Z</time>
      </trkpt>
      <trkpt lat="38.40575" lon="14.95974">
        <ele>284.21</ele>
        <time>2018-04-16T10:09:40Z</time>
      </trkpt>
      <trkpt lat="38.40588" lon="14.95989">
        <ele>282.77</ele>
        <time>2018-04-16T10:09:56Z</time>
      </trkpt>
      <trkpt lat="38.40589" lon="14.95992">
        <ele>282.77</ele>
        <time>2018-04-16T10:09:58Z</time>
      </trkpt>
      <trkpt lat="38.40591" lon="14.95998">
        <ele>282.77</ele>
        <time>2018-04-16T10:10:04Z</time>
      </trkpt>
      <trkpt lat="38.40595" lon="14.96008">
        <ele>283.73</ele>
        <time>2018-04-16T10:10:15Z</time>
      </trkpt>
      <trkpt lat="38.40597" lon="14.96009">
        <ele>283.73</ele>
        <time>2018-04-16T10:10:17Z</time>
      </trkpt>
      <trkpt lat="38.40601" lon="14.96021">
        <ele>283.25</ele>
        <time>2018-04-16T10:10:29Z</time>
      </trkpt>
      <trkpt lat="38.40602" lon="14.96028">
        <ele>283.25</ele>
        <time>2018-04-16T10:10:36Z</time>
      </trkpt>
      <trkpt lat="38.40605" lon="14.96033">
        <ele>283.25</ele>
        <time>2018-04-16T10:10:40Z</time>
      </trkpt>
      <trkpt lat="38.40606" lon="14.96036">
        <ele>283.25</ele>
        <time>2018-04-16T10:10:42Z</time>
      </trkpt>
      <trkpt lat="38.40608" lon="14.96046">
        <ele>284.69</ele>
        <time>2018-04-16T10:10:51Z</time>
      </trkpt>
      <trkpt lat="38.40611" lon="14.96062">
        <ele>286.61</ele>
        <time>2018-04-16T10:11:04Z</time>
      </trkpt>
      <trkpt lat="38.40614" lon="14.96062">
        <ele>285.65</ele>
        <time>2018-04-16T10:11:15Z</time>
      </trkpt>
      <trkpt lat="38.40614" lon="14.9606">
        <ele>284.21</ele>
        <time>2018-04-16T10:11:31Z</time>
      </trkpt>
      <trkpt lat="38.40614" lon="14.96062">
        <ele>283.73</ele>
        <time>2018-04-16T10:11:49Z</time>
      </trkpt>
      <trkpt lat="38.40613" lon="14.96066">
        <ele>283.73</ele>
        <time>2018-04-16T10:11:53Z</time>
      </trkpt>
      <trkpt lat="38.40611" lon="14.9606">
        <ele>283.73</ele>
        <time>2018-04-16T10:12:02Z</time>
      </trkpt>
      <trkpt lat="38.40611" lon="14.96059">
        <ele>283.25</ele>
        <time>2018-04-16T10:12:16Z</time>
      </trkpt>
      <trkpt lat="38.40608" lon="14.96061">
        <ele>283.25</ele>
        <time>2018-04-16T10:12:29Z</time>
      </trkpt>
      <trkpt lat="38.40607" lon="14.96059">
        <ele>284.21</ele>
        <time>2018-04-16T10:12:42Z</time>
      </trkpt>
      <trkpt lat="38.4061" lon="14.96057">
        <ele>282.77</ele>
        <time>2018-04-16T10:12:53Z</time>
      </trkpt>
      <trkpt lat="38.40612" lon="14.96059">
        <ele>281.8</ele>
        <time>2018-04-16T10:13:05Z</time>
      </trkpt>
      <trkpt lat="38.40613" lon="14.9606">
        <ele>282.28</ele>
        <time>2018-04-16T10:13:20Z</time>
      </trkpt>
      <trkpt lat="38.40612" lon="14.96062">
        <ele>282.77</ele>
        <time>2018-04-16T10:13:35Z</time>
      </trkpt>
      <trkpt lat="38.4061" lon="14.96059">
        <ele>282.28</ele>
        <time>2018-04-16T10:13:46Z</time>
      </trkpt>
      <trkpt lat="38.40609" lon="14.96057">
        <ele>280.84</ele>
        <time>2018-04-16T10:14:08Z</time>
      </trkpt>
      <trkpt lat="38.40609" lon="14.96057">
        <ele>280.84</ele>
        <time>2018-04-16T10:14:24Z</time>
      </trkpt>
      <trkpt lat="38.40609" lon="14.96058">
        <ele>282.28</ele>
        <time>2018-04-16T10:14:43Z</time>
      </trkpt>
      <trkpt lat="38.40608" lon="14.96058">
        <ele>282.77</ele>
        <time>2018-04-16T10:15:03Z</time>
      </trkpt>
      <trkpt lat="38.40609" lon="14.96063">
        <ele>283.25</ele>
        <time>2018-04-16T10:15:19Z</time>
      </trkpt>
      <trkpt lat="38.4061" lon="14.96063">
        <ele>283.73</ele>
        <time>2018-04-16T10:15:36Z</time>
      </trkpt>
      <trkpt lat="38.4061" lon="14.96063">
        <ele>283.25</ele>
        <time>2018-04-16T10:15:48Z</time>
      </trkpt>
      <trkpt lat="38.40611" lon="14.96063">
        <ele>283.73</ele>
        <time>2018-04-16T10:16:12Z</time>
      </trkpt>
      <trkpt lat="38.4061" lon="14.96064">
        <ele>284.21</ele>
        <time>2018-04-16T10:16:28Z</time>
      </trkpt>
      <trkpt lat="38.40609" lon="14.96061">
        <ele>284.21</ele>
        <time>2018-04-16T10:16:43Z</time>
      </trkpt>
      <trkpt lat="38.40608" lon="14.96057">
        <ele>284.21</ele>
        <time>2018-04-16T10:16:56Z</time>
      </trkpt>
      <trkpt lat="38.40609" lon="14.96056">
        <ele>283.25</ele>
        <time>2018-04-16T10:17:06Z</time>
      </trkpt>
      <trkpt lat="38.40609" lon="14.96059">
        <ele>283.73</ele>
        <time>2018-04-16T10:17:08Z</time>
      </trkpt>
      <trkpt lat="38.4061" lon="14.96063">
        <ele>283.73</ele>
        <time>2018-04-16T10:17:21Z</time>
      </trkpt>
      <trkpt lat="38.40608" lon="14.96057">
        <ele>284.21</ele>
        <time>2018-04-16T10:17:32Z</time>
      </trkpt>
      <trkpt lat="38.40609" lon="14.96048">
        <ele>283.73</ele>
        <time>2018-04-16T10:17:46Z</time>
      </trkpt>
      <trkpt lat="38.40609" lon="14.96046">
        <ele>284.21</ele>
        <time>2018-04-16T10:17:56Z</time>
      </trkpt>
      <trkpt lat="38.40605" lon="14.96034">
        <ele>284.21</ele>
        <time>2018-04-16T10:18:06Z</time>
      </trkpt>
      <trkpt lat="38.40602" lon="14.96014">
        <ele>282.77</ele>
        <time>2018-04-16T10:18:19Z</time>
      </trkpt>
      <trkpt lat="38.40599" lon="14.96">
        <ele>281.32</ele>
        <time>2018-04-16T10:18:32Z</time>
      </trkpt>
      <trkpt lat="38.40598" lon="14.95995">
        <ele>280.84</ele>
        <time>2018-04-16T10:18:41Z</time>
      </trkpt>
      <trkpt lat="38.40599" lon="14.95985">
        <ele>277.96</ele>
        <time>2018-04-16T10:18:53Z</time>
      </trkpt>
      <trkpt lat="38.40601" lon="14.95978">
        <ele>275.56</ele>
        <time>2018-04-16T10:19:02Z</time>
      </trkpt>
      <trkpt lat="38.406" lon="14.95968">
        <ele>273.15</ele>
        <time>2018-04-16T10:19:14Z</time>
      </trkpt>
      <trkpt lat="38.40601" lon="14.95966">
        <ele>273.15</ele>
        <time>2018-04-16T10:19:16Z</time>
      </trkpt>
      <trkpt lat="38.40601" lon="14.95959">
        <ele>271.23</ele>
        <time>2018-04-16T10:19:21Z</time>
      </trkpt>
      <trkpt lat="38.40601" lon="14.95955">
        <ele>270.27</ele>
        <time>2018-04-16T10:19:24Z</time>
      </trkpt>
      <trkpt lat="38.40599" lon="14.95943">
        <ele>267.38</ele>
        <time>2018-04-16T10:19:37Z</time>
      </trkpt>
      <trkpt lat="38.40597" lon="14.9593">
        <ele>265.46</ele>
        <time>2018-04-16T10:19:48Z</time>
      </trkpt>
      <trkpt lat="38.40594" lon="14.95916">
        <ele>263.54</ele>
        <time>2018-04-16T10:20:00Z</time>
      </trkpt>
      <trkpt lat="38.40592" lon="14.95902">
        <ele>261.62</ele>
        <time>2018-04-16T10:20:14Z</time>
      </trkpt>
      <trkpt lat="38.40595" lon="14.959">
        <ele>261.14</ele>
        <time>2018-04-16T10:20:25Z</time>
      </trkpt>
      <trkpt lat="38.40598" lon="14.95901">
        <ele>260.65</ele>
        <time>2018-04-16T10:20:31Z</time>
      </trkpt>
      <trkpt lat="38.40601" lon="14.95901">
        <ele>259.69</ele>
        <time>2018-04-16T10:20:35Z</time>
      </trkpt>
      <trkpt lat="38.40607" lon="14.95892">
        <ele>257.77</ele>
        <time>2018-04-16T10:20:47Z</time>
      </trkpt>
      <trkpt lat="38.40611" lon="14.95888">
        <ele>255.37</ele>
        <time>2018-04-16T10:20:59Z</time>
      </trkpt>
      <trkpt lat="38.40616" lon="14.95882">
        <ele>254.41</ele>
        <time>2018-04-16T10:21:10Z</time>
      </trkpt>
      <trkpt lat="38.40618" lon="14.9588">
        <ele>253.93</ele>
        <time>2018-04-16T10:21:12Z</time>
      </trkpt>
      <trkpt lat="38.40628" lon="14.95881">
        <ele>253.44</ele>
        <time>2018-04-16T10:21:24Z</time>
      </trkpt>
      <trkpt lat="38.40638" lon="14.95879">
        <ele>252.96</ele>
        <time>2018-04-16T10:21:33Z</time>
      </trkpt>
      <trkpt lat="38.40647" lon="14.95876">
        <ele>251.52</ele>
        <time>2018-04-16T10:21:46Z</time>
      </trkpt>
      <trkpt lat="38.40655" lon="14.95873">
        <ele>248.64</ele>
        <time>2018-04-16T10:21:58Z</time>
      </trkpt>
      <trkpt lat="38.40653" lon="14.95871">
        <ele>248.64</ele>
        <time>2018-04-16T10:22:10Z</time>
      </trkpt>
      <trkpt lat="38.40653" lon="14.95869">
        <ele>248.64</ele>
        <time>2018-04-16T10:22:25Z</time>
      </trkpt>
      <trkpt lat="38.40649" lon="14.95861">
        <ele>247.2</ele>
        <time>2018-04-16T10:22:34Z</time>
      </trkpt>
      <trkpt lat="38.40642" lon="14.9585">
        <ele>244.31</ele>
        <time>2018-04-16T10:22:48Z</time>
      </trkpt>
      <trkpt lat="38.40641" lon="14.95847">
        <ele>242.87</ele>
        <time>2018-04-16T10:23:00Z</time>
      </trkpt>
      <trkpt lat="38.4064" lon="14.95845">
        <ele>242.39</ele>
        <time>2018-04-16T10:23:04Z</time>
      </trkpt>
      <trkpt lat="38.40638" lon="14.95836">
        <ele>239.99</ele>
        <time>2018-04-16T10:23:18Z</time>
      </trkpt>
      <trkpt lat="38.40636" lon="14.95828">
        <ele>238.06</ele>
        <time>2018-04-16T10:23:29Z</time>
      </trkpt>
      <trkpt lat="38.40634" lon="14.95821">
        <ele>236.14</ele>
        <time>2018-04-16T10:23:43Z</time>
      </trkpt>
      <trkpt lat="38.4063" lon="14.95807">
        <ele>233.26</ele>
        <time>2018-04-16T10:23:58Z</time>
      </trkpt>
      <trkpt lat="38.40627" lon="14.958">
        <ele>231.81</ele>
        <time>2018-04-16T10:24:12Z</time>
      </trkpt>
      <trkpt lat="38.40626" lon="14.95792">
        <ele>229.41</ele>
        <time>2018-04-16T10:24:31Z</time>
      </trkpt>
      <trkpt lat="38.40624" lon="14.95789">
        <ele>228.45</ele>
        <time>2018-04-16T10:24:34Z</time>
      </trkpt>
      <trkpt lat="38.40619" lon="14.95772">
        <ele>225.57</ele>
        <time>2018-04-16T10:24:48Z</time>
      </trkpt>
      <trkpt lat="38.40613" lon="14.95756">
        <ele>219.8</ele>
        <time>2018-04-16T10:25:02Z</time>
      </trkpt>
      <trkpt lat="38.40609" lon="14.95748">
        <ele>217.88</ele>
        <time>2018-04-16T10:25:11Z</time>
      </trkpt>
      <trkpt lat="38.40606" lon="14.95736">
        <ele>215.95</ele>
        <time>2018-04-16T10:25:23Z</time>
      </trkpt>
      <trkpt lat="38.40601" lon="14.95726">
        <ele>214.51</ele>
        <time>2018-04-16T10:25:35Z</time>
      </trkpt>
      <trkpt lat="38.40594" lon="14.95714">
        <ele>212.59</ele>
        <time>2018-04-16T10:25:47Z</time>
      </trkpt>
      <trkpt lat="38.40584" lon="14.95702">
        <ele>211.63</ele>
        <time>2018-04-16T10:26:00Z</time>
      </trkpt>
      <trkpt lat="38.40581" lon="14.95697">
        <ele>211.63</ele>
        <time>2018-04-16T10:26:04Z</time>
      </trkpt>
      <trkpt lat="38.40578" lon="14.95692">
        <ele>210.67</ele>
        <time>2018-04-16T10:26:09Z</time>
      </trkpt>
      <trkpt lat="38.40567" lon="14.9568">
        <ele>209.22</ele>
        <time>2018-04-16T10:26:23Z</time>
      </trkpt>
      <trkpt lat="38.40564" lon="14.95677">
        <ele>208.74</ele>
        <time>2018-04-16T10:26:26Z</time>
      </trkpt>
      <trkpt lat="38.40551" lon="14.95662">
        <ele>206.34</ele>
        <time>2018-04-16T10:26:41Z</time>
      </trkpt>
      <trkpt lat="38.4054" lon="14.95656">
        <ele>204.42</ele>
        <time>2018-04-16T10:26:52Z</time>
      </trkpt>
      <trkpt lat="38.40535" lon="14.95652">
        <ele>203.46</ele>
        <time>2018-04-16T10:26:57Z</time>
      </trkpt>
      <trkpt lat="38.40526" lon="14.95641">
        <ele>201.53</ele>
        <time>2018-04-16T10:27:10Z</time>
      </trkpt>
      <trkpt lat="38.40513" lon="14.95631">
        <ele>199.61</ele>
        <time>2018-04-16T10:27:24Z</time>
      </trkpt>
      <trkpt lat="38.4051" lon="14.95629">
        <ele>199.61</ele>
        <time>2018-04-16T10:27:27Z</time>
      </trkpt>
      <trkpt lat="38.40502" lon="14.95622">
        <ele>199.13</ele>
        <time>2018-04-16T10:27:36Z</time>
      </trkpt>
      <trkpt lat="38.405" lon="14.9562">
        <ele>198.65</ele>
        <time>2018-04-16T10:27:38Z</time>
      </trkpt>
      <trkpt lat="38.40498" lon="14.95618">
        <ele>198.65</ele>
        <time>2018-04-16T10:27:41Z</time>
      </trkpt>
      <trkpt lat="38.40483" lon="14.95605">
        <ele>196.73</ele>
        <time>2018-04-16T10:27:58Z</time>
      </trkpt>
      <trkpt lat="38.40483" lon="14.95604">
        <ele>196.73</ele>
        <time>2018-04-16T10:27:59Z</time>
      </trkpt>
      <trkpt lat="38.40474" lon="14.95594">
        <ele>197.21</ele>
        <time>2018-04-16T10:28:11Z</time>
      </trkpt>
      <trkpt lat="38.4046" lon="14.95585">
        <ele>194.8</ele>
        <time>2018-04-16T10:28:26Z</time>
      </trkpt>
      <trkpt lat="38.40447" lon="14.95576">
        <ele>191.92</ele>
        <time>2018-04-16T10:28:39Z</time>
      </trkpt>
      <trkpt lat="38.40444" lon="14.95575">
        <ele>191.44</ele>
        <time>2018-04-16T10:28:42Z</time>
      </trkpt>
      <trkpt lat="38.40427" lon="14.95563">
        <ele>189.04</ele>
        <time>2018-04-16T10:29:00Z</time>
      </trkpt>
      <trkpt lat="38.40427" lon="14.95563">
        <ele>189.04</ele>
        <time>2018-04-16T10:29:01Z</time>
      </trkpt>
      <trkpt lat="38.40414" lon="14.9556">
        <ele>186.63</ele>
        <time>2018-04-16T10:29:14Z</time>
      </trkpt>
      <trkpt lat="38.40399" lon="14.95555">
        <ele>183.27</ele>
        <time>2018-04-16T10:29:28Z</time>
      </trkpt>
      <trkpt lat="38.40394" lon="14.95553">
        <ele>182.79</ele>
        <time>2018-04-16T10:29:33Z</time>
      </trkpt>
      <trkpt lat="38.40392" lon="14.95553">
        <ele>182.31</ele>
        <time>2018-04-16T10:29:35Z</time>
      </trkpt>
      <trkpt lat="38.40383" lon="14.95548">
        <ele>180.38</ele>
        <time>2018-04-16T10:29:46Z</time>
      </trkpt>
      <trkpt lat="38.40387" lon="14.95541">
        <ele>177.98</ele>
        <time>2018-04-16T10:29:54Z</time>
      </trkpt>
      <trkpt lat="38.40399" lon="14.95533">
        <ele>172.21</ele>
        <time>2018-04-16T10:30:08Z</time>
      </trkpt>
      <trkpt lat="38.40405" lon="14.95529">
        <ele>170.29</ele>
        <time>2018-04-16T10:30:17Z</time>
      </trkpt>
      <trkpt lat="38.40412" lon="14.95525">
        <ele>167.89</ele>
        <time>2018-04-16T10:30:25Z</time>
      </trkpt>
      <trkpt lat="38.40415" lon="14.95521">
        <ele>166.45</ele>
        <time>2018-04-16T10:30:29Z</time>
      </trkpt>
      <trkpt lat="38.40428" lon="14.95517">
        <ele>163.56</ele>
        <time>2018-04-16T10:30:42Z</time>
      </trkpt>
      <trkpt lat="38.40435" lon="14.95514">
        <ele>162.6</ele>
        <time>2018-04-16T10:30:49Z</time>
      </trkpt>
      <trkpt lat="38.40442" lon="14.95511">
        <ele>159.72</ele>
        <time>2018-04-16T10:30:56Z</time>
      </trkpt>
      <trkpt lat="38.40446" lon="14.95512">
        <ele>157.79</ele>
        <time>2018-04-16T10:31:00Z</time>
      </trkpt>
      <trkpt lat="38.40457" lon="14.95508">
        <ele>155.87</ele>
        <time>2018-04-16T10:31:12Z</time>
      </trkpt>
      <trkpt lat="38.40469" lon="14.95507">
        <ele>154.43</ele>
        <time>2018-04-16T10:31:24Z</time>
      </trkpt>
      <trkpt lat="38.40471" lon="14.95507">
        <ele>153.95</ele>
        <time>2018-04-16T10:31:26Z</time>
      </trkpt>
      <trkpt lat="38.40479" lon="14.95503">
        <ele>151.54</ele>
        <time>2018-04-16T10:31:35Z</time>
      </trkpt>
      <trkpt lat="38.40484" lon="14.95499">
        <ele>151.06</ele>
        <time>2018-04-16T10:31:42Z</time>
      </trkpt>
      <trkpt lat="38.40489" lon="14.955">
        <ele>150.1</ele>
        <time>2018-04-16T10:31:49Z</time>
      </trkpt>
      <trkpt lat="38.40504" lon="14.95498">
        <ele>147.7</ele>
        <time>2018-04-16T10:32:03Z</time>
      </trkpt>
      <trkpt lat="38.40519" lon="14.95497">
        <ele>146.26</ele>
        <time>2018-04-16T10:32:16Z</time>
      </trkpt>
      <trkpt lat="38.40523" lon="14.95498">
        <ele>145.3</ele>
        <time>2018-04-16T10:32:20Z</time>
      </trkpt>
      <trkpt lat="38.40538" lon="14.95499">
        <ele>142.41</ele>
        <time>2018-04-16T10:32:33Z</time>
      </trkpt>
      <trkpt lat="38.4054" lon="14.95498">
        <ele>141.93</ele>
        <time>2018-04-16T10:32:35Z</time>
      </trkpt>
      <trkpt lat="38.40551" lon="14.955">
        <ele>139.53</ele>
        <time>2018-04-16T10:32:49Z</time>
      </trkpt>
      <trkpt lat="38.40551" lon="14.95496">
        <ele>139.53</ele>
        <time>2018-04-16T10:33:02Z</time>
      </trkpt>
      <trkpt lat="38.40554" lon="14.95496">
        <ele>138.57</ele>
        <time>2018-04-16T10:33:05Z</time>
      </trkpt>
      <trkpt lat="38.40558" lon="14.95503">
        <ele>136.16</ele>
        <time>2018-04-16T10:33:12Z</time>
      </trkpt>
      <trkpt lat="38.40565" lon="14.95498">
        <ele>134.24</ele>
        <time>2018-04-16T10:33:22Z</time>
      </trkpt>
      <trkpt lat="38.4057" lon="14.95496">
        <ele>133.28</ele>
        <time>2018-04-16T10:33:26Z</time>
      </trkpt>
      <trkpt lat="38.40575" lon="14.95499">
        <ele>133.28</ele>
        <time>2018-04-16T10:33:32Z</time>
      </trkpt>
      <trkpt lat="38.40589" lon="14.95508">
        <ele>130.88</ele>
        <time>2018-04-16T10:33:48Z</time>
      </trkpt>
      <trkpt lat="38.40593" lon="14.95508">
        <ele>129.43</ele>
        <time>2018-04-16T10:33:58Z</time>
      </trkpt>
      <trkpt lat="38.40597" lon="14.95512">
        <ele>127.99</ele>
        <time>2018-04-16T10:34:08Z</time>
      </trkpt>
      <trkpt lat="38.40609" lon="14.95509">
        <ele>125.59</ele>
        <time>2018-04-16T10:34:20Z</time>
      </trkpt>
      <trkpt lat="38.40613" lon="14.95509">
        <ele>124.63</ele>
        <time>2018-04-16T10:34:24Z</time>
      </trkpt>
      <trkpt lat="38.40625" lon="14.9551">
        <ele>121.26</ele>
        <time>2018-04-16T10:34:37Z</time>
      </trkpt>
      <trkpt lat="38.40627" lon="14.95511">
        <ele>120.78</ele>
        <time>2018-04-16T10:34:39Z</time>
      </trkpt>
      <trkpt lat="38.40634" lon="14.95515">
        <ele>116.46</ele>
        <time>2018-04-16T10:34:51Z</time>
      </trkpt>
      <trkpt lat="38.4064" lon="14.95519">
        <ele>115.98</ele>
        <time>2018-04-16T10:34:59Z</time>
      </trkpt>
      <trkpt lat="38.4065" lon="14.95516">
        <ele>115.01</ele>
        <time>2018-04-16T10:35:11Z</time>
      </trkpt>
      <trkpt lat="38.40663" lon="14.95519">
        <ele>110.69</ele>
        <time>2018-04-16T10:35:26Z</time>
      </trkpt>
      <trkpt lat="38.40667" lon="14.95526">
        <ele>109.73</ele>
        <time>2018-04-16T10:35:33Z</time>
      </trkpt>
      <trkpt lat="38.40679" lon="14.95527">
        <ele>110.69</ele>
        <time>2018-04-16T10:35:43Z</time>
      </trkpt>
      <trkpt lat="38.40682" lon="14.95528">
        <ele>111.17</ele>
        <time>2018-04-16T10:35:49Z</time>
      </trkpt>
      <trkpt lat="38.40687" lon="14.95533">
        <ele>109.73</ele>
        <time>2018-04-16T10:35:57Z</time>
      </trkpt>
      <trkpt lat="38.40689" lon="14.95531">
        <ele>109.25</ele>
        <time>2018-04-16T10:35:59Z</time>
      </trkpt>
      <trkpt lat="38.40703" lon="14.95537">
        <ele>104.92</ele>
        <time>2018-04-16T10:36:14Z</time>
      </trkpt>
      <trkpt lat="38.40711" lon="14.95539">
        <ele>103</ele>
        <time>2018-04-16T10:36:22Z</time>
      </trkpt>
      <trkpt lat="38.40714" lon="14.95542">
        <ele>102.52</ele>
        <time>2018-04-16T10:36:25Z</time>
      </trkpt>
      <trkpt lat="38.40718" lon="14.95551">
        <ele>99.63</ele>
        <time>2018-04-16T10:36:37Z</time>
      </trkpt>
      <trkpt lat="38.40724" lon="14.95553">
        <ele>99.63</ele>
        <time>2018-04-16T10:36:44Z</time>
      </trkpt>
      <trkpt lat="38.40727" lon="14.95557">
        <ele>100.11</ele>
        <time>2018-04-16T10:36:49Z</time>
      </trkpt>
      <trkpt lat="38.40742" lon="14.95555">
        <ele>96.75</ele>
        <time>2018-04-16T10:37:04Z</time>
      </trkpt>
      <trkpt lat="38.40746" lon="14.95554">
        <ele>95.79</ele>
        <time>2018-04-16T10:37:14Z</time>
      </trkpt>
      <trkpt lat="38.40747" lon="14.95554">
        <ele>95.31</ele>
        <time>2018-04-16T10:37:18Z</time>
      </trkpt>
      <trkpt lat="38.40751" lon="14.95559">
        <ele>94.35</ele>
        <time>2018-04-16T10:37:32Z</time>
      </trkpt>
      <trkpt lat="38.40756" lon="14.95561">
        <ele>93.39</ele>
        <time>2018-04-16T10:37:37Z</time>
      </trkpt>
      <trkpt lat="38.40766" lon="14.95566">
        <ele>90.98</ele>
        <time>2018-04-16T10:37:49Z</time>
      </trkpt>
      <trkpt lat="38.40767" lon="14.95569">
        <ele>90.5</ele>
        <time>2018-04-16T10:37:52Z</time>
      </trkpt>
      <trkpt lat="38.4077" lon="14.95572">
        <ele>89.06</ele>
        <time>2018-04-16T10:37:57Z</time>
      </trkpt>
      <trkpt lat="38.40776" lon="14.95572">
        <ele>87.62</ele>
        <time>2018-04-16T10:38:05Z</time>
      </trkpt>
      <trkpt lat="38.40786" lon="14.95574">
        <ele>85.21</ele>
        <time>2018-04-16T10:38:17Z</time>
      </trkpt>
      <trkpt lat="38.40786" lon="14.95575">
        <ele>85.21</ele>
        <time>2018-04-16T10:38:36Z</time>
      </trkpt>
      <trkpt lat="38.40793" lon="14.95575">
        <ele>83.77</ele>
        <time>2018-04-16T10:38:50Z</time>
      </trkpt>
      <trkpt lat="38.408" lon="14.95578">
        <ele>81.37</ele>
        <time>2018-04-16T10:39:00Z</time>
      </trkpt>
      <trkpt lat="38.40809" lon="14.95581">
        <ele>77.52</ele>
        <time>2018-04-16T10:39:10Z</time>
      </trkpt>
      <trkpt lat="38.40817" lon="14.95585">
        <ele>73.68</ele>
        <time>2018-04-16T10:39:19Z</time>
      </trkpt>
      <trkpt lat="38.40825" lon="14.95589">
        <ele>72.24</ele>
        <time>2018-04-16T10:39:29Z</time>
      </trkpt>
      <trkpt lat="38.40834" lon="14.95587">
        <ele>68.87</ele>
        <time>2018-04-16T10:39:40Z</time>
      </trkpt>
      <trkpt lat="38.40833" lon="14.95583">
        <ele>68.87</ele>
        <time>2018-04-16T10:39:42Z</time>
      </trkpt>
      <trkpt lat="38.40831" lon="14.95579">
        <ele>67.91</ele>
        <time>2018-04-16T10:39:46Z</time>
      </trkpt>
      <trkpt lat="38.4083" lon="14.95576">
        <ele>67.91</ele>
        <time>2018-04-16T10:39:50Z</time>
      </trkpt>
      <trkpt lat="38.40824" lon="14.9556">
        <ele>64.55</ele>
        <time>2018-04-16T10:40:02Z</time>
      </trkpt>
      <trkpt lat="38.40823" lon="14.95558">
        <ele>64.55</ele>
        <time>2018-04-16T10:40:03Z</time>
      </trkpt>
      <trkpt lat="38.40816" lon="14.95537">
        <ele>62.14</ele>
        <time>2018-04-16T10:40:18Z</time>
      </trkpt>
      <trkpt lat="38.40814" lon="14.95535">
        <ele>62.14</ele>
        <time>2018-04-16T10:40:23Z</time>
      </trkpt>
      <trkpt lat="38.40805" lon="14.9551">
        <ele>59.74</ele>
        <time>2018-04-16T10:40:39Z</time>
      </trkpt>
      <trkpt lat="38.40796" lon="14.95485">
        <ele>59.74</ele>
        <time>2018-04-16T10:40:57Z</time>
      </trkpt>
      <trkpt lat="38.40793" lon="14.95479">
        <ele>59.26</ele>
        <time>2018-04-16T10:41:02Z</time>
      </trkpt>
      <trkpt lat="38.40789" lon="14.95474">
        <ele>59.26</ele>
        <time>2018-04-16T10:41:06Z</time>
      </trkpt>
      <trkpt lat="38.40782" lon="14.95449">
        <ele>57.82</ele>
        <time>2018-04-16T10:41:24Z</time>
      </trkpt>
      <trkpt lat="38.4078" lon="14.95445">
        <ele>57.34</ele>
        <time>2018-04-16T10:41:27Z</time>
      </trkpt>
      <trkpt lat="38.40772" lon="14.9542">
        <ele>56.37</ele>
        <time>2018-04-16T10:41:43Z</time>
      </trkpt>
      <trkpt lat="38.40767" lon="14.95402">
        <ele>56.37</ele>
        <time>2018-04-16T10:41:56Z</time>
      </trkpt>
      <trkpt lat="38.40772" lon="14.95397">
        <ele>55.41</ele>
        <time>2018-04-16T10:42:02Z</time>
      </trkpt>
      <trkpt lat="38.40778" lon="14.95397">
        <ele>53.97</ele>
        <time>2018-04-16T10:42:08Z</time>
      </trkpt>
      <trkpt lat="38.40781" lon="14.95397">
        <ele>53.01</ele>
        <time>2018-04-16T10:42:11Z</time>
      </trkpt>
      <trkpt lat="38.40784" lon="14.95398">
        <ele>52.05</ele>
        <time>2018-04-16T10:42:14Z</time>
      </trkpt>
      <trkpt lat="38.408" lon="14.95395">
        <ele>48.68</ele>
        <time>2018-04-16T10:42:28Z</time>
      </trkpt>
      <trkpt lat="38.40802" lon="14.95395">
        <ele>48.2</ele>
        <time>2018-04-16T10:42:30Z</time>
      </trkpt>
      <trkpt lat="38.40806" lon="14.95394">
        <ele>47.24</ele>
        <time>2018-04-16T10:42:34Z</time>
      </trkpt>
      <trkpt lat="38.40825" lon="14.95389">
        <ele>42.44</ele>
        <time>2018-04-16T10:42:51Z</time>
      </trkpt>
      <trkpt lat="38.40842" lon="14.95386">
        <ele>39.55</ele>
        <time>2018-04-16T10:43:05Z</time>
      </trkpt>
      <trkpt lat="38.40861" lon="14.95378">
        <ele>35.71</ele>
        <time>2018-04-16T10:43:21Z</time>
      </trkpt>
      <trkpt lat="38.40869" lon="14.95374">
        <ele>34.74</ele>
        <time>2018-04-16T10:43:28Z</time>
      </trkpt>
      <trkpt lat="38.40871" lon="14.95375">
        <ele>34.74</ele>
        <time>2018-04-16T10:43:30Z</time>
      </trkpt>
      <trkpt lat="38.40876" lon="14.95382">
        <ele>34.26</ele>
        <time>2018-04-16T10:43:46Z</time>
      </trkpt>
      <trkpt lat="38.40878" lon="14.95384">
        <ele>34.26</ele>
        <time>2018-04-16T10:43:48Z</time>
      </trkpt>
      <trkpt lat="38.40888" lon="14.95391">
        <ele>32.82</ele>
        <time>2018-04-16T10:43:58Z</time>
      </trkpt>
      <trkpt lat="38.40895" lon="14.95396">
        <ele>31.86</ele>
        <time>2018-04-16T10:44:04Z</time>
      </trkpt>
      <trkpt lat="38.4091" lon="14.95418">
        <ele>30.9</ele>
        <time>2018-04-16T10:44:22Z</time>
      </trkpt>
      <trkpt lat="38.40924" lon="14.95435">
        <ele>29.94</ele>
        <time>2018-04-16T10:44:38Z</time>
      </trkpt>
      <trkpt lat="38.40925" lon="14.95435">
        <ele>29.94</ele>
        <time>2018-04-16T10:44:55Z</time>
      </trkpt>
      <trkpt lat="38.4093" lon="14.95441">
        <ele>30.42</ele>
        <time>2018-04-16T10:45:10Z</time>
      </trkpt>
      <trkpt lat="38.40941" lon="14.95455">
        <ele>27.05</ele>
        <time>2018-04-16T10:45:23Z</time>
      </trkpt>
      <trkpt lat="38.40956" lon="14.95472">
        <ele>27.05</ele>
        <time>2018-04-16T10:45:39Z</time>
      </trkpt>
      <trkpt lat="38.40965" lon="14.95484">
        <ele>26.09</ele>
        <time>2018-04-16T10:45:51Z</time>
      </trkpt>
      <trkpt lat="38.40977" lon="14.95497">
        <ele>26.09</ele>
        <time>2018-04-16T10:46:07Z</time>
      </trkpt>
      <trkpt lat="38.4099" lon="14.95512">
        <ele>24.65</ele>
        <time>2018-04-16T10:46:23Z</time>
      </trkpt>
      <trkpt lat="38.41004" lon="14.95531">
        <ele>23.21</ele>
        <time>2018-04-16T10:46:41Z</time>
      </trkpt>
      <trkpt lat="38.41018" lon="14.95547">
        <ele>22.73</ele>
        <time>2018-04-16T10:46:57Z</time>
      </trkpt>
      <trkpt lat="38.41031" lon="14.95563">
        <ele>22.73</ele>
        <time>2018-04-16T10:47:13Z</time>
      </trkpt>
      <trkpt lat="38.41047" lon="14.95582">
        <ele>21.77</ele>
        <time>2018-04-16T10:47:31Z</time>
      </trkpt>
      <trkpt lat="38.4106" lon="14.95602">
        <ele>20.81</ele>
        <time>2018-04-16T10:47:50Z</time>
      </trkpt>
      <trkpt lat="38.41073" lon="14.95617">
        <ele>19.36</ele>
        <time>2018-04-16T10:48:04Z</time>
      </trkpt>
      <trkpt lat="38.41083" lon="14.95634">
        <ele>16.48</ele>
        <time>2018-04-16T10:48:21Z</time>
      </trkpt>
      <trkpt lat="38.41084" lon="14.95635">
        <ele>16</ele>
        <time>2018-04-16T10:48:22Z</time>
      </trkpt>
      <trkpt lat="38.411" lon="14.95653">
        <ele>13.6</ele>
        <time>2018-04-16T10:48:40Z</time>
      </trkpt>
      <trkpt lat="38.41109" lon="14.95663">
        <ele>15.04</ele>
        <time>2018-04-16T10:48:53Z</time>
      </trkpt>
      <trkpt lat="38.41122" lon="14.95679">
        <ele>14.56</ele>
        <time>2018-04-16T10:49:08Z</time>
      </trkpt>
      <trkpt lat="38.41136" lon="14.95697">
        <ele>14.08</ele>
        <time>2018-04-16T10:49:25Z</time>
      </trkpt>
      <trkpt lat="38.41151" lon="14.95711">
        <ele>14.08</ele>
        <time>2018-04-16T10:49:41Z</time>
      </trkpt>
      <trkpt lat="38.41161" lon="14.95725">
        <ele>12.15</ele>
        <time>2018-04-16T10:49:57Z</time>
      </trkpt>
      <trkpt lat="38.41172" lon="14.95737">
        <ele>10.23</ele>
        <time>2018-04-16T10:50:13Z</time>
      </trkpt>
      <trkpt lat="38.41182" lon="14.95754">
        <ele>7.35</ele>
        <time>2018-04-16T10:50:30Z</time>
      </trkpt>
      <trkpt lat="38.41184" lon="14.95754">
        <ele>10.23</ele>
        <time>2018-04-16T10:50:45Z</time>
      </trkpt>
      <trkpt lat="38.41192" lon="14.95762">
        <ele>10.23</ele>
        <time>2018-04-16T10:50:55Z</time>
      </trkpt>
      <trkpt lat="38.41201" lon="14.95773">
        <ele>10.23</ele>
        <time>2018-04-16T10:51:07Z</time>
      </trkpt>
      <trkpt lat="38.41216" lon="14.95789">
        <ele>9.75</ele>
        <time>2018-04-16T10:51:24Z</time>
      </trkpt>
      <trkpt lat="38.41228" lon="14.95805">
        <ele>6.39</ele>
        <time>2018-04-16T10:51:42Z</time>
      </trkpt>
      <trkpt lat="38.41235" lon="14.95811">
        <ele>4.94</ele>
        <time>2018-04-16T10:51:57Z</time>
      </trkpt>
      <trkpt lat="38.41248" lon="14.95826">
        <ele>0.14</ele>
        <time>2018-04-16T10:52:13Z</time>
      </trkpt>
      <trkpt lat="38.41251" lon="14.95829">
        <ele>-1.79</ele>
        <time>2018-04-16T10:52:28Z</time>
      </trkpt>
      <trkpt lat="38.41257" lon="14.95834">
        <ele>-2.75</ele>
        <time>2018-04-16T10:52:34Z</time>
      </trkpt>
      <trkpt lat="38.41269" lon="14.95848">
        <ele>-6.11</ele>
        <time>2018-04-16T10:52:50Z</time>
      </trkpt>
      <trkpt lat="38.41281" lon="14.95862">
        <ele>-9</ele>
        <time>2018-04-16T10:53:05Z</time>
      </trkpt>
      <trkpt lat="38.41292" lon="14.95877">
        <ele>-11.4</ele>
        <time>2018-04-16T10:53:19Z</time>
      </trkpt>
      <trkpt lat="38.41293" lon="14.95879">
        <ele>-11.4</ele>
        <time>2018-04-16T10:53:21Z</time>
      </trkpt>
      <trkpt lat="38.41299" lon="14.95886">
        <ele>-11.88</ele>
        <time>2018-04-16T10:53:28Z</time>
      </trkpt>
      <trkpt lat="38.41301" lon="14.95888">
        <ele>-12.36</ele>
        <time>2018-04-16T10:53:31Z</time>
      </trkpt>
      <trkpt lat="38.41312" lon="14.95904">
        <ele>-12.84</ele>
        <time>2018-04-16T10:53:46Z</time>
      </trkpt>
      <trkpt lat="38.4132" lon="14.95919">
        <ele>-0.82</ele>
        <time>2018-04-16T10:53:58Z</time>
      </trkpt>
      <trkpt lat="38.41339" lon="14.95932">
        <ele>1.58</ele>
        <time>2018-04-16T10:54:16Z</time>
      </trkpt>
      <trkpt lat="38.41348" lon="14.95944">
        <ele>0.62</ele>
        <time>2018-04-16T10:54:27Z</time>
      </trkpt>
      <trkpt lat="38.4135" lon="14.95948">
        <ele>0.14</ele>
        <time>2018-04-16T10:54:31Z</time>
      </trkpt>
      <trkpt lat="38.41365" lon="14.95964">
        <ele>-0.34</ele>
        <time>2018-04-16T10:54:48Z</time>
      </trkpt>
      <trkpt lat="38.41371" lon="14.95969">
        <ele>0.62</ele>
        <time>2018-04-16T10:55:00Z</time>
      </trkpt>
      <trkpt lat="38.41372" lon="14.9597">
        <ele>0.62</ele>
        <time>2018-04-16T10:55:01Z</time>
      </trkpt>
      <trkpt lat="38.41385" lon="14.95979">
        <ele>-0.34</ele>
        <time>2018-04-16T10:55:17Z</time>
      </trkpt>
      <trkpt lat="38.41384" lon="14.95986">
        <ele>-1.79</ele>
        <time>2018-04-16T10:55:23Z</time>
      </trkpt>
      <trkpt lat="38.41382" lon="14.96003">
        <ele>-1.3</ele>
        <time>2018-04-16T10:55:37Z</time>
      </trkpt>
      <trkpt lat="38.41392" lon="14.96015">
        <ele>-1.3</ele>
        <time>2018-04-16T10:55:51Z</time>
      </trkpt>
      <trkpt lat="38.41388" lon="14.96013">
        <ele>-1.79</ele>
        <time>2018-04-16T10:55:55Z</time>
      </trkpt>
      <trkpt lat="38.41384" lon="14.96004">
        <ele>-0.34</ele>
        <time>2018-04-16T10:56:07Z</time>
      </trkpt>
      <trkpt lat="38.41383" lon="14.95996">
        <ele>1.1</ele>
        <time>2018-04-16T10:56:15Z</time>
      </trkpt>
      <trkpt lat="38.41386" lon="14.95985">
        <ele>1.58</ele>
        <time>2018-04-16T10:56:31Z</time>
      </trkpt>
      <trkpt lat="38.41388" lon="14.95985">
        <ele>1.58</ele>
        <time>2018-04-16T10:56:33Z</time>
      </trkpt>
      <trkpt lat="38.41406" lon="14.95987">
        <ele>-0.82</ele>
        <time>2018-04-16T10:56:49Z</time>
      </trkpt>
      <trkpt lat="38.41419" lon="14.9599">
        <ele>-0.34</ele>
        <time>2018-04-16T10:57:02Z</time>
      </trkpt>
      <trkpt lat="38.4142" lon="14.9599">
        <ele>-0.34</ele>
        <time>2018-04-16T10:57:04Z</time>
      </trkpt>
      <trkpt lat="38.41429" lon="14.95982">
        <ele>0.14</ele>
        <time>2018-04-16T10:57:17Z</time>
      </trkpt>
      <trkpt lat="38.41438" lon="14.95968">
        <ele>2.06</ele>
        <time>2018-04-16T10:57:31Z</time>
      </trkpt>
      <trkpt lat="38.41443" lon="14.95957">
        <ele>3.02</ele>
        <time>2018-04-16T10:57:42Z</time>
      </trkpt>
      <trkpt lat="38.41443" lon="14.95957">
        <ele>3.02</ele>
        <time>2018-04-16T10:57:43Z</time>
      </trkpt>
      <trkpt lat="38.41445" lon="14.9595">
        <ele>2.54</ele>
        <time>2018-04-16T10:57:49Z</time>
      </trkpt>
      <trkpt lat="38.41449" lon="14.95941">
        <ele>2.54</ele>
        <time>2018-04-16T10:57:58Z</time>
      </trkpt>
      <trkpt lat="38.41456" lon="14.95927">
        <ele>3.5</ele>
        <time>2018-04-16T10:58:10Z</time>
      </trkpt>
      <trkpt lat="38.41457" lon="14.95926">
        <ele>3.5</ele>
        <time>2018-04-16T10:58:11Z</time>
      </trkpt>
      <trkpt lat="38.41463" lon="14.95912">
        <ele>4.46</ele>
        <time>2018-04-16T10:58:23Z</time>
      </trkpt>
      <trkpt lat="38.4147" lon="14.959">
        <ele>4.94</ele>
        <time>2018-04-16T10:58:36Z</time>
      </trkpt>
      <trkpt lat="38.41474" lon="14.95894">
        <ele>5.42</ele>
        <time>2018-04-16T10:58:42Z</time>
      </trkpt>
      <trkpt lat="38.41482" lon="14.95883">
        <ele>4.94</ele>
        <time>2018-04-16T10:58:55Z</time>
      </trkpt>
      <trkpt lat="38.41493" lon="14.9587">
        <ele>4.46</ele>
        <time>2018-04-16T10:59:10Z</time>
      </trkpt>
      <trkpt lat="38.41497" lon="14.95866">
        <ele>4.46</ele>
        <time>2018-04-16T10:59:16Z</time>
      </trkpt>
      <trkpt lat="38.41508" lon="14.9586">
        <ele>3.98</ele>
        <time>2018-04-16T10:59:28Z</time>
      </trkpt>
      <trkpt lat="38.41518" lon="14.95853">
        <ele>4.46</ele>
        <time>2018-04-16T10:59:41Z</time>
      </trkpt>
      <trkpt lat="38.41519" lon="14.95854">
        <ele>4.46</ele>
        <time>2018-04-16T10:59:43Z</time>
      </trkpt>
      <trkpt lat="38.41525" lon="14.95854">
        <ele>4.94</ele>
        <time>2018-04-16T10:59:48Z</time>
      </trkpt>
      <trkpt lat="38.41527" lon="14.95854">
        <ele>4.94</ele>
        <time>2018-04-16T10:59:50Z</time>
      </trkpt>
      <trkpt lat="38.41529" lon="14.95854">
        <ele>4.94</ele>
        <time>2018-04-16T10:59:52Z</time>
      </trkpt>
      <trkpt lat="38.41543" lon="14.95863">
        <ele>3.98</ele>
        <time>2018-04-16T11:00:07Z</time>
      </trkpt>
      <trkpt lat="38.41546" lon="14.95866">
        <ele>3.5</ele>
        <time>2018-04-16T11:00:11Z</time>
      </trkpt>
      <trkpt lat="38.41551" lon="14.95873">
        <ele>3.5</ele>
        <time>2018-04-16T11:00:18Z</time>
      </trkpt>
      <trkpt lat="38.41552" lon="14.95879">
        <ele>3.5</ele>
        <time>2018-04-16T11:00:23Z</time>
      </trkpt>
      <trkpt lat="38.41553" lon="14.95885">
        <ele>3.02</ele>
        <time>2018-04-16T11:00:27Z</time>
      </trkpt>
      <trkpt lat="38.41553" lon="14.95889">
        <ele>3.02</ele>
        <time>2018-04-16T11:00:30Z</time>
      </trkpt>
      <trkpt lat="38.41556" lon="14.95898">
        <ele>2.54</ele>
        <time>2018-04-16T11:00:38Z</time>
      </trkpt>
      <trkpt lat="38.4156" lon="14.95903">
        <ele>2.54</ele>
        <time>2018-04-16T11:00:50Z</time>
      </trkpt>
      <trkpt lat="38.41562" lon="14.95905">
        <ele>2.06</ele>
        <time>2018-04-16T11:01:02Z</time>
      </trkpt>
      <trkpt lat="38.41566" lon="14.95908">
        <ele>0.62</ele>
        <time>2018-04-16T11:01:30Z</time>
      </trkpt>
      <trkpt lat="38.41566" lon="14.95909">
        <ele>0.62</ele>
        <time>2018-04-16T11:01:37Z</time>
      </trkpt>
      <trkpt lat="38.41672" lon="14.96205">
        <ele>0.14</ele>
        <time>2018-04-16T14:46:11Z</time>
      </trkpt>
      <trkpt lat="38.41667" lon="14.96203">
        <ele>9.27</ele>
        <time>2018-04-16T14:46:31Z</time>
      </trkpt>
      <trkpt lat="38.41673" lon="14.96205">
        <ele>4.46</ele>
        <time>2018-04-16T14:46:51Z</time>
      </trkpt>
      <trkpt lat="38.4168" lon="14.96206">
        <ele>3.5</ele>
        <time>2018-04-16T14:47:21Z</time>
      </trkpt>
      <trkpt lat="38.41673" lon="14.96201">
        <ele>2.06</ele>
        <time>2018-04-16T14:47:46Z</time>
      </trkpt>
      <trkpt lat="38.41671" lon="14.96186">
        <ele>3.02</ele>
        <time>2018-04-16T14:48:13Z</time>
      </trkpt>
      <trkpt lat="38.4167" lon="14.96177">
        <ele>3.02</ele>
        <time>2018-04-16T14:48:48Z</time>
      </trkpt>
      <trkpt lat="38.41669" lon="14.96174">
        <ele>3.02</ele>
        <time>2018-04-16T14:49:18Z</time>
      </trkpt>
      <trkpt lat="38.41671" lon="14.96181">
        <ele>2.54</ele>
        <time>2018-04-16T14:49:44Z</time>
      </trkpt>
      <trkpt lat="38.41688" lon="14.96196">
        <ele>2.06</ele>
        <time>2018-04-16T14:50:19Z</time>
      </trkpt>
      <trkpt lat="38.41692" lon="14.962">
        <ele>2.06</ele>
        <time>2018-04-16T14:50:24Z</time>
      </trkpt>
      <trkpt lat="38.41715" lon="14.96243">
        <ele>3.5</ele>
        <time>2018-04-16T14:50:56Z</time>
      </trkpt>
      <trkpt lat="38.41736" lon="14.96287">
        <ele>3.02</ele>
        <time>2018-04-16T14:51:21Z</time>
      </trkpt>
      <trkpt lat="38.41759" lon="14.96337">
        <ele>3.02</ele>
        <time>2018-04-16T14:51:41Z</time>
      </trkpt>
      <trkpt lat="38.41781" lon="14.96398">
        <ele>2.54</ele>
        <time>2018-04-16T14:52:04Z</time>
      </trkpt>
      <trkpt lat="38.41816" lon="14.96478">
        <ele>3.02</ele>
        <time>2018-04-16T14:52:35Z</time>
      </trkpt>
      <trkpt lat="38.4185" lon="14.96532">
        <ele>3.02</ele>
        <time>2018-04-16T14:52:58Z</time>
      </trkpt>
      <trkpt lat="38.41886" lon="14.96588">
        <ele>3.02</ele>
        <time>2018-04-16T14:53:22Z</time>
      </trkpt>
      <trkpt lat="38.41927" lon="14.96652">
        <ele>2.54</ele>
        <time>2018-04-16T14:53:50Z</time>
      </trkpt>
      <trkpt lat="38.41956" lon="14.96708">
        <ele>1.58</ele>
        <time>2018-04-16T14:54:13Z</time>
      </trkpt>
      <trkpt lat="38.41989" lon="14.96765">
        <ele>1.58</ele>
        <time>2018-04-16T14:54:37Z</time>
      </trkpt>
      <trkpt lat="38.42016" lon="14.96804">
        <ele>1.58</ele>
        <time>2018-04-16T14:54:54Z</time>
      </trkpt>
      <trkpt lat="38.42048" lon="14.96845">
        <ele>1.1</ele>
        <time>2018-04-16T14:55:14Z</time>
      </trkpt>
      <trkpt lat="38.42102" lon="14.96894">
        <ele>0.62</ele>
        <time>2018-04-16T14:55:43Z</time>
      </trkpt>
      <trkpt lat="38.42142" lon="14.96921">
        <ele>0.62</ele>
        <time>2018-04-16T14:56:04Z</time>
      </trkpt>
      <trkpt lat="38.42181" lon="14.96947">
        <ele>1.1</ele>
        <time>2018-04-16T14:56:25Z</time>
      </trkpt>
      <trkpt lat="38.42224" lon="14.96982">
        <ele>0.14</ele>
        <time>2018-04-16T14:56:49Z</time>
      </trkpt>
      <trkpt lat="38.42272" lon="14.97016">
        <ele>0.14</ele>
        <time>2018-04-16T14:57:15Z</time>
      </trkpt>
      <trkpt lat="38.42293" lon="14.97032">
        <ele>0.62</ele>
        <time>2018-04-16T14:57:26Z</time>
      </trkpt>
      <trkpt lat="38.42335" lon="14.97057">
        <ele>1.58</ele>
        <time>2018-04-16T14:57:46Z</time>
      </trkpt>
      <trkpt lat="38.42392" lon="14.97097">
        <ele>1.58</ele>
        <time>2018-04-16T14:58:10Z</time>
      </trkpt>
      <trkpt lat="38.42458" lon="14.9714">
        <ele>1.58</ele>
        <time>2018-04-16T14:58:37Z</time>
      </trkpt>
      <trkpt lat="38.42513" lon="14.97177">
        <ele>3.02</ele>
        <time>2018-04-16T14:59:00Z</time>
      </trkpt>
      <trkpt lat="38.42576" lon="14.97218">
        <ele>2.54</ele>
        <time>2018-04-16T14:59:26Z</time>
      </trkpt>
      <trkpt lat="38.42633" lon="14.97252">
        <ele>3.02</ele>
        <time>2018-04-16T14:59:49Z</time>
      </trkpt>
      <trkpt lat="38.42687" lon="14.97286">
        <ele>2.06</ele>
        <time>2018-04-16T15:00:11Z</time>
      </trkpt>
      <trkpt lat="38.42738" lon="14.97315">
        <ele>1.1</ele>
        <time>2018-04-16T15:00:31Z</time>
      </trkpt>
      <trkpt lat="38.42788" lon="14.97351">
        <ele>0.62</ele>
        <time>2018-04-16T15:00:52Z</time>
      </trkpt>
      <trkpt lat="38.4284" lon="14.97397">
        <ele>0.14</ele>
        <time>2018-04-16T15:01:15Z</time>
      </trkpt>
      <trkpt lat="38.42889" lon="14.97446">
        <ele>1.1</ele>
        <time>2018-04-16T15:01:38Z</time>
      </trkpt>
      <trkpt lat="38.42934" lon="14.97474">
        <ele>1.58</ele>
        <time>2018-04-16T15:01:56Z</time>
      </trkpt>
      <trkpt lat="38.42975" lon="14.97495">
        <ele>0.62</ele>
        <time>2018-04-16T15:02:12Z</time>
      </trkpt>
      <trkpt lat="38.43014" lon="14.9752">
        <ele>0.62</ele>
        <time>2018-04-16T15:02:28Z</time>
      </trkpt>
      <trkpt lat="38.43061" lon="14.97548">
        <ele>0.62</ele>
        <time>2018-04-16T15:02:47Z</time>
      </trkpt>
      <trkpt lat="38.43102" lon="14.97563">
        <ele>1.58</ele>
        <time>2018-04-16T15:03:03Z</time>
      </trkpt>
      <trkpt lat="38.43149" lon="14.97588">
        <ele>2.06</ele>
        <time>2018-04-16T15:03:22Z</time>
      </trkpt>
      <trkpt lat="38.43185" lon="14.97603">
        <ele>2.06</ele>
        <time>2018-04-16T15:03:36Z</time>
      </trkpt>
      <trkpt lat="38.43227" lon="14.97611">
        <ele>2.54</ele>
        <time>2018-04-16T15:03:52Z</time>
      </trkpt>
      <trkpt lat="38.43275" lon="14.97623">
        <ele>2.06</ele>
        <time>2018-04-16T15:04:10Z</time>
      </trkpt>
      <trkpt lat="38.43317" lon="14.97665">
        <ele>1.58</ele>
        <time>2018-04-16T15:04:29Z</time>
      </trkpt>
      <trkpt lat="38.43358" lon="14.97697">
        <ele>1.58</ele>
        <time>2018-04-16T15:04:46Z</time>
      </trkpt>
      <trkpt lat="38.43405" lon="14.97717">
        <ele>2.06</ele>
        <time>2018-04-16T15:05:04Z</time>
      </trkpt>
      <trkpt lat="38.43436" lon="14.97725">
        <ele>2.06</ele>
        <time>2018-04-16T15:05:16Z</time>
      </trkpt>
      <trkpt lat="38.43476" lon="14.97725">
        <ele>2.54</ele>
        <time>2018-04-16T15:05:31Z</time>
      </trkpt>
      <trkpt lat="38.43511" lon="14.97727">
        <ele>2.06</ele>
        <time>2018-04-16T15:05:44Z</time>
      </trkpt>
      <trkpt lat="38.43541" lon="14.97736">
        <ele>2.06</ele>
        <time>2018-04-16T15:05:55Z</time>
      </trkpt>
      <trkpt lat="38.43569" lon="14.97742">
        <ele>2.54</ele>
        <time>2018-04-16T15:06:06Z</time>
      </trkpt>
      <trkpt lat="38.43604" lon="14.97752">
        <ele>3.02</ele>
        <time>2018-04-16T15:06:19Z</time>
      </trkpt>
      <trkpt lat="38.43644" lon="14.97763">
        <ele>2.06</ele>
        <time>2018-04-16T15:06:34Z</time>
      </trkpt>
      <trkpt lat="38.43675" lon="14.97769">
        <ele>3.02</ele>
        <time>2018-04-16T15:06:46Z</time>
      </trkpt>
      <trkpt lat="38.43709" lon="14.97784">
        <ele>2.54</ele>
        <time>2018-04-16T15:06:59Z</time>
      </trkpt>
      <trkpt lat="38.43746" lon="14.97808">
        <ele>2.06</ele>
        <time>2018-04-16T15:07:14Z</time>
      </trkpt>
      <trkpt lat="38.4378" lon="14.97842">
        <ele>1.58</ele>
        <time>2018-04-16T15:07:29Z</time>
      </trkpt>
      <trkpt lat="38.43816" lon="14.97887">
        <ele>1.58</ele>
        <time>2018-04-16T15:07:46Z</time>
      </trkpt>
      <trkpt lat="38.43856" lon="14.9793">
        <ele>1.1</ele>
        <time>2018-04-16T15:08:04Z</time>
      </trkpt>
      <trkpt lat="38.43894" lon="14.97961">
        <ele>1.1</ele>
        <time>2018-04-16T15:08:20Z</time>
      </trkpt>
      <trkpt lat="38.43935" lon="14.97997">
        <ele>1.58</ele>
        <time>2018-04-16T15:08:38Z</time>
      </trkpt>
      <trkpt lat="38.43958" lon="14.97997">
        <ele>2.06</ele>
        <time>2018-04-16T15:08:51Z</time>
      </trkpt>
      <trkpt lat="38.43959" lon="14.97973">
        <ele>2.06</ele>
        <time>2018-04-16T15:09:08Z</time>
      </trkpt>
      <trkpt lat="38.43951" lon="14.97958">
        <ele>3.02</ele>
        <time>2018-04-16T15:09:26Z</time>
      </trkpt>
      <trkpt lat="38.43947" lon="14.97947">
        <ele>3.98</ele>
        <time>2018-04-16T15:09:41Z</time>
      </trkpt>
      <trkpt lat="38.43946" lon="14.97933">
        <ele>3.02</ele>
        <time>2018-04-16T15:09:58Z</time>
      </trkpt>
      <trkpt lat="38.43946" lon="14.97918">
        <ele>2.54</ele>
        <time>2018-04-16T15:10:17Z</time>
      </trkpt>
      <trkpt lat="38.4394" lon="14.97907">
        <ele>3.02</ele>
        <time>2018-04-16T15:10:36Z</time>
      </trkpt>
      <trkpt lat="38.43937" lon="14.97896">
        <ele>3.02</ele>
        <time>2018-04-16T15:10:56Z</time>
      </trkpt>
      <trkpt lat="38.43937" lon="14.97883">
        <ele>2.54</ele>
        <time>2018-04-16T15:11:19Z</time>
      </trkpt>
      <trkpt lat="38.43939" lon="14.97878">
        <ele>3.02</ele>
        <time>2018-04-16T15:11:25Z</time>
      </trkpt>
      <trkpt lat="38.43948" lon="14.97866">
        <ele>3.5</ele>
        <time>2018-04-16T15:11:34Z</time>
      </trkpt>
      <trkpt lat="38.43954" lon="14.97837">
        <ele>4.94</ele>
        <time>2018-04-16T15:11:50Z</time>
      </trkpt>
      <trkpt lat="38.43952" lon="14.97817">
        <ele>4.46</ele>
        <time>2018-04-16T15:12:06Z</time>
      </trkpt>
      <trkpt lat="38.43951" lon="14.97801">
        <ele>4.46</ele>
        <time>2018-04-16T15:12:26Z</time>
      </trkpt>
      <trkpt lat="38.4395" lon="14.97789">
        <ele>3.98</ele>
        <time>2018-04-16T15:12:44Z</time>
      </trkpt>
      <trkpt lat="38.43949" lon="14.97777">
        <ele>3.02</ele>
        <time>2018-04-16T15:13:04Z</time>
      </trkpt>
      <trkpt lat="38.43949" lon="14.97773">
        <ele>3.02</ele>
        <time>2018-04-16T15:13:09Z</time>
      </trkpt>
      <trkpt lat="38.4395" lon="14.9777">
        <ele>3.02</ele>
        <time>2018-04-16T15:13:11Z</time>
      </trkpt>
      <trkpt lat="38.43956" lon="14.97764">
        <ele>3.02</ele>
        <time>2018-04-16T15:13:16Z</time>
      </trkpt>
      <trkpt lat="38.43984" lon="14.97778">
        <ele>3.02</ele>
        <time>2018-04-16T15:13:30Z</time>
      </trkpt>
      <trkpt lat="38.44078" lon="14.97826">
        <ele>3.5</ele>
        <time>2018-04-16T15:14:09Z</time>
      </trkpt>
      <trkpt lat="38.44115" lon="14.97837">
        <ele>3.98</ele>
        <time>2018-04-16T15:14:23Z</time>
      </trkpt>
      <trkpt lat="38.44158" lon="14.97849">
        <ele>4.46</ele>
        <time>2018-04-16T15:14:39Z</time>
      </trkpt>
      <trkpt lat="38.44207" lon="14.97868">
        <ele>3.98</ele>
        <time>2018-04-16T15:14:58Z</time>
      </trkpt>
      <trkpt lat="38.4425" lon="14.97894">
        <ele>3.5</ele>
        <time>2018-04-16T15:15:16Z</time>
      </trkpt>
      <trkpt lat="38.44289" lon="14.97909">
        <ele>2.54</ele>
        <time>2018-04-16T15:15:31Z</time>
      </trkpt>
      <trkpt lat="38.44336" lon="14.9792">
        <ele>3.5</ele>
        <time>2018-04-16T15:15:49Z</time>
      </trkpt>
      <trkpt lat="38.44376" lon="14.9793">
        <ele>3.5</ele>
        <time>2018-04-16T15:16:04Z</time>
      </trkpt>
      <trkpt lat="38.44418" lon="14.97951">
        <ele>3.02</ele>
        <time>2018-04-16T15:16:21Z</time>
      </trkpt>
      <trkpt lat="38.44455" lon="14.97964">
        <ele>3.02</ele>
        <time>2018-04-16T15:16:35Z</time>
      </trkpt>
      <trkpt lat="38.44504" lon="14.9799">
        <ele>3.02</ele>
        <time>2018-04-16T15:16:55Z</time>
      </trkpt>
      <trkpt lat="38.44545" lon="14.98004">
        <ele>3.02</ele>
        <time>2018-04-16T15:17:11Z</time>
      </trkpt>
      <trkpt lat="38.44588" lon="14.98021">
        <ele>3.5</ele>
        <time>2018-04-16T15:17:28Z</time>
      </trkpt>
      <trkpt lat="38.44632" lon="14.98035">
        <ele>3.5</ele>
        <time>2018-04-16T15:17:44Z</time>
      </trkpt>
      <trkpt lat="38.44681" lon="14.98051">
        <ele>3.5</ele>
        <time>2018-04-16T15:18:01Z</time>
      </trkpt>
      <trkpt lat="38.44737" lon="14.98069">
        <ele>3.98</ele>
        <time>2018-04-16T15:18:19Z</time>
      </trkpt>
      <trkpt lat="38.44787" lon="14.98071">
        <ele>3.98</ele>
        <time>2018-04-16T15:18:34Z</time>
      </trkpt>
      <trkpt lat="38.44843" lon="14.98074">
        <ele>3.98</ele>
        <time>2018-04-16T15:18:50Z</time>
      </trkpt>
      <trkpt lat="38.44899" lon="14.98079">
        <ele>3.98</ele>
        <time>2018-04-16T15:19:05Z</time>
      </trkpt>
      <trkpt lat="38.44965" lon="14.98097">
        <ele>3.98</ele>
        <time>2018-04-16T15:19:23Z</time>
      </trkpt>
      <trkpt lat="38.45018" lon="14.98106">
        <ele>4.46</ele>
        <time>2018-04-16T15:19:38Z</time>
      </trkpt>
      <trkpt lat="38.45068" lon="14.98109">
        <ele>4.46</ele>
        <time>2018-04-16T15:19:52Z</time>
      </trkpt>
      <trkpt lat="38.45133" lon="14.98123">
        <ele>3.5</ele>
        <time>2018-04-16T15:20:10Z</time>
      </trkpt>
      <trkpt lat="38.4519" lon="14.9814">
        <ele>3.5</ele>
        <time>2018-04-16T15:20:26Z</time>
      </trkpt>
      <trkpt lat="38.45254" lon="14.9815">
        <ele>3.02</ele>
        <time>2018-04-16T15:20:43Z</time>
      </trkpt>
      <trkpt lat="38.45319" lon="14.98159">
        <ele>3.5</ele>
        <time>2018-04-16T15:21:01Z</time>
      </trkpt>
      <trkpt lat="38.45374" lon="14.98168">
        <ele>3.02</ele>
        <time>2018-04-16T15:21:16Z</time>
      </trkpt>
      <trkpt lat="38.45439" lon="14.98179">
        <ele>3.5</ele>
        <time>2018-04-16T15:21:33Z</time>
      </trkpt>
      <trkpt lat="38.45491" lon="14.98193">
        <ele>2.54</ele>
        <time>2018-04-16T15:21:46Z</time>
      </trkpt>
      <trkpt lat="38.45547" lon="14.98201">
        <ele>2.54</ele>
        <time>2018-04-16T15:22:01Z</time>
      </trkpt>
      <trkpt lat="38.45599" lon="14.98211">
        <ele>3.5</ele>
        <time>2018-04-16T15:22:16Z</time>
      </trkpt>
      <trkpt lat="38.45645" lon="14.98215">
        <ele>3.98</ele>
        <time>2018-04-16T15:22:28Z</time>
      </trkpt>
      <trkpt lat="38.45707" lon="14.98226">
        <ele>3.98</ele>
        <time>2018-04-16T15:22:45Z</time>
      </trkpt>
      <trkpt lat="38.45764" lon="14.98235">
        <ele>3.98</ele>
        <time>2018-04-16T15:23:00Z</time>
      </trkpt>
      <trkpt lat="38.45824" lon="14.9825">
        <ele>3.5</ele>
        <time>2018-04-16T15:23:17Z</time>
      </trkpt>
      <trkpt lat="38.45875" lon="14.9826">
        <ele>3.5</ele>
        <time>2018-04-16T15:23:31Z</time>
      </trkpt>
      <trkpt lat="38.45944" lon="14.98286">
        <ele>4.46</ele>
        <time>2018-04-16T15:23:51Z</time>
      </trkpt>
      <trkpt lat="38.46002" lon="14.98312">
        <ele>2.54</ele>
        <time>2018-04-16T15:24:09Z</time>
      </trkpt>
      <trkpt lat="38.46058" lon="14.98326">
        <ele>5.42</ele>
        <time>2018-04-16T15:24:26Z</time>
      </trkpt>
      <trkpt lat="38.46102" lon="14.9833">
        <ele>6.39</ele>
        <time>2018-04-16T15:24:38Z</time>
      </trkpt>
      <trkpt lat="38.46178" lon="14.98337">
        <ele>6.39</ele>
        <time>2018-04-16T15:24:58Z</time>
      </trkpt>
      <trkpt lat="38.46235" lon="14.9834">
        <ele>5.91</ele>
        <time>2018-04-16T15:25:13Z</time>
      </trkpt>
      <trkpt lat="38.46295" lon="14.98343">
        <ele>5.42</ele>
        <time>2018-04-16T15:25:29Z</time>
      </trkpt>
      <trkpt lat="38.46351" lon="14.98341">
        <ele>5.91</ele>
        <time>2018-04-16T15:25:44Z</time>
      </trkpt>
      <trkpt lat="38.4642" lon="14.98347">
        <ele>5.42</ele>
        <time>2018-04-16T15:26:02Z</time>
      </trkpt>
      <trkpt lat="38.4648" lon="14.98349">
        <ele>5.91</ele>
        <time>2018-04-16T15:26:17Z</time>
      </trkpt>
      <trkpt lat="38.46507" lon="14.98352">
        <ele>6.39</ele>
        <time>2018-04-16T15:26:24Z</time>
      </trkpt>
      <trkpt lat="38.46538" lon="14.98352">
        <ele>6.39</ele>
        <time>2018-04-16T15:26:32Z</time>
      </trkpt>
      <trkpt lat="38.4661" lon="14.98351">
        <ele>6.39</ele>
        <time>2018-04-16T15:26:50Z</time>
      </trkpt>
      <trkpt lat="38.4667" lon="14.9836">
        <ele>5.91</ele>
        <time>2018-04-16T15:27:05Z</time>
      </trkpt>
      <trkpt lat="38.46731" lon="14.98373">
        <ele>4.94</ele>
        <time>2018-04-16T15:27:21Z</time>
      </trkpt>
      <trkpt lat="38.46786" lon="14.98389">
        <ele>4.94</ele>
        <time>2018-04-16T15:27:36Z</time>
      </trkpt>
      <trkpt lat="38.46837" lon="14.98402">
        <ele>4.94</ele>
        <time>2018-04-16T15:27:50Z</time>
      </trkpt>
      <trkpt lat="38.469" lon="14.98412">
        <ele>4.94</ele>
        <time>2018-04-16T15:28:07Z</time>
      </trkpt>
      <trkpt lat="38.46946" lon="14.98419">
        <ele>5.42</ele>
        <time>2018-04-16T15:28:19Z</time>
      </trkpt>
      <trkpt lat="38.46961" lon="14.98423">
        <ele>5.42</ele>
        <time>2018-04-16T15:28:23Z</time>
      </trkpt>
      <trkpt lat="38.47025" lon="14.98426">
        <ele>5.42</ele>
        <time>2018-04-16T15:28:39Z</time>
      </trkpt>
      <trkpt lat="38.47081" lon="14.98438">
        <ele>5.42</ele>
        <time>2018-04-16T15:28:54Z</time>
      </trkpt>
      <trkpt lat="38.47138" lon="14.98451">
        <ele>4.94</ele>
        <time>2018-04-16T15:29:09Z</time>
      </trkpt>
      <trkpt lat="38.47199" lon="14.98459">
        <ele>5.42</ele>
        <time>2018-04-16T15:29:25Z</time>
      </trkpt>
      <trkpt lat="38.47269" lon="14.98476">
        <ele>5.42</ele>
        <time>2018-04-16T15:29:44Z</time>
      </trkpt>
      <trkpt lat="38.47333" lon="14.98493">
        <ele>4.94</ele>
        <time>2018-04-16T15:30:02Z</time>
      </trkpt>
      <trkpt lat="38.47398" lon="14.98506">
        <ele>4.94</ele>
        <time>2018-04-16T15:30:20Z</time>
      </trkpt>
      <trkpt lat="38.47453" lon="14.98509">
        <ele>4.94</ele>
        <time>2018-04-16T15:30:34Z</time>
      </trkpt>
      <trkpt lat="38.47502" lon="14.98514">
        <ele>4.94</ele>
        <time>2018-04-16T15:30:46Z</time>
      </trkpt>
      <trkpt lat="38.4755" lon="14.9851">
        <ele>4.94</ele>
        <time>2018-04-16T15:30:58Z</time>
      </trkpt>
      <trkpt lat="38.47619" lon="14.98534">
        <ele>5.42</ele>
        <time>2018-04-16T15:31:16Z</time>
      </trkpt>
      <trkpt lat="38.47679" lon="14.98565">
        <ele>4.46</ele>
        <time>2018-04-16T15:31:33Z</time>
      </trkpt>
      <trkpt lat="38.47738" lon="14.98588">
        <ele>4.94</ele>
        <time>2018-04-16T15:31:49Z</time>
      </trkpt>
      <trkpt lat="38.47806" lon="14.98598">
        <ele>5.42</ele>
        <time>2018-04-16T15:32:07Z</time>
      </trkpt>
      <trkpt lat="38.47869" lon="14.98606">
        <ele>4.94</ele>
        <time>2018-04-16T15:32:24Z</time>
      </trkpt>
      <trkpt lat="38.4793" lon="14.98609">
        <ele>4.46</ele>
        <time>2018-04-16T15:32:41Z</time>
      </trkpt>
      <trkpt lat="38.47987" lon="14.98607">
        <ele>4.94</ele>
        <time>2018-04-16T15:32:56Z</time>
      </trkpt>
      <trkpt lat="38.48044" lon="14.98613">
        <ele>3.98</ele>
        <time>2018-04-16T15:33:12Z</time>
      </trkpt>
      <trkpt lat="38.48105" lon="14.98619">
        <ele>3.5</ele>
        <time>2018-04-16T15:33:30Z</time>
      </trkpt>
      <trkpt lat="38.48154" lon="14.98614">
        <ele>3.02</ele>
        <time>2018-04-16T15:33:45Z</time>
      </trkpt>
      <trkpt lat="38.48203" lon="14.98611">
        <ele>3.02</ele>
        <time>2018-04-16T15:34:01Z</time>
      </trkpt>
      <trkpt lat="38.48256" lon="14.98603">
        <ele>2.54</ele>
        <time>2018-04-16T15:34:19Z</time>
      </trkpt>
      <trkpt lat="38.48307" lon="14.98607">
        <ele>2.54</ele>
        <time>2018-04-16T15:34:39Z</time>
      </trkpt>
      <trkpt lat="38.48331" lon="14.98607">
        <ele>3.5</ele>
        <time>2018-04-16T15:34:55Z</time>
      </trkpt>
      <trkpt lat="38.4835" lon="14.98605">
        <ele>4.46</ele>
        <time>2018-04-16T15:35:14Z</time>
      </trkpt>
      <trkpt lat="38.4837" lon="14.98602">
        <ele>4.46</ele>
        <time>2018-04-16T15:35:36Z</time>
      </trkpt>
      <trkpt lat="38.48383" lon="14.986">
        <ele>3.5</ele>
        <time>2018-04-16T15:35:54Z</time>
      </trkpt>
      <trkpt lat="38.48396" lon="14.98601">
        <ele>3.5</ele>
        <time>2018-04-16T15:36:19Z</time>
      </trkpt>
      <trkpt lat="38.48406" lon="14.98603">
        <ele>3.02</ele>
        <time>2018-04-16T15:36:41Z</time>
      </trkpt>
      <trkpt lat="38.48417" lon="14.98608">
        <ele>2.06</ele>
        <time>2018-04-16T15:37:07Z</time>
      </trkpt>
      <trkpt lat="38.48429" lon="14.98613">
        <ele>2.06</ele>
        <time>2018-04-16T15:37:28Z</time>
      </trkpt>
      <trkpt lat="38.48442" lon="14.98618">
        <ele>3.02</ele>
        <time>2018-04-16T15:37:49Z</time>
      </trkpt>
      <trkpt lat="38.48454" lon="14.98623">
        <ele>3.02</ele>
        <time>2018-04-16T15:38:11Z</time>
      </trkpt>
      <trkpt lat="38.48465" lon="14.98629">
        <ele>3.02</ele>
        <time>2018-04-16T15:38:35Z</time>
      </trkpt>
      <trkpt lat="38.48474" lon="14.98629">
        <ele>3.5</ele>
        <time>2018-04-16T15:38:55Z</time>
      </trkpt>
      <trkpt lat="38.4848" lon="14.98628">
        <ele>3.5</ele>
        <time>2018-04-16T15:39:14Z</time>
      </trkpt>
      <trkpt lat="38.48483" lon="14.98629">
        <ele>3.02</ele>
        <time>2018-04-16T15:39:36Z</time>
      </trkpt>
      <trkpt lat="38.48487" lon="14.98633">
        <ele>3.5</ele>
        <time>2018-04-16T15:39:55Z</time>
      </trkpt>
      <trkpt lat="38.48496" lon="14.98638">
        <ele>2.54</ele>
        <time>2018-04-16T15:40:13Z</time>
      </trkpt>
      <trkpt lat="38.48503" lon="14.98643">
        <ele>2.54</ele>
        <time>2018-04-16T15:40:24Z</time>
      </trkpt>
      <trkpt lat="38.48529" lon="14.98652">
        <ele>2.54</ele>
        <time>2018-04-16T15:40:42Z</time>
      </trkpt>
      <trkpt lat="38.48561" lon="14.98649">
        <ele>3.02</ele>
        <time>2018-04-16T15:41:04Z</time>
      </trkpt>
      <trkpt lat="38.48584" lon="14.98644">
        <ele>3.5</ele>
        <time>2018-04-16T15:41:24Z</time>
      </trkpt>
      <trkpt lat="38.48606" lon="14.98639">
        <ele>3.5</ele>
        <time>2018-04-16T15:41:43Z</time>
      </trkpt>
      <trkpt lat="38.4864" lon="14.98623">
        <ele>3.02</ele>
        <time>2018-04-16T15:42:02Z</time>
      </trkpt>
      <trkpt lat="38.48674" lon="14.98602">
        <ele>3.5</ele>
        <time>2018-04-16T15:42:23Z</time>
      </trkpt>
      <trkpt lat="38.48705" lon="14.98588">
        <ele>3.5</ele>
        <time>2018-04-16T15:42:43Z</time>
      </trkpt>
      <trkpt lat="38.48739" lon="14.98569">
        <ele>3.02</ele>
        <time>2018-04-16T15:43:02Z</time>
      </trkpt>
      <trkpt lat="38.48775" lon="14.98549">
        <ele>3.02</ele>
        <time>2018-04-16T15:43:21Z</time>
      </trkpt>
      <trkpt lat="38.48814" lon="14.98528">
        <ele>3.98</ele>
        <time>2018-04-16T15:43:42Z</time>
      </trkpt>
      <trkpt lat="38.48859" lon="14.98509">
        <ele>4.94</ele>
        <time>2018-04-16T15:44:05Z</time>
      </trkpt>
      <trkpt lat="38.48902" lon="14.98494">
        <ele>3.5</ele>
        <time>2018-04-16T15:44:26Z</time>
      </trkpt>
      <trkpt lat="38.48949" lon="14.98476">
        <ele>3.5</ele>
        <time>2018-04-16T15:44:47Z</time>
      </trkpt>
      <trkpt lat="38.49007" lon="14.98454">
        <ele>3.98</ele>
        <time>2018-04-16T15:45:10Z</time>
      </trkpt>
      <trkpt lat="38.49059" lon="14.98431">
        <ele>3.98</ele>
        <time>2018-04-16T15:45:32Z</time>
      </trkpt>
      <trkpt lat="38.49108" lon="14.98406">
        <ele>4.94</ele>
        <time>2018-04-16T15:45:57Z</time>
      </trkpt>
      <trkpt lat="38.49151" lon="14.9839">
        <ele>4.94</ele>
        <time>2018-04-16T15:46:20Z</time>
      </trkpt>
      <trkpt lat="38.49205" lon="14.98367">
        <ele>4.46</ele>
        <time>2018-04-16T15:46:44Z</time>
      </trkpt>
      <trkpt lat="38.4927" lon="14.98333">
        <ele>3.98</ele>
        <time>2018-04-16T15:47:07Z</time>
      </trkpt>
      <trkpt lat="38.49332" lon="14.98303">
        <ele>4.46</ele>
        <time>2018-04-16T15:47:26Z</time>
      </trkpt>
      <trkpt lat="38.49382" lon="14.9827">
        <ele>3.02</ele>
        <time>2018-04-16T15:47:42Z</time>
      </trkpt>
      <trkpt lat="38.49426" lon="14.98243">
        <ele>3.5</ele>
        <time>2018-04-16T15:47:56Z</time>
      </trkpt>
      <trkpt lat="38.49476" lon="14.98216">
        <ele>3.98</ele>
        <time>2018-04-16T15:48:11Z</time>
      </trkpt>
      <trkpt lat="38.49533" lon="14.9819">
        <ele>4.94</ele>
        <time>2018-04-16T15:48:28Z</time>
      </trkpt>
      <trkpt lat="38.49596" lon="14.98162">
        <ele>4.46</ele>
        <time>2018-04-16T15:48:47Z</time>
      </trkpt>
      <trkpt lat="38.49645" lon="14.98139">
        <ele>5.42</ele>
        <time>2018-04-16T15:49:02Z</time>
      </trkpt>
      <trkpt lat="38.49686" lon="14.9812">
        <ele>4.94</ele>
        <time>2018-04-16T15:49:15Z</time>
      </trkpt>
      <trkpt lat="38.49749" lon="14.98098">
        <ele>4.46</ele>
        <time>2018-04-16T15:49:35Z</time>
      </trkpt>
      <trkpt lat="38.49806" lon="14.98072">
        <ele>5.42</ele>
        <time>2018-04-16T15:49:53Z</time>
      </trkpt>
      <trkpt lat="38.4985" lon="14.9805">
        <ele>5.42</ele>
        <time>2018-04-16T15:50:07Z</time>
      </trkpt>
      <trkpt lat="38.49895" lon="14.98031">
        <ele>4.94</ele>
        <time>2018-04-16T15:50:21Z</time>
      </trkpt>
      <trkpt lat="38.4994" lon="14.98021">
        <ele>4.46</ele>
        <time>2018-04-16T15:50:39Z</time>
      </trkpt>
      <trkpt lat="38.49991" lon="14.98009">
        <ele>4.46</ele>
        <time>2018-04-16T15:50:59Z</time>
      </trkpt>
      <trkpt lat="38.50035" lon="14.97997">
        <ele>4.46</ele>
        <time>2018-04-16T15:51:17Z</time>
      </trkpt>
      <trkpt lat="38.50077" lon="14.97986">
        <ele>4.94</ele>
        <time>2018-04-16T15:51:35Z</time>
      </trkpt>
      <trkpt lat="38.50127" lon="14.97968">
        <ele>3.98</ele>
        <time>2018-04-16T15:51:58Z</time>
      </trkpt>
      <trkpt lat="38.50163" lon="14.97955">
        <ele>3.5</ele>
        <time>2018-04-16T15:52:20Z</time>
      </trkpt>
      <trkpt lat="38.50199" lon="14.97945">
        <ele>3.5</ele>
        <time>2018-04-16T15:52:43Z</time>
      </trkpt>
      <trkpt lat="38.50224" lon="14.97938">
        <ele>3.5</ele>
        <time>2018-04-16T15:53:04Z</time>
      </trkpt>
      <trkpt lat="38.50244" lon="14.97933">
        <ele>3.98</ele>
        <time>2018-04-16T15:53:26Z</time>
      </trkpt>
      <trkpt lat="38.50275" lon="14.9793">
        <ele>3.5</ele>
        <time>2018-04-16T15:53:47Z</time>
      </trkpt>
      <trkpt lat="38.50316" lon="14.97912">
        <ele>3.5</ele>
        <time>2018-04-16T15:54:07Z</time>
      </trkpt>
      <trkpt lat="38.50373" lon="14.97862">
        <ele>3.98</ele>
        <time>2018-04-16T15:54:32Z</time>
      </trkpt>
      <trkpt lat="38.50428" lon="14.97815">
        <ele>3.02</ele>
        <time>2018-04-16T15:54:55Z</time>
      </trkpt>
      <trkpt lat="38.50485" lon="14.97776">
        <ele>3.5</ele>
        <time>2018-04-16T15:55:17Z</time>
      </trkpt>
      <trkpt lat="38.50551" lon="14.97725">
        <ele>3.5</ele>
        <time>2018-04-16T15:55:43Z</time>
      </trkpt>
      <trkpt lat="38.50604" lon="14.97685">
        <ele>3.5</ele>
        <time>2018-04-16T15:56:03Z</time>
      </trkpt>
      <trkpt lat="38.50664" lon="14.97652">
        <ele>3.98</ele>
        <time>2018-04-16T15:56:24Z</time>
      </trkpt>
      <trkpt lat="38.50727" lon="14.97614">
        <ele>4.46</ele>
        <time>2018-04-16T15:56:45Z</time>
      </trkpt>
      <trkpt lat="38.50784" lon="14.97579">
        <ele>4.46</ele>
        <time>2018-04-16T15:57:04Z</time>
      </trkpt>
      <trkpt lat="38.50835" lon="14.97549">
        <ele>3.5</ele>
        <time>2018-04-16T15:57:21Z</time>
      </trkpt>
      <trkpt lat="38.50905" lon="14.97509">
        <ele>3.98</ele>
        <time>2018-04-16T15:57:44Z</time>
      </trkpt>
      <trkpt lat="38.50967" lon="14.97462">
        <ele>3.02</ele>
        <time>2018-04-16T15:58:06Z</time>
      </trkpt>
      <trkpt lat="38.51008" lon="14.97436">
        <ele>2.54</ele>
        <time>2018-04-16T15:58:20Z</time>
      </trkpt>
      <trkpt lat="38.51053" lon="14.97417">
        <ele>3.02</ele>
        <time>2018-04-16T15:58:34Z</time>
      </trkpt>
      <trkpt lat="38.51096" lon="14.974">
        <ele>3.98</ele>
        <time>2018-04-16T15:58:48Z</time>
      </trkpt>
      <trkpt lat="38.51153" lon="14.97357">
        <ele>3.5</ele>
        <time>2018-04-16T15:59:08Z</time>
      </trkpt>
      <trkpt lat="38.51214" lon="14.97306">
        <ele>3.5</ele>
        <time>2018-04-16T15:59:30Z</time>
      </trkpt>
      <trkpt lat="38.51262" lon="14.97268">
        <ele>3.02</ele>
        <time>2018-04-16T15:59:47Z</time>
      </trkpt>
      <trkpt lat="38.51327" lon="14.97205">
        <ele>4.46</ele>
        <time>2018-04-16T16:00:11Z</time>
      </trkpt>
      <trkpt lat="38.51375" lon="14.97162">
        <ele>4.46</ele>
        <time>2018-04-16T16:00:29Z</time>
      </trkpt>
      <trkpt lat="38.51432" lon="14.97117">
        <ele>3.98</ele>
        <time>2018-04-16T16:00:50Z</time>
      </trkpt>
      <trkpt lat="38.51474" lon="14.97092">
        <ele>3.98</ele>
        <time>2018-04-16T16:01:10Z</time>
      </trkpt>
      <trkpt lat="38.51517" lon="14.97068">
        <ele>3.98</ele>
        <time>2018-04-16T16:01:31Z</time>
      </trkpt>
      <trkpt lat="38.51551" lon="14.97054">
        <ele>3.5</ele>
        <time>2018-04-16T16:01:53Z</time>
      </trkpt>
      <trkpt lat="38.51584" lon="14.97048">
        <ele>3.5</ele>
        <time>2018-04-16T16:02:12Z</time>
      </trkpt>
      <trkpt lat="38.5161" lon="14.97046">
        <ele>3.98</ele>
        <time>2018-04-16T16:02:27Z</time>
      </trkpt>
      <trkpt lat="38.51648" lon="14.97045">
        <ele>4.46</ele>
        <time>2018-04-16T16:02:45Z</time>
      </trkpt>
      <trkpt lat="38.51702" lon="14.97045">
        <ele>3.5</ele>
        <time>2018-04-16T16:03:06Z</time>
      </trkpt>
      <trkpt lat="38.51758" lon="14.97042">
        <ele>3.5</ele>
        <time>2018-04-16T16:03:24Z</time>
      </trkpt>
      <trkpt lat="38.51811" lon="14.97049">
        <ele>3.5</ele>
        <time>2018-04-16T16:03:40Z</time>
      </trkpt>
      <trkpt lat="38.51854" lon="14.97047">
        <ele>3.5</ele>
        <time>2018-04-16T16:03:53Z</time>
      </trkpt>
      <trkpt lat="38.51906" lon="14.97053">
        <ele>2.54</ele>
        <time>2018-04-16T16:04:09Z</time>
      </trkpt>
      <trkpt lat="38.5196" lon="14.97061">
        <ele>3.02</ele>
        <time>2018-04-16T16:04:25Z</time>
      </trkpt>
      <trkpt lat="38.52014" lon="14.97059">
        <ele>3.5</ele>
        <time>2018-04-16T16:04:40Z</time>
      </trkpt>
      <trkpt lat="38.52066" lon="14.97058">
        <ele>3.5</ele>
        <time>2018-04-16T16:04:55Z</time>
      </trkpt>
      <trkpt lat="38.52126" lon="14.97058">
        <ele>4.46</ele>
        <time>2018-04-16T16:05:12Z</time>
      </trkpt>
      <trkpt lat="38.5218" lon="14.97047">
        <ele>4.46</ele>
        <time>2018-04-16T16:05:27Z</time>
      </trkpt>
      <trkpt lat="38.52225" lon="14.97035">
        <ele>4.94</ele>
        <time>2018-04-16T16:05:40Z</time>
      </trkpt>
      <trkpt lat="38.52276" lon="14.97024">
        <ele>5.42</ele>
        <time>2018-04-16T16:05:54Z</time>
      </trkpt>
      <trkpt lat="38.52333" lon="14.9702">
        <ele>5.42</ele>
        <time>2018-04-16T16:06:09Z</time>
      </trkpt>
      <trkpt lat="38.52394" lon="14.97006">
        <ele>5.42</ele>
        <time>2018-04-16T16:06:25Z</time>
      </trkpt>
      <trkpt lat="38.52458" lon="14.97">
        <ele>3.98</ele>
        <time>2018-04-16T16:06:41Z</time>
      </trkpt>
      <trkpt lat="38.52483" lon="14.96997">
        <ele>3.98</ele>
        <time>2018-04-16T16:06:47Z</time>
      </trkpt>
      <trkpt lat="38.52495" lon="14.96996">
        <ele>3.5</ele>
        <time>2018-04-16T16:06:50Z</time>
      </trkpt>
      <trkpt lat="38.52556" lon="14.96994">
        <ele>2.54</ele>
        <time>2018-04-16T16:07:05Z</time>
      </trkpt>
      <trkpt lat="38.52563" lon="14.96991">
        <ele>2.54</ele>
        <time>2018-04-16T16:07:07Z</time>
      </trkpt>
      <trkpt lat="38.52608" lon="14.96986">
        <ele>2.54</ele>
        <time>2018-04-16T16:07:18Z</time>
      </trkpt>
      <trkpt lat="38.5262" lon="14.96986">
        <ele>2.54</ele>
        <time>2018-04-16T16:07:21Z</time>
      </trkpt>
      <trkpt lat="38.52639" lon="14.96984">
        <ele>2.06</ele>
        <time>2018-04-16T16:07:26Z</time>
      </trkpt>
      <trkpt lat="38.5266" lon="14.96986">
        <ele>2.06</ele>
        <time>2018-04-16T16:07:31Z</time>
      </trkpt>
      <trkpt lat="38.52681" lon="14.96993">
        <ele>2.54</ele>
        <time>2018-04-16T16:07:36Z</time>
      </trkpt>
      <trkpt lat="38.52716" lon="14.96997">
        <ele>2.06</ele>
        <time>2018-04-16T16:07:45Z</time>
      </trkpt>
      <trkpt lat="38.52732" lon="14.96999">
        <ele>2.06</ele>
        <time>2018-04-16T16:07:49Z</time>
      </trkpt>
      <trkpt lat="38.5278" lon="14.97004">
        <ele>2.54</ele>
        <time>2018-04-16T16:08:02Z</time>
      </trkpt>
      <trkpt lat="38.52833" lon="14.96997">
        <ele>3.02</ele>
        <time>2018-04-16T16:08:16Z</time>
      </trkpt>
      <trkpt lat="38.52891" lon="14.96988">
        <ele>3.02</ele>
        <time>2018-04-16T16:08:31Z</time>
      </trkpt>
      <trkpt lat="38.52948" lon="14.9698">
        <ele>3.02</ele>
        <time>2018-04-16T16:08:46Z</time>
      </trkpt>
      <trkpt lat="38.52992" lon="14.96961">
        <ele>2.54</ele>
        <time>2018-04-16T16:08:59Z</time>
      </trkpt>
      <trkpt lat="38.53042" lon="14.96946">
        <ele>2.54</ele>
        <time>2018-04-16T16:09:13Z</time>
      </trkpt>
      <trkpt lat="38.5308" lon="14.96926">
        <ele>2.54</ele>
        <time>2018-04-16T16:09:25Z</time>
      </trkpt>
      <trkpt lat="38.53119" lon="14.96908">
        <ele>2.54</ele>
        <time>2018-04-16T16:09:36Z</time>
      </trkpt>
      <trkpt lat="38.53167" lon="14.96888">
        <ele>2.54</ele>
        <time>2018-04-16T16:09:50Z</time>
      </trkpt>
      <trkpt lat="38.5321" lon="14.96867">
        <ele>2.54</ele>
        <time>2018-04-16T16:10:03Z</time>
      </trkpt>
      <trkpt lat="38.53247" lon="14.96849">
        <ele>2.54</ele>
        <time>2018-04-16T16:10:14Z</time>
      </trkpt>
      <trkpt lat="38.53282" lon="14.96833">
        <ele>3.02</ele>
        <time>2018-04-16T16:10:24Z</time>
      </trkpt>
      <trkpt lat="38.53297" lon="14.96828">
        <ele>2.54</ele>
        <time>2018-04-16T16:10:28Z</time>
      </trkpt>
      <trkpt lat="38.5335" lon="14.96812">
        <ele>3.02</ele>
        <time>2018-04-16T16:10:42Z</time>
      </trkpt>
      <trkpt lat="38.53362" lon="14.96809">
        <ele>3.02</ele>
        <time>2018-04-16T16:10:45Z</time>
      </trkpt>
      <trkpt lat="38.5337" lon="14.96808">
        <ele>3.02</ele>
        <time>2018-04-16T16:10:47Z</time>
      </trkpt>
      <trkpt lat="38.5339" lon="14.96802">
        <ele>2.06</ele>
        <time>2018-04-16T16:10:52Z</time>
      </trkpt>
      <trkpt lat="38.53402" lon="14.96799">
        <ele>2.54</ele>
        <time>2018-04-16T16:10:55Z</time>
      </trkpt>
      <trkpt lat="38.53415" lon="14.96797">
        <ele>2.06</ele>
        <time>2018-04-16T16:10:58Z</time>
      </trkpt>
      <trkpt lat="38.5345" lon="14.96792">
        <ele>2.06</ele>
        <time>2018-04-16T16:11:07Z</time>
      </trkpt>
      <trkpt lat="38.53492" lon="14.96767">
        <ele>2.54</ele>
        <time>2018-04-16T16:11:19Z</time>
      </trkpt>
      <trkpt lat="38.53537" lon="14.9674">
        <ele>3.02</ele>
        <time>2018-04-16T16:11:33Z</time>
      </trkpt>
      <trkpt lat="38.53575" lon="14.96719">
        <ele>3.02</ele>
        <time>2018-04-16T16:11:45Z</time>
      </trkpt>
      <trkpt lat="38.53599" lon="14.96707">
        <ele>2.54</ele>
        <time>2018-04-16T16:11:52Z</time>
      </trkpt>
      <trkpt lat="38.5363" lon="14.96689">
        <ele>2.06</ele>
        <time>2018-04-16T16:12:01Z</time>
      </trkpt>
      <trkpt lat="38.53676" lon="14.96667">
        <ele>1.58</ele>
        <time>2018-04-16T16:12:14Z</time>
      </trkpt>
      <trkpt lat="38.53711" lon="14.96636">
        <ele>2.06</ele>
        <time>2018-04-16T16:12:27Z</time>
      </trkpt>
      <trkpt lat="38.53756" lon="14.96599">
        <ele>2.54</ele>
        <time>2018-04-16T16:12:43Z</time>
      </trkpt>
      <trkpt lat="38.53788" lon="14.9657">
        <ele>3.02</ele>
        <time>2018-04-16T16:12:56Z</time>
      </trkpt>
      <trkpt lat="38.53825" lon="14.96537">
        <ele>2.54</ele>
        <time>2018-04-16T16:13:11Z</time>
      </trkpt>
      <trkpt lat="38.53864" lon="14.96508">
        <ele>2.06</ele>
        <time>2018-04-16T16:13:24Z</time>
      </trkpt>
      <trkpt lat="38.53896" lon="14.96483">
        <ele>2.54</ele>
        <time>2018-04-16T16:13:35Z</time>
      </trkpt>
      <trkpt lat="38.53934" lon="14.96452">
        <ele>3.02</ele>
        <time>2018-04-16T16:13:48Z</time>
      </trkpt>
      <trkpt lat="38.53977" lon="14.96423">
        <ele>3.02</ele>
        <time>2018-04-16T16:14:01Z</time>
      </trkpt>
      <trkpt lat="38.54009" lon="14.96405">
        <ele>2.54</ele>
        <time>2018-04-16T16:14:10Z</time>
      </trkpt>
      <trkpt lat="38.54022" lon="14.96396">
        <ele>2.54</ele>
        <time>2018-04-16T16:14:14Z</time>
      </trkpt>
      <trkpt lat="38.54075" lon="14.96361">
        <ele>2.54</ele>
        <time>2018-04-16T16:14:30Z</time>
      </trkpt>
      <trkpt lat="38.54114" lon="14.9634">
        <ele>2.06</ele>
        <time>2018-04-16T16:14:41Z</time>
      </trkpt>
      <trkpt lat="38.54148" lon="14.9631">
        <ele>3.02</ele>
        <time>2018-04-16T16:14:53Z</time>
      </trkpt>
      <trkpt lat="38.5418" lon="14.96281">
        <ele>3.5</ele>
        <time>2018-04-16T16:15:04Z</time>
      </trkpt>
      <trkpt lat="38.54216" lon="14.96247">
        <ele>2.54</ele>
        <time>2018-04-16T16:15:16Z</time>
      </trkpt>
      <trkpt lat="38.54259" lon="14.9621">
        <ele>2.54</ele>
        <time>2018-04-16T16:15:30Z</time>
      </trkpt>
      <trkpt lat="38.54291" lon="14.9618">
        <ele>2.54</ele>
        <time>2018-04-16T16:15:41Z</time>
      </trkpt>
      <trkpt lat="38.54329" lon="14.96144">
        <ele>3.02</ele>
        <time>2018-04-16T16:15:54Z</time>
      </trkpt>
      <trkpt lat="38.54358" lon="14.96107">
        <ele>2.54</ele>
        <time>2018-04-16T16:16:06Z</time>
      </trkpt>
      <trkpt lat="38.54388" lon="14.96072">
        <ele>3.02</ele>
        <time>2018-04-16T16:16:18Z</time>
      </trkpt>
      <trkpt lat="38.54418" lon="14.96035">
        <ele>3.5</ele>
        <time>2018-04-16T16:16:30Z</time>
      </trkpt>
      <trkpt lat="38.54454" lon="14.95996">
        <ele>2.54</ele>
        <time>2018-04-16T16:16:43Z</time>
      </trkpt>
      <trkpt lat="38.54489" lon="14.95953">
        <ele>3.02</ele>
        <time>2018-04-16T16:16:57Z</time>
      </trkpt>
      <trkpt lat="38.54529" lon="14.95913">
        <ele>2.06</ele>
        <time>2018-04-16T16:17:11Z</time>
      </trkpt>
      <trkpt lat="38.5456" lon="14.95883">
        <ele>2.54</ele>
        <time>2018-04-16T16:17:22Z</time>
      </trkpt>
      <trkpt lat="38.54585" lon="14.95848">
        <ele>2.54</ele>
        <time>2018-04-16T16:17:33Z</time>
      </trkpt>
      <trkpt lat="38.54618" lon="14.95802">
        <ele>2.54</ele>
        <time>2018-04-16T16:17:47Z</time>
      </trkpt>
      <trkpt lat="38.54641" lon="14.95759">
        <ele>3.5</ele>
        <time>2018-04-16T16:17:59Z</time>
      </trkpt>
      <trkpt lat="38.54667" lon="14.95715">
        <ele>3.98</ele>
        <time>2018-04-16T16:18:12Z</time>
      </trkpt>
      <trkpt lat="38.54694" lon="14.95671">
        <ele>3.02</ele>
        <time>2018-04-16T16:18:25Z</time>
      </trkpt>
      <trkpt lat="38.54724" lon="14.9562">
        <ele>2.54</ele>
        <time>2018-04-16T16:18:40Z</time>
      </trkpt>
      <trkpt lat="38.54742" lon="14.95581">
        <ele>2.54</ele>
        <time>2018-04-16T16:18:51Z</time>
      </trkpt>
      <trkpt lat="38.54764" lon="14.95539">
        <ele>3.02</ele>
        <time>2018-04-16T16:19:03Z</time>
      </trkpt>
      <trkpt lat="38.54793" lon="14.95489">
        <ele>3.02</ele>
        <time>2018-04-16T16:19:17Z</time>
      </trkpt>
      <trkpt lat="38.54817" lon="14.95448">
        <ele>2.54</ele>
        <time>2018-04-16T16:19:29Z</time>
      </trkpt>
      <trkpt lat="38.54847" lon="14.95398">
        <ele>1.58</ele>
        <time>2018-04-16T16:19:43Z</time>
      </trkpt>
      <trkpt lat="38.54869" lon="14.95352">
        <ele>2.06</ele>
        <time>2018-04-16T16:19:56Z</time>
      </trkpt>
      <trkpt lat="38.54883" lon="14.95313">
        <ele>3.5</ele>
        <time>2018-04-16T16:20:08Z</time>
      </trkpt>
      <trkpt lat="38.54901" lon="14.95277">
        <ele>3.98</ele>
        <time>2018-04-16T16:20:19Z</time>
      </trkpt>
      <trkpt lat="38.54925" lon="14.95234">
        <ele>4.94</ele>
        <time>2018-04-16T16:20:32Z</time>
      </trkpt>
      <trkpt lat="38.54955" lon="14.95181">
        <ele>6.39</ele>
        <time>2018-04-16T16:20:49Z</time>
      </trkpt>
      <trkpt lat="38.5498" lon="14.95138">
        <ele>5.91</ele>
        <time>2018-04-16T16:21:03Z</time>
      </trkpt>
      <trkpt lat="38.55008" lon="14.95084">
        <ele>4.94</ele>
        <time>2018-04-16T16:21:20Z</time>
      </trkpt>
      <trkpt lat="38.55025" lon="14.95042">
        <ele>4.46</ele>
        <time>2018-04-16T16:21:33Z</time>
      </trkpt>
      <trkpt lat="38.55045" lon="14.94992">
        <ele>4.94</ele>
        <time>2018-04-16T16:21:48Z</time>
      </trkpt>
      <trkpt lat="38.55061" lon="14.94952">
        <ele>4.94</ele>
        <time>2018-04-16T16:22:00Z</time>
      </trkpt>
      <trkpt lat="38.55079" lon="14.94903">
        <ele>5.42</ele>
        <time>2018-04-16T16:22:14Z</time>
      </trkpt>
      <trkpt lat="38.55095" lon="14.94854">
        <ele>4.94</ele>
        <time>2018-04-16T16:22:28Z</time>
      </trkpt>
      <trkpt lat="38.55112" lon="14.94809">
        <ele>4.94</ele>
        <time>2018-04-16T16:22:41Z</time>
      </trkpt>
      <trkpt lat="38.55128" lon="14.94759">
        <ele>5.91</ele>
        <time>2018-04-16T16:22:55Z</time>
      </trkpt>
      <trkpt lat="38.55142" lon="14.94714">
        <ele>5.91</ele>
        <time>2018-04-16T16:23:08Z</time>
      </trkpt>
      <trkpt lat="38.55159" lon="14.94665">
        <ele>6.39</ele>
        <time>2018-04-16T16:23:22Z</time>
      </trkpt>
      <trkpt lat="38.55177" lon="14.94613">
        <ele>6.39</ele>
        <time>2018-04-16T16:23:37Z</time>
      </trkpt>
      <trkpt lat="38.55201" lon="14.94556">
        <ele>6.87</ele>
        <time>2018-04-16T16:23:53Z</time>
      </trkpt>
      <trkpt lat="38.55216" lon="14.94513">
        <ele>6.39</ele>
        <time>2018-04-16T16:24:05Z</time>
      </trkpt>
      <trkpt lat="38.55238" lon="14.94458">
        <ele>4.94</ele>
        <time>2018-04-16T16:24:20Z</time>
      </trkpt>
      <trkpt lat="38.55255" lon="14.94408">
        <ele>4.46</ele>
        <time>2018-04-16T16:24:34Z</time>
      </trkpt>
      <trkpt lat="38.55272" lon="14.94344">
        <ele>4.94</ele>
        <time>2018-04-16T16:24:51Z</time>
      </trkpt>
      <trkpt lat="38.55288" lon="14.94292">
        <ele>4.46</ele>
        <time>2018-04-16T16:25:05Z</time>
      </trkpt>
      <trkpt lat="38.55305" lon="14.94239">
        <ele>3.98</ele>
        <time>2018-04-16T16:25:19Z</time>
      </trkpt>
      <trkpt lat="38.55325" lon="14.94185">
        <ele>3.5</ele>
        <time>2018-04-16T16:25:33Z</time>
      </trkpt>
      <trkpt lat="38.55344" lon="14.94141">
        <ele>4.94</ele>
        <time>2018-04-16T16:25:45Z</time>
      </trkpt>
      <trkpt lat="38.55359" lon="14.94088">
        <ele>4.94</ele>
        <time>2018-04-16T16:25:59Z</time>
      </trkpt>
      <trkpt lat="38.55379" lon="14.94045">
        <ele>5.91</ele>
        <time>2018-04-16T16:26:11Z</time>
      </trkpt>
      <trkpt lat="38.55396" lon="14.93997">
        <ele>5.91</ele>
        <time>2018-04-16T16:26:24Z</time>
      </trkpt>
      <trkpt lat="38.55413" lon="14.93945">
        <ele>5.42</ele>
        <time>2018-04-16T16:26:38Z</time>
      </trkpt>
      <trkpt lat="38.55428" lon="14.93896">
        <ele>5.42</ele>
        <time>2018-04-16T16:26:51Z</time>
      </trkpt>
      <trkpt lat="38.55445" lon="14.9385">
        <ele>5.91</ele>
        <time>2018-04-16T16:27:04Z</time>
      </trkpt>
      <trkpt lat="38.55467" lon="14.93796">
        <ele>6.39</ele>
        <time>2018-04-16T16:27:20Z</time>
      </trkpt>
      <trkpt lat="38.55485" lon="14.93745">
        <ele>5.91</ele>
        <time>2018-04-16T16:27:34Z</time>
      </trkpt>
      <trkpt lat="38.55495" lon="14.93711">
        <ele>5.42</ele>
        <time>2018-04-16T16:27:44Z</time>
      </trkpt>
      <trkpt lat="38.55507" lon="14.93673">
        <ele>4.94</ele>
        <time>2018-04-16T16:27:56Z</time>
      </trkpt>
      <trkpt lat="38.55518" lon="14.93629">
        <ele>4.46</ele>
        <time>2018-04-16T16:28:11Z</time>
      </trkpt>
      <trkpt lat="38.55533" lon="14.93589">
        <ele>4.94</ele>
        <time>2018-04-16T16:28:24Z</time>
      </trkpt>
      <trkpt lat="38.55552" lon="14.93534">
        <ele>5.42</ele>
        <time>2018-04-16T16:28:41Z</time>
      </trkpt>
      <trkpt lat="38.55567" lon="14.9349">
        <ele>5.91</ele>
        <time>2018-04-16T16:28:54Z</time>
      </trkpt>
      <trkpt lat="38.55583" lon="14.93439">
        <ele>5.42</ele>
        <time>2018-04-16T16:29:09Z</time>
      </trkpt>
      <trkpt lat="38.55608" lon="14.93388">
        <ele>6.87</ele>
        <time>2018-04-16T16:29:24Z</time>
      </trkpt>
      <trkpt lat="38.55627" lon="14.93344">
        <ele>6.87</ele>
        <time>2018-04-16T16:29:37Z</time>
      </trkpt>
      <trkpt lat="38.55639" lon="14.93303">
        <ele>5.91</ele>
        <time>2018-04-16T16:29:49Z</time>
      </trkpt>
      <trkpt lat="38.55652" lon="14.9326">
        <ele>5.42</ele>
        <time>2018-04-16T16:30:02Z</time>
      </trkpt>
      <trkpt lat="38.55665" lon="14.93224">
        <ele>5.42</ele>
        <time>2018-04-16T16:30:14Z</time>
      </trkpt>
      <trkpt lat="38.55675" lon="14.93188">
        <ele>4.94</ele>
        <time>2018-04-16T16:30:26Z</time>
      </trkpt>
      <trkpt lat="38.5569" lon="14.93145">
        <ele>5.42</ele>
        <time>2018-04-16T16:30:40Z</time>
      </trkpt>
      <trkpt lat="38.55708" lon="14.93101">
        <ele>5.42</ele>
        <time>2018-04-16T16:30:54Z</time>
      </trkpt>
      <trkpt lat="38.5571" lon="14.93098">
        <ele>5.91</ele>
        <time>2018-04-16T16:30:55Z</time>
      </trkpt>
      <trkpt lat="38.55724" lon="14.93055">
        <ele>6.39</ele>
        <time>2018-04-16T16:31:09Z</time>
      </trkpt>
      <trkpt lat="38.55741" lon="14.93014">
        <ele>4.94</ele>
        <time>2018-04-16T16:31:22Z</time>
      </trkpt>
      <trkpt lat="38.55756" lon="14.92971">
        <ele>4.46</ele>
        <time>2018-04-16T16:31:35Z</time>
      </trkpt>
      <trkpt lat="38.55774" lon="14.92933">
        <ele>5.42</ele>
        <time>2018-04-16T16:31:47Z</time>
      </trkpt>
      <trkpt lat="38.55787" lon="14.92893">
        <ele>5.91</ele>
        <time>2018-04-16T16:31:59Z</time>
      </trkpt>
      <trkpt lat="38.55807" lon="14.92851">
        <ele>5.42</ele>
        <time>2018-04-16T16:32:12Z</time>
      </trkpt>
      <trkpt lat="38.55825" lon="14.92802">
        <ele>5.42</ele>
        <time>2018-04-16T16:32:26Z</time>
      </trkpt>
      <trkpt lat="38.55836" lon="14.92758">
        <ele>5.42</ele>
        <time>2018-04-16T16:32:39Z</time>
      </trkpt>
      <trkpt lat="38.55847" lon="14.92715">
        <ele>4.94</ele>
        <time>2018-04-16T16:32:52Z</time>
      </trkpt>
      <trkpt lat="38.5586" lon="14.92666">
        <ele>4.94</ele>
        <time>2018-04-16T16:33:07Z</time>
      </trkpt>
      <trkpt lat="38.5587" lon="14.9263">
        <ele>4.94</ele>
        <time>2018-04-16T16:33:18Z</time>
      </trkpt>
      <trkpt lat="38.55874" lon="14.92612">
        <ele>4.46</ele>
        <time>2018-04-16T16:33:24Z</time>
      </trkpt>
      <trkpt lat="38.55878" lon="14.926">
        <ele>4.46</ele>
        <time>2018-04-16T16:33:28Z</time>
      </trkpt>
      <trkpt lat="38.55881" lon="14.92584">
        <ele>3.02</ele>
        <time>2018-04-16T16:33:33Z</time>
      </trkpt>
      <trkpt lat="38.55897" lon="14.92534">
        <ele>3.02</ele>
        <time>2018-04-16T16:33:49Z</time>
      </trkpt>
      <trkpt lat="38.55913" lon="14.92495">
        <ele>4.94</ele>
        <time>2018-04-16T16:34:01Z</time>
      </trkpt>
      <trkpt lat="38.55932" lon="14.92445">
        <ele>5.42</ele>
        <time>2018-04-16T16:34:16Z</time>
      </trkpt>
      <trkpt lat="38.55948" lon="14.924">
        <ele>5.42</ele>
        <time>2018-04-16T16:34:29Z</time>
      </trkpt>
      <trkpt lat="38.55961" lon="14.92351">
        <ele>4.46</ele>
        <time>2018-04-16T16:34:43Z</time>
      </trkpt>
      <trkpt lat="38.55963" lon="14.92331">
        <ele>3.98</ele>
        <time>2018-04-16T16:34:49Z</time>
      </trkpt>
      <trkpt lat="38.55977" lon="14.9229">
        <ele>3.98</ele>
        <time>2018-04-16T16:35:01Z</time>
      </trkpt>
      <trkpt lat="38.55988" lon="14.92252">
        <ele>4.46</ele>
        <time>2018-04-16T16:35:12Z</time>
      </trkpt>
      <trkpt lat="38.56009" lon="14.92205">
        <ele>4.94</ele>
        <time>2018-04-16T16:35:26Z</time>
      </trkpt>
      <trkpt lat="38.56026" lon="14.92171">
        <ele>5.91</ele>
        <time>2018-04-16T16:35:37Z</time>
      </trkpt>
      <trkpt lat="38.56035" lon="14.92133">
        <ele>5.91</ele>
        <time>2018-04-16T16:35:48Z</time>
      </trkpt>
      <trkpt lat="38.56039" lon="14.92101">
        <ele>5.42</ele>
        <time>2018-04-16T16:35:58Z</time>
      </trkpt>
      <trkpt lat="38.56047" lon="14.92083">
        <ele>5.42</ele>
        <time>2018-04-16T16:36:04Z</time>
      </trkpt>
      <trkpt lat="38.56049" lon="14.9207">
        <ele>4.94</ele>
        <time>2018-04-16T16:36:08Z</time>
      </trkpt>
      <trkpt lat="38.56059" lon="14.92031">
        <ele>4.46</ele>
        <time>2018-04-16T16:36:20Z</time>
      </trkpt>
      <trkpt lat="38.56074" lon="14.91994">
        <ele>4.46</ele>
        <time>2018-04-16T16:36:32Z</time>
      </trkpt>
      <trkpt lat="38.56089" lon="14.91949">
        <ele>4.94</ele>
        <time>2018-04-16T16:36:45Z</time>
      </trkpt>
      <trkpt lat="38.56107" lon="14.91909">
        <ele>4.94</ele>
        <time>2018-04-16T16:36:57Z</time>
      </trkpt>
      <trkpt lat="38.56115" lon="14.91869">
        <ele>3.5</ele>
        <time>2018-04-16T16:37:09Z</time>
      </trkpt>
      <trkpt lat="38.56127" lon="14.91822">
        <ele>3.5</ele>
        <time>2018-04-16T16:37:23Z</time>
      </trkpt>
      <trkpt lat="38.56138" lon="14.91775">
        <ele>3.98</ele>
        <time>2018-04-16T16:37:36Z</time>
      </trkpt>
      <trkpt lat="38.56149" lon="14.91723">
        <ele>3.98</ele>
        <time>2018-04-16T16:37:50Z</time>
      </trkpt>
      <trkpt lat="38.56156" lon="14.91671">
        <ele>3.5</ele>
        <time>2018-04-16T16:38:04Z</time>
      </trkpt>
      <trkpt lat="38.56166" lon="14.91623">
        <ele>3.5</ele>
        <time>2018-04-16T16:38:17Z</time>
      </trkpt>
      <trkpt lat="38.56181" lon="14.91568">
        <ele>3.02</ele>
        <time>2018-04-16T16:38:32Z</time>
      </trkpt>
      <trkpt lat="38.56188" lon="14.91529">
        <ele>3.02</ele>
        <time>2018-04-16T16:38:43Z</time>
      </trkpt>
      <trkpt lat="38.56193" lon="14.91492">
        <ele>2.54</ele>
        <time>2018-04-16T16:38:53Z</time>
      </trkpt>
      <trkpt lat="38.56197" lon="14.91446">
        <ele>2.06</ele>
        <time>2018-04-16T16:39:06Z</time>
      </trkpt>
      <trkpt lat="38.56203" lon="14.91396">
        <ele>2.06</ele>
        <time>2018-04-16T16:39:19Z</time>
      </trkpt>
      <trkpt lat="38.56214" lon="14.91348">
        <ele>3.5</ele>
        <time>2018-04-16T16:39:32Z</time>
      </trkpt>
      <trkpt lat="38.56221" lon="14.91296">
        <ele>2.54</ele>
        <time>2018-04-16T16:39:46Z</time>
      </trkpt>
      <trkpt lat="38.56227" lon="14.91257">
        <ele>2.54</ele>
        <time>2018-04-16T16:39:57Z</time>
      </trkpt>
      <trkpt lat="38.56234" lon="14.91206">
        <ele>2.54</ele>
        <time>2018-04-16T16:40:11Z</time>
      </trkpt>
      <trkpt lat="38.56245" lon="14.91154">
        <ele>1.58</ele>
        <time>2018-04-16T16:40:25Z</time>
      </trkpt>
      <trkpt lat="38.56255" lon="14.9111">
        <ele>1.58</ele>
        <time>2018-04-16T16:40:37Z</time>
      </trkpt>
      <trkpt lat="38.56264" lon="14.91061">
        <ele>2.54</ele>
        <time>2018-04-16T16:40:51Z</time>
      </trkpt>
      <trkpt lat="38.56276" lon="14.91026">
        <ele>2.54</ele>
        <time>2018-04-16T16:41:01Z</time>
      </trkpt>
      <trkpt lat="38.56283" lon="14.90984">
        <ele>2.54</ele>
        <time>2018-04-16T16:41:12Z</time>
      </trkpt>
      <trkpt lat="38.56294" lon="14.90943">
        <ele>2.54</ele>
        <time>2018-04-16T16:41:23Z</time>
      </trkpt>
      <trkpt lat="38.56306" lon="14.90898">
        <ele>2.06</ele>
        <time>2018-04-16T16:41:35Z</time>
      </trkpt>
      <trkpt lat="38.56313" lon="14.90845">
        <ele>3.02</ele>
        <time>2018-04-16T16:41:49Z</time>
      </trkpt>
      <trkpt lat="38.56321" lon="14.90794">
        <ele>3.02</ele>
        <time>2018-04-16T16:42:02Z</time>
      </trkpt>
      <trkpt lat="38.56327" lon="14.90747">
        <ele>2.06</ele>
        <time>2018-04-16T16:42:14Z</time>
      </trkpt>
      <trkpt lat="38.56337" lon="14.90688">
        <ele>2.06</ele>
        <time>2018-04-16T16:42:29Z</time>
      </trkpt>
      <trkpt lat="38.56344" lon="14.90646">
        <ele>1.58</ele>
        <time>2018-04-16T16:42:40Z</time>
      </trkpt>
      <trkpt lat="38.56347" lon="14.90591">
        <ele>1.1</ele>
        <time>2018-04-16T16:42:54Z</time>
      </trkpt>
      <trkpt lat="38.56352" lon="14.9055">
        <ele>1.58</ele>
        <time>2018-04-16T16:43:04Z</time>
      </trkpt>
      <trkpt lat="38.56357" lon="14.9051">
        <ele>1.58</ele>
        <time>2018-04-16T16:43:14Z</time>
      </trkpt>
      <trkpt lat="38.56362" lon="14.90469">
        <ele>1.58</ele>
        <time>2018-04-16T16:43:24Z</time>
      </trkpt>
      <trkpt lat="38.56362" lon="14.9042">
        <ele>2.54</ele>
        <time>2018-04-16T16:43:36Z</time>
      </trkpt>
      <trkpt lat="38.56363" lon="14.90374">
        <ele>2.54</ele>
        <time>2018-04-16T16:43:47Z</time>
      </trkpt>
      <trkpt lat="38.5637" lon="14.90324">
        <ele>2.54</ele>
        <time>2018-04-16T16:43:59Z</time>
      </trkpt>
      <trkpt lat="38.56372" lon="14.90276">
        <ele>3.02</ele>
        <time>2018-04-16T16:44:11Z</time>
      </trkpt>
      <trkpt lat="38.56375" lon="14.90227">
        <ele>2.06</ele>
        <time>2018-04-16T16:44:23Z</time>
      </trkpt>
      <trkpt lat="38.56378" lon="14.90191">
        <ele>2.06</ele>
        <time>2018-04-16T16:44:32Z</time>
      </trkpt>
      <trkpt lat="38.56375" lon="14.90142">
        <ele>2.54</ele>
        <time>2018-04-16T16:44:45Z</time>
      </trkpt>
      <trkpt lat="38.56374" lon="14.90084">
        <ele>2.54</ele>
        <time>2018-04-16T16:44:59Z</time>
      </trkpt>
      <trkpt lat="38.56372" lon="14.90014">
        <ele>3.02</ele>
        <time>2018-04-16T16:45:16Z</time>
      </trkpt>
      <trkpt lat="38.56368" lon="14.89945">
        <ele>2.54</ele>
        <time>2018-04-16T16:45:33Z</time>
      </trkpt>
      <trkpt lat="38.56364" lon="14.89887">
        <ele>3.02</ele>
        <time>2018-04-16T16:45:47Z</time>
      </trkpt>
      <trkpt lat="38.56358" lon="14.89829">
        <ele>2.54</ele>
        <time>2018-04-16T16:46:01Z</time>
      </trkpt>
      <trkpt lat="38.56352" lon="14.89773">
        <ele>2.54</ele>
        <time>2018-04-16T16:46:16Z</time>
      </trkpt>
      <trkpt lat="38.56342" lon="14.89719">
        <ele>2.54</ele>
        <time>2018-04-16T16:46:34Z</time>
      </trkpt>
      <trkpt lat="38.56347" lon="14.89676">
        <ele>2.54</ele>
        <time>2018-04-16T16:46:51Z</time>
      </trkpt>
      <trkpt lat="38.56357" lon="14.89637">
        <ele>3.5</ele>
        <time>2018-04-16T16:47:04Z</time>
      </trkpt>
      <trkpt lat="38.56367" lon="14.89593">
        <ele>4.46</ele>
        <time>2018-04-16T16:47:18Z</time>
      </trkpt>
      <trkpt lat="38.56371" lon="14.89556">
        <ele>3.5</ele>
        <time>2018-04-16T16:47:33Z</time>
      </trkpt>
      <trkpt lat="38.56378" lon="14.89527">
        <ele>2.54</ele>
        <time>2018-04-16T16:47:49Z</time>
      </trkpt>
      <trkpt lat="38.56379" lon="14.89521">
        <ele>2.54</ele>
        <time>2018-04-16T16:47:53Z</time>
      </trkpt>
      <trkpt lat="38.56382" lon="14.89508">
        <ele>3.02</ele>
        <time>2018-04-16T16:48:01Z</time>
      </trkpt>
      <trkpt lat="38.56383" lon="14.89486">
        <ele>3.5</ele>
        <time>2018-04-16T16:48:18Z</time>
      </trkpt>
      <trkpt lat="38.56386" lon="14.89463">
        <ele>3.98</ele>
        <time>2018-04-16T16:48:37Z</time>
      </trkpt>
      <trkpt lat="38.56387" lon="14.89452">
        <ele>3.5</ele>
        <time>2018-04-16T16:48:46Z</time>
      </trkpt>
      <trkpt lat="38.56388" lon="14.89436">
        <ele>2.06</ele>
        <time>2018-04-16T16:49:00Z</time>
      </trkpt>
      <trkpt lat="38.56386" lon="14.89424">
        <ele>2.54</ele>
        <time>2018-04-16T16:49:14Z</time>
      </trkpt>
      <trkpt lat="38.56384" lon="14.89412">
        <ele>3.02</ele>
        <time>2018-04-16T16:49:30Z</time>
      </trkpt>
      <trkpt lat="38.56384" lon="14.89397">
        <ele>3.5</ele>
        <time>2018-04-16T16:49:46Z</time>
      </trkpt>
      <trkpt lat="38.56384" lon="14.89394">
        <ele>3.5</ele>
        <time>2018-04-16T16:49:48Z</time>
      </trkpt>
      <trkpt lat="38.56373" lon="14.89361">
        <ele>3.02</ele>
        <time>2018-04-16T16:50:04Z</time>
      </trkpt>
      <trkpt lat="38.56351" lon="14.8932">
        <ele>3.02</ele>
        <time>2018-04-16T16:50:21Z</time>
      </trkpt>
      <trkpt lat="38.56331" lon="14.89282">
        <ele>3.5</ele>
        <time>2018-04-16T16:50:36Z</time>
      </trkpt>
      <trkpt lat="38.56303" lon="14.89242">
        <ele>3.5</ele>
        <time>2018-04-16T16:50:53Z</time>
      </trkpt>
      <trkpt lat="38.56275" lon="14.89201">
        <ele>3.98</ele>
        <time>2018-04-16T16:51:10Z</time>
      </trkpt>
      <trkpt lat="38.56241" lon="14.89178">
        <ele>3.98</ele>
        <time>2018-04-16T16:51:26Z</time>
      </trkpt>
      <trkpt lat="38.56217" lon="14.89142">
        <ele>3.02</ele>
        <time>2018-04-16T16:51:41Z</time>
      </trkpt>
      <trkpt lat="38.56192" lon="14.89096">
        <ele>2.54</ele>
        <time>2018-04-16T16:51:59Z</time>
      </trkpt>
      <trkpt lat="38.56168" lon="14.8905">
        <ele>3.02</ele>
        <time>2018-04-16T16:52:17Z</time>
      </trkpt>
      <trkpt lat="38.56146" lon="14.89016">
        <ele>3.5</ele>
        <time>2018-04-16T16:52:31Z</time>
      </trkpt>
      <trkpt lat="38.56118" lon="14.88977">
        <ele>3.5</ele>
        <time>2018-04-16T16:52:48Z</time>
      </trkpt>
      <trkpt lat="38.56092" lon="14.8894">
        <ele>3.02</ele>
        <time>2018-04-16T16:53:04Z</time>
      </trkpt>
      <trkpt lat="38.56077" lon="14.8891">
        <ele>2.06</ele>
        <time>2018-04-16T16:53:16Z</time>
      </trkpt>
      <trkpt lat="38.56061" lon="14.88883">
        <ele>2.54</ele>
        <time>2018-04-16T16:53:27Z</time>
      </trkpt>
      <trkpt lat="38.5604" lon="14.88848">
        <ele>2.54</ele>
        <time>2018-04-16T16:53:41Z</time>
      </trkpt>
      <trkpt lat="38.56019" lon="14.88813">
        <ele>3.02</ele>
        <time>2018-04-16T16:53:55Z</time>
      </trkpt>
      <trkpt lat="38.55996" lon="14.88773">
        <ele>3.02</ele>
        <time>2018-04-16T16:54:10Z</time>
      </trkpt>
      <trkpt lat="38.55976" lon="14.88735">
        <ele>3.02</ele>
        <time>2018-04-16T16:54:23Z</time>
      </trkpt>
      <trkpt lat="38.55952" lon="14.88687">
        <ele>2.54</ele>
        <time>2018-04-16T16:54:39Z</time>
      </trkpt>
      <trkpt lat="38.55933" lon="14.88643">
        <ele>2.54</ele>
        <time>2018-04-16T16:54:53Z</time>
      </trkpt>
      <trkpt lat="38.5591" lon="14.88592">
        <ele>2.54</ele>
        <time>2018-04-16T16:55:09Z</time>
      </trkpt>
      <trkpt lat="38.55885" lon="14.8853">
        <ele>2.54</ele>
        <time>2018-04-16T16:55:28Z</time>
      </trkpt>
      <trkpt lat="38.55858" lon="14.8847">
        <ele>2.54</ele>
        <time>2018-04-16T16:55:47Z</time>
      </trkpt>
      <trkpt lat="38.55834" lon="14.88419">
        <ele>2.54</ele>
        <time>2018-04-16T16:56:03Z</time>
      </trkpt>
      <trkpt lat="38.55808" lon="14.88371">
        <ele>2.54</ele>
        <time>2018-04-16T16:56:19Z</time>
      </trkpt>
      <trkpt lat="38.55785" lon="14.8833">
        <ele>3.98</ele>
        <time>2018-04-16T16:56:33Z</time>
      </trkpt>
      <trkpt lat="38.55755" lon="14.88276">
        <ele>3.98</ele>
        <time>2018-04-16T16:56:51Z</time>
      </trkpt>
      <trkpt lat="38.55729" lon="14.8822">
        <ele>4.46</ele>
        <time>2018-04-16T16:57:09Z</time>
      </trkpt>
      <trkpt lat="38.55702" lon="14.88165">
        <ele>4.94</ele>
        <time>2018-04-16T16:57:27Z</time>
      </trkpt>
      <trkpt lat="38.55672" lon="14.88098">
        <ele>3.02</ele>
        <time>2018-04-16T16:57:48Z</time>
      </trkpt>
      <trkpt lat="38.55646" lon="14.88037">
        <ele>3.02</ele>
        <time>2018-04-16T16:58:07Z</time>
      </trkpt>
      <trkpt lat="38.55616" lon="14.8797">
        <ele>3.02</ele>
        <time>2018-04-16T16:58:28Z</time>
      </trkpt>
      <trkpt lat="38.55592" lon="14.8791">
        <ele>3.5</ele>
        <time>2018-04-16T16:58:46Z</time>
      </trkpt>
      <trkpt lat="38.55567" lon="14.87847">
        <ele>3.5</ele>
        <time>2018-04-16T16:59:05Z</time>
      </trkpt>
      <trkpt lat="38.55541" lon="14.87783">
        <ele>2.54</ele>
        <time>2018-04-16T16:59:24Z</time>
      </trkpt>
      <trkpt lat="38.55515" lon="14.8772">
        <ele>3.5</ele>
        <time>2018-04-16T16:59:43Z</time>
      </trkpt>
      <trkpt lat="38.55488" lon="14.87652">
        <ele>3.02</ele>
        <time>2018-04-16T17:00:03Z</time>
      </trkpt>
      <trkpt lat="38.55456" lon="14.87575">
        <ele>3.02</ele>
        <time>2018-04-16T17:00:26Z</time>
      </trkpt>
      <trkpt lat="38.55431" lon="14.87514">
        <ele>4.46</ele>
        <time>2018-04-16T17:00:44Z</time>
      </trkpt>
      <trkpt lat="38.55413" lon="14.87463">
        <ele>4.94</ele>
        <time>2018-04-16T17:01:00Z</time>
      </trkpt>
      <trkpt lat="38.55401" lon="14.87403">
        <ele>4.46</ele>
        <time>2018-04-16T17:01:19Z</time>
      </trkpt>
      <trkpt lat="38.55392" lon="14.87355">
        <ele>4.94</ele>
        <time>2018-04-16T17:01:35Z</time>
      </trkpt>
      <trkpt lat="38.55386" lon="14.87284">
        <ele>5.42</ele>
        <time>2018-04-16T17:02:00Z</time>
      </trkpt>
      <trkpt lat="38.55387" lon="14.87242">
        <ele>6.87</ele>
        <time>2018-04-16T17:02:19Z</time>
      </trkpt>
      <trkpt lat="38.55391" lon="14.87205">
        <ele>5.42</ele>
        <time>2018-04-16T17:02:39Z</time>
      </trkpt>
      <trkpt lat="38.55399" lon="14.87168">
        <ele>3.98</ele>
        <time>2018-04-16T17:03:03Z</time>
      </trkpt>
      <trkpt lat="38.55421" lon="14.87146">
        <ele>2.54</ele>
        <time>2018-04-16T17:03:24Z</time>
      </trkpt>
      <trkpt lat="38.55452" lon="14.87141">
        <ele>3.02</ele>
        <time>2018-04-16T17:03:45Z</time>
      </trkpt>
      <trkpt lat="38.55485" lon="14.8714">
        <ele>3.02</ele>
        <time>2018-04-16T17:04:07Z</time>
      </trkpt>
      <trkpt lat="38.55516" lon="14.87147">
        <ele>3.5</ele>
        <time>2018-04-16T17:04:31Z</time>
      </trkpt>
      <trkpt lat="38.55542" lon="14.87163">
        <ele>3.02</ele>
        <time>2018-04-16T17:04:54Z</time>
      </trkpt>
      <trkpt lat="38.55573" lon="14.87176">
        <ele>3.98</ele>
        <time>2018-04-16T17:05:24Z</time>
      </trkpt>
      <trkpt lat="38.5559" lon="14.87178">
        <ele>3.02</ele>
        <time>2018-04-16T17:05:53Z</time>
      </trkpt>
      <trkpt lat="38.55591" lon="14.87178">
        <ele>2.54</ele>
        <time>2018-04-16T17:06:18Z</time>
      </trkpt>
      <trkpt lat="38.55591" lon="14.87181">
        <ele>1.58</ele>
        <time>2018-04-16T17:06:49Z</time>
      </trkpt>
      <trkpt lat="38.5559" lon="14.87184">
        <ele>1.58</ele>
        <time>2018-04-16T17:07:19Z</time>
      </trkpt>
      <trkpt lat="38.55588" lon="14.87185">
        <ele>1.58</ele>
        <time>2018-04-16T17:07:46Z</time>
      </trkpt>
      <trkpt lat="38.55586" lon="14.87187">
        <ele>1.58</ele>
        <time>2018-04-16T17:08:15Z</time>
      </trkpt>
      <trkpt lat="38.55585" lon="14.872">
        <ele>1.58</ele>
        <time>2018-04-16T17:08:36Z</time>
      </trkpt>
      <trkpt lat="38.55584" lon="14.87206">
        <ele>3.02</ele>
        <time>2018-04-16T17:09:02Z</time>
      </trkpt>
      <trkpt lat="38.55585" lon="14.87206">
        <ele>3.98</ele>
        <time>2018-04-16T17:09:24Z</time>
      </trkpt>
      <trkpt lat="38.55586" lon="14.87206">
        <ele>4.46</ele>
        <time>2018-04-16T17:09:51Z</time>
      </trkpt>
      <trkpt lat="38.55587" lon="14.87207">
        <ele>4.94</ele>
        <time>2018-04-16T17:10:19Z</time>
      </trkpt>
      <trkpt lat="38.55588" lon="14.87208">
        <ele>4.46</ele>
        <time>2018-04-16T17:10:44Z</time>
      </trkpt>
      <trkpt lat="38.55589" lon="14.87208">
        <ele>4.94</ele>
        <time>2018-04-16T17:11:14Z</time>
      </trkpt>
      <trkpt lat="38.55589" lon="14.87208">
        <ele>4.46</ele>
        <time>2018-04-16T17:11:41Z</time>
      </trkpt>
      <trkpt lat="38.5559" lon="14.87208">
        <ele>4.94</ele>
        <time>2018-04-16T17:12:06Z</time>
      </trkpt>
      <trkpt lat="38.55589" lon="14.87208">
        <ele>4.94</ele>
        <time>2018-04-16T17:12:35Z</time>
      </trkpt>
      <trkpt lat="38.55588" lon="14.87208">
        <ele>4.94</ele>
        <time>2018-04-16T17:13:03Z</time>
      </trkpt>
      <trkpt lat="38.55589" lon="14.87208">
        <ele>4.94</ele>
        <time>2018-04-16T17:13:31Z</time>
      </trkpt>
      <trkpt lat="38.55589" lon="14.87207">
        <ele>4.94</ele>
        <time>2018-04-16T17:13:46Z</time>
      </trkpt>
    </trkseg>
  </trk>
  <trk>
    <name><![CDATA[Tracé actuel: 17 AVR 2018 06:48]]></name>
    <trkseg>
      <trkpt lat="38.55618" lon="14.87191">
        <ele>40.99</ele>
        <time>2018-04-17T04:48:21Z</time>
      </trkpt>
      <trkpt lat="38.55611" lon="14.87195">
        <ele>30.42</ele>
        <time>2018-04-17T04:48:36Z</time>
      </trkpt>
      <trkpt lat="38.55605" lon="14.87197">
        <ele>19.36</ele>
        <time>2018-04-17T04:48:50Z</time>
      </trkpt>
      <trkpt lat="38.55603" lon="14.87198">
        <ele>15.52</ele>
        <time>2018-04-17T04:49:02Z</time>
      </trkpt>
      <trkpt lat="38.556" lon="14.872">
        <ele>11.19</ele>
        <time>2018-04-17T04:49:17Z</time>
      </trkpt>
      <trkpt lat="38.55599" lon="14.87202">
        <ele>8.79</ele>
        <time>2018-04-17T04:49:31Z</time>
      </trkpt>
      <trkpt lat="38.55598" lon="14.87202">
        <ele>5.42</ele>
        <time>2018-04-17T04:49:44Z</time>
      </trkpt>
      <trkpt lat="38.55593" lon="14.87203">
        <ele>2.06</ele>
        <time>2018-04-17T04:49:56Z</time>
      </trkpt>
      <trkpt lat="38.55594" lon="14.872">
        <ele>1.58</ele>
        <time>2018-04-17T04:50:08Z</time>
      </trkpt>
      <trkpt lat="38.55595" lon="14.87198">
        <ele>1.1</ele>
        <time>2018-04-17T04:50:11Z</time>
      </trkpt>
      <trkpt lat="38.55594" lon="14.87197">
        <ele>-1.3</ele>
        <time>2018-04-17T04:50:24Z</time>
      </trkpt>
      <trkpt lat="38.55595" lon="14.87194">
        <ele>-2.75</ele>
        <time>2018-04-17T04:50:36Z</time>
      </trkpt>
      <trkpt lat="38.55594" lon="14.87194">
        <ele>-3.71</ele>
        <time>2018-04-17T04:50:53Z</time>
      </trkpt>
      <trkpt lat="38.55594" lon="14.87195">
        <ele>-4.19</ele>
        <time>2018-04-17T04:51:07Z</time>
      </trkpt>
      <trkpt lat="38.55593" lon="14.87195">
        <ele>-4.19</ele>
        <time>2018-04-17T04:51:25Z</time>
      </trkpt>
      <trkpt lat="38.55593" lon="14.87195">
        <ele>-4.19</ele>
        <time>2018-04-17T04:51:38Z</time>
      </trkpt>
      <trkpt lat="38.5559" lon="14.87186">
        <ele>-4.19</ele>
        <time>2018-04-17T04:51:56Z</time>
      </trkpt>
      <trkpt lat="38.55589" lon="14.87185">
        <ele>-4.19</ele>
        <time>2018-04-17T04:51:57Z</time>
      </trkpt>
      <trkpt lat="38.55577" lon="14.87176">
        <ele>-4.67</ele>
        <time>2018-04-17T04:52:16Z</time>
      </trkpt>
      <trkpt lat="38.55572" lon="14.87174">
        <ele>-5.63</ele>
        <time>2018-04-17T04:52:21Z</time>
      </trkpt>
      <trkpt lat="38.5556" lon="14.87165">
        <ele>-5.63</ele>
        <time>2018-04-17T04:52:37Z</time>
      </trkpt>
      <trkpt lat="38.55543" lon="14.87158">
        <ele>-4.67</ele>
        <time>2018-04-17T04:52:53Z</time>
      </trkpt>
      <trkpt lat="38.55526" lon="14.87153">
        <ele>-4.67</ele>
        <time>2018-04-17T04:53:11Z</time>
      </trkpt>
      <trkpt lat="38.55508" lon="14.87146">
        <ele>-3.23</ele>
        <time>2018-04-17T04:53:29Z</time>
      </trkpt>
      <trkpt lat="38.55499" lon="14.87143">
        <ele>-3.71</ele>
        <time>2018-04-17T04:53:38Z</time>
      </trkpt>
      <trkpt lat="38.55479" lon="14.87138">
        <ele>-2.75</ele>
        <time>2018-04-17T04:53:57Z</time>
      </trkpt>
      <trkpt lat="38.55463" lon="14.87135">
        <ele>-2.27</ele>
        <time>2018-04-17T04:54:09Z</time>
      </trkpt>
      <trkpt lat="38.55437" lon="14.87137">
        <ele>-2.27</ele>
        <time>2018-04-17T04:54:30Z</time>
      </trkpt>
      <trkpt lat="38.55417" lon="14.87149">
        <ele>-2.27</ele>
        <time>2018-04-17T04:54:48Z</time>
      </trkpt>
      <trkpt lat="38.55415" lon="14.87179">
        <ele>-1.3</ele>
        <time>2018-04-17T04:55:08Z</time>
      </trkpt>
      <trkpt lat="38.5542" lon="14.8721">
        <ele>-1.79</ele>
        <time>2018-04-17T04:55:28Z</time>
      </trkpt>
      <trkpt lat="38.5543" lon="14.87244">
        <ele>-1.79</ele>
        <time>2018-04-17T04:55:45Z</time>
      </trkpt>
      <trkpt lat="38.55455" lon="14.87292">
        <ele>-2.75</ele>
        <time>2018-04-17T04:56:05Z</time>
      </trkpt>
      <trkpt lat="38.55487" lon="14.8734">
        <ele>-2.75</ele>
        <time>2018-04-17T04:56:26Z</time>
      </trkpt>
      <trkpt lat="38.55511" lon="14.87375">
        <ele>-2.27</ele>
        <time>2018-04-17T04:56:41Z</time>
      </trkpt>
      <trkpt lat="38.5554" lon="14.8743">
        <ele>-2.27</ele>
        <time>2018-04-17T04:57:03Z</time>
      </trkpt>
      <trkpt lat="38.55574" lon="14.87493">
        <ele>-1.79</ele>
        <time>2018-04-17T04:57:26Z</time>
      </trkpt>
      <trkpt lat="38.55602" lon="14.87536">
        <ele>-1.79</ele>
        <time>2018-04-17T04:57:42Z</time>
      </trkpt>
      <trkpt lat="38.55627" lon="14.87588">
        <ele>0.14</ele>
        <time>2018-04-17T04:58:00Z</time>
      </trkpt>
      <trkpt lat="38.55659" lon="14.8765">
        <ele>1.58</ele>
        <time>2018-04-17T04:58:22Z</time>
      </trkpt>
      <trkpt lat="38.5569" lon="14.87713">
        <ele>1.1</ele>
        <time>2018-04-17T04:58:44Z</time>
      </trkpt>
      <trkpt lat="38.55706" lon="14.87753">
        <ele>0.62</ele>
        <time>2018-04-17T04:58:57Z</time>
      </trkpt>
      <trkpt lat="38.55725" lon="14.87789">
        <ele>0.14</ele>
        <time>2018-04-17T04:59:10Z</time>
      </trkpt>
      <trkpt lat="38.55751" lon="14.8784">
        <ele>2.06</ele>
        <time>2018-04-17T04:59:28Z</time>
      </trkpt>
      <trkpt lat="38.55781" lon="14.87897">
        <ele>2.06</ele>
        <time>2018-04-17T04:59:48Z</time>
      </trkpt>
      <trkpt lat="38.55809" lon="14.87955">
        <ele>1.1</ele>
        <time>2018-04-17T05:00:08Z</time>
      </trkpt>
      <trkpt lat="38.55834" lon="14.87994">
        <ele>1.1</ele>
        <time>2018-04-17T05:00:23Z</time>
      </trkpt>
      <trkpt lat="38.5587" lon="14.8805">
        <ele>2.06</ele>
        <time>2018-04-17T05:00:44Z</time>
      </trkpt>
      <trkpt lat="38.559" lon="14.88095">
        <ele>2.54</ele>
        <time>2018-04-17T05:01:01Z</time>
      </trkpt>
      <trkpt lat="38.55924" lon="14.88132">
        <ele>3.02</ele>
        <time>2018-04-17T05:01:15Z</time>
      </trkpt>
      <trkpt lat="38.55962" lon="14.8818">
        <ele>2.54</ele>
        <time>2018-04-17T05:01:35Z</time>
      </trkpt>
      <trkpt lat="38.56002" lon="14.88235">
        <ele>1.58</ele>
        <time>2018-04-17T05:01:57Z</time>
      </trkpt>
      <trkpt lat="38.5603" lon="14.88281">
        <ele>2.06</ele>
        <time>2018-04-17T05:02:14Z</time>
      </trkpt>
      <trkpt lat="38.56063" lon="14.88334">
        <ele>2.06</ele>
        <time>2018-04-17T05:02:34Z</time>
      </trkpt>
      <trkpt lat="38.56094" lon="14.88386">
        <ele>2.54</ele>
        <time>2018-04-17T05:02:53Z</time>
      </trkpt>
      <trkpt lat="38.56129" lon="14.88441">
        <ele>2.54</ele>
        <time>2018-04-17T05:03:14Z</time>
      </trkpt>
      <trkpt lat="38.56153" lon="14.88474">
        <ele>1.1</ele>
        <time>2018-04-17T05:03:27Z</time>
      </trkpt>
      <trkpt lat="38.56195" lon="14.88521">
        <ele>1.1</ele>
        <time>2018-04-17T05:03:48Z</time>
      </trkpt>
      <trkpt lat="38.56235" lon="14.88564">
        <ele>2.54</ele>
        <time>2018-04-17T05:04:08Z</time>
      </trkpt>
      <trkpt lat="38.56272" lon="14.88605">
        <ele>3.98</ele>
        <time>2018-04-17T05:04:26Z</time>
      </trkpt>
      <trkpt lat="38.56306" lon="14.88649">
        <ele>3.98</ele>
        <time>2018-04-17T05:04:44Z</time>
      </trkpt>
      <trkpt lat="38.56339" lon="14.88693">
        <ele>4.94</ele>
        <time>2018-04-17T05:05:02Z</time>
      </trkpt>
      <trkpt lat="38.5637" lon="14.88734">
        <ele>4.94</ele>
        <time>2018-04-17T05:05:19Z</time>
      </trkpt>
      <trkpt lat="38.56409" lon="14.88786">
        <ele>4.94</ele>
        <time>2018-04-17T05:05:40Z</time>
      </trkpt>
      <trkpt lat="38.56438" lon="14.88825">
        <ele>3.5</ele>
        <time>2018-04-17T05:05:56Z</time>
      </trkpt>
      <trkpt lat="38.56465" lon="14.88863">
        <ele>2.54</ele>
        <time>2018-04-17T05:06:11Z</time>
      </trkpt>
      <trkpt lat="38.56498" lon="14.8891">
        <ele>3.02</ele>
        <time>2018-04-17T05:06:30Z</time>
      </trkpt>
      <trkpt lat="38.56525" lon="14.88947">
        <ele>3.02</ele>
        <time>2018-04-17T05:06:45Z</time>
      </trkpt>
      <trkpt lat="38.5656" lon="14.88997">
        <ele>3.98</ele>
        <time>2018-04-17T05:07:05Z</time>
      </trkpt>
      <trkpt lat="38.56586" lon="14.89035">
        <ele>3.02</ele>
        <time>2018-04-17T05:07:20Z</time>
      </trkpt>
      <trkpt lat="38.56617" lon="14.89079">
        <ele>3.02</ele>
        <time>2018-04-17T05:07:38Z</time>
      </trkpt>
      <trkpt lat="38.5664" lon="14.89114">
        <ele>3.5</ele>
        <time>2018-04-17T05:07:52Z</time>
      </trkpt>
      <trkpt lat="38.56661" lon="14.89145">
        <ele>3.5</ele>
        <time>2018-04-17T05:08:04Z</time>
      </trkpt>
      <trkpt lat="38.56685" lon="14.8918">
        <ele>3.5</ele>
        <time>2018-04-17T05:08:18Z</time>
      </trkpt>
      <trkpt lat="38.56714" lon="14.89219">
        <ele>3.5</ele>
        <time>2018-04-17T05:08:34Z</time>
      </trkpt>
      <trkpt lat="38.56737" lon="14.89255">
        <ele>3.98</ele>
        <time>2018-04-17T05:08:48Z</time>
      </trkpt>
      <trkpt lat="38.56766" lon="14.89293">
        <ele>3.98</ele>
        <time>2018-04-17T05:09:04Z</time>
      </trkpt>
      <trkpt lat="38.56788" lon="14.89326">
        <ele>3.5</ele>
        <time>2018-04-17T05:09:17Z</time>
      </trkpt>
      <trkpt lat="38.56818" lon="14.89364">
        <ele>3.98</ele>
        <time>2018-04-17T05:09:33Z</time>
      </trkpt>
      <trkpt lat="38.56847" lon="14.89403">
        <ele>3.02</ele>
        <time>2018-04-17T05:09:48Z</time>
      </trkpt>
      <trkpt lat="38.56868" lon="14.89432">
        <ele>1.58</ele>
        <time>2018-04-17T05:09:59Z</time>
      </trkpt>
      <trkpt lat="38.56889" lon="14.89459">
        <ele>1.58</ele>
        <time>2018-04-17T05:10:10Z</time>
      </trkpt>
      <trkpt lat="38.5691" lon="14.89488">
        <ele>1.58</ele>
        <time>2018-04-17T05:10:22Z</time>
      </trkpt>
      <trkpt lat="38.56939" lon="14.89526">
        <ele>0.14</ele>
        <time>2018-04-17T05:10:37Z</time>
      </trkpt>
      <trkpt lat="38.56964" lon="14.89556">
        <ele>0.14</ele>
        <time>2018-04-17T05:10:50Z</time>
      </trkpt>
      <trkpt lat="38.56991" lon="14.89592">
        <ele>0.62</ele>
        <time>2018-04-17T05:11:05Z</time>
      </trkpt>
      <trkpt lat="38.57026" lon="14.89635">
        <ele>1.1</ele>
        <time>2018-04-17T05:11:23Z</time>
      </trkpt>
      <trkpt lat="38.57049" lon="14.89661">
        <ele>0.62</ele>
        <time>2018-04-17T05:11:36Z</time>
      </trkpt>
      <trkpt lat="38.5708" lon="14.897">
        <ele>1.58</ele>
        <time>2018-04-17T05:11:52Z</time>
      </trkpt>
      <trkpt lat="38.57101" lon="14.89726">
        <ele>2.54</ele>
        <time>2018-04-17T05:12:03Z</time>
      </trkpt>
      <trkpt lat="38.5713" lon="14.89761">
        <ele>2.54</ele>
        <time>2018-04-17T05:12:18Z</time>
      </trkpt>
      <trkpt lat="38.57155" lon="14.89791">
        <ele>2.54</ele>
        <time>2018-04-17T05:12:31Z</time>
      </trkpt>
      <trkpt lat="38.57188" lon="14.8983">
        <ele>3.5</ele>
        <time>2018-04-17T05:12:48Z</time>
      </trkpt>
      <trkpt lat="38.57213" lon="14.8986">
        <ele>3.98</ele>
        <time>2018-04-17T05:13:01Z</time>
      </trkpt>
      <trkpt lat="38.57247" lon="14.89899">
        <ele>3.02</ele>
        <time>2018-04-17T05:13:18Z</time>
      </trkpt>
      <trkpt lat="38.57275" lon="14.89932">
        <ele>3.02</ele>
        <time>2018-04-17T05:13:32Z</time>
      </trkpt>
      <trkpt lat="38.57303" lon="14.89964">
        <ele>3.5</ele>
        <time>2018-04-17T05:13:45Z</time>
      </trkpt>
      <trkpt lat="38.57334" lon="14.89998">
        <ele>3.02</ele>
        <time>2018-04-17T05:14:00Z</time>
      </trkpt>
      <trkpt lat="38.57368" lon="14.90037">
        <ele>3.5</ele>
        <time>2018-04-17T05:14:16Z</time>
      </trkpt>
      <trkpt lat="38.574" lon="14.90072">
        <ele>2.54</ele>
        <time>2018-04-17T05:14:31Z</time>
      </trkpt>
      <trkpt lat="38.57427" lon="14.90101">
        <ele>1.58</ele>
        <time>2018-04-17T05:14:43Z</time>
      </trkpt>
      <trkpt lat="38.57451" lon="14.90128">
        <ele>1.58</ele>
        <time>2018-04-17T05:14:54Z</time>
      </trkpt>
      <trkpt lat="38.57473" lon="14.90151">
        <ele>2.06</ele>
        <time>2018-04-17T05:15:04Z</time>
      </trkpt>
      <trkpt lat="38.57498" lon="14.90182">
        <ele>1.58</ele>
        <time>2018-04-17T05:15:16Z</time>
      </trkpt>
      <trkpt lat="38.57528" lon="14.90218">
        <ele>1.58</ele>
        <time>2018-04-17T05:15:30Z</time>
      </trkpt>
      <trkpt lat="38.57557" lon="14.90252">
        <ele>3.98</ele>
        <time>2018-04-17T05:15:43Z</time>
      </trkpt>
      <trkpt lat="38.57584" lon="14.90282">
        <ele>3.02</ele>
        <time>2018-04-17T05:15:55Z</time>
      </trkpt>
      <trkpt lat="38.57608" lon="14.90312">
        <ele>2.54</ele>
        <time>2018-04-17T05:16:06Z</time>
      </trkpt>
      <trkpt lat="38.57645" lon="14.90353">
        <ele>1.58</ele>
        <time>2018-04-17T05:16:23Z</time>
      </trkpt>
      <trkpt lat="38.57673" lon="14.90387">
        <ele>2.54</ele>
        <time>2018-04-17T05:16:36Z</time>
      </trkpt>
      <trkpt lat="38.57701" lon="14.9042">
        <ele>2.54</ele>
        <time>2018-04-17T05:16:49Z</time>
      </trkpt>
      <trkpt lat="38.57726" lon="14.9045">
        <ele>2.54</ele>
        <time>2018-04-17T05:17:01Z</time>
      </trkpt>
      <trkpt lat="38.57765" lon="14.90496">
        <ele>3.02</ele>
        <time>2018-04-17T05:17:19Z</time>
      </trkpt>
      <trkpt lat="38.57795" lon="14.90533">
        <ele>2.06</ele>
        <time>2018-04-17T05:17:33Z</time>
      </trkpt>
      <trkpt lat="38.57825" lon="14.9057">
        <ele>2.54</ele>
        <time>2018-04-17T05:17:47Z</time>
      </trkpt>
      <trkpt lat="38.57854" lon="14.90605">
        <ele>2.06</ele>
        <time>2018-04-17T05:18:00Z</time>
      </trkpt>
      <trkpt lat="38.57874" lon="14.9063">
        <ele>1.58</ele>
        <time>2018-04-17T05:18:11Z</time>
      </trkpt>
      <trkpt lat="38.57899" lon="14.9066">
        <ele>2.06</ele>
        <time>2018-04-17T05:18:22Z</time>
      </trkpt>
      <trkpt lat="38.5793" lon="14.90696">
        <ele>1.58</ele>
        <time>2018-04-17T05:18:36Z</time>
      </trkpt>
      <trkpt lat="38.5796" lon="14.90735">
        <ele>2.06</ele>
        <time>2018-04-17T05:18:51Z</time>
      </trkpt>
      <trkpt lat="38.57992" lon="14.90775">
        <ele>3.02</ele>
        <time>2018-04-17T05:19:07Z</time>
      </trkpt>
      <trkpt lat="38.58018" lon="14.90805">
        <ele>3.02</ele>
        <time>2018-04-17T05:19:20Z</time>
      </trkpt>
      <trkpt lat="38.58047" lon="14.90841">
        <ele>2.54</ele>
        <time>2018-04-17T05:19:35Z</time>
      </trkpt>
      <trkpt lat="38.58076" lon="14.90877">
        <ele>3.02</ele>
        <time>2018-04-17T05:19:50Z</time>
      </trkpt>
      <trkpt lat="38.58103" lon="14.9091">
        <ele>3.02</ele>
        <time>2018-04-17T05:20:03Z</time>
      </trkpt>
      <trkpt lat="38.58129" lon="14.90942">
        <ele>3.02</ele>
        <time>2018-04-17T05:20:17Z</time>
      </trkpt>
      <trkpt lat="38.5815" lon="14.90969">
        <ele>2.54</ele>
        <time>2018-04-17T05:20:29Z</time>
      </trkpt>
      <trkpt lat="38.58171" lon="14.90997">
        <ele>3.5</ele>
        <time>2018-04-17T05:20:40Z</time>
      </trkpt>
      <trkpt lat="38.58199" lon="14.91031">
        <ele>3.98</ele>
        <time>2018-04-17T05:20:54Z</time>
      </trkpt>
      <trkpt lat="38.58219" lon="14.91058">
        <ele>2.06</ele>
        <time>2018-04-17T05:21:05Z</time>
      </trkpt>
      <trkpt lat="38.58248" lon="14.91093">
        <ele>1.58</ele>
        <time>2018-04-17T05:21:19Z</time>
      </trkpt>
      <trkpt lat="38.58273" lon="14.91124">
        <ele>2.06</ele>
        <time>2018-04-17T05:21:32Z</time>
      </trkpt>
      <trkpt lat="38.58302" lon="14.91161">
        <ele>2.54</ele>
        <time>2018-04-17T05:21:47Z</time>
      </trkpt>
      <trkpt lat="38.5833" lon="14.91197">
        <ele>2.06</ele>
        <time>2018-04-17T05:22:00Z</time>
      </trkpt>
      <trkpt lat="38.58363" lon="14.91237">
        <ele>3.02</ele>
        <time>2018-04-17T05:22:16Z</time>
      </trkpt>
      <trkpt lat="38.58388" lon="14.91269">
        <ele>3.02</ele>
        <time>2018-04-17T05:22:29Z</time>
      </trkpt>
      <trkpt lat="38.58415" lon="14.91302">
        <ele>3.02</ele>
        <time>2018-04-17T05:22:43Z</time>
      </trkpt>
      <trkpt lat="38.58443" lon="14.91338">
        <ele>2.54</ele>
        <time>2018-04-17T05:22:57Z</time>
      </trkpt>
      <trkpt lat="38.58472" lon="14.91376">
        <ele>2.06</ele>
        <time>2018-04-17T05:23:12Z</time>
      </trkpt>
      <trkpt lat="38.58518" lon="14.91431">
        <ele>2.06</ele>
        <time>2018-04-17T05:23:35Z</time>
      </trkpt>
      <trkpt lat="38.58546" lon="14.91468">
        <ele>1.1</ele>
        <time>2018-04-17T05:23:50Z</time>
      </trkpt>
      <trkpt lat="38.58579" lon="14.91506">
        <ele>0.62</ele>
        <time>2018-04-17T05:24:06Z</time>
      </trkpt>
      <trkpt lat="38.58613" lon="14.91547">
        <ele>1.58</ele>
        <time>2018-04-17T05:24:24Z</time>
      </trkpt>
      <trkpt lat="38.58639" lon="14.91576">
        <ele>2.54</ele>
        <time>2018-04-17T05:24:37Z</time>
      </trkpt>
      <trkpt lat="38.58668" lon="14.91614">
        <ele>3.5</ele>
        <time>2018-04-17T05:24:52Z</time>
      </trkpt>
      <trkpt lat="38.58708" lon="14.91662">
        <ele>3.98</ele>
        <time>2018-04-17T05:25:12Z</time>
      </trkpt>
      <trkpt lat="38.58732" lon="14.91691">
        <ele>3.5</ele>
        <time>2018-04-17T05:25:24Z</time>
      </trkpt>
      <trkpt lat="38.58756" lon="14.91732">
        <ele>4.46</ele>
        <time>2018-04-17T05:25:39Z</time>
      </trkpt>
      <trkpt lat="38.58771" lon="14.91781">
        <ele>3.02</ele>
        <time>2018-04-17T05:25:54Z</time>
      </trkpt>
      <trkpt lat="38.58789" lon="14.91821">
        <ele>3.5</ele>
        <time>2018-04-17T05:26:07Z</time>
      </trkpt>
      <trkpt lat="38.58811" lon="14.91864">
        <ele>3.02</ele>
        <time>2018-04-17T05:26:22Z</time>
      </trkpt>
      <trkpt lat="38.5883" lon="14.91901">
        <ele>3.02</ele>
        <time>2018-04-17T05:26:35Z</time>
      </trkpt>
      <trkpt lat="38.5886" lon="14.91952">
        <ele>2.54</ele>
        <time>2018-04-17T05:26:53Z</time>
      </trkpt>
      <trkpt lat="38.58883" lon="14.91989">
        <ele>2.54</ele>
        <time>2018-04-17T05:27:06Z</time>
      </trkpt>
      <trkpt lat="38.58904" lon="14.92023">
        <ele>2.54</ele>
        <time>2018-04-17T05:27:18Z</time>
      </trkpt>
      <trkpt lat="38.58926" lon="14.92061">
        <ele>2.54</ele>
        <time>2018-04-17T05:27:31Z</time>
      </trkpt>
      <trkpt lat="38.58953" lon="14.92108">
        <ele>2.54</ele>
        <time>2018-04-17T05:27:47Z</time>
      </trkpt>
      <trkpt lat="38.58979" lon="14.92151">
        <ele>2.06</ele>
        <time>2018-04-17T05:28:02Z</time>
      </trkpt>
      <trkpt lat="38.58999" lon="14.92187">
        <ele>3.5</ele>
        <time>2018-04-17T05:28:15Z</time>
      </trkpt>
      <trkpt lat="38.5902" lon="14.92222">
        <ele>3.02</ele>
        <time>2018-04-17T05:28:27Z</time>
      </trkpt>
      <trkpt lat="38.59039" lon="14.92254">
        <ele>3.5</ele>
        <time>2018-04-17T05:28:38Z</time>
      </trkpt>
      <trkpt lat="38.59066" lon="14.92296">
        <ele>3.02</ele>
        <time>2018-04-17T05:28:53Z</time>
      </trkpt>
      <trkpt lat="38.59095" lon="14.92344">
        <ele>3.02</ele>
        <time>2018-04-17T05:29:10Z</time>
      </trkpt>
      <trkpt lat="38.59124" lon="14.9239">
        <ele>3.5</ele>
        <time>2018-04-17T05:29:26Z</time>
      </trkpt>
      <trkpt lat="38.59149" lon="14.9243">
        <ele>3.5</ele>
        <time>2018-04-17T05:29:40Z</time>
      </trkpt>
      <trkpt lat="38.59176" lon="14.92472">
        <ele>3.5</ele>
        <time>2018-04-17T05:29:55Z</time>
      </trkpt>
      <trkpt lat="38.59205" lon="14.92518">
        <ele>4.94</ele>
        <time>2018-04-17T05:30:11Z</time>
      </trkpt>
      <trkpt lat="38.59225" lon="14.9255">
        <ele>3.98</ele>
        <time>2018-04-17T05:30:22Z</time>
      </trkpt>
      <trkpt lat="38.59251" lon="14.92591">
        <ele>3.02</ele>
        <time>2018-04-17T05:30:36Z</time>
      </trkpt>
      <trkpt lat="38.59271" lon="14.92621">
        <ele>3.5</ele>
        <time>2018-04-17T05:30:47Z</time>
      </trkpt>
      <trkpt lat="38.59291" lon="14.92656">
        <ele>2.54</ele>
        <time>2018-04-17T05:30:59Z</time>
      </trkpt>
      <trkpt lat="38.59311" lon="14.92691">
        <ele>2.06</ele>
        <time>2018-04-17T05:31:11Z</time>
      </trkpt>
      <trkpt lat="38.5933" lon="14.92725">
        <ele>2.54</ele>
        <time>2018-04-17T05:31:23Z</time>
      </trkpt>
      <trkpt lat="38.59356" lon="14.92768">
        <ele>2.54</ele>
        <time>2018-04-17T05:31:38Z</time>
      </trkpt>
      <trkpt lat="38.59377" lon="14.92806">
        <ele>3.02</ele>
        <time>2018-04-17T05:31:51Z</time>
      </trkpt>
      <trkpt lat="38.59403" lon="14.92848">
        <ele>3.5</ele>
        <time>2018-04-17T05:32:06Z</time>
      </trkpt>
      <trkpt lat="38.59422" lon="14.92879">
        <ele>3.98</ele>
        <time>2018-04-17T05:32:17Z</time>
      </trkpt>
      <trkpt lat="38.5945" lon="14.92925">
        <ele>4.46</ele>
        <time>2018-04-17T05:32:33Z</time>
      </trkpt>
      <trkpt lat="38.59466" lon="14.92954">
        <ele>4.94</ele>
        <time>2018-04-17T05:32:43Z</time>
      </trkpt>
      <trkpt lat="38.59492" lon="14.93">
        <ele>3.98</ele>
        <time>2018-04-17T05:32:59Z</time>
      </trkpt>
      <trkpt lat="38.59524" lon="14.93058">
        <ele>4.94</ele>
        <time>2018-04-17T05:33:19Z</time>
      </trkpt>
      <trkpt lat="38.5955" lon="14.93104">
        <ele>4.46</ele>
        <time>2018-04-17T05:33:35Z</time>
      </trkpt>
      <trkpt lat="38.59576" lon="14.93152">
        <ele>4.46</ele>
        <time>2018-04-17T05:33:51Z</time>
      </trkpt>
      <trkpt lat="38.59601" lon="14.93195">
        <ele>4.94</ele>
        <time>2018-04-17T05:34:06Z</time>
      </trkpt>
      <trkpt lat="38.59624" lon="14.93236">
        <ele>6.39</ele>
        <time>2018-04-17T05:34:20Z</time>
      </trkpt>
      <trkpt lat="38.59646" lon="14.93274">
        <ele>6.39</ele>
        <time>2018-04-17T05:34:33Z</time>
      </trkpt>
      <trkpt lat="38.59666" lon="14.93312">
        <ele>6.87</ele>
        <time>2018-04-17T05:34:46Z</time>
      </trkpt>
      <trkpt lat="38.59688" lon="14.93351">
        <ele>6.87</ele>
        <time>2018-04-17T05:34:59Z</time>
      </trkpt>
      <trkpt lat="38.59713" lon="14.93395">
        <ele>5.42</ele>
        <time>2018-04-17T05:35:14Z</time>
      </trkpt>
      <trkpt lat="38.59732" lon="14.93429">
        <ele>4.46</ele>
        <time>2018-04-17T05:35:25Z</time>
      </trkpt>
      <trkpt lat="38.59752" lon="14.93461">
        <ele>3.98</ele>
        <time>2018-04-17T05:35:37Z</time>
      </trkpt>
      <trkpt lat="38.5977" lon="14.93496">
        <ele>4.46</ele>
        <time>2018-04-17T05:35:49Z</time>
      </trkpt>
      <trkpt lat="38.59788" lon="14.93528">
        <ele>3.02</ele>
        <time>2018-04-17T05:35:59Z</time>
      </trkpt>
      <trkpt lat="38.59801" lon="14.93551">
        <ele>3.02</ele>
        <time>2018-04-17T05:36:08Z</time>
      </trkpt>
      <trkpt lat="38.5982" lon="14.93582">
        <ele>2.54</ele>
        <time>2018-04-17T05:36:19Z</time>
      </trkpt>
      <trkpt lat="38.59821" lon="14.93585">
        <ele>2.54</ele>
        <time>2018-04-17T05:36:20Z</time>
      </trkpt>
      <trkpt lat="38.59852" lon="14.9364">
        <ele>3.5</ele>
        <time>2018-04-17T05:36:38Z</time>
      </trkpt>
      <trkpt lat="38.59874" lon="14.93679">
        <ele>3.98</ele>
        <time>2018-04-17T05:36:51Z</time>
      </trkpt>
      <trkpt lat="38.59905" lon="14.93736">
        <ele>4.94</ele>
        <time>2018-04-17T05:37:10Z</time>
      </trkpt>
      <trkpt lat="38.59929" lon="14.9378">
        <ele>5.91</ele>
        <time>2018-04-17T05:37:25Z</time>
      </trkpt>
      <trkpt lat="38.59954" lon="14.93824">
        <ele>5.91</ele>
        <time>2018-04-17T05:37:40Z</time>
      </trkpt>
      <trkpt lat="38.59977" lon="14.93865">
        <ele>5.91</ele>
        <time>2018-04-17T05:37:54Z</time>
      </trkpt>
      <trkpt lat="38.60005" lon="14.93915">
        <ele>5.91</ele>
        <time>2018-04-17T05:38:11Z</time>
      </trkpt>
      <trkpt lat="38.60025" lon="14.9395">
        <ele>5.42</ele>
        <time>2018-04-17T05:38:23Z</time>
      </trkpt>
      <trkpt lat="38.60057" lon="14.94009">
        <ele>4.94</ele>
        <time>2018-04-17T05:38:43Z</time>
      </trkpt>
      <trkpt lat="38.60086" lon="14.94059">
        <ele>4.46</ele>
        <time>2018-04-17T05:39:00Z</time>
      </trkpt>
      <trkpt lat="38.60115" lon="14.94113">
        <ele>2.06</ele>
        <time>2018-04-17T05:39:18Z</time>
      </trkpt>
      <trkpt lat="38.60142" lon="14.9416">
        <ele>3.5</ele>
        <time>2018-04-17T05:39:34Z</time>
      </trkpt>
      <trkpt lat="38.60165" lon="14.94203">
        <ele>3.98</ele>
        <time>2018-04-17T05:39:48Z</time>
      </trkpt>
      <trkpt lat="38.60193" lon="14.94253">
        <ele>4.94</ele>
        <time>2018-04-17T05:40:05Z</time>
      </trkpt>
      <trkpt lat="38.60228" lon="14.94316">
        <ele>5.42</ele>
        <time>2018-04-17T05:40:26Z</time>
      </trkpt>
      <trkpt lat="38.60253" lon="14.9436">
        <ele>5.42</ele>
        <time>2018-04-17T05:40:41Z</time>
      </trkpt>
      <trkpt lat="38.60281" lon="14.9441">
        <ele>5.91</ele>
        <time>2018-04-17T05:40:58Z</time>
      </trkpt>
      <trkpt lat="38.60308" lon="14.94458">
        <ele>4.46</ele>
        <time>2018-04-17T05:41:14Z</time>
      </trkpt>
      <trkpt lat="38.60335" lon="14.94506">
        <ele>4.94</ele>
        <time>2018-04-17T05:41:30Z</time>
      </trkpt>
      <trkpt lat="38.60358" lon="14.94547">
        <ele>4.94</ele>
        <time>2018-04-17T05:41:44Z</time>
      </trkpt>
      <trkpt lat="38.60387" lon="14.94598">
        <ele>4.46</ele>
        <time>2018-04-17T05:42:01Z</time>
      </trkpt>
      <trkpt lat="38.60407" lon="14.94635">
        <ele>4.94</ele>
        <time>2018-04-17T05:42:13Z</time>
      </trkpt>
      <trkpt lat="38.60433" lon="14.9468">
        <ele>4.94</ele>
        <time>2018-04-17T05:42:28Z</time>
      </trkpt>
      <trkpt lat="38.60458" lon="14.94722">
        <ele>4.46</ele>
        <time>2018-04-17T05:42:42Z</time>
      </trkpt>
      <trkpt lat="38.60488" lon="14.94777">
        <ele>4.94</ele>
        <time>2018-04-17T05:43:00Z</time>
      </trkpt>
      <trkpt lat="38.60514" lon="14.94824">
        <ele>5.91</ele>
        <time>2018-04-17T05:43:16Z</time>
      </trkpt>
      <trkpt lat="38.60534" lon="14.94858">
        <ele>4.94</ele>
        <time>2018-04-17T05:43:27Z</time>
      </trkpt>
      <trkpt lat="38.60556" lon="14.94897">
        <ele>4.46</ele>
        <time>2018-04-17T05:43:40Z</time>
      </trkpt>
      <trkpt lat="38.6058" lon="14.94942">
        <ele>5.42</ele>
        <time>2018-04-17T05:43:55Z</time>
      </trkpt>
      <trkpt lat="38.60606" lon="14.94986">
        <ele>4.94</ele>
        <time>2018-04-17T05:44:10Z</time>
      </trkpt>
      <trkpt lat="38.60633" lon="14.95035">
        <ele>5.42</ele>
        <time>2018-04-17T05:44:26Z</time>
      </trkpt>
      <trkpt lat="38.60657" lon="14.95078">
        <ele>4.94</ele>
        <time>2018-04-17T05:44:40Z</time>
      </trkpt>
      <trkpt lat="38.60686" lon="14.95129">
        <ele>4.94</ele>
        <time>2018-04-17T05:44:57Z</time>
      </trkpt>
      <trkpt lat="38.60713" lon="14.95177">
        <ele>5.42</ele>
        <time>2018-04-17T05:45:13Z</time>
      </trkpt>
      <trkpt lat="38.60741" lon="14.95225">
        <ele>5.42</ele>
        <time>2018-04-17T05:45:29Z</time>
      </trkpt>
      <trkpt lat="38.60763" lon="14.95264">
        <ele>5.42</ele>
        <time>2018-04-17T05:45:42Z</time>
      </trkpt>
      <trkpt lat="38.60791" lon="14.95313">
        <ele>5.42</ele>
        <time>2018-04-17T05:45:58Z</time>
      </trkpt>
      <trkpt lat="38.60822" lon="14.95368">
        <ele>5.42</ele>
        <time>2018-04-17T05:46:16Z</time>
      </trkpt>
      <trkpt lat="38.60853" lon="14.95422">
        <ele>5.42</ele>
        <time>2018-04-17T05:46:34Z</time>
      </trkpt>
      <trkpt lat="38.60876" lon="14.95462">
        <ele>6.39</ele>
        <time>2018-04-17T05:46:47Z</time>
      </trkpt>
      <trkpt lat="38.60906" lon="14.95513">
        <ele>5.91</ele>
        <time>2018-04-17T05:47:04Z</time>
      </trkpt>
      <trkpt lat="38.60931" lon="14.95559">
        <ele>6.39</ele>
        <time>2018-04-17T05:47:19Z</time>
      </trkpt>
      <trkpt lat="38.60952" lon="14.95594">
        <ele>5.42</ele>
        <time>2018-04-17T05:47:31Z</time>
      </trkpt>
      <trkpt lat="38.6097" lon="14.95627">
        <ele>4.46</ele>
        <time>2018-04-17T05:47:42Z</time>
      </trkpt>
      <trkpt lat="38.60994" lon="14.95669">
        <ele>4.94</ele>
        <time>2018-04-17T05:47:55Z</time>
      </trkpt>
      <trkpt lat="38.61015" lon="14.95706">
        <ele>4.46</ele>
        <time>2018-04-17T05:48:07Z</time>
      </trkpt>
      <trkpt lat="38.61039" lon="14.95748">
        <ele>3.98</ele>
        <time>2018-04-17T05:48:21Z</time>
      </trkpt>
      <trkpt lat="38.61067" lon="14.95798">
        <ele>4.46</ele>
        <time>2018-04-17T05:48:37Z</time>
      </trkpt>
      <trkpt lat="38.61089" lon="14.95834">
        <ele>1.58</ele>
        <time>2018-04-17T05:48:48Z</time>
      </trkpt>
      <trkpt lat="38.61113" lon="14.95877">
        <ele>2.54</ele>
        <time>2018-04-17T05:49:02Z</time>
      </trkpt>
      <trkpt lat="38.61132" lon="14.95911">
        <ele>3.02</ele>
        <time>2018-04-17T05:49:13Z</time>
      </trkpt>
      <trkpt lat="38.61157" lon="14.95954">
        <ele>3.5</ele>
        <time>2018-04-17T05:49:27Z</time>
      </trkpt>
      <trkpt lat="38.61182" lon="14.95999">
        <ele>5.42</ele>
        <time>2018-04-17T05:49:42Z</time>
      </trkpt>
      <trkpt lat="38.6121" lon="14.96048">
        <ele>4.94</ele>
        <time>2018-04-17T05:49:58Z</time>
      </trkpt>
      <trkpt lat="38.61237" lon="14.96096">
        <ele>3.5</ele>
        <time>2018-04-17T05:50:14Z</time>
      </trkpt>
      <trkpt lat="38.61268" lon="14.96151">
        <ele>3.5</ele>
        <time>2018-04-17T05:50:32Z</time>
      </trkpt>
      <trkpt lat="38.61288" lon="14.96188">
        <ele>4.94</ele>
        <time>2018-04-17T05:50:44Z</time>
      </trkpt>
      <trkpt lat="38.61311" lon="14.96228">
        <ele>5.42</ele>
        <time>2018-04-17T05:50:57Z</time>
      </trkpt>
      <trkpt lat="38.61329" lon="14.96258">
        <ele>3.98</ele>
        <time>2018-04-17T05:51:08Z</time>
      </trkpt>
      <trkpt lat="38.61344" lon="14.96287">
        <ele>4.46</ele>
        <time>2018-04-17T05:51:18Z</time>
      </trkpt>
      <trkpt lat="38.61372" lon="14.96337">
        <ele>4.94</ele>
        <time>2018-04-17T05:51:34Z</time>
      </trkpt>
      <trkpt lat="38.6139" lon="14.96366">
        <ele>5.42</ele>
        <time>2018-04-17T05:51:44Z</time>
      </trkpt>
      <trkpt lat="38.61408" lon="14.96398">
        <ele>4.94</ele>
        <time>2018-04-17T05:51:55Z</time>
      </trkpt>
      <trkpt lat="38.61424" lon="14.96425">
        <ele>6.39</ele>
        <time>2018-04-17T05:52:04Z</time>
      </trkpt>
      <trkpt lat="38.61453" lon="14.96478">
        <ele>4.94</ele>
        <time>2018-04-17T05:52:21Z</time>
      </trkpt>
      <trkpt lat="38.61476" lon="14.96518">
        <ele>3.5</ele>
        <time>2018-04-17T05:52:34Z</time>
      </trkpt>
      <trkpt lat="38.61506" lon="14.9657">
        <ele>3.98</ele>
        <time>2018-04-17T05:52:51Z</time>
      </trkpt>
      <trkpt lat="38.61529" lon="14.96608">
        <ele>2.54</ele>
        <time>2018-04-17T05:53:03Z</time>
      </trkpt>
      <trkpt lat="38.61557" lon="14.96654">
        <ele>0.62</ele>
        <time>2018-04-17T05:53:18Z</time>
      </trkpt>
      <trkpt lat="38.61581" lon="14.96696">
        <ele>0.62</ele>
        <time>2018-04-17T05:53:32Z</time>
      </trkpt>
      <trkpt lat="38.61606" lon="14.96741">
        <ele>1.58</ele>
        <time>2018-04-17T05:53:47Z</time>
      </trkpt>
      <trkpt lat="38.61632" lon="14.96786">
        <ele>3.5</ele>
        <time>2018-04-17T05:54:02Z</time>
      </trkpt>
      <trkpt lat="38.61655" lon="14.96827">
        <ele>3.5</ele>
        <time>2018-04-17T05:54:16Z</time>
      </trkpt>
      <trkpt lat="38.61673" lon="14.96857">
        <ele>2.54</ele>
        <time>2018-04-17T05:54:26Z</time>
      </trkpt>
      <trkpt lat="38.61705" lon="14.96913">
        <ele>3.98</ele>
        <time>2018-04-17T05:54:45Z</time>
      </trkpt>
      <trkpt lat="38.61736" lon="14.96968">
        <ele>4.46</ele>
        <time>2018-04-17T05:55:03Z</time>
      </trkpt>
      <trkpt lat="38.61762" lon="14.97012">
        <ele>4.46</ele>
        <time>2018-04-17T05:55:18Z</time>
      </trkpt>
      <trkpt lat="38.6179" lon="14.97058">
        <ele>5.42</ele>
        <time>2018-04-17T05:55:34Z</time>
      </trkpt>
      <trkpt lat="38.61816" lon="14.97098">
        <ele>6.39</ele>
        <time>2018-04-17T05:55:48Z</time>
      </trkpt>
      <trkpt lat="38.61841" lon="14.97138">
        <ele>5.42</ele>
        <time>2018-04-17T05:56:02Z</time>
      </trkpt>
      <trkpt lat="38.61872" lon="14.97186">
        <ele>6.39</ele>
        <time>2018-04-17T05:56:19Z</time>
      </trkpt>
      <trkpt lat="38.61897" lon="14.97227">
        <ele>6.87</ele>
        <time>2018-04-17T05:56:33Z</time>
      </trkpt>
      <trkpt lat="38.61932" lon="14.97281">
        <ele>7.35</ele>
        <time>2018-04-17T05:56:52Z</time>
      </trkpt>
      <trkpt lat="38.61969" lon="14.97328">
        <ele>6.87</ele>
        <time>2018-04-17T05:57:10Z</time>
      </trkpt>
      <trkpt lat="38.61996" lon="14.97361">
        <ele>7.35</ele>
        <time>2018-04-17T05:57:23Z</time>
      </trkpt>
      <trkpt lat="38.62032" lon="14.974">
        <ele>6.39</ele>
        <time>2018-04-17T05:57:39Z</time>
      </trkpt>
      <trkpt lat="38.62057" lon="14.97426">
        <ele>5.42</ele>
        <time>2018-04-17T05:57:51Z</time>
      </trkpt>
      <trkpt lat="38.62086" lon="14.9746">
        <ele>5.91</ele>
        <time>2018-04-17T05:58:05Z</time>
      </trkpt>
      <trkpt lat="38.6211" lon="14.97484">
        <ele>5.91</ele>
        <time>2018-04-17T05:58:15Z</time>
      </trkpt>
      <trkpt lat="38.62141" lon="14.97517">
        <ele>6.39</ele>
        <time>2018-04-17T05:58:29Z</time>
      </trkpt>
      <trkpt lat="38.6217" lon="14.97549">
        <ele>5.91</ele>
        <time>2018-04-17T05:58:42Z</time>
      </trkpt>
      <trkpt lat="38.62191" lon="14.97572">
        <ele>4.94</ele>
        <time>2018-04-17T05:58:52Z</time>
      </trkpt>
      <trkpt lat="38.62217" lon="14.97605">
        <ele>3.5</ele>
        <time>2018-04-17T05:59:05Z</time>
      </trkpt>
      <trkpt lat="38.62242" lon="14.97631">
        <ele>3.02</ele>
        <time>2018-04-17T05:59:17Z</time>
      </trkpt>
      <trkpt lat="38.62265" lon="14.97655">
        <ele>3.98</ele>
        <time>2018-04-17T05:59:27Z</time>
      </trkpt>
      <trkpt lat="38.62288" lon="14.9768">
        <ele>3.5</ele>
        <time>2018-04-17T05:59:37Z</time>
      </trkpt>
      <trkpt lat="38.62314" lon="14.97708">
        <ele>3.98</ele>
        <time>2018-04-17T05:59:49Z</time>
      </trkpt>
      <trkpt lat="38.62315" lon="14.9771">
        <ele>3.98</ele>
        <time>2018-04-17T05:59:50Z</time>
      </trkpt>
      <trkpt lat="38.6234" lon="14.97738">
        <ele>3.5</ele>
        <time>2018-04-17T06:00:02Z</time>
      </trkpt>
      <trkpt lat="38.62369" lon="14.97772">
        <ele>3.5</ele>
        <time>2018-04-17T06:00:16Z</time>
      </trkpt>
      <trkpt lat="38.62401" lon="14.97808">
        <ele>3.5</ele>
        <time>2018-04-17T06:00:31Z</time>
      </trkpt>
      <trkpt lat="38.62432" lon="14.97842">
        <ele>3.98</ele>
        <time>2018-04-17T06:00:45Z</time>
      </trkpt>
      <trkpt lat="38.62463" lon="14.97876">
        <ele>4.46</ele>
        <time>2018-04-17T06:00:59Z</time>
      </trkpt>
      <trkpt lat="38.62497" lon="14.97913">
        <ele>4.46</ele>
        <time>2018-04-17T06:01:15Z</time>
      </trkpt>
      <trkpt lat="38.62531" lon="14.97952">
        <ele>3.98</ele>
        <time>2018-04-17T06:01:31Z</time>
      </trkpt>
      <trkpt lat="38.62562" lon="14.97986">
        <ele>3.5</ele>
        <time>2018-04-17T06:01:45Z</time>
      </trkpt>
      <trkpt lat="38.62594" lon="14.98022">
        <ele>2.54</ele>
        <time>2018-04-17T06:02:00Z</time>
      </trkpt>
      <trkpt lat="38.6262" lon="14.98051">
        <ele>2.06</ele>
        <time>2018-04-17T06:02:12Z</time>
      </trkpt>
      <trkpt lat="38.62648" lon="14.98082">
        <ele>2.06</ele>
        <time>2018-04-17T06:02:25Z</time>
      </trkpt>
      <trkpt lat="38.62672" lon="14.98109">
        <ele>2.54</ele>
        <time>2018-04-17T06:02:36Z</time>
      </trkpt>
      <trkpt lat="38.62695" lon="14.98135">
        <ele>2.54</ele>
        <time>2018-04-17T06:02:47Z</time>
      </trkpt>
      <trkpt lat="38.62719" lon="14.98161">
        <ele>3.98</ele>
        <time>2018-04-17T06:02:58Z</time>
      </trkpt>
      <trkpt lat="38.62743" lon="14.98188">
        <ele>3.98</ele>
        <time>2018-04-17T06:03:09Z</time>
      </trkpt>
      <trkpt lat="38.62775" lon="14.98224">
        <ele>4.46</ele>
        <time>2018-04-17T06:03:24Z</time>
      </trkpt>
      <trkpt lat="38.62806" lon="14.9826">
        <ele>4.46</ele>
        <time>2018-04-17T06:03:39Z</time>
      </trkpt>
      <trkpt lat="38.62832" lon="14.98288">
        <ele>4.46</ele>
        <time>2018-04-17T06:03:51Z</time>
      </trkpt>
      <trkpt lat="38.62864" lon="14.98324">
        <ele>4.46</ele>
        <time>2018-04-17T06:04:06Z</time>
      </trkpt>
      <trkpt lat="38.62892" lon="14.98355">
        <ele>3.98</ele>
        <time>2018-04-17T06:04:19Z</time>
      </trkpt>
      <trkpt lat="38.62916" lon="14.98381">
        <ele>3.98</ele>
        <time>2018-04-17T06:04:30Z</time>
      </trkpt>
      <trkpt lat="38.62938" lon="14.98407">
        <ele>4.46</ele>
        <time>2018-04-17T06:04:41Z</time>
      </trkpt>
      <trkpt lat="38.62962" lon="14.98433">
        <ele>3.98</ele>
        <time>2018-04-17T06:04:52Z</time>
      </trkpt>
      <trkpt lat="38.62989" lon="14.98465">
        <ele>3.02</ele>
        <time>2018-04-17T06:05:05Z</time>
      </trkpt>
      <trkpt lat="38.6302" lon="14.98499">
        <ele>3.02</ele>
        <time>2018-04-17T06:05:19Z</time>
      </trkpt>
      <trkpt lat="38.63047" lon="14.98531">
        <ele>2.54</ele>
        <time>2018-04-17T06:05:32Z</time>
      </trkpt>
      <trkpt lat="38.63079" lon="14.98558">
        <ele>3.98</ele>
        <time>2018-04-17T06:05:46Z</time>
      </trkpt>
      <trkpt lat="38.63108" lon="14.98584">
        <ele>4.46</ele>
        <time>2018-04-17T06:05:58Z</time>
      </trkpt>
      <trkpt lat="38.63133" lon="14.98607">
        <ele>4.46</ele>
        <time>2018-04-17T06:06:09Z</time>
      </trkpt>
      <trkpt lat="38.6316" lon="14.98634">
        <ele>4.94</ele>
        <time>2018-04-17T06:06:21Z</time>
      </trkpt>
      <trkpt lat="38.63189" lon="14.98663">
        <ele>5.42</ele>
        <time>2018-04-17T06:06:34Z</time>
      </trkpt>
      <trkpt lat="38.63215" lon="14.9869">
        <ele>4.94</ele>
        <time>2018-04-17T06:06:46Z</time>
      </trkpt>
      <trkpt lat="38.63241" lon="14.98717">
        <ele>4.46</ele>
        <time>2018-04-17T06:06:58Z</time>
      </trkpt>
      <trkpt lat="38.63263" lon="14.98739">
        <ele>4.46</ele>
        <time>2018-04-17T06:07:08Z</time>
      </trkpt>
      <trkpt lat="38.6329" lon="14.98767">
        <ele>3.98</ele>
        <time>2018-04-17T06:07:20Z</time>
      </trkpt>
      <trkpt lat="38.63323" lon="14.98801">
        <ele>3.02</ele>
        <time>2018-04-17T06:07:35Z</time>
      </trkpt>
      <trkpt lat="38.63355" lon="14.98833">
        <ele>2.54</ele>
        <time>2018-04-17T06:07:49Z</time>
      </trkpt>
      <trkpt lat="38.63383" lon="14.98863">
        <ele>2.06</ele>
        <time>2018-04-17T06:08:02Z</time>
      </trkpt>
      <trkpt lat="38.63408" lon="14.98887">
        <ele>2.54</ele>
        <time>2018-04-17T06:08:13Z</time>
      </trkpt>
      <trkpt lat="38.63437" lon="14.98918">
        <ele>3.02</ele>
        <time>2018-04-17T06:08:26Z</time>
      </trkpt>
      <trkpt lat="38.63472" lon="14.98954">
        <ele>3.02</ele>
        <time>2018-04-17T06:08:42Z</time>
      </trkpt>
      <trkpt lat="38.63501" lon="14.98984">
        <ele>3.5</ele>
        <time>2018-04-17T06:08:55Z</time>
      </trkpt>
      <trkpt lat="38.63534" lon="14.99018">
        <ele>3.5</ele>
        <time>2018-04-17T06:09:10Z</time>
      </trkpt>
      <trkpt lat="38.63566" lon="14.99049">
        <ele>3.5</ele>
        <time>2018-04-17T06:09:24Z</time>
      </trkpt>
      <trkpt lat="38.63594" lon="14.9908">
        <ele>3.02</ele>
        <time>2018-04-17T06:09:37Z</time>
      </trkpt>
      <trkpt lat="38.63628" lon="14.99115">
        <ele>3.02</ele>
        <time>2018-04-17T06:09:52Z</time>
      </trkpt>
      <trkpt lat="38.63634" lon="14.99121">
        <ele>3.02</ele>
        <time>2018-04-17T06:09:55Z</time>
      </trkpt>
      <trkpt lat="38.63648" lon="14.99134">
        <ele>2.06</ele>
        <time>2018-04-17T06:10:01Z</time>
      </trkpt>
      <trkpt lat="38.63675" lon="14.99163">
        <ele>1.58</ele>
        <time>2018-04-17T06:10:13Z</time>
      </trkpt>
      <trkpt lat="38.63699" lon="14.99189">
        <ele>2.06</ele>
        <time>2018-04-17T06:10:24Z</time>
      </trkpt>
      <trkpt lat="38.63731" lon="14.99221">
        <ele>1.1</ele>
        <time>2018-04-17T06:10:38Z</time>
      </trkpt>
      <trkpt lat="38.63749" lon="14.9924">
        <ele>0.62</ele>
        <time>2018-04-17T06:10:46Z</time>
      </trkpt>
      <trkpt lat="38.63777" lon="14.9927">
        <ele>1.58</ele>
        <time>2018-04-17T06:10:59Z</time>
      </trkpt>
      <trkpt lat="38.63806" lon="14.993">
        <ele>1.58</ele>
        <time>2018-04-17T06:11:12Z</time>
      </trkpt>
      <trkpt lat="38.63828" lon="14.99323">
        <ele>2.06</ele>
        <time>2018-04-17T06:11:22Z</time>
      </trkpt>
      <trkpt lat="38.63859" lon="14.99355">
        <ele>2.54</ele>
        <time>2018-04-17T06:11:36Z</time>
      </trkpt>
      <trkpt lat="38.63888" lon="14.99386">
        <ele>2.54</ele>
        <time>2018-04-17T06:11:49Z</time>
      </trkpt>
      <trkpt lat="38.63912" lon="14.99411">
        <ele>2.06</ele>
        <time>2018-04-17T06:12:00Z</time>
      </trkpt>
      <trkpt lat="38.63947" lon="14.99448">
        <ele>2.54</ele>
        <time>2018-04-17T06:12:16Z</time>
      </trkpt>
      <trkpt lat="38.6398" lon="14.99482">
        <ele>2.54</ele>
        <time>2018-04-17T06:12:31Z</time>
      </trkpt>
      <trkpt lat="38.64008" lon="14.99511">
        <ele>3.5</ele>
        <time>2018-04-17T06:12:44Z</time>
      </trkpt>
      <trkpt lat="38.64038" lon="14.99543">
        <ele>2.54</ele>
        <time>2018-04-17T06:12:58Z</time>
      </trkpt>
      <trkpt lat="38.64065" lon="14.9957">
        <ele>2.06</ele>
        <time>2018-04-17T06:13:10Z</time>
      </trkpt>
      <trkpt lat="38.64092" lon="14.99596">
        <ele>2.54</ele>
        <time>2018-04-17T06:13:22Z</time>
      </trkpt>
      <trkpt lat="38.64113" lon="14.9962">
        <ele>2.06</ele>
        <time>2018-04-17T06:13:32Z</time>
      </trkpt>
      <trkpt lat="38.64143" lon="14.99648">
        <ele>1.58</ele>
        <time>2018-04-17T06:13:45Z</time>
      </trkpt>
      <trkpt lat="38.64166" lon="14.99673">
        <ele>2.06</ele>
        <time>2018-04-17T06:13:56Z</time>
      </trkpt>
      <trkpt lat="38.64196" lon="14.99702">
        <ele>2.06</ele>
        <time>2018-04-17T06:14:09Z</time>
      </trkpt>
      <trkpt lat="38.64217" lon="14.99726">
        <ele>2.06</ele>
        <time>2018-04-17T06:14:19Z</time>
      </trkpt>
      <trkpt lat="38.64242" lon="14.99751">
        <ele>2.54</ele>
        <time>2018-04-17T06:14:30Z</time>
      </trkpt>
      <trkpt lat="38.64265" lon="14.99773">
        <ele>2.54</ele>
        <time>2018-04-17T06:14:40Z</time>
      </trkpt>
      <trkpt lat="38.6429" lon="14.99801">
        <ele>1.58</ele>
        <time>2018-04-17T06:14:52Z</time>
      </trkpt>
      <trkpt lat="38.64317" lon="14.9983">
        <ele>0.14</ele>
        <time>2018-04-17T06:15:04Z</time>
      </trkpt>
      <trkpt lat="38.64348" lon="14.9986">
        <ele>1.1</ele>
        <time>2018-04-17T06:15:18Z</time>
      </trkpt>
      <trkpt lat="38.64372" lon="14.99885">
        <ele>1.58</ele>
        <time>2018-04-17T06:15:29Z</time>
      </trkpt>
      <trkpt lat="38.6439" lon="14.99901">
        <ele>2.06</ele>
        <time>2018-04-17T06:15:37Z</time>
      </trkpt>
      <trkpt lat="38.64415" lon="14.99926">
        <ele>2.06</ele>
        <time>2018-04-17T06:15:48Z</time>
      </trkpt>
      <trkpt lat="38.64424" lon="14.99937">
        <ele>2.06</ele>
        <time>2018-04-17T06:15:52Z</time>
      </trkpt>
      <trkpt lat="38.64442" lon="14.99955">
        <ele>2.06</ele>
        <time>2018-04-17T06:15:59Z</time>
      </trkpt>
      <trkpt lat="38.64464" lon="14.99976">
        <ele>3.98</ele>
        <time>2018-04-17T06:16:08Z</time>
      </trkpt>
      <trkpt lat="38.64479" lon="14.99991">
        <ele>3.02</ele>
        <time>2018-04-17T06:16:15Z</time>
      </trkpt>
      <trkpt lat="38.64492" lon="15.00005">
        <ele>7.83</ele>
        <time>2018-04-17T06:16:21Z</time>
      </trkpt>
      <trkpt lat="38.64516" lon="15.00032">
        <ele>9.75</ele>
        <time>2018-04-17T06:16:33Z</time>
      </trkpt>
      <trkpt lat="38.64526" lon="15.0004">
        <ele>9.75</ele>
        <time>2018-04-17T06:16:37Z</time>
      </trkpt>
      <trkpt lat="38.64547" lon="15.00062">
        <ele>9.27</ele>
        <time>2018-04-17T06:16:47Z</time>
      </trkpt>
      <trkpt lat="38.64552" lon="15.00067">
        <ele>8.79</ele>
        <time>2018-04-17T06:16:49Z</time>
      </trkpt>
      <trkpt lat="38.64573" lon="15.00089">
        <ele>7.83</ele>
        <time>2018-04-17T06:16:59Z</time>
      </trkpt>
      <trkpt lat="38.646" lon="15.00118">
        <ele>10.23</ele>
        <time>2018-04-17T06:17:12Z</time>
      </trkpt>
      <trkpt lat="38.64627" lon="15.00147">
        <ele>10.71</ele>
        <time>2018-04-17T06:17:25Z</time>
      </trkpt>
      <trkpt lat="38.64634" lon="15.00154">
        <ele>10.71</ele>
        <time>2018-04-17T06:17:28Z</time>
      </trkpt>
      <trkpt lat="38.64659" lon="15.00182">
        <ele>11.67</ele>
        <time>2018-04-17T06:17:40Z</time>
      </trkpt>
      <trkpt lat="38.64691" lon="15.00215">
        <ele>11.19</ele>
        <time>2018-04-17T06:17:55Z</time>
      </trkpt>
      <trkpt lat="38.64703" lon="15.00226">
        <ele>10.71</ele>
        <time>2018-04-17T06:18:00Z</time>
      </trkpt>
      <trkpt lat="38.64711" lon="15.00234">
        <ele>10.71</ele>
        <time>2018-04-17T06:18:04Z</time>
      </trkpt>
      <trkpt lat="38.64734" lon="15.00259">
        <ele>10.23</ele>
        <time>2018-04-17T06:18:15Z</time>
      </trkpt>
      <trkpt lat="38.64759" lon="15.00284">
        <ele>9.75</ele>
        <time>2018-04-17T06:18:26Z</time>
      </trkpt>
      <trkpt lat="38.64785" lon="15.00312">
        <ele>9.75</ele>
        <time>2018-04-17T06:18:38Z</time>
      </trkpt>
      <trkpt lat="38.64809" lon="15.00336">
        <ele>10.71</ele>
        <time>2018-04-17T06:18:49Z</time>
      </trkpt>
      <trkpt lat="38.64836" lon="15.00366">
        <ele>10.23</ele>
        <time>2018-04-17T06:19:02Z</time>
      </trkpt>
      <trkpt lat="38.64864" lon="15.00395">
        <ele>9.75</ele>
        <time>2018-04-17T06:19:15Z</time>
      </trkpt>
      <trkpt lat="38.64889" lon="15.00422">
        <ele>11.19</ele>
        <time>2018-04-17T06:19:27Z</time>
      </trkpt>
      <trkpt lat="38.64911" lon="15.00447">
        <ele>12.15</ele>
        <time>2018-04-17T06:19:38Z</time>
      </trkpt>
      <trkpt lat="38.64941" lon="15.00479">
        <ele>11.19</ele>
        <time>2018-04-17T06:19:52Z</time>
      </trkpt>
      <trkpt lat="38.64945" lon="15.00483">
        <ele>10.71</ele>
        <time>2018-04-17T06:19:54Z</time>
      </trkpt>
      <trkpt lat="38.64953" lon="15.00491">
        <ele>9.75</ele>
        <time>2018-04-17T06:19:59Z</time>
      </trkpt>
      <trkpt lat="38.64982" lon="15.00515">
        <ele>7.83</ele>
        <time>2018-04-17T06:20:12Z</time>
      </trkpt>
      <trkpt lat="38.65005" lon="15.0054">
        <ele>6.87</ele>
        <time>2018-04-17T06:20:23Z</time>
      </trkpt>
      <trkpt lat="38.65032" lon="15.00566">
        <ele>6.87</ele>
        <time>2018-04-17T06:20:35Z</time>
      </trkpt>
      <trkpt lat="38.65054" lon="15.00591">
        <ele>4.94</ele>
        <time>2018-04-17T06:20:44Z</time>
      </trkpt>
      <trkpt lat="38.65078" lon="15.00618">
        <ele>4.94</ele>
        <time>2018-04-17T06:20:55Z</time>
      </trkpt>
      <trkpt lat="38.65099" lon="15.0064">
        <ele>5.42</ele>
        <time>2018-04-17T06:21:05Z</time>
      </trkpt>
      <trkpt lat="38.65125" lon="15.00668">
        <ele>4.94</ele>
        <time>2018-04-17T06:21:17Z</time>
      </trkpt>
      <trkpt lat="38.65149" lon="15.00693">
        <ele>4.46</ele>
        <time>2018-04-17T06:21:28Z</time>
      </trkpt>
      <trkpt lat="38.65164" lon="15.00709">
        <ele>3.98</ele>
        <time>2018-04-17T06:21:35Z</time>
      </trkpt>
      <trkpt lat="38.65188" lon="15.00732">
        <ele>3.5</ele>
        <time>2018-04-17T06:21:46Z</time>
      </trkpt>
      <trkpt lat="38.65214" lon="15.00759">
        <ele>2.06</ele>
        <time>2018-04-17T06:21:58Z</time>
      </trkpt>
      <trkpt lat="38.65236" lon="15.00781">
        <ele>0.14</ele>
        <time>2018-04-17T06:22:09Z</time>
      </trkpt>
      <trkpt lat="38.65246" lon="15.00793">
        <ele>-0.82</ele>
        <time>2018-04-17T06:22:14Z</time>
      </trkpt>
      <trkpt lat="38.65276" lon="15.00825">
        <ele>-1.79</ele>
        <time>2018-04-17T06:22:28Z</time>
      </trkpt>
      <trkpt lat="38.65298" lon="15.00848">
        <ele>-0.34</ele>
        <time>2018-04-17T06:22:38Z</time>
      </trkpt>
      <trkpt lat="38.6532" lon="15.00875">
        <ele>2.54</ele>
        <time>2018-04-17T06:22:49Z</time>
      </trkpt>
      <trkpt lat="38.65344" lon="15.00901">
        <ele>7.83</ele>
        <time>2018-04-17T06:23:01Z</time>
      </trkpt>
      <trkpt lat="38.6537" lon="15.00928">
        <ele>8.79</ele>
        <time>2018-04-17T06:23:13Z</time>
      </trkpt>
      <trkpt lat="38.65399" lon="15.00959">
        <ele>8.31</ele>
        <time>2018-04-17T06:23:27Z</time>
      </trkpt>
      <trkpt lat="38.65422" lon="15.00983">
        <ele>7.35</ele>
        <time>2018-04-17T06:23:38Z</time>
      </trkpt>
      <trkpt lat="38.65447" lon="15.01011">
        <ele>8.31</ele>
        <time>2018-04-17T06:23:50Z</time>
      </trkpt>
      <trkpt lat="38.65473" lon="15.01039">
        <ele>8.31</ele>
        <time>2018-04-17T06:24:03Z</time>
      </trkpt>
      <trkpt lat="38.655" lon="15.01068">
        <ele>9.75</ele>
        <time>2018-04-17T06:24:16Z</time>
      </trkpt>
      <trkpt lat="38.65527" lon="15.01095">
        <ele>11.19</ele>
        <time>2018-04-17T06:24:28Z</time>
      </trkpt>
      <trkpt lat="38.65555" lon="15.01125">
        <ele>10.23</ele>
        <time>2018-04-17T06:24:41Z</time>
      </trkpt>
      <trkpt lat="38.6558" lon="15.01152">
        <ele>9.75</ele>
        <time>2018-04-17T06:24:53Z</time>
      </trkpt>
      <trkpt lat="38.656" lon="15.01173">
        <ele>8.79</ele>
        <time>2018-04-17T06:25:02Z</time>
      </trkpt>
      <trkpt lat="38.65615" lon="15.01189">
        <ele>8.31</ele>
        <time>2018-04-17T06:25:09Z</time>
      </trkpt>
      <trkpt lat="38.6564" lon="15.01215">
        <ele>8.31</ele>
        <time>2018-04-17T06:25:21Z</time>
      </trkpt>
      <trkpt lat="38.65663" lon="15.01239">
        <ele>8.31</ele>
        <time>2018-04-17T06:25:32Z</time>
      </trkpt>
      <trkpt lat="38.65693" lon="15.01273">
        <ele>8.31</ele>
        <time>2018-04-17T06:25:47Z</time>
      </trkpt>
      <trkpt lat="38.65718" lon="15.01301">
        <ele>8.31</ele>
        <time>2018-04-17T06:25:59Z</time>
      </trkpt>
      <trkpt lat="38.65725" lon="15.01308">
        <ele>8.31</ele>
        <time>2018-04-17T06:26:02Z</time>
      </trkpt>
      <trkpt lat="38.65753" lon="15.01337">
        <ele>6.39</ele>
        <time>2018-04-17T06:26:15Z</time>
      </trkpt>
      <trkpt lat="38.65777" lon="15.01362">
        <ele>7.35</ele>
        <time>2018-04-17T06:26:26Z</time>
      </trkpt>
      <trkpt lat="38.65801" lon="15.01389">
        <ele>7.35</ele>
        <time>2018-04-17T06:26:38Z</time>
      </trkpt>
      <trkpt lat="38.65825" lon="15.01416">
        <ele>5.42</ele>
        <time>2018-04-17T06:26:50Z</time>
      </trkpt>
      <trkpt lat="38.65849" lon="15.0144">
        <ele>3.5</ele>
        <time>2018-04-17T06:27:01Z</time>
      </trkpt>
      <trkpt lat="38.65877" lon="15.0147">
        <ele>3.5</ele>
        <time>2018-04-17T06:27:14Z</time>
      </trkpt>
      <trkpt lat="38.65894" lon="15.01488">
        <ele>4.46</ele>
        <time>2018-04-17T06:27:22Z</time>
      </trkpt>
      <trkpt lat="38.65904" lon="15.015">
        <ele>4.94</ele>
        <time>2018-04-17T06:27:27Z</time>
      </trkpt>
      <trkpt lat="38.65939" lon="15.01538">
        <ele>6.39</ele>
        <time>2018-04-17T06:27:43Z</time>
      </trkpt>
      <trkpt lat="38.65963" lon="15.01566">
        <ele>6.87</ele>
        <time>2018-04-17T06:27:55Z</time>
      </trkpt>
      <trkpt lat="38.65986" lon="15.0159">
        <ele>5.91</ele>
        <time>2018-04-17T06:28:06Z</time>
      </trkpt>
      <trkpt lat="38.66013" lon="15.01619">
        <ele>5.42</ele>
        <time>2018-04-17T06:28:19Z</time>
      </trkpt>
      <trkpt lat="38.66035" lon="15.01641">
        <ele>4.46</ele>
        <time>2018-04-17T06:28:29Z</time>
      </trkpt>
      <trkpt lat="38.66058" lon="15.01666">
        <ele>4.94</ele>
        <time>2018-04-17T06:28:40Z</time>
      </trkpt>
      <trkpt lat="38.66084" lon="15.01695">
        <ele>4.46</ele>
        <time>2018-04-17T06:28:53Z</time>
      </trkpt>
      <trkpt lat="38.66105" lon="15.01718">
        <ele>4.46</ele>
        <time>2018-04-17T06:29:03Z</time>
      </trkpt>
      <trkpt lat="38.66132" lon="15.01748">
        <ele>4.46</ele>
        <time>2018-04-17T06:29:16Z</time>
      </trkpt>
      <trkpt lat="38.66155" lon="15.01772">
        <ele>3.5</ele>
        <time>2018-04-17T06:29:27Z</time>
      </trkpt>
      <trkpt lat="38.66176" lon="15.01795">
        <ele>3.5</ele>
        <time>2018-04-17T06:29:37Z</time>
      </trkpt>
      <trkpt lat="38.66198" lon="15.0182">
        <ele>3.02</ele>
        <time>2018-04-17T06:29:48Z</time>
      </trkpt>
      <trkpt lat="38.66222" lon="15.01847">
        <ele>4.46</ele>
        <time>2018-04-17T06:30:00Z</time>
      </trkpt>
      <trkpt lat="38.6625" lon="15.01877">
        <ele>3.02</ele>
        <time>2018-04-17T06:30:13Z</time>
      </trkpt>
      <trkpt lat="38.66275" lon="15.01903">
        <ele>2.06</ele>
        <time>2018-04-17T06:30:25Z</time>
      </trkpt>
      <trkpt lat="38.66303" lon="15.01934">
        <ele>1.1</ele>
        <time>2018-04-17T06:30:39Z</time>
      </trkpt>
      <trkpt lat="38.6633" lon="15.01963">
        <ele>2.06</ele>
        <time>2018-04-17T06:30:51Z</time>
      </trkpt>
      <trkpt lat="38.66349" lon="15.01987">
        <ele>2.54</ele>
        <time>2018-04-17T06:31:01Z</time>
      </trkpt>
      <trkpt lat="38.6637" lon="15.0201">
        <ele>4.46</ele>
        <time>2018-04-17T06:31:12Z</time>
      </trkpt>
      <trkpt lat="38.6639" lon="15.02031">
        <ele>4.46</ele>
        <time>2018-04-17T06:31:23Z</time>
      </trkpt>
      <trkpt lat="38.66412" lon="15.02055">
        <ele>4.94</ele>
        <time>2018-04-17T06:31:34Z</time>
      </trkpt>
      <trkpt lat="38.66436" lon="15.02083">
        <ele>5.42</ele>
        <time>2018-04-17T06:31:46Z</time>
      </trkpt>
      <trkpt lat="38.66461" lon="15.02111">
        <ele>6.39</ele>
        <time>2018-04-17T06:31:58Z</time>
      </trkpt>
      <trkpt lat="38.66492" lon="15.02145">
        <ele>6.39</ele>
        <time>2018-04-17T06:32:13Z</time>
      </trkpt>
      <trkpt lat="38.66514" lon="15.0217">
        <ele>6.87</ele>
        <time>2018-04-17T06:32:24Z</time>
      </trkpt>
      <trkpt lat="38.66537" lon="15.02195">
        <ele>6.39</ele>
        <time>2018-04-17T06:32:35Z</time>
      </trkpt>
      <trkpt lat="38.66559" lon="15.0222">
        <ele>6.39</ele>
        <time>2018-04-17T06:32:46Z</time>
      </trkpt>
      <trkpt lat="38.66585" lon="15.02248">
        <ele>5.91</ele>
        <time>2018-04-17T06:32:58Z</time>
      </trkpt>
      <trkpt lat="38.66593" lon="15.02257">
        <ele>5.91</ele>
        <time>2018-04-17T06:33:02Z</time>
      </trkpt>
      <trkpt lat="38.66596" lon="15.02261">
        <ele>5.91</ele>
        <time>2018-04-17T06:33:04Z</time>
      </trkpt>
      <trkpt lat="38.66614" lon="15.02283">
        <ele>4.94</ele>
        <time>2018-04-17T06:33:14Z</time>
      </trkpt>
      <trkpt lat="38.66648" lon="15.0232">
        <ele>4.94</ele>
        <time>2018-04-17T06:33:30Z</time>
      </trkpt>
      <trkpt lat="38.66673" lon="15.02348">
        <ele>4.94</ele>
        <time>2018-04-17T06:33:42Z</time>
      </trkpt>
      <trkpt lat="38.66704" lon="15.02382">
        <ele>3.98</ele>
        <time>2018-04-17T06:33:57Z</time>
      </trkpt>
      <trkpt lat="38.66735" lon="15.02417">
        <ele>3.5</ele>
        <time>2018-04-17T06:34:12Z</time>
      </trkpt>
      <trkpt lat="38.66769" lon="15.02454">
        <ele>3.5</ele>
        <time>2018-04-17T06:34:28Z</time>
      </trkpt>
      <trkpt lat="38.66795" lon="15.02484">
        <ele>3.5</ele>
        <time>2018-04-17T06:34:41Z</time>
      </trkpt>
      <trkpt lat="38.66822" lon="15.02513">
        <ele>4.46</ele>
        <time>2018-04-17T06:34:54Z</time>
      </trkpt>
      <trkpt lat="38.66852" lon="15.02547">
        <ele>3.5</ele>
        <time>2018-04-17T06:35:09Z</time>
      </trkpt>
      <trkpt lat="38.66877" lon="15.02576">
        <ele>2.54</ele>
        <time>2018-04-17T06:35:21Z</time>
      </trkpt>
      <trkpt lat="38.66906" lon="15.02608">
        <ele>2.54</ele>
        <time>2018-04-17T06:35:35Z</time>
      </trkpt>
      <trkpt lat="38.66937" lon="15.02642">
        <ele>3.02</ele>
        <time>2018-04-17T06:35:50Z</time>
      </trkpt>
      <trkpt lat="38.66964" lon="15.02672">
        <ele>3.5</ele>
        <time>2018-04-17T06:36:03Z</time>
      </trkpt>
      <trkpt lat="38.66991" lon="15.02702">
        <ele>3.5</ele>
        <time>2018-04-17T06:36:16Z</time>
      </trkpt>
      <trkpt lat="38.67016" lon="15.0273">
        <ele>3.5</ele>
        <time>2018-04-17T06:36:28Z</time>
      </trkpt>
      <trkpt lat="38.67046" lon="15.02762">
        <ele>3.02</ele>
        <time>2018-04-17T06:36:42Z</time>
      </trkpt>
      <trkpt lat="38.67071" lon="15.0279">
        <ele>3.5</ele>
        <time>2018-04-17T06:36:54Z</time>
      </trkpt>
      <trkpt lat="38.67102" lon="15.02823">
        <ele>3.98</ele>
        <time>2018-04-17T06:37:09Z</time>
      </trkpt>
      <trkpt lat="38.67127" lon="15.02853">
        <ele>4.46</ele>
        <time>2018-04-17T06:37:22Z</time>
      </trkpt>
      <trkpt lat="38.67155" lon="15.02882">
        <ele>4.94</ele>
        <time>2018-04-17T06:37:35Z</time>
      </trkpt>
      <trkpt lat="38.67185" lon="15.02914">
        <ele>4.94</ele>
        <time>2018-04-17T06:37:49Z</time>
      </trkpt>
      <trkpt lat="38.67214" lon="15.02947">
        <ele>4.46</ele>
        <time>2018-04-17T06:38:03Z</time>
      </trkpt>
      <trkpt lat="38.67242" lon="15.0298">
        <ele>4.94</ele>
        <time>2018-04-17T06:38:17Z</time>
      </trkpt>
      <trkpt lat="38.67267" lon="15.03008">
        <ele>4.94</ele>
        <time>2018-04-17T06:38:29Z</time>
      </trkpt>
      <trkpt lat="38.67295" lon="15.03041">
        <ele>3.98</ele>
        <time>2018-04-17T06:38:43Z</time>
      </trkpt>
      <trkpt lat="38.6732" lon="15.0307">
        <ele>2.54</ele>
        <time>2018-04-17T06:38:55Z</time>
      </trkpt>
      <trkpt lat="38.67355" lon="15.03108">
        <ele>2.54</ele>
        <time>2018-04-17T06:39:12Z</time>
      </trkpt>
      <trkpt lat="38.67377" lon="15.03132">
        <ele>3.5</ele>
        <time>2018-04-17T06:39:23Z</time>
      </trkpt>
      <trkpt lat="38.67405" lon="15.03163">
        <ele>4.46</ele>
        <time>2018-04-17T06:39:37Z</time>
      </trkpt>
      <trkpt lat="38.67428" lon="15.03188">
        <ele>4.94</ele>
        <time>2018-04-17T06:39:48Z</time>
      </trkpt>
      <trkpt lat="38.67446" lon="15.03208">
        <ele>4.94</ele>
        <time>2018-04-17T06:39:57Z</time>
      </trkpt>
      <trkpt lat="38.67463" lon="15.03227">
        <ele>5.42</ele>
        <time>2018-04-17T06:40:05Z</time>
      </trkpt>
      <trkpt lat="38.67491" lon="15.03256">
        <ele>5.91</ele>
        <time>2018-04-17T06:40:18Z</time>
      </trkpt>
      <trkpt lat="38.67521" lon="15.0329">
        <ele>6.87</ele>
        <time>2018-04-17T06:40:33Z</time>
      </trkpt>
      <trkpt lat="38.67546" lon="15.03317">
        <ele>6.39</ele>
        <time>2018-04-17T06:40:45Z</time>
      </trkpt>
      <trkpt lat="38.67575" lon="15.0335">
        <ele>5.42</ele>
        <time>2018-04-17T06:40:59Z</time>
      </trkpt>
      <trkpt lat="38.67595" lon="15.03372">
        <ele>4.94</ele>
        <time>2018-04-17T06:41:09Z</time>
      </trkpt>
      <trkpt lat="38.67622" lon="15.03401">
        <ele>5.42</ele>
        <time>2018-04-17T06:41:22Z</time>
      </trkpt>
      <trkpt lat="38.67649" lon="15.03431">
        <ele>6.39</ele>
        <time>2018-04-17T06:41:35Z</time>
      </trkpt>
      <trkpt lat="38.67655" lon="15.03438">
        <ele>5.91</ele>
        <time>2018-04-17T06:41:38Z</time>
      </trkpt>
      <trkpt lat="38.67684" lon="15.03469">
        <ele>7.83</ele>
        <time>2018-04-17T06:41:52Z</time>
      </trkpt>
      <trkpt lat="38.67709" lon="15.03496">
        <ele>7.83</ele>
        <time>2018-04-17T06:42:04Z</time>
      </trkpt>
      <trkpt lat="38.67736" lon="15.03528">
        <ele>6.87</ele>
        <time>2018-04-17T06:42:17Z</time>
      </trkpt>
      <trkpt lat="38.67761" lon="15.03556">
        <ele>6.39</ele>
        <time>2018-04-17T06:42:29Z</time>
      </trkpt>
      <trkpt lat="38.67792" lon="15.03591">
        <ele>5.91</ele>
        <time>2018-04-17T06:42:44Z</time>
      </trkpt>
      <trkpt lat="38.67828" lon="15.0363">
        <ele>4.46</ele>
        <time>2018-04-17T06:43:01Z</time>
      </trkpt>
      <trkpt lat="38.67856" lon="15.0366">
        <ele>3.98</ele>
        <time>2018-04-17T06:43:14Z</time>
      </trkpt>
      <trkpt lat="38.67883" lon="15.0369">
        <ele>4.46</ele>
        <time>2018-04-17T06:43:27Z</time>
      </trkpt>
      <trkpt lat="38.6791" lon="15.03721">
        <ele>3.98</ele>
        <time>2018-04-17T06:43:40Z</time>
      </trkpt>
      <trkpt lat="38.67938" lon="15.03754">
        <ele>3.02</ele>
        <time>2018-04-17T06:43:54Z</time>
      </trkpt>
      <trkpt lat="38.67962" lon="15.03778">
        <ele>2.54</ele>
        <time>2018-04-17T06:44:05Z</time>
      </trkpt>
      <trkpt lat="38.67985" lon="15.03803">
        <ele>2.06</ele>
        <time>2018-04-17T06:44:16Z</time>
      </trkpt>
      <trkpt lat="38.68014" lon="15.03835">
        <ele>2.54</ele>
        <time>2018-04-17T06:44:30Z</time>
      </trkpt>
      <trkpt lat="38.68041" lon="15.03865">
        <ele>3.02</ele>
        <time>2018-04-17T06:44:43Z</time>
      </trkpt>
      <trkpt lat="38.68068" lon="15.03896">
        <ele>3.5</ele>
        <time>2018-04-17T06:44:56Z</time>
      </trkpt>
      <trkpt lat="38.68094" lon="15.03924">
        <ele>3.5</ele>
        <time>2018-04-17T06:45:08Z</time>
      </trkpt>
      <trkpt lat="38.68117" lon="15.0395">
        <ele>4.46</ele>
        <time>2018-04-17T06:45:19Z</time>
      </trkpt>
      <trkpt lat="38.68123" lon="15.03957">
        <ele>3.98</ele>
        <time>2018-04-17T06:45:22Z</time>
      </trkpt>
      <trkpt lat="38.68146" lon="15.03981">
        <ele>2.54</ele>
        <time>2018-04-17T06:45:33Z</time>
      </trkpt>
      <trkpt lat="38.68165" lon="15.04001">
        <ele>1.58</ele>
        <time>2018-04-17T06:45:42Z</time>
      </trkpt>
      <trkpt lat="38.68192" lon="15.0403">
        <ele>2.54</ele>
        <time>2018-04-17T06:45:55Z</time>
      </trkpt>
      <trkpt lat="38.68222" lon="15.04063">
        <ele>3.02</ele>
        <time>2018-04-17T06:46:09Z</time>
      </trkpt>
      <trkpt lat="38.6825" lon="15.04091">
        <ele>3.5</ele>
        <time>2018-04-17T06:46:22Z</time>
      </trkpt>
      <trkpt lat="38.68273" lon="15.04115">
        <ele>3.5</ele>
        <time>2018-04-17T06:46:33Z</time>
      </trkpt>
      <trkpt lat="38.68297" lon="15.04139">
        <ele>3.02</ele>
        <time>2018-04-17T06:46:44Z</time>
      </trkpt>
      <trkpt lat="38.68327" lon="15.04172">
        <ele>2.54</ele>
        <time>2018-04-17T06:46:58Z</time>
      </trkpt>
      <trkpt lat="38.68354" lon="15.04201">
        <ele>2.54</ele>
        <time>2018-04-17T06:47:11Z</time>
      </trkpt>
      <trkpt lat="38.68382" lon="15.0423">
        <ele>2.54</ele>
        <time>2018-04-17T06:47:24Z</time>
      </trkpt>
      <trkpt lat="38.68411" lon="15.0426">
        <ele>3.02</ele>
        <time>2018-04-17T06:47:38Z</time>
      </trkpt>
      <trkpt lat="38.68442" lon="15.0429">
        <ele>2.54</ele>
        <time>2018-04-17T06:47:52Z</time>
      </trkpt>
      <trkpt lat="38.68472" lon="15.04322">
        <ele>3.5</ele>
        <time>2018-04-17T06:48:06Z</time>
      </trkpt>
      <trkpt lat="38.68502" lon="15.04353">
        <ele>4.46</ele>
        <time>2018-04-17T06:48:20Z</time>
      </trkpt>
      <trkpt lat="38.68532" lon="15.04384">
        <ele>3.5</ele>
        <time>2018-04-17T06:48:34Z</time>
      </trkpt>
      <trkpt lat="38.6856" lon="15.04412">
        <ele>3.98</ele>
        <time>2018-04-17T06:48:47Z</time>
      </trkpt>
      <trkpt lat="38.68595" lon="15.04447">
        <ele>3.98</ele>
        <time>2018-04-17T06:49:03Z</time>
      </trkpt>
      <trkpt lat="38.68623" lon="15.04476">
        <ele>3.98</ele>
        <time>2018-04-17T06:49:16Z</time>
      </trkpt>
      <trkpt lat="38.68652" lon="15.04505">
        <ele>3.5</ele>
        <time>2018-04-17T06:49:29Z</time>
      </trkpt>
      <trkpt lat="38.6868" lon="15.04533">
        <ele>3.02</ele>
        <time>2018-04-17T06:49:42Z</time>
      </trkpt>
      <trkpt lat="38.68704" lon="15.04558">
        <ele>3.5</ele>
        <time>2018-04-17T06:49:53Z</time>
      </trkpt>
      <trkpt lat="38.68727" lon="15.04579">
        <ele>3.98</ele>
        <time>2018-04-17T06:50:03Z</time>
      </trkpt>
      <trkpt lat="38.68757" lon="15.04611">
        <ele>4.46</ele>
        <time>2018-04-17T06:50:17Z</time>
      </trkpt>
      <trkpt lat="38.68761" lon="15.04615">
        <ele>4.46</ele>
        <time>2018-04-17T06:50:19Z</time>
      </trkpt>
      <trkpt lat="38.68776" lon="15.04631">
        <ele>3.98</ele>
        <time>2018-04-17T06:50:26Z</time>
      </trkpt>
      <trkpt lat="38.68805" lon="15.04658">
        <ele>3.5</ele>
        <time>2018-04-17T06:50:39Z</time>
      </trkpt>
      <trkpt lat="38.68832" lon="15.04685">
        <ele>3.5</ele>
        <time>2018-04-17T06:50:51Z</time>
      </trkpt>
      <trkpt lat="38.68858" lon="15.04711">
        <ele>3.98</ele>
        <time>2018-04-17T06:51:03Z</time>
      </trkpt>
      <trkpt lat="38.68882" lon="15.04735">
        <ele>3.5</ele>
        <time>2018-04-17T06:51:14Z</time>
      </trkpt>
      <trkpt lat="38.68911" lon="15.04764">
        <ele>4.46</ele>
        <time>2018-04-17T06:51:27Z</time>
      </trkpt>
      <trkpt lat="38.68935" lon="15.04787">
        <ele>4.46</ele>
        <time>2018-04-17T06:51:38Z</time>
      </trkpt>
      <trkpt lat="38.68964" lon="15.04814">
        <ele>4.94</ele>
        <time>2018-04-17T06:51:51Z</time>
      </trkpt>
      <trkpt lat="38.68989" lon="15.04839">
        <ele>4.94</ele>
        <time>2018-04-17T06:52:02Z</time>
      </trkpt>
      <trkpt lat="38.69026" lon="15.04875">
        <ele>4.46</ele>
        <time>2018-04-17T06:52:19Z</time>
      </trkpt>
      <trkpt lat="38.69056" lon="15.04906">
        <ele>3.98</ele>
        <time>2018-04-17T06:52:33Z</time>
      </trkpt>
      <trkpt lat="38.69085" lon="15.04935">
        <ele>3.98</ele>
        <time>2018-04-17T06:52:46Z</time>
      </trkpt>
      <trkpt lat="38.69124" lon="15.04974">
        <ele>3.5</ele>
        <time>2018-04-17T06:53:04Z</time>
      </trkpt>
      <trkpt lat="38.69157" lon="15.05007">
        <ele>3.5</ele>
        <time>2018-04-17T06:53:19Z</time>
      </trkpt>
      <trkpt lat="38.69182" lon="15.05031">
        <ele>2.54</ele>
        <time>2018-04-17T06:53:30Z</time>
      </trkpt>
      <trkpt lat="38.69206" lon="15.05057">
        <ele>2.54</ele>
        <time>2018-04-17T06:53:41Z</time>
      </trkpt>
      <trkpt lat="38.69232" lon="15.05081">
        <ele>1.1</ele>
        <time>2018-04-17T06:53:52Z</time>
      </trkpt>
      <trkpt lat="38.69258" lon="15.05108">
        <ele>0.62</ele>
        <time>2018-04-17T06:54:04Z</time>
      </trkpt>
      <trkpt lat="38.69284" lon="15.05135">
        <ele>2.06</ele>
        <time>2018-04-17T06:54:16Z</time>
      </trkpt>
      <trkpt lat="38.69311" lon="15.05162">
        <ele>1.58</ele>
        <time>2018-04-17T06:54:28Z</time>
      </trkpt>
      <trkpt lat="38.69338" lon="15.05189">
        <ele>2.06</ele>
        <time>2018-04-17T06:54:40Z</time>
      </trkpt>
      <trkpt lat="38.6936" lon="15.0521">
        <ele>1.1</ele>
        <time>2018-04-17T06:54:50Z</time>
      </trkpt>
      <trkpt lat="38.69387" lon="15.05237">
        <ele>1.58</ele>
        <time>2018-04-17T06:55:03Z</time>
      </trkpt>
      <trkpt lat="38.69418" lon="15.05268">
        <ele>1.58</ele>
        <time>2018-04-17T06:55:17Z</time>
      </trkpt>
      <trkpt lat="38.69446" lon="15.05296">
        <ele>1.58</ele>
        <time>2018-04-17T06:55:30Z</time>
      </trkpt>
      <trkpt lat="38.69478" lon="15.05327">
        <ele>2.06</ele>
        <time>2018-04-17T06:55:45Z</time>
      </trkpt>
      <trkpt lat="38.69507" lon="15.05355">
        <ele>2.54</ele>
        <time>2018-04-17T06:55:58Z</time>
      </trkpt>
      <trkpt lat="38.6954" lon="15.05386">
        <ele>2.54</ele>
        <time>2018-04-17T06:56:13Z</time>
      </trkpt>
      <trkpt lat="38.6957" lon="15.05418">
        <ele>3.5</ele>
        <time>2018-04-17T06:56:27Z</time>
      </trkpt>
      <trkpt lat="38.69598" lon="15.05446">
        <ele>3.98</ele>
        <time>2018-04-17T06:56:40Z</time>
      </trkpt>
      <trkpt lat="38.69631" lon="15.05479">
        <ele>4.46</ele>
        <time>2018-04-17T06:56:55Z</time>
      </trkpt>
      <trkpt lat="38.69661" lon="15.05507">
        <ele>4.46</ele>
        <time>2018-04-17T06:57:08Z</time>
      </trkpt>
      <trkpt lat="38.69691" lon="15.05537">
        <ele>4.94</ele>
        <time>2018-04-17T06:57:22Z</time>
      </trkpt>
      <trkpt lat="38.69721" lon="15.05568">
        <ele>4.94</ele>
        <time>2018-04-17T06:57:36Z</time>
      </trkpt>
      <trkpt lat="38.69755" lon="15.05601">
        <ele>3.98</ele>
        <time>2018-04-17T06:57:51Z</time>
      </trkpt>
      <trkpt lat="38.69789" lon="15.05635">
        <ele>3.98</ele>
        <time>2018-04-17T06:58:07Z</time>
      </trkpt>
      <trkpt lat="38.69816" lon="15.0566">
        <ele>2.54</ele>
        <time>2018-04-17T06:58:19Z</time>
      </trkpt>
      <trkpt lat="38.69847" lon="15.05692">
        <ele>0.62</ele>
        <time>2018-04-17T06:58:33Z</time>
      </trkpt>
      <trkpt lat="38.69881" lon="15.05725">
        <ele>0.14</ele>
        <time>2018-04-17T06:58:48Z</time>
      </trkpt>
      <trkpt lat="38.6991" lon="15.05753">
        <ele>1.1</ele>
        <time>2018-04-17T06:59:01Z</time>
      </trkpt>
      <trkpt lat="38.6994" lon="15.05784">
        <ele>1.58</ele>
        <time>2018-04-17T06:59:15Z</time>
      </trkpt>
      <trkpt lat="38.69971" lon="15.05814">
        <ele>0.62</ele>
        <time>2018-04-17T06:59:29Z</time>
      </trkpt>
      <trkpt lat="38.69999" lon="15.0584">
        <ele>0.62</ele>
        <time>2018-04-17T06:59:42Z</time>
      </trkpt>
      <trkpt lat="38.70025" lon="15.05866">
        <ele>-1.3</ele>
        <time>2018-04-17T06:59:54Z</time>
      </trkpt>
      <trkpt lat="38.70049" lon="15.05893">
        <ele>-1.3</ele>
        <time>2018-04-17T07:00:06Z</time>
      </trkpt>
      <trkpt lat="38.70095" lon="15.05935">
        <ele>0.14</ele>
        <time>2018-04-17T07:00:26Z</time>
      </trkpt>
      <trkpt lat="38.70131" lon="15.05971">
        <ele>0.62</ele>
        <time>2018-04-17T07:00:42Z</time>
      </trkpt>
      <trkpt lat="38.70163" lon="15.06006">
        <ele>-0.34</ele>
        <time>2018-04-17T07:00:57Z</time>
      </trkpt>
      <trkpt lat="38.70193" lon="15.06035">
        <ele>-0.82</ele>
        <time>2018-04-17T07:01:11Z</time>
      </trkpt>
      <trkpt lat="38.70222" lon="15.06064">
        <ele>1.58</ele>
        <time>2018-04-17T07:01:25Z</time>
      </trkpt>
      <trkpt lat="38.70248" lon="15.0609">
        <ele>2.06</ele>
        <time>2018-04-17T07:01:37Z</time>
      </trkpt>
      <trkpt lat="38.70273" lon="15.06114">
        <ele>2.06</ele>
        <time>2018-04-17T07:01:49Z</time>
      </trkpt>
      <trkpt lat="38.70301" lon="15.0614">
        <ele>2.54</ele>
        <time>2018-04-17T07:02:02Z</time>
      </trkpt>
      <trkpt lat="38.70326" lon="15.06167">
        <ele>4.46</ele>
        <time>2018-04-17T07:02:14Z</time>
      </trkpt>
      <trkpt lat="38.70365" lon="15.06206">
        <ele>4.46</ele>
        <time>2018-04-17T07:02:32Z</time>
      </trkpt>
      <trkpt lat="38.70391" lon="15.06232">
        <ele>4.46</ele>
        <time>2018-04-17T07:02:44Z</time>
      </trkpt>
      <trkpt lat="38.70419" lon="15.06259">
        <ele>3.98</ele>
        <time>2018-04-17T07:02:57Z</time>
      </trkpt>
      <trkpt lat="38.70449" lon="15.06288">
        <ele>3.98</ele>
        <time>2018-04-17T07:03:10Z</time>
      </trkpt>
      <trkpt lat="38.70478" lon="15.06319">
        <ele>4.46</ele>
        <time>2018-04-17T07:03:24Z</time>
      </trkpt>
      <trkpt lat="38.70507" lon="15.06346">
        <ele>4.46</ele>
        <time>2018-04-17T07:03:37Z</time>
      </trkpt>
      <trkpt lat="38.70536" lon="15.06375">
        <ele>4.94</ele>
        <time>2018-04-17T07:03:50Z</time>
      </trkpt>
      <trkpt lat="38.70568" lon="15.06408">
        <ele>4.46</ele>
        <time>2018-04-17T07:04:05Z</time>
      </trkpt>
      <trkpt lat="38.70596" lon="15.06435">
        <ele>4.94</ele>
        <time>2018-04-17T07:04:18Z</time>
      </trkpt>
      <trkpt lat="38.70626" lon="15.06465">
        <ele>5.42</ele>
        <time>2018-04-17T07:04:32Z</time>
      </trkpt>
      <trkpt lat="38.70656" lon="15.06495">
        <ele>4.94</ele>
        <time>2018-04-17T07:04:46Z</time>
      </trkpt>
      <trkpt lat="38.70681" lon="15.06521">
        <ele>4.46</ele>
        <time>2018-04-17T07:04:58Z</time>
      </trkpt>
      <trkpt lat="38.70705" lon="15.06545">
        <ele>4.94</ele>
        <time>2018-04-17T07:05:09Z</time>
      </trkpt>
      <trkpt lat="38.70733" lon="15.0657">
        <ele>4.46</ele>
        <time>2018-04-17T07:05:21Z</time>
      </trkpt>
      <trkpt lat="38.70762" lon="15.06599">
        <ele>4.94</ele>
        <time>2018-04-17T07:05:35Z</time>
      </trkpt>
      <trkpt lat="38.70788" lon="15.06625">
        <ele>5.91</ele>
        <time>2018-04-17T07:05:47Z</time>
      </trkpt>
      <trkpt lat="38.70814" lon="15.06652">
        <ele>6.87</ele>
        <time>2018-04-17T07:05:59Z</time>
      </trkpt>
      <trkpt lat="38.70837" lon="15.06674">
        <ele>7.35</ele>
        <time>2018-04-17T07:06:09Z</time>
      </trkpt>
      <trkpt lat="38.70864" lon="15.06701">
        <ele>4.46</ele>
        <time>2018-04-17T07:06:21Z</time>
      </trkpt>
      <trkpt lat="38.70882" lon="15.06719">
        <ele>3.02</ele>
        <time>2018-04-17T07:06:29Z</time>
      </trkpt>
      <trkpt lat="38.70893" lon="15.06732">
        <ele>3.02</ele>
        <time>2018-04-17T07:06:34Z</time>
      </trkpt>
      <trkpt lat="38.70914" lon="15.06754">
        <ele>3.02</ele>
        <time>2018-04-17T07:06:45Z</time>
      </trkpt>
      <trkpt lat="38.70938" lon="15.06778">
        <ele>3.5</ele>
        <time>2018-04-17T07:06:57Z</time>
      </trkpt>
      <trkpt lat="38.70961" lon="15.06801">
        <ele>4.46</ele>
        <time>2018-04-17T07:07:08Z</time>
      </trkpt>
      <trkpt lat="38.70986" lon="15.06825">
        <ele>3.98</ele>
        <time>2018-04-17T07:07:20Z</time>
      </trkpt>
      <trkpt lat="38.7102" lon="15.0686">
        <ele>3.5</ele>
        <time>2018-04-17T07:07:36Z</time>
      </trkpt>
      <trkpt lat="38.71052" lon="15.06892">
        <ele>2.54</ele>
        <time>2018-04-17T07:07:51Z</time>
      </trkpt>
      <trkpt lat="38.71074" lon="15.06914">
        <ele>2.54</ele>
        <time>2018-04-17T07:08:01Z</time>
      </trkpt>
      <trkpt lat="38.71104" lon="15.06943">
        <ele>3.02</ele>
        <time>2018-04-17T07:08:15Z</time>
      </trkpt>
      <trkpt lat="38.71134" lon="15.06973">
        <ele>3.5</ele>
        <time>2018-04-17T07:08:29Z</time>
      </trkpt>
      <trkpt lat="38.71162" lon="15.07003">
        <ele>3.98</ele>
        <time>2018-04-17T07:08:42Z</time>
      </trkpt>
      <trkpt lat="38.71191" lon="15.0703">
        <ele>3.5</ele>
        <time>2018-04-17T07:08:55Z</time>
      </trkpt>
      <trkpt lat="38.71221" lon="15.07061">
        <ele>3.5</ele>
        <time>2018-04-17T07:09:09Z</time>
      </trkpt>
      <trkpt lat="38.71245" lon="15.07084">
        <ele>3.98</ele>
        <time>2018-04-17T07:09:20Z</time>
      </trkpt>
      <trkpt lat="38.71271" lon="15.0711">
        <ele>3.98</ele>
        <time>2018-04-17T07:09:32Z</time>
      </trkpt>
      <trkpt lat="38.71302" lon="15.0714">
        <ele>3.5</ele>
        <time>2018-04-17T07:09:47Z</time>
      </trkpt>
      <trkpt lat="38.71333" lon="15.07172">
        <ele>2.54</ele>
        <time>2018-04-17T07:10:01Z</time>
      </trkpt>
      <trkpt lat="38.71355" lon="15.07194">
        <ele>2.54</ele>
        <time>2018-04-17T07:10:11Z</time>
      </trkpt>
      <trkpt lat="38.71386" lon="15.07224">
        <ele>2.06</ele>
        <time>2018-04-17T07:10:25Z</time>
      </trkpt>
      <trkpt lat="38.71418" lon="15.07257">
        <ele>2.54</ele>
        <time>2018-04-17T07:10:40Z</time>
      </trkpt>
      <trkpt lat="38.71451" lon="15.07289">
        <ele>2.54</ele>
        <time>2018-04-17T07:10:55Z</time>
      </trkpt>
      <trkpt lat="38.71483" lon="15.07322">
        <ele>3.5</ele>
        <time>2018-04-17T07:11:10Z</time>
      </trkpt>
      <trkpt lat="38.71522" lon="15.07361">
        <ele>3.98</ele>
        <time>2018-04-17T07:11:28Z</time>
      </trkpt>
      <trkpt lat="38.71557" lon="15.07396">
        <ele>3.98</ele>
        <time>2018-04-17T07:11:44Z</time>
      </trkpt>
      <trkpt lat="38.71562" lon="15.07401">
        <ele>3.5</ele>
        <time>2018-04-17T07:11:46Z</time>
      </trkpt>
      <trkpt lat="38.71588" lon="15.07429">
        <ele>3.02</ele>
        <time>2018-04-17T07:11:59Z</time>
      </trkpt>
      <trkpt lat="38.71615" lon="15.07454">
        <ele>2.54</ele>
        <time>2018-04-17T07:12:11Z</time>
      </trkpt>
      <trkpt lat="38.71649" lon="15.07486">
        <ele>2.54</ele>
        <time>2018-04-17T07:12:26Z</time>
      </trkpt>
      <trkpt lat="38.71675" lon="15.07513">
        <ele>3.02</ele>
        <time>2018-04-17T07:12:38Z</time>
      </trkpt>
      <trkpt lat="38.71703" lon="15.07541">
        <ele>3.02</ele>
        <time>2018-04-17T07:12:51Z</time>
      </trkpt>
      <trkpt lat="38.7173" lon="15.07567">
        <ele>3.98</ele>
        <time>2018-04-17T07:13:03Z</time>
      </trkpt>
      <trkpt lat="38.7176" lon="15.07598">
        <ele>3.02</ele>
        <time>2018-04-17T07:13:17Z</time>
      </trkpt>
      <trkpt lat="38.71791" lon="15.07629">
        <ele>2.54</ele>
        <time>2018-04-17T07:13:31Z</time>
      </trkpt>
      <trkpt lat="38.71819" lon="15.07658">
        <ele>2.54</ele>
        <time>2018-04-17T07:13:44Z</time>
      </trkpt>
      <trkpt lat="38.7185" lon="15.07688">
        <ele>2.54</ele>
        <time>2018-04-17T07:13:58Z</time>
      </trkpt>
      <trkpt lat="38.71878" lon="15.07717">
        <ele>3.5</ele>
        <time>2018-04-17T07:14:11Z</time>
      </trkpt>
      <trkpt lat="38.71905" lon="15.07744">
        <ele>3.02</ele>
        <time>2018-04-17T07:14:23Z</time>
      </trkpt>
      <trkpt lat="38.71933" lon="15.07772">
        <ele>3.98</ele>
        <time>2018-04-17T07:14:36Z</time>
      </trkpt>
      <trkpt lat="38.71954" lon="15.07793">
        <ele>2.54</ele>
        <time>2018-04-17T07:14:46Z</time>
      </trkpt>
      <trkpt lat="38.71981" lon="15.07819">
        <ele>2.06</ele>
        <time>2018-04-17T07:14:58Z</time>
      </trkpt>
      <trkpt lat="38.72005" lon="15.07844">
        <ele>2.54</ele>
        <time>2018-04-17T07:15:09Z</time>
      </trkpt>
      <trkpt lat="38.72031" lon="15.07871">
        <ele>2.54</ele>
        <time>2018-04-17T07:15:21Z</time>
      </trkpt>
      <trkpt lat="38.72055" lon="15.07895">
        <ele>2.54</ele>
        <time>2018-04-17T07:15:32Z</time>
      </trkpt>
      <trkpt lat="38.72082" lon="15.07922">
        <ele>2.06</ele>
        <time>2018-04-17T07:15:44Z</time>
      </trkpt>
      <trkpt lat="38.7211" lon="15.0795">
        <ele>2.54</ele>
        <time>2018-04-17T07:15:57Z</time>
      </trkpt>
      <trkpt lat="38.72135" lon="15.07974">
        <ele>2.54</ele>
        <time>2018-04-17T07:16:08Z</time>
      </trkpt>
      <trkpt lat="38.72167" lon="15.08008">
        <ele>3.02</ele>
        <time>2018-04-17T07:16:23Z</time>
      </trkpt>
      <trkpt lat="38.72207" lon="15.08047">
        <ele>3.02</ele>
        <time>2018-04-17T07:16:41Z</time>
      </trkpt>
      <trkpt lat="38.72237" lon="15.08077">
        <ele>2.06</ele>
        <time>2018-04-17T07:16:55Z</time>
      </trkpt>
      <trkpt lat="38.72275" lon="15.08115">
        <ele>2.54</ele>
        <time>2018-04-17T07:17:12Z</time>
      </trkpt>
      <trkpt lat="38.72308" lon="15.08147">
        <ele>2.06</ele>
        <time>2018-04-17T07:17:27Z</time>
      </trkpt>
      <trkpt lat="38.72337" lon="15.08176">
        <ele>2.06</ele>
        <time>2018-04-17T07:17:40Z</time>
      </trkpt>
      <trkpt lat="38.72357" lon="15.08195">
        <ele>2.54</ele>
        <time>2018-04-17T07:17:49Z</time>
      </trkpt>
      <trkpt lat="38.72382" lon="15.08219">
        <ele>3.02</ele>
        <time>2018-04-17T07:18:00Z</time>
      </trkpt>
      <trkpt lat="38.72409" lon="15.08244">
        <ele>3.02</ele>
        <time>2018-04-17T07:18:12Z</time>
      </trkpt>
      <trkpt lat="38.72435" lon="15.08267">
        <ele>3.5</ele>
        <time>2018-04-17T07:18:23Z</time>
      </trkpt>
      <trkpt lat="38.72463" lon="15.08293">
        <ele>3.02</ele>
        <time>2018-04-17T07:18:35Z</time>
      </trkpt>
      <trkpt lat="38.72493" lon="15.08319">
        <ele>3.5</ele>
        <time>2018-04-17T07:18:48Z</time>
      </trkpt>
      <trkpt lat="38.72521" lon="15.08345">
        <ele>3.5</ele>
        <time>2018-04-17T07:19:00Z</time>
      </trkpt>
      <trkpt lat="38.72548" lon="15.08372">
        <ele>3.02</ele>
        <time>2018-04-17T07:19:12Z</time>
      </trkpt>
      <trkpt lat="38.7259" lon="15.0841">
        <ele>3.5</ele>
        <time>2018-04-17T07:19:30Z</time>
      </trkpt>
      <trkpt lat="38.72628" lon="15.08444">
        <ele>3.5</ele>
        <time>2018-04-17T07:19:46Z</time>
      </trkpt>
      <trkpt lat="38.7266" lon="15.08474">
        <ele>3.98</ele>
        <time>2018-04-17T07:20:00Z</time>
      </trkpt>
      <trkpt lat="38.727" lon="15.0851">
        <ele>3.5</ele>
        <time>2018-04-17T07:20:17Z</time>
      </trkpt>
      <trkpt lat="38.72732" lon="15.08541">
        <ele>3.5</ele>
        <time>2018-04-17T07:20:31Z</time>
      </trkpt>
      <trkpt lat="38.7276" lon="15.08567">
        <ele>3.5</ele>
        <time>2018-04-17T07:20:43Z</time>
      </trkpt>
      <trkpt lat="38.7279" lon="15.08594">
        <ele>3.02</ele>
        <time>2018-04-17T07:20:56Z</time>
      </trkpt>
      <trkpt lat="38.72816" lon="15.08616">
        <ele>3.02</ele>
        <time>2018-04-17T07:21:07Z</time>
      </trkpt>
      <trkpt lat="38.72842" lon="15.0864">
        <ele>3.02</ele>
        <time>2018-04-17T07:21:18Z</time>
      </trkpt>
      <trkpt lat="38.72876" lon="15.08673">
        <ele>2.54</ele>
        <time>2018-04-17T07:21:33Z</time>
      </trkpt>
      <trkpt lat="38.72902" lon="15.08697">
        <ele>2.54</ele>
        <time>2018-04-17T07:21:44Z</time>
      </trkpt>
      <trkpt lat="38.72928" lon="15.0872">
        <ele>3.5</ele>
        <time>2018-04-17T07:21:55Z</time>
      </trkpt>
      <trkpt lat="38.72956" lon="15.08746">
        <ele>4.46</ele>
        <time>2018-04-17T07:22:07Z</time>
      </trkpt>
      <trkpt lat="38.72981" lon="15.0877">
        <ele>4.46</ele>
        <time>2018-04-17T07:22:18Z</time>
      </trkpt>
      <trkpt lat="38.73015" lon="15.08802">
        <ele>3.98</ele>
        <time>2018-04-17T07:22:33Z</time>
      </trkpt>
      <trkpt lat="38.73043" lon="15.08828">
        <ele>3.02</ele>
        <time>2018-04-17T07:22:45Z</time>
      </trkpt>
      <trkpt lat="38.73081" lon="15.08862">
        <ele>2.06</ele>
        <time>2018-04-17T07:23:01Z</time>
      </trkpt>
      <trkpt lat="38.73115" lon="15.08894">
        <ele>2.06</ele>
        <time>2018-04-17T07:23:16Z</time>
      </trkpt>
      <trkpt lat="38.73154" lon="15.0893">
        <ele>2.06</ele>
        <time>2018-04-17T07:23:33Z</time>
      </trkpt>
      <trkpt lat="38.73177" lon="15.08953">
        <ele>2.54</ele>
        <time>2018-04-17T07:23:43Z</time>
      </trkpt>
      <trkpt lat="38.73199" lon="15.08972">
        <ele>2.54</ele>
        <time>2018-04-17T07:23:52Z</time>
      </trkpt>
      <trkpt lat="38.73227" lon="15.08997">
        <ele>2.54</ele>
        <time>2018-04-17T07:24:04Z</time>
      </trkpt>
      <trkpt lat="38.73255" lon="15.09024">
        <ele>2.06</ele>
        <time>2018-04-17T07:24:16Z</time>
      </trkpt>
      <trkpt lat="38.73287" lon="15.09054">
        <ele>2.54</ele>
        <time>2018-04-17T07:24:30Z</time>
      </trkpt>
      <trkpt lat="38.73311" lon="15.09076">
        <ele>3.02</ele>
        <time>2018-04-17T07:24:40Z</time>
      </trkpt>
      <trkpt lat="38.7335" lon="15.09113">
        <ele>2.06</ele>
        <time>2018-04-17T07:24:57Z</time>
      </trkpt>
      <trkpt lat="38.73377" lon="15.0914">
        <ele>2.54</ele>
        <time>2018-04-17T07:25:09Z</time>
      </trkpt>
      <trkpt lat="38.73413" lon="15.09176">
        <ele>2.06</ele>
        <time>2018-04-17T07:25:25Z</time>
      </trkpt>
      <trkpt lat="38.73442" lon="15.09207">
        <ele>2.54</ele>
        <time>2018-04-17T07:25:38Z</time>
      </trkpt>
      <trkpt lat="38.7347" lon="15.09233">
        <ele>3.02</ele>
        <time>2018-04-17T07:25:50Z</time>
      </trkpt>
      <trkpt lat="38.7349" lon="15.09253">
        <ele>3.5</ele>
        <time>2018-04-17T07:25:59Z</time>
      </trkpt>
      <trkpt lat="38.73518" lon="15.09279">
        <ele>2.06</ele>
        <time>2018-04-17T07:26:11Z</time>
      </trkpt>
      <trkpt lat="38.73554" lon="15.09316">
        <ele>2.54</ele>
        <time>2018-04-17T07:26:27Z</time>
      </trkpt>
      <trkpt lat="38.73594" lon="15.09357">
        <ele>2.06</ele>
        <time>2018-04-17T07:26:45Z</time>
      </trkpt>
      <trkpt lat="38.73621" lon="15.09384">
        <ele>2.54</ele>
        <time>2018-04-17T07:26:57Z</time>
      </trkpt>
      <trkpt lat="38.73653" lon="15.09416">
        <ele>3.02</ele>
        <time>2018-04-17T07:27:12Z</time>
      </trkpt>
      <trkpt lat="38.73682" lon="15.09445">
        <ele>3.02</ele>
        <time>2018-04-17T07:27:27Z</time>
      </trkpt>
      <trkpt lat="38.7371" lon="15.09472">
        <ele>3.5</ele>
        <time>2018-04-17T07:27:41Z</time>
      </trkpt>
      <trkpt lat="38.73734" lon="15.09496">
        <ele>3.02</ele>
        <time>2018-04-17T07:27:53Z</time>
      </trkpt>
      <trkpt lat="38.7376" lon="15.09522">
        <ele>3.02</ele>
        <time>2018-04-17T07:28:06Z</time>
      </trkpt>
      <trkpt lat="38.73782" lon="15.09543">
        <ele>3.5</ele>
        <time>2018-04-17T07:28:17Z</time>
      </trkpt>
      <trkpt lat="38.73802" lon="15.09563">
        <ele>3.5</ele>
        <time>2018-04-17T07:28:27Z</time>
      </trkpt>
      <trkpt lat="38.73834" lon="15.09593">
        <ele>3.02</ele>
        <time>2018-04-17T07:28:43Z</time>
      </trkpt>
      <trkpt lat="38.73862" lon="15.09623">
        <ele>3.02</ele>
        <time>2018-04-17T07:28:58Z</time>
      </trkpt>
      <trkpt lat="38.73882" lon="15.09642">
        <ele>3.02</ele>
        <time>2018-04-17T07:29:08Z</time>
      </trkpt>
      <trkpt lat="38.73906" lon="15.09666">
        <ele>2.54</ele>
        <time>2018-04-17T07:29:20Z</time>
      </trkpt>
      <trkpt lat="38.73931" lon="15.09693">
        <ele>2.06</ele>
        <time>2018-04-17T07:29:33Z</time>
      </trkpt>
      <trkpt lat="38.73962" lon="15.09724">
        <ele>1.58</ele>
        <time>2018-04-17T07:29:49Z</time>
      </trkpt>
      <trkpt lat="38.73992" lon="15.09756">
        <ele>1.58</ele>
        <time>2018-04-17T07:30:05Z</time>
      </trkpt>
      <trkpt lat="38.74016" lon="15.09779">
        <ele>2.06</ele>
        <time>2018-04-17T07:30:17Z</time>
      </trkpt>
      <trkpt lat="38.7404" lon="15.09803">
        <ele>2.06</ele>
        <time>2018-04-17T07:30:29Z</time>
      </trkpt>
      <trkpt lat="38.74067" lon="15.0983">
        <ele>1.58</ele>
        <time>2018-04-17T07:30:43Z</time>
      </trkpt>
      <trkpt lat="38.74097" lon="15.09859">
        <ele>2.54</ele>
        <time>2018-04-17T07:30:58Z</time>
      </trkpt>
      <trkpt lat="38.74132" lon="15.09895">
        <ele>2.54</ele>
        <time>2018-04-17T07:31:16Z</time>
      </trkpt>
      <trkpt lat="38.74158" lon="15.0992">
        <ele>2.54</ele>
        <time>2018-04-17T07:31:29Z</time>
      </trkpt>
      <trkpt lat="38.74184" lon="15.09947">
        <ele>2.54</ele>
        <time>2018-04-17T07:31:42Z</time>
      </trkpt>
      <trkpt lat="38.74207" lon="15.0997">
        <ele>2.06</ele>
        <time>2018-04-17T07:31:54Z</time>
      </trkpt>
      <trkpt lat="38.74235" lon="15.09999">
        <ele>2.06</ele>
        <time>2018-04-17T07:32:08Z</time>
      </trkpt>
      <trkpt lat="38.74261" lon="15.10026">
        <ele>1.58</ele>
        <time>2018-04-17T07:32:21Z</time>
      </trkpt>
      <trkpt lat="38.74288" lon="15.10053">
        <ele>2.54</ele>
        <time>2018-04-17T07:32:34Z</time>
      </trkpt>
      <trkpt lat="38.74312" lon="15.10078">
        <ele>2.54</ele>
        <time>2018-04-17T07:32:46Z</time>
      </trkpt>
      <trkpt lat="38.74336" lon="15.10104">
        <ele>2.06</ele>
        <time>2018-04-17T07:32:58Z</time>
      </trkpt>
      <trkpt lat="38.74366" lon="15.10133">
        <ele>2.06</ele>
        <time>2018-04-17T07:33:12Z</time>
      </trkpt>
      <trkpt lat="38.74396" lon="15.10163">
        <ele>2.54</ele>
        <time>2018-04-17T07:33:26Z</time>
      </trkpt>
      <trkpt lat="38.74429" lon="15.10197">
        <ele>3.02</ele>
        <time>2018-04-17T07:33:41Z</time>
      </trkpt>
      <trkpt lat="38.74455" lon="15.10223">
        <ele>2.54</ele>
        <time>2018-04-17T07:33:52Z</time>
      </trkpt>
      <trkpt lat="38.74488" lon="15.10258">
        <ele>3.02</ele>
        <time>2018-04-17T07:34:07Z</time>
      </trkpt>
      <trkpt lat="38.74525" lon="15.10296">
        <ele>3.5</ele>
        <time>2018-04-17T07:34:23Z</time>
      </trkpt>
      <trkpt lat="38.7455" lon="15.10322">
        <ele>3.98</ele>
        <time>2018-04-17T07:34:34Z</time>
      </trkpt>
      <trkpt lat="38.74587" lon="15.1036">
        <ele>4.46</ele>
        <time>2018-04-17T07:34:50Z</time>
      </trkpt>
      <trkpt lat="38.74614" lon="15.10389">
        <ele>3.5</ele>
        <time>2018-04-17T07:35:02Z</time>
      </trkpt>
      <trkpt lat="38.74643" lon="15.10421">
        <ele>4.94</ele>
        <time>2018-04-17T07:35:15Z</time>
      </trkpt>
      <trkpt lat="38.74676" lon="15.10456">
        <ele>3.5</ele>
        <time>2018-04-17T07:35:29Z</time>
      </trkpt>
      <trkpt lat="38.74703" lon="15.10485">
        <ele>3.5</ele>
        <time>2018-04-17T07:35:41Z</time>
      </trkpt>
      <trkpt lat="38.74736" lon="15.10518">
        <ele>3.5</ele>
        <time>2018-04-17T07:35:55Z</time>
      </trkpt>
      <trkpt lat="38.74761" lon="15.10545">
        <ele>3.02</ele>
        <time>2018-04-17T07:36:06Z</time>
      </trkpt>
      <trkpt lat="38.74789" lon="15.10574">
        <ele>2.06</ele>
        <time>2018-04-17T07:36:18Z</time>
      </trkpt>
      <trkpt lat="38.74818" lon="15.10604">
        <ele>1.58</ele>
        <time>2018-04-17T07:36:31Z</time>
      </trkpt>
      <trkpt lat="38.74846" lon="15.10635">
        <ele>1.58</ele>
        <time>2018-04-17T07:36:43Z</time>
      </trkpt>
      <trkpt lat="38.74864" lon="15.10656">
        <ele>1.58</ele>
        <time>2018-04-17T07:36:51Z</time>
      </trkpt>
      <trkpt lat="38.74891" lon="15.10682">
        <ele>1.58</ele>
        <time>2018-04-17T07:37:02Z</time>
      </trkpt>
      <trkpt lat="38.74922" lon="15.10713">
        <ele>2.06</ele>
        <time>2018-04-17T07:37:15Z</time>
      </trkpt>
      <trkpt lat="38.74945" lon="15.10736">
        <ele>1.58</ele>
        <time>2018-04-17T07:37:25Z</time>
      </trkpt>
      <trkpt lat="38.74977" lon="15.1077">
        <ele>3.5</ele>
        <time>2018-04-17T07:37:39Z</time>
      </trkpt>
      <trkpt lat="38.75012" lon="15.10807">
        <ele>3.98</ele>
        <time>2018-04-17T07:37:54Z</time>
      </trkpt>
      <trkpt lat="38.75046" lon="15.10843">
        <ele>3.5</ele>
        <time>2018-04-17T07:38:09Z</time>
      </trkpt>
      <trkpt lat="38.75079" lon="15.10877">
        <ele>3.98</ele>
        <time>2018-04-17T07:38:23Z</time>
      </trkpt>
      <trkpt lat="38.75104" lon="15.10904">
        <ele>3.02</ele>
        <time>2018-04-17T07:38:34Z</time>
      </trkpt>
      <trkpt lat="38.75129" lon="15.1093">
        <ele>3.98</ele>
        <time>2018-04-17T07:38:45Z</time>
      </trkpt>
      <trkpt lat="38.75154" lon="15.10957">
        <ele>3.98</ele>
        <time>2018-04-17T07:38:56Z</time>
      </trkpt>
      <trkpt lat="38.75186" lon="15.1099">
        <ele>3.98</ele>
        <time>2018-04-17T07:39:10Z</time>
      </trkpt>
      <trkpt lat="38.75212" lon="15.11016">
        <ele>3.98</ele>
        <time>2018-04-17T07:39:21Z</time>
      </trkpt>
      <trkpt lat="38.75249" lon="15.11055">
        <ele>3.98</ele>
        <time>2018-04-17T07:39:37Z</time>
      </trkpt>
      <trkpt lat="38.75278" lon="15.11084">
        <ele>4.46</ele>
        <time>2018-04-17T07:39:49Z</time>
      </trkpt>
      <trkpt lat="38.75311" lon="15.11117">
        <ele>4.94</ele>
        <time>2018-04-17T07:40:03Z</time>
      </trkpt>
      <trkpt lat="38.75343" lon="15.11152">
        <ele>4.94</ele>
        <time>2018-04-17T07:40:17Z</time>
      </trkpt>
      <trkpt lat="38.75384" lon="15.11197">
        <ele>4.46</ele>
        <time>2018-04-17T07:40:35Z</time>
      </trkpt>
      <trkpt lat="38.75415" lon="15.11229">
        <ele>3.98</ele>
        <time>2018-04-17T07:40:48Z</time>
      </trkpt>
      <trkpt lat="38.75446" lon="15.11259">
        <ele>3.02</ele>
        <time>2018-04-17T07:41:01Z</time>
      </trkpt>
      <trkpt lat="38.75482" lon="15.113">
        <ele>3.5</ele>
        <time>2018-04-17T07:41:17Z</time>
      </trkpt>
      <trkpt lat="38.75533" lon="15.11355">
        <ele>3.5</ele>
        <time>2018-04-17T07:41:39Z</time>
      </trkpt>
      <trkpt lat="38.75552" lon="15.11364">
        <ele>3.02</ele>
        <time>2018-04-17T07:41:49Z</time>
      </trkpt>
      <trkpt lat="38.75556" lon="15.11358">
        <ele>2.54</ele>
        <time>2018-04-17T07:41:53Z</time>
      </trkpt>
      <trkpt lat="38.75555" lon="15.11342">
        <ele>2.54</ele>
        <time>2018-04-17T07:42:05Z</time>
      </trkpt>
      <trkpt lat="38.75554" lon="15.11326">
        <ele>2.54</ele>
        <time>2018-04-17T07:42:18Z</time>
      </trkpt>
      <trkpt lat="38.75552" lon="15.11317">
        <ele>2.54</ele>
        <time>2018-04-17T07:42:26Z</time>
      </trkpt>
      <trkpt lat="38.7555" lon="15.1131">
        <ele>2.06</ele>
        <time>2018-04-17T07:42:38Z</time>
      </trkpt>
      <trkpt lat="38.75549" lon="15.11308">
        <ele>1.58</ele>
        <time>2018-04-17T07:42:43Z</time>
      </trkpt>
      <trkpt lat="38.75548" lon="15.11299">
        <ele>0.14</ele>
        <time>2018-04-17T07:42:53Z</time>
      </trkpt>
      <trkpt lat="38.75552" lon="15.11285">
        <ele>-0.34</ele>
        <time>2018-04-17T07:43:02Z</time>
      </trkpt>
      <trkpt lat="38.75557" lon="15.11281">
        <ele>0.14</ele>
        <time>2018-04-17T07:43:06Z</time>
      </trkpt>
      <trkpt lat="38.75562" lon="15.11281">
        <ele>0.62</ele>
        <time>2018-04-17T07:43:08Z</time>
      </trkpt>
      <trkpt lat="38.75582" lon="15.11304">
        <ele>1.58</ele>
        <time>2018-04-17T07:43:21Z</time>
      </trkpt>
      <trkpt lat="38.75609" lon="15.11338">
        <ele>0.14</ele>
        <time>2018-04-17T07:43:35Z</time>
      </trkpt>
      <trkpt lat="38.75635" lon="15.11373">
        <ele>0.14</ele>
        <time>2018-04-17T07:43:49Z</time>
      </trkpt>
      <trkpt lat="38.75657" lon="15.11408">
        <ele>-0.82</ele>
        <time>2018-04-17T07:44:02Z</time>
      </trkpt>
      <trkpt lat="38.75683" lon="15.11441">
        <ele>0.14</ele>
        <time>2018-04-17T07:44:15Z</time>
      </trkpt>
      <trkpt lat="38.75706" lon="15.11469">
        <ele>3.02</ele>
        <time>2018-04-17T07:44:26Z</time>
      </trkpt>
      <trkpt lat="38.75731" lon="15.11497">
        <ele>3.02</ele>
        <time>2018-04-17T07:44:38Z</time>
      </trkpt>
      <trkpt lat="38.75755" lon="15.11522">
        <ele>2.54</ele>
        <time>2018-04-17T07:44:49Z</time>
      </trkpt>
      <trkpt lat="38.75786" lon="15.11557">
        <ele>3.02</ele>
        <time>2018-04-17T07:45:03Z</time>
      </trkpt>
      <trkpt lat="38.75818" lon="15.11588">
        <ele>3.02</ele>
        <time>2018-04-17T07:45:17Z</time>
      </trkpt>
      <trkpt lat="38.75844" lon="15.11616">
        <ele>3.98</ele>
        <time>2018-04-17T07:45:29Z</time>
      </trkpt>
      <trkpt lat="38.75849" lon="15.11621">
        <ele>3.98</ele>
        <time>2018-04-17T07:45:31Z</time>
      </trkpt>
      <trkpt lat="38.75859" lon="15.11634">
        <ele>4.46</ele>
        <time>2018-04-17T07:45:36Z</time>
      </trkpt>
      <trkpt lat="38.75884" lon="15.11663">
        <ele>3.5</ele>
        <time>2018-04-17T07:45:48Z</time>
      </trkpt>
      <trkpt lat="38.75907" lon="15.11696">
        <ele>3.5</ele>
        <time>2018-04-17T07:46:00Z</time>
      </trkpt>
      <trkpt lat="38.75931" lon="15.11728">
        <ele>3.98</ele>
        <time>2018-04-17T07:46:12Z</time>
      </trkpt>
      <trkpt lat="38.75958" lon="15.11765">
        <ele>3.98</ele>
        <time>2018-04-17T07:46:26Z</time>
      </trkpt>
      <trkpt lat="38.75983" lon="15.11801">
        <ele>3.5</ele>
        <time>2018-04-17T07:46:39Z</time>
      </trkpt>
      <trkpt lat="38.76016" lon="15.11845">
        <ele>2.06</ele>
        <time>2018-04-17T07:46:56Z</time>
      </trkpt>
      <trkpt lat="38.76063" lon="15.11908">
        <ele>1.58</ele>
        <time>2018-04-17T07:47:20Z</time>
      </trkpt>
      <trkpt lat="38.76093" lon="15.11951">
        <ele>1.58</ele>
        <time>2018-04-17T07:47:36Z</time>
      </trkpt>
      <trkpt lat="38.76126" lon="15.11994">
        <ele>2.06</ele>
        <time>2018-04-17T07:47:52Z</time>
      </trkpt>
      <trkpt lat="38.76157" lon="15.12035">
        <ele>2.06</ele>
        <time>2018-04-17T07:48:08Z</time>
      </trkpt>
      <trkpt lat="38.76183" lon="15.1207">
        <ele>3.02</ele>
        <time>2018-04-17T07:48:21Z</time>
      </trkpt>
      <trkpt lat="38.76214" lon="15.12112">
        <ele>3.5</ele>
        <time>2018-04-17T07:48:37Z</time>
      </trkpt>
      <trkpt lat="38.7625" lon="15.12159">
        <ele>3.5</ele>
        <time>2018-04-17T07:48:55Z</time>
      </trkpt>
      <trkpt lat="38.7628" lon="15.12202">
        <ele>3.02</ele>
        <time>2018-04-17T07:49:11Z</time>
      </trkpt>
      <trkpt lat="38.76317" lon="15.12252">
        <ele>1.58</ele>
        <time>2018-04-17T07:49:30Z</time>
      </trkpt>
      <trkpt lat="38.76348" lon="15.12293">
        <ele>0.62</ele>
        <time>2018-04-17T07:49:46Z</time>
      </trkpt>
      <trkpt lat="38.76381" lon="15.12333">
        <ele>1.58</ele>
        <time>2018-04-17T07:50:02Z</time>
      </trkpt>
      <trkpt lat="38.76407" lon="15.12366">
        <ele>1.58</ele>
        <time>2018-04-17T07:50:15Z</time>
      </trkpt>
      <trkpt lat="38.76437" lon="15.12402">
        <ele>2.06</ele>
        <time>2018-04-17T07:50:30Z</time>
      </trkpt>
      <trkpt lat="38.7646" lon="15.12433">
        <ele>2.54</ele>
        <time>2018-04-17T07:50:42Z</time>
      </trkpt>
      <trkpt lat="38.76488" lon="15.12468">
        <ele>2.54</ele>
        <time>2018-04-17T07:50:56Z</time>
      </trkpt>
      <trkpt lat="38.76519" lon="15.12508">
        <ele>2.54</ele>
        <time>2018-04-17T07:51:12Z</time>
      </trkpt>
      <trkpt lat="38.7655" lon="15.12548">
        <ele>2.54</ele>
        <time>2018-04-17T07:51:28Z</time>
      </trkpt>
      <trkpt lat="38.76582" lon="15.12588">
        <ele>2.54</ele>
        <time>2018-04-17T07:51:44Z</time>
      </trkpt>
      <trkpt lat="38.76607" lon="15.12621">
        <ele>2.54</ele>
        <time>2018-04-17T07:51:57Z</time>
      </trkpt>
      <trkpt lat="38.7664" lon="15.12664">
        <ele>2.54</ele>
        <time>2018-04-17T07:52:14Z</time>
      </trkpt>
      <trkpt lat="38.76672" lon="15.12707">
        <ele>1.58</ele>
        <time>2018-04-17T07:52:31Z</time>
      </trkpt>
      <trkpt lat="38.76696" lon="15.12738">
        <ele>2.06</ele>
        <time>2018-04-17T07:52:43Z</time>
      </trkpt>
      <trkpt lat="38.76729" lon="15.12781">
        <ele>2.06</ele>
        <time>2018-04-17T07:53:00Z</time>
      </trkpt>
      <trkpt lat="38.7676" lon="15.12822">
        <ele>1.58</ele>
        <time>2018-04-17T07:53:16Z</time>
      </trkpt>
      <trkpt lat="38.7679" lon="15.12862">
        <ele>1.58</ele>
        <time>2018-04-17T07:53:32Z</time>
      </trkpt>
      <trkpt lat="38.76816" lon="15.12894">
        <ele>1.58</ele>
        <time>2018-04-17T07:53:45Z</time>
      </trkpt>
      <trkpt lat="38.76852" lon="15.12941">
        <ele>1.58</ele>
        <time>2018-04-17T07:54:04Z</time>
      </trkpt>
      <trkpt lat="38.76885" lon="15.12985">
        <ele>1.58</ele>
        <time>2018-04-17T07:54:21Z</time>
      </trkpt>
      <trkpt lat="38.76919" lon="15.13028">
        <ele>2.06</ele>
        <time>2018-04-17T07:54:38Z</time>
      </trkpt>
      <trkpt lat="38.76946" lon="15.13063">
        <ele>2.54</ele>
        <time>2018-04-17T07:54:52Z</time>
      </trkpt>
      <trkpt lat="38.76975" lon="15.13101">
        <ele>3.98</ele>
        <time>2018-04-17T07:55:07Z</time>
      </trkpt>
      <trkpt lat="38.77008" lon="15.13144">
        <ele>3.5</ele>
        <time>2018-04-17T07:55:24Z</time>
      </trkpt>
      <trkpt lat="38.77036" lon="15.13183">
        <ele>3.02</ele>
        <time>2018-04-17T07:55:39Z</time>
      </trkpt>
      <trkpt lat="38.77066" lon="15.1322">
        <ele>2.54</ele>
        <time>2018-04-17T07:55:54Z</time>
      </trkpt>
      <trkpt lat="38.77095" lon="15.13259">
        <ele>3.02</ele>
        <time>2018-04-17T07:56:09Z</time>
      </trkpt>
      <trkpt lat="38.77112" lon="15.13283">
        <ele>2.54</ele>
        <time>2018-04-17T07:56:18Z</time>
      </trkpt>
      <trkpt lat="38.77141" lon="15.13321">
        <ele>3.02</ele>
        <time>2018-04-17T07:56:33Z</time>
      </trkpt>
      <trkpt lat="38.77176" lon="15.13367">
        <ele>3.02</ele>
        <time>2018-04-17T07:56:51Z</time>
      </trkpt>
      <trkpt lat="38.77207" lon="15.13407">
        <ele>3.5</ele>
        <time>2018-04-17T07:57:07Z</time>
      </trkpt>
      <trkpt lat="38.77235" lon="15.13445">
        <ele>3.5</ele>
        <time>2018-04-17T07:57:22Z</time>
      </trkpt>
      <trkpt lat="38.77263" lon="15.13484">
        <ele>2.54</ele>
        <time>2018-04-17T07:57:37Z</time>
      </trkpt>
      <trkpt lat="38.77295" lon="15.13529">
        <ele>3.02</ele>
        <time>2018-04-17T07:57:54Z</time>
      </trkpt>
      <trkpt lat="38.77322" lon="15.13566">
        <ele>3.02</ele>
        <time>2018-04-17T07:58:08Z</time>
      </trkpt>
      <trkpt lat="38.77351" lon="15.13605">
        <ele>3.5</ele>
        <time>2018-04-17T07:58:23Z</time>
      </trkpt>
      <trkpt lat="38.77377" lon="15.13641">
        <ele>3.5</ele>
        <time>2018-04-17T07:58:37Z</time>
      </trkpt>
      <trkpt lat="38.77406" lon="15.1368">
        <ele>3.02</ele>
        <time>2018-04-17T07:58:52Z</time>
      </trkpt>
      <trkpt lat="38.7744" lon="15.13727">
        <ele>2.54</ele>
        <time>2018-04-17T07:59:10Z</time>
      </trkpt>
      <trkpt lat="38.77471" lon="15.13771">
        <ele>2.54</ele>
        <time>2018-04-17T07:59:27Z</time>
      </trkpt>
      <trkpt lat="38.77502" lon="15.13813">
        <ele>2.54</ele>
        <time>2018-04-17T07:59:43Z</time>
      </trkpt>
      <trkpt lat="38.77528" lon="15.13849">
        <ele>2.54</ele>
        <time>2018-04-17T07:59:57Z</time>
      </trkpt>
      <trkpt lat="38.77559" lon="15.13893">
        <ele>1.1</ele>
        <time>2018-04-17T08:00:14Z</time>
      </trkpt>
      <trkpt lat="38.77591" lon="15.13939">
        <ele>0.62</ele>
        <time>2018-04-17T08:00:32Z</time>
      </trkpt>
      <trkpt lat="38.77619" lon="15.13977">
        <ele>0.62</ele>
        <time>2018-04-17T08:00:47Z</time>
      </trkpt>
      <trkpt lat="38.77649" lon="15.14018">
        <ele>1.58</ele>
        <time>2018-04-17T08:01:03Z</time>
      </trkpt>
      <trkpt lat="38.77669" lon="15.14046">
        <ele>1.58</ele>
        <time>2018-04-17T08:01:14Z</time>
      </trkpt>
      <trkpt lat="38.77696" lon="15.14085">
        <ele>2.06</ele>
        <time>2018-04-17T08:01:29Z</time>
      </trkpt>
      <trkpt lat="38.77724" lon="15.14126">
        <ele>2.06</ele>
        <time>2018-04-17T08:01:45Z</time>
      </trkpt>
      <trkpt lat="38.77749" lon="15.14161">
        <ele>3.02</ele>
        <time>2018-04-17T08:01:59Z</time>
      </trkpt>
      <trkpt lat="38.77773" lon="15.14196">
        <ele>3.5</ele>
        <time>2018-04-17T08:02:12Z</time>
      </trkpt>
      <trkpt lat="38.77808" lon="15.14244">
        <ele>3.98</ele>
        <time>2018-04-17T08:02:31Z</time>
      </trkpt>
      <trkpt lat="38.7783" lon="15.14275">
        <ele>3.98</ele>
        <time>2018-04-17T08:02:43Z</time>
      </trkpt>
      <trkpt lat="38.77849" lon="15.14303">
        <ele>4.46</ele>
        <time>2018-04-17T08:02:54Z</time>
      </trkpt>
      <trkpt lat="38.7788" lon="15.14347">
        <ele>4.46</ele>
        <time>2018-04-17T08:03:11Z</time>
      </trkpt>
      <trkpt lat="38.77906" lon="15.14382">
        <ele>4.94</ele>
        <time>2018-04-17T08:03:25Z</time>
      </trkpt>
      <trkpt lat="38.77932" lon="15.14418">
        <ele>4.94</ele>
        <time>2018-04-17T08:03:39Z</time>
      </trkpt>
      <trkpt lat="38.77959" lon="15.14457">
        <ele>4.94</ele>
        <time>2018-04-17T08:03:54Z</time>
      </trkpt>
      <trkpt lat="38.77985" lon="15.14493">
        <ele>4.46</ele>
        <time>2018-04-17T08:04:08Z</time>
      </trkpt>
      <trkpt lat="38.78012" lon="15.14531">
        <ele>3.5</ele>
        <time>2018-04-17T08:04:23Z</time>
      </trkpt>
      <trkpt lat="38.78033" lon="15.14564">
        <ele>3.02</ele>
        <time>2018-04-17T08:04:35Z</time>
      </trkpt>
      <trkpt lat="38.78061" lon="15.14602">
        <ele>2.54</ele>
        <time>2018-04-17T08:04:50Z</time>
      </trkpt>
      <trkpt lat="38.78085" lon="15.14638">
        <ele>2.06</ele>
        <time>2018-04-17T08:05:04Z</time>
      </trkpt>
      <trkpt lat="38.78116" lon="15.14682">
        <ele>2.06</ele>
        <time>2018-04-17T08:05:21Z</time>
      </trkpt>
      <trkpt lat="38.78142" lon="15.14721">
        <ele>1.58</ele>
        <time>2018-04-17T08:05:36Z</time>
      </trkpt>
      <trkpt lat="38.78173" lon="15.14765">
        <ele>2.54</ele>
        <time>2018-04-17T08:05:53Z</time>
      </trkpt>
      <trkpt lat="38.78198" lon="15.14802">
        <ele>3.02</ele>
        <time>2018-04-17T08:06:07Z</time>
      </trkpt>
      <trkpt lat="38.78223" lon="15.14839">
        <ele>3.5</ele>
        <time>2018-04-17T08:06:21Z</time>
      </trkpt>
      <trkpt lat="38.78251" lon="15.14877">
        <ele>3.5</ele>
        <time>2018-04-17T08:06:36Z</time>
      </trkpt>
      <trkpt lat="38.78278" lon="15.14917">
        <ele>3.5</ele>
        <time>2018-04-17T08:06:51Z</time>
      </trkpt>
      <trkpt lat="38.78298" lon="15.14948">
        <ele>3.5</ele>
        <time>2018-04-17T08:07:03Z</time>
      </trkpt>
      <trkpt lat="38.78321" lon="15.14982">
        <ele>3.5</ele>
        <time>2018-04-17T08:07:16Z</time>
      </trkpt>
      <trkpt lat="38.78347" lon="15.15018">
        <ele>3.02</ele>
        <time>2018-04-17T08:07:30Z</time>
      </trkpt>
      <trkpt lat="38.78366" lon="15.15047">
        <ele>3.5</ele>
        <time>2018-04-17T08:07:41Z</time>
      </trkpt>
      <trkpt lat="38.7839" lon="15.15084">
        <ele>3.5</ele>
        <time>2018-04-17T08:07:55Z</time>
      </trkpt>
      <trkpt lat="38.7842" lon="15.15129">
        <ele>3.5</ele>
        <time>2018-04-17T08:08:12Z</time>
      </trkpt>
      <trkpt lat="38.78443" lon="15.15163">
        <ele>3.98</ele>
        <time>2018-04-17T08:08:25Z</time>
      </trkpt>
      <trkpt lat="38.78468" lon="15.152">
        <ele>4.46</ele>
        <time>2018-04-17T08:08:39Z</time>
      </trkpt>
      <trkpt lat="38.78497" lon="15.15244">
        <ele>3.5</ele>
        <time>2018-04-17T08:08:56Z</time>
      </trkpt>
      <trkpt lat="38.78541" lon="15.15303">
        <ele>1.1</ele>
        <time>2018-04-17T08:09:20Z</time>
      </trkpt>
      <trkpt lat="38.78576" lon="15.15359">
        <ele>0.14</ele>
        <time>2018-04-17T08:09:40Z</time>
      </trkpt>
      <trkpt lat="38.78611" lon="15.15411">
        <ele>-0.34</ele>
        <time>2018-04-17T08:10:00Z</time>
      </trkpt>
      <trkpt lat="38.78645" lon="15.1546">
        <ele>-0.34</ele>
        <time>2018-04-17T08:10:19Z</time>
      </trkpt>
      <trkpt lat="38.78686" lon="15.15521">
        <ele>0.14</ele>
        <time>2018-04-17T08:10:42Z</time>
      </trkpt>
      <trkpt lat="38.78718" lon="15.15572">
        <ele>0.62</ele>
        <time>2018-04-17T08:11:01Z</time>
      </trkpt>
      <trkpt lat="38.78742" lon="15.1561">
        <ele>0.14</ele>
        <time>2018-04-17T08:11:15Z</time>
      </trkpt>
      <trkpt lat="38.7877" lon="15.15652">
        <ele>0.14</ele>
        <time>2018-04-17T08:11:31Z</time>
      </trkpt>
      <trkpt lat="38.78803" lon="15.15704">
        <ele>0.14</ele>
        <time>2018-04-17T08:11:50Z</time>
      </trkpt>
      <trkpt lat="38.78834" lon="15.15752">
        <ele>0.14</ele>
        <time>2018-04-17T08:12:08Z</time>
      </trkpt>
      <trkpt lat="38.78863" lon="15.15798">
        <ele>0.14</ele>
        <time>2018-04-17T08:12:25Z</time>
      </trkpt>
      <trkpt lat="38.78892" lon="15.15839">
        <ele>2.06</ele>
        <time>2018-04-17T08:12:41Z</time>
      </trkpt>
      <trkpt lat="38.78916" lon="15.15875">
        <ele>2.54</ele>
        <time>2018-04-17T08:12:54Z</time>
      </trkpt>
      <trkpt lat="38.78934" lon="15.15904">
        <ele>1.58</ele>
        <time>2018-04-17T08:13:05Z</time>
      </trkpt>
      <trkpt lat="38.78951" lon="15.15932">
        <ele>1.58</ele>
        <time>2018-04-17T08:13:15Z</time>
      </trkpt>
      <trkpt lat="38.78954" lon="15.15937">
        <ele>1.58</ele>
        <time>2018-04-17T08:13:17Z</time>
      </trkpt>
      <trkpt lat="38.78977" lon="15.15973">
        <ele>1.1</ele>
        <time>2018-04-17T08:13:30Z</time>
      </trkpt>
      <trkpt lat="38.79" lon="15.1601">
        <ele>0.14</ele>
        <time>2018-04-17T08:13:43Z</time>
      </trkpt>
      <trkpt lat="38.79022" lon="15.16044">
        <ele>1.58</ele>
        <time>2018-04-17T08:13:56Z</time>
      </trkpt>
      <trkpt lat="38.79045" lon="15.16076">
        <ele>2.06</ele>
        <time>2018-04-17T08:14:08Z</time>
      </trkpt>
      <trkpt lat="38.79064" lon="15.16106">
        <ele>1.1</ele>
        <time>2018-04-17T08:14:20Z</time>
      </trkpt>
      <trkpt lat="38.79079" lon="15.16131">
        <ele>2.06</ele>
        <time>2018-04-17T08:14:30Z</time>
      </trkpt>
      <trkpt lat="38.79082" lon="15.16137">
        <ele>2.06</ele>
        <time>2018-04-17T08:14:32Z</time>
      </trkpt>
      <trkpt lat="38.79094" lon="15.16156">
        <ele>1.58</ele>
        <time>2018-04-17T08:14:39Z</time>
      </trkpt>
      <trkpt lat="38.79115" lon="15.16188">
        <ele>1.58</ele>
        <time>2018-04-17T08:14:51Z</time>
      </trkpt>
      <trkpt lat="38.79143" lon="15.16231">
        <ele>2.06</ele>
        <time>2018-04-17T08:15:07Z</time>
      </trkpt>
      <trkpt lat="38.79165" lon="15.16265">
        <ele>3.02</ele>
        <time>2018-04-17T08:15:19Z</time>
      </trkpt>
      <trkpt lat="38.79188" lon="15.163">
        <ele>3.5</ele>
        <time>2018-04-17T08:15:32Z</time>
      </trkpt>
      <trkpt lat="38.79213" lon="15.1634">
        <ele>3.98</ele>
        <time>2018-04-17T08:15:47Z</time>
      </trkpt>
      <trkpt lat="38.79238" lon="15.16377">
        <ele>4.46</ele>
        <time>2018-04-17T08:16:01Z</time>
      </trkpt>
      <trkpt lat="38.79259" lon="15.16411">
        <ele>3.5</ele>
        <time>2018-04-17T08:16:14Z</time>
      </trkpt>
      <trkpt lat="38.79279" lon="15.16445">
        <ele>2.54</ele>
        <time>2018-04-17T08:16:26Z</time>
      </trkpt>
      <trkpt lat="38.79289" lon="15.16461">
        <ele>1.1</ele>
        <time>2018-04-17T08:16:32Z</time>
      </trkpt>
      <trkpt lat="38.79297" lon="15.16475">
        <ele>0.62</ele>
        <time>2018-04-17T08:16:37Z</time>
      </trkpt>
      <trkpt lat="38.79318" lon="15.16508">
        <ele>1.1</ele>
        <time>2018-04-17T08:16:49Z</time>
      </trkpt>
      <trkpt lat="38.79338" lon="15.1654">
        <ele>1.1</ele>
        <time>2018-04-17T08:17:01Z</time>
      </trkpt>
      <trkpt lat="38.79354" lon="15.16571">
        <ele>1.1</ele>
        <time>2018-04-17T08:17:12Z</time>
      </trkpt>
      <trkpt lat="38.7938" lon="15.16614">
        <ele>3.02</ele>
        <time>2018-04-17T08:17:27Z</time>
      </trkpt>
      <trkpt lat="38.79401" lon="15.16651">
        <ele>3.02</ele>
        <time>2018-04-17T08:17:40Z</time>
      </trkpt>
      <trkpt lat="38.79423" lon="15.16688">
        <ele>3.98</ele>
        <time>2018-04-17T08:17:53Z</time>
      </trkpt>
      <trkpt lat="38.79445" lon="15.16728">
        <ele>3.5</ele>
        <time>2018-04-17T08:18:07Z</time>
      </trkpt>
      <trkpt lat="38.79467" lon="15.16764">
        <ele>3.5</ele>
        <time>2018-04-17T08:18:20Z</time>
      </trkpt>
      <trkpt lat="38.79486" lon="15.16811">
        <ele>3.5</ele>
        <time>2018-04-17T08:18:35Z</time>
      </trkpt>
      <trkpt lat="38.79503" lon="15.16856">
        <ele>3.02</ele>
        <time>2018-04-17T08:18:49Z</time>
      </trkpt>
      <trkpt lat="38.7952" lon="15.16903">
        <ele>2.06</ele>
        <time>2018-04-17T08:19:03Z</time>
      </trkpt>
      <trkpt lat="38.79536" lon="15.16952">
        <ele>2.54</ele>
        <time>2018-04-17T08:19:18Z</time>
      </trkpt>
      <trkpt lat="38.79558" lon="15.17005">
        <ele>2.54</ele>
        <time>2018-04-17T08:19:35Z</time>
      </trkpt>
      <trkpt lat="38.79575" lon="15.17047">
        <ele>3.02</ele>
        <time>2018-04-17T08:19:48Z</time>
      </trkpt>
      <trkpt lat="38.79594" lon="15.17099">
        <ele>2.54</ele>
        <time>2018-04-17T08:20:04Z</time>
      </trkpt>
      <trkpt lat="38.79614" lon="15.17153">
        <ele>2.54</ele>
        <time>2018-04-17T08:20:21Z</time>
      </trkpt>
      <trkpt lat="38.79632" lon="15.17202">
        <ele>2.54</ele>
        <time>2018-04-17T08:20:36Z</time>
      </trkpt>
      <trkpt lat="38.79653" lon="15.17257">
        <ele>3.02</ele>
        <time>2018-04-17T08:20:53Z</time>
      </trkpt>
      <trkpt lat="38.7967" lon="15.17298">
        <ele>3.02</ele>
        <time>2018-04-17T08:21:06Z</time>
      </trkpt>
      <trkpt lat="38.79686" lon="15.1734">
        <ele>3.5</ele>
        <time>2018-04-17T08:21:19Z</time>
      </trkpt>
      <trkpt lat="38.79708" lon="15.17394">
        <ele>3.02</ele>
        <time>2018-04-17T08:21:36Z</time>
      </trkpt>
      <trkpt lat="38.79723" lon="15.17433">
        <ele>2.54</ele>
        <time>2018-04-17T08:21:48Z</time>
      </trkpt>
      <trkpt lat="38.79739" lon="15.17476">
        <ele>2.54</ele>
        <time>2018-04-17T08:22:01Z</time>
      </trkpt>
      <trkpt lat="38.79758" lon="15.17524">
        <ele>3.02</ele>
        <time>2018-04-17T08:22:16Z</time>
      </trkpt>
      <trkpt lat="38.79773" lon="15.1756">
        <ele>3.02</ele>
        <time>2018-04-17T08:22:27Z</time>
      </trkpt>
      <trkpt lat="38.79792" lon="15.17609">
        <ele>3.98</ele>
        <time>2018-04-17T08:22:42Z</time>
      </trkpt>
      <trkpt lat="38.79809" lon="15.17647">
        <ele>3.98</ele>
        <time>2018-04-17T08:22:54Z</time>
      </trkpt>
      <trkpt lat="38.79827" lon="15.17692">
        <ele>3.5</ele>
        <time>2018-04-17T08:23:08Z</time>
      </trkpt>
      <trkpt lat="38.79851" lon="15.17749">
        <ele>3.5</ele>
        <time>2018-04-17T08:23:26Z</time>
      </trkpt>
      <trkpt lat="38.79869" lon="15.17793">
        <ele>3.02</ele>
        <time>2018-04-17T08:23:40Z</time>
      </trkpt>
      <trkpt lat="38.7989" lon="15.17839">
        <ele>2.54</ele>
        <time>2018-04-17T08:23:55Z</time>
      </trkpt>
      <trkpt lat="38.79911" lon="15.17888">
        <ele>2.54</ele>
        <time>2018-04-17T08:24:10Z</time>
      </trkpt>
      <trkpt lat="38.79928" lon="15.17928">
        <ele>3.02</ele>
        <time>2018-04-17T08:24:23Z</time>
      </trkpt>
      <trkpt lat="38.79944" lon="15.17966">
        <ele>3.5</ele>
        <time>2018-04-17T08:24:35Z</time>
      </trkpt>
      <trkpt lat="38.79964" lon="15.18013">
        <ele>3.5</ele>
        <time>2018-04-17T08:24:50Z</time>
      </trkpt>
      <trkpt lat="38.79988" lon="15.18069">
        <ele>3.5</ele>
        <time>2018-04-17T08:25:08Z</time>
      </trkpt>
      <trkpt lat="38.80007" lon="15.18112">
        <ele>3.98</ele>
        <time>2018-04-17T08:25:22Z</time>
      </trkpt>
      <trkpt lat="38.80029" lon="15.18162">
        <ele>3.98</ele>
        <time>2018-04-17T08:25:38Z</time>
      </trkpt>
      <trkpt lat="38.8005" lon="15.18208">
        <ele>2.54</ele>
        <time>2018-04-17T08:25:53Z</time>
      </trkpt>
      <trkpt lat="38.8007" lon="15.18255">
        <ele>2.54</ele>
        <time>2018-04-17T08:26:08Z</time>
      </trkpt>
      <trkpt lat="38.8009" lon="15.18313">
        <ele>3.5</ele>
        <time>2018-04-17T08:26:26Z</time>
      </trkpt>
      <trkpt lat="38.80106" lon="15.18363">
        <ele>3.5</ele>
        <time>2018-04-17T08:26:41Z</time>
      </trkpt>
      <trkpt lat="38.80124" lon="15.18404">
        <ele>3.98</ele>
        <time>2018-04-17T08:26:54Z</time>
      </trkpt>
      <trkpt lat="38.80138" lon="15.18442">
        <ele>4.46</ele>
        <time>2018-04-17T08:27:06Z</time>
      </trkpt>
      <trkpt lat="38.80151" lon="15.18477">
        <ele>3.5</ele>
        <time>2018-04-17T08:27:17Z</time>
      </trkpt>
      <trkpt lat="38.80172" lon="15.18536">
        <ele>2.06</ele>
        <time>2018-04-17T08:27:35Z</time>
      </trkpt>
      <trkpt lat="38.80184" lon="15.18584">
        <ele>2.54</ele>
        <time>2018-04-17T08:27:49Z</time>
      </trkpt>
      <trkpt lat="38.80192" lon="15.18629">
        <ele>2.06</ele>
        <time>2018-04-17T08:28:02Z</time>
      </trkpt>
      <trkpt lat="38.80207" lon="15.18672">
        <ele>2.06</ele>
        <time>2018-04-17T08:28:15Z</time>
      </trkpt>
      <trkpt lat="38.80222" lon="15.18717">
        <ele>2.54</ele>
        <time>2018-04-17T08:28:29Z</time>
      </trkpt>
      <trkpt lat="38.80237" lon="15.18755">
        <ele>2.54</ele>
        <time>2018-04-17T08:28:41Z</time>
      </trkpt>
      <trkpt lat="38.80255" lon="15.18795">
        <ele>3.02</ele>
        <time>2018-04-17T08:28:54Z</time>
      </trkpt>
      <trkpt lat="38.8027" lon="15.18833">
        <ele>3.5</ele>
        <time>2018-04-17T08:29:06Z</time>
      </trkpt>
      <trkpt lat="38.80291" lon="15.18887">
        <ele>3.5</ele>
        <time>2018-04-17T08:29:23Z</time>
      </trkpt>
      <trkpt lat="38.80306" lon="15.18921">
        <ele>3.02</ele>
        <time>2018-04-17T08:29:34Z</time>
      </trkpt>
      <trkpt lat="38.80321" lon="15.18963">
        <ele>3.5</ele>
        <time>2018-04-17T08:29:47Z</time>
      </trkpt>
      <trkpt lat="38.80342" lon="15.19008">
        <ele>2.54</ele>
        <time>2018-04-17T08:30:02Z</time>
      </trkpt>
      <trkpt lat="38.80361" lon="15.19059">
        <ele>2.06</ele>
        <time>2018-04-17T08:30:18Z</time>
      </trkpt>
      <trkpt lat="38.8038" lon="15.19107">
        <ele>3.02</ele>
        <time>2018-04-17T08:30:33Z</time>
      </trkpt>
      <trkpt lat="38.80398" lon="15.1915">
        <ele>2.54</ele>
        <time>2018-04-17T08:30:47Z</time>
      </trkpt>
      <trkpt lat="38.80417" lon="15.19191">
        <ele>3.02</ele>
        <time>2018-04-17T08:31:00Z</time>
      </trkpt>
      <trkpt lat="38.80436" lon="15.19237">
        <ele>2.06</ele>
        <time>2018-04-17T08:31:15Z</time>
      </trkpt>
      <trkpt lat="38.8046" lon="15.1929">
        <ele>2.54</ele>
        <time>2018-04-17T08:31:32Z</time>
      </trkpt>
      <trkpt lat="38.80482" lon="15.19341">
        <ele>3.5</ele>
        <time>2018-04-17T08:31:48Z</time>
      </trkpt>
      <trkpt lat="38.80505" lon="15.19387">
        <ele>3.98</ele>
        <time>2018-04-17T08:32:03Z</time>
      </trkpt>
      <trkpt lat="38.8053" lon="15.19434">
        <ele>2.54</ele>
        <time>2018-04-17T08:32:19Z</time>
      </trkpt>
      <trkpt lat="38.80556" lon="15.19486">
        <ele>3.02</ele>
        <time>2018-04-17T08:32:36Z</time>
      </trkpt>
      <trkpt lat="38.8058" lon="15.19534">
        <ele>3.02</ele>
        <time>2018-04-17T08:32:52Z</time>
      </trkpt>
      <trkpt lat="38.80596" lon="15.19576">
        <ele>3.02</ele>
        <time>2018-04-17T08:33:05Z</time>
      </trkpt>
      <trkpt lat="38.80618" lon="15.19621">
        <ele>2.54</ele>
        <time>2018-04-17T08:33:20Z</time>
      </trkpt>
      <trkpt lat="38.80632" lon="15.1965">
        <ele>2.06</ele>
        <time>2018-04-17T08:33:29Z</time>
      </trkpt>
      <trkpt lat="38.80654" lon="15.19693">
        <ele>1.58</ele>
        <time>2018-04-17T08:33:43Z</time>
      </trkpt>
      <trkpt lat="38.80674" lon="15.19737">
        <ele>1.1</ele>
        <time>2018-04-17T08:33:58Z</time>
      </trkpt>
      <trkpt lat="38.80688" lon="15.19767">
        <ele>0.62</ele>
        <time>2018-04-17T08:34:08Z</time>
      </trkpt>
      <trkpt lat="38.80702" lon="15.19794">
        <ele>1.1</ele>
        <time>2018-04-17T08:34:16Z</time>
      </trkpt>
      <trkpt lat="38.80723" lon="15.19834">
        <ele>3.02</ele>
        <time>2018-04-17T08:34:29Z</time>
      </trkpt>
      <trkpt lat="38.80738" lon="15.19868">
        <ele>3.5</ele>
        <time>2018-04-17T08:34:40Z</time>
      </trkpt>
      <trkpt lat="38.80758" lon="15.19912">
        <ele>3.02</ele>
        <time>2018-04-17T08:34:54Z</time>
      </trkpt>
      <trkpt lat="38.80781" lon="15.19957">
        <ele>3.02</ele>
        <time>2018-04-17T08:35:09Z</time>
      </trkpt>
      <trkpt lat="38.80803" lon="15.20004">
        <ele>3.02</ele>
        <time>2018-04-17T08:35:24Z</time>
      </trkpt>
      <trkpt lat="38.80825" lon="15.2005">
        <ele>3.02</ele>
        <time>2018-04-17T08:35:39Z</time>
      </trkpt>
      <trkpt lat="38.80843" lon="15.20089">
        <ele>3.5</ele>
        <time>2018-04-17T08:35:51Z</time>
      </trkpt>
      <trkpt lat="38.8086" lon="15.20123">
        <ele>2.54</ele>
        <time>2018-04-17T08:36:03Z</time>
      </trkpt>
      <trkpt lat="38.80885" lon="15.2016">
        <ele>3.02</ele>
        <time>2018-04-17T08:36:17Z</time>
      </trkpt>
      <trkpt lat="38.80909" lon="15.202">
        <ele>3.5</ele>
        <time>2018-04-17T08:36:30Z</time>
      </trkpt>
      <trkpt lat="38.8093" lon="15.20232">
        <ele>3.5</ele>
        <time>2018-04-17T08:36:42Z</time>
      </trkpt>
      <trkpt lat="38.80958" lon="15.20272">
        <ele>2.54</ele>
        <time>2018-04-17T08:36:56Z</time>
      </trkpt>
      <trkpt lat="38.80987" lon="15.20318">
        <ele>3.5</ele>
        <time>2018-04-17T08:37:12Z</time>
      </trkpt>
      <trkpt lat="38.8101" lon="15.2036">
        <ele>3.98</ele>
        <time>2018-04-17T08:37:26Z</time>
      </trkpt>
      <trkpt lat="38.81032" lon="15.20398">
        <ele>3.02</ele>
        <time>2018-04-17T08:37:39Z</time>
      </trkpt>
      <trkpt lat="38.81054" lon="15.20429">
        <ele>2.06</ele>
        <time>2018-04-17T08:37:51Z</time>
      </trkpt>
      <trkpt lat="38.8108" lon="15.20472">
        <ele>2.54</ele>
        <time>2018-04-17T08:38:06Z</time>
      </trkpt>
      <trkpt lat="38.81099" lon="15.20506">
        <ele>3.98</ele>
        <time>2018-04-17T08:38:17Z</time>
      </trkpt>
      <trkpt lat="38.81124" lon="15.20543">
        <ele>3.02</ele>
        <time>2018-04-17T08:38:30Z</time>
      </trkpt>
      <trkpt lat="38.81153" lon="15.20591">
        <ele>2.54</ele>
        <time>2018-04-17T08:38:46Z</time>
      </trkpt>
      <trkpt lat="38.81173" lon="15.2063">
        <ele>2.54</ele>
        <time>2018-04-17T08:38:59Z</time>
      </trkpt>
      <trkpt lat="38.81197" lon="15.20672">
        <ele>3.02</ele>
        <time>2018-04-17T08:39:13Z</time>
      </trkpt>
      <trkpt lat="38.81223" lon="15.20721">
        <ele>2.06</ele>
        <time>2018-04-17T08:39:29Z</time>
      </trkpt>
      <trkpt lat="38.81245" lon="15.2077">
        <ele>3.5</ele>
        <time>2018-04-17T08:39:44Z</time>
      </trkpt>
      <trkpt lat="38.81257" lon="15.20796">
        <ele>3.98</ele>
        <time>2018-04-17T08:39:53Z</time>
      </trkpt>
      <trkpt lat="38.81277" lon="15.2084">
        <ele>3.98</ele>
        <time>2018-04-17T08:40:07Z</time>
      </trkpt>
      <trkpt lat="38.81298" lon="15.20892">
        <ele>3.5</ele>
        <time>2018-04-17T08:40:23Z</time>
      </trkpt>
      <trkpt lat="38.81317" lon="15.20941">
        <ele>4.46</ele>
        <time>2018-04-17T08:40:38Z</time>
      </trkpt>
      <trkpt lat="38.81338" lon="15.20984">
        <ele>5.42</ele>
        <time>2018-04-17T08:40:52Z</time>
      </trkpt>
      <trkpt lat="38.81362" lon="15.21026">
        <ele>6.39</ele>
        <time>2018-04-17T08:41:06Z</time>
      </trkpt>
      <trkpt lat="38.81381" lon="15.21073">
        <ele>3.98</ele>
        <time>2018-04-17T08:41:20Z</time>
      </trkpt>
      <trkpt lat="38.81395" lon="15.21118">
        <ele>3.02</ele>
        <time>2018-04-17T08:41:33Z</time>
      </trkpt>
      <trkpt lat="38.81405" lon="15.21171">
        <ele>3.5</ele>
        <time>2018-04-17T08:41:48Z</time>
      </trkpt>
      <trkpt lat="38.81413" lon="15.21233">
        <ele>3.5</ele>
        <time>2018-04-17T08:42:05Z</time>
      </trkpt>
      <trkpt lat="38.81431" lon="15.21286">
        <ele>3.02</ele>
        <time>2018-04-17T08:42:21Z</time>
      </trkpt>
      <trkpt lat="38.81447" lon="15.21326">
        <ele>2.54</ele>
        <time>2018-04-17T08:42:33Z</time>
      </trkpt>
      <trkpt lat="38.81459" lon="15.21379">
        <ele>3.02</ele>
        <time>2018-04-17T08:42:48Z</time>
      </trkpt>
      <trkpt lat="38.81471" lon="15.21439">
        <ele>2.54</ele>
        <time>2018-04-17T08:43:05Z</time>
      </trkpt>
      <trkpt lat="38.81486" lon="15.21483">
        <ele>2.54</ele>
        <time>2018-04-17T08:43:18Z</time>
      </trkpt>
      <trkpt lat="38.81499" lon="15.21528">
        <ele>1.58</ele>
        <time>2018-04-17T08:43:31Z</time>
      </trkpt>
      <trkpt lat="38.8151" lon="15.21593">
        <ele>2.06</ele>
        <time>2018-04-17T08:43:49Z</time>
      </trkpt>
      <trkpt lat="38.81517" lon="15.21651">
        <ele>1.1</ele>
        <time>2018-04-17T08:44:05Z</time>
      </trkpt>
      <trkpt lat="38.81524" lon="15.21697">
        <ele>0.14</ele>
        <time>2018-04-17T08:44:18Z</time>
      </trkpt>
      <trkpt lat="38.81535" lon="15.21751">
        <ele>1.1</ele>
        <time>2018-04-17T08:44:33Z</time>
      </trkpt>
      <trkpt lat="38.81541" lon="15.21794">
        <ele>0.62</ele>
        <time>2018-04-17T08:44:45Z</time>
      </trkpt>
      <trkpt lat="38.81539" lon="15.21836">
        <ele>1.1</ele>
        <time>2018-04-17T08:44:57Z</time>
      </trkpt>
      <trkpt lat="38.81528" lon="15.21886">
        <ele>1.58</ele>
        <time>2018-04-17T08:45:12Z</time>
      </trkpt>
      <trkpt lat="38.81527" lon="15.21935">
        <ele>1.1</ele>
        <time>2018-04-17T08:45:26Z</time>
      </trkpt>
      <trkpt lat="38.8153" lon="15.21986">
        <ele>2.06</ele>
        <time>2018-04-17T08:45:40Z</time>
      </trkpt>
      <trkpt lat="38.81538" lon="15.22044">
        <ele>2.06</ele>
        <time>2018-04-17T08:45:56Z</time>
      </trkpt>
      <trkpt lat="38.81544" lon="15.22092">
        <ele>1.1</ele>
        <time>2018-04-17T08:46:09Z</time>
      </trkpt>
      <trkpt lat="38.81542" lon="15.22158">
        <ele>1.1</ele>
        <time>2018-04-17T08:46:27Z</time>
      </trkpt>
      <trkpt lat="38.81529" lon="15.22209">
        <ele>0.62</ele>
        <time>2018-04-17T08:46:42Z</time>
      </trkpt>
      <trkpt lat="38.81504" lon="15.22265">
        <ele>0.62</ele>
        <time>2018-04-17T08:47:01Z</time>
      </trkpt>
      <trkpt lat="38.81494" lon="15.22299">
        <ele>-2.75</ele>
        <time>2018-04-17T08:47:12Z</time>
      </trkpt>
      <trkpt lat="38.81487" lon="15.22339">
        <ele>-1.3</ele>
        <time>2018-04-17T08:47:24Z</time>
      </trkpt>
      <trkpt lat="38.81474" lon="15.22401">
        <ele>1.1</ele>
        <time>2018-04-17T08:47:43Z</time>
      </trkpt>
      <trkpt lat="38.81458" lon="15.22449">
        <ele>1.1</ele>
        <time>2018-04-17T08:47:58Z</time>
      </trkpt>
      <trkpt lat="38.81441" lon="15.22501">
        <ele>2.06</ele>
        <time>2018-04-17T08:48:14Z</time>
      </trkpt>
      <trkpt lat="38.81427" lon="15.22547">
        <ele>3.02</ele>
        <time>2018-04-17T08:48:28Z</time>
      </trkpt>
      <trkpt lat="38.8141" lon="15.22598">
        <ele>2.06</ele>
        <time>2018-04-17T08:48:44Z</time>
      </trkpt>
      <trkpt lat="38.81401" lon="15.22634">
        <ele>1.58</ele>
        <time>2018-04-17T08:48:55Z</time>
      </trkpt>
      <trkpt lat="38.81383" lon="15.22691">
        <ele>2.06</ele>
        <time>2018-04-17T08:49:13Z</time>
      </trkpt>
      <trkpt lat="38.81354" lon="15.22782">
        <ele>2.54</ele>
        <time>2018-04-17T08:49:41Z</time>
      </trkpt>
      <trkpt lat="38.81329" lon="15.22862">
        <ele>3.5</ele>
        <time>2018-04-17T08:50:06Z</time>
      </trkpt>
      <trkpt lat="38.81306" lon="15.22949">
        <ele>3.98</ele>
        <time>2018-04-17T08:50:32Z</time>
      </trkpt>
      <trkpt lat="38.81289" lon="15.23014">
        <ele>4.46</ele>
        <time>2018-04-17T08:50:52Z</time>
      </trkpt>
      <trkpt lat="38.81271" lon="15.23089">
        <ele>3.5</ele>
        <time>2018-04-17T08:51:15Z</time>
      </trkpt>
      <trkpt lat="38.81254" lon="15.23165">
        <ele>3.5</ele>
        <time>2018-04-17T08:51:38Z</time>
      </trkpt>
      <trkpt lat="38.81238" lon="15.23231">
        <ele>3.5</ele>
        <time>2018-04-17T08:51:58Z</time>
      </trkpt>
      <trkpt lat="38.81225" lon="15.2329">
        <ele>3.02</ele>
        <time>2018-04-17T08:52:16Z</time>
      </trkpt>
      <trkpt lat="38.81209" lon="15.23347">
        <ele>3.5</ele>
        <time>2018-04-17T08:52:34Z</time>
      </trkpt>
      <trkpt lat="38.81188" lon="15.23412">
        <ele>2.54</ele>
        <time>2018-04-17T08:52:55Z</time>
      </trkpt>
      <trkpt lat="38.81173" lon="15.23474">
        <ele>3.5</ele>
        <time>2018-04-17T08:53:14Z</time>
      </trkpt>
      <trkpt lat="38.81161" lon="15.23544">
        <ele>3.5</ele>
        <time>2018-04-17T08:53:35Z</time>
      </trkpt>
      <trkpt lat="38.81154" lon="15.23611">
        <ele>3.02</ele>
        <time>2018-04-17T08:53:55Z</time>
      </trkpt>
      <trkpt lat="38.81128" lon="15.23682">
        <ele>2.54</ele>
        <time>2018-04-17T08:54:18Z</time>
      </trkpt>
      <trkpt lat="38.81098" lon="15.23729">
        <ele>3.5</ele>
        <time>2018-04-17T08:54:36Z</time>
      </trkpt>
      <trkpt lat="38.81058" lon="15.23807">
        <ele>2.54</ele>
        <time>2018-04-17T08:55:03Z</time>
      </trkpt>
      <trkpt lat="38.81027" lon="15.23866">
        <ele>2.06</ele>
        <time>2018-04-17T08:55:24Z</time>
      </trkpt>
      <trkpt lat="38.80992" lon="15.23943">
        <ele>2.06</ele>
        <time>2018-04-17T08:55:50Z</time>
      </trkpt>
      <trkpt lat="38.80962" lon="15.24006">
        <ele>3.02</ele>
        <time>2018-04-17T08:56:12Z</time>
      </trkpt>
      <trkpt lat="38.80933" lon="15.24071">
        <ele>3.5</ele>
        <time>2018-04-17T08:56:34Z</time>
      </trkpt>
      <trkpt lat="38.80897" lon="15.24139">
        <ele>2.54</ele>
        <time>2018-04-17T08:56:58Z</time>
      </trkpt>
      <trkpt lat="38.80864" lon="15.24189">
        <ele>3.02</ele>
        <time>2018-04-17T08:57:17Z</time>
      </trkpt>
      <trkpt lat="38.80832" lon="15.24241">
        <ele>2.54</ele>
        <time>2018-04-17T08:57:37Z</time>
      </trkpt>
      <trkpt lat="38.80802" lon="15.24296">
        <ele>2.54</ele>
        <time>2018-04-17T08:58:00Z</time>
      </trkpt>
      <trkpt lat="38.80776" lon="15.24353">
        <ele>1.58</ele>
        <time>2018-04-17T08:58:24Z</time>
      </trkpt>
      <trkpt lat="38.80752" lon="15.24401">
        <ele>0.62</ele>
        <time>2018-04-17T08:58:45Z</time>
      </trkpt>
      <trkpt lat="38.80719" lon="15.24461">
        <ele>0.62</ele>
        <time>2018-04-17T08:59:12Z</time>
      </trkpt>
      <trkpt lat="38.8069" lon="15.24516">
        <ele>0.62</ele>
        <time>2018-04-17T08:59:37Z</time>
      </trkpt>
      <trkpt lat="38.80657" lon="15.24568">
        <ele>0.62</ele>
        <time>2018-04-17T09:00:02Z</time>
      </trkpt>
      <trkpt lat="38.80626" lon="15.2461">
        <ele>1.1</ele>
        <time>2018-04-17T09:00:23Z</time>
      </trkpt>
      <trkpt lat="38.80579" lon="15.24646">
        <ele>1.58</ele>
        <time>2018-04-17T09:00:49Z</time>
      </trkpt>
      <trkpt lat="38.80532" lon="15.24655">
        <ele>2.06</ele>
        <time>2018-04-17T09:01:12Z</time>
      </trkpt>
      <trkpt lat="38.80485" lon="15.24639">
        <ele>2.54</ele>
        <time>2018-04-17T09:01:35Z</time>
      </trkpt>
      <trkpt lat="38.80448" lon="15.2462">
        <ele>3.5</ele>
        <time>2018-04-17T09:01:54Z</time>
      </trkpt>
      <trkpt lat="38.80415" lon="15.24597">
        <ele>2.06</ele>
        <time>2018-04-17T09:02:12Z</time>
      </trkpt>
      <trkpt lat="38.8037" lon="15.24571">
        <ele>2.06</ele>
        <time>2018-04-17T09:02:35Z</time>
      </trkpt>
      <trkpt lat="38.80318" lon="15.24567">
        <ele>1.58</ele>
        <time>2018-04-17T09:03:00Z</time>
      </trkpt>
      <trkpt lat="38.80269" lon="15.24568">
        <ele>3.02</ele>
        <time>2018-04-17T09:03:23Z</time>
      </trkpt>
      <trkpt lat="38.80212" lon="15.24562">
        <ele>3.02</ele>
        <time>2018-04-17T09:03:50Z</time>
      </trkpt>
      <trkpt lat="38.80168" lon="15.2455">
        <ele>2.06</ele>
        <time>2018-04-17T09:04:11Z</time>
      </trkpt>
      <trkpt lat="38.80124" lon="15.24522">
        <ele>2.54</ele>
        <time>2018-04-17T09:04:34Z</time>
      </trkpt>
      <trkpt lat="38.8008" lon="15.24484">
        <ele>3.02</ele>
        <time>2018-04-17T09:05:01Z</time>
      </trkpt>
      <trkpt lat="38.80069" lon="15.24448">
        <ele>3.02</ele>
        <time>2018-04-17T09:05:26Z</time>
      </trkpt>
      <trkpt lat="38.80069" lon="15.24427">
        <ele>3.98</ele>
        <time>2018-04-17T09:05:49Z</time>
      </trkpt>
      <trkpt lat="38.80067" lon="15.24413">
        <ele>3.5</ele>
        <time>2018-04-17T09:06:17Z</time>
      </trkpt>
      <trkpt lat="38.80065" lon="15.24407">
        <ele>3.02</ele>
        <time>2018-04-17T09:06:47Z</time>
      </trkpt>
      <trkpt lat="38.80064" lon="15.24402">
        <ele>3.02</ele>
        <time>2018-04-17T09:07:15Z</time>
      </trkpt>
      <trkpt lat="38.80063" lon="15.24399">
        <ele>3.02</ele>
        <time>2018-04-17T09:07:40Z</time>
      </trkpt>
      <trkpt lat="38.80063" lon="15.24397">
        <ele>3.02</ele>
        <time>2018-04-17T09:08:03Z</time>
      </trkpt>
      <trkpt lat="38.80063" lon="15.24395">
        <ele>3.5</ele>
        <time>2018-04-17T09:08:25Z</time>
      </trkpt>
      <trkpt lat="38.80064" lon="15.24396">
        <ele>3.98</ele>
        <time>2018-04-17T09:08:51Z</time>
      </trkpt>
      <trkpt lat="38.80065" lon="15.24403">
        <ele>3.98</ele>
        <time>2018-04-17T09:09:15Z</time>
      </trkpt>
      <trkpt lat="38.80067" lon="15.24411">
        <ele>4.46</ele>
        <time>2018-04-17T09:09:43Z</time>
      </trkpt>
      <trkpt lat="38.80068" lon="15.24416">
        <ele>4.94</ele>
        <time>2018-04-17T09:10:10Z</time>
      </trkpt>
      <trkpt lat="38.80068" lon="15.24419">
        <ele>4.46</ele>
        <time>2018-04-17T09:10:40Z</time>
      </trkpt>
      <trkpt lat="38.80067" lon="15.24417">
        <ele>3.98</ele>
        <time>2018-04-17T09:11:08Z</time>
      </trkpt>
      <trkpt lat="38.80066" lon="15.24413">
        <ele>3.98</ele>
        <time>2018-04-17T09:11:34Z</time>
      </trkpt>
      <trkpt lat="38.80066" lon="15.2441">
        <ele>3.98</ele>
        <time>2018-04-17T09:12:01Z</time>
      </trkpt>
      <trkpt lat="38.80066" lon="15.24409">
        <ele>3.98</ele>
        <time>2018-04-17T09:12:25Z</time>
      </trkpt>
      <trkpt lat="38.80066" lon="15.24408">
        <ele>3.98</ele>
        <time>2018-04-17T09:12:46Z</time>
      </trkpt>
      <trkpt lat="38.80065" lon="15.24408">
        <ele>3.5</ele>
        <time>2018-04-17T09:13:10Z</time>
      </trkpt>
      <trkpt lat="38.80064" lon="15.24408">
        <ele>3.5</ele>
        <time>2018-04-17T09:13:37Z</time>
      </trkpt>
      <trkpt lat="38.80064" lon="15.2441">
        <ele>3.5</ele>
        <time>2018-04-17T09:14:05Z</time>
      </trkpt>
      <trkpt lat="38.80063" lon="15.24412">
        <ele>3.5</ele>
        <time>2018-04-17T09:14:29Z</time>
      </trkpt>
      <trkpt lat="38.80062" lon="15.24414">
        <ele>3.02</ele>
        <time>2018-04-17T09:14:55Z</time>
      </trkpt>
      <trkpt lat="38.80059" lon="15.24416">
        <ele>2.06</ele>
        <time>2018-04-17T09:15:17Z</time>
      </trkpt>
      <trkpt lat="38.80058" lon="15.24416">
        <ele>2.06</ele>
        <time>2018-04-17T09:15:40Z</time>
      </trkpt>
      <trkpt lat="38.80058" lon="15.24416">
        <ele>2.06</ele>
        <time>2018-04-17T09:16:05Z</time>
      </trkpt>
      <trkpt lat="38.80057" lon="15.24414">
        <ele>2.06</ele>
        <time>2018-04-17T09:16:28Z</time>
      </trkpt>
      <trkpt lat="38.80057" lon="15.24412">
        <ele>2.06</ele>
        <time>2018-04-17T09:16:55Z</time>
      </trkpt>
      <trkpt lat="38.80056" lon="15.2441">
        <ele>2.54</ele>
        <time>2018-04-17T09:17:10Z</time>
      </trkpt>
      <trkpt lat="38.80084" lon="15.24236">
        <ele>4.94</ele>
        <time>2018-04-17T11:45:40Z</time>
      </trkpt>
      <trkpt lat="38.80085" lon="15.24234">
        <ele>5.42</ele>
        <time>2018-04-17T11:46:03Z</time>
      </trkpt>
      <trkpt lat="38.80085" lon="15.24234">
        <ele>3.98</ele>
        <time>2018-04-17T11:46:20Z</time>
      </trkpt>
      <trkpt lat="38.80087" lon="15.24233">
        <ele>1.58</ele>
        <time>2018-04-17T11:46:42Z</time>
      </trkpt>
      <trkpt lat="38.80085" lon="15.24235">
        <ele>2.54</ele>
        <time>2018-04-17T11:46:53Z</time>
      </trkpt>
      <trkpt lat="38.80085" lon="15.24236">
        <ele>3.98</ele>
        <time>2018-04-17T11:47:06Z</time>
      </trkpt>
      <trkpt lat="38.80084" lon="15.24235">
        <ele>3.98</ele>
        <time>2018-04-17T11:47:15Z</time>
      </trkpt>
      <trkpt lat="38.80084" lon="15.24236">
        <ele>3.5</ele>
        <time>2018-04-17T11:47:28Z</time>
      </trkpt>
      <trkpt lat="38.80084" lon="15.24236">
        <ele>3.5</ele>
        <time>2018-04-17T11:47:34Z</time>
      </trkpt>
      <trkpt lat="38.80084" lon="15.24233">
        <ele>2.54</ele>
        <time>2018-04-17T11:47:48Z</time>
      </trkpt>
      <trkpt lat="38.80085" lon="15.24232">
        <ele>2.54</ele>
        <time>2018-04-17T11:47:57Z</time>
      </trkpt>
      <trkpt lat="38.80087" lon="15.24222">
        <ele>2.06</ele>
        <time>2018-04-17T11:48:11Z</time>
      </trkpt>
      <trkpt lat="38.80088" lon="15.24219">
        <ele>2.54</ele>
        <time>2018-04-17T11:48:20Z</time>
      </trkpt>
      <trkpt lat="38.80088" lon="15.24222">
        <ele>2.54</ele>
        <time>2018-04-17T11:48:24Z</time>
      </trkpt>
      <trkpt lat="38.80086" lon="15.24219">
        <ele>2.06</ele>
        <time>2018-04-17T11:48:36Z</time>
      </trkpt>
      <trkpt lat="38.80089" lon="15.24216">
        <ele>2.06</ele>
        <time>2018-04-17T11:48:49Z</time>
      </trkpt>
      <trkpt lat="38.80089" lon="15.24215">
        <ele>2.06</ele>
        <time>2018-04-17T11:48:52Z</time>
      </trkpt>
      <trkpt lat="38.80089" lon="15.24205">
        <ele>3.02</ele>
        <time>2018-04-17T11:49:05Z</time>
      </trkpt>
      <trkpt lat="38.8009" lon="15.24193">
        <ele>3.98</ele>
        <time>2018-04-17T11:49:17Z</time>
      </trkpt>
      <trkpt lat="38.8009" lon="15.24184">
        <ele>4.46</ele>
        <time>2018-04-17T11:49:29Z</time>
      </trkpt>
      <trkpt lat="38.80091" lon="15.24176">
        <ele>4.46</ele>
        <time>2018-04-17T11:49:40Z</time>
      </trkpt>
      <trkpt lat="38.80092" lon="15.24173">
        <ele>4.46</ele>
        <time>2018-04-17T11:49:44Z</time>
      </trkpt>
      <trkpt lat="38.80094" lon="15.24172">
        <ele>3.98</ele>
        <time>2018-04-17T11:49:47Z</time>
      </trkpt>
      <trkpt lat="38.80094" lon="15.2416">
        <ele>3.98</ele>
        <time>2018-04-17T11:50:02Z</time>
      </trkpt>
      <trkpt lat="38.80096" lon="15.24159">
        <ele>4.46</ele>
        <time>2018-04-17T11:50:05Z</time>
      </trkpt>
      <trkpt lat="38.80099" lon="15.24157">
        <ele>3.98</ele>
        <time>2018-04-17T11:50:09Z</time>
      </trkpt>
      <trkpt lat="38.80102" lon="15.2415">
        <ele>3.98</ele>
        <time>2018-04-17T11:50:19Z</time>
      </trkpt>
      <trkpt lat="38.80099" lon="15.24141">
        <ele>4.46</ele>
        <time>2018-04-17T11:50:30Z</time>
      </trkpt>
      <trkpt lat="38.80096" lon="15.24131">
        <ele>3.98</ele>
        <time>2018-04-17T11:50:40Z</time>
      </trkpt>
      <trkpt lat="38.801" lon="15.24114">
        <ele>4.94</ele>
        <time>2018-04-17T11:50:55Z</time>
      </trkpt>
      <trkpt lat="38.80098" lon="15.241">
        <ele>4.94</ele>
        <time>2018-04-17T11:51:08Z</time>
      </trkpt>
      <trkpt lat="38.80098" lon="15.24099">
        <ele>5.42</ele>
        <time>2018-04-17T11:51:09Z</time>
      </trkpt>
      <trkpt lat="38.80093" lon="15.24082">
        <ele>6.39</ele>
        <time>2018-04-17T11:51:25Z</time>
      </trkpt>
      <trkpt lat="38.80087" lon="15.24078">
        <ele>5.91</ele>
        <time>2018-04-17T11:51:36Z</time>
      </trkpt>
      <trkpt lat="38.80081" lon="15.24074">
        <ele>5.42</ele>
        <time>2018-04-17T11:51:49Z</time>
      </trkpt>
      <trkpt lat="38.8008" lon="15.24075">
        <ele>5.42</ele>
        <time>2018-04-17T11:52:03Z</time>
      </trkpt>
      <trkpt lat="38.8008" lon="15.24075">
        <ele>5.42</ele>
        <time>2018-04-17T11:52:15Z</time>
      </trkpt>
      <trkpt lat="38.8008" lon="15.24075">
        <ele>5.42</ele>
        <time>2018-04-17T11:52:31Z</time>
      </trkpt>
      <trkpt lat="38.80081" lon="15.24076">
        <ele>4.46</ele>
        <time>2018-04-17T11:52:47Z</time>
      </trkpt>
      <trkpt lat="38.80082" lon="15.24077">
        <ele>4.46</ele>
        <time>2018-04-17T11:53:00Z</time>
      </trkpt>
      <trkpt lat="38.80081" lon="15.24075">
        <ele>4.46</ele>
        <time>2018-04-17T11:53:27Z</time>
      </trkpt>
      <trkpt lat="38.80077" lon="15.24072">
        <ele>4.94</ele>
        <time>2018-04-17T11:53:43Z</time>
      </trkpt>
      <trkpt lat="38.80077" lon="15.24072">
        <ele>4.94</ele>
        <time>2018-04-17T11:53:44Z</time>
      </trkpt>
      <trkpt lat="38.80066" lon="15.24066">
        <ele>5.42</ele>
        <time>2018-04-17T11:53:58Z</time>
      </trkpt>
      <trkpt lat="38.80066" lon="15.24066">
        <ele>5.91</ele>
        <time>2018-04-17T11:53:59Z</time>
      </trkpt>
      <trkpt lat="38.80061" lon="15.24063">
        <ele>5.91</ele>
        <time>2018-04-17T11:54:08Z</time>
      </trkpt>
      <trkpt lat="38.80059" lon="15.24062">
        <ele>6.39</ele>
        <time>2018-04-17T11:54:10Z</time>
      </trkpt>
      <trkpt lat="38.80048" lon="15.24058">
        <ele>6.87</ele>
        <time>2018-04-17T11:54:21Z</time>
      </trkpt>
      <trkpt lat="38.80043" lon="15.2406">
        <ele>5.91</ele>
        <time>2018-04-17T11:54:26Z</time>
      </trkpt>
      <trkpt lat="38.80031" lon="15.24053">
        <ele>5.42</ele>
        <time>2018-04-17T11:54:40Z</time>
      </trkpt>
      <trkpt lat="38.80029" lon="15.24052">
        <ele>5.91</ele>
        <time>2018-04-17T11:54:54Z</time>
      </trkpt>
      <trkpt lat="38.80027" lon="15.24052">
        <ele>5.91</ele>
        <time>2018-04-17T11:55:10Z</time>
      </trkpt>
      <trkpt lat="38.80028" lon="15.24052">
        <ele>5.91</ele>
        <time>2018-04-17T11:55:22Z</time>
      </trkpt>
      <trkpt lat="38.80027" lon="15.24052">
        <ele>5.42</ele>
        <time>2018-04-17T11:55:47Z</time>
      </trkpt>
      <trkpt lat="38.80027" lon="15.24052">
        <ele>5.42</ele>
        <time>2018-04-17T11:56:09Z</time>
      </trkpt>
      <trkpt lat="38.80027" lon="15.24052">
        <ele>5.91</ele>
        <time>2018-04-17T11:56:25Z</time>
      </trkpt>
      <trkpt lat="38.80025" lon="15.24051">
        <ele>5.91</ele>
        <time>2018-04-17T11:56:45Z</time>
      </trkpt>
      <trkpt lat="38.80025" lon="15.24051">
        <ele>5.42</ele>
        <time>2018-04-17T11:56:51Z</time>
      </trkpt>
      <trkpt lat="38.80025" lon="15.24047">
        <ele>5.42</ele>
        <time>2018-04-17T11:56:54Z</time>
      </trkpt>
      <trkpt lat="38.80027" lon="15.24042">
        <ele>4.94</ele>
        <time>2018-04-17T11:56:58Z</time>
      </trkpt>
      <trkpt lat="38.80028" lon="15.24024">
        <ele>4.46</ele>
        <time>2018-04-17T11:57:12Z</time>
      </trkpt>
      <trkpt lat="38.8003" lon="15.24014">
        <ele>7.35</ele>
        <time>2018-04-17T11:57:22Z</time>
      </trkpt>
      <trkpt lat="38.80035" lon="15.23996">
        <ele>11.67</ele>
        <time>2018-04-17T11:57:36Z</time>
      </trkpt>
      <trkpt lat="38.80034" lon="15.2398">
        <ele>13.12</ele>
        <time>2018-04-17T11:57:47Z</time>
      </trkpt>
      <trkpt lat="38.80033" lon="15.23973">
        <ele>12.63</ele>
        <time>2018-04-17T11:57:54Z</time>
      </trkpt>
      <trkpt lat="38.80033" lon="15.23957">
        <ele>13.6</ele>
        <time>2018-04-17T11:58:05Z</time>
      </trkpt>
      <trkpt lat="38.80032" lon="15.2394">
        <ele>15.04</ele>
        <time>2018-04-17T11:58:18Z</time>
      </trkpt>
      <trkpt lat="38.80032" lon="15.23934">
        <ele>15.52</ele>
        <time>2018-04-17T11:58:23Z</time>
      </trkpt>
      <trkpt lat="38.8003" lon="15.23921">
        <ele>16.48</ele>
        <time>2018-04-17T11:58:36Z</time>
      </trkpt>
      <trkpt lat="38.80031" lon="15.23918">
        <ele>16.48</ele>
        <time>2018-04-17T11:58:39Z</time>
      </trkpt>
      <trkpt lat="38.80033" lon="15.23906">
        <ele>18.4</ele>
        <time>2018-04-17T11:58:53Z</time>
      </trkpt>
      <trkpt lat="38.80033" lon="15.23894">
        <ele>19.36</ele>
        <time>2018-04-17T11:59:09Z</time>
      </trkpt>
      <trkpt lat="38.80032" lon="15.23893">
        <ele>19.84</ele>
        <time>2018-04-17T11:59:11Z</time>
      </trkpt>
      <trkpt lat="38.8003" lon="15.23896">
        <ele>21.29</ele>
        <time>2018-04-17T11:59:14Z</time>
      </trkpt>
      <trkpt lat="38.80029" lon="15.23896">
        <ele>22.25</ele>
        <time>2018-04-17T11:59:16Z</time>
      </trkpt>
      <trkpt lat="38.80033" lon="15.23876">
        <ele>27.05</ele>
        <time>2018-04-17T11:59:28Z</time>
      </trkpt>
      <trkpt lat="38.80034" lon="15.23875">
        <ele>27.05</ele>
        <time>2018-04-17T11:59:29Z</time>
      </trkpt>
      <trkpt lat="38.80035" lon="15.23868">
        <ele>26.57</ele>
        <time>2018-04-17T11:59:32Z</time>
      </trkpt>
      <trkpt lat="38.80036" lon="15.23855">
        <ele>25.13</ele>
        <time>2018-04-17T11:59:40Z</time>
      </trkpt>
      <trkpt lat="38.80041" lon="15.23852">
        <ele>26.09</ele>
        <time>2018-04-17T11:59:45Z</time>
      </trkpt>
      <trkpt lat="38.80047" lon="15.23853">
        <ele>26.57</ele>
        <time>2018-04-17T11:59:52Z</time>
      </trkpt>
      <trkpt lat="38.80065" lon="15.23849">
        <ele>31.86</ele>
        <time>2018-04-17T12:00:10Z</time>
      </trkpt>
      <trkpt lat="38.80079" lon="15.23843">
        <ele>31.86</ele>
        <time>2018-04-17T12:00:23Z</time>
      </trkpt>
      <trkpt lat="38.80087" lon="15.23837">
        <ele>30.9</ele>
        <time>2018-04-17T12:00:30Z</time>
      </trkpt>
      <trkpt lat="38.80105" lon="15.23823">
        <ele>29.94</ele>
        <time>2018-04-17T12:00:48Z</time>
      </trkpt>
      <trkpt lat="38.80119" lon="15.2382">
        <ele>31.86</ele>
        <time>2018-04-17T12:01:01Z</time>
      </trkpt>
      <trkpt lat="38.80139" lon="15.23821">
        <ele>32.82</ele>
        <time>2018-04-17T12:01:18Z</time>
      </trkpt>
      <trkpt lat="38.80156" lon="15.23818">
        <ele>34.74</ele>
        <time>2018-04-17T12:01:34Z</time>
      </trkpt>
      <trkpt lat="38.80176" lon="15.23818">
        <ele>38.11</ele>
        <time>2018-04-17T12:01:53Z</time>
      </trkpt>
      <trkpt lat="38.80187" lon="15.23817">
        <ele>40.51</ele>
        <time>2018-04-17T12:02:07Z</time>
      </trkpt>
      <trkpt lat="38.80198" lon="15.23816">
        <ele>44.36</ele>
        <time>2018-04-17T12:02:21Z</time>
      </trkpt>
      <trkpt lat="38.80212" lon="15.23812">
        <ele>48.68</ele>
        <time>2018-04-17T12:02:32Z</time>
      </trkpt>
      <trkpt lat="38.80218" lon="15.23808">
        <ele>54.93</ele>
        <time>2018-04-17T12:02:45Z</time>
      </trkpt>
      <trkpt lat="38.8022" lon="15.23807">
        <ele>55.41</ele>
        <time>2018-04-17T12:02:48Z</time>
      </trkpt>
      <trkpt lat="38.80227" lon="15.23805">
        <ele>56.37</ele>
        <time>2018-04-17T12:03:01Z</time>
      </trkpt>
      <trkpt lat="38.80246" lon="15.23809">
        <ele>55.41</ele>
        <time>2018-04-17T12:03:17Z</time>
      </trkpt>
      <trkpt lat="38.80249" lon="15.23806">
        <ele>59.26</ele>
        <time>2018-04-17T12:03:28Z</time>
      </trkpt>
      <trkpt lat="38.80252" lon="15.23804">
        <ele>60.7</ele>
        <time>2018-04-17T12:03:44Z</time>
      </trkpt>
      <trkpt lat="38.80254" lon="15.23802">
        <ele>61.18</ele>
        <time>2018-04-17T12:03:51Z</time>
      </trkpt>
      <trkpt lat="38.8027" lon="15.23798">
        <ele>59.74</ele>
        <time>2018-04-17T12:04:04Z</time>
      </trkpt>
      <trkpt lat="38.80273" lon="15.23796">
        <ele>60.22</ele>
        <time>2018-04-17T12:04:08Z</time>
      </trkpt>
      <trkpt lat="38.80291" lon="15.238">
        <ele>52.53</ele>
        <time>2018-04-17T12:04:24Z</time>
      </trkpt>
      <trkpt lat="38.80294" lon="15.238">
        <ele>52.05</ele>
        <time>2018-04-17T12:04:37Z</time>
      </trkpt>
      <trkpt lat="38.80298" lon="15.23807">
        <ele>50.61</ele>
        <time>2018-04-17T12:04:49Z</time>
      </trkpt>
      <trkpt lat="38.80304" lon="15.23816">
        <ele>50.61</ele>
        <time>2018-04-17T12:05:00Z</time>
      </trkpt>
      <trkpt lat="38.80305" lon="15.23821">
        <ele>51.09</ele>
        <time>2018-04-17T12:05:13Z</time>
      </trkpt>
      <trkpt lat="38.80304" lon="15.23823">
        <ele>51.09</ele>
        <time>2018-04-17T12:05:28Z</time>
      </trkpt>
      <trkpt lat="38.80301" lon="15.23821">
        <ele>50.61</ele>
        <time>2018-04-17T12:05:37Z</time>
      </trkpt>
      <trkpt lat="38.80307" lon="15.2381">
        <ele>49.65</ele>
        <time>2018-04-17T12:05:47Z</time>
      </trkpt>
      <trkpt lat="38.80313" lon="15.23795">
        <ele>46.76</ele>
        <time>2018-04-17T12:06:01Z</time>
      </trkpt>
      <trkpt lat="38.80314" lon="15.23792">
        <ele>46.28</ele>
        <time>2018-04-17T12:06:21Z</time>
      </trkpt>
      <trkpt lat="38.80315" lon="15.23794">
        <ele>45.32</ele>
        <time>2018-04-17T12:06:44Z</time>
      </trkpt>
      <trkpt lat="38.80315" lon="15.23795">
        <ele>44.84</ele>
        <time>2018-04-17T12:07:01Z</time>
      </trkpt>
      <trkpt lat="38.80314" lon="15.23795">
        <ele>45.32</ele>
        <time>2018-04-17T12:07:31Z</time>
      </trkpt>
      <trkpt lat="38.80314" lon="15.23795">
        <ele>45.8</ele>
        <time>2018-04-17T12:07:59Z</time>
      </trkpt>
      <trkpt lat="38.80313" lon="15.23795">
        <ele>46.76</ele>
        <time>2018-04-17T12:08:35Z</time>
      </trkpt>
      <trkpt lat="38.80313" lon="15.23795">
        <ele>47.72</ele>
        <time>2018-04-17T12:09:05Z</time>
      </trkpt>
      <trkpt lat="38.80313" lon="15.23795">
        <ele>48.2</ele>
        <time>2018-04-17T12:09:38Z</time>
      </trkpt>
      <trkpt lat="38.80314" lon="15.23795">
        <ele>48.68</ele>
        <time>2018-04-17T12:10:16Z</time>
      </trkpt>
      <trkpt lat="38.80314" lon="15.23796">
        <ele>48.68</ele>
        <time>2018-04-17T12:10:34Z</time>
      </trkpt>
      <trkpt lat="38.80315" lon="15.23797">
        <ele>49.65</ele>
        <time>2018-04-17T12:10:58Z</time>
      </trkpt>
      <trkpt lat="38.80315" lon="15.23797">
        <ele>49.65</ele>
        <time>2018-04-17T12:11:19Z</time>
      </trkpt>
      <trkpt lat="38.80315" lon="15.23798">
        <ele>49.65</ele>
        <time>2018-04-17T12:11:35Z</time>
      </trkpt>
      <trkpt lat="38.80315" lon="15.23798">
        <ele>49.65</ele>
        <time>2018-04-17T12:11:49Z</time>
      </trkpt>
      <trkpt lat="38.80315" lon="15.23797">
        <ele>49.65</ele>
        <time>2018-04-17T12:12:05Z</time>
      </trkpt>
      <trkpt lat="38.80314" lon="15.23796">
        <ele>49.65</ele>
        <time>2018-04-17T12:12:34Z</time>
      </trkpt>
      <trkpt lat="38.80313" lon="15.23796">
        <ele>49.65</ele>
        <time>2018-04-17T12:13:13Z</time>
      </trkpt>
      <trkpt lat="38.80312" lon="15.23796">
        <ele>50.13</ele>
        <time>2018-04-17T12:13:45Z</time>
      </trkpt>
      <trkpt lat="38.80312" lon="15.23796">
        <ele>50.13</ele>
        <time>2018-04-17T12:14:17Z</time>
      </trkpt>
      <trkpt lat="38.80313" lon="15.23795">
        <ele>49.65</ele>
        <time>2018-04-17T12:14:36Z</time>
      </trkpt>
      <trkpt lat="38.80313" lon="15.23807">
        <ele>51.09</ele>
        <time>2018-04-17T12:14:48Z</time>
      </trkpt>
      <trkpt lat="38.80308" lon="15.23823">
        <ele>50.61</ele>
        <time>2018-04-17T12:15:03Z</time>
      </trkpt>
      <trkpt lat="38.80309" lon="15.23825">
        <ele>49.65</ele>
        <time>2018-04-17T12:15:16Z</time>
      </trkpt>
      <trkpt lat="38.80309" lon="15.23825">
        <ele>47.72</ele>
        <time>2018-04-17T12:15:41Z</time>
      </trkpt>
      <trkpt lat="38.80309" lon="15.23826">
        <ele>47.24</ele>
        <time>2018-04-17T12:15:52Z</time>
      </trkpt>
      <trkpt lat="38.80309" lon="15.23824">
        <ele>46.76</ele>
        <time>2018-04-17T12:16:17Z</time>
      </trkpt>
      <trkpt lat="38.80309" lon="15.23821">
        <ele>46.76</ele>
        <time>2018-04-17T12:16:20Z</time>
      </trkpt>
      <trkpt lat="38.80312" lon="15.23817">
        <ele>46.76</ele>
        <time>2018-04-17T12:16:24Z</time>
      </trkpt>
      <trkpt lat="38.80318" lon="15.2382">
        <ele>47.24</ele>
        <time>2018-04-17T12:16:37Z</time>
      </trkpt>
      <trkpt lat="38.80319" lon="15.2382">
        <ele>48.2</ele>
        <time>2018-04-17T12:16:52Z</time>
      </trkpt>
      <trkpt lat="38.80321" lon="15.23821">
        <ele>49.16</ele>
        <time>2018-04-17T12:17:05Z</time>
      </trkpt>
      <trkpt lat="38.80321" lon="15.2382">
        <ele>49.16</ele>
        <time>2018-04-17T12:17:25Z</time>
      </trkpt>
      <trkpt lat="38.80322" lon="15.23823">
        <ele>49.16</ele>
        <time>2018-04-17T12:17:46Z</time>
      </trkpt>
      <trkpt lat="38.80323" lon="15.23823">
        <ele>49.16</ele>
        <time>2018-04-17T12:18:08Z</time>
      </trkpt>
      <trkpt lat="38.80323" lon="15.23823">
        <ele>49.16</ele>
        <time>2018-04-17T12:18:27Z</time>
      </trkpt>
      <trkpt lat="38.80323" lon="15.23824">
        <ele>48.68</ele>
        <time>2018-04-17T12:18:44Z</time>
      </trkpt>
      <trkpt lat="38.80324" lon="15.23825">
        <ele>48.2</ele>
        <time>2018-04-17T12:19:08Z</time>
      </trkpt>
      <trkpt lat="38.80325" lon="15.23824">
        <ele>48.2</ele>
        <time>2018-04-17T12:19:35Z</time>
      </trkpt>
      <trkpt lat="38.80324" lon="15.23824">
        <ele>47.72</ele>
        <time>2018-04-17T12:19:58Z</time>
      </trkpt>
      <trkpt lat="38.80324" lon="15.23824">
        <ele>47.72</ele>
        <time>2018-04-17T12:20:24Z</time>
      </trkpt>
      <trkpt lat="38.80324" lon="15.23824">
        <ele>47.24</ele>
        <time>2018-04-17T12:20:48Z</time>
      </trkpt>
      <trkpt lat="38.80324" lon="15.23824">
        <ele>47.24</ele>
        <time>2018-04-17T12:21:14Z</time>
      </trkpt>
      <trkpt lat="38.80324" lon="15.23824">
        <ele>47.24</ele>
        <time>2018-04-17T12:21:39Z</time>
      </trkpt>
      <trkpt lat="38.80324" lon="15.23826">
        <ele>48.68</ele>
        <time>2018-04-17T12:22:01Z</time>
      </trkpt>
      <trkpt lat="38.80327" lon="15.23829">
        <ele>48.2</ele>
        <time>2018-04-17T12:22:12Z</time>
      </trkpt>
      <trkpt lat="38.80321" lon="15.23828">
        <ele>50.61</ele>
        <time>2018-04-17T12:22:28Z</time>
      </trkpt>
      <trkpt lat="38.8032" lon="15.23827">
        <ele>49.65</ele>
        <time>2018-04-17T12:22:48Z</time>
      </trkpt>
      <trkpt lat="38.80319" lon="15.23826">
        <ele>49.16</ele>
        <time>2018-04-17T12:23:10Z</time>
      </trkpt>
      <trkpt lat="38.80318" lon="15.23826">
        <ele>48.2</ele>
        <time>2018-04-17T12:23:28Z</time>
      </trkpt>
      <trkpt lat="38.80318" lon="15.23826">
        <ele>48.68</ele>
        <time>2018-04-17T12:24:11Z</time>
      </trkpt>
      <trkpt lat="38.80319" lon="15.23825">
        <ele>48.2</ele>
        <time>2018-04-17T12:24:49Z</time>
      </trkpt>
      <trkpt lat="38.80319" lon="15.23825">
        <ele>48.2</ele>
        <time>2018-04-17T12:25:33Z</time>
      </trkpt>
      <trkpt lat="38.80318" lon="15.23825">
        <ele>47.72</ele>
        <time>2018-04-17T12:26:07Z</time>
      </trkpt>
      <trkpt lat="38.80318" lon="15.23825">
        <ele>47.24</ele>
        <time>2018-04-17T12:26:38Z</time>
      </trkpt>
      <trkpt lat="38.80318" lon="15.23825">
        <ele>47.24</ele>
        <time>2018-04-17T12:27:06Z</time>
      </trkpt>
      <trkpt lat="38.80319" lon="15.23825">
        <ele>47.72</ele>
        <time>2018-04-17T12:27:48Z</time>
      </trkpt>
      <trkpt lat="38.80319" lon="15.23826">
        <ele>48.2</ele>
        <time>2018-04-17T12:28:23Z</time>
      </trkpt>
      <trkpt lat="38.80318" lon="15.23827">
        <ele>47.72</ele>
        <time>2018-04-17T12:29:06Z</time>
      </trkpt>
      <trkpt lat="38.80318" lon="15.23827">
        <ele>47.72</ele>
        <time>2018-04-17T12:29:49Z</time>
      </trkpt>
      <trkpt lat="38.80318" lon="15.23827">
        <ele>46.76</ele>
        <time>2018-04-17T12:30:27Z</time>
      </trkpt>
      <trkpt lat="38.80318" lon="15.23827">
        <ele>46.76</ele>
        <time>2018-04-17T12:30:59Z</time>
      </trkpt>
      <trkpt lat="38.80318" lon="15.23826">
        <ele>47.72</ele>
        <time>2018-04-17T12:31:38Z</time>
      </trkpt>
      <trkpt lat="38.80318" lon="15.23825">
        <ele>47.72</ele>
        <time>2018-04-17T12:32:14Z</time>
      </trkpt>
      <trkpt lat="38.80318" lon="15.23825">
        <ele>47.24</ele>
        <time>2018-04-17T12:32:56Z</time>
      </trkpt>
      <trkpt lat="38.80318" lon="15.23825">
        <ele>47.24</ele>
        <time>2018-04-17T12:33:33Z</time>
      </trkpt>
      <trkpt lat="38.80318" lon="15.23825">
        <ele>47.24</ele>
        <time>2018-04-17T12:34:18Z</time>
      </trkpt>
      <trkpt lat="38.80317" lon="15.23824">
        <ele>47.72</ele>
        <time>2018-04-17T12:34:48Z</time>
      </trkpt>
      <trkpt lat="38.80317" lon="15.23824">
        <ele>48.2</ele>
        <time>2018-04-17T12:35:24Z</time>
      </trkpt>
      <trkpt lat="38.80317" lon="15.23823">
        <ele>48.2</ele>
        <time>2018-04-17T12:36:03Z</time>
      </trkpt>
      <trkpt lat="38.80317" lon="15.23823">
        <ele>48.2</ele>
        <time>2018-04-17T12:36:38Z</time>
      </trkpt>
      <trkpt lat="38.80317" lon="15.23823">
        <ele>48.2</ele>
        <time>2018-04-17T12:37:06Z</time>
      </trkpt>
      <trkpt lat="38.80317" lon="15.23823">
        <ele>48.68</ele>
        <time>2018-04-17T12:37:40Z</time>
      </trkpt>
      <trkpt lat="38.80318" lon="15.23823">
        <ele>48.2</ele>
        <time>2018-04-17T12:38:14Z</time>
      </trkpt>
      <trkpt lat="38.80318" lon="15.23824">
        <ele>48.2</ele>
        <time>2018-04-17T12:39:05Z</time>
      </trkpt>
      <trkpt lat="38.80318" lon="15.23823">
        <ele>48.68</ele>
        <time>2018-04-17T12:39:41Z</time>
      </trkpt>
      <trkpt lat="38.80317" lon="15.23824">
        <ele>48.2</ele>
        <time>2018-04-17T12:40:19Z</time>
      </trkpt>
      <trkpt lat="38.80317" lon="15.23824">
        <ele>48.2</ele>
        <time>2018-04-17T12:41:01Z</time>
      </trkpt>
      <trkpt lat="38.80317" lon="15.23823">
        <ele>48.2</ele>
        <time>2018-04-17T12:41:44Z</time>
      </trkpt>
      <trkpt lat="38.80317" lon="15.23822">
        <ele>47.72</ele>
        <time>2018-04-17T12:42:20Z</time>
      </trkpt>
      <trkpt lat="38.80317" lon="15.23822">
        <ele>47.72</ele>
        <time>2018-04-17T12:42:52Z</time>
      </trkpt>
      <trkpt lat="38.80318" lon="15.23822">
        <ele>47.24</ele>
        <time>2018-04-17T12:43:23Z</time>
      </trkpt>
      <trkpt lat="38.80317" lon="15.23823">
        <ele>47.24</ele>
        <time>2018-04-17T12:43:45Z</time>
      </trkpt>
      <trkpt lat="38.80317" lon="15.23823">
        <ele>47.24</ele>
        <time>2018-04-17T12:44:24Z</time>
      </trkpt>
      <trkpt lat="38.80317" lon="15.23824">
        <ele>47.72</ele>
        <time>2018-04-17T12:44:59Z</time>
      </trkpt>
      <trkpt lat="38.80316" lon="15.23824">
        <ele>47.24</ele>
        <time>2018-04-17T12:45:33Z</time>
      </trkpt>
      <trkpt lat="38.80316" lon="15.23824">
        <ele>46.76</ele>
        <time>2018-04-17T12:46:01Z</time>
      </trkpt>
      <trkpt lat="38.80315" lon="15.23823">
        <ele>46.76</ele>
        <time>2018-04-17T12:46:31Z</time>
      </trkpt>
      <trkpt lat="38.80316" lon="15.23823">
        <ele>46.28</ele>
        <time>2018-04-17T12:47:01Z</time>
      </trkpt>
      <trkpt lat="38.80316" lon="15.23823">
        <ele>46.28</ele>
        <time>2018-04-17T12:47:25Z</time>
      </trkpt>
      <trkpt lat="38.80317" lon="15.23823">
        <ele>46.28</ele>
        <time>2018-04-17T12:47:47Z</time>
      </trkpt>
      <trkpt lat="38.80316" lon="15.23822">
        <ele>46.76</ele>
        <time>2018-04-17T12:47:57Z</time>
      </trkpt>
      <trkpt lat="38.80314" lon="15.23818">
        <ele>46.76</ele>
        <time>2018-04-17T12:48:08Z</time>
      </trkpt>
      <trkpt lat="38.80314" lon="15.23816">
        <ele>46.76</ele>
        <time>2018-04-17T12:48:21Z</time>
      </trkpt>
      <trkpt lat="38.80313" lon="15.23816">
        <ele>46.28</ele>
        <time>2018-04-17T12:48:36Z</time>
      </trkpt>
      <trkpt lat="38.80313" lon="15.23814">
        <ele>46.28</ele>
        <time>2018-04-17T12:48:55Z</time>
      </trkpt>
      <trkpt lat="38.80313" lon="15.23813">
        <ele>45.8</ele>
        <time>2018-04-17T12:49:09Z</time>
      </trkpt>
      <trkpt lat="38.80313" lon="15.23813">
        <ele>46.76</ele>
        <time>2018-04-17T12:49:30Z</time>
      </trkpt>
      <trkpt lat="38.80313" lon="15.23812">
        <ele>46.76</ele>
        <time>2018-04-17T12:49:50Z</time>
      </trkpt>
      <trkpt lat="38.80312" lon="15.23812">
        <ele>45.8</ele>
        <time>2018-04-17T12:50:11Z</time>
      </trkpt>
      <trkpt lat="38.80312" lon="15.23812">
        <ele>45.32</ele>
        <time>2018-04-17T12:50:23Z</time>
      </trkpt>
      <trkpt lat="38.80312" lon="15.23812">
        <ele>45.8</ele>
        <time>2018-04-17T12:50:41Z</time>
      </trkpt>
      <trkpt lat="38.80312" lon="15.23812">
        <ele>46.28</ele>
        <time>2018-04-17T12:51:02Z</time>
      </trkpt>
      <trkpt lat="38.80312" lon="15.2381">
        <ele>47.24</ele>
        <time>2018-04-17T12:51:26Z</time>
      </trkpt>
      <trkpt lat="38.80312" lon="15.23808">
        <ele>48.68</ele>
        <time>2018-04-17T12:51:51Z</time>
      </trkpt>
      <trkpt lat="38.80312" lon="15.23808">
        <ele>49.65</ele>
        <time>2018-04-17T12:52:10Z</time>
      </trkpt>
      <trkpt lat="38.80313" lon="15.2381">
        <ele>49.16</ele>
        <time>2018-04-17T12:52:32Z</time>
      </trkpt>
      <trkpt lat="38.80313" lon="15.23811">
        <ele>48.2</ele>
        <time>2018-04-17T12:52:49Z</time>
      </trkpt>
      <trkpt lat="38.80312" lon="15.23812">
        <ele>48.68</ele>
        <time>2018-04-17T12:53:02Z</time>
      </trkpt>
      <trkpt lat="38.80311" lon="15.23812">
        <ele>48.68</ele>
        <time>2018-04-17T12:53:23Z</time>
      </trkpt>
      <trkpt lat="38.8031" lon="15.23813">
        <ele>48.68</ele>
        <time>2018-04-17T12:53:42Z</time>
      </trkpt>
      <trkpt lat="38.8031" lon="15.23813">
        <ele>48.68</ele>
        <time>2018-04-17T12:53:51Z</time>
      </trkpt>
      <trkpt lat="38.80309" lon="15.23813">
        <ele>50.13</ele>
        <time>2018-04-17T12:54:18Z</time>
      </trkpt>
      <trkpt lat="38.80311" lon="15.23813">
        <ele>49.65</ele>
        <time>2018-04-17T12:54:30Z</time>
      </trkpt>
      <trkpt lat="38.8031" lon="15.23812">
        <ele>49.65</ele>
        <time>2018-04-17T12:54:41Z</time>
      </trkpt>
      <trkpt lat="38.80311" lon="15.23812">
        <ele>49.16</ele>
        <time>2018-04-17T12:54:54Z</time>
      </trkpt>
      <trkpt lat="38.80311" lon="15.23812">
        <ele>47.24</ele>
        <time>2018-04-17T12:55:17Z</time>
      </trkpt>
      <trkpt lat="38.80312" lon="15.23811">
        <ele>47.24</ele>
        <time>2018-04-17T12:55:19Z</time>
      </trkpt>
      <trkpt lat="38.80313" lon="15.23811">
        <ele>48.2</ele>
        <time>2018-04-17T12:55:30Z</time>
      </trkpt>
      <trkpt lat="38.80316" lon="15.23812">
        <ele>49.16</ele>
        <time>2018-04-17T12:55:39Z</time>
      </trkpt>
      <trkpt lat="38.80315" lon="15.23811">
        <ele>49.16</ele>
        <time>2018-04-17T12:55:41Z</time>
      </trkpt>
      <trkpt lat="38.80316" lon="15.23807">
        <ele>49.65</ele>
        <time>2018-04-17T12:55:44Z</time>
      </trkpt>
      <trkpt lat="38.80317" lon="15.23802">
        <ele>48.2</ele>
        <time>2018-04-17T12:56:01Z</time>
      </trkpt>
      <trkpt lat="38.80317" lon="15.23802">
        <ele>47.72</ele>
        <time>2018-04-17T12:56:26Z</time>
      </trkpt>
      <trkpt lat="38.80313" lon="15.23809">
        <ele>48.2</ele>
        <time>2018-04-17T12:56:36Z</time>
      </trkpt>
      <trkpt lat="38.80312" lon="15.23813">
        <ele>48.68</ele>
        <time>2018-04-17T12:56:44Z</time>
      </trkpt>
      <trkpt lat="38.8031" lon="15.23812">
        <ele>49.16</ele>
        <time>2018-04-17T12:56:55Z</time>
      </trkpt>
      <trkpt lat="38.80311" lon="15.23811">
        <ele>49.65</ele>
        <time>2018-04-17T12:56:59Z</time>
      </trkpt>
      <trkpt lat="38.80313" lon="15.23807">
        <ele>49.65</ele>
        <time>2018-04-17T12:57:03Z</time>
      </trkpt>
      <trkpt lat="38.80314" lon="15.23799">
        <ele>49.65</ele>
        <time>2018-04-17T12:57:11Z</time>
      </trkpt>
      <trkpt lat="38.80313" lon="15.23798">
        <ele>49.65</ele>
        <time>2018-04-17T12:57:22Z</time>
      </trkpt>
      <trkpt lat="38.80312" lon="15.23799">
        <ele>48.68</ele>
        <time>2018-04-17T12:57:36Z</time>
      </trkpt>
      <trkpt lat="38.80312" lon="15.238">
        <ele>48.2</ele>
        <time>2018-04-17T12:57:56Z</time>
      </trkpt>
      <trkpt lat="38.80315" lon="15.238">
        <ele>47.72</ele>
        <time>2018-04-17T12:58:07Z</time>
      </trkpt>
      <trkpt lat="38.80314" lon="15.23794">
        <ele>50.61</ele>
        <time>2018-04-17T12:58:19Z</time>
      </trkpt>
      <trkpt lat="38.80313" lon="15.23793">
        <ele>51.57</ele>
        <time>2018-04-17T12:58:23Z</time>
      </trkpt>
      <trkpt lat="38.80314" lon="15.23793">
        <ele>53.01</ele>
        <time>2018-04-17T12:58:34Z</time>
      </trkpt>
      <trkpt lat="38.80313" lon="15.23793">
        <ele>52.53</ele>
        <time>2018-04-17T12:58:42Z</time>
      </trkpt>
      <trkpt lat="38.80313" lon="15.23794">
        <ele>51.09</ele>
        <time>2018-04-17T12:58:56Z</time>
      </trkpt>
      <trkpt lat="38.8031" lon="15.2379">
        <ele>50.13</ele>
        <time>2018-04-17T12:59:06Z</time>
      </trkpt>
      <trkpt lat="38.80305" lon="15.23795">
        <ele>50.61</ele>
        <time>2018-04-17T12:59:17Z</time>
      </trkpt>
      <trkpt lat="38.80304" lon="15.23798">
        <ele>50.61</ele>
        <time>2018-04-17T12:59:20Z</time>
      </trkpt>
      <trkpt lat="38.80303" lon="15.238">
        <ele>50.13</ele>
        <time>2018-04-17T12:59:22Z</time>
      </trkpt>
      <trkpt lat="38.80296" lon="15.23807">
        <ele>49.65</ele>
        <time>2018-04-17T12:59:33Z</time>
      </trkpt>
      <trkpt lat="38.80296" lon="15.23807">
        <ele>49.65</ele>
        <time>2018-04-17T12:59:34Z</time>
      </trkpt>
      <trkpt lat="38.80284" lon="15.23796">
        <ele>50.13</ele>
        <time>2018-04-17T12:59:51Z</time>
      </trkpt>
      <trkpt lat="38.8028" lon="15.23795">
        <ele>51.57</ele>
        <time>2018-04-17T12:59:57Z</time>
      </trkpt>
      <trkpt lat="38.80276" lon="15.23786">
        <ele>52.53</ele>
        <time>2018-04-17T13:00:11Z</time>
      </trkpt>
      <trkpt lat="38.8027" lon="15.23773">
        <ele>55.41</ele>
        <time>2018-04-17T13:00:26Z</time>
      </trkpt>
      <trkpt lat="38.80267" lon="15.23759">
        <ele>59.74</ele>
        <time>2018-04-17T13:00:42Z</time>
      </trkpt>
      <trkpt lat="38.80265" lon="15.23742">
        <ele>60.7</ele>
        <time>2018-04-17T13:00:58Z</time>
      </trkpt>
      <trkpt lat="38.80263" lon="15.23728">
        <ele>61.18</ele>
        <time>2018-04-17T13:01:11Z</time>
      </trkpt>
      <trkpt lat="38.80263" lon="15.23726">
        <ele>61.18</ele>
        <time>2018-04-17T13:01:13Z</time>
      </trkpt>
      <trkpt lat="38.80266" lon="15.23711">
        <ele>61.66</ele>
        <time>2018-04-17T13:01:23Z</time>
      </trkpt>
      <trkpt lat="38.80265" lon="15.2371">
        <ele>62.14</ele>
        <time>2018-04-17T13:01:24Z</time>
      </trkpt>
      <trkpt lat="38.80262" lon="15.23708">
        <ele>62.62</ele>
        <time>2018-04-17T13:01:26Z</time>
      </trkpt>
      <trkpt lat="38.80259" lon="15.23705">
        <ele>63.58</ele>
        <time>2018-04-17T13:01:29Z</time>
      </trkpt>
      <trkpt lat="38.8025" lon="15.23688">
        <ele>62.62</ele>
        <time>2018-04-17T13:01:45Z</time>
      </trkpt>
      <trkpt lat="38.80241" lon="15.23677">
        <ele>63.1</ele>
        <time>2018-04-17T13:01:58Z</time>
      </trkpt>
      <trkpt lat="38.80239" lon="15.23667">
        <ele>61.66</ele>
        <time>2018-04-17T13:02:18Z</time>
      </trkpt>
      <trkpt lat="38.80237" lon="15.23661">
        <ele>62.14</ele>
        <time>2018-04-17T13:02:22Z</time>
      </trkpt>
      <trkpt lat="38.80228" lon="15.23641">
        <ele>64.55</ele>
        <time>2018-04-17T13:02:38Z</time>
      </trkpt>
      <trkpt lat="38.80223" lon="15.23629">
        <ele>64.55</ele>
        <time>2018-04-17T13:02:47Z</time>
      </trkpt>
      <trkpt lat="38.80215" lon="15.23611">
        <ele>66.47</ele>
        <time>2018-04-17T13:03:03Z</time>
      </trkpt>
      <trkpt lat="38.80208" lon="15.23595">
        <ele>66.47</ele>
        <time>2018-04-17T13:03:16Z</time>
      </trkpt>
      <trkpt lat="38.80202" lon="15.23578">
        <ele>65.99</ele>
        <time>2018-04-17T13:03:29Z</time>
      </trkpt>
      <trkpt lat="38.80195" lon="15.23559">
        <ele>67.43</ele>
        <time>2018-04-17T13:03:45Z</time>
      </trkpt>
      <trkpt lat="38.80188" lon="15.2354">
        <ele>70.31</ele>
        <time>2018-04-17T13:04:01Z</time>
      </trkpt>
      <trkpt lat="38.80183" lon="15.23531">
        <ele>72.24</ele>
        <time>2018-04-17T13:04:12Z</time>
      </trkpt>
      <trkpt lat="38.80178" lon="15.23515">
        <ele>77.52</ele>
        <time>2018-04-17T13:04:27Z</time>
      </trkpt>
      <trkpt lat="38.80176" lon="15.23509">
        <ele>78.97</ele>
        <time>2018-04-17T13:04:32Z</time>
      </trkpt>
      <trkpt lat="38.80168" lon="15.2349">
        <ele>78</ele>
        <time>2018-04-17T13:04:47Z</time>
      </trkpt>
      <trkpt lat="38.80162" lon="15.23477">
        <ele>78.48</ele>
        <time>2018-04-17T13:05:00Z</time>
      </trkpt>
      <trkpt lat="38.80155" lon="15.23462">
        <ele>79.45</ele>
        <time>2018-04-17T13:05:16Z</time>
      </trkpt>
      <trkpt lat="38.80151" lon="15.23451">
        <ele>81.37</ele>
        <time>2018-04-17T13:05:28Z</time>
      </trkpt>
      <trkpt lat="38.80147" lon="15.23439">
        <ele>82.81</ele>
        <time>2018-04-17T13:05:42Z</time>
      </trkpt>
      <trkpt lat="38.80143" lon="15.23428">
        <ele>84.25</ele>
        <time>2018-04-17T13:05:56Z</time>
      </trkpt>
      <trkpt lat="38.80138" lon="15.23413">
        <ele>86.18</ele>
        <time>2018-04-17T13:06:10Z</time>
      </trkpt>
      <trkpt lat="38.80133" lon="15.23398">
        <ele>88.1</ele>
        <time>2018-04-17T13:06:25Z</time>
      </trkpt>
      <trkpt lat="38.80128" lon="15.23383">
        <ele>90.02</ele>
        <time>2018-04-17T13:06:39Z</time>
      </trkpt>
      <trkpt lat="38.80127" lon="15.23382">
        <ele>90.02</ele>
        <time>2018-04-17T13:06:40Z</time>
      </trkpt>
      <trkpt lat="38.80126" lon="15.23367">
        <ele>90.98</ele>
        <time>2018-04-17T13:06:53Z</time>
      </trkpt>
      <trkpt lat="38.80128" lon="15.23355">
        <ele>92.42</ele>
        <time>2018-04-17T13:07:09Z</time>
      </trkpt>
      <trkpt lat="38.8013" lon="15.23355">
        <ele>92.42</ele>
        <time>2018-04-17T13:07:26Z</time>
      </trkpt>
      <trkpt lat="38.8013" lon="15.23354">
        <ele>90.98</ele>
        <time>2018-04-17T13:07:54Z</time>
      </trkpt>
      <trkpt lat="38.8013" lon="15.23354">
        <ele>90.98</ele>
        <time>2018-04-17T13:08:19Z</time>
      </trkpt>
      <trkpt lat="38.8013" lon="15.23355">
        <ele>90.98</ele>
        <time>2018-04-17T13:08:38Z</time>
      </trkpt>
      <trkpt lat="38.8013" lon="15.23355">
        <ele>90.02</ele>
        <time>2018-04-17T13:08:58Z</time>
      </trkpt>
      <trkpt lat="38.80129" lon="15.23354">
        <ele>90.02</ele>
        <time>2018-04-17T13:09:12Z</time>
      </trkpt>
      <trkpt lat="38.80128" lon="15.23354">
        <ele>90.02</ele>
        <time>2018-04-17T13:09:28Z</time>
      </trkpt>
      <trkpt lat="38.80128" lon="15.23354">
        <ele>89.06</ele>
        <time>2018-04-17T13:09:47Z</time>
      </trkpt>
      <trkpt lat="38.80129" lon="15.23346">
        <ele>90.98</ele>
        <time>2018-04-17T13:10:03Z</time>
      </trkpt>
      <trkpt lat="38.80128" lon="15.23344">
        <ele>91.46</ele>
        <time>2018-04-17T13:10:06Z</time>
      </trkpt>
      <trkpt lat="38.80128" lon="15.23342">
        <ele>90.02</ele>
        <time>2018-04-17T13:10:13Z</time>
      </trkpt>
      <trkpt lat="38.80126" lon="15.23336">
        <ele>90.98</ele>
        <time>2018-04-17T13:10:24Z</time>
      </trkpt>
      <trkpt lat="38.80126" lon="15.23335">
        <ele>90.98</ele>
        <time>2018-04-17T13:10:37Z</time>
      </trkpt>
      <trkpt lat="38.80125" lon="15.23333">
        <ele>91.94</ele>
        <time>2018-04-17T13:10:52Z</time>
      </trkpt>
      <trkpt lat="38.80126" lon="15.23331">
        <ele>93.39</ele>
        <time>2018-04-17T13:11:05Z</time>
      </trkpt>
      <trkpt lat="38.80126" lon="15.23331">
        <ele>93.87</ele>
        <time>2018-04-17T13:11:19Z</time>
      </trkpt>
      <trkpt lat="38.80126" lon="15.23333">
        <ele>93.39</ele>
        <time>2018-04-17T13:11:21Z</time>
      </trkpt>
      <trkpt lat="38.80125" lon="15.23334">
        <ele>92.9</ele>
        <time>2018-04-17T13:11:37Z</time>
      </trkpt>
      <trkpt lat="38.80126" lon="15.23333">
        <ele>93.39</ele>
        <time>2018-04-17T13:11:54Z</time>
      </trkpt>
      <trkpt lat="38.80125" lon="15.23328">
        <ele>94.83</ele>
        <time>2018-04-17T13:11:58Z</time>
      </trkpt>
      <trkpt lat="38.80125" lon="15.23327">
        <ele>95.31</ele>
        <time>2018-04-17T13:12:04Z</time>
      </trkpt>
      <trkpt lat="38.80125" lon="15.23318">
        <ele>97.71</ele>
        <time>2018-04-17T13:12:11Z</time>
      </trkpt>
      <trkpt lat="38.80119" lon="15.233">
        <ele>100.11</ele>
        <time>2018-04-17T13:12:25Z</time>
      </trkpt>
      <trkpt lat="38.80116" lon="15.23293">
        <ele>101.56</ele>
        <time>2018-04-17T13:12:31Z</time>
      </trkpt>
      <trkpt lat="38.80107" lon="15.23277">
        <ele>103</ele>
        <time>2018-04-17T13:12:45Z</time>
      </trkpt>
      <trkpt lat="38.80101" lon="15.23264">
        <ele>106.36</ele>
        <time>2018-04-17T13:12:57Z</time>
      </trkpt>
      <trkpt lat="38.80097" lon="15.23256">
        <ele>107.32</ele>
        <time>2018-04-17T13:13:06Z</time>
      </trkpt>
      <trkpt lat="38.80091" lon="15.23243">
        <ele>107.81</ele>
        <time>2018-04-17T13:13:17Z</time>
      </trkpt>
      <trkpt lat="38.80091" lon="15.23235">
        <ele>108.29</ele>
        <time>2018-04-17T13:13:29Z</time>
      </trkpt>
      <trkpt lat="38.8009" lon="15.23234">
        <ele>107.81</ele>
        <time>2018-04-17T13:13:42Z</time>
      </trkpt>
      <trkpt lat="38.80086" lon="15.23229">
        <ele>109.25</ele>
        <time>2018-04-17T13:14:00Z</time>
      </trkpt>
      <trkpt lat="38.80084" lon="15.23224">
        <ele>110.69</ele>
        <time>2018-04-17T13:14:09Z</time>
      </trkpt>
      <trkpt lat="38.80086" lon="15.23218">
        <ele>113.57</ele>
        <time>2018-04-17T13:14:19Z</time>
      </trkpt>
      <trkpt lat="38.80087" lon="15.23217">
        <ele>114.05</ele>
        <time>2018-04-17T13:14:20Z</time>
      </trkpt>
      <trkpt lat="38.80093" lon="15.23212">
        <ele>115.98</ele>
        <time>2018-04-17T13:14:27Z</time>
      </trkpt>
      <trkpt lat="38.80097" lon="15.23205">
        <ele>115.5</ele>
        <time>2018-04-17T13:14:33Z</time>
      </trkpt>
      <trkpt lat="38.80101" lon="15.23201">
        <ele>116.46</ele>
        <time>2018-04-17T13:14:38Z</time>
      </trkpt>
      <trkpt lat="38.80102" lon="15.23195">
        <ele>117.42</ele>
        <time>2018-04-17T13:14:45Z</time>
      </trkpt>
      <trkpt lat="38.80103" lon="15.23186">
        <ele>120.78</ele>
        <time>2018-04-17T13:14:57Z</time>
      </trkpt>
      <trkpt lat="38.80107" lon="15.23183">
        <ele>121.74</ele>
        <time>2018-04-17T13:15:03Z</time>
      </trkpt>
      <trkpt lat="38.8011" lon="15.2318">
        <ele>122.22</ele>
        <time>2018-04-17T13:15:07Z</time>
      </trkpt>
      <trkpt lat="38.80123" lon="15.23179">
        <ele>121.74</ele>
        <time>2018-04-17T13:15:19Z</time>
      </trkpt>
      <trkpt lat="38.80128" lon="15.23172">
        <ele>122.71</ele>
        <time>2018-04-17T13:15:28Z</time>
      </trkpt>
      <trkpt lat="38.80129" lon="15.2317">
        <ele>123.19</ele>
        <time>2018-04-17T13:15:30Z</time>
      </trkpt>
      <trkpt lat="38.80145" lon="15.23161">
        <ele>127.03</ele>
        <time>2018-04-17T13:15:45Z</time>
      </trkpt>
      <trkpt lat="38.80161" lon="15.23146">
        <ele>125.59</ele>
        <time>2018-04-17T13:16:00Z</time>
      </trkpt>
      <trkpt lat="38.80176" lon="15.23133">
        <ele>126.07</ele>
        <time>2018-04-17T13:16:14Z</time>
      </trkpt>
      <trkpt lat="38.80184" lon="15.23124">
        <ele>127.03</ele>
        <time>2018-04-17T13:16:23Z</time>
      </trkpt>
      <trkpt lat="38.80187" lon="15.23101">
        <ele>127.51</ele>
        <time>2018-04-17T13:16:38Z</time>
      </trkpt>
      <trkpt lat="38.80197" lon="15.2308">
        <ele>126.07</ele>
        <time>2018-04-17T13:16:53Z</time>
      </trkpt>
      <trkpt lat="38.80209" lon="15.2307">
        <ele>126.55</ele>
        <time>2018-04-17T13:17:04Z</time>
      </trkpt>
      <trkpt lat="38.80228" lon="15.23068">
        <ele>127.99</ele>
        <time>2018-04-17T13:17:20Z</time>
      </trkpt>
      <trkpt lat="38.80238" lon="15.23067">
        <ele>128.47</ele>
        <time>2018-04-17T13:17:33Z</time>
      </trkpt>
      <trkpt lat="38.80238" lon="15.23068">
        <ele>123.67</ele>
        <time>2018-04-17T13:17:44Z</time>
      </trkpt>
      <trkpt lat="38.8023" lon="15.23057">
        <ele>123.67</ele>
        <time>2018-04-17T13:17:56Z</time>
      </trkpt>
      <trkpt lat="38.80242" lon="15.23048">
        <ele>126.55</ele>
        <time>2018-04-17T13:18:09Z</time>
      </trkpt>
      <trkpt lat="38.80245" lon="15.23046">
        <ele>126.55</ele>
        <time>2018-04-17T13:18:11Z</time>
      </trkpt>
      <trkpt lat="38.80249" lon="15.23034">
        <ele>128.95</ele>
        <time>2018-04-17T13:18:20Z</time>
      </trkpt>
      <trkpt lat="38.80247" lon="15.23027">
        <ele>129.92</ele>
        <time>2018-04-17T13:18:25Z</time>
      </trkpt>
      <trkpt lat="38.80246" lon="15.23023">
        <ele>130.4</ele>
        <time>2018-04-17T13:18:28Z</time>
      </trkpt>
      <trkpt lat="38.80243" lon="15.23012">
        <ele>132.32</ele>
        <time>2018-04-17T13:18:39Z</time>
      </trkpt>
      <trkpt lat="38.80226" lon="15.2301">
        <ele>132.8</ele>
        <time>2018-04-17T13:18:56Z</time>
      </trkpt>
      <trkpt lat="38.80213" lon="15.23004">
        <ele>133.76</ele>
        <time>2018-04-17T13:19:10Z</time>
      </trkpt>
      <trkpt lat="38.80205" lon="15.22993">
        <ele>135.68</ele>
        <time>2018-04-17T13:19:25Z</time>
      </trkpt>
      <trkpt lat="38.80209" lon="15.2299">
        <ele>136.64</ele>
        <time>2018-04-17T13:19:30Z</time>
      </trkpt>
      <trkpt lat="38.80214" lon="15.22986">
        <ele>139.05</ele>
        <time>2018-04-17T13:19:36Z</time>
      </trkpt>
      <trkpt lat="38.80224" lon="15.22979">
        <ele>140.49</ele>
        <time>2018-04-17T13:19:46Z</time>
      </trkpt>
      <trkpt lat="38.80226" lon="15.22966">
        <ele>142.41</ele>
        <time>2018-04-17T13:19:57Z</time>
      </trkpt>
      <trkpt lat="38.80227" lon="15.22963">
        <ele>142.41</ele>
        <time>2018-04-17T13:19:59Z</time>
      </trkpt>
      <trkpt lat="38.80228" lon="15.22942">
        <ele>143.85</ele>
        <time>2018-04-17T13:20:14Z</time>
      </trkpt>
      <trkpt lat="38.80229" lon="15.22938">
        <ele>144.34</ele>
        <time>2018-04-17T13:20:17Z</time>
      </trkpt>
      <trkpt lat="38.80235" lon="15.22932">
        <ele>144.34</ele>
        <time>2018-04-17T13:20:23Z</time>
      </trkpt>
      <trkpt lat="38.80237" lon="15.2293">
        <ele>145.3</ele>
        <time>2018-04-17T13:20:26Z</time>
      </trkpt>
      <trkpt lat="38.80249" lon="15.22917">
        <ele>148.18</ele>
        <time>2018-04-17T13:20:40Z</time>
      </trkpt>
      <trkpt lat="38.80258" lon="15.22903">
        <ele>150.58</ele>
        <time>2018-04-17T13:20:56Z</time>
      </trkpt>
      <trkpt lat="38.80258" lon="15.22902">
        <ele>150.58</ele>
        <time>2018-04-17T13:20:57Z</time>
      </trkpt>
      <trkpt lat="38.8026" lon="15.22897">
        <ele>151.54</ele>
        <time>2018-04-17T13:21:02Z</time>
      </trkpt>
      <trkpt lat="38.80262" lon="15.22896">
        <ele>151.54</ele>
        <time>2018-04-17T13:21:04Z</time>
      </trkpt>
      <trkpt lat="38.80264" lon="15.22891">
        <ele>151.54</ele>
        <time>2018-04-17T13:21:08Z</time>
      </trkpt>
      <trkpt lat="38.8026" lon="15.22888">
        <ele>152.99</ele>
        <time>2018-04-17T13:21:19Z</time>
      </trkpt>
      <trkpt lat="38.80259" lon="15.22888">
        <ele>153.47</ele>
        <time>2018-04-17T13:21:20Z</time>
      </trkpt>
      <trkpt lat="38.80258" lon="15.22886">
        <ele>153.95</ele>
        <time>2018-04-17T13:21:22Z</time>
      </trkpt>
      <trkpt lat="38.80249" lon="15.22892">
        <ele>154.91</ele>
        <time>2018-04-17T13:21:36Z</time>
      </trkpt>
      <trkpt lat="38.80249" lon="15.22892">
        <ele>154.43</ele>
        <time>2018-04-17T13:21:57Z</time>
      </trkpt>
      <trkpt lat="38.80247" lon="15.22892">
        <ele>154.43</ele>
        <time>2018-04-17T13:22:11Z</time>
      </trkpt>
      <trkpt lat="38.8024" lon="15.22898">
        <ele>153.95</ele>
        <time>2018-04-17T13:22:25Z</time>
      </trkpt>
      <trkpt lat="38.80235" lon="15.229">
        <ele>155.39</ele>
        <time>2018-04-17T13:22:34Z</time>
      </trkpt>
      <trkpt lat="38.80237" lon="15.22896">
        <ele>156.83</ele>
        <time>2018-04-17T13:22:38Z</time>
      </trkpt>
      <trkpt lat="38.80239" lon="15.22894">
        <ele>157.79</ele>
        <time>2018-04-17T13:22:41Z</time>
      </trkpt>
      <trkpt lat="38.80245" lon="15.22885">
        <ele>159.72</ele>
        <time>2018-04-17T13:22:52Z</time>
      </trkpt>
      <trkpt lat="38.80252" lon="15.22873">
        <ele>162.6</ele>
        <time>2018-04-17T13:23:05Z</time>
      </trkpt>
      <trkpt lat="38.80253" lon="15.22872">
        <ele>162.6</ele>
        <time>2018-04-17T13:23:06Z</time>
      </trkpt>
      <trkpt lat="38.80255" lon="15.22864">
        <ele>163.56</ele>
        <time>2018-04-17T13:23:12Z</time>
      </trkpt>
      <trkpt lat="38.80263" lon="15.22848">
        <ele>163.56</ele>
        <time>2018-04-17T13:23:27Z</time>
      </trkpt>
      <trkpt lat="38.80268" lon="15.22842">
        <ele>164.52</ele>
        <time>2018-04-17T13:23:38Z</time>
      </trkpt>
      <trkpt lat="38.8027" lon="15.22839">
        <ele>165.48</ele>
        <time>2018-04-17T13:23:50Z</time>
      </trkpt>
      <trkpt lat="38.80274" lon="15.22835">
        <ele>166.45</ele>
        <time>2018-04-17T13:23:56Z</time>
      </trkpt>
      <trkpt lat="38.80279" lon="15.2283">
        <ele>167.41</ele>
        <time>2018-04-17T13:24:01Z</time>
      </trkpt>
      <trkpt lat="38.80283" lon="15.22827">
        <ele>167.89</ele>
        <time>2018-04-17T13:24:05Z</time>
      </trkpt>
      <trkpt lat="38.80299" lon="15.22813">
        <ele>171.25</ele>
        <time>2018-04-17T13:24:22Z</time>
      </trkpt>
      <trkpt lat="38.80302" lon="15.22812">
        <ele>172.21</ele>
        <time>2018-04-17T13:24:25Z</time>
      </trkpt>
      <trkpt lat="38.8031" lon="15.22807">
        <ele>173.17</ele>
        <time>2018-04-17T13:24:36Z</time>
      </trkpt>
      <trkpt lat="38.80309" lon="15.22805">
        <ele>173.17</ele>
        <time>2018-04-17T13:24:39Z</time>
      </trkpt>
      <trkpt lat="38.80305" lon="15.22798">
        <ele>173.17</ele>
        <time>2018-04-17T13:24:50Z</time>
      </trkpt>
      <trkpt lat="38.80301" lon="15.22795">
        <ele>174.62</ele>
        <time>2018-04-17T13:24:57Z</time>
      </trkpt>
      <trkpt lat="38.80299" lon="15.22789">
        <ele>177.98</ele>
        <time>2018-04-17T13:25:07Z</time>
      </trkpt>
      <trkpt lat="38.80294" lon="15.22783">
        <ele>180.38</ele>
        <time>2018-04-17T13:25:19Z</time>
      </trkpt>
      <trkpt lat="38.80294" lon="15.22782">
        <ele>180.38</ele>
        <time>2018-04-17T13:25:20Z</time>
      </trkpt>
      <trkpt lat="38.80295" lon="15.22774">
        <ele>182.31</ele>
        <time>2018-04-17T13:25:27Z</time>
      </trkpt>
      <trkpt lat="38.80289" lon="15.2277">
        <ele>186.15</ele>
        <time>2018-04-17T13:25:41Z</time>
      </trkpt>
      <trkpt lat="38.80285" lon="15.22766">
        <ele>188.56</ele>
        <time>2018-04-17T13:25:52Z</time>
      </trkpt>
      <trkpt lat="38.80285" lon="15.22765">
        <ele>188.56</ele>
        <time>2018-04-17T13:25:53Z</time>
      </trkpt>
      <trkpt lat="38.80277" lon="15.22758">
        <ele>191.92</ele>
        <time>2018-04-17T13:26:06Z</time>
      </trkpt>
      <trkpt lat="38.80275" lon="15.22756">
        <ele>192.88</ele>
        <time>2018-04-17T13:26:10Z</time>
      </trkpt>
      <trkpt lat="38.80272" lon="15.22755">
        <ele>193.36</ele>
        <time>2018-04-17T13:26:22Z</time>
      </trkpt>
      <trkpt lat="38.80272" lon="15.22755">
        <ele>193.36</ele>
        <time>2018-04-17T13:26:23Z</time>
      </trkpt>
      <trkpt lat="38.80273" lon="15.22754">
        <ele>194.32</ele>
        <time>2018-04-17T13:26:33Z</time>
      </trkpt>
      <trkpt lat="38.80271" lon="15.22755">
        <ele>192.88</ele>
        <time>2018-04-17T13:26:42Z</time>
      </trkpt>
      <trkpt lat="38.80271" lon="15.22755">
        <ele>192.88</ele>
        <time>2018-04-17T13:26:51Z</time>
      </trkpt>
      <trkpt lat="38.80271" lon="15.22755">
        <ele>192.88</ele>
        <time>2018-04-17T13:27:05Z</time>
      </trkpt>
      <trkpt lat="38.80269" lon="15.22753">
        <ele>193.84</ele>
        <time>2018-04-17T13:27:20Z</time>
      </trkpt>
      <trkpt lat="38.80265" lon="15.2275">
        <ele>195.77</ele>
        <time>2018-04-17T13:27:29Z</time>
      </trkpt>
      <trkpt lat="38.80263" lon="15.22747">
        <ele>197.21</ele>
        <time>2018-04-17T13:27:43Z</time>
      </trkpt>
      <trkpt lat="38.80259" lon="15.22744">
        <ele>198.65</ele>
        <time>2018-04-17T13:27:59Z</time>
      </trkpt>
      <trkpt lat="38.80251" lon="15.22744">
        <ele>201.53</ele>
        <time>2018-04-17T13:28:11Z</time>
      </trkpt>
      <trkpt lat="38.80246" lon="15.22745">
        <ele>202.98</ele>
        <time>2018-04-17T13:28:24Z</time>
      </trkpt>
      <trkpt lat="38.80243" lon="15.22745">
        <ele>203.94</ele>
        <time>2018-04-17T13:28:36Z</time>
      </trkpt>
      <trkpt lat="38.80241" lon="15.22744">
        <ele>204.9</ele>
        <time>2018-04-17T13:28:47Z</time>
      </trkpt>
      <trkpt lat="38.8024" lon="15.22744">
        <ele>205.38</ele>
        <time>2018-04-17T13:29:08Z</time>
      </trkpt>
      <trkpt lat="38.80236" lon="15.2274">
        <ele>207.78</ele>
        <time>2018-04-17T13:29:17Z</time>
      </trkpt>
      <trkpt lat="38.80236" lon="15.2274">
        <ele>207.78</ele>
        <time>2018-04-17T13:29:23Z</time>
      </trkpt>
      <trkpt lat="38.80232" lon="15.22736">
        <ele>209.22</ele>
        <time>2018-04-17T13:29:29Z</time>
      </trkpt>
      <trkpt lat="38.80229" lon="15.22735">
        <ele>210.67</ele>
        <time>2018-04-17T13:29:38Z</time>
      </trkpt>
      <trkpt lat="38.80226" lon="15.22729">
        <ele>212.11</ele>
        <time>2018-04-17T13:29:49Z</time>
      </trkpt>
      <trkpt lat="38.80224" lon="15.22729">
        <ele>212.59</ele>
        <time>2018-04-17T13:30:04Z</time>
      </trkpt>
      <trkpt lat="38.80224" lon="15.22729">
        <ele>212.11</ele>
        <time>2018-04-17T13:30:10Z</time>
      </trkpt>
      <trkpt lat="38.80222" lon="15.22732">
        <ele>212.59</ele>
        <time>2018-04-17T13:30:13Z</time>
      </trkpt>
      <trkpt lat="38.80221" lon="15.22728">
        <ele>214.03</ele>
        <time>2018-04-17T13:30:25Z</time>
      </trkpt>
      <trkpt lat="38.80221" lon="15.22728">
        <ele>213.55</ele>
        <time>2018-04-17T13:30:32Z</time>
      </trkpt>
      <trkpt lat="38.80221" lon="15.22726">
        <ele>213.55</ele>
        <time>2018-04-17T13:30:44Z</time>
      </trkpt>
      <trkpt lat="38.80221" lon="15.22727">
        <ele>214.03</ele>
        <time>2018-04-17T13:30:58Z</time>
      </trkpt>
      <trkpt lat="38.80221" lon="15.22728">
        <ele>213.55</ele>
        <time>2018-04-17T13:31:23Z</time>
      </trkpt>
      <trkpt lat="38.80221" lon="15.22728">
        <ele>213.55</ele>
        <time>2018-04-17T13:31:37Z</time>
      </trkpt>
      <trkpt lat="38.80219" lon="15.22729">
        <ele>213.07</ele>
        <time>2018-04-17T13:32:00Z</time>
      </trkpt>
      <trkpt lat="38.80218" lon="15.22729">
        <ele>213.55</ele>
        <time>2018-04-17T13:32:16Z</time>
      </trkpt>
      <trkpt lat="38.80217" lon="15.22729">
        <ele>214.03</ele>
        <time>2018-04-17T13:32:37Z</time>
      </trkpt>
      <trkpt lat="38.80217" lon="15.2273">
        <ele>213.55</ele>
        <time>2018-04-17T13:32:56Z</time>
      </trkpt>
      <trkpt lat="38.80217" lon="15.22729">
        <ele>213.55</ele>
        <time>2018-04-17T13:33:23Z</time>
      </trkpt>
      <trkpt lat="38.80217" lon="15.22729">
        <ele>213.55</ele>
        <time>2018-04-17T13:33:29Z</time>
      </trkpt>
      <trkpt lat="38.80207" lon="15.22733">
        <ele>216.91</ele>
        <time>2018-04-17T13:33:45Z</time>
      </trkpt>
      <trkpt lat="38.80206" lon="15.22728">
        <ele>219.32</ele>
        <time>2018-04-17T13:33:58Z</time>
      </trkpt>
      <trkpt lat="38.80206" lon="15.22723">
        <ele>220.76</ele>
        <time>2018-04-17T13:34:14Z</time>
      </trkpt>
      <trkpt lat="38.80203" lon="15.22714">
        <ele>223.64</ele>
        <time>2018-04-17T13:34:27Z</time>
      </trkpt>
      <trkpt lat="38.80201" lon="15.22713">
        <ele>224.12</ele>
        <time>2018-04-17T13:34:30Z</time>
      </trkpt>
      <trkpt lat="38.80193" lon="15.22711">
        <ele>225.57</ele>
        <time>2018-04-17T13:34:43Z</time>
      </trkpt>
      <trkpt lat="38.80188" lon="15.2271">
        <ele>227.97</ele>
        <time>2018-04-17T13:34:54Z</time>
      </trkpt>
      <trkpt lat="38.80185" lon="15.22712">
        <ele>227.97</ele>
        <time>2018-04-17T13:34:59Z</time>
      </trkpt>
      <trkpt lat="38.80176" lon="15.22719">
        <ele>229.89</ele>
        <time>2018-04-17T13:35:14Z</time>
      </trkpt>
      <trkpt lat="38.80167" lon="15.22726">
        <ele>232.78</ele>
        <time>2018-04-17T13:35:30Z</time>
      </trkpt>
      <trkpt lat="38.80164" lon="15.22719">
        <ele>235.18</ele>
        <time>2018-04-17T13:35:43Z</time>
      </trkpt>
      <trkpt lat="38.80159" lon="15.22719">
        <ele>237.1</ele>
        <time>2018-04-17T13:35:56Z</time>
      </trkpt>
      <trkpt lat="38.80158" lon="15.22717">
        <ele>237.58</ele>
        <time>2018-04-17T13:36:00Z</time>
      </trkpt>
      <trkpt lat="38.80157" lon="15.22715">
        <ele>238.54</ele>
        <time>2018-04-17T13:36:03Z</time>
      </trkpt>
      <trkpt lat="38.80152" lon="15.22712">
        <ele>241.43</ele>
        <time>2018-04-17T13:36:17Z</time>
      </trkpt>
      <trkpt lat="38.80151" lon="15.22709">
        <ele>241.91</ele>
        <time>2018-04-17T13:36:22Z</time>
      </trkpt>
      <trkpt lat="38.80151" lon="15.22705">
        <ele>242.39</ele>
        <time>2018-04-17T13:36:33Z</time>
      </trkpt>
      <trkpt lat="38.80149" lon="15.22699">
        <ele>242.39</ele>
        <time>2018-04-17T13:36:44Z</time>
      </trkpt>
      <trkpt lat="38.80149" lon="15.22699">
        <ele>241.91</ele>
        <time>2018-04-17T13:37:10Z</time>
      </trkpt>
      <trkpt lat="38.80148" lon="15.22698">
        <ele>241.43</ele>
        <time>2018-04-17T13:37:24Z</time>
      </trkpt>
      <trkpt lat="38.80148" lon="15.22697">
        <ele>241.43</ele>
        <time>2018-04-17T13:37:45Z</time>
      </trkpt>
      <trkpt lat="38.80147" lon="15.2269">
        <ele>243.83</ele>
        <time>2018-04-17T13:37:55Z</time>
      </trkpt>
      <trkpt lat="38.80146" lon="15.22688">
        <ele>245.27</ele>
        <time>2018-04-17T13:37:59Z</time>
      </trkpt>
      <trkpt lat="38.80143" lon="15.22681">
        <ele>246.23</ele>
        <time>2018-04-17T13:38:07Z</time>
      </trkpt>
      <trkpt lat="38.80143" lon="15.22672">
        <ele>245.75</ele>
        <time>2018-04-17T13:38:14Z</time>
      </trkpt>
      <trkpt lat="38.80144" lon="15.22666">
        <ele>246.72</ele>
        <time>2018-04-17T13:38:19Z</time>
      </trkpt>
      <trkpt lat="38.80143" lon="15.22648">
        <ele>247.68</ele>
        <time>2018-04-17T13:38:31Z</time>
      </trkpt>
      <trkpt lat="38.80145" lon="15.22644">
        <ele>247.2</ele>
        <time>2018-04-17T13:38:34Z</time>
      </trkpt>
      <trkpt lat="38.80155" lon="15.22643">
        <ele>252.96</ele>
        <time>2018-04-17T13:38:49Z</time>
      </trkpt>
      <trkpt lat="38.80158" lon="15.22639">
        <ele>253.93</ele>
        <time>2018-04-17T13:38:54Z</time>
      </trkpt>
      <trkpt lat="38.80165" lon="15.22629">
        <ele>252.96</ele>
        <time>2018-04-17T13:39:07Z</time>
      </trkpt>
      <trkpt lat="38.80167" lon="15.22622">
        <ele>250.08</ele>
        <time>2018-04-17T13:39:16Z</time>
      </trkpt>
      <trkpt lat="38.80174" lon="15.2262">
        <ele>250.56</ele>
        <time>2018-04-17T13:39:28Z</time>
      </trkpt>
      <trkpt lat="38.80181" lon="15.22614">
        <ele>251.52</ele>
        <time>2018-04-17T13:39:41Z</time>
      </trkpt>
      <trkpt lat="38.80183" lon="15.22604">
        <ele>252</ele>
        <time>2018-04-17T13:39:52Z</time>
      </trkpt>
      <trkpt lat="38.8018" lon="15.226">
        <ele>252.48</ele>
        <time>2018-04-17T13:39:59Z</time>
      </trkpt>
      <trkpt lat="38.80175" lon="15.22596">
        <ele>253.44</ele>
        <time>2018-04-17T13:40:10Z</time>
      </trkpt>
      <trkpt lat="38.80173" lon="15.22593">
        <ele>253.93</ele>
        <time>2018-04-17T13:40:22Z</time>
      </trkpt>
      <trkpt lat="38.80172" lon="15.22593">
        <ele>253.44</ele>
        <time>2018-04-17T13:40:23Z</time>
      </trkpt>
      <trkpt lat="38.80171" lon="15.22588">
        <ele>254.41</ele>
        <time>2018-04-17T13:40:27Z</time>
      </trkpt>
      <trkpt lat="38.80171" lon="15.22585">
        <ele>254.89</ele>
        <time>2018-04-17T13:40:29Z</time>
      </trkpt>
      <trkpt lat="38.80171" lon="15.22579">
        <ele>255.37</ele>
        <time>2018-04-17T13:40:33Z</time>
      </trkpt>
      <trkpt lat="38.80174" lon="15.22561">
        <ele>256.81</ele>
        <time>2018-04-17T13:40:48Z</time>
      </trkpt>
      <trkpt lat="38.80175" lon="15.2256">
        <ele>256.33</ele>
        <time>2018-04-17T13:40:53Z</time>
      </trkpt>
      <trkpt lat="38.80184" lon="15.22556">
        <ele>257.29</ele>
        <time>2018-04-17T13:41:03Z</time>
      </trkpt>
      <trkpt lat="38.80186" lon="15.22554">
        <ele>257.77</ele>
        <time>2018-04-17T13:41:05Z</time>
      </trkpt>
      <trkpt lat="38.80194" lon="15.22552">
        <ele>258.25</ele>
        <time>2018-04-17T13:41:12Z</time>
      </trkpt>
      <trkpt lat="38.80206" lon="15.22541">
        <ele>260.65</ele>
        <time>2018-04-17T13:41:27Z</time>
      </trkpt>
      <trkpt lat="38.80207" lon="15.2254">
        <ele>261.14</ele>
        <time>2018-04-17T13:41:28Z</time>
      </trkpt>
      <trkpt lat="38.80207" lon="15.22535">
        <ele>260.17</ele>
        <time>2018-04-17T13:41:32Z</time>
      </trkpt>
      <trkpt lat="38.8021" lon="15.22526">
        <ele>260.17</ele>
        <time>2018-04-17T13:41:43Z</time>
      </trkpt>
      <trkpt lat="38.80208" lon="15.22515">
        <ele>262.1</ele>
        <time>2018-04-17T13:41:56Z</time>
      </trkpt>
      <trkpt lat="38.80203" lon="15.22509">
        <ele>264.02</ele>
        <time>2018-04-17T13:42:06Z</time>
      </trkpt>
      <trkpt lat="38.80198" lon="15.22496">
        <ele>265.94</ele>
        <time>2018-04-17T13:42:21Z</time>
      </trkpt>
      <trkpt lat="38.80197" lon="15.22496">
        <ele>265.94</ele>
        <time>2018-04-17T13:42:22Z</time>
      </trkpt>
      <trkpt lat="38.802" lon="15.22482">
        <ele>269.31</ele>
        <time>2018-04-17T13:42:36Z</time>
      </trkpt>
      <trkpt lat="38.80204" lon="15.22467">
        <ele>274.11</ele>
        <time>2018-04-17T13:42:51Z</time>
      </trkpt>
      <trkpt lat="38.802" lon="15.22466">
        <ele>275.56</ele>
        <time>2018-04-17T13:43:02Z</time>
      </trkpt>
      <trkpt lat="38.8019" lon="15.22469">
        <ele>276.52</ele>
        <time>2018-04-17T13:43:16Z</time>
      </trkpt>
      <trkpt lat="38.8018" lon="15.22466">
        <ele>279.4</ele>
        <time>2018-04-17T13:43:31Z</time>
      </trkpt>
      <trkpt lat="38.80184" lon="15.22458">
        <ele>282.28</ele>
        <time>2018-04-17T13:43:41Z</time>
      </trkpt>
      <trkpt lat="38.80186" lon="15.22447">
        <ele>285.65</ele>
        <time>2018-04-17T13:43:54Z</time>
      </trkpt>
      <trkpt lat="38.80178" lon="15.22449">
        <ele>286.61</ele>
        <time>2018-04-17T13:44:08Z</time>
      </trkpt>
      <trkpt lat="38.80181" lon="15.22438">
        <ele>289.49</ele>
        <time>2018-04-17T13:44:21Z</time>
      </trkpt>
      <trkpt lat="38.80183" lon="15.2243">
        <ele>290.94</ele>
        <time>2018-04-17T13:44:29Z</time>
      </trkpt>
      <trkpt lat="38.80182" lon="15.22421">
        <ele>293.82</ele>
        <time>2018-04-17T13:44:43Z</time>
      </trkpt>
      <trkpt lat="38.80187" lon="15.22415">
        <ele>296.7</ele>
        <time>2018-04-17T13:44:51Z</time>
      </trkpt>
      <trkpt lat="38.80192" lon="15.22413">
        <ele>297.67</ele>
        <time>2018-04-17T13:44:56Z</time>
      </trkpt>
      <trkpt lat="38.80196" lon="15.22406">
        <ele>297.18</ele>
        <time>2018-04-17T13:45:11Z</time>
      </trkpt>
      <trkpt lat="38.80197" lon="15.224">
        <ele>294.3</ele>
        <time>2018-04-17T13:45:28Z</time>
      </trkpt>
      <trkpt lat="38.80198" lon="15.22394">
        <ele>292.86</ele>
        <time>2018-04-17T13:45:33Z</time>
      </trkpt>
      <trkpt lat="38.80199" lon="15.22392">
        <ele>292.38</ele>
        <time>2018-04-17T13:45:35Z</time>
      </trkpt>
      <trkpt lat="38.80204" lon="15.22378">
        <ele>292.38</ele>
        <time>2018-04-17T13:45:46Z</time>
      </trkpt>
      <trkpt lat="38.80205" lon="15.22377">
        <ele>292.38</ele>
        <time>2018-04-17T13:45:47Z</time>
      </trkpt>
      <trkpt lat="38.80213" lon="15.2236">
        <ele>298.15</ele>
        <time>2018-04-17T13:46:01Z</time>
      </trkpt>
      <trkpt lat="38.80218" lon="15.22349">
        <ele>299.59</ele>
        <time>2018-04-17T13:46:08Z</time>
      </trkpt>
      <trkpt lat="38.80219" lon="15.22333">
        <ele>300.55</ele>
        <time>2018-04-17T13:46:18Z</time>
      </trkpt>
      <trkpt lat="38.80218" lon="15.22326">
        <ele>299.59</ele>
        <time>2018-04-17T13:46:22Z</time>
      </trkpt>
      <trkpt lat="38.80218" lon="15.22308">
        <ele>298.63</ele>
        <time>2018-04-17T13:46:37Z</time>
      </trkpt>
      <trkpt lat="38.80215" lon="15.22291">
        <ele>303.91</ele>
        <time>2018-04-17T13:46:50Z</time>
      </trkpt>
      <trkpt lat="38.80216" lon="15.22283">
        <ele>306.32</ele>
        <time>2018-04-17T13:47:01Z</time>
      </trkpt>
      <trkpt lat="38.80224" lon="15.22278">
        <ele>309.68</ele>
        <time>2018-04-17T13:47:14Z</time>
      </trkpt>
      <trkpt lat="38.80234" lon="15.22272">
        <ele>305.36</ele>
        <time>2018-04-17T13:47:28Z</time>
      </trkpt>
      <trkpt lat="38.80235" lon="15.22272">
        <ele>304.39</ele>
        <time>2018-04-17T13:47:29Z</time>
      </trkpt>
      <trkpt lat="38.80241" lon="15.22271">
        <ele>298.15</ele>
        <time>2018-04-17T13:47:42Z</time>
      </trkpt>
      <trkpt lat="38.80244" lon="15.22273">
        <ele>295.26</ele>
        <time>2018-04-17T13:47:56Z</time>
      </trkpt>
      <trkpt lat="38.80251" lon="15.22273">
        <ele>291.9</ele>
        <time>2018-04-17T13:48:08Z</time>
      </trkpt>
      <trkpt lat="38.80258" lon="15.22277">
        <ele>289.97</ele>
        <time>2018-04-17T13:48:17Z</time>
      </trkpt>
      <trkpt lat="38.80261" lon="15.22281">
        <ele>287.57</ele>
        <time>2018-04-17T13:48:29Z</time>
      </trkpt>
      <trkpt lat="38.80263" lon="15.22281">
        <ele>285.65</ele>
        <time>2018-04-17T13:48:40Z</time>
      </trkpt>
      <trkpt lat="38.80266" lon="15.22285">
        <ele>283.25</ele>
        <time>2018-04-17T13:48:46Z</time>
      </trkpt>
      <trkpt lat="38.80269" lon="15.22288">
        <ele>283.25</ele>
        <time>2018-04-17T13:48:52Z</time>
      </trkpt>
      <trkpt lat="38.80282" lon="15.22289">
        <ele>280.84</ele>
        <time>2018-04-17T13:49:05Z</time>
      </trkpt>
      <trkpt lat="38.80285" lon="15.2229">
        <ele>280.36</ele>
        <time>2018-04-17T13:49:17Z</time>
      </trkpt>
      <trkpt lat="38.80288" lon="15.22291">
        <ele>279.88</ele>
        <time>2018-04-17T13:49:26Z</time>
      </trkpt>
      <trkpt lat="38.80288" lon="15.2229">
        <ele>280.84</ele>
        <time>2018-04-17T13:49:46Z</time>
      </trkpt>
      <trkpt lat="38.80287" lon="15.22292">
        <ele>280.36</ele>
        <time>2018-04-17T13:50:01Z</time>
      </trkpt>
      <trkpt lat="38.80287" lon="15.22292">
        <ele>280.36</ele>
        <time>2018-04-17T13:50:15Z</time>
      </trkpt>
      <trkpt lat="38.80289" lon="15.22293">
        <ele>280.84</ele>
        <time>2018-04-17T13:50:31Z</time>
      </trkpt>
      <trkpt lat="38.80288" lon="15.22293">
        <ele>280.84</ele>
        <time>2018-04-17T13:50:48Z</time>
      </trkpt>
      <trkpt lat="38.80288" lon="15.22293">
        <ele>281.32</ele>
        <time>2018-04-17T13:51:00Z</time>
      </trkpt>
      <trkpt lat="38.80288" lon="15.22291">
        <ele>280.84</ele>
        <time>2018-04-17T13:51:22Z</time>
      </trkpt>
      <trkpt lat="38.80288" lon="15.22292">
        <ele>280.84</ele>
        <time>2018-04-17T13:51:39Z</time>
      </trkpt>
      <trkpt lat="38.80288" lon="15.22292">
        <ele>280.84</ele>
        <time>2018-04-17T13:51:54Z</time>
      </trkpt>
      <trkpt lat="38.80287" lon="15.22292">
        <ele>280.84</ele>
        <time>2018-04-17T13:52:11Z</time>
      </trkpt>
      <trkpt lat="38.80287" lon="15.22292">
        <ele>280.84</ele>
        <time>2018-04-17T13:52:24Z</time>
      </trkpt>
      <trkpt lat="38.80287" lon="15.22292">
        <ele>281.32</ele>
        <time>2018-04-17T13:52:42Z</time>
      </trkpt>
      <trkpt lat="38.80287" lon="15.22292">
        <ele>281.32</ele>
        <time>2018-04-17T13:52:54Z</time>
      </trkpt>
      <trkpt lat="38.80287" lon="15.22292">
        <ele>281.8</ele>
        <time>2018-04-17T13:53:06Z</time>
      </trkpt>
      <trkpt lat="38.80287" lon="15.22291">
        <ele>281.8</ele>
        <time>2018-04-17T13:53:21Z</time>
      </trkpt>
      <trkpt lat="38.80287" lon="15.22291">
        <ele>281.32</ele>
        <time>2018-04-17T13:53:45Z</time>
      </trkpt>
      <trkpt lat="38.80288" lon="15.2229">
        <ele>281.8</ele>
        <time>2018-04-17T13:54:03Z</time>
      </trkpt>
      <trkpt lat="38.80288" lon="15.22291">
        <ele>281.8</ele>
        <time>2018-04-17T13:54:20Z</time>
      </trkpt>
      <trkpt lat="38.80287" lon="15.2229">
        <ele>282.28</ele>
        <time>2018-04-17T13:54:32Z</time>
      </trkpt>
      <trkpt lat="38.80288" lon="15.2229">
        <ele>281.8</ele>
        <time>2018-04-17T13:54:53Z</time>
      </trkpt>
      <trkpt lat="38.80289" lon="15.2229">
        <ele>282.28</ele>
        <time>2018-04-17T13:55:04Z</time>
      </trkpt>
      <trkpt lat="38.80288" lon="15.2229">
        <ele>282.77</ele>
        <time>2018-04-17T13:55:18Z</time>
      </trkpt>
      <trkpt lat="38.80289" lon="15.22288">
        <ele>281.8</ele>
        <time>2018-04-17T13:55:26Z</time>
      </trkpt>
      <trkpt lat="38.80286" lon="15.22284">
        <ele>281.8</ele>
        <time>2018-04-17T13:55:30Z</time>
      </trkpt>
      <trkpt lat="38.80273" lon="15.22268">
        <ele>280.84</ele>
        <time>2018-04-17T13:55:45Z</time>
      </trkpt>
      <trkpt lat="38.8027" lon="15.22263">
        <ele>279.4</ele>
        <time>2018-04-17T13:55:50Z</time>
      </trkpt>
      <trkpt lat="38.80267" lon="15.22251">
        <ele>278.92</ele>
        <time>2018-04-17T13:56:04Z</time>
      </trkpt>
      <trkpt lat="38.80268" lon="15.2225">
        <ele>279.4</ele>
        <time>2018-04-17T13:56:05Z</time>
      </trkpt>
      <trkpt lat="38.80281" lon="15.22244">
        <ele>282.77</ele>
        <time>2018-04-17T13:56:20Z</time>
      </trkpt>
      <trkpt lat="38.80286" lon="15.22242">
        <ele>280.36</ele>
        <time>2018-04-17T13:56:34Z</time>
      </trkpt>
      <trkpt lat="38.80287" lon="15.22237">
        <ele>281.32</ele>
        <time>2018-04-17T13:56:40Z</time>
      </trkpt>
      <trkpt lat="38.80289" lon="15.22227">
        <ele>279.88</ele>
        <time>2018-04-17T13:56:53Z</time>
      </trkpt>
      <trkpt lat="38.80289" lon="15.22224">
        <ele>279.4</ele>
        <time>2018-04-17T13:56:55Z</time>
      </trkpt>
      <trkpt lat="38.80289" lon="15.2222">
        <ele>278.92</ele>
        <time>2018-04-17T13:56:58Z</time>
      </trkpt>
      <trkpt lat="38.80292" lon="15.22205">
        <ele>278.44</ele>
        <time>2018-04-17T13:57:10Z</time>
      </trkpt>
      <trkpt lat="38.80298" lon="15.22207">
        <ele>279.4</ele>
        <time>2018-04-17T13:57:24Z</time>
      </trkpt>
      <trkpt lat="38.80302" lon="15.22211">
        <ele>279.4</ele>
        <time>2018-04-17T13:57:36Z</time>
      </trkpt>
      <trkpt lat="38.80307" lon="15.22211">
        <ele>279.88</ele>
        <time>2018-04-17T13:57:49Z</time>
      </trkpt>
      <trkpt lat="38.8031" lon="15.22212">
        <ele>279.4</ele>
        <time>2018-04-17T13:57:55Z</time>
      </trkpt>
      <trkpt lat="38.80312" lon="15.22214">
        <ele>279.4</ele>
        <time>2018-04-17T13:57:58Z</time>
      </trkpt>
      <trkpt lat="38.80325" lon="15.22216">
        <ele>280.36</ele>
        <time>2018-04-17T13:58:09Z</time>
      </trkpt>
      <trkpt lat="38.80327" lon="15.22217">
        <ele>280.36</ele>
        <time>2018-04-17T13:58:11Z</time>
      </trkpt>
      <trkpt lat="38.8034" lon="15.22215">
        <ele>278.92</ele>
        <time>2018-04-17T13:58:25Z</time>
      </trkpt>
      <trkpt lat="38.80351" lon="15.22212">
        <ele>280.36</ele>
        <time>2018-04-17T13:58:37Z</time>
      </trkpt>
      <trkpt lat="38.80366" lon="15.222">
        <ele>278.44</ele>
        <time>2018-04-17T13:58:54Z</time>
      </trkpt>
      <trkpt lat="38.80378" lon="15.22184">
        <ele>277.48</ele>
        <time>2018-04-17T13:59:08Z</time>
      </trkpt>
      <trkpt lat="38.80392" lon="15.2217">
        <ele>280.84</ele>
        <time>2018-04-17T13:59:25Z</time>
      </trkpt>
      <trkpt lat="38.80401" lon="15.2216">
        <ele>280.36</ele>
        <time>2018-04-17T13:59:37Z</time>
      </trkpt>
      <trkpt lat="38.80406" lon="15.22156">
        <ele>278.92</ele>
        <time>2018-04-17T13:59:43Z</time>
      </trkpt>
      <trkpt lat="38.80408" lon="15.22143">
        <ele>276.04</ele>
        <time>2018-04-17T13:59:55Z</time>
      </trkpt>
      <trkpt lat="38.80412" lon="15.22128">
        <ele>275.07</ele>
        <time>2018-04-17T14:00:09Z</time>
      </trkpt>
      <trkpt lat="38.80417" lon="15.22121">
        <ele>271.23</ele>
        <time>2018-04-17T14:00:16Z</time>
      </trkpt>
      <trkpt lat="38.80431" lon="15.22116">
        <ele>266.42</ele>
        <time>2018-04-17T14:00:29Z</time>
      </trkpt>
      <trkpt lat="38.80437" lon="15.22114">
        <ele>265.46</ele>
        <time>2018-04-17T14:00:34Z</time>
      </trkpt>
      <trkpt lat="38.80443" lon="15.2211">
        <ele>265.94</ele>
        <time>2018-04-17T14:00:41Z</time>
      </trkpt>
      <trkpt lat="38.80455" lon="15.22104">
        <ele>264.98</ele>
        <time>2018-04-17T14:00:55Z</time>
      </trkpt>
      <trkpt lat="38.80462" lon="15.22101">
        <ele>261.62</ele>
        <time>2018-04-17T14:01:12Z</time>
      </trkpt>
      <trkpt lat="38.80464" lon="15.22096">
        <ele>260.17</ele>
        <time>2018-04-17T14:01:30Z</time>
      </trkpt>
      <trkpt lat="38.80463" lon="15.22089">
        <ele>256.81</ele>
        <time>2018-04-17T14:01:50Z</time>
      </trkpt>
      <trkpt lat="38.80462" lon="15.22081">
        <ele>254.41</ele>
        <time>2018-04-17T14:02:02Z</time>
      </trkpt>
      <trkpt lat="38.80462" lon="15.2208">
        <ele>254.41</ele>
        <time>2018-04-17T14:02:03Z</time>
      </trkpt>
      <trkpt lat="38.80459" lon="15.22067">
        <ele>255.85</ele>
        <time>2018-04-17T14:02:16Z</time>
      </trkpt>
      <trkpt lat="38.80456" lon="15.22059">
        <ele>256.33</ele>
        <time>2018-04-17T14:02:31Z</time>
      </trkpt>
      <trkpt lat="38.80459" lon="15.22059">
        <ele>253.93</ele>
        <time>2018-04-17T14:02:42Z</time>
      </trkpt>
      <trkpt lat="38.8046" lon="15.2206">
        <ele>253.44</ele>
        <time>2018-04-17T14:02:44Z</time>
      </trkpt>
      <trkpt lat="38.80463" lon="15.22064">
        <ele>251.04</ele>
        <time>2018-04-17T14:02:49Z</time>
      </trkpt>
      <trkpt lat="38.80466" lon="15.22067">
        <ele>249.12</ele>
        <time>2018-04-17T14:02:54Z</time>
      </trkpt>
      <trkpt lat="38.8047" lon="15.22067">
        <ele>248.16</ele>
        <time>2018-04-17T14:02:58Z</time>
      </trkpt>
      <trkpt lat="38.80475" lon="15.22071">
        <ele>246.72</ele>
        <time>2018-04-17T14:03:03Z</time>
      </trkpt>
      <trkpt lat="38.80481" lon="15.22077">
        <ele>244.79</ele>
        <time>2018-04-17T14:03:14Z</time>
      </trkpt>
      <trkpt lat="38.80479" lon="15.22074">
        <ele>243.35</ele>
        <time>2018-04-17T14:03:19Z</time>
      </trkpt>
      <trkpt lat="38.80478" lon="15.22065">
        <ele>241.91</ele>
        <time>2018-04-17T14:03:28Z</time>
      </trkpt>
      <trkpt lat="38.80475" lon="15.22054">
        <ele>240.47</ele>
        <time>2018-04-17T14:03:37Z</time>
      </trkpt>
      <trkpt lat="38.80471" lon="15.2204">
        <ele>239.51</ele>
        <time>2018-04-17T14:03:51Z</time>
      </trkpt>
      <trkpt lat="38.80468" lon="15.22031">
        <ele>238.54</ele>
        <time>2018-04-17T14:04:05Z</time>
      </trkpt>
      <trkpt lat="38.80467" lon="15.22023">
        <ele>235.66</ele>
        <time>2018-04-17T14:04:12Z</time>
      </trkpt>
      <trkpt lat="38.80465" lon="15.22018">
        <ele>233.26</ele>
        <time>2018-04-17T14:04:26Z</time>
      </trkpt>
      <trkpt lat="38.80464" lon="15.22017">
        <ele>232.3</ele>
        <time>2018-04-17T14:04:35Z</time>
      </trkpt>
      <trkpt lat="38.80475" lon="15.22019">
        <ele>231.81</ele>
        <time>2018-04-17T14:04:50Z</time>
      </trkpt>
      <trkpt lat="38.80478" lon="15.22022">
        <ele>232.78</ele>
        <time>2018-04-17T14:04:56Z</time>
      </trkpt>
      <trkpt lat="38.80485" lon="15.22029">
        <ele>234.22</ele>
        <time>2018-04-17T14:05:10Z</time>
      </trkpt>
      <trkpt lat="38.80487" lon="15.2203">
        <ele>234.22</ele>
        <time>2018-04-17T14:05:12Z</time>
      </trkpt>
      <trkpt lat="38.80492" lon="15.22041">
        <ele>236.14</ele>
        <time>2018-04-17T14:05:25Z</time>
      </trkpt>
      <trkpt lat="38.80498" lon="15.22048">
        <ele>238.06</ele>
        <time>2018-04-17T14:05:36Z</time>
      </trkpt>
      <trkpt lat="38.80502" lon="15.22053">
        <ele>239.51</ele>
        <time>2018-04-17T14:05:46Z</time>
      </trkpt>
      <trkpt lat="38.80504" lon="15.22057">
        <ele>241.91</ele>
        <time>2018-04-17T14:05:55Z</time>
      </trkpt>
      <trkpt lat="38.80512" lon="15.22058">
        <ele>245.75</ele>
        <time>2018-04-17T14:06:08Z</time>
      </trkpt>
      <trkpt lat="38.80519" lon="15.22058">
        <ele>245.75</ele>
        <time>2018-04-17T14:06:21Z</time>
      </trkpt>
      <trkpt lat="38.80522" lon="15.22059">
        <ele>245.75</ele>
        <time>2018-04-17T14:06:24Z</time>
      </trkpt>
      <trkpt lat="38.80534" lon="15.22068">
        <ele>248.16</ele>
        <time>2018-04-17T14:06:40Z</time>
      </trkpt>
      <trkpt lat="38.80545" lon="15.22074">
        <ele>247.68</ele>
        <time>2018-04-17T14:06:54Z</time>
      </trkpt>
      <trkpt lat="38.80555" lon="15.22075">
        <ele>248.16</ele>
        <time>2018-04-17T14:07:07Z</time>
      </trkpt>
      <trkpt lat="38.80567" lon="15.2208">
        <ele>241.43</ele>
        <time>2018-04-17T14:07:20Z</time>
      </trkpt>
      <trkpt lat="38.80577" lon="15.22073">
        <ele>231.33</ele>
        <time>2018-04-17T14:07:28Z</time>
      </trkpt>
      <trkpt lat="38.80587" lon="15.22062">
        <ele>232.3</ele>
        <time>2018-04-17T14:07:43Z</time>
      </trkpt>
      <trkpt lat="38.80587" lon="15.22053">
        <ele>227.97</ele>
        <time>2018-04-17T14:07:57Z</time>
      </trkpt>
      <trkpt lat="38.80588" lon="15.22042">
        <ele>229.41</ele>
        <time>2018-04-17T14:08:10Z</time>
      </trkpt>
      <trkpt lat="38.80585" lon="15.22043">
        <ele>228.45</ele>
        <time>2018-04-17T14:08:23Z</time>
      </trkpt>
      <trkpt lat="38.80583" lon="15.22044">
        <ele>227.49</ele>
        <time>2018-04-17T14:08:33Z</time>
      </trkpt>
      <trkpt lat="38.8058" lon="15.22035">
        <ele>231.33</ele>
        <time>2018-04-17T14:08:47Z</time>
      </trkpt>
      <trkpt lat="38.80575" lon="15.2204">
        <ele>230.85</ele>
        <time>2018-04-17T14:09:00Z</time>
      </trkpt>
      <trkpt lat="38.80573" lon="15.22034">
        <ele>231.33</ele>
        <time>2018-04-17T14:09:11Z</time>
      </trkpt>
      <trkpt lat="38.8057" lon="15.22022">
        <ele>234.7</ele>
        <time>2018-04-17T14:09:24Z</time>
      </trkpt>
      <trkpt lat="38.80567" lon="15.22022">
        <ele>236.62</ele>
        <time>2018-04-17T14:09:36Z</time>
      </trkpt>
      <trkpt lat="38.80557" lon="15.22027">
        <ele>239.99</ele>
        <time>2018-04-17T14:09:50Z</time>
      </trkpt>
      <trkpt lat="38.80553" lon="15.22021">
        <ele>243.83</ele>
        <time>2018-04-17T14:10:04Z</time>
      </trkpt>
      <trkpt lat="38.80546" lon="15.22015">
        <ele>249.12</ele>
        <time>2018-04-17T14:10:17Z</time>
      </trkpt>
      <trkpt lat="38.80541" lon="15.22014">
        <ele>250.56</ele>
        <time>2018-04-17T14:10:27Z</time>
      </trkpt>
      <trkpt lat="38.80536" lon="15.22003">
        <ele>252</ele>
        <time>2018-04-17T14:10:40Z</time>
      </trkpt>
      <trkpt lat="38.80534" lon="15.21985">
        <ele>250.56</ele>
        <time>2018-04-17T14:10:55Z</time>
      </trkpt>
      <trkpt lat="38.80533" lon="15.21982">
        <ele>251.04</ele>
        <time>2018-04-17T14:10:57Z</time>
      </trkpt>
      <trkpt lat="38.80531" lon="15.21967">
        <ele>251.04</ele>
        <time>2018-04-17T14:11:10Z</time>
      </trkpt>
      <trkpt lat="38.80529" lon="15.21959">
        <ele>254.41</ele>
        <time>2018-04-17T14:11:17Z</time>
      </trkpt>
      <trkpt lat="38.80531" lon="15.21943">
        <ele>258.25</ele>
        <time>2018-04-17T14:11:27Z</time>
      </trkpt>
      <trkpt lat="38.80532" lon="15.2193">
        <ele>260.17</ele>
        <time>2018-04-17T14:11:37Z</time>
      </trkpt>
      <trkpt lat="38.80538" lon="15.21915">
        <ele>264.5</ele>
        <time>2018-04-17T14:11:50Z</time>
      </trkpt>
      <trkpt lat="38.80541" lon="15.21911">
        <ele>264.02</ele>
        <time>2018-04-17T14:11:57Z</time>
      </trkpt>
      <trkpt lat="38.80551" lon="15.21897">
        <ele>266.42</ele>
        <time>2018-04-17T14:12:14Z</time>
      </trkpt>
      <trkpt lat="38.80556" lon="15.21892">
        <ele>268.35</ele>
        <time>2018-04-17T14:12:21Z</time>
      </trkpt>
      <trkpt lat="38.80563" lon="15.21883">
        <ele>269.31</ele>
        <time>2018-04-17T14:12:32Z</time>
      </trkpt>
      <trkpt lat="38.80564" lon="15.21874">
        <ele>267.86</ele>
        <time>2018-04-17T14:12:38Z</time>
      </trkpt>
      <trkpt lat="38.8056" lon="15.21862">
        <ele>266.9</ele>
        <time>2018-04-17T14:12:51Z</time>
      </trkpt>
      <trkpt lat="38.8056" lon="15.21849">
        <ele>264.5</ele>
        <time>2018-04-17T14:13:02Z</time>
      </trkpt>
      <trkpt lat="38.80557" lon="15.2184">
        <ele>262.1</ele>
        <time>2018-04-17T14:13:15Z</time>
      </trkpt>
      <trkpt lat="38.80558" lon="15.21838">
        <ele>262.1</ele>
        <time>2018-04-17T14:13:17Z</time>
      </trkpt>
      <trkpt lat="38.80563" lon="15.21826">
        <ele>262.58</ele>
        <time>2018-04-17T14:13:32Z</time>
      </trkpt>
      <trkpt lat="38.80564" lon="15.21825">
        <ele>262.58</ele>
        <time>2018-04-17T14:13:33Z</time>
      </trkpt>
      <trkpt lat="38.8057" lon="15.21809">
        <ele>263.54</ele>
        <time>2018-04-17T14:13:48Z</time>
      </trkpt>
      <trkpt lat="38.80576" lon="15.2179">
        <ele>262.1</ele>
        <time>2018-04-17T14:14:03Z</time>
      </trkpt>
      <trkpt lat="38.80579" lon="15.21772">
        <ele>261.62</ele>
        <time>2018-04-17T14:14:17Z</time>
      </trkpt>
      <trkpt lat="38.80579" lon="15.21766">
        <ele>259.21</ele>
        <time>2018-04-17T14:14:28Z</time>
      </trkpt>
      <trkpt lat="38.80579" lon="15.21759">
        <ele>259.21</ele>
        <time>2018-04-17T14:14:38Z</time>
      </trkpt>
      <trkpt lat="38.80579" lon="15.21753">
        <ele>259.21</ele>
        <time>2018-04-17T14:14:42Z</time>
      </trkpt>
      <trkpt lat="38.80582" lon="15.21735">
        <ele>260.65</ele>
        <time>2018-04-17T14:14:56Z</time>
      </trkpt>
      <trkpt lat="38.80584" lon="15.21722">
        <ele>261.62</ele>
        <time>2018-04-17T14:15:08Z</time>
      </trkpt>
      <trkpt lat="38.80584" lon="15.21711">
        <ele>260.17</ele>
        <time>2018-04-17T14:15:23Z</time>
      </trkpt>
      <trkpt lat="38.80589" lon="15.21694">
        <ele>263.06</ele>
        <time>2018-04-17T14:15:36Z</time>
      </trkpt>
      <trkpt lat="38.80593" lon="15.2168">
        <ele>262.58</ele>
        <time>2018-04-17T14:15:47Z</time>
      </trkpt>
      <trkpt lat="38.80599" lon="15.21659">
        <ele>260.65</ele>
        <time>2018-04-17T14:16:02Z</time>
      </trkpt>
      <trkpt lat="38.806" lon="15.21656">
        <ele>260.17</ele>
        <time>2018-04-17T14:16:04Z</time>
      </trkpt>
      <trkpt lat="38.80605" lon="15.21636">
        <ele>259.21</ele>
        <time>2018-04-17T14:16:17Z</time>
      </trkpt>
      <trkpt lat="38.80607" lon="15.21621">
        <ele>260.65</ele>
        <time>2018-04-17T14:16:28Z</time>
      </trkpt>
      <trkpt lat="38.80608" lon="15.21612">
        <ele>259.21</ele>
        <time>2018-04-17T14:16:43Z</time>
      </trkpt>
      <trkpt lat="38.80607" lon="15.21611">
        <ele>257.29</ele>
        <time>2018-04-17T14:16:53Z</time>
      </trkpt>
      <trkpt lat="38.80606" lon="15.21608">
        <ele>257.29</ele>
        <time>2018-04-17T14:16:59Z</time>
      </trkpt>
      <trkpt lat="38.80601" lon="15.21607">
        <ele>256.81</ele>
        <time>2018-04-17T14:17:04Z</time>
      </trkpt>
      <trkpt lat="38.806" lon="15.21605">
        <ele>256.81</ele>
        <time>2018-04-17T14:17:06Z</time>
      </trkpt>
      <trkpt lat="38.80601" lon="15.21586">
        <ele>260.65</ele>
        <time>2018-04-17T14:17:20Z</time>
      </trkpt>
      <trkpt lat="38.80602" lon="15.21579">
        <ele>261.62</ele>
        <time>2018-04-17T14:17:25Z</time>
      </trkpt>
      <trkpt lat="38.80602" lon="15.21568">
        <ele>261.14</ele>
        <time>2018-04-17T14:17:33Z</time>
      </trkpt>
      <trkpt lat="38.80601" lon="15.21561">
        <ele>260.65</ele>
        <time>2018-04-17T14:17:40Z</time>
      </trkpt>
      <trkpt lat="38.80601" lon="15.21558">
        <ele>260.65</ele>
        <time>2018-04-17T14:17:42Z</time>
      </trkpt>
      <trkpt lat="38.806" lon="15.2155">
        <ele>260.65</ele>
        <time>2018-04-17T14:17:48Z</time>
      </trkpt>
      <trkpt lat="38.806" lon="15.21535">
        <ele>262.1</ele>
        <time>2018-04-17T14:17:59Z</time>
      </trkpt>
      <trkpt lat="38.80596" lon="15.21524">
        <ele>263.06</ele>
        <time>2018-04-17T14:18:12Z</time>
      </trkpt>
      <trkpt lat="38.80596" lon="15.21524">
        <ele>262.1</ele>
        <time>2018-04-17T14:18:29Z</time>
      </trkpt>
      <trkpt lat="38.80596" lon="15.21524">
        <ele>262.1</ele>
        <time>2018-04-17T14:18:39Z</time>
      </trkpt>
      <trkpt lat="38.80595" lon="15.21519">
        <ele>262.58</ele>
        <time>2018-04-17T14:18:46Z</time>
      </trkpt>
      <trkpt lat="38.80591" lon="15.2151">
        <ele>264.02</ele>
        <time>2018-04-17T14:18:55Z</time>
      </trkpt>
      <trkpt lat="38.8059" lon="15.21504">
        <ele>265.46</ele>
        <time>2018-04-17T14:19:00Z</time>
      </trkpt>
      <trkpt lat="38.80587" lon="15.21494">
        <ele>267.38</ele>
        <time>2018-04-17T14:19:07Z</time>
      </trkpt>
      <trkpt lat="38.80584" lon="15.21478">
        <ele>268.83</ele>
        <time>2018-04-17T14:19:19Z</time>
      </trkpt>
      <trkpt lat="38.80581" lon="15.21469">
        <ele>269.31</ele>
        <time>2018-04-17T14:19:27Z</time>
      </trkpt>
      <trkpt lat="38.80575" lon="15.2145">
        <ele>270.75</ele>
        <time>2018-04-17T14:19:44Z</time>
      </trkpt>
      <trkpt lat="38.80572" lon="15.21439">
        <ele>272.19</ele>
        <time>2018-04-17T14:19:58Z</time>
      </trkpt>
      <trkpt lat="38.80569" lon="15.21425">
        <ele>275.56</ele>
        <time>2018-04-17T14:20:11Z</time>
      </trkpt>
      <trkpt lat="38.80568" lon="15.21421">
        <ele>276.52</ele>
        <time>2018-04-17T14:20:15Z</time>
      </trkpt>
      <trkpt lat="38.80568" lon="15.21416">
        <ele>277.48</ele>
        <time>2018-04-17T14:20:19Z</time>
      </trkpt>
      <trkpt lat="38.80567" lon="15.21413">
        <ele>276.52</ele>
        <time>2018-04-17T14:20:22Z</time>
      </trkpt>
      <trkpt lat="38.80561" lon="15.21404">
        <ele>277.48</ele>
        <time>2018-04-17T14:20:34Z</time>
      </trkpt>
      <trkpt lat="38.80557" lon="15.21392">
        <ele>279.88</ele>
        <time>2018-04-17T14:20:46Z</time>
      </trkpt>
      <trkpt lat="38.80554" lon="15.21386">
        <ele>279.4</ele>
        <time>2018-04-17T14:20:58Z</time>
      </trkpt>
      <trkpt lat="38.80553" lon="15.21387">
        <ele>279.4</ele>
        <time>2018-04-17T14:21:10Z</time>
      </trkpt>
      <trkpt lat="38.80551" lon="15.21386">
        <ele>279.4</ele>
        <time>2018-04-17T14:21:27Z</time>
      </trkpt>
      <trkpt lat="38.80551" lon="15.21393">
        <ele>279.88</ele>
        <time>2018-04-17T14:21:38Z</time>
      </trkpt>
      <trkpt lat="38.80551" lon="15.21394">
        <ele>279.88</ele>
        <time>2018-04-17T14:21:39Z</time>
      </trkpt>
      <trkpt lat="38.80553" lon="15.214">
        <ele>280.36</ele>
        <time>2018-04-17T14:21:44Z</time>
      </trkpt>
      <trkpt lat="38.80552" lon="15.21408">
        <ele>281.32</ele>
        <time>2018-04-17T14:21:51Z</time>
      </trkpt>
      <trkpt lat="38.80547" lon="15.21421">
        <ele>282.28</ele>
        <time>2018-04-17T14:22:05Z</time>
      </trkpt>
      <trkpt lat="38.80543" lon="15.21436">
        <ele>283.73</ele>
        <time>2018-04-17T14:22:20Z</time>
      </trkpt>
      <trkpt lat="38.80535" lon="15.2144">
        <ele>287.09</ele>
        <time>2018-04-17T14:22:34Z</time>
      </trkpt>
      <trkpt lat="38.80533" lon="15.2143">
        <ele>289.49</ele>
        <time>2018-04-17T14:22:45Z</time>
      </trkpt>
      <trkpt lat="38.80533" lon="15.21416">
        <ele>292.38</ele>
        <time>2018-04-17T14:22:59Z</time>
      </trkpt>
      <trkpt lat="38.80533" lon="15.21411">
        <ele>292.86</ele>
        <time>2018-04-17T14:23:04Z</time>
      </trkpt>
      <trkpt lat="38.80528" lon="15.21397">
        <ele>295.26</ele>
        <time>2018-04-17T14:23:18Z</time>
      </trkpt>
      <trkpt lat="38.80518" lon="15.21388">
        <ele>296.22</ele>
        <time>2018-04-17T14:23:32Z</time>
      </trkpt>
      <trkpt lat="38.80519" lon="15.21394">
        <ele>298.15</ele>
        <time>2018-04-17T14:23:43Z</time>
      </trkpt>
      <trkpt lat="38.80518" lon="15.21401">
        <ele>298.15</ele>
        <time>2018-04-17T14:23:54Z</time>
      </trkpt>
      <trkpt lat="38.80512" lon="15.21399">
        <ele>299.11</ele>
        <time>2018-04-17T14:24:04Z</time>
      </trkpt>
      <trkpt lat="38.80511" lon="15.21412">
        <ele>300.55</ele>
        <time>2018-04-17T14:24:17Z</time>
      </trkpt>
      <trkpt lat="38.80505" lon="15.21408">
        <ele>303.91</ele>
        <time>2018-04-17T14:24:30Z</time>
      </trkpt>
      <trkpt lat="38.80499" lon="15.21416">
        <ele>305.84</ele>
        <time>2018-04-17T14:24:43Z</time>
      </trkpt>
      <trkpt lat="38.80495" lon="15.21424">
        <ele>307.28</ele>
        <time>2018-04-17T14:24:57Z</time>
      </trkpt>
      <trkpt lat="38.80489" lon="15.21437">
        <ele>310.64</ele>
        <time>2018-04-17T14:25:12Z</time>
      </trkpt>
      <trkpt lat="38.80485" lon="15.21443">
        <ele>313.05</ele>
        <time>2018-04-17T14:25:24Z</time>
      </trkpt>
      <trkpt lat="38.80481" lon="15.21447">
        <ele>314.49</ele>
        <time>2018-04-17T14:25:36Z</time>
      </trkpt>
      <trkpt lat="38.80479" lon="15.21455">
        <ele>316.89</ele>
        <time>2018-04-17T14:25:48Z</time>
      </trkpt>
      <trkpt lat="38.80474" lon="15.21462">
        <ele>319.3</ele>
        <time>2018-04-17T14:26:01Z</time>
      </trkpt>
      <trkpt lat="38.8047" lon="15.21464">
        <ele>321.22</ele>
        <time>2018-04-17T14:26:11Z</time>
      </trkpt>
      <trkpt lat="38.80463" lon="15.21466">
        <ele>324.58</ele>
        <time>2018-04-17T14:26:23Z</time>
      </trkpt>
      <trkpt lat="38.80458" lon="15.21472">
        <ele>326.99</ele>
        <time>2018-04-17T14:26:35Z</time>
      </trkpt>
      <trkpt lat="38.80456" lon="15.21467">
        <ele>328.91</ele>
        <time>2018-04-17T14:26:47Z</time>
      </trkpt>
      <trkpt lat="38.80451" lon="15.21466">
        <ele>330.83</ele>
        <time>2018-04-17T14:26:58Z</time>
      </trkpt>
      <trkpt lat="38.80444" lon="15.21467">
        <ele>333.23</ele>
        <time>2018-04-17T14:27:11Z</time>
      </trkpt>
      <trkpt lat="38.8044" lon="15.21464">
        <ele>336.12</ele>
        <time>2018-04-17T14:27:23Z</time>
      </trkpt>
      <trkpt lat="38.8044" lon="15.21464">
        <ele>336.12</ele>
        <time>2018-04-17T14:27:32Z</time>
      </trkpt>
      <trkpt lat="38.80437" lon="15.21467">
        <ele>337.56</ele>
        <time>2018-04-17T14:27:45Z</time>
      </trkpt>
      <trkpt lat="38.80436" lon="15.21466">
        <ele>338.52</ele>
        <time>2018-04-17T14:27:54Z</time>
      </trkpt>
      <trkpt lat="38.80435" lon="15.21466">
        <ele>339</ele>
        <time>2018-04-17T14:28:06Z</time>
      </trkpt>
      <trkpt lat="38.80428" lon="15.21471">
        <ele>342.85</ele>
        <time>2018-04-17T14:28:18Z</time>
      </trkpt>
      <trkpt lat="38.80422" lon="15.21466">
        <ele>345.73</ele>
        <time>2018-04-17T14:28:31Z</time>
      </trkpt>
      <trkpt lat="38.80414" lon="15.21467">
        <ele>349.1</ele>
        <time>2018-04-17T14:28:44Z</time>
      </trkpt>
      <trkpt lat="38.80412" lon="15.21465">
        <ele>351.5</ele>
        <time>2018-04-17T14:28:54Z</time>
      </trkpt>
      <trkpt lat="38.80405" lon="15.21466">
        <ele>354.38</ele>
        <time>2018-04-17T14:29:05Z</time>
      </trkpt>
      <trkpt lat="38.804" lon="15.21474">
        <ele>356.79</ele>
        <time>2018-04-17T14:29:18Z</time>
      </trkpt>
      <trkpt lat="38.80393" lon="15.21475">
        <ele>359.19</ele>
        <time>2018-04-17T14:29:30Z</time>
      </trkpt>
      <trkpt lat="38.80389" lon="15.21471">
        <ele>362.07</ele>
        <time>2018-04-17T14:29:42Z</time>
      </trkpt>
      <trkpt lat="38.80386" lon="15.21465">
        <ele>365.92</ele>
        <time>2018-04-17T14:29:55Z</time>
      </trkpt>
      <trkpt lat="38.80386" lon="15.21458">
        <ele>367.36</ele>
        <time>2018-04-17T14:30:09Z</time>
      </trkpt>
      <trkpt lat="38.80381" lon="15.21456">
        <ele>369.28</ele>
        <time>2018-04-17T14:30:20Z</time>
      </trkpt>
      <trkpt lat="38.80378" lon="15.21453">
        <ele>371.21</ele>
        <time>2018-04-17T14:30:34Z</time>
      </trkpt>
      <trkpt lat="38.80373" lon="15.2146">
        <ele>373.13</ele>
        <time>2018-04-17T14:30:46Z</time>
      </trkpt>
      <trkpt lat="38.80371" lon="15.21464">
        <ele>373.61</ele>
        <time>2018-04-17T14:30:51Z</time>
      </trkpt>
      <trkpt lat="38.80368" lon="15.21466">
        <ele>375.05</ele>
        <time>2018-04-17T14:30:56Z</time>
      </trkpt>
      <trkpt lat="38.80364" lon="15.21466">
        <ele>375.53</ele>
        <time>2018-04-17T14:31:02Z</time>
      </trkpt>
      <trkpt lat="38.80363" lon="15.21463">
        <ele>376.97</ele>
        <time>2018-04-17T14:31:14Z</time>
      </trkpt>
      <trkpt lat="38.80357" lon="15.21463">
        <ele>380.34</ele>
        <time>2018-04-17T14:31:26Z</time>
      </trkpt>
      <trkpt lat="38.80352" lon="15.21469">
        <ele>383.7</ele>
        <time>2018-04-17T14:31:40Z</time>
      </trkpt>
      <trkpt lat="38.8035" lon="15.21465">
        <ele>386.11</ele>
        <time>2018-04-17T14:31:53Z</time>
      </trkpt>
      <trkpt lat="38.80348" lon="15.21463">
        <ele>386.11</ele>
        <time>2018-04-17T14:32:05Z</time>
      </trkpt>
      <trkpt lat="38.80342" lon="15.21469">
        <ele>388.99</ele>
        <time>2018-04-17T14:32:19Z</time>
      </trkpt>
      <trkpt lat="38.80336" lon="15.21469">
        <ele>391.87</ele>
        <time>2018-04-17T14:32:31Z</time>
      </trkpt>
      <trkpt lat="38.80331" lon="15.21466">
        <ele>394.28</ele>
        <time>2018-04-17T14:32:43Z</time>
      </trkpt>
      <trkpt lat="38.80326" lon="15.21469">
        <ele>397.16</ele>
        <time>2018-04-17T14:32:56Z</time>
      </trkpt>
      <trkpt lat="38.80321" lon="15.21466">
        <ele>400.05</ele>
        <time>2018-04-17T14:33:08Z</time>
      </trkpt>
      <trkpt lat="38.80319" lon="15.21459">
        <ele>402.45</ele>
        <time>2018-04-17T14:33:20Z</time>
      </trkpt>
      <trkpt lat="38.80318" lon="15.21457">
        <ele>403.89</ele>
        <time>2018-04-17T14:33:34Z</time>
      </trkpt>
      <trkpt lat="38.80318" lon="15.21457">
        <ele>403.89</ele>
        <time>2018-04-17T14:33:51Z</time>
      </trkpt>
      <trkpt lat="38.80315" lon="15.21458">
        <ele>404.37</ele>
        <time>2018-04-17T14:34:09Z</time>
      </trkpt>
      <trkpt lat="38.80315" lon="15.21458">
        <ele>403.89</ele>
        <time>2018-04-17T14:34:27Z</time>
      </trkpt>
      <trkpt lat="38.80315" lon="15.21458">
        <ele>403.41</ele>
        <time>2018-04-17T14:34:53Z</time>
      </trkpt>
      <trkpt lat="38.80315" lon="15.21458">
        <ele>402.93</ele>
        <time>2018-04-17T14:35:23Z</time>
      </trkpt>
      <trkpt lat="38.80315" lon="15.21458">
        <ele>402.45</ele>
        <time>2018-04-17T14:35:54Z</time>
      </trkpt>
      <trkpt lat="38.80315" lon="15.21457">
        <ele>402.45</ele>
        <time>2018-04-17T14:36:27Z</time>
      </trkpt>
      <trkpt lat="38.80315" lon="15.21457">
        <ele>401.97</ele>
        <time>2018-04-17T14:36:55Z</time>
      </trkpt>
      <trkpt lat="38.80315" lon="15.21456">
        <ele>401.49</ele>
        <time>2018-04-17T14:37:28Z</time>
      </trkpt>
      <trkpt lat="38.80316" lon="15.21456">
        <ele>401.01</ele>
        <time>2018-04-17T14:38:01Z</time>
      </trkpt>
      <trkpt lat="38.80316" lon="15.21456">
        <ele>401.01</ele>
        <time>2018-04-17T14:38:35Z</time>
      </trkpt>
      <trkpt lat="38.80316" lon="15.21456">
        <ele>400.53</ele>
        <time>2018-04-17T14:39:10Z</time>
      </trkpt>
      <trkpt lat="38.80316" lon="15.21456">
        <ele>400.53</ele>
        <time>2018-04-17T14:39:43Z</time>
      </trkpt>
      <trkpt lat="38.80316" lon="15.21456">
        <ele>401.01</ele>
        <time>2018-04-17T14:40:12Z</time>
      </trkpt>
      <trkpt lat="38.80316" lon="15.21456">
        <ele>400.53</ele>
        <time>2018-04-17T14:40:55Z</time>
      </trkpt>
      <trkpt lat="38.80316" lon="15.21456">
        <ele>401.01</ele>
        <time>2018-04-17T14:41:34Z</time>
      </trkpt>
      <trkpt lat="38.80316" lon="15.21456">
        <ele>401.01</ele>
        <time>2018-04-17T14:42:06Z</time>
      </trkpt>
      <trkpt lat="38.80316" lon="15.21456">
        <ele>401.01</ele>
        <time>2018-04-17T14:42:44Z</time>
      </trkpt>
      <trkpt lat="38.80316" lon="15.21455">
        <ele>401.01</ele>
        <time>2018-04-17T14:43:16Z</time>
      </trkpt>
      <trkpt lat="38.80316" lon="15.21455">
        <ele>401.01</ele>
        <time>2018-04-17T14:43:47Z</time>
      </trkpt>
      <trkpt lat="38.80316" lon="15.21455">
        <ele>401.01</ele>
        <time>2018-04-17T14:44:24Z</time>
      </trkpt>
      <trkpt lat="38.80315" lon="15.21455">
        <ele>401.49</ele>
        <time>2018-04-17T14:44:50Z</time>
      </trkpt>
      <trkpt lat="38.80315" lon="15.21455">
        <ele>401.49</ele>
        <time>2018-04-17T14:45:23Z</time>
      </trkpt>
      <trkpt lat="38.80315" lon="15.21455">
        <ele>401.49</ele>
        <time>2018-04-17T14:45:53Z</time>
      </trkpt>
      <trkpt lat="38.80315" lon="15.21455">
        <ele>401.49</ele>
        <time>2018-04-17T14:46:30Z</time>
      </trkpt>
      <trkpt lat="38.80315" lon="15.21456">
        <ele>401.49</ele>
        <time>2018-04-17T14:47:11Z</time>
      </trkpt>
      <trkpt lat="38.80315" lon="15.21456">
        <ele>401.49</ele>
        <time>2018-04-17T14:47:47Z</time>
      </trkpt>
      <trkpt lat="38.80315" lon="15.21455">
        <ele>401.49</ele>
        <time>2018-04-17T14:48:29Z</time>
      </trkpt>
      <trkpt lat="38.80315" lon="15.21455">
        <ele>401.49</ele>
        <time>2018-04-17T14:49:04Z</time>
      </trkpt>
      <trkpt lat="38.80315" lon="15.21455">
        <ele>401.01</ele>
        <time>2018-04-17T14:49:34Z</time>
      </trkpt>
      <trkpt lat="38.80315" lon="15.21455">
        <ele>401.01</ele>
        <time>2018-04-17T14:50:17Z</time>
      </trkpt>
      <trkpt lat="38.80315" lon="15.21455">
        <ele>401.01</ele>
        <time>2018-04-17T14:50:55Z</time>
      </trkpt>
      <trkpt lat="38.80315" lon="15.21455">
        <ele>401.01</ele>
        <time>2018-04-17T14:51:31Z</time>
      </trkpt>
      <trkpt lat="38.80315" lon="15.21455">
        <ele>401.49</ele>
        <time>2018-04-17T14:52:07Z</time>
      </trkpt>
      <trkpt lat="38.80314" lon="15.21455">
        <ele>401.49</ele>
        <time>2018-04-17T14:52:42Z</time>
      </trkpt>
      <trkpt lat="38.80315" lon="15.21456">
        <ele>401.49</ele>
        <time>2018-04-17T14:53:16Z</time>
      </trkpt>
      <trkpt lat="38.80315" lon="15.21456">
        <ele>401.97</ele>
        <time>2018-04-17T14:53:49Z</time>
      </trkpt>
      <trkpt lat="38.80315" lon="15.21456">
        <ele>401.49</ele>
        <time>2018-04-17T14:54:19Z</time>
      </trkpt>
      <trkpt lat="38.80315" lon="15.21456">
        <ele>401.97</ele>
        <time>2018-04-17T14:54:54Z</time>
      </trkpt>
      <trkpt lat="38.80315" lon="15.21457">
        <ele>401.97</ele>
        <time>2018-04-17T14:55:15Z</time>
      </trkpt>
      <trkpt lat="38.80315" lon="15.21457">
        <ele>401.97</ele>
        <time>2018-04-17T14:55:46Z</time>
      </trkpt>
      <trkpt lat="38.80315" lon="15.21457">
        <ele>401.49</ele>
        <time>2018-04-17T14:56:15Z</time>
      </trkpt>
      <trkpt lat="38.80315" lon="15.21457">
        <ele>401.01</ele>
        <time>2018-04-17T14:56:38Z</time>
      </trkpt>
      <trkpt lat="38.80315" lon="15.21458">
        <ele>401.49</ele>
        <time>2018-04-17T14:57:16Z</time>
      </trkpt>
      <trkpt lat="38.80316" lon="15.21458">
        <ele>401.49</ele>
        <time>2018-04-17T14:57:44Z</time>
      </trkpt>
      <trkpt lat="38.80316" lon="15.21458">
        <ele>401.49</ele>
        <time>2018-04-17T14:58:19Z</time>
      </trkpt>
      <trkpt lat="38.80315" lon="15.21458">
        <ele>401.49</ele>
        <time>2018-04-17T14:58:50Z</time>
      </trkpt>
      <trkpt lat="38.80315" lon="15.21457">
        <ele>401.49</ele>
        <time>2018-04-17T14:59:32Z</time>
      </trkpt>
      <trkpt lat="38.80315" lon="15.21457">
        <ele>401.49</ele>
        <time>2018-04-17T14:59:59Z</time>
      </trkpt>
      <trkpt lat="38.80315" lon="15.21457">
        <ele>401.49</ele>
        <time>2018-04-17T15:00:21Z</time>
      </trkpt>
      <trkpt lat="38.80315" lon="15.21457">
        <ele>401.01</ele>
        <time>2018-04-17T15:00:47Z</time>
      </trkpt>
      <trkpt lat="38.80315" lon="15.21457">
        <ele>401.01</ele>
        <time>2018-04-17T15:01:15Z</time>
      </trkpt>
      <trkpt lat="38.80316" lon="15.21457">
        <ele>400.53</ele>
        <time>2018-04-17T15:01:38Z</time>
      </trkpt>
      <trkpt lat="38.80316" lon="15.21457">
        <ele>401.01</ele>
        <time>2018-04-17T15:02:13Z</time>
      </trkpt>
      <trkpt lat="38.80316" lon="15.21457">
        <ele>401.01</ele>
        <time>2018-04-17T15:02:42Z</time>
      </trkpt>
      <trkpt lat="38.80316" lon="15.21457">
        <ele>401.01</ele>
        <time>2018-04-17T15:03:13Z</time>
      </trkpt>
      <trkpt lat="38.80315" lon="15.21457">
        <ele>401.01</ele>
        <time>2018-04-17T15:03:45Z</time>
      </trkpt>
      <trkpt lat="38.80315" lon="15.21457">
        <ele>401.01</ele>
        <time>2018-04-17T15:04:19Z</time>
      </trkpt>
      <trkpt lat="38.80315" lon="15.21457">
        <ele>401.01</ele>
        <time>2018-04-17T15:04:43Z</time>
      </trkpt>
      <trkpt lat="38.80315" lon="15.21457">
        <ele>401.01</ele>
        <time>2018-04-17T15:05:18Z</time>
      </trkpt>
      <trkpt lat="38.80315" lon="15.21457">
        <ele>401.01</ele>
        <time>2018-04-17T15:05:46Z</time>
      </trkpt>
      <trkpt lat="38.80315" lon="15.21457">
        <ele>401.01</ele>
        <time>2018-04-17T15:06:18Z</time>
      </trkpt>
      <trkpt lat="38.80316" lon="15.21457">
        <ele>401.01</ele>
        <time>2018-04-17T15:06:56Z</time>
      </trkpt>
      <trkpt lat="38.80316" lon="15.21457">
        <ele>401.01</ele>
        <time>2018-04-17T15:07:25Z</time>
      </trkpt>
      <trkpt lat="38.80316" lon="15.21457">
        <ele>401.01</ele>
        <time>2018-04-17T15:07:57Z</time>
      </trkpt>
      <trkpt lat="38.80316" lon="15.21457">
        <ele>401.01</ele>
        <time>2018-04-17T15:08:23Z</time>
      </trkpt>
      <trkpt lat="38.80316" lon="15.21458">
        <ele>401.01</ele>
        <time>2018-04-17T15:08:56Z</time>
      </trkpt>
      <trkpt lat="38.80316" lon="15.21458">
        <ele>401.01</ele>
        <time>2018-04-17T15:09:26Z</time>
      </trkpt>
      <trkpt lat="38.80316" lon="15.21457">
        <ele>401.01</ele>
        <time>2018-04-17T15:09:57Z</time>
      </trkpt>
      <trkpt lat="38.80316" lon="15.21458">
        <ele>401.01</ele>
        <time>2018-04-17T15:10:32Z</time>
      </trkpt>
      <trkpt lat="38.80316" lon="15.21458">
        <ele>401.01</ele>
        <time>2018-04-17T15:11:10Z</time>
      </trkpt>
      <trkpt lat="38.80315" lon="15.21458">
        <ele>401.01</ele>
        <time>2018-04-17T15:11:33Z</time>
      </trkpt>
      <trkpt lat="38.80315" lon="15.21458">
        <ele>401.97</ele>
        <time>2018-04-17T15:11:59Z</time>
      </trkpt>
      <trkpt lat="38.80315" lon="15.21459">
        <ele>402.45</ele>
        <time>2018-04-17T15:12:44Z</time>
      </trkpt>
      <trkpt lat="38.80315" lon="15.21458">
        <ele>402.93</ele>
        <time>2018-04-17T15:13:23Z</time>
      </trkpt>
      <trkpt lat="38.80315" lon="15.21458">
        <ele>402.93</ele>
        <time>2018-04-17T15:14:17Z</time>
      </trkpt>
      <trkpt lat="38.80315" lon="15.21459">
        <ele>402.93</ele>
        <time>2018-04-17T15:14:52Z</time>
      </trkpt>
      <trkpt lat="38.80315" lon="15.21459">
        <ele>402.45</ele>
        <time>2018-04-17T15:15:34Z</time>
      </trkpt>
      <trkpt lat="38.80316" lon="15.21459">
        <ele>401.49</ele>
        <time>2018-04-17T15:16:13Z</time>
      </trkpt>
      <trkpt lat="38.80316" lon="15.21459">
        <ele>401.01</ele>
        <time>2018-04-17T15:16:51Z</time>
      </trkpt>
      <trkpt lat="38.80315" lon="15.21459">
        <ele>400.53</ele>
        <time>2018-04-17T15:17:23Z</time>
      </trkpt>
      <trkpt lat="38.80315" lon="15.21459">
        <ele>400.05</ele>
        <time>2018-04-17T15:17:54Z</time>
      </trkpt>
      <trkpt lat="38.80315" lon="15.21458">
        <ele>400.05</ele>
        <time>2018-04-17T15:18:20Z</time>
      </trkpt>
      <trkpt lat="38.80315" lon="15.21458">
        <ele>400.53</ele>
        <time>2018-04-17T15:18:57Z</time>
      </trkpt>
      <trkpt lat="38.80315" lon="15.21458">
        <ele>400.05</ele>
        <time>2018-04-17T15:19:30Z</time>
      </trkpt>
      <trkpt lat="38.80315" lon="15.21458">
        <ele>400.05</ele>
        <time>2018-04-17T15:20:02Z</time>
      </trkpt>
      <trkpt lat="38.80315" lon="15.21458">
        <ele>400.53</ele>
        <time>2018-04-17T15:20:30Z</time>
      </trkpt>
      <trkpt lat="38.80315" lon="15.21458">
        <ele>400.53</ele>
        <time>2018-04-17T15:21:07Z</time>
      </trkpt>
      <trkpt lat="38.80315" lon="15.21458">
        <ele>400.05</ele>
        <time>2018-04-17T15:21:39Z</time>
      </trkpt>
      <trkpt lat="38.80316" lon="15.21457">
        <ele>400.05</ele>
        <time>2018-04-17T15:22:13Z</time>
      </trkpt>
      <trkpt lat="38.80316" lon="15.21457">
        <ele>400.05</ele>
        <time>2018-04-17T15:22:53Z</time>
      </trkpt>
      <trkpt lat="38.80315" lon="15.21457">
        <ele>399.57</ele>
        <time>2018-04-17T15:23:40Z</time>
      </trkpt>
      <trkpt lat="38.80316" lon="15.21457">
        <ele>399.57</ele>
        <time>2018-04-17T15:24:18Z</time>
      </trkpt>
      <trkpt lat="38.80315" lon="15.21457">
        <ele>399.57</ele>
        <time>2018-04-17T15:24:47Z</time>
      </trkpt>
      <trkpt lat="38.80318" lon="15.21458">
        <ele>400.05</ele>
        <time>2018-04-17T15:24:57Z</time>
      </trkpt>
      <trkpt lat="38.80319" lon="15.21459">
        <ele>401.49</ele>
        <time>2018-04-17T15:25:08Z</time>
      </trkpt>
      <trkpt lat="38.80319" lon="15.21461">
        <ele>401.49</ele>
        <time>2018-04-17T15:25:21Z</time>
      </trkpt>
      <trkpt lat="38.80323" lon="15.21466">
        <ele>397.64</ele>
        <time>2018-04-17T15:25:34Z</time>
      </trkpt>
      <trkpt lat="38.80329" lon="15.21466">
        <ele>396.2</ele>
        <time>2018-04-17T15:25:48Z</time>
      </trkpt>
      <trkpt lat="38.80333" lon="15.21465">
        <ele>395.24</ele>
        <time>2018-04-17T15:26:00Z</time>
      </trkpt>
      <trkpt lat="38.80334" lon="15.21464">
        <ele>394.76</ele>
        <time>2018-04-17T15:26:18Z</time>
      </trkpt>
      <trkpt lat="38.80335" lon="15.21466">
        <ele>394.28</ele>
        <time>2018-04-17T15:26:30Z</time>
      </trkpt>
      <trkpt lat="38.80339" lon="15.2147">
        <ele>392.36</ele>
        <time>2018-04-17T15:26:43Z</time>
      </trkpt>
      <trkpt lat="38.80343" lon="15.21469">
        <ele>391.39</ele>
        <time>2018-04-17T15:26:57Z</time>
      </trkpt>
      <trkpt lat="38.80349" lon="15.21464">
        <ele>388.51</ele>
        <time>2018-04-17T15:27:10Z</time>
      </trkpt>
      <trkpt lat="38.80349" lon="15.21464">
        <ele>388.51</ele>
        <time>2018-04-17T15:27:11Z</time>
      </trkpt>
      <trkpt lat="38.8035" lon="15.21468">
        <ele>387.55</ele>
        <time>2018-04-17T15:27:16Z</time>
      </trkpt>
      <trkpt lat="38.80355" lon="15.21463">
        <ele>385.15</ele>
        <time>2018-04-17T15:27:28Z</time>
      </trkpt>
      <trkpt lat="38.80364" lon="15.21464">
        <ele>381.3</ele>
        <time>2018-04-17T15:27:42Z</time>
      </trkpt>
      <trkpt lat="38.80365" lon="15.21466">
        <ele>379.86</ele>
        <time>2018-04-17T15:27:53Z</time>
      </trkpt>
      <trkpt lat="38.8037" lon="15.21466">
        <ele>377.94</ele>
        <time>2018-04-17T15:28:11Z</time>
      </trkpt>
      <trkpt lat="38.80377" lon="15.21458">
        <ele>375.53</ele>
        <time>2018-04-17T15:28:25Z</time>
      </trkpt>
      <trkpt lat="38.80377" lon="15.21453">
        <ele>373.61</ele>
        <time>2018-04-17T15:28:35Z</time>
      </trkpt>
      <trkpt lat="38.8038" lon="15.21453">
        <ele>372.65</ele>
        <time>2018-04-17T15:28:48Z</time>
      </trkpt>
      <trkpt lat="38.80382" lon="15.21456">
        <ele>371.21</ele>
        <time>2018-04-17T15:28:58Z</time>
      </trkpt>
      <trkpt lat="38.80386" lon="15.21458">
        <ele>369.76</ele>
        <time>2018-04-17T15:29:10Z</time>
      </trkpt>
      <trkpt lat="38.80385" lon="15.21464">
        <ele>367.36</ele>
        <time>2018-04-17T15:29:23Z</time>
      </trkpt>
      <trkpt lat="38.80389" lon="15.21469">
        <ele>366.4</ele>
        <time>2018-04-17T15:29:35Z</time>
      </trkpt>
      <trkpt lat="38.80389" lon="15.21476">
        <ele>364.48</ele>
        <time>2018-04-17T15:29:46Z</time>
      </trkpt>
      <trkpt lat="38.80395" lon="15.21476">
        <ele>364</ele>
        <time>2018-04-17T15:30:00Z</time>
      </trkpt>
      <trkpt lat="38.80398" lon="15.21476">
        <ele>363.52</ele>
        <time>2018-04-17T15:30:05Z</time>
      </trkpt>
      <trkpt lat="38.80402" lon="15.2147">
        <ele>360.63</ele>
        <time>2018-04-17T15:30:18Z</time>
      </trkpt>
      <trkpt lat="38.80406" lon="15.21466">
        <ele>357.27</ele>
        <time>2018-04-17T15:30:32Z</time>
      </trkpt>
      <trkpt lat="38.80411" lon="15.21466">
        <ele>354.86</ele>
        <time>2018-04-17T15:30:47Z</time>
      </trkpt>
      <trkpt lat="38.80414" lon="15.21465">
        <ele>353.42</ele>
        <time>2018-04-17T15:31:01Z</time>
      </trkpt>
      <trkpt lat="38.80417" lon="15.21464">
        <ele>352.46</ele>
        <time>2018-04-17T15:31:17Z</time>
      </trkpt>
      <trkpt lat="38.80422" lon="15.21468">
        <ele>348.13</ele>
        <time>2018-04-17T15:31:30Z</time>
      </trkpt>
      <trkpt lat="38.80425" lon="15.21464">
        <ele>345.25</ele>
        <time>2018-04-17T15:31:44Z</time>
      </trkpt>
      <trkpt lat="38.8043" lon="15.21461">
        <ele>343.81</ele>
        <time>2018-04-17T15:31:56Z</time>
      </trkpt>
      <trkpt lat="38.80432" lon="15.21463">
        <ele>342.37</ele>
        <time>2018-04-17T15:32:08Z</time>
      </trkpt>
      <trkpt lat="38.80434" lon="15.21463">
        <ele>340.92</ele>
        <time>2018-04-17T15:32:21Z</time>
      </trkpt>
      <trkpt lat="38.80438" lon="15.21464">
        <ele>339</ele>
        <time>2018-04-17T15:32:36Z</time>
      </trkpt>
      <trkpt lat="38.80441" lon="15.21462">
        <ele>337.56</ele>
        <time>2018-04-17T15:32:50Z</time>
      </trkpt>
      <trkpt lat="38.80444" lon="15.21466">
        <ele>335.16</ele>
        <time>2018-04-17T15:33:00Z</time>
      </trkpt>
      <trkpt lat="38.80448" lon="15.21465">
        <ele>333.71</ele>
        <time>2018-04-17T15:33:12Z</time>
      </trkpt>
      <trkpt lat="38.80454" lon="15.21466">
        <ele>330.35</ele>
        <time>2018-04-17T15:33:25Z</time>
      </trkpt>
      <trkpt lat="38.80457" lon="15.21467">
        <ele>328.91</ele>
        <time>2018-04-17T15:33:36Z</time>
      </trkpt>
      <trkpt lat="38.80459" lon="15.2147">
        <ele>326.5</ele>
        <time>2018-04-17T15:33:47Z</time>
      </trkpt>
      <trkpt lat="38.80464" lon="15.21467">
        <ele>325.06</ele>
        <time>2018-04-17T15:33:59Z</time>
      </trkpt>
      <trkpt lat="38.80469" lon="15.21463">
        <ele>323.14</ele>
        <time>2018-04-17T15:34:13Z</time>
      </trkpt>
      <trkpt lat="38.80474" lon="15.21463">
        <ele>321.22</ele>
        <time>2018-04-17T15:34:25Z</time>
      </trkpt>
      <trkpt lat="38.80477" lon="15.21459">
        <ele>319.78</ele>
        <time>2018-04-17T15:34:36Z</time>
      </trkpt>
      <trkpt lat="38.80479" lon="15.21456">
        <ele>318.81</ele>
        <time>2018-04-17T15:34:40Z</time>
      </trkpt>
      <trkpt lat="38.8048" lon="15.21449">
        <ele>316.89</ele>
        <time>2018-04-17T15:34:54Z</time>
      </trkpt>
      <trkpt lat="38.80483" lon="15.21444">
        <ele>314.49</ele>
        <time>2018-04-17T15:35:05Z</time>
      </trkpt>
      <trkpt lat="38.80487" lon="15.21437">
        <ele>312.57</ele>
        <time>2018-04-17T15:35:17Z</time>
      </trkpt>
      <trkpt lat="38.80491" lon="15.21435">
        <ele>311.12</ele>
        <time>2018-04-17T15:35:21Z</time>
      </trkpt>
      <trkpt lat="38.80495" lon="15.21426">
        <ele>307.76</ele>
        <time>2018-04-17T15:35:30Z</time>
      </trkpt>
      <trkpt lat="38.80499" lon="15.2142">
        <ele>305.36</ele>
        <time>2018-04-17T15:35:39Z</time>
      </trkpt>
      <trkpt lat="38.805" lon="15.21415">
        <ele>305.36</ele>
        <time>2018-04-17T15:35:45Z</time>
      </trkpt>
      <trkpt lat="38.80504" lon="15.21407">
        <ele>302.47</ele>
        <time>2018-04-17T15:35:58Z</time>
      </trkpt>
      <trkpt lat="38.80507" lon="15.21408">
        <ele>301.99</ele>
        <time>2018-04-17T15:36:03Z</time>
      </trkpt>
      <trkpt lat="38.80513" lon="15.21409">
        <ele>301.03</ele>
        <time>2018-04-17T15:36:15Z</time>
      </trkpt>
      <trkpt lat="38.80511" lon="15.21405">
        <ele>300.07</ele>
        <time>2018-04-17T15:36:18Z</time>
      </trkpt>
      <trkpt lat="38.80511" lon="15.21402">
        <ele>299.59</ele>
        <time>2018-04-17T15:36:21Z</time>
      </trkpt>
      <trkpt lat="38.80515" lon="15.21401">
        <ele>298.15</ele>
        <time>2018-04-17T15:36:27Z</time>
      </trkpt>
      <trkpt lat="38.80519" lon="15.21401">
        <ele>297.67</ele>
        <time>2018-04-17T15:36:36Z</time>
      </trkpt>
      <trkpt lat="38.80517" lon="15.21396">
        <ele>297.67</ele>
        <time>2018-04-17T15:36:43Z</time>
      </trkpt>
      <trkpt lat="38.80516" lon="15.21389">
        <ele>296.22</ele>
        <time>2018-04-17T15:36:54Z</time>
      </trkpt>
      <trkpt lat="38.80519" lon="15.21387">
        <ele>294.78</ele>
        <time>2018-04-17T15:37:12Z</time>
      </trkpt>
      <trkpt lat="38.80519" lon="15.21388">
        <ele>295.74</ele>
        <time>2018-04-17T15:37:33Z</time>
      </trkpt>
      <trkpt lat="38.8052" lon="15.21387">
        <ele>295.26</ele>
        <time>2018-04-17T15:38:00Z</time>
      </trkpt>
      <trkpt lat="38.8052" lon="15.21388">
        <ele>295.26</ele>
        <time>2018-04-17T15:38:21Z</time>
      </trkpt>
      <trkpt lat="38.80519" lon="15.21388">
        <ele>295.74</ele>
        <time>2018-04-17T15:38:53Z</time>
      </trkpt>
      <trkpt lat="38.8052" lon="15.21387">
        <ele>295.74</ele>
        <time>2018-04-17T15:39:21Z</time>
      </trkpt>
      <trkpt lat="38.8052" lon="15.21387">
        <ele>295.74</ele>
        <time>2018-04-17T15:39:54Z</time>
      </trkpt>
      <trkpt lat="38.8052" lon="15.21387">
        <ele>294.3</ele>
        <time>2018-04-17T15:40:26Z</time>
      </trkpt>
      <trkpt lat="38.80524" lon="15.21391">
        <ele>294.3</ele>
        <time>2018-04-17T15:40:30Z</time>
      </trkpt>
      <trkpt lat="38.8053" lon="15.21397">
        <ele>293.34</ele>
        <time>2018-04-17T15:40:36Z</time>
      </trkpt>
      <trkpt lat="38.80534" lon="15.21411">
        <ele>290.94</ele>
        <time>2018-04-17T15:40:47Z</time>
      </trkpt>
      <trkpt lat="38.80534" lon="15.21416">
        <ele>290.46</ele>
        <time>2018-04-17T15:40:56Z</time>
      </trkpt>
      <trkpt lat="38.80534" lon="15.21428">
        <ele>288.05</ele>
        <time>2018-04-17T15:41:08Z</time>
      </trkpt>
      <trkpt lat="38.80535" lon="15.2144">
        <ele>287.57</ele>
        <time>2018-04-17T15:41:20Z</time>
      </trkpt>
      <trkpt lat="38.80537" lon="15.2144">
        <ele>287.57</ele>
        <time>2018-04-17T15:41:23Z</time>
      </trkpt>
      <trkpt lat="38.80538" lon="15.2144">
        <ele>287.57</ele>
        <time>2018-04-17T15:41:25Z</time>
      </trkpt>
      <trkpt lat="38.80542" lon="15.21437">
        <ele>287.09</ele>
        <time>2018-04-17T15:41:32Z</time>
      </trkpt>
      <trkpt lat="38.80542" lon="15.21433">
        <ele>286.61</ele>
        <time>2018-04-17T15:41:36Z</time>
      </trkpt>
      <trkpt lat="38.80544" lon="15.2143">
        <ele>285.65</ele>
        <time>2018-04-17T15:41:39Z</time>
      </trkpt>
      <trkpt lat="38.80552" lon="15.21412">
        <ele>284.21</ele>
        <time>2018-04-17T15:41:53Z</time>
      </trkpt>
      <trkpt lat="38.80552" lon="15.21401">
        <ele>282.28</ele>
        <time>2018-04-17T15:42:01Z</time>
      </trkpt>
      <trkpt lat="38.80551" lon="15.2139">
        <ele>280.36</ele>
        <time>2018-04-17T15:42:10Z</time>
      </trkpt>
      <trkpt lat="38.80553" lon="15.21388">
        <ele>280.36</ele>
        <time>2018-04-17T15:42:12Z</time>
      </trkpt>
      <trkpt lat="38.80557" lon="15.21389">
        <ele>279.88</ele>
        <time>2018-04-17T15:42:17Z</time>
      </trkpt>
      <trkpt lat="38.80561" lon="15.21399">
        <ele>278.44</ele>
        <time>2018-04-17T15:42:29Z</time>
      </trkpt>
      <trkpt lat="38.80566" lon="15.21412">
        <ele>276.04</ele>
        <time>2018-04-17T15:42:42Z</time>
      </trkpt>
      <trkpt lat="38.80573" lon="15.21432">
        <ele>272.67</ele>
        <time>2018-04-17T15:42:56Z</time>
      </trkpt>
      <trkpt lat="38.80574" lon="15.21439">
        <ele>270.27</ele>
        <time>2018-04-17T15:43:01Z</time>
      </trkpt>
      <trkpt lat="38.80575" lon="15.21446">
        <ele>269.31</ele>
        <time>2018-04-17T15:43:08Z</time>
      </trkpt>
      <trkpt lat="38.80578" lon="15.21456">
        <ele>269.31</ele>
        <time>2018-04-17T15:43:20Z</time>
      </trkpt>
      <trkpt lat="38.8058" lon="15.21461">
        <ele>268.83</ele>
        <time>2018-04-17T15:43:38Z</time>
      </trkpt>
      <trkpt lat="38.80581" lon="15.21463">
        <ele>268.35</ele>
        <time>2018-04-17T15:43:40Z</time>
      </trkpt>
      <trkpt lat="38.80582" lon="15.21468">
        <ele>266.9</ele>
        <time>2018-04-17T15:43:44Z</time>
      </trkpt>
      <trkpt lat="38.80586" lon="15.21477">
        <ele>264.98</ele>
        <time>2018-04-17T15:43:50Z</time>
      </trkpt>
      <trkpt lat="38.80586" lon="15.21486">
        <ele>264.5</ele>
        <time>2018-04-17T15:43:56Z</time>
      </trkpt>
      <trkpt lat="38.80587" lon="15.2149">
        <ele>264.98</ele>
        <time>2018-04-17T15:44:00Z</time>
      </trkpt>
      <trkpt lat="38.80593" lon="15.21509">
        <ele>264.02</ele>
        <time>2018-04-17T15:44:14Z</time>
      </trkpt>
      <trkpt lat="38.80595" lon="15.21516">
        <ele>263.54</ele>
        <time>2018-04-17T15:44:21Z</time>
      </trkpt>
      <trkpt lat="38.806" lon="15.21536">
        <ele>262.1</ele>
        <time>2018-04-17T15:44:34Z</time>
      </trkpt>
      <trkpt lat="38.80601" lon="15.21546">
        <ele>260.65</ele>
        <time>2018-04-17T15:44:40Z</time>
      </trkpt>
      <trkpt lat="38.80601" lon="15.21558">
        <ele>258.73</ele>
        <time>2018-04-17T15:44:52Z</time>
      </trkpt>
      <trkpt lat="38.80602" lon="15.21575">
        <ele>256.33</ele>
        <time>2018-04-17T15:45:04Z</time>
      </trkpt>
      <trkpt lat="38.80602" lon="15.21578">
        <ele>255.37</ele>
        <time>2018-04-17T15:45:10Z</time>
      </trkpt>
      <trkpt lat="38.806" lon="15.21583">
        <ele>254.41</ele>
        <time>2018-04-17T15:45:14Z</time>
      </trkpt>
      <trkpt lat="38.80599" lon="15.21587">
        <ele>253.93</ele>
        <time>2018-04-17T15:45:17Z</time>
      </trkpt>
      <trkpt lat="38.80598" lon="15.21598">
        <ele>252</ele>
        <time>2018-04-17T15:45:24Z</time>
      </trkpt>
      <trkpt lat="38.806" lon="15.21603">
        <ele>251.52</ele>
        <time>2018-04-17T15:45:28Z</time>
      </trkpt>
      <trkpt lat="38.80607" lon="15.21603">
        <ele>255.37</ele>
        <time>2018-04-17T15:45:39Z</time>
      </trkpt>
      <trkpt lat="38.80607" lon="15.21602">
        <ele>254.89</ele>
        <time>2018-04-17T15:45:42Z</time>
      </trkpt>
      <trkpt lat="38.80609" lon="15.21595">
        <ele>253.44</ele>
        <time>2018-04-17T15:45:47Z</time>
      </trkpt>
      <trkpt lat="38.80611" lon="15.21589">
        <ele>252.48</ele>
        <time>2018-04-17T15:45:53Z</time>
      </trkpt>
      <trkpt lat="38.80613" lon="15.2158">
        <ele>252</ele>
        <time>2018-04-17T15:46:05Z</time>
      </trkpt>
      <trkpt lat="38.80616" lon="15.21568">
        <ele>252</ele>
        <time>2018-04-17T15:46:17Z</time>
      </trkpt>
      <trkpt lat="38.8062" lon="15.21554">
        <ele>249.6</ele>
        <time>2018-04-17T15:46:30Z</time>
      </trkpt>
      <trkpt lat="38.8062" lon="15.21553">
        <ele>249.6</ele>
        <time>2018-04-17T15:46:31Z</time>
      </trkpt>
      <trkpt lat="38.80626" lon="15.21536">
        <ele>247.68</ele>
        <time>2018-04-17T15:46:45Z</time>
      </trkpt>
      <trkpt lat="38.80627" lon="15.2153">
        <ele>246.72</ele>
        <time>2018-04-17T15:46:50Z</time>
      </trkpt>
      <trkpt lat="38.80629" lon="15.21509">
        <ele>246.23</ele>
        <time>2018-04-17T15:47:06Z</time>
      </trkpt>
      <trkpt lat="38.80633" lon="15.21498">
        <ele>244.79</ele>
        <time>2018-04-17T15:47:13Z</time>
      </trkpt>
      <trkpt lat="38.8064" lon="15.21503">
        <ele>243.83</ele>
        <time>2018-04-17T15:47:24Z</time>
      </trkpt>
      <trkpt lat="38.80641" lon="15.21509">
        <ele>243.83</ele>
        <time>2018-04-17T15:47:30Z</time>
      </trkpt>
      <trkpt lat="38.80641" lon="15.21515">
        <ele>243.35</ele>
        <time>2018-04-17T15:47:34Z</time>
      </trkpt>
      <trkpt lat="38.80642" lon="15.21521">
        <ele>243.83</ele>
        <time>2018-04-17T15:47:39Z</time>
      </trkpt>
      <trkpt lat="38.80641" lon="15.21529">
        <ele>242.87</ele>
        <time>2018-04-17T15:47:45Z</time>
      </trkpt>
      <trkpt lat="38.80642" lon="15.21534">
        <ele>242.39</ele>
        <time>2018-04-17T15:47:56Z</time>
      </trkpt>
      <trkpt lat="38.80642" lon="15.21538">
        <ele>242.39</ele>
        <time>2018-04-17T15:48:00Z</time>
      </trkpt>
      <trkpt lat="38.80641" lon="15.21544">
        <ele>242.87</ele>
        <time>2018-04-17T15:48:05Z</time>
      </trkpt>
      <trkpt lat="38.80642" lon="15.21555">
        <ele>242.39</ele>
        <time>2018-04-17T15:48:13Z</time>
      </trkpt>
      <trkpt lat="38.80641" lon="15.2157">
        <ele>240.95</ele>
        <time>2018-04-17T15:48:25Z</time>
      </trkpt>
      <trkpt lat="38.80641" lon="15.21589">
        <ele>239.99</ele>
        <time>2018-04-17T15:48:38Z</time>
      </trkpt>
      <trkpt lat="38.80641" lon="15.21594">
        <ele>239.51</ele>
        <time>2018-04-17T15:48:41Z</time>
      </trkpt>
      <trkpt lat="38.80643" lon="15.21614">
        <ele>237.1</ele>
        <time>2018-04-17T15:48:54Z</time>
      </trkpt>
      <trkpt lat="38.80643" lon="15.21618">
        <ele>236.62</ele>
        <time>2018-04-17T15:48:57Z</time>
      </trkpt>
      <trkpt lat="38.80646" lon="15.21621">
        <ele>236.62</ele>
        <time>2018-04-17T15:49:01Z</time>
      </trkpt>
      <trkpt lat="38.8065" lon="15.2162">
        <ele>238.06</ele>
        <time>2018-04-17T15:49:05Z</time>
      </trkpt>
      <trkpt lat="38.80653" lon="15.21605">
        <ele>232.78</ele>
        <time>2018-04-17T15:49:18Z</time>
      </trkpt>
      <trkpt lat="38.80655" lon="15.21602">
        <ele>230.85</ele>
        <time>2018-04-17T15:49:24Z</time>
      </trkpt>
      <trkpt lat="38.80655" lon="15.21593">
        <ele>229.41</ele>
        <time>2018-04-17T15:49:30Z</time>
      </trkpt>
      <trkpt lat="38.80657" lon="15.21577">
        <ele>230.37</ele>
        <time>2018-04-17T15:49:44Z</time>
      </trkpt>
      <trkpt lat="38.80662" lon="15.21562">
        <ele>228.93</ele>
        <time>2018-04-17T15:49:56Z</time>
      </trkpt>
      <trkpt lat="38.80663" lon="15.2156">
        <ele>228.45</ele>
        <time>2018-04-17T15:49:57Z</time>
      </trkpt>
      <trkpt lat="38.80667" lon="15.2155">
        <ele>226.53</ele>
        <time>2018-04-17T15:50:08Z</time>
      </trkpt>
      <trkpt lat="38.80675" lon="15.21535">
        <ele>225.09</ele>
        <time>2018-04-17T15:50:21Z</time>
      </trkpt>
      <trkpt lat="38.80683" lon="15.21521">
        <ele>223.16</ele>
        <time>2018-04-17T15:50:34Z</time>
      </trkpt>
      <trkpt lat="38.80686" lon="15.21515">
        <ele>222.2</ele>
        <time>2018-04-17T15:50:40Z</time>
      </trkpt>
      <trkpt lat="38.80692" lon="15.21506">
        <ele>222.2</ele>
        <time>2018-04-17T15:50:48Z</time>
      </trkpt>
      <trkpt lat="38.80696" lon="15.21502">
        <ele>220.76</ele>
        <time>2018-04-17T15:50:52Z</time>
      </trkpt>
      <trkpt lat="38.80694" lon="15.21491">
        <ele>218.84</ele>
        <time>2018-04-17T15:50:59Z</time>
      </trkpt>
      <trkpt lat="38.80686" lon="15.21484">
        <ele>218.84</ele>
        <time>2018-04-17T15:51:06Z</time>
      </trkpt>
      <trkpt lat="38.80683" lon="15.21475">
        <ele>218.36</ele>
        <time>2018-04-17T15:51:12Z</time>
      </trkpt>
      <trkpt lat="38.80683" lon="15.21473">
        <ele>217.88</ele>
        <time>2018-04-17T15:51:14Z</time>
      </trkpt>
      <trkpt lat="38.80683" lon="15.21468">
        <ele>217.4</ele>
        <time>2018-04-17T15:51:17Z</time>
      </trkpt>
      <trkpt lat="38.80683" lon="15.2146">
        <ele>216.43</ele>
        <time>2018-04-17T15:51:22Z</time>
      </trkpt>
      <trkpt lat="38.80691" lon="15.21459">
        <ele>216.43</ele>
        <time>2018-04-17T15:51:30Z</time>
      </trkpt>
      <trkpt lat="38.80693" lon="15.2146">
        <ele>215.95</ele>
        <time>2018-04-17T15:51:33Z</time>
      </trkpt>
      <trkpt lat="38.80696" lon="15.21464">
        <ele>214.99</ele>
        <time>2018-04-17T15:51:38Z</time>
      </trkpt>
      <trkpt lat="38.80706" lon="15.21475">
        <ele>212.59</ele>
        <time>2018-04-17T15:51:51Z</time>
      </trkpt>
      <trkpt lat="38.80713" lon="15.21492">
        <ele>210.19</ele>
        <time>2018-04-17T15:52:05Z</time>
      </trkpt>
      <trkpt lat="38.80711" lon="15.21512">
        <ele>207.78</ele>
        <time>2018-04-17T15:52:18Z</time>
      </trkpt>
      <trkpt lat="38.80708" lon="15.21525">
        <ele>206.82</ele>
        <time>2018-04-17T15:52:31Z</time>
      </trkpt>
      <trkpt lat="38.80706" lon="15.21544">
        <ele>205.38</ele>
        <time>2018-04-17T15:52:43Z</time>
      </trkpt>
      <trkpt lat="38.80705" lon="15.21553">
        <ele>205.38</ele>
        <time>2018-04-17T15:52:50Z</time>
      </trkpt>
      <trkpt lat="38.80709" lon="15.21575">
        <ele>203.94</ele>
        <time>2018-04-17T15:53:04Z</time>
      </trkpt>
      <trkpt lat="38.80712" lon="15.21581">
        <ele>203.46</ele>
        <time>2018-04-17T15:53:08Z</time>
      </trkpt>
      <trkpt lat="38.80712" lon="15.21584">
        <ele>202.98</ele>
        <time>2018-04-17T15:53:10Z</time>
      </trkpt>
      <trkpt lat="38.80715" lon="15.21595">
        <ele>202.01</ele>
        <time>2018-04-17T15:53:16Z</time>
      </trkpt>
      <trkpt lat="38.80718" lon="15.21614">
        <ele>199.61</ele>
        <time>2018-04-17T15:53:30Z</time>
      </trkpt>
      <trkpt lat="38.80722" lon="15.21618">
        <ele>199.61</ele>
        <time>2018-04-17T15:53:35Z</time>
      </trkpt>
      <trkpt lat="38.80729" lon="15.21617">
        <ele>199.61</ele>
        <time>2018-04-17T15:53:44Z</time>
      </trkpt>
      <trkpt lat="38.80732" lon="15.21612">
        <ele>200.09</ele>
        <time>2018-04-17T15:53:49Z</time>
      </trkpt>
      <trkpt lat="38.80734" lon="15.21597">
        <ele>198.65</ele>
        <time>2018-04-17T15:54:01Z</time>
      </trkpt>
      <trkpt lat="38.80733" lon="15.21595">
        <ele>198.65</ele>
        <time>2018-04-17T15:54:03Z</time>
      </trkpt>
      <trkpt lat="38.80733" lon="15.2159">
        <ele>198.65</ele>
        <time>2018-04-17T15:54:07Z</time>
      </trkpt>
      <trkpt lat="38.80731" lon="15.21578">
        <ele>197.21</ele>
        <time>2018-04-17T15:54:19Z</time>
      </trkpt>
      <trkpt lat="38.80729" lon="15.21558">
        <ele>195.77</ele>
        <time>2018-04-17T15:54:32Z</time>
      </trkpt>
      <trkpt lat="38.8073" lon="15.21554">
        <ele>195.28</ele>
        <time>2018-04-17T15:54:35Z</time>
      </trkpt>
      <trkpt lat="38.80735" lon="15.21532">
        <ele>192.4</ele>
        <time>2018-04-17T15:54:50Z</time>
      </trkpt>
      <trkpt lat="38.80738" lon="15.21524">
        <ele>191.92</ele>
        <time>2018-04-17T15:55:00Z</time>
      </trkpt>
      <trkpt lat="38.80741" lon="15.21525">
        <ele>191.92</ele>
        <time>2018-04-17T15:55:14Z</time>
      </trkpt>
      <trkpt lat="38.80742" lon="15.21526">
        <ele>191.44</ele>
        <time>2018-04-17T15:55:18Z</time>
      </trkpt>
      <trkpt lat="38.80742" lon="15.21531">
        <ele>190.48</ele>
        <time>2018-04-17T15:55:22Z</time>
      </trkpt>
      <trkpt lat="38.80747" lon="15.21558">
        <ele>186.63</ele>
        <time>2018-04-17T15:55:37Z</time>
      </trkpt>
      <trkpt lat="38.80748" lon="15.21561">
        <ele>187.11</ele>
        <time>2018-04-17T15:55:39Z</time>
      </trkpt>
      <trkpt lat="38.8076" lon="15.2157">
        <ele>186.63</ele>
        <time>2018-04-17T15:55:53Z</time>
      </trkpt>
      <trkpt lat="38.80764" lon="15.21571">
        <ele>186.63</ele>
        <time>2018-04-17T15:55:56Z</time>
      </trkpt>
      <trkpt lat="38.80767" lon="15.21582">
        <ele>183.75</ele>
        <time>2018-04-17T15:56:03Z</time>
      </trkpt>
      <trkpt lat="38.80769" lon="15.21592">
        <ele>181.35</ele>
        <time>2018-04-17T15:56:11Z</time>
      </trkpt>
      <trkpt lat="38.80772" lon="15.21594">
        <ele>180.38</ele>
        <time>2018-04-17T15:56:15Z</time>
      </trkpt>
      <trkpt lat="38.80775" lon="15.21592">
        <ele>179.9</ele>
        <time>2018-04-17T15:56:20Z</time>
      </trkpt>
      <trkpt lat="38.80776" lon="15.21585">
        <ele>178.94</ele>
        <time>2018-04-17T15:56:26Z</time>
      </trkpt>
      <trkpt lat="38.80775" lon="15.21564">
        <ele>176.54</ele>
        <time>2018-04-17T15:56:42Z</time>
      </trkpt>
      <trkpt lat="38.80776" lon="15.21558">
        <ele>176.54</ele>
        <time>2018-04-17T15:56:46Z</time>
      </trkpt>
      <trkpt lat="38.80783" lon="15.21556">
        <ele>176.06</ele>
        <time>2018-04-17T15:56:53Z</time>
      </trkpt>
      <trkpt lat="38.80787" lon="15.21563">
        <ele>175.1</ele>
        <time>2018-04-17T15:56:58Z</time>
      </trkpt>
      <trkpt lat="38.80789" lon="15.2157">
        <ele>174.14</ele>
        <time>2018-04-17T15:57:03Z</time>
      </trkpt>
      <trkpt lat="38.80795" lon="15.21587">
        <ele>172.21</ele>
        <time>2018-04-17T15:57:15Z</time>
      </trkpt>
      <trkpt lat="38.80796" lon="15.21588">
        <ele>171.73</ele>
        <time>2018-04-17T15:57:17Z</time>
      </trkpt>
      <trkpt lat="38.80802" lon="15.21584">
        <ele>170.29</ele>
        <time>2018-04-17T15:57:25Z</time>
      </trkpt>
      <trkpt lat="38.80808" lon="15.21567">
        <ele>167.41</ele>
        <time>2018-04-17T15:57:39Z</time>
      </trkpt>
      <trkpt lat="38.80806" lon="15.21565">
        <ele>167.41</ele>
        <time>2018-04-17T15:57:42Z</time>
      </trkpt>
      <trkpt lat="38.80799" lon="15.2155">
        <ele>166.45</ele>
        <time>2018-04-17T15:57:55Z</time>
      </trkpt>
      <trkpt lat="38.80789" lon="15.21537">
        <ele>165</ele>
        <time>2018-04-17T15:58:06Z</time>
      </trkpt>
      <trkpt lat="38.80788" lon="15.21531">
        <ele>164.52</ele>
        <time>2018-04-17T15:58:10Z</time>
      </trkpt>
      <trkpt lat="38.80796" lon="15.21521">
        <ele>162.6</ele>
        <time>2018-04-17T15:58:21Z</time>
      </trkpt>
      <trkpt lat="38.80805" lon="15.21527">
        <ele>161.16</ele>
        <time>2018-04-17T15:58:30Z</time>
      </trkpt>
      <trkpt lat="38.8081" lon="15.21529">
        <ele>160.68</ele>
        <time>2018-04-17T15:58:35Z</time>
      </trkpt>
      <trkpt lat="38.80818" lon="15.2153">
        <ele>160.68</ele>
        <time>2018-04-17T15:58:41Z</time>
      </trkpt>
      <trkpt lat="38.80831" lon="15.21546">
        <ele>159.24</ele>
        <time>2018-04-17T15:58:56Z</time>
      </trkpt>
      <trkpt lat="38.80836" lon="15.21558">
        <ele>157.79</ele>
        <time>2018-04-17T15:59:06Z</time>
      </trkpt>
      <trkpt lat="38.80836" lon="15.21561">
        <ele>157.31</ele>
        <time>2018-04-17T15:59:08Z</time>
      </trkpt>
      <trkpt lat="38.80838" lon="15.21568">
        <ele>156.35</ele>
        <time>2018-04-17T15:59:13Z</time>
      </trkpt>
      <trkpt lat="38.80843" lon="15.21577">
        <ele>154.43</ele>
        <time>2018-04-17T15:59:20Z</time>
      </trkpt>
      <trkpt lat="38.80846" lon="15.21586">
        <ele>153.95</ele>
        <time>2018-04-17T15:59:26Z</time>
      </trkpt>
      <trkpt lat="38.80849" lon="15.21591">
        <ele>153.95</ele>
        <time>2018-04-17T15:59:31Z</time>
      </trkpt>
      <trkpt lat="38.80853" lon="15.21589">
        <ele>152.51</ele>
        <time>2018-04-17T15:59:36Z</time>
      </trkpt>
      <trkpt lat="38.80859" lon="15.21574">
        <ele>149.62</ele>
        <time>2018-04-17T15:59:48Z</time>
      </trkpt>
      <trkpt lat="38.8086" lon="15.21571">
        <ele>150.1</ele>
        <time>2018-04-17T15:59:52Z</time>
      </trkpt>
      <trkpt lat="38.80863" lon="15.21565">
        <ele>149.14</ele>
        <time>2018-04-17T15:59:57Z</time>
      </trkpt>
      <trkpt lat="38.80868" lon="15.21559">
        <ele>147.7</ele>
        <time>2018-04-17T16:00:04Z</time>
      </trkpt>
      <trkpt lat="38.8087" lon="15.21565">
        <ele>146.74</ele>
        <time>2018-04-17T16:00:09Z</time>
      </trkpt>
      <trkpt lat="38.80868" lon="15.21575">
        <ele>146.26</ele>
        <time>2018-04-17T16:00:17Z</time>
      </trkpt>
      <trkpt lat="38.80866" lon="15.21589">
        <ele>145.78</ele>
        <time>2018-04-17T16:00:28Z</time>
      </trkpt>
      <trkpt lat="38.80867" lon="15.21598">
        <ele>146.26</ele>
        <time>2018-04-17T16:00:35Z</time>
      </trkpt>
      <trkpt lat="38.80871" lon="15.21593">
        <ele>146.26</ele>
        <time>2018-04-17T16:00:42Z</time>
      </trkpt>
      <trkpt lat="38.80878" lon="15.21575">
        <ele>145.78</ele>
        <time>2018-04-17T16:00:58Z</time>
      </trkpt>
      <trkpt lat="38.80879" lon="15.21572">
        <ele>145.78</ele>
        <time>2018-04-17T16:01:00Z</time>
      </trkpt>
      <trkpt lat="38.80886" lon="15.2157">
        <ele>146.26</ele>
        <time>2018-04-17T16:01:08Z</time>
      </trkpt>
      <trkpt lat="38.80887" lon="15.21575">
        <ele>146.26</ele>
        <time>2018-04-17T16:01:11Z</time>
      </trkpt>
      <trkpt lat="38.80887" lon="15.21588">
        <ele>143.85</ele>
        <time>2018-04-17T16:01:20Z</time>
      </trkpt>
      <trkpt lat="38.80887" lon="15.21591">
        <ele>143.37</ele>
        <time>2018-04-17T16:01:22Z</time>
      </trkpt>
      <trkpt lat="38.8089" lon="15.21597">
        <ele>142.41</ele>
        <time>2018-04-17T16:01:29Z</time>
      </trkpt>
      <trkpt lat="38.80905" lon="15.21598">
        <ele>141.93</ele>
        <time>2018-04-17T16:01:42Z</time>
      </trkpt>
      <trkpt lat="38.8092" lon="15.21601">
        <ele>140.97</ele>
        <time>2018-04-17T16:01:57Z</time>
      </trkpt>
      <trkpt lat="38.80926" lon="15.21601">
        <ele>139.53</ele>
        <time>2018-04-17T16:02:05Z</time>
      </trkpt>
      <trkpt lat="38.80937" lon="15.21602">
        <ele>136.64</ele>
        <time>2018-04-17T16:02:22Z</time>
      </trkpt>
      <trkpt lat="38.80948" lon="15.21603">
        <ele>136.64</ele>
        <time>2018-04-17T16:02:34Z</time>
      </trkpt>
      <trkpt lat="38.80959" lon="15.21604">
        <ele>133.28</ele>
        <time>2018-04-17T16:02:48Z</time>
      </trkpt>
      <trkpt lat="38.80977" lon="15.21606">
        <ele>134.72</ele>
        <time>2018-04-17T16:03:01Z</time>
      </trkpt>
      <trkpt lat="38.80991" lon="15.21618">
        <ele>132.32</ele>
        <time>2018-04-17T16:03:15Z</time>
      </trkpt>
      <trkpt lat="38.80998" lon="15.21629">
        <ele>130.88</ele>
        <time>2018-04-17T16:03:25Z</time>
      </trkpt>
      <trkpt lat="38.81008" lon="15.21643">
        <ele>131.36</ele>
        <time>2018-04-17T16:03:37Z</time>
      </trkpt>
      <trkpt lat="38.81013" lon="15.2165">
        <ele>131.36</ele>
        <time>2018-04-17T16:03:44Z</time>
      </trkpt>
      <trkpt lat="38.81021" lon="15.2166">
        <ele>129.43</ele>
        <time>2018-04-17T16:03:53Z</time>
      </trkpt>
      <trkpt lat="38.81023" lon="15.21666">
        <ele>128.95</ele>
        <time>2018-04-17T16:03:57Z</time>
      </trkpt>
      <trkpt lat="38.81034" lon="15.21681">
        <ele>127.51</ele>
        <time>2018-04-17T16:04:10Z</time>
      </trkpt>
      <trkpt lat="38.81035" lon="15.21684">
        <ele>127.51</ele>
        <time>2018-04-17T16:04:12Z</time>
      </trkpt>
      <trkpt lat="38.8104" lon="15.21693">
        <ele>124.63</ele>
        <time>2018-04-17T16:04:23Z</time>
      </trkpt>
      <trkpt lat="38.81043" lon="15.21697">
        <ele>122.22</ele>
        <time>2018-04-17T16:04:35Z</time>
      </trkpt>
      <trkpt lat="38.81044" lon="15.21698">
        <ele>119.34</ele>
        <time>2018-04-17T16:04:54Z</time>
      </trkpt>
      <trkpt lat="38.81043" lon="15.21699">
        <ele>117.42</ele>
        <time>2018-04-17T16:05:11Z</time>
      </trkpt>
      <trkpt lat="38.81043" lon="15.21699">
        <ele>116.94</ele>
        <time>2018-04-17T16:05:22Z</time>
      </trkpt>
      <trkpt lat="38.81045" lon="15.21702">
        <ele>115.98</ele>
        <time>2018-04-17T16:05:36Z</time>
      </trkpt>
      <trkpt lat="38.81046" lon="15.21703">
        <ele>115.01</ele>
        <time>2018-04-17T16:05:57Z</time>
      </trkpt>
      <trkpt lat="38.81045" lon="15.21704">
        <ele>114.53</ele>
        <time>2018-04-17T16:06:20Z</time>
      </trkpt>
      <trkpt lat="38.81045" lon="15.21705">
        <ele>114.53</ele>
        <time>2018-04-17T16:06:33Z</time>
      </trkpt>
      <trkpt lat="38.81046" lon="15.21705">
        <ele>114.05</ele>
        <time>2018-04-17T16:06:53Z</time>
      </trkpt>
      <trkpt lat="38.81045" lon="15.21706">
        <ele>113.57</ele>
        <time>2018-04-17T16:07:07Z</time>
      </trkpt>
      <trkpt lat="38.81044" lon="15.21707">
        <ele>113.57</ele>
        <time>2018-04-17T16:07:15Z</time>
      </trkpt>
      <trkpt lat="38.81034" lon="15.21713">
        <ele>114.53</ele>
        <time>2018-04-17T16:07:26Z</time>
      </trkpt>
      <trkpt lat="38.81033" lon="15.21725">
        <ele>116.46</ele>
        <time>2018-04-17T16:07:38Z</time>
      </trkpt>
      <trkpt lat="38.81037" lon="15.21731">
        <ele>117.42</ele>
        <time>2018-04-17T16:07:51Z</time>
      </trkpt>
      <trkpt lat="38.81036" lon="15.21732">
        <ele>117.42</ele>
        <time>2018-04-17T16:07:53Z</time>
      </trkpt>
      <trkpt lat="38.81042" lon="15.2175">
        <ele>117.9</ele>
        <time>2018-04-17T16:08:08Z</time>
      </trkpt>
      <trkpt lat="38.81049" lon="15.21767">
        <ele>118.86</ele>
        <time>2018-04-17T16:08:21Z</time>
      </trkpt>
      <trkpt lat="38.81049" lon="15.21768">
        <ele>118.86</ele>
        <time>2018-04-17T16:08:22Z</time>
      </trkpt>
      <trkpt lat="38.81053" lon="15.21778">
        <ele>117.42</ele>
        <time>2018-04-17T16:08:28Z</time>
      </trkpt>
      <trkpt lat="38.8106" lon="15.21802">
        <ele>115.98</ele>
        <time>2018-04-17T16:08:46Z</time>
      </trkpt>
      <trkpt lat="38.81059" lon="15.21805">
        <ele>115.01</ele>
        <time>2018-04-17T16:08:55Z</time>
      </trkpt>
      <trkpt lat="38.81058" lon="15.21805">
        <ele>114.05</ele>
        <time>2018-04-17T16:09:09Z</time>
      </trkpt>
      <trkpt lat="38.81059" lon="15.21805">
        <ele>113.57</ele>
        <time>2018-04-17T16:09:22Z</time>
      </trkpt>
      <trkpt lat="38.8106" lon="15.21807">
        <ele>113.57</ele>
        <time>2018-04-17T16:09:24Z</time>
      </trkpt>
      <trkpt lat="38.81065" lon="15.21817">
        <ele>113.57</ele>
        <time>2018-04-17T16:09:31Z</time>
      </trkpt>
      <trkpt lat="38.81075" lon="15.21842">
        <ele>112.61</ele>
        <time>2018-04-17T16:09:47Z</time>
      </trkpt>
      <trkpt lat="38.81083" lon="15.21859">
        <ele>111.65</ele>
        <time>2018-04-17T16:10:00Z</time>
      </trkpt>
      <trkpt lat="38.81084" lon="15.21865">
        <ele>108.77</ele>
        <time>2018-04-17T16:10:10Z</time>
      </trkpt>
      <trkpt lat="38.81084" lon="15.21874">
        <ele>108.77</ele>
        <time>2018-04-17T16:10:15Z</time>
      </trkpt>
      <trkpt lat="38.81084" lon="15.21882">
        <ele>108.77</ele>
        <time>2018-04-17T16:10:20Z</time>
      </trkpt>
      <trkpt lat="38.81084" lon="15.2189">
        <ele>108.29</ele>
        <time>2018-04-17T16:10:25Z</time>
      </trkpt>
      <trkpt lat="38.81083" lon="15.21909">
        <ele>106.36</ele>
        <time>2018-04-17T16:10:38Z</time>
      </trkpt>
      <trkpt lat="38.81083" lon="15.21922">
        <ele>104.92</ele>
        <time>2018-04-17T16:10:46Z</time>
      </trkpt>
      <trkpt lat="38.8108" lon="15.21937">
        <ele>103</ele>
        <time>2018-04-17T16:10:55Z</time>
      </trkpt>
      <trkpt lat="38.81077" lon="15.21946">
        <ele>101.08</ele>
        <time>2018-04-17T16:11:01Z</time>
      </trkpt>
      <trkpt lat="38.81069" lon="15.21965">
        <ele>97.23</ele>
        <time>2018-04-17T16:11:14Z</time>
      </trkpt>
      <trkpt lat="38.81067" lon="15.21967">
        <ele>96.27</ele>
        <time>2018-04-17T16:11:17Z</time>
      </trkpt>
      <trkpt lat="38.81066" lon="15.2197">
        <ele>95.79</ele>
        <time>2018-04-17T16:11:19Z</time>
      </trkpt>
      <trkpt lat="38.81063" lon="15.21975">
        <ele>95.31</ele>
        <time>2018-04-17T16:11:24Z</time>
      </trkpt>
      <trkpt lat="38.81057" lon="15.21991">
        <ele>94.35</ele>
        <time>2018-04-17T16:11:35Z</time>
      </trkpt>
      <trkpt lat="38.81054" lon="15.22002">
        <ele>92.9</ele>
        <time>2018-04-17T16:11:43Z</time>
      </trkpt>
      <trkpt lat="38.81046" lon="15.22021">
        <ele>90.02</ele>
        <time>2018-04-17T16:11:58Z</time>
      </trkpt>
      <trkpt lat="38.81035" lon="15.22034">
        <ele>88.1</ele>
        <time>2018-04-17T16:12:12Z</time>
      </trkpt>
      <trkpt lat="38.81032" lon="15.22037">
        <ele>88.1</ele>
        <time>2018-04-17T16:12:16Z</time>
      </trkpt>
      <trkpt lat="38.81027" lon="15.22039">
        <ele>87.14</ele>
        <time>2018-04-17T16:12:20Z</time>
      </trkpt>
      <trkpt lat="38.81023" lon="15.22048">
        <ele>86.66</ele>
        <time>2018-04-17T16:12:29Z</time>
      </trkpt>
      <trkpt lat="38.81023" lon="15.22052">
        <ele>86.66</ele>
        <time>2018-04-17T16:12:32Z</time>
      </trkpt>
      <trkpt lat="38.81022" lon="15.22059">
        <ele>86.18</ele>
        <time>2018-04-17T16:12:37Z</time>
      </trkpt>
      <trkpt lat="38.8102" lon="15.2207">
        <ele>85.69</ele>
        <time>2018-04-17T16:12:46Z</time>
      </trkpt>
      <trkpt lat="38.81019" lon="15.22092">
        <ele>85.21</ele>
        <time>2018-04-17T16:13:02Z</time>
      </trkpt>
      <trkpt lat="38.81018" lon="15.22113">
        <ele>84.25</ele>
        <time>2018-04-17T16:13:16Z</time>
      </trkpt>
      <trkpt lat="38.81018" lon="15.22127">
        <ele>85.21</ele>
        <time>2018-04-17T16:13:26Z</time>
      </trkpt>
      <trkpt lat="38.81018" lon="15.22135">
        <ele>84.73</ele>
        <time>2018-04-17T16:13:31Z</time>
      </trkpt>
      <trkpt lat="38.81015" lon="15.22154">
        <ele>83.77</ele>
        <time>2018-04-17T16:13:45Z</time>
      </trkpt>
      <trkpt lat="38.81015" lon="15.2217">
        <ele>84.73</ele>
        <time>2018-04-17T16:13:57Z</time>
      </trkpt>
      <trkpt lat="38.81016" lon="15.22186">
        <ele>84.25</ele>
        <time>2018-04-17T16:14:09Z</time>
      </trkpt>
      <trkpt lat="38.81015" lon="15.22209">
        <ele>81.85</ele>
        <time>2018-04-17T16:14:25Z</time>
      </trkpt>
      <trkpt lat="38.81007" lon="15.22222">
        <ele>80.89</ele>
        <time>2018-04-17T16:14:38Z</time>
      </trkpt>
      <trkpt lat="38.81004" lon="15.22233">
        <ele>79.45</ele>
        <time>2018-04-17T16:14:49Z</time>
      </trkpt>
      <trkpt lat="38.81005" lon="15.22239">
        <ele>78.97</ele>
        <time>2018-04-17T16:14:53Z</time>
      </trkpt>
      <trkpt lat="38.81005" lon="15.22241">
        <ele>78.48</ele>
        <time>2018-04-17T16:14:55Z</time>
      </trkpt>
      <trkpt lat="38.81006" lon="15.2225">
        <ele>78</ele>
        <time>2018-04-17T16:15:02Z</time>
      </trkpt>
      <trkpt lat="38.81006" lon="15.22256">
        <ele>77.52</ele>
        <time>2018-04-17T16:15:06Z</time>
      </trkpt>
      <trkpt lat="38.81006" lon="15.22267">
        <ele>76.08</ele>
        <time>2018-04-17T16:15:15Z</time>
      </trkpt>
      <trkpt lat="38.81004" lon="15.22274">
        <ele>75.6</ele>
        <time>2018-04-17T16:15:19Z</time>
      </trkpt>
      <trkpt lat="38.81002" lon="15.2228">
        <ele>75.12</ele>
        <time>2018-04-17T16:15:24Z</time>
      </trkpt>
      <trkpt lat="38.81001" lon="15.22283">
        <ele>75.12</ele>
        <time>2018-04-17T16:15:27Z</time>
      </trkpt>
      <trkpt lat="38.80999" lon="15.22289">
        <ele>74.64</ele>
        <time>2018-04-17T16:15:32Z</time>
      </trkpt>
      <trkpt lat="38.80997" lon="15.22302">
        <ele>74.64</ele>
        <time>2018-04-17T16:15:42Z</time>
      </trkpt>
      <trkpt lat="38.80995" lon="15.22311">
        <ele>74.16</ele>
        <time>2018-04-17T16:15:53Z</time>
      </trkpt>
      <trkpt lat="38.80995" lon="15.2231">
        <ele>72.72</ele>
        <time>2018-04-17T16:16:14Z</time>
      </trkpt>
      <trkpt lat="38.80995" lon="15.22315">
        <ele>72.72</ele>
        <time>2018-04-17T16:16:26Z</time>
      </trkpt>
      <trkpt lat="38.80988" lon="15.2233">
        <ele>71.76</ele>
        <time>2018-04-17T16:16:40Z</time>
      </trkpt>
      <trkpt lat="38.80986" lon="15.22333">
        <ele>71.27</ele>
        <time>2018-04-17T16:16:43Z</time>
      </trkpt>
      <trkpt lat="38.80978" lon="15.22341">
        <ele>70.79</ele>
        <time>2018-04-17T16:16:53Z</time>
      </trkpt>
      <trkpt lat="38.80973" lon="15.22346">
        <ele>70.79</ele>
        <time>2018-04-17T16:16:59Z</time>
      </trkpt>
      <trkpt lat="38.8097" lon="15.22355">
        <ele>70.31</ele>
        <time>2018-04-17T16:17:06Z</time>
      </trkpt>
      <trkpt lat="38.80968" lon="15.22369">
        <ele>69.83</ele>
        <time>2018-04-17T16:17:15Z</time>
      </trkpt>
      <trkpt lat="38.80966" lon="15.22374">
        <ele>69.35</ele>
        <time>2018-04-17T16:17:22Z</time>
      </trkpt>
      <trkpt lat="38.80966" lon="15.22377">
        <ele>69.83</ele>
        <time>2018-04-17T16:17:25Z</time>
      </trkpt>
      <trkpt lat="38.80959" lon="15.22399">
        <ele>66.95</ele>
        <time>2018-04-17T16:17:42Z</time>
      </trkpt>
      <trkpt lat="38.80959" lon="15.22399">
        <ele>66.95</ele>
        <time>2018-04-17T16:17:53Z</time>
      </trkpt>
      <trkpt lat="38.8096" lon="15.22399">
        <ele>67.43</ele>
        <time>2018-04-17T16:18:03Z</time>
      </trkpt>
      <trkpt lat="38.80964" lon="15.22399">
        <ele>68.39</ele>
        <time>2018-04-17T16:18:13Z</time>
      </trkpt>
      <trkpt lat="38.80968" lon="15.22397">
        <ele>67.43</ele>
        <time>2018-04-17T16:18:26Z</time>
      </trkpt>
      <trkpt lat="38.80972" lon="15.22388">
        <ele>66.95</ele>
        <time>2018-04-17T16:18:38Z</time>
      </trkpt>
      <trkpt lat="38.80981" lon="15.2237">
        <ele>66.47</ele>
        <time>2018-04-17T16:18:53Z</time>
      </trkpt>
      <trkpt lat="38.80991" lon="15.22353">
        <ele>65.99</ele>
        <time>2018-04-17T16:19:08Z</time>
      </trkpt>
      <trkpt lat="38.81003" lon="15.2234">
        <ele>65.51</ele>
        <time>2018-04-17T16:19:22Z</time>
      </trkpt>
      <trkpt lat="38.81009" lon="15.22337">
        <ele>64.55</ele>
        <time>2018-04-17T16:19:28Z</time>
      </trkpt>
      <trkpt lat="38.81013" lon="15.22342">
        <ele>64.07</ele>
        <time>2018-04-17T16:19:32Z</time>
      </trkpt>
      <trkpt lat="38.81013" lon="15.22342">
        <ele>63.1</ele>
        <time>2018-04-17T16:19:43Z</time>
      </trkpt>
      <trkpt lat="38.81014" lon="15.2234">
        <ele>62.14</ele>
        <time>2018-04-17T16:20:00Z</time>
      </trkpt>
      <trkpt lat="38.81015" lon="15.22345">
        <ele>61.66</ele>
        <time>2018-04-17T16:20:04Z</time>
      </trkpt>
      <trkpt lat="38.81007" lon="15.22353">
        <ele>60.22</ele>
        <time>2018-04-17T16:20:12Z</time>
      </trkpt>
      <trkpt lat="38.81" lon="15.22362">
        <ele>59.74</ele>
        <time>2018-04-17T16:20:26Z</time>
      </trkpt>
      <trkpt lat="38.80989" lon="15.22377">
        <ele>59.74</ele>
        <time>2018-04-17T16:20:39Z</time>
      </trkpt>
      <trkpt lat="38.80988" lon="15.22381">
        <ele>59.74</ele>
        <time>2018-04-17T16:20:42Z</time>
      </trkpt>
      <trkpt lat="38.80987" lon="15.22387">
        <ele>59.26</ele>
        <time>2018-04-17T16:20:46Z</time>
      </trkpt>
      <trkpt lat="38.80985" lon="15.22392">
        <ele>58.3</ele>
        <time>2018-04-17T16:20:50Z</time>
      </trkpt>
      <trkpt lat="38.80978" lon="15.22415">
        <ele>57.34</ele>
        <time>2018-04-17T16:21:06Z</time>
      </trkpt>
      <trkpt lat="38.80977" lon="15.22417">
        <ele>57.34</ele>
        <time>2018-04-17T16:21:08Z</time>
      </trkpt>
      <trkpt lat="38.80985" lon="15.22419">
        <ele>56.86</ele>
        <time>2018-04-17T16:21:19Z</time>
      </trkpt>
      <trkpt lat="38.80994" lon="15.22397">
        <ele>55.41</ele>
        <time>2018-04-17T16:21:35Z</time>
      </trkpt>
      <trkpt lat="38.81007" lon="15.22381">
        <ele>53.01</ele>
        <time>2018-04-17T16:21:49Z</time>
      </trkpt>
      <trkpt lat="38.8102" lon="15.2237">
        <ele>53.49</ele>
        <time>2018-04-17T16:22:02Z</time>
      </trkpt>
      <trkpt lat="38.81026" lon="15.22371">
        <ele>53.01</ele>
        <time>2018-04-17T16:22:08Z</time>
      </trkpt>
      <trkpt lat="38.81035" lon="15.22381">
        <ele>51.57</ele>
        <time>2018-04-17T16:22:17Z</time>
      </trkpt>
      <trkpt lat="38.81023" lon="15.22398">
        <ele>48.68</ele>
        <time>2018-04-17T16:22:32Z</time>
      </trkpt>
      <trkpt lat="38.81017" lon="15.22404">
        <ele>47.72</ele>
        <time>2018-04-17T16:22:38Z</time>
      </trkpt>
      <trkpt lat="38.81016" lon="15.22405">
        <ele>47.72</ele>
        <time>2018-04-17T16:22:40Z</time>
      </trkpt>
      <trkpt lat="38.81014" lon="15.2241">
        <ele>47.24</ele>
        <time>2018-04-17T16:22:47Z</time>
      </trkpt>
      <trkpt lat="38.81011" lon="15.22416">
        <ele>47.24</ele>
        <time>2018-04-17T16:22:52Z</time>
      </trkpt>
      <trkpt lat="38.8101" lon="15.22419">
        <ele>47.72</ele>
        <time>2018-04-17T16:22:54Z</time>
      </trkpt>
      <trkpt lat="38.81007" lon="15.22424">
        <ele>47.24</ele>
        <time>2018-04-17T16:22:58Z</time>
      </trkpt>
      <trkpt lat="38.81002" lon="15.22431">
        <ele>47.24</ele>
        <time>2018-04-17T16:23:04Z</time>
      </trkpt>
      <trkpt lat="38.80997" lon="15.22438">
        <ele>47.24</ele>
        <time>2018-04-17T16:23:10Z</time>
      </trkpt>
      <trkpt lat="38.80994" lon="15.22444">
        <ele>45.8</ele>
        <time>2018-04-17T16:23:15Z</time>
      </trkpt>
      <trkpt lat="38.80995" lon="15.22455">
        <ele>45.32</ele>
        <time>2018-04-17T16:23:22Z</time>
      </trkpt>
      <trkpt lat="38.80996" lon="15.22458">
        <ele>46.76</ele>
        <time>2018-04-17T16:23:24Z</time>
      </trkpt>
      <trkpt lat="38.81008" lon="15.2245">
        <ele>52.05</ele>
        <time>2018-04-17T16:23:38Z</time>
      </trkpt>
      <trkpt lat="38.81009" lon="15.2245">
        <ele>51.57</ele>
        <time>2018-04-17T16:23:40Z</time>
      </trkpt>
      <trkpt lat="38.81013" lon="15.22449">
        <ele>51.09</ele>
        <time>2018-04-17T16:23:44Z</time>
      </trkpt>
      <trkpt lat="38.81016" lon="15.22452">
        <ele>49.65</ele>
        <time>2018-04-17T16:23:47Z</time>
      </trkpt>
      <trkpt lat="38.81016" lon="15.22462">
        <ele>46.28</ele>
        <time>2018-04-17T16:23:55Z</time>
      </trkpt>
      <trkpt lat="38.81003" lon="15.22471">
        <ele>44.36</ele>
        <time>2018-04-17T16:24:09Z</time>
      </trkpt>
      <trkpt lat="38.80994" lon="15.22478">
        <ele>42.92</ele>
        <time>2018-04-17T16:24:19Z</time>
      </trkpt>
      <trkpt lat="38.80983" lon="15.22485">
        <ele>40.51</ele>
        <time>2018-04-17T16:24:30Z</time>
      </trkpt>
      <trkpt lat="38.80978" lon="15.22487">
        <ele>39.07</ele>
        <time>2018-04-17T16:24:36Z</time>
      </trkpt>
      <trkpt lat="38.80979" lon="15.22486">
        <ele>39.55</ele>
        <time>2018-04-17T16:24:50Z</time>
      </trkpt>
      <trkpt lat="38.80978" lon="15.22488">
        <ele>39.07</ele>
        <time>2018-04-17T16:24:59Z</time>
      </trkpt>
      <trkpt lat="38.80973" lon="15.22491">
        <ele>37.63</ele>
        <time>2018-04-17T16:25:14Z</time>
      </trkpt>
      <trkpt lat="38.80971" lon="15.22494">
        <ele>37.63</ele>
        <time>2018-04-17T16:25:28Z</time>
      </trkpt>
      <trkpt lat="38.8097" lon="15.22496">
        <ele>37.63</ele>
        <time>2018-04-17T16:25:30Z</time>
      </trkpt>
      <trkpt lat="38.80963" lon="15.22512">
        <ele>38.59</ele>
        <time>2018-04-17T16:25:44Z</time>
      </trkpt>
      <trkpt lat="38.80952" lon="15.22534">
        <ele>38.59</ele>
        <time>2018-04-17T16:26:00Z</time>
      </trkpt>
      <trkpt lat="38.80942" lon="15.22554">
        <ele>36.67</ele>
        <time>2018-04-17T16:26:14Z</time>
      </trkpt>
      <trkpt lat="38.80941" lon="15.22561">
        <ele>37.63</ele>
        <time>2018-04-17T16:26:18Z</time>
      </trkpt>
      <trkpt lat="38.8095" lon="15.22566">
        <ele>38.59</ele>
        <time>2018-04-17T16:26:32Z</time>
      </trkpt>
      <trkpt lat="38.8095" lon="15.22565">
        <ele>38.59</ele>
        <time>2018-04-17T16:26:33Z</time>
      </trkpt>
      <trkpt lat="38.80965" lon="15.22552">
        <ele>35.71</ele>
        <time>2018-04-17T16:26:47Z</time>
      </trkpt>
      <trkpt lat="38.80976" lon="15.22544">
        <ele>35.23</ele>
        <time>2018-04-17T16:26:57Z</time>
      </trkpt>
      <trkpt lat="38.8098" lon="15.22546">
        <ele>34.26</ele>
        <time>2018-04-17T16:27:01Z</time>
      </trkpt>
      <trkpt lat="38.80975" lon="15.22564">
        <ele>32.82</ele>
        <time>2018-04-17T16:27:15Z</time>
      </trkpt>
      <trkpt lat="38.80968" lon="15.22579">
        <ele>31.86</ele>
        <time>2018-04-17T16:27:27Z</time>
      </trkpt>
      <trkpt lat="38.80966" lon="15.22582">
        <ele>31.38</ele>
        <time>2018-04-17T16:27:30Z</time>
      </trkpt>
      <trkpt lat="38.80961" lon="15.22591">
        <ele>29.94</ele>
        <time>2018-04-17T16:27:44Z</time>
      </trkpt>
      <trkpt lat="38.8096" lon="15.22593">
        <ele>29.46</ele>
        <time>2018-04-17T16:27:59Z</time>
      </trkpt>
      <trkpt lat="38.80954" lon="15.22606">
        <ele>30.42</ele>
        <time>2018-04-17T16:28:12Z</time>
      </trkpt>
      <trkpt lat="38.80944" lon="15.22632">
        <ele>29.46</ele>
        <time>2018-04-17T16:28:29Z</time>
      </trkpt>
      <trkpt lat="38.8094" lon="15.22646">
        <ele>26.09</ele>
        <time>2018-04-17T16:28:38Z</time>
      </trkpt>
      <trkpt lat="38.80943" lon="15.22647">
        <ele>25.13</ele>
        <time>2018-04-17T16:28:43Z</time>
      </trkpt>
      <trkpt lat="38.8095" lon="15.22636">
        <ele>23.21</ele>
        <time>2018-04-17T16:28:55Z</time>
      </trkpt>
      <trkpt lat="38.80964" lon="15.22623">
        <ele>20.81</ele>
        <time>2018-04-17T16:29:09Z</time>
      </trkpt>
      <trkpt lat="38.80975" lon="15.22611">
        <ele>20.81</ele>
        <time>2018-04-17T16:29:21Z</time>
      </trkpt>
      <trkpt lat="38.80985" lon="15.22608">
        <ele>20.81</ele>
        <time>2018-04-17T16:29:33Z</time>
      </trkpt>
      <trkpt lat="38.80992" lon="15.22606">
        <ele>20.32</ele>
        <time>2018-04-17T16:29:45Z</time>
      </trkpt>
      <trkpt lat="38.80994" lon="15.22605">
        <ele>19.84</ele>
        <time>2018-04-17T16:29:49Z</time>
      </trkpt>
      <trkpt lat="38.80999" lon="15.22601">
        <ele>20.32</ele>
        <time>2018-04-17T16:29:54Z</time>
      </trkpt>
      <trkpt lat="38.8101" lon="15.22586">
        <ele>18.4</ele>
        <time>2018-04-17T16:30:10Z</time>
      </trkpt>
      <trkpt lat="38.81012" lon="15.22591">
        <ele>18.4</ele>
        <time>2018-04-17T16:30:21Z</time>
      </trkpt>
      <trkpt lat="38.81013" lon="15.22591">
        <ele>18.4</ele>
        <time>2018-04-17T16:30:28Z</time>
      </trkpt>
      <trkpt lat="38.81011" lon="15.22597">
        <ele>18.4</ele>
        <time>2018-04-17T16:30:43Z</time>
      </trkpt>
      <trkpt lat="38.81011" lon="15.22597">
        <ele>17.92</ele>
        <time>2018-04-17T16:30:46Z</time>
      </trkpt>
      <trkpt lat="38.81002" lon="15.22615">
        <ele>17.92</ele>
        <time>2018-04-17T16:30:59Z</time>
      </trkpt>
      <trkpt lat="38.80996" lon="15.22621">
        <ele>17.92</ele>
        <time>2018-04-17T16:31:08Z</time>
      </trkpt>
      <trkpt lat="38.8099" lon="15.22631">
        <ele>17.92</ele>
        <time>2018-04-17T16:31:19Z</time>
      </trkpt>
      <trkpt lat="38.80987" lon="15.22639">
        <ele>16.48</ele>
        <time>2018-04-17T16:31:25Z</time>
      </trkpt>
      <trkpt lat="38.80982" lon="15.22649">
        <ele>15.04</ele>
        <time>2018-04-17T16:31:37Z</time>
      </trkpt>
      <trkpt lat="38.8098" lon="15.22658">
        <ele>15.52</ele>
        <time>2018-04-17T16:31:46Z</time>
      </trkpt>
      <trkpt lat="38.80986" lon="15.22677">
        <ele>17.92</ele>
        <time>2018-04-17T16:32:00Z</time>
      </trkpt>
      <trkpt lat="38.80993" lon="15.2269">
        <ele>16</ele>
        <time>2018-04-17T16:32:10Z</time>
      </trkpt>
      <trkpt lat="38.80994" lon="15.22695">
        <ele>15.04</ele>
        <time>2018-04-17T16:32:13Z</time>
      </trkpt>
      <trkpt lat="38.8099" lon="15.22707">
        <ele>16</ele>
        <time>2018-04-17T16:32:26Z</time>
      </trkpt>
      <trkpt lat="38.8099" lon="15.22711">
        <ele>16</ele>
        <time>2018-04-17T16:32:38Z</time>
      </trkpt>
      <trkpt lat="38.80988" lon="15.22715">
        <ele>16.48</ele>
        <time>2018-04-17T16:32:49Z</time>
      </trkpt>
      <trkpt lat="38.80988" lon="15.22717">
        <ele>17.92</ele>
        <time>2018-04-17T16:33:16Z</time>
      </trkpt>
      <trkpt lat="38.80987" lon="15.2273">
        <ele>21.77</ele>
        <time>2018-04-17T16:33:29Z</time>
      </trkpt>
      <trkpt lat="38.80985" lon="15.22731">
        <ele>20.81</ele>
        <time>2018-04-17T16:33:34Z</time>
      </trkpt>
      <trkpt lat="38.80985" lon="15.22746">
        <ele>18.88</ele>
        <time>2018-04-17T16:33:48Z</time>
      </trkpt>
      <trkpt lat="38.80985" lon="15.22753">
        <ele>18.4</ele>
        <time>2018-04-17T16:34:02Z</time>
      </trkpt>
      <trkpt lat="38.80984" lon="15.22756">
        <ele>18.88</ele>
        <time>2018-04-17T16:34:07Z</time>
      </trkpt>
      <trkpt lat="38.80983" lon="15.22768">
        <ele>20.81</ele>
        <time>2018-04-17T16:34:17Z</time>
      </trkpt>
      <trkpt lat="38.80981" lon="15.22788">
        <ele>26.57</ele>
        <time>2018-04-17T16:34:31Z</time>
      </trkpt>
      <trkpt lat="38.80979" lon="15.22802">
        <ele>28.5</ele>
        <time>2018-04-17T16:34:44Z</time>
      </trkpt>
      <trkpt lat="38.80969" lon="15.22816">
        <ele>30.42</ele>
        <time>2018-04-17T16:34:59Z</time>
      </trkpt>
      <trkpt lat="38.80966" lon="15.22821">
        <ele>29.94</ele>
        <time>2018-04-17T16:35:03Z</time>
      </trkpt>
      <trkpt lat="38.80958" lon="15.22836">
        <ele>28.02</ele>
        <time>2018-04-17T16:35:18Z</time>
      </trkpt>
      <trkpt lat="38.80958" lon="15.22842">
        <ele>27.53</ele>
        <time>2018-04-17T16:35:24Z</time>
      </trkpt>
      <trkpt lat="38.80957" lon="15.22855">
        <ele>28.5</ele>
        <time>2018-04-17T16:35:34Z</time>
      </trkpt>
      <trkpt lat="38.80956" lon="15.22863">
        <ele>29.46</ele>
        <time>2018-04-17T16:35:41Z</time>
      </trkpt>
      <trkpt lat="38.80955" lon="15.22867">
        <ele>28.98</ele>
        <time>2018-04-17T16:35:44Z</time>
      </trkpt>
      <trkpt lat="38.80947" lon="15.22881">
        <ele>24.65</ele>
        <time>2018-04-17T16:35:57Z</time>
      </trkpt>
      <trkpt lat="38.80947" lon="15.22882">
        <ele>23.69</ele>
        <time>2018-04-17T16:35:59Z</time>
      </trkpt>
      <trkpt lat="38.80952" lon="15.22889">
        <ele>19.84</ele>
        <time>2018-04-17T16:36:11Z</time>
      </trkpt>
      <trkpt lat="38.8096" lon="15.22902">
        <ele>25.13</ele>
        <time>2018-04-17T16:36:27Z</time>
      </trkpt>
      <trkpt lat="38.80958" lon="15.22915">
        <ele>31.38</ele>
        <time>2018-04-17T16:36:37Z</time>
      </trkpt>
      <trkpt lat="38.80956" lon="15.22922">
        <ele>31.38</ele>
        <time>2018-04-17T16:36:43Z</time>
      </trkpt>
      <trkpt lat="38.80949" lon="15.22946">
        <ele>30.42</ele>
        <time>2018-04-17T16:36:58Z</time>
      </trkpt>
      <trkpt lat="38.80945" lon="15.22966">
        <ele>33.3</ele>
        <time>2018-04-17T16:37:12Z</time>
      </trkpt>
      <trkpt lat="38.80941" lon="15.22982">
        <ele>34.26</ele>
        <time>2018-04-17T16:37:25Z</time>
      </trkpt>
      <trkpt lat="38.80937" lon="15.22991">
        <ele>34.26</ele>
        <time>2018-04-17T16:37:35Z</time>
      </trkpt>
      <trkpt lat="38.80933" lon="15.22999">
        <ele>33.78</ele>
        <time>2018-04-17T16:37:40Z</time>
      </trkpt>
      <trkpt lat="38.80927" lon="15.23014">
        <ele>32.82</ele>
        <time>2018-04-17T16:37:53Z</time>
      </trkpt>
      <trkpt lat="38.80922" lon="15.23033">
        <ele>33.78</ele>
        <time>2018-04-17T16:38:07Z</time>
      </trkpt>
      <trkpt lat="38.80919" lon="15.23044">
        <ele>31.86</ele>
        <time>2018-04-17T16:38:17Z</time>
      </trkpt>
      <trkpt lat="38.80919" lon="15.23047">
        <ele>31.86</ele>
        <time>2018-04-17T16:38:19Z</time>
      </trkpt>
      <trkpt lat="38.80909" lon="15.23067">
        <ele>29.94</ele>
        <time>2018-04-17T16:38:34Z</time>
      </trkpt>
      <trkpt lat="38.80899" lon="15.23081">
        <ele>28.02</ele>
        <time>2018-04-17T16:38:47Z</time>
      </trkpt>
      <trkpt lat="38.80895" lon="15.23088">
        <ele>27.05</ele>
        <time>2018-04-17T16:38:53Z</time>
      </trkpt>
      <trkpt lat="38.80884" lon="15.23107">
        <ele>25.13</ele>
        <time>2018-04-17T16:39:09Z</time>
      </trkpt>
      <trkpt lat="38.80877" lon="15.23113">
        <ele>24.17</ele>
        <time>2018-04-17T16:39:20Z</time>
      </trkpt>
      <trkpt lat="38.80873" lon="15.23124">
        <ele>25.61</ele>
        <time>2018-04-17T16:39:32Z</time>
      </trkpt>
      <trkpt lat="38.80875" lon="15.23145">
        <ele>25.13</ele>
        <time>2018-04-17T16:39:48Z</time>
      </trkpt>
      <trkpt lat="38.80874" lon="15.23151">
        <ele>23.21</ele>
        <time>2018-04-17T16:40:04Z</time>
      </trkpt>
      <trkpt lat="38.80875" lon="15.23157">
        <ele>23.21</ele>
        <time>2018-04-17T16:40:15Z</time>
      </trkpt>
      <trkpt lat="38.80872" lon="15.23169">
        <ele>23.21</ele>
        <time>2018-04-17T16:40:38Z</time>
      </trkpt>
      <trkpt lat="38.80872" lon="15.23174">
        <ele>23.69</ele>
        <time>2018-04-17T16:40:41Z</time>
      </trkpt>
      <trkpt lat="38.80869" lon="15.23188">
        <ele>23.69</ele>
        <time>2018-04-17T16:40:51Z</time>
      </trkpt>
      <trkpt lat="38.80861" lon="15.23208">
        <ele>25.13</ele>
        <time>2018-04-17T16:41:07Z</time>
      </trkpt>
      <trkpt lat="38.80854" lon="15.23222">
        <ele>22.25</ele>
        <time>2018-04-17T16:41:22Z</time>
      </trkpt>
      <trkpt lat="38.80852" lon="15.23229">
        <ele>22.73</ele>
        <time>2018-04-17T16:41:40Z</time>
      </trkpt>
      <trkpt lat="38.80851" lon="15.23232">
        <ele>22.25</ele>
        <time>2018-04-17T16:41:43Z</time>
      </trkpt>
      <trkpt lat="38.80845" lon="15.23252">
        <ele>21.77</ele>
        <time>2018-04-17T16:41:58Z</time>
      </trkpt>
      <trkpt lat="38.80845" lon="15.23259">
        <ele>21.29</ele>
        <time>2018-04-17T16:42:03Z</time>
      </trkpt>
      <trkpt lat="38.80849" lon="15.23265">
        <ele>20.81</ele>
        <time>2018-04-17T16:42:08Z</time>
      </trkpt>
      <trkpt lat="38.80847" lon="15.23276">
        <ele>22.25</ele>
        <time>2018-04-17T16:42:15Z</time>
      </trkpt>
      <trkpt lat="38.8084" lon="15.23295">
        <ele>22.25</ele>
        <time>2018-04-17T16:42:29Z</time>
      </trkpt>
      <trkpt lat="38.80832" lon="15.23316">
        <ele>20.32</ele>
        <time>2018-04-17T16:42:45Z</time>
      </trkpt>
      <trkpt lat="38.80829" lon="15.23325">
        <ele>19.36</ele>
        <time>2018-04-17T16:42:51Z</time>
      </trkpt>
      <trkpt lat="38.80824" lon="15.23333">
        <ele>17.92</ele>
        <time>2018-04-17T16:42:57Z</time>
      </trkpt>
      <trkpt lat="38.8081" lon="15.23347">
        <ele>16.48</ele>
        <time>2018-04-17T16:43:13Z</time>
      </trkpt>
      <trkpt lat="38.80806" lon="15.23353">
        <ele>16.48</ele>
        <time>2018-04-17T16:43:18Z</time>
      </trkpt>
      <trkpt lat="38.80793" lon="15.2337">
        <ele>16.96</ele>
        <time>2018-04-17T16:43:34Z</time>
      </trkpt>
      <trkpt lat="38.80782" lon="15.23381">
        <ele>18.4</ele>
        <time>2018-04-17T16:43:47Z</time>
      </trkpt>
      <trkpt lat="38.80767" lon="15.23385">
        <ele>20.81</ele>
        <time>2018-04-17T16:44:02Z</time>
      </trkpt>
      <trkpt lat="38.80753" lon="15.23396">
        <ele>23.21</ele>
        <time>2018-04-17T16:44:17Z</time>
      </trkpt>
      <trkpt lat="38.80742" lon="15.2341">
        <ele>23.69</ele>
        <time>2018-04-17T16:44:30Z</time>
      </trkpt>
      <trkpt lat="38.80733" lon="15.23421">
        <ele>23.69</ele>
        <time>2018-04-17T16:44:42Z</time>
      </trkpt>
      <trkpt lat="38.80732" lon="15.23422">
        <ele>23.69</ele>
        <time>2018-04-17T16:44:43Z</time>
      </trkpt>
      <trkpt lat="38.80717" lon="15.23434">
        <ele>25.13</ele>
        <time>2018-04-17T16:45:00Z</time>
      </trkpt>
      <trkpt lat="38.80716" lon="15.23438">
        <ele>22.73</ele>
        <time>2018-04-17T16:45:14Z</time>
      </trkpt>
      <trkpt lat="38.80711" lon="15.23444">
        <ele>21.77</ele>
        <time>2018-04-17T16:45:23Z</time>
      </trkpt>
      <trkpt lat="38.80703" lon="15.23454">
        <ele>21.77</ele>
        <time>2018-04-17T16:45:36Z</time>
      </trkpt>
      <trkpt lat="38.80701" lon="15.23459">
        <ele>21.29</ele>
        <time>2018-04-17T16:45:40Z</time>
      </trkpt>
      <trkpt lat="38.80696" lon="15.23466">
        <ele>20.81</ele>
        <time>2018-04-17T16:45:48Z</time>
      </trkpt>
      <trkpt lat="38.80695" lon="15.23478">
        <ele>22.73</ele>
        <time>2018-04-17T16:45:57Z</time>
      </trkpt>
      <trkpt lat="38.80694" lon="15.23488">
        <ele>22.25</ele>
        <time>2018-04-17T16:46:06Z</time>
      </trkpt>
      <trkpt lat="38.80682" lon="15.23499">
        <ele>19.84</ele>
        <time>2018-04-17T16:46:17Z</time>
      </trkpt>
      <trkpt lat="38.80679" lon="15.23501">
        <ele>18.88</ele>
        <time>2018-04-17T16:46:25Z</time>
      </trkpt>
      <trkpt lat="38.80674" lon="15.23514">
        <ele>19.84</ele>
        <time>2018-04-17T16:46:39Z</time>
      </trkpt>
      <trkpt lat="38.80671" lon="15.23527">
        <ele>19.36</ele>
        <time>2018-04-17T16:46:50Z</time>
      </trkpt>
      <trkpt lat="38.80669" lon="15.23533">
        <ele>18.88</ele>
        <time>2018-04-17T16:46:54Z</time>
      </trkpt>
      <trkpt lat="38.80666" lon="15.2354">
        <ele>19.36</ele>
        <time>2018-04-17T16:47:00Z</time>
      </trkpt>
      <trkpt lat="38.80662" lon="15.23548">
        <ele>20.32</ele>
        <time>2018-04-17T16:47:06Z</time>
      </trkpt>
      <trkpt lat="38.80657" lon="15.23556">
        <ele>20.32</ele>
        <time>2018-04-17T16:47:13Z</time>
      </trkpt>
      <trkpt lat="38.80647" lon="15.23573">
        <ele>20.81</ele>
        <time>2018-04-17T16:47:28Z</time>
      </trkpt>
      <trkpt lat="38.80646" lon="15.23592">
        <ele>21.29</ele>
        <time>2018-04-17T16:47:41Z</time>
      </trkpt>
      <trkpt lat="38.80643" lon="15.23599">
        <ele>20.81</ele>
        <time>2018-04-17T16:47:46Z</time>
      </trkpt>
      <trkpt lat="38.80636" lon="15.23621">
        <ele>17.44</ele>
        <time>2018-04-17T16:48:00Z</time>
      </trkpt>
      <trkpt lat="38.80632" lon="15.23636">
        <ele>15.52</ele>
        <time>2018-04-17T16:48:11Z</time>
      </trkpt>
      <trkpt lat="38.80624" lon="15.23655">
        <ele>13.12</ele>
        <time>2018-04-17T16:48:24Z</time>
      </trkpt>
      <trkpt lat="38.80624" lon="15.23657">
        <ele>12.63</ele>
        <time>2018-04-17T16:48:25Z</time>
      </trkpt>
      <trkpt lat="38.80624" lon="15.23668">
        <ele>10.71</ele>
        <time>2018-04-17T16:48:36Z</time>
      </trkpt>
      <trkpt lat="38.80622" lon="15.23677">
        <ele>10.23</ele>
        <time>2018-04-17T16:48:48Z</time>
      </trkpt>
      <trkpt lat="38.8062" lon="15.2368">
        <ele>10.23</ele>
        <time>2018-04-17T16:48:51Z</time>
      </trkpt>
      <trkpt lat="38.80611" lon="15.23698">
        <ele>9.75</ele>
        <time>2018-04-17T16:49:07Z</time>
      </trkpt>
      <trkpt lat="38.80607" lon="15.23712">
        <ele>8.79</ele>
        <time>2018-04-17T16:49:19Z</time>
      </trkpt>
      <trkpt lat="38.80601" lon="15.23726">
        <ele>8.31</ele>
        <time>2018-04-17T16:49:29Z</time>
      </trkpt>
      <trkpt lat="38.80598" lon="15.23748">
        <ele>9.27</ele>
        <time>2018-04-17T16:49:44Z</time>
      </trkpt>
      <trkpt lat="38.80598" lon="15.23752">
        <ele>9.75</ele>
        <time>2018-04-17T16:49:47Z</time>
      </trkpt>
      <trkpt lat="38.80598" lon="15.23759">
        <ele>9.27</ele>
        <time>2018-04-17T16:49:52Z</time>
      </trkpt>
      <trkpt lat="38.80597" lon="15.23785">
        <ele>9.27</ele>
        <time>2018-04-17T16:50:09Z</time>
      </trkpt>
      <trkpt lat="38.80597" lon="15.23812">
        <ele>8.79</ele>
        <time>2018-04-17T16:50:26Z</time>
      </trkpt>
      <trkpt lat="38.80597" lon="15.23827">
        <ele>7.83</ele>
        <time>2018-04-17T16:50:36Z</time>
      </trkpt>
      <trkpt lat="38.80592" lon="15.23837">
        <ele>7.83</ele>
        <time>2018-04-17T16:50:48Z</time>
      </trkpt>
      <trkpt lat="38.80592" lon="15.23837">
        <ele>7.83</ele>
        <time>2018-04-17T16:50:51Z</time>
      </trkpt>
      <trkpt lat="38.80597" lon="15.23846">
        <ele>8.79</ele>
        <time>2018-04-17T16:50:57Z</time>
      </trkpt>
      <trkpt lat="38.80606" lon="15.23873">
        <ele>9.75</ele>
        <time>2018-04-17T16:51:13Z</time>
      </trkpt>
      <trkpt lat="38.80609" lon="15.23881">
        <ele>9.75</ele>
        <time>2018-04-17T16:51:18Z</time>
      </trkpt>
      <trkpt lat="38.80608" lon="15.23881">
        <ele>9.27</ele>
        <time>2018-04-17T16:51:20Z</time>
      </trkpt>
      <trkpt lat="38.80607" lon="15.23887">
        <ele>9.27</ele>
        <time>2018-04-17T16:51:24Z</time>
      </trkpt>
      <trkpt lat="38.80608" lon="15.23903">
        <ele>8.79</ele>
        <time>2018-04-17T16:51:39Z</time>
      </trkpt>
      <trkpt lat="38.80607" lon="15.23903">
        <ele>7.83</ele>
        <time>2018-04-17T16:51:52Z</time>
      </trkpt>
      <trkpt lat="38.80605" lon="15.23931">
        <ele>7.83</ele>
        <time>2018-04-17T16:52:07Z</time>
      </trkpt>
      <trkpt lat="38.80596" lon="15.23951">
        <ele>7.83</ele>
        <time>2018-04-17T16:52:22Z</time>
      </trkpt>
      <trkpt lat="38.80584" lon="15.23966">
        <ele>8.79</ele>
        <time>2018-04-17T16:52:36Z</time>
      </trkpt>
      <trkpt lat="38.80574" lon="15.23979">
        <ele>9.27</ele>
        <time>2018-04-17T16:52:48Z</time>
      </trkpt>
      <trkpt lat="38.8056" lon="15.23997">
        <ele>10.71</ele>
        <time>2018-04-17T16:53:04Z</time>
      </trkpt>
      <trkpt lat="38.80543" lon="15.2402">
        <ele>12.63</ele>
        <time>2018-04-17T16:53:23Z</time>
      </trkpt>
      <trkpt lat="38.80535" lon="15.24028">
        <ele>12.63</ele>
        <time>2018-04-17T16:53:34Z</time>
      </trkpt>
      <trkpt lat="38.80535" lon="15.24029">
        <ele>12.63</ele>
        <time>2018-04-17T16:53:37Z</time>
      </trkpt>
      <trkpt lat="38.80527" lon="15.24042">
        <ele>12.63</ele>
        <time>2018-04-17T16:53:50Z</time>
      </trkpt>
      <trkpt lat="38.80526" lon="15.24043">
        <ele>12.63</ele>
        <time>2018-04-17T16:53:51Z</time>
      </trkpt>
      <trkpt lat="38.80523" lon="15.24047">
        <ele>12.63</ele>
        <time>2018-04-17T16:53:55Z</time>
      </trkpt>
      <trkpt lat="38.80515" lon="15.24055">
        <ele>11.67</ele>
        <time>2018-04-17T16:54:04Z</time>
      </trkpt>
      <trkpt lat="38.80513" lon="15.24053">
        <ele>10.71</ele>
        <time>2018-04-17T16:54:09Z</time>
      </trkpt>
      <trkpt lat="38.80511" lon="15.24057">
        <ele>10.71</ele>
        <time>2018-04-17T16:54:13Z</time>
      </trkpt>
      <trkpt lat="38.80501" lon="15.2407">
        <ele>11.67</ele>
        <time>2018-04-17T16:54:25Z</time>
      </trkpt>
      <trkpt lat="38.80492" lon="15.24087">
        <ele>11.67</ele>
        <time>2018-04-17T16:54:40Z</time>
      </trkpt>
      <trkpt lat="38.80479" lon="15.24104">
        <ele>13.12</ele>
        <time>2018-04-17T16:54:55Z</time>
      </trkpt>
      <trkpt lat="38.8047" lon="15.24119">
        <ele>14.08</ele>
        <time>2018-04-17T16:55:08Z</time>
      </trkpt>
      <trkpt lat="38.80457" lon="15.24136">
        <ele>14.08</ele>
        <time>2018-04-17T16:55:24Z</time>
      </trkpt>
      <trkpt lat="38.80446" lon="15.24153">
        <ele>13.6</ele>
        <time>2018-04-17T16:55:41Z</time>
      </trkpt>
      <trkpt lat="38.80443" lon="15.24159">
        <ele>11.19</ele>
        <time>2018-04-17T16:55:50Z</time>
      </trkpt>
      <trkpt lat="38.80444" lon="15.24157">
        <ele>11.19</ele>
        <time>2018-04-17T16:56:00Z</time>
      </trkpt>
      <trkpt lat="38.80442" lon="15.24159">
        <ele>11.19</ele>
        <time>2018-04-17T16:56:02Z</time>
      </trkpt>
      <trkpt lat="38.80441" lon="15.24165">
        <ele>11.19</ele>
        <time>2018-04-17T16:56:06Z</time>
      </trkpt>
      <trkpt lat="38.80433" lon="15.24186">
        <ele>11.67</ele>
        <time>2018-04-17T16:56:21Z</time>
      </trkpt>
      <trkpt lat="38.80431" lon="15.2419">
        <ele>12.15</ele>
        <time>2018-04-17T16:56:25Z</time>
      </trkpt>
      <trkpt lat="38.80425" lon="15.24207">
        <ele>14.56</ele>
        <time>2018-04-17T16:56:38Z</time>
      </trkpt>
      <trkpt lat="38.80423" lon="15.24213">
        <ele>14.56</ele>
        <time>2018-04-17T16:56:42Z</time>
      </trkpt>
      <trkpt lat="38.80417" lon="15.2423">
        <ele>14.56</ele>
        <time>2018-04-17T16:56:54Z</time>
      </trkpt>
      <trkpt lat="38.80414" lon="15.24231">
        <ele>13.12</ele>
        <time>2018-04-17T16:56:58Z</time>
      </trkpt>
      <trkpt lat="38.80399" lon="15.24232">
        <ele>10.71</ele>
        <time>2018-04-17T16:57:11Z</time>
      </trkpt>
      <trkpt lat="38.8039" lon="15.24228">
        <ele>9.75</ele>
        <time>2018-04-17T16:57:20Z</time>
      </trkpt>
      <trkpt lat="38.80378" lon="15.24221">
        <ele>9.75</ele>
        <time>2018-04-17T16:57:34Z</time>
      </trkpt>
      <trkpt lat="38.80372" lon="15.24218">
        <ele>8.31</ele>
        <time>2018-04-17T16:57:44Z</time>
      </trkpt>
      <trkpt lat="38.80367" lon="15.24219">
        <ele>8.31</ele>
        <time>2018-04-17T16:57:52Z</time>
      </trkpt>
      <trkpt lat="38.80364" lon="15.24217">
        <ele>7.83</ele>
        <time>2018-04-17T16:57:55Z</time>
      </trkpt>
      <trkpt lat="38.80357" lon="15.24214">
        <ele>6.87</ele>
        <time>2018-04-17T16:58:01Z</time>
      </trkpt>
      <trkpt lat="38.80341" lon="15.24209">
        <ele>5.42</ele>
        <time>2018-04-17T16:58:18Z</time>
      </trkpt>
      <trkpt lat="38.80337" lon="15.24208">
        <ele>5.42</ele>
        <time>2018-04-17T16:58:30Z</time>
      </trkpt>
      <trkpt lat="38.80326" lon="15.24204">
        <ele>5.42</ele>
        <time>2018-04-17T16:58:42Z</time>
      </trkpt>
      <trkpt lat="38.80314" lon="15.24198">
        <ele>5.42</ele>
        <time>2018-04-17T16:58:57Z</time>
      </trkpt>
      <trkpt lat="38.80306" lon="15.24193">
        <ele>4.94</ele>
        <time>2018-04-17T16:59:11Z</time>
      </trkpt>
      <trkpt lat="38.80289" lon="15.24189">
        <ele>3.5</ele>
        <time>2018-04-17T16:59:26Z</time>
      </trkpt>
      <trkpt lat="38.80281" lon="15.24186">
        <ele>3.5</ele>
        <time>2018-04-17T16:59:32Z</time>
      </trkpt>
      <trkpt lat="38.80265" lon="15.24181">
        <ele>4.94</ele>
        <time>2018-04-17T16:59:46Z</time>
      </trkpt>
      <trkpt lat="38.80253" lon="15.24176">
        <ele>6.39</ele>
        <time>2018-04-17T17:00:00Z</time>
      </trkpt>
      <trkpt lat="38.80252" lon="15.24176">
        <ele>6.39</ele>
        <time>2018-04-17T17:00:04Z</time>
      </trkpt>
      <trkpt lat="38.80238" lon="15.2417">
        <ele>3.98</ele>
        <time>2018-04-17T17:00:21Z</time>
      </trkpt>
      <trkpt lat="38.80216" lon="15.24161">
        <ele>2.06</ele>
        <time>2018-04-17T17:00:38Z</time>
      </trkpt>
      <trkpt lat="38.802" lon="15.24148">
        <ele>3.5</ele>
        <time>2018-04-17T17:00:53Z</time>
      </trkpt>
      <trkpt lat="38.80199" lon="15.24147">
        <ele>3.5</ele>
        <time>2018-04-17T17:00:54Z</time>
      </trkpt>
      <trkpt lat="38.80194" lon="15.24143">
        <ele>3.98</ele>
        <time>2018-04-17T17:00:59Z</time>
      </trkpt>
      <trkpt lat="38.80191" lon="15.2414">
        <ele>4.94</ele>
        <time>2018-04-17T17:01:04Z</time>
      </trkpt>
      <trkpt lat="38.80191" lon="15.24139">
        <ele>4.94</ele>
        <time>2018-04-17T17:01:06Z</time>
      </trkpt>
      <trkpt lat="38.80186" lon="15.24135">
        <ele>3.98</ele>
        <time>2018-04-17T17:01:11Z</time>
      </trkpt>
      <trkpt lat="38.80176" lon="15.24127">
        <ele>4.94</ele>
        <time>2018-04-17T17:01:26Z</time>
      </trkpt>
      <trkpt lat="38.80176" lon="15.24128">
        <ele>5.91</ele>
        <time>2018-04-17T17:01:47Z</time>
      </trkpt>
      <trkpt lat="38.80171" lon="15.24124">
        <ele>6.39</ele>
        <time>2018-04-17T17:01:59Z</time>
      </trkpt>
      <trkpt lat="38.80177" lon="15.24124">
        <ele>6.39</ele>
        <time>2018-04-17T17:02:10Z</time>
      </trkpt>
      <trkpt lat="38.80177" lon="15.24125">
        <ele>7.35</ele>
        <time>2018-04-17T17:02:21Z</time>
      </trkpt>
      <trkpt lat="38.80176" lon="15.24126">
        <ele>7.35</ele>
        <time>2018-04-17T17:02:35Z</time>
      </trkpt>
      <trkpt lat="38.80176" lon="15.24127">
        <ele>7.35</ele>
        <time>2018-04-17T17:02:37Z</time>
      </trkpt>
      <trkpt lat="38.8017" lon="15.24136">
        <ele>6.87</ele>
        <time>2018-04-17T17:02:47Z</time>
      </trkpt>
      <trkpt lat="38.80169" lon="15.24138">
        <ele>6.87</ele>
        <time>2018-04-17T17:02:48Z</time>
      </trkpt>
      <trkpt lat="38.80168" lon="15.24149">
        <ele>7.35</ele>
        <time>2018-04-17T17:03:03Z</time>
      </trkpt>
      <trkpt lat="38.80164" lon="15.24154">
        <ele>7.35</ele>
        <time>2018-04-17T17:03:17Z</time>
      </trkpt>
      <trkpt lat="38.80159" lon="15.24162">
        <ele>6.87</ele>
        <time>2018-04-17T17:03:26Z</time>
      </trkpt>
      <trkpt lat="38.80157" lon="15.24163">
        <ele>5.91</ele>
        <time>2018-04-17T17:03:37Z</time>
      </trkpt>
      <trkpt lat="38.80156" lon="15.24164">
        <ele>4.94</ele>
        <time>2018-04-17T17:03:47Z</time>
      </trkpt>
      <trkpt lat="38.80149" lon="15.24172">
        <ele>5.42</ele>
        <time>2018-04-17T17:04:00Z</time>
      </trkpt>
      <trkpt lat="38.80145" lon="15.24178">
        <ele>4.94</ele>
        <time>2018-04-17T17:04:12Z</time>
      </trkpt>
      <trkpt lat="38.80145" lon="15.2418">
        <ele>4.46</ele>
        <time>2018-04-17T17:04:27Z</time>
      </trkpt>
      <trkpt lat="38.80135" lon="15.24191">
        <ele>3.5</ele>
        <time>2018-04-17T17:04:43Z</time>
      </trkpt>
      <trkpt lat="38.80135" lon="15.24192">
        <ele>3.5</ele>
        <time>2018-04-17T17:04:44Z</time>
      </trkpt>
      <trkpt lat="38.8013" lon="15.24194">
        <ele>3.02</ele>
        <time>2018-04-17T17:04:58Z</time>
      </trkpt>
      <trkpt lat="38.8013" lon="15.24195">
        <ele>3.98</ele>
        <time>2018-04-17T17:05:35Z</time>
      </trkpt>
      <trkpt lat="38.80126" lon="15.24196">
        <ele>3.02</ele>
        <time>2018-04-17T17:05:41Z</time>
      </trkpt>
    </trkseg>
  </trk>
  <trk>
    <name><![CDATA[Tracé actuel: 18 AVR 2018 04:53]]></name>
    <trkseg>
      <trkpt lat="38.80059" lon="15.24424">
        <ele>6.87</ele>
        <time>2018-04-18T02:53:22Z</time>
      </trkpt>
      <trkpt lat="38.80059" lon="15.24404">
        <ele>-5.63</ele>
        <time>2018-04-18T02:53:35Z</time>
      </trkpt>
      <trkpt lat="38.8006" lon="15.24403">
        <ele>-8.51</ele>
        <time>2018-04-18T02:53:51Z</time>
      </trkpt>
      <trkpt lat="38.8006" lon="15.24404">
        <ele>-8.51</ele>
        <time>2018-04-18T02:54:04Z</time>
      </trkpt>
      <trkpt lat="38.80059" lon="15.24408">
        <ele>-8.03</ele>
        <time>2018-04-18T02:54:23Z</time>
      </trkpt>
      <trkpt lat="38.80058" lon="15.24415">
        <ele>-2.27</ele>
        <time>2018-04-18T02:54:35Z</time>
      </trkpt>
      <trkpt lat="38.8006" lon="15.24417">
        <ele>-2.27</ele>
        <time>2018-04-18T02:54:59Z</time>
      </trkpt>
      <trkpt lat="38.80062" lon="15.24419">
        <ele>2.06</ele>
        <time>2018-04-18T02:55:16Z</time>
      </trkpt>
      <trkpt lat="38.80061" lon="15.24419">
        <ele>3.02</ele>
        <time>2018-04-18T02:55:28Z</time>
      </trkpt>
      <trkpt lat="38.80056" lon="15.24415">
        <ele>2.54</ele>
        <time>2018-04-18T02:55:42Z</time>
      </trkpt>
      <trkpt lat="38.80031" lon="15.24426">
        <ele>2.06</ele>
        <time>2018-04-18T02:56:04Z</time>
      </trkpt>
      <trkpt lat="38.80033" lon="15.24466">
        <ele>2.06</ele>
        <time>2018-04-18T02:56:24Z</time>
      </trkpt>
      <trkpt lat="38.80044" lon="15.24491">
        <ele>2.54</ele>
        <time>2018-04-18T02:56:36Z</time>
      </trkpt>
      <trkpt lat="38.80054" lon="15.24519">
        <ele>2.54</ele>
        <time>2018-04-18T02:56:48Z</time>
      </trkpt>
      <trkpt lat="38.80066" lon="15.24547">
        <ele>3.98</ele>
        <time>2018-04-18T02:57:02Z</time>
      </trkpt>
      <trkpt lat="38.80078" lon="15.24569">
        <ele>4.46</ele>
        <time>2018-04-18T02:57:14Z</time>
      </trkpt>
      <trkpt lat="38.80086" lon="15.24582">
        <ele>4.94</ele>
        <time>2018-04-18T02:57:25Z</time>
      </trkpt>
      <trkpt lat="38.80089" lon="15.24587">
        <ele>4.94</ele>
        <time>2018-04-18T02:57:29Z</time>
      </trkpt>
      <trkpt lat="38.80094" lon="15.24594">
        <ele>3.98</ele>
        <time>2018-04-18T02:57:34Z</time>
      </trkpt>
      <trkpt lat="38.8012" lon="15.24615">
        <ele>4.46</ele>
        <time>2018-04-18T02:57:52Z</time>
      </trkpt>
      <trkpt lat="38.80142" lon="15.24619">
        <ele>3.5</ele>
        <time>2018-04-18T02:58:05Z</time>
      </trkpt>
      <trkpt lat="38.80165" lon="15.24616">
        <ele>3.02</ele>
        <time>2018-04-18T02:58:19Z</time>
      </trkpt>
      <trkpt lat="38.80194" lon="15.24602">
        <ele>3.02</ele>
        <time>2018-04-18T02:58:39Z</time>
      </trkpt>
      <trkpt lat="38.80216" lon="15.2459">
        <ele>2.54</ele>
        <time>2018-04-18T02:58:54Z</time>
      </trkpt>
      <trkpt lat="38.80251" lon="15.24573">
        <ele>3.02</ele>
        <time>2018-04-18T02:59:18Z</time>
      </trkpt>
      <trkpt lat="38.80274" lon="15.24565">
        <ele>2.54</ele>
        <time>2018-04-18T02:59:33Z</time>
      </trkpt>
      <trkpt lat="38.80301" lon="15.24552">
        <ele>2.54</ele>
        <time>2018-04-18T02:59:51Z</time>
      </trkpt>
      <trkpt lat="38.80332" lon="15.24531">
        <ele>2.54</ele>
        <time>2018-04-18T03:00:13Z</time>
      </trkpt>
      <trkpt lat="38.80347" lon="15.24525">
        <ele>2.54</ele>
        <time>2018-04-18T03:00:23Z</time>
      </trkpt>
      <trkpt lat="38.80375" lon="15.24522">
        <ele>2.06</ele>
        <time>2018-04-18T03:00:41Z</time>
      </trkpt>
      <trkpt lat="38.80405" lon="15.24528">
        <ele>1.58</ele>
        <time>2018-04-18T03:01:00Z</time>
      </trkpt>
      <trkpt lat="38.80445" lon="15.24534">
        <ele>1.58</ele>
        <time>2018-04-18T03:01:26Z</time>
      </trkpt>
      <trkpt lat="38.80487" lon="15.24543">
        <ele>1.58</ele>
        <time>2018-04-18T03:01:53Z</time>
      </trkpt>
      <trkpt lat="38.80508" lon="15.24543">
        <ele>5.42</ele>
        <time>2018-04-18T03:02:07Z</time>
      </trkpt>
      <trkpt lat="38.80543" lon="15.24539">
        <ele>4.94</ele>
        <time>2018-04-18T03:02:30Z</time>
      </trkpt>
      <trkpt lat="38.80573" lon="15.24547">
        <ele>3.98</ele>
        <time>2018-04-18T03:02:49Z</time>
      </trkpt>
      <trkpt lat="38.80602" lon="15.24553">
        <ele>3.98</ele>
        <time>2018-04-18T03:03:08Z</time>
      </trkpt>
      <trkpt lat="38.80618" lon="15.24554">
        <ele>2.54</ele>
        <time>2018-04-18T03:03:18Z</time>
      </trkpt>
      <trkpt lat="38.80633" lon="15.24551">
        <ele>3.5</ele>
        <time>2018-04-18T03:03:31Z</time>
      </trkpt>
      <trkpt lat="38.80652" lon="15.24542">
        <ele>3.98</ele>
        <time>2018-04-18T03:03:43Z</time>
      </trkpt>
      <trkpt lat="38.80672" lon="15.24527">
        <ele>3.5</ele>
        <time>2018-04-18T03:03:59Z</time>
      </trkpt>
      <trkpt lat="38.80695" lon="15.24508">
        <ele>3.98</ele>
        <time>2018-04-18T03:04:18Z</time>
      </trkpt>
      <trkpt lat="38.80708" lon="15.24478">
        <ele>4.94</ele>
        <time>2018-04-18T03:04:36Z</time>
      </trkpt>
      <trkpt lat="38.80728" lon="15.24438">
        <ele>4.46</ele>
        <time>2018-04-18T03:05:01Z</time>
      </trkpt>
      <trkpt lat="38.80745" lon="15.244">
        <ele>3.02</ele>
        <time>2018-04-18T03:05:23Z</time>
      </trkpt>
      <trkpt lat="38.80758" lon="15.24373">
        <ele>3.98</ele>
        <time>2018-04-18T03:05:39Z</time>
      </trkpt>
      <trkpt lat="38.80767" lon="15.24349">
        <ele>4.46</ele>
        <time>2018-04-18T03:05:53Z</time>
      </trkpt>
      <trkpt lat="38.80776" lon="15.24324">
        <ele>4.46</ele>
        <time>2018-04-18T03:06:07Z</time>
      </trkpt>
      <trkpt lat="38.80784" lon="15.24286">
        <ele>4.94</ele>
        <time>2018-04-18T03:06:26Z</time>
      </trkpt>
      <trkpt lat="38.80793" lon="15.24254">
        <ele>4.94</ele>
        <time>2018-04-18T03:06:43Z</time>
      </trkpt>
      <trkpt lat="38.80799" lon="15.24225">
        <ele>4.46</ele>
        <time>2018-04-18T03:06:58Z</time>
      </trkpt>
      <trkpt lat="38.80809" lon="15.24194">
        <ele>4.94</ele>
        <time>2018-04-18T03:07:15Z</time>
      </trkpt>
      <trkpt lat="38.80817" lon="15.24156">
        <ele>3.98</ele>
        <time>2018-04-18T03:07:34Z</time>
      </trkpt>
      <trkpt lat="38.8083" lon="15.24125">
        <ele>4.46</ele>
        <time>2018-04-18T03:07:52Z</time>
      </trkpt>
      <trkpt lat="38.80846" lon="15.2409">
        <ele>5.42</ele>
        <time>2018-04-18T03:08:12Z</time>
      </trkpt>
      <trkpt lat="38.80858" lon="15.24057">
        <ele>4.94</ele>
        <time>2018-04-18T03:08:30Z</time>
      </trkpt>
      <trkpt lat="38.80868" lon="15.24025">
        <ele>4.46</ele>
        <time>2018-04-18T03:08:48Z</time>
      </trkpt>
      <trkpt lat="38.80877" lon="15.23994">
        <ele>4.94</ele>
        <time>2018-04-18T03:09:05Z</time>
      </trkpt>
      <trkpt lat="38.80886" lon="15.23966">
        <ele>3.98</ele>
        <time>2018-04-18T03:09:20Z</time>
      </trkpt>
      <trkpt lat="38.80894" lon="15.23936">
        <ele>3.98</ele>
        <time>2018-04-18T03:09:36Z</time>
      </trkpt>
      <trkpt lat="38.80906" lon="15.23904">
        <ele>3.98</ele>
        <time>2018-04-18T03:09:54Z</time>
      </trkpt>
      <trkpt lat="38.80921" lon="15.23863">
        <ele>4.46</ele>
        <time>2018-04-18T03:10:16Z</time>
      </trkpt>
      <trkpt lat="38.8093" lon="15.23836">
        <ele>5.42</ele>
        <time>2018-04-18T03:10:30Z</time>
      </trkpt>
      <trkpt lat="38.80944" lon="15.23804">
        <ele>5.42</ele>
        <time>2018-04-18T03:10:48Z</time>
      </trkpt>
      <trkpt lat="38.80961" lon="15.2377">
        <ele>5.42</ele>
        <time>2018-04-18T03:11:08Z</time>
      </trkpt>
      <trkpt lat="38.80975" lon="15.23743">
        <ele>4.46</ele>
        <time>2018-04-18T03:11:24Z</time>
      </trkpt>
      <trkpt lat="38.80989" lon="15.23709">
        <ele>4.46</ele>
        <time>2018-04-18T03:11:43Z</time>
      </trkpt>
      <trkpt lat="38.81005" lon="15.23671">
        <ele>4.46</ele>
        <time>2018-04-18T03:12:04Z</time>
      </trkpt>
      <trkpt lat="38.81017" lon="15.23647">
        <ele>3.98</ele>
        <time>2018-04-18T03:12:18Z</time>
      </trkpt>
      <trkpt lat="38.81033" lon="15.23619">
        <ele>4.46</ele>
        <time>2018-04-18T03:12:34Z</time>
      </trkpt>
      <trkpt lat="38.81053" lon="15.23586">
        <ele>3.98</ele>
        <time>2018-04-18T03:12:55Z</time>
      </trkpt>
      <trkpt lat="38.81074" lon="15.2356">
        <ele>4.94</ele>
        <time>2018-04-18T03:13:13Z</time>
      </trkpt>
      <trkpt lat="38.811" lon="15.2354">
        <ele>5.42</ele>
        <time>2018-04-18T03:13:32Z</time>
      </trkpt>
      <trkpt lat="38.8112" lon="15.23518">
        <ele>4.94</ele>
        <time>2018-04-18T03:13:48Z</time>
      </trkpt>
      <trkpt lat="38.81145" lon="15.23491">
        <ele>4.46</ele>
        <time>2018-04-18T03:14:08Z</time>
      </trkpt>
      <trkpt lat="38.81167" lon="15.23468">
        <ele>5.42</ele>
        <time>2018-04-18T03:14:26Z</time>
      </trkpt>
      <trkpt lat="38.81188" lon="15.23443">
        <ele>4.46</ele>
        <time>2018-04-18T03:14:44Z</time>
      </trkpt>
      <trkpt lat="38.81203" lon="15.23407">
        <ele>4.46</ele>
        <time>2018-04-18T03:15:04Z</time>
      </trkpt>
      <trkpt lat="38.81218" lon="15.23373">
        <ele>4.46</ele>
        <time>2018-04-18T03:15:23Z</time>
      </trkpt>
      <trkpt lat="38.81236" lon="15.23332">
        <ele>4.94</ele>
        <time>2018-04-18T03:15:46Z</time>
      </trkpt>
      <trkpt lat="38.81253" lon="15.23288">
        <ele>4.46</ele>
        <time>2018-04-18T03:16:09Z</time>
      </trkpt>
      <trkpt lat="38.81264" lon="15.23251">
        <ele>5.42</ele>
        <time>2018-04-18T03:16:28Z</time>
      </trkpt>
      <trkpt lat="38.81276" lon="15.23215">
        <ele>6.39</ele>
        <time>2018-04-18T03:16:47Z</time>
      </trkpt>
      <trkpt lat="38.8129" lon="15.23178">
        <ele>6.39</ele>
        <time>2018-04-18T03:17:08Z</time>
      </trkpt>
      <trkpt lat="38.81302" lon="15.23149">
        <ele>6.39</ele>
        <time>2018-04-18T03:17:28Z</time>
      </trkpt>
      <trkpt lat="38.81312" lon="15.23124">
        <ele>4.94</ele>
        <time>2018-04-18T03:17:45Z</time>
      </trkpt>
      <trkpt lat="38.81319" lon="15.23097">
        <ele>5.42</ele>
        <time>2018-04-18T03:18:04Z</time>
      </trkpt>
      <trkpt lat="38.81323" lon="15.23084">
        <ele>4.94</ele>
        <time>2018-04-18T03:18:12Z</time>
      </trkpt>
      <trkpt lat="38.8133" lon="15.23063">
        <ele>4.94</ele>
        <time>2018-04-18T03:18:27Z</time>
      </trkpt>
      <trkpt lat="38.81335" lon="15.23045">
        <ele>4.46</ele>
        <time>2018-04-18T03:18:41Z</time>
      </trkpt>
      <trkpt lat="38.81337" lon="15.2304">
        <ele>4.94</ele>
        <time>2018-04-18T03:18:45Z</time>
      </trkpt>
      <trkpt lat="38.81344" lon="15.2302">
        <ele>5.42</ele>
        <time>2018-04-18T03:19:00Z</time>
      </trkpt>
      <trkpt lat="38.81354" lon="15.22985">
        <ele>5.91</ele>
        <time>2018-04-18T03:19:17Z</time>
      </trkpt>
      <trkpt lat="38.81361" lon="15.22943">
        <ele>6.39</ele>
        <time>2018-04-18T03:19:33Z</time>
      </trkpt>
      <trkpt lat="38.81373" lon="15.22896">
        <ele>5.91</ele>
        <time>2018-04-18T03:19:51Z</time>
      </trkpt>
      <trkpt lat="38.81389" lon="15.22847">
        <ele>5.91</ele>
        <time>2018-04-18T03:20:10Z</time>
      </trkpt>
      <trkpt lat="38.814" lon="15.22813">
        <ele>5.91</ele>
        <time>2018-04-18T03:20:23Z</time>
      </trkpt>
      <trkpt lat="38.81412" lon="15.2277">
        <ele>5.91</ele>
        <time>2018-04-18T03:20:39Z</time>
      </trkpt>
      <trkpt lat="38.81424" lon="15.2273">
        <ele>5.91</ele>
        <time>2018-04-18T03:20:54Z</time>
      </trkpt>
      <trkpt lat="38.81436" lon="15.22688">
        <ele>5.91</ele>
        <time>2018-04-18T03:21:10Z</time>
      </trkpt>
      <trkpt lat="38.81452" lon="15.22641">
        <ele>5.91</ele>
        <time>2018-04-18T03:21:28Z</time>
      </trkpt>
      <trkpt lat="38.81463" lon="15.22593">
        <ele>5.42</ele>
        <time>2018-04-18T03:21:46Z</time>
      </trkpt>
      <trkpt lat="38.81477" lon="15.22524">
        <ele>4.94</ele>
        <time>2018-04-18T03:22:11Z</time>
      </trkpt>
      <trkpt lat="38.81484" lon="15.22474">
        <ele>5.91</ele>
        <time>2018-04-18T03:22:29Z</time>
      </trkpt>
      <trkpt lat="38.81493" lon="15.22421">
        <ele>6.87</ele>
        <time>2018-04-18T03:22:48Z</time>
      </trkpt>
      <trkpt lat="38.81497" lon="15.22373">
        <ele>5.91</ele>
        <time>2018-04-18T03:23:05Z</time>
      </trkpt>
      <trkpt lat="38.81505" lon="15.22318">
        <ele>5.91</ele>
        <time>2018-04-18T03:23:24Z</time>
      </trkpt>
      <trkpt lat="38.81511" lon="15.22266">
        <ele>4.94</ele>
        <time>2018-04-18T03:23:42Z</time>
      </trkpt>
      <trkpt lat="38.81517" lon="15.22217">
        <ele>5.42</ele>
        <time>2018-04-18T03:23:59Z</time>
      </trkpt>
      <trkpt lat="38.81523" lon="15.22154">
        <ele>4.46</ele>
        <time>2018-04-18T03:24:21Z</time>
      </trkpt>
      <trkpt lat="38.81527" lon="15.22105">
        <ele>4.94</ele>
        <time>2018-04-18T03:24:38Z</time>
      </trkpt>
      <trkpt lat="38.81529" lon="15.22047">
        <ele>4.94</ele>
        <time>2018-04-18T03:24:58Z</time>
      </trkpt>
      <trkpt lat="38.81533" lon="15.21987">
        <ele>3.98</ele>
        <time>2018-04-18T03:25:18Z</time>
      </trkpt>
      <trkpt lat="38.81534" lon="15.21938">
        <ele>5.42</ele>
        <time>2018-04-18T03:25:34Z</time>
      </trkpt>
      <trkpt lat="38.81531" lon="15.21883">
        <ele>5.91</ele>
        <time>2018-04-18T03:25:51Z</time>
      </trkpt>
      <trkpt lat="38.81522" lon="15.2183">
        <ele>5.42</ele>
        <time>2018-04-18T03:26:07Z</time>
      </trkpt>
      <trkpt lat="38.81519" lon="15.21778">
        <ele>4.94</ele>
        <time>2018-04-18T03:26:22Z</time>
      </trkpt>
      <trkpt lat="38.81514" lon="15.2171">
        <ele>4.94</ele>
        <time>2018-04-18T03:26:42Z</time>
      </trkpt>
      <trkpt lat="38.81513" lon="15.2164">
        <ele>4.94</ele>
        <time>2018-04-18T03:27:02Z</time>
      </trkpt>
      <trkpt lat="38.81507" lon="15.21585">
        <ele>5.42</ele>
        <time>2018-04-18T03:27:18Z</time>
      </trkpt>
      <trkpt lat="38.81497" lon="15.21524">
        <ele>4.94</ele>
        <time>2018-04-18T03:27:36Z</time>
      </trkpt>
      <trkpt lat="38.8149" lon="15.21469">
        <ele>5.42</ele>
        <time>2018-04-18T03:27:52Z</time>
      </trkpt>
      <trkpt lat="38.81481" lon="15.21411">
        <ele>4.94</ele>
        <time>2018-04-18T03:28:09Z</time>
      </trkpt>
      <trkpt lat="38.8147" lon="15.21358">
        <ele>3.98</ele>
        <time>2018-04-18T03:28:25Z</time>
      </trkpt>
      <trkpt lat="38.81455" lon="15.21302">
        <ele>4.46</ele>
        <time>2018-04-18T03:28:42Z</time>
      </trkpt>
      <trkpt lat="38.8144" lon="15.21253">
        <ele>4.94</ele>
        <time>2018-04-18T03:28:59Z</time>
      </trkpt>
      <trkpt lat="38.81425" lon="15.212">
        <ele>5.42</ele>
        <time>2018-04-18T03:29:19Z</time>
      </trkpt>
      <trkpt lat="38.81413" lon="15.21159">
        <ele>4.94</ele>
        <time>2018-04-18T03:29:35Z</time>
      </trkpt>
      <trkpt lat="38.81394" lon="15.2111">
        <ele>4.94</ele>
        <time>2018-04-18T03:29:56Z</time>
      </trkpt>
      <trkpt lat="38.81386" lon="15.21073">
        <ele>3.98</ele>
        <time>2018-04-18T03:30:15Z</time>
      </trkpt>
      <trkpt lat="38.81378" lon="15.21041">
        <ele>4.94</ele>
        <time>2018-04-18T03:30:34Z</time>
      </trkpt>
      <trkpt lat="38.81368" lon="15.21015">
        <ele>4.94</ele>
        <time>2018-04-18T03:30:53Z</time>
      </trkpt>
      <trkpt lat="38.8136" lon="15.20987">
        <ele>3.98</ele>
        <time>2018-04-18T03:31:12Z</time>
      </trkpt>
      <trkpt lat="38.81352" lon="15.20962">
        <ele>4.94</ele>
        <time>2018-04-18T03:31:29Z</time>
      </trkpt>
      <trkpt lat="38.81345" lon="15.20939">
        <ele>3.98</ele>
        <time>2018-04-18T03:31:45Z</time>
      </trkpt>
      <trkpt lat="38.81344" lon="15.20933">
        <ele>3.98</ele>
        <time>2018-04-18T03:31:49Z</time>
      </trkpt>
      <trkpt lat="38.81343" lon="15.20929">
        <ele>3.98</ele>
        <time>2018-04-18T03:31:52Z</time>
      </trkpt>
      <trkpt lat="38.81335" lon="15.20914">
        <ele>5.42</ele>
        <time>2018-04-18T03:32:03Z</time>
      </trkpt>
      <trkpt lat="38.81334" lon="15.20911">
        <ele>5.91</ele>
        <time>2018-04-18T03:32:05Z</time>
      </trkpt>
      <trkpt lat="38.81327" lon="15.20881">
        <ele>3.98</ele>
        <time>2018-04-18T03:32:26Z</time>
      </trkpt>
      <trkpt lat="38.81326" lon="15.20876">
        <ele>3.98</ele>
        <time>2018-04-18T03:32:29Z</time>
      </trkpt>
      <trkpt lat="38.81321" lon="15.20854">
        <ele>4.94</ele>
        <time>2018-04-18T03:32:47Z</time>
      </trkpt>
      <trkpt lat="38.81316" lon="15.20836">
        <ele>4.94</ele>
        <time>2018-04-18T03:33:04Z</time>
      </trkpt>
      <trkpt lat="38.81311" lon="15.20822">
        <ele>4.94</ele>
        <time>2018-04-18T03:33:21Z</time>
      </trkpt>
      <trkpt lat="38.81307" lon="15.20815">
        <ele>5.42</ele>
        <time>2018-04-18T03:33:32Z</time>
      </trkpt>
      <trkpt lat="38.81302" lon="15.20804">
        <ele>5.91</ele>
        <time>2018-04-18T03:33:51Z</time>
      </trkpt>
      <trkpt lat="38.81299" lon="15.20792">
        <ele>3.5</ele>
        <time>2018-04-18T03:34:09Z</time>
      </trkpt>
      <trkpt lat="38.81294" lon="15.20781">
        <ele>4.46</ele>
        <time>2018-04-18T03:34:29Z</time>
      </trkpt>
      <trkpt lat="38.81292" lon="15.20772">
        <ele>3.98</ele>
        <time>2018-04-18T03:34:48Z</time>
      </trkpt>
      <trkpt lat="38.81288" lon="15.20763">
        <ele>5.42</ele>
        <time>2018-04-18T03:35:07Z</time>
      </trkpt>
      <trkpt lat="38.81284" lon="15.20754">
        <ele>3.5</ele>
        <time>2018-04-18T03:35:29Z</time>
      </trkpt>
      <trkpt lat="38.8128" lon="15.20746">
        <ele>4.94</ele>
        <time>2018-04-18T03:35:49Z</time>
      </trkpt>
      <trkpt lat="38.81279" lon="15.20739">
        <ele>3.02</ele>
        <time>2018-04-18T03:36:07Z</time>
      </trkpt>
      <trkpt lat="38.81275" lon="15.20731">
        <ele>4.94</ele>
        <time>2018-04-18T03:36:25Z</time>
      </trkpt>
      <trkpt lat="38.81274" lon="15.20724">
        <ele>4.46</ele>
        <time>2018-04-18T03:36:42Z</time>
      </trkpt>
      <trkpt lat="38.8127" lon="15.20715">
        <ele>3.5</ele>
        <time>2018-04-18T03:37:00Z</time>
      </trkpt>
      <trkpt lat="38.81266" lon="15.20702">
        <ele>3.02</ele>
        <time>2018-04-18T03:37:19Z</time>
      </trkpt>
      <trkpt lat="38.81262" lon="15.2069">
        <ele>3.98</ele>
        <time>2018-04-18T03:37:37Z</time>
      </trkpt>
      <trkpt lat="38.81257" lon="15.20672">
        <ele>5.42</ele>
        <time>2018-04-18T03:37:55Z</time>
      </trkpt>
      <trkpt lat="38.81257" lon="15.20669">
        <ele>5.42</ele>
        <time>2018-04-18T03:37:59Z</time>
      </trkpt>
      <trkpt lat="38.81256" lon="15.20666">
        <ele>4.94</ele>
        <time>2018-04-18T03:38:03Z</time>
      </trkpt>
      <trkpt lat="38.81253" lon="15.20655">
        <ele>4.46</ele>
        <time>2018-04-18T03:38:16Z</time>
      </trkpt>
      <trkpt lat="38.81248" lon="15.20644">
        <ele>2.54</ele>
        <time>2018-04-18T03:38:28Z</time>
      </trkpt>
      <trkpt lat="38.81246" lon="15.20638">
        <ele>3.02</ele>
        <time>2018-04-18T03:38:45Z</time>
      </trkpt>
      <trkpt lat="38.81244" lon="15.20633">
        <ele>3.5</ele>
        <time>2018-04-18T03:39:00Z</time>
      </trkpt>
      <trkpt lat="38.81241" lon="15.20627">
        <ele>3.98</ele>
        <time>2018-04-18T03:39:14Z</time>
      </trkpt>
      <trkpt lat="38.81238" lon="15.2062">
        <ele>4.94</ele>
        <time>2018-04-18T03:39:29Z</time>
      </trkpt>
      <trkpt lat="38.81235" lon="15.20611">
        <ele>5.42</ele>
        <time>2018-04-18T03:39:45Z</time>
      </trkpt>
      <trkpt lat="38.81233" lon="15.20604">
        <ele>4.94</ele>
        <time>2018-04-18T03:39:58Z</time>
      </trkpt>
      <trkpt lat="38.8123" lon="15.20596">
        <ele>4.94</ele>
        <time>2018-04-18T03:40:15Z</time>
      </trkpt>
      <trkpt lat="38.81227" lon="15.20589">
        <ele>4.94</ele>
        <time>2018-04-18T03:40:31Z</time>
      </trkpt>
      <trkpt lat="38.81223" lon="15.2058">
        <ele>4.46</ele>
        <time>2018-04-18T03:40:51Z</time>
      </trkpt>
      <trkpt lat="38.8122" lon="15.20572">
        <ele>4.46</ele>
        <time>2018-04-18T03:41:08Z</time>
      </trkpt>
      <trkpt lat="38.81217" lon="15.20564">
        <ele>3.98</ele>
        <time>2018-04-18T03:41:26Z</time>
      </trkpt>
      <trkpt lat="38.81214" lon="15.20554">
        <ele>4.94</ele>
        <time>2018-04-18T03:41:45Z</time>
      </trkpt>
      <trkpt lat="38.81211" lon="15.20546">
        <ele>5.42</ele>
        <time>2018-04-18T03:42:04Z</time>
      </trkpt>
      <trkpt lat="38.81208" lon="15.20537">
        <ele>3.5</ele>
        <time>2018-04-18T03:42:23Z</time>
      </trkpt>
      <trkpt lat="38.81206" lon="15.20529">
        <ele>3.5</ele>
        <time>2018-04-18T03:42:43Z</time>
      </trkpt>
      <trkpt lat="38.81204" lon="15.2052">
        <ele>3.02</ele>
        <time>2018-04-18T03:43:02Z</time>
      </trkpt>
      <trkpt lat="38.812" lon="15.20512">
        <ele>3.5</ele>
        <time>2018-04-18T03:43:21Z</time>
      </trkpt>
      <trkpt lat="38.81197" lon="15.20506">
        <ele>3.5</ele>
        <time>2018-04-18T03:43:36Z</time>
      </trkpt>
      <trkpt lat="38.81195" lon="15.20496">
        <ele>3.5</ele>
        <time>2018-04-18T03:43:56Z</time>
      </trkpt>
      <trkpt lat="38.81194" lon="15.20489">
        <ele>3.98</ele>
        <time>2018-04-18T03:44:16Z</time>
      </trkpt>
      <trkpt lat="38.81192" lon="15.20478">
        <ele>3.98</ele>
        <time>2018-04-18T03:44:35Z</time>
      </trkpt>
      <trkpt lat="38.81188" lon="15.20469">
        <ele>4.94</ele>
        <time>2018-04-18T03:44:56Z</time>
      </trkpt>
      <trkpt lat="38.81186" lon="15.20461">
        <ele>5.42</ele>
        <time>2018-04-18T03:45:11Z</time>
      </trkpt>
      <trkpt lat="38.81183" lon="15.20456">
        <ele>4.94</ele>
        <time>2018-04-18T03:45:26Z</time>
      </trkpt>
      <trkpt lat="38.81181" lon="15.20449">
        <ele>3.5</ele>
        <time>2018-04-18T03:45:41Z</time>
      </trkpt>
      <trkpt lat="38.8118" lon="15.2044">
        <ele>3.02</ele>
        <time>2018-04-18T03:45:57Z</time>
      </trkpt>
      <trkpt lat="38.81178" lon="15.20435">
        <ele>3.5</ele>
        <time>2018-04-18T03:46:12Z</time>
      </trkpt>
      <trkpt lat="38.81176" lon="15.20429">
        <ele>3.98</ele>
        <time>2018-04-18T03:46:24Z</time>
      </trkpt>
      <trkpt lat="38.81175" lon="15.20423">
        <ele>3.98</ele>
        <time>2018-04-18T03:46:41Z</time>
      </trkpt>
      <trkpt lat="38.81172" lon="15.20412">
        <ele>4.94</ele>
        <time>2018-04-18T03:47:03Z</time>
      </trkpt>
      <trkpt lat="38.81169" lon="15.20406">
        <ele>4.94</ele>
        <time>2018-04-18T03:47:19Z</time>
      </trkpt>
      <trkpt lat="38.81167" lon="15.204">
        <ele>4.94</ele>
        <time>2018-04-18T03:47:34Z</time>
      </trkpt>
      <trkpt lat="38.81165" lon="15.20396">
        <ele>4.94</ele>
        <time>2018-04-18T03:47:47Z</time>
      </trkpt>
      <trkpt lat="38.81163" lon="15.20391">
        <ele>4.94</ele>
        <time>2018-04-18T03:48:01Z</time>
      </trkpt>
      <trkpt lat="38.8116" lon="15.20383">
        <ele>4.46</ele>
        <time>2018-04-18T03:48:19Z</time>
      </trkpt>
      <trkpt lat="38.81159" lon="15.20377">
        <ele>3.5</ele>
        <time>2018-04-18T03:48:36Z</time>
      </trkpt>
      <trkpt lat="38.81157" lon="15.20372">
        <ele>3.5</ele>
        <time>2018-04-18T03:48:51Z</time>
      </trkpt>
      <trkpt lat="38.81154" lon="15.20365">
        <ele>3.98</ele>
        <time>2018-04-18T03:49:07Z</time>
      </trkpt>
      <trkpt lat="38.81152" lon="15.20357">
        <ele>5.42</ele>
        <time>2018-04-18T03:49:26Z</time>
      </trkpt>
      <trkpt lat="38.8115" lon="15.20348">
        <ele>5.91</ele>
        <time>2018-04-18T03:49:45Z</time>
      </trkpt>
      <trkpt lat="38.81148" lon="15.20341">
        <ele>5.91</ele>
        <time>2018-04-18T03:50:01Z</time>
      </trkpt>
      <trkpt lat="38.81146" lon="15.20333">
        <ele>7.35</ele>
        <time>2018-04-18T03:50:17Z</time>
      </trkpt>
      <trkpt lat="38.81144" lon="15.20328">
        <ele>6.87</ele>
        <time>2018-04-18T03:50:36Z</time>
      </trkpt>
      <trkpt lat="38.81141" lon="15.20321">
        <ele>6.39</ele>
        <time>2018-04-18T03:50:51Z</time>
      </trkpt>
      <trkpt lat="38.81138" lon="15.20315">
        <ele>6.87</ele>
        <time>2018-04-18T03:51:07Z</time>
      </trkpt>
      <trkpt lat="38.81135" lon="15.20308">
        <ele>6.87</ele>
        <time>2018-04-18T03:51:26Z</time>
      </trkpt>
      <trkpt lat="38.81132" lon="15.20302">
        <ele>6.39</ele>
        <time>2018-04-18T03:51:43Z</time>
      </trkpt>
      <trkpt lat="38.8113" lon="15.20296">
        <ele>5.91</ele>
        <time>2018-04-18T03:51:58Z</time>
      </trkpt>
      <trkpt lat="38.81126" lon="15.20289">
        <ele>5.91</ele>
        <time>2018-04-18T03:52:13Z</time>
      </trkpt>
      <trkpt lat="38.81123" lon="15.20281">
        <ele>5.91</ele>
        <time>2018-04-18T03:52:30Z</time>
      </trkpt>
      <trkpt lat="38.81123" lon="15.2028">
        <ele>5.91</ele>
        <time>2018-04-18T03:52:45Z</time>
      </trkpt>
      <trkpt lat="38.81121" lon="15.20276">
        <ele>6.39</ele>
        <time>2018-04-18T03:53:01Z</time>
      </trkpt>
      <trkpt lat="38.8112" lon="15.20273">
        <ele>6.39</ele>
        <time>2018-04-18T03:53:17Z</time>
      </trkpt>
      <trkpt lat="38.81118" lon="15.20268">
        <ele>6.39</ele>
        <time>2018-04-18T03:53:35Z</time>
      </trkpt>
      <trkpt lat="38.81106" lon="15.20242">
        <ele>7.83</ele>
        <time>2018-04-18T03:53:53Z</time>
      </trkpt>
      <trkpt lat="38.81099" lon="15.20226">
        <ele>8.79</ele>
        <time>2018-04-18T03:54:08Z</time>
      </trkpt>
      <trkpt lat="38.81093" lon="15.20215">
        <ele>8.79</ele>
        <time>2018-04-18T03:54:21Z</time>
      </trkpt>
      <trkpt lat="38.81087" lon="15.20202">
        <ele>7.83</ele>
        <time>2018-04-18T03:54:41Z</time>
      </trkpt>
      <trkpt lat="38.81083" lon="15.20192">
        <ele>6.87</ele>
        <time>2018-04-18T03:54:57Z</time>
      </trkpt>
      <trkpt lat="38.8108" lon="15.20185">
        <ele>6.87</ele>
        <time>2018-04-18T03:55:11Z</time>
      </trkpt>
      <trkpt lat="38.81078" lon="15.20182">
        <ele>6.87</ele>
        <time>2018-04-18T03:55:26Z</time>
      </trkpt>
      <trkpt lat="38.81076" lon="15.20177">
        <ele>6.87</ele>
        <time>2018-04-18T03:55:42Z</time>
      </trkpt>
      <trkpt lat="38.81074" lon="15.20172">
        <ele>5.91</ele>
        <time>2018-04-18T03:55:59Z</time>
      </trkpt>
      <trkpt lat="38.81071" lon="15.20166">
        <ele>6.87</ele>
        <time>2018-04-18T03:56:17Z</time>
      </trkpt>
      <trkpt lat="38.81068" lon="15.20159">
        <ele>6.87</ele>
        <time>2018-04-18T03:56:34Z</time>
      </trkpt>
      <trkpt lat="38.81063" lon="15.20153">
        <ele>5.91</ele>
        <time>2018-04-18T03:56:50Z</time>
      </trkpt>
      <trkpt lat="38.81058" lon="15.20146">
        <ele>6.39</ele>
        <time>2018-04-18T03:57:03Z</time>
      </trkpt>
      <trkpt lat="38.81054" lon="15.2014">
        <ele>7.35</ele>
        <time>2018-04-18T03:57:20Z</time>
      </trkpt>
      <trkpt lat="38.8105" lon="15.20136">
        <ele>7.83</ele>
        <time>2018-04-18T03:57:37Z</time>
      </trkpt>
      <trkpt lat="38.81048" lon="15.20132">
        <ele>8.79</ele>
        <time>2018-04-18T03:57:50Z</time>
      </trkpt>
      <trkpt lat="38.81045" lon="15.20129">
        <ele>9.27</ele>
        <time>2018-04-18T03:58:04Z</time>
      </trkpt>
      <trkpt lat="38.81042" lon="15.20124">
        <ele>9.75</ele>
        <time>2018-04-18T03:58:21Z</time>
      </trkpt>
      <trkpt lat="38.8104" lon="15.20121">
        <ele>10.23</ele>
        <time>2018-04-18T03:58:34Z</time>
      </trkpt>
      <trkpt lat="38.81037" lon="15.20115">
        <ele>10.23</ele>
        <time>2018-04-18T03:58:53Z</time>
      </trkpt>
      <trkpt lat="38.81032" lon="15.2011">
        <ele>8.31</ele>
        <time>2018-04-18T03:59:07Z</time>
      </trkpt>
      <trkpt lat="38.81029" lon="15.20107">
        <ele>7.35</ele>
        <time>2018-04-18T03:59:19Z</time>
      </trkpt>
      <trkpt lat="38.81025" lon="15.20098">
        <ele>5.91</ele>
        <time>2018-04-18T03:59:27Z</time>
      </trkpt>
      <trkpt lat="38.81009" lon="15.20068">
        <ele>2.54</ele>
        <time>2018-04-18T03:59:40Z</time>
      </trkpt>
      <trkpt lat="38.80988" lon="15.20034">
        <ele>3.98</ele>
        <time>2018-04-18T04:00:00Z</time>
      </trkpt>
      <trkpt lat="38.80968" lon="15.20006">
        <ele>6.39</ele>
        <time>2018-04-18T04:00:18Z</time>
      </trkpt>
      <trkpt lat="38.80944" lon="15.19977">
        <ele>6.87</ele>
        <time>2018-04-18T04:00:36Z</time>
      </trkpt>
      <trkpt lat="38.80916" lon="15.19944">
        <ele>6.39</ele>
        <time>2018-04-18T04:00:58Z</time>
      </trkpt>
      <trkpt lat="38.80893" lon="15.19918">
        <ele>4.94</ele>
        <time>2018-04-18T04:01:15Z</time>
      </trkpt>
      <trkpt lat="38.80867" lon="15.19887">
        <ele>4.46</ele>
        <time>2018-04-18T04:01:35Z</time>
      </trkpt>
      <trkpt lat="38.80849" lon="15.19863">
        <ele>5.42</ele>
        <time>2018-04-18T04:01:50Z</time>
      </trkpt>
      <trkpt lat="38.80826" lon="15.19834">
        <ele>5.42</ele>
        <time>2018-04-18T04:02:08Z</time>
      </trkpt>
      <trkpt lat="38.80807" lon="15.19814">
        <ele>5.42</ele>
        <time>2018-04-18T04:02:22Z</time>
      </trkpt>
      <trkpt lat="38.80781" lon="15.19785">
        <ele>5.42</ele>
        <time>2018-04-18T04:02:41Z</time>
      </trkpt>
      <trkpt lat="38.80757" lon="15.19758">
        <ele>4.94</ele>
        <time>2018-04-18T04:02:59Z</time>
      </trkpt>
      <trkpt lat="38.80735" lon="15.19733">
        <ele>4.94</ele>
        <time>2018-04-18T04:03:15Z</time>
      </trkpt>
      <trkpt lat="38.80719" lon="15.19714">
        <ele>5.91</ele>
        <time>2018-04-18T04:03:27Z</time>
      </trkpt>
      <trkpt lat="38.80698" lon="15.19692">
        <ele>4.94</ele>
        <time>2018-04-18T04:03:42Z</time>
      </trkpt>
      <trkpt lat="38.80676" lon="15.19666">
        <ele>5.42</ele>
        <time>2018-04-18T04:03:58Z</time>
      </trkpt>
      <trkpt lat="38.80654" lon="15.19641">
        <ele>4.94</ele>
        <time>2018-04-18T04:04:15Z</time>
      </trkpt>
      <trkpt lat="38.80636" lon="15.1962">
        <ele>5.42</ele>
        <time>2018-04-18T04:04:31Z</time>
      </trkpt>
      <trkpt lat="38.80615" lon="15.19594">
        <ele>4.46</ele>
        <time>2018-04-18T04:04:51Z</time>
      </trkpt>
      <trkpt lat="38.80593" lon="15.1957">
        <ele>3.5</ele>
        <time>2018-04-18T04:05:11Z</time>
      </trkpt>
      <trkpt lat="38.80575" lon="15.19549">
        <ele>3.5</ele>
        <time>2018-04-18T04:05:28Z</time>
      </trkpt>
      <trkpt lat="38.80557" lon="15.19528">
        <ele>3.98</ele>
        <time>2018-04-18T04:05:45Z</time>
      </trkpt>
      <trkpt lat="38.8055" lon="15.19519">
        <ele>3.98</ele>
        <time>2018-04-18T04:05:52Z</time>
      </trkpt>
      <trkpt lat="38.80528" lon="15.19495">
        <ele>3.98</ele>
        <time>2018-04-18T04:06:12Z</time>
      </trkpt>
      <trkpt lat="38.80511" lon="15.19475">
        <ele>4.46</ele>
        <time>2018-04-18T04:06:29Z</time>
      </trkpt>
      <trkpt lat="38.80506" lon="15.19471">
        <ele>4.94</ele>
        <time>2018-04-18T04:06:33Z</time>
      </trkpt>
      <trkpt lat="38.80489" lon="15.19451">
        <ele>6.39</ele>
        <time>2018-04-18T04:06:50Z</time>
      </trkpt>
      <trkpt lat="38.80478" lon="15.19438">
        <ele>6.39</ele>
        <time>2018-04-18T04:07:00Z</time>
      </trkpt>
      <trkpt lat="38.80459" lon="15.19416">
        <ele>5.91</ele>
        <time>2018-04-18T04:07:18Z</time>
      </trkpt>
      <trkpt lat="38.8045" lon="15.19406">
        <ele>5.91</ele>
        <time>2018-04-18T04:07:26Z</time>
      </trkpt>
      <trkpt lat="38.80434" lon="15.19385">
        <ele>5.91</ele>
        <time>2018-04-18T04:07:43Z</time>
      </trkpt>
      <trkpt lat="38.80415" lon="15.19361">
        <ele>3.98</ele>
        <time>2018-04-18T04:08:02Z</time>
      </trkpt>
      <trkpt lat="38.80399" lon="15.19342">
        <ele>3.5</ele>
        <time>2018-04-18T04:08:18Z</time>
      </trkpt>
      <trkpt lat="38.80381" lon="15.19321">
        <ele>3.98</ele>
        <time>2018-04-18T04:08:36Z</time>
      </trkpt>
      <trkpt lat="38.80366" lon="15.19304">
        <ele>4.94</ele>
        <time>2018-04-18T04:08:50Z</time>
      </trkpt>
      <trkpt lat="38.80354" lon="15.19289">
        <ele>4.46</ele>
        <time>2018-04-18T04:09:02Z</time>
      </trkpt>
      <trkpt lat="38.80348" lon="15.19282">
        <ele>3.5</ele>
        <time>2018-04-18T04:09:08Z</time>
      </trkpt>
      <trkpt lat="38.80341" lon="15.19273">
        <ele>3.5</ele>
        <time>2018-04-18T04:09:15Z</time>
      </trkpt>
      <trkpt lat="38.80323" lon="15.19253">
        <ele>3.98</ele>
        <time>2018-04-18T04:09:32Z</time>
      </trkpt>
      <trkpt lat="38.80305" lon="15.19231">
        <ele>4.46</ele>
        <time>2018-04-18T04:09:50Z</time>
      </trkpt>
      <trkpt lat="38.80289" lon="15.19211">
        <ele>3.98</ele>
        <time>2018-04-18T04:10:07Z</time>
      </trkpt>
      <trkpt lat="38.80274" lon="15.19192">
        <ele>3.5</ele>
        <time>2018-04-18T04:10:23Z</time>
      </trkpt>
      <trkpt lat="38.80259" lon="15.19174">
        <ele>4.46</ele>
        <time>2018-04-18T04:10:38Z</time>
      </trkpt>
      <trkpt lat="38.80253" lon="15.19167">
        <ele>4.46</ele>
        <time>2018-04-18T04:10:44Z</time>
      </trkpt>
      <trkpt lat="38.80237" lon="15.19149">
        <ele>4.46</ele>
        <time>2018-04-18T04:10:59Z</time>
      </trkpt>
      <trkpt lat="38.8023" lon="15.1914">
        <ele>4.46</ele>
        <time>2018-04-18T04:11:06Z</time>
      </trkpt>
      <trkpt lat="38.80226" lon="15.19135">
        <ele>3.98</ele>
        <time>2018-04-18T04:11:10Z</time>
      </trkpt>
      <trkpt lat="38.80204" lon="15.19109">
        <ele>3.02</ele>
        <time>2018-04-18T04:11:32Z</time>
      </trkpt>
      <trkpt lat="38.80188" lon="15.19089">
        <ele>3.5</ele>
        <time>2018-04-18T04:11:48Z</time>
      </trkpt>
      <trkpt lat="38.80186" lon="15.19087">
        <ele>3.02</ele>
        <time>2018-04-18T04:11:50Z</time>
      </trkpt>
      <trkpt lat="38.80179" lon="15.19079">
        <ele>2.54</ele>
        <time>2018-04-18T04:11:57Z</time>
      </trkpt>
      <trkpt lat="38.80157" lon="15.1905">
        <ele>1.58</ele>
        <time>2018-04-18T04:12:19Z</time>
      </trkpt>
      <trkpt lat="38.80139" lon="15.19028">
        <ele>3.02</ele>
        <time>2018-04-18T04:12:37Z</time>
      </trkpt>
      <trkpt lat="38.80124" lon="15.1901">
        <ele>3.5</ele>
        <time>2018-04-18T04:12:52Z</time>
      </trkpt>
      <trkpt lat="38.80107" lon="15.18985">
        <ele>3.98</ele>
        <time>2018-04-18T04:13:11Z</time>
      </trkpt>
      <trkpt lat="38.80097" lon="15.18971">
        <ele>4.94</ele>
        <time>2018-04-18T04:13:22Z</time>
      </trkpt>
      <trkpt lat="38.80087" lon="15.18943">
        <ele>5.42</ele>
        <time>2018-04-18T04:13:39Z</time>
      </trkpt>
      <trkpt lat="38.80079" lon="15.18915">
        <ele>4.94</ele>
        <time>2018-04-18T04:13:56Z</time>
      </trkpt>
      <trkpt lat="38.80071" lon="15.18888">
        <ele>4.94</ele>
        <time>2018-04-18T04:14:12Z</time>
      </trkpt>
      <trkpt lat="38.8007" lon="15.18886">
        <ele>4.94</ele>
        <time>2018-04-18T04:14:13Z</time>
      </trkpt>
      <trkpt lat="38.80067" lon="15.18877">
        <ele>4.46</ele>
        <time>2018-04-18T04:14:17Z</time>
      </trkpt>
      <trkpt lat="38.8006" lon="15.18849">
        <ele>4.46</ele>
        <time>2018-04-18T04:14:33Z</time>
      </trkpt>
      <trkpt lat="38.80056" lon="15.18838">
        <ele>4.46</ele>
        <time>2018-04-18T04:14:40Z</time>
      </trkpt>
      <trkpt lat="38.80054" lon="15.18833">
        <ele>3.5</ele>
        <time>2018-04-18T04:14:44Z</time>
      </trkpt>
      <trkpt lat="38.80042" lon="15.18801">
        <ele>3.02</ele>
        <time>2018-04-18T04:15:05Z</time>
      </trkpt>
      <trkpt lat="38.80035" lon="15.18777">
        <ele>3.02</ele>
        <time>2018-04-18T04:15:17Z</time>
      </trkpt>
      <trkpt lat="38.80032" lon="15.18768">
        <ele>2.06</ele>
        <time>2018-04-18T04:15:23Z</time>
      </trkpt>
      <trkpt lat="38.80023" lon="15.18741">
        <ele>2.54</ele>
        <time>2018-04-18T04:15:40Z</time>
      </trkpt>
      <trkpt lat="38.80013" lon="15.18714">
        <ele>2.54</ele>
        <time>2018-04-18T04:15:57Z</time>
      </trkpt>
      <trkpt lat="38.80001" lon="15.18683">
        <ele>1.58</ele>
        <time>2018-04-18T04:16:17Z</time>
      </trkpt>
      <trkpt lat="38.7999" lon="15.18651">
        <ele>2.06</ele>
        <time>2018-04-18T04:16:36Z</time>
      </trkpt>
      <trkpt lat="38.79985" lon="15.18639">
        <ele>2.54</ele>
        <time>2018-04-18T04:16:45Z</time>
      </trkpt>
      <trkpt lat="38.79977" lon="15.18614">
        <ele>3.02</ele>
        <time>2018-04-18T04:17:00Z</time>
      </trkpt>
      <trkpt lat="38.79975" lon="15.18609">
        <ele>3.5</ele>
        <time>2018-04-18T04:17:03Z</time>
      </trkpt>
      <trkpt lat="38.79966" lon="15.18585">
        <ele>1.58</ele>
        <time>2018-04-18T04:17:18Z</time>
      </trkpt>
      <trkpt lat="38.79958" lon="15.18567">
        <ele>1.58</ele>
        <time>2018-04-18T04:17:32Z</time>
      </trkpt>
      <trkpt lat="38.79944" lon="15.18542">
        <ele>2.54</ele>
        <time>2018-04-18T04:17:50Z</time>
      </trkpt>
      <trkpt lat="38.79931" lon="15.18519">
        <ele>2.54</ele>
        <time>2018-04-18T04:18:06Z</time>
      </trkpt>
      <trkpt lat="38.79912" lon="15.18495">
        <ele>2.06</ele>
        <time>2018-04-18T04:18:26Z</time>
      </trkpt>
      <trkpt lat="38.79896" lon="15.18474">
        <ele>3.02</ele>
        <time>2018-04-18T04:18:43Z</time>
      </trkpt>
      <trkpt lat="38.79882" lon="15.18454">
        <ele>2.06</ele>
        <time>2018-04-18T04:18:58Z</time>
      </trkpt>
      <trkpt lat="38.79867" lon="15.18434">
        <ele>3.02</ele>
        <time>2018-04-18T04:19:14Z</time>
      </trkpt>
      <trkpt lat="38.79849" lon="15.18411">
        <ele>3.5</ele>
        <time>2018-04-18T04:19:33Z</time>
      </trkpt>
      <trkpt lat="38.79828" lon="15.18384">
        <ele>3.5</ele>
        <time>2018-04-18T04:19:55Z</time>
      </trkpt>
      <trkpt lat="38.7981" lon="15.18359">
        <ele>3.02</ele>
        <time>2018-04-18T04:20:14Z</time>
      </trkpt>
      <trkpt lat="38.79791" lon="15.18333">
        <ele>2.54</ele>
        <time>2018-04-18T04:20:34Z</time>
      </trkpt>
      <trkpt lat="38.79774" lon="15.1831">
        <ele>3.5</ele>
        <time>2018-04-18T04:20:52Z</time>
      </trkpt>
      <trkpt lat="38.79757" lon="15.18286">
        <ele>3.98</ele>
        <time>2018-04-18T04:21:10Z</time>
      </trkpt>
      <trkpt lat="38.7974" lon="15.18264">
        <ele>3.5</ele>
        <time>2018-04-18T04:21:27Z</time>
      </trkpt>
      <trkpt lat="38.79724" lon="15.18242">
        <ele>3.02</ele>
        <time>2018-04-18T04:21:44Z</time>
      </trkpt>
      <trkpt lat="38.79707" lon="15.18224">
        <ele>3.02</ele>
        <time>2018-04-18T04:22:01Z</time>
      </trkpt>
      <trkpt lat="38.79689" lon="15.18207">
        <ele>3.5</ele>
        <time>2018-04-18T04:22:17Z</time>
      </trkpt>
      <trkpt lat="38.79672" lon="15.1819">
        <ele>3.5</ele>
        <time>2018-04-18T04:22:33Z</time>
      </trkpt>
      <trkpt lat="38.79655" lon="15.18172">
        <ele>2.06</ele>
        <time>2018-04-18T04:22:48Z</time>
      </trkpt>
      <trkpt lat="38.79637" lon="15.18156">
        <ele>3.02</ele>
        <time>2018-04-18T04:23:03Z</time>
      </trkpt>
      <trkpt lat="38.79611" lon="15.18134">
        <ele>4.46</ele>
        <time>2018-04-18T04:23:21Z</time>
      </trkpt>
      <trkpt lat="38.7959" lon="15.18114">
        <ele>3.98</ele>
        <time>2018-04-18T04:23:36Z</time>
      </trkpt>
      <trkpt lat="38.79575" lon="15.18097">
        <ele>2.54</ele>
        <time>2018-04-18T04:23:48Z</time>
      </trkpt>
      <trkpt lat="38.79557" lon="15.18081">
        <ele>3.02</ele>
        <time>2018-04-18T04:24:00Z</time>
      </trkpt>
      <trkpt lat="38.79534" lon="15.18061">
        <ele>3.02</ele>
        <time>2018-04-18T04:24:17Z</time>
      </trkpt>
      <trkpt lat="38.79511" lon="15.18037">
        <ele>3.98</ele>
        <time>2018-04-18T04:24:35Z</time>
      </trkpt>
      <trkpt lat="38.79494" lon="15.18019">
        <ele>3.02</ele>
        <time>2018-04-18T04:24:49Z</time>
      </trkpt>
      <trkpt lat="38.79478" lon="15.18003">
        <ele>2.54</ele>
        <time>2018-04-18T04:25:01Z</time>
      </trkpt>
      <trkpt lat="38.79457" lon="15.17982">
        <ele>3.5</ele>
        <time>2018-04-18T04:25:16Z</time>
      </trkpt>
      <trkpt lat="38.79439" lon="15.17964">
        <ele>3.5</ele>
        <time>2018-04-18T04:25:31Z</time>
      </trkpt>
      <trkpt lat="38.79421" lon="15.17947">
        <ele>3.02</ele>
        <time>2018-04-18T04:25:45Z</time>
      </trkpt>
      <trkpt lat="38.79405" lon="15.1793">
        <ele>3.5</ele>
        <time>2018-04-18T04:25:58Z</time>
      </trkpt>
      <trkpt lat="38.79384" lon="15.17909">
        <ele>4.94</ele>
        <time>2018-04-18T04:26:13Z</time>
      </trkpt>
      <trkpt lat="38.79364" lon="15.17889">
        <ele>3.5</ele>
        <time>2018-04-18T04:26:28Z</time>
      </trkpt>
      <trkpt lat="38.79345" lon="15.17871">
        <ele>3.5</ele>
        <time>2018-04-18T04:26:42Z</time>
      </trkpt>
      <trkpt lat="38.79328" lon="15.17854">
        <ele>3.98</ele>
        <time>2018-04-18T04:26:55Z</time>
      </trkpt>
      <trkpt lat="38.79309" lon="15.17834">
        <ele>3.02</ele>
        <time>2018-04-18T04:27:08Z</time>
      </trkpt>
      <trkpt lat="38.79289" lon="15.17814">
        <ele>0.62</ele>
        <time>2018-04-18T04:27:23Z</time>
      </trkpt>
      <trkpt lat="38.79263" lon="15.17787">
        <ele>2.06</ele>
        <time>2018-04-18T04:27:42Z</time>
      </trkpt>
      <trkpt lat="38.79249" lon="15.17771">
        <ele>2.54</ele>
        <time>2018-04-18T04:27:54Z</time>
      </trkpt>
      <trkpt lat="38.79229" lon="15.17753">
        <ele>3.02</ele>
        <time>2018-04-18T04:28:09Z</time>
      </trkpt>
      <trkpt lat="38.79209" lon="15.17735">
        <ele>3.5</ele>
        <time>2018-04-18T04:28:23Z</time>
      </trkpt>
      <trkpt lat="38.79188" lon="15.17712">
        <ele>3.98</ele>
        <time>2018-04-18T04:28:39Z</time>
      </trkpt>
      <trkpt lat="38.79167" lon="15.17696">
        <ele>3.5</ele>
        <time>2018-04-18T04:28:53Z</time>
      </trkpt>
      <trkpt lat="38.79147" lon="15.17681">
        <ele>4.46</ele>
        <time>2018-04-18T04:29:06Z</time>
      </trkpt>
      <trkpt lat="38.79118" lon="15.17656">
        <ele>3.02</ele>
        <time>2018-04-18T04:29:25Z</time>
      </trkpt>
      <trkpt lat="38.79098" lon="15.17637">
        <ele>4.46</ele>
        <time>2018-04-18T04:29:39Z</time>
      </trkpt>
      <trkpt lat="38.7907" lon="15.17615">
        <ele>4.94</ele>
        <time>2018-04-18T04:29:57Z</time>
      </trkpt>
      <trkpt lat="38.79044" lon="15.17593">
        <ele>5.91</ele>
        <time>2018-04-18T04:30:13Z</time>
      </trkpt>
      <trkpt lat="38.79017" lon="15.17571">
        <ele>5.91</ele>
        <time>2018-04-18T04:30:31Z</time>
      </trkpt>
      <trkpt lat="38.78987" lon="15.17545">
        <ele>5.91</ele>
        <time>2018-04-18T04:30:50Z</time>
      </trkpt>
      <trkpt lat="38.78956" lon="15.17521">
        <ele>6.39</ele>
        <time>2018-04-18T04:31:10Z</time>
      </trkpt>
      <trkpt lat="38.78928" lon="15.17499">
        <ele>6.87</ele>
        <time>2018-04-18T04:31:27Z</time>
      </trkpt>
      <trkpt lat="38.78903" lon="15.17477">
        <ele>5.42</ele>
        <time>2018-04-18T04:31:43Z</time>
      </trkpt>
      <trkpt lat="38.78877" lon="15.17455">
        <ele>4.46</ele>
        <time>2018-04-18T04:32:00Z</time>
      </trkpt>
      <trkpt lat="38.78852" lon="15.17435">
        <ele>4.94</ele>
        <time>2018-04-18T04:32:16Z</time>
      </trkpt>
      <trkpt lat="38.78822" lon="15.17411">
        <ele>5.42</ele>
        <time>2018-04-18T04:32:35Z</time>
      </trkpt>
      <trkpt lat="38.78798" lon="15.17392">
        <ele>5.42</ele>
        <time>2018-04-18T04:32:50Z</time>
      </trkpt>
      <trkpt lat="38.78775" lon="15.17373">
        <ele>5.42</ele>
        <time>2018-04-18T04:33:05Z</time>
      </trkpt>
      <trkpt lat="38.78754" lon="15.17355">
        <ele>4.46</ele>
        <time>2018-04-18T04:33:18Z</time>
      </trkpt>
      <trkpt lat="38.78726" lon="15.17332">
        <ele>3.98</ele>
        <time>2018-04-18T04:33:33Z</time>
      </trkpt>
      <trkpt lat="38.78692" lon="15.17305">
        <ele>4.46</ele>
        <time>2018-04-18T04:33:51Z</time>
      </trkpt>
      <trkpt lat="38.78669" lon="15.17285">
        <ele>4.94</ele>
        <time>2018-04-18T04:34:06Z</time>
      </trkpt>
      <trkpt lat="38.78665" lon="15.17283">
        <ele>4.94</ele>
        <time>2018-04-18T04:34:08Z</time>
      </trkpt>
      <trkpt lat="38.78657" lon="15.17276">
        <ele>3.5</ele>
        <time>2018-04-18T04:34:14Z</time>
      </trkpt>
      <trkpt lat="38.78641" lon="15.17263">
        <ele>3.98</ele>
        <time>2018-04-18T04:34:29Z</time>
      </trkpt>
      <trkpt lat="38.78635" lon="15.17257">
        <ele>3.5</ele>
        <time>2018-04-18T04:34:34Z</time>
      </trkpt>
      <trkpt lat="38.78614" lon="15.1724">
        <ele>3.98</ele>
        <time>2018-04-18T04:34:51Z</time>
      </trkpt>
      <trkpt lat="38.78588" lon="15.1722">
        <ele>3.98</ele>
        <time>2018-04-18T04:35:10Z</time>
      </trkpt>
      <trkpt lat="38.78562" lon="15.172">
        <ele>3.02</ele>
        <time>2018-04-18T04:35:29Z</time>
      </trkpt>
      <trkpt lat="38.78536" lon="15.1718">
        <ele>3.98</ele>
        <time>2018-04-18T04:35:49Z</time>
      </trkpt>
      <trkpt lat="38.78509" lon="15.17159">
        <ele>4.94</ele>
        <time>2018-04-18T04:36:08Z</time>
      </trkpt>
      <trkpt lat="38.78478" lon="15.17135">
        <ele>4.46</ele>
        <time>2018-04-18T04:36:30Z</time>
      </trkpt>
      <trkpt lat="38.78449" lon="15.17113">
        <ele>4.46</ele>
        <time>2018-04-18T04:36:51Z</time>
      </trkpt>
      <trkpt lat="38.78423" lon="15.17095">
        <ele>3.98</ele>
        <time>2018-04-18T04:37:09Z</time>
      </trkpt>
      <trkpt lat="38.78399" lon="15.17078">
        <ele>3.98</ele>
        <time>2018-04-18T04:37:26Z</time>
      </trkpt>
      <trkpt lat="38.7838" lon="15.17063">
        <ele>3.98</ele>
        <time>2018-04-18T04:37:38Z</time>
      </trkpt>
      <trkpt lat="38.78364" lon="15.1705">
        <ele>3.5</ele>
        <time>2018-04-18T04:37:51Z</time>
      </trkpt>
      <trkpt lat="38.78363" lon="15.1705">
        <ele>3.98</ele>
        <time>2018-04-18T04:37:52Z</time>
      </trkpt>
      <trkpt lat="38.78353" lon="15.17042">
        <ele>3.5</ele>
        <time>2018-04-18T04:37:59Z</time>
      </trkpt>
      <trkpt lat="38.78331" lon="15.17026">
        <ele>3.5</ele>
        <time>2018-04-18T04:38:15Z</time>
      </trkpt>
      <trkpt lat="38.78305" lon="15.17005">
        <ele>2.54</ele>
        <time>2018-04-18T04:38:34Z</time>
      </trkpt>
      <trkpt lat="38.78287" lon="15.16992">
        <ele>3.02</ele>
        <time>2018-04-18T04:38:47Z</time>
      </trkpt>
      <trkpt lat="38.78277" lon="15.16987">
        <ele>3.02</ele>
        <time>2018-04-18T04:38:54Z</time>
      </trkpt>
      <trkpt lat="38.78252" lon="15.16976">
        <ele>3.98</ele>
        <time>2018-04-18T04:39:09Z</time>
      </trkpt>
      <trkpt lat="38.78217" lon="15.16959">
        <ele>5.42</ele>
        <time>2018-04-18T04:39:28Z</time>
      </trkpt>
      <trkpt lat="38.78203" lon="15.16951">
        <ele>4.94</ele>
        <time>2018-04-18T04:39:36Z</time>
      </trkpt>
      <trkpt lat="38.78175" lon="15.16938">
        <ele>4.46</ele>
        <time>2018-04-18T04:39:50Z</time>
      </trkpt>
      <trkpt lat="38.78146" lon="15.16923">
        <ele>4.46</ele>
        <time>2018-04-18T04:40:05Z</time>
      </trkpt>
      <trkpt lat="38.78107" lon="15.16904">
        <ele>3.98</ele>
        <time>2018-04-18T04:40:25Z</time>
      </trkpt>
      <trkpt lat="38.78073" lon="15.16887">
        <ele>3.98</ele>
        <time>2018-04-18T04:40:43Z</time>
      </trkpt>
      <trkpt lat="38.78048" lon="15.16874">
        <ele>3.98</ele>
        <time>2018-04-18T04:40:56Z</time>
      </trkpt>
      <trkpt lat="38.78012" lon="15.16856">
        <ele>3.98</ele>
        <time>2018-04-18T04:41:15Z</time>
      </trkpt>
      <trkpt lat="38.77985" lon="15.16843">
        <ele>3.98</ele>
        <time>2018-04-18T04:41:29Z</time>
      </trkpt>
      <trkpt lat="38.77959" lon="15.16831">
        <ele>1.58</ele>
        <time>2018-04-18T04:41:42Z</time>
      </trkpt>
      <trkpt lat="38.77932" lon="15.16817">
        <ele>0.14</ele>
        <time>2018-04-18T04:41:56Z</time>
      </trkpt>
      <trkpt lat="38.77904" lon="15.16803">
        <ele>2.06</ele>
        <time>2018-04-18T04:42:11Z</time>
      </trkpt>
      <trkpt lat="38.77879" lon="15.16791">
        <ele>3.02</ele>
        <time>2018-04-18T04:42:24Z</time>
      </trkpt>
      <trkpt lat="38.7785" lon="15.16777">
        <ele>4.46</ele>
        <time>2018-04-18T04:42:39Z</time>
      </trkpt>
      <trkpt lat="38.77826" lon="15.16764">
        <ele>4.94</ele>
        <time>2018-04-18T04:42:52Z</time>
      </trkpt>
      <trkpt lat="38.77793" lon="15.16748">
        <ele>3.5</ele>
        <time>2018-04-18T04:43:09Z</time>
      </trkpt>
      <trkpt lat="38.77762" lon="15.16732">
        <ele>3.5</ele>
        <time>2018-04-18T04:43:26Z</time>
      </trkpt>
      <trkpt lat="38.77731" lon="15.16717">
        <ele>3.02</ele>
        <time>2018-04-18T04:43:42Z</time>
      </trkpt>
      <trkpt lat="38.77704" lon="15.16705">
        <ele>3.02</ele>
        <time>2018-04-18T04:43:56Z</time>
      </trkpt>
      <trkpt lat="38.77672" lon="15.16688">
        <ele>3.98</ele>
        <time>2018-04-18T04:44:13Z</time>
      </trkpt>
      <trkpt lat="38.77633" lon="15.16669">
        <ele>4.94</ele>
        <time>2018-04-18T04:44:33Z</time>
      </trkpt>
      <trkpt lat="38.77598" lon="15.16651">
        <ele>4.46</ele>
        <time>2018-04-18T04:44:52Z</time>
      </trkpt>
      <trkpt lat="38.77564" lon="15.16634">
        <ele>4.46</ele>
        <time>2018-04-18T04:45:09Z</time>
      </trkpt>
      <trkpt lat="38.77534" lon="15.16618">
        <ele>4.46</ele>
        <time>2018-04-18T04:45:25Z</time>
      </trkpt>
      <trkpt lat="38.77504" lon="15.166">
        <ele>3.5</ele>
        <time>2018-04-18T04:45:41Z</time>
      </trkpt>
      <trkpt lat="38.77481" lon="15.16583">
        <ele>3.98</ele>
        <time>2018-04-18T04:45:54Z</time>
      </trkpt>
      <trkpt lat="38.77454" lon="15.16562">
        <ele>3.02</ele>
        <time>2018-04-18T04:46:10Z</time>
      </trkpt>
      <trkpt lat="38.77423" lon="15.16538">
        <ele>3.02</ele>
        <time>2018-04-18T04:46:28Z</time>
      </trkpt>
      <trkpt lat="38.77392" lon="15.16513">
        <ele>2.54</ele>
        <time>2018-04-18T04:46:46Z</time>
      </trkpt>
      <trkpt lat="38.77362" lon="15.16491">
        <ele>3.02</ele>
        <time>2018-04-18T04:47:03Z</time>
      </trkpt>
      <trkpt lat="38.77334" lon="15.1647">
        <ele>3.02</ele>
        <time>2018-04-18T04:47:19Z</time>
      </trkpt>
      <trkpt lat="38.77308" lon="15.16448">
        <ele>3.5</ele>
        <time>2018-04-18T04:47:34Z</time>
      </trkpt>
      <trkpt lat="38.77278" lon="15.16431">
        <ele>3.02</ele>
        <time>2018-04-18T04:47:50Z</time>
      </trkpt>
      <trkpt lat="38.77249" lon="15.16418">
        <ele>2.06</ele>
        <time>2018-04-18T04:48:05Z</time>
      </trkpt>
      <trkpt lat="38.77207" lon="15.16397">
        <ele>2.06</ele>
        <time>2018-04-18T04:48:27Z</time>
      </trkpt>
      <trkpt lat="38.7717" lon="15.16378">
        <ele>0.14</ele>
        <time>2018-04-18T04:48:46Z</time>
      </trkpt>
      <trkpt lat="38.77145" lon="15.16366">
        <ele>-0.82</ele>
        <time>2018-04-18T04:48:58Z</time>
      </trkpt>
      <trkpt lat="38.77105" lon="15.16345">
        <ele>0.62</ele>
        <time>2018-04-18T04:49:19Z</time>
      </trkpt>
      <trkpt lat="38.77074" lon="15.16329">
        <ele>1.1</ele>
        <time>2018-04-18T04:49:35Z</time>
      </trkpt>
      <trkpt lat="38.77046" lon="15.16313">
        <ele>3.02</ele>
        <time>2018-04-18T04:49:51Z</time>
      </trkpt>
      <trkpt lat="38.77027" lon="15.16303">
        <ele>3.98</ele>
        <time>2018-04-18T04:50:02Z</time>
      </trkpt>
      <trkpt lat="38.76991" lon="15.16285">
        <ele>3.98</ele>
        <time>2018-04-18T04:50:20Z</time>
      </trkpt>
      <trkpt lat="38.76965" lon="15.1627">
        <ele>3.5</ele>
        <time>2018-04-18T04:50:33Z</time>
      </trkpt>
      <trkpt lat="38.76944" lon="15.16259">
        <ele>2.54</ele>
        <time>2018-04-18T04:50:44Z</time>
      </trkpt>
      <trkpt lat="38.76915" lon="15.16245">
        <ele>2.06</ele>
        <time>2018-04-18T04:50:59Z</time>
      </trkpt>
      <trkpt lat="38.76894" lon="15.16232">
        <ele>2.06</ele>
        <time>2018-04-18T04:51:10Z</time>
      </trkpt>
      <trkpt lat="38.76871" lon="15.16221">
        <ele>3.02</ele>
        <time>2018-04-18T04:51:23Z</time>
      </trkpt>
      <trkpt lat="38.76847" lon="15.16208">
        <ele>3.5</ele>
        <time>2018-04-18T04:51:36Z</time>
      </trkpt>
      <trkpt lat="38.76817" lon="15.16192">
        <ele>3.98</ele>
        <time>2018-04-18T04:51:52Z</time>
      </trkpt>
      <trkpt lat="38.76791" lon="15.16179">
        <ele>2.54</ele>
        <time>2018-04-18T04:52:05Z</time>
      </trkpt>
      <trkpt lat="38.76769" lon="15.16167">
        <ele>0.62</ele>
        <time>2018-04-18T04:52:17Z</time>
      </trkpt>
      <trkpt lat="38.76743" lon="15.16154">
        <ele>1.1</ele>
        <time>2018-04-18T04:52:31Z</time>
      </trkpt>
      <trkpt lat="38.7672" lon="15.16141">
        <ele>2.54</ele>
        <time>2018-04-18T04:52:44Z</time>
      </trkpt>
      <trkpt lat="38.76699" lon="15.16129">
        <ele>4.94</ele>
        <time>2018-04-18T04:52:57Z</time>
      </trkpt>
      <trkpt lat="38.76671" lon="15.16114">
        <ele>4.46</ele>
        <time>2018-04-18T04:53:12Z</time>
      </trkpt>
      <trkpt lat="38.76641" lon="15.16098">
        <ele>4.94</ele>
        <time>2018-04-18T04:53:28Z</time>
      </trkpt>
      <trkpt lat="38.76601" lon="15.16076">
        <ele>3.5</ele>
        <time>2018-04-18T04:53:49Z</time>
      </trkpt>
      <trkpt lat="38.76569" lon="15.16059">
        <ele>2.54</ele>
        <time>2018-04-18T04:54:07Z</time>
      </trkpt>
      <trkpt lat="38.76546" lon="15.16047">
        <ele>2.54</ele>
        <time>2018-04-18T04:54:20Z</time>
      </trkpt>
      <trkpt lat="38.76514" lon="15.16031">
        <ele>3.5</ele>
        <time>2018-04-18T04:54:37Z</time>
      </trkpt>
      <trkpt lat="38.76485" lon="15.16014">
        <ele>3.98</ele>
        <time>2018-04-18T04:54:53Z</time>
      </trkpt>
      <trkpt lat="38.76455" lon="15.15996">
        <ele>3.98</ele>
        <time>2018-04-18T04:55:10Z</time>
      </trkpt>
      <trkpt lat="38.76425" lon="15.15979">
        <ele>4.94</ele>
        <time>2018-04-18T04:55:27Z</time>
      </trkpt>
      <trkpt lat="38.76392" lon="15.1596">
        <ele>4.46</ele>
        <time>2018-04-18T04:55:46Z</time>
      </trkpt>
      <trkpt lat="38.76369" lon="15.15946">
        <ele>3.5</ele>
        <time>2018-04-18T04:55:59Z</time>
      </trkpt>
      <trkpt lat="38.76341" lon="15.1593">
        <ele>2.54</ele>
        <time>2018-04-18T04:56:15Z</time>
      </trkpt>
      <trkpt lat="38.76315" lon="15.15916">
        <ele>2.06</ele>
        <time>2018-04-18T04:56:28Z</time>
      </trkpt>
      <trkpt lat="38.76283" lon="15.15898">
        <ele>2.54</ele>
        <time>2018-04-18T04:56:47Z</time>
      </trkpt>
      <trkpt lat="38.76253" lon="15.1588">
        <ele>3.02</ele>
        <time>2018-04-18T04:57:04Z</time>
      </trkpt>
      <trkpt lat="38.76225" lon="15.15863">
        <ele>3.5</ele>
        <time>2018-04-18T04:57:20Z</time>
      </trkpt>
      <trkpt lat="38.76205" lon="15.15849">
        <ele>4.46</ele>
        <time>2018-04-18T04:57:34Z</time>
      </trkpt>
      <trkpt lat="38.76191" lon="15.15839">
        <ele>3.98</ele>
        <time>2018-04-18T04:57:42Z</time>
      </trkpt>
      <trkpt lat="38.76168" lon="15.15821">
        <ele>4.94</ele>
        <time>2018-04-18T04:57:56Z</time>
      </trkpt>
      <trkpt lat="38.76137" lon="15.15802">
        <ele>3.98</ele>
        <time>2018-04-18T04:58:14Z</time>
      </trkpt>
      <trkpt lat="38.76111" lon="15.15783">
        <ele>3.5</ele>
        <time>2018-04-18T04:58:29Z</time>
      </trkpt>
      <trkpt lat="38.7608" lon="15.1576">
        <ele>3.02</ele>
        <time>2018-04-18T04:58:48Z</time>
      </trkpt>
      <trkpt lat="38.76053" lon="15.1574">
        <ele>2.54</ele>
        <time>2018-04-18T04:59:04Z</time>
      </trkpt>
      <trkpt lat="38.76025" lon="15.1572">
        <ele>3.02</ele>
        <time>2018-04-18T04:59:21Z</time>
      </trkpt>
      <trkpt lat="38.75995" lon="15.15699">
        <ele>3.02</ele>
        <time>2018-04-18T04:59:39Z</time>
      </trkpt>
      <trkpt lat="38.75967" lon="15.15678">
        <ele>3.5</ele>
        <time>2018-04-18T04:59:56Z</time>
      </trkpt>
      <trkpt lat="38.75946" lon="15.15663">
        <ele>4.46</ele>
        <time>2018-04-18T05:00:09Z</time>
      </trkpt>
      <trkpt lat="38.75917" lon="15.15641">
        <ele>5.42</ele>
        <time>2018-04-18T05:00:27Z</time>
      </trkpt>
      <trkpt lat="38.75888" lon="15.1562">
        <ele>5.42</ele>
        <time>2018-04-18T05:00:44Z</time>
      </trkpt>
      <trkpt lat="38.75864" lon="15.15603">
        <ele>4.46</ele>
        <time>2018-04-18T05:00:58Z</time>
      </trkpt>
      <trkpt lat="38.75832" lon="15.15579">
        <ele>3.5</ele>
        <time>2018-04-18T05:01:17Z</time>
      </trkpt>
      <trkpt lat="38.75808" lon="15.15562">
        <ele>2.54</ele>
        <time>2018-04-18T05:01:30Z</time>
      </trkpt>
      <trkpt lat="38.75789" lon="15.15549">
        <ele>2.06</ele>
        <time>2018-04-18T05:01:41Z</time>
      </trkpt>
      <trkpt lat="38.75771" lon="15.15536">
        <ele>1.1</ele>
        <time>2018-04-18T05:01:51Z</time>
      </trkpt>
      <trkpt lat="38.75741" lon="15.15515">
        <ele>2.06</ele>
        <time>2018-04-18T05:02:09Z</time>
      </trkpt>
      <trkpt lat="38.75708" lon="15.15491">
        <ele>3.02</ele>
        <time>2018-04-18T05:02:29Z</time>
      </trkpt>
      <trkpt lat="38.75683" lon="15.15472">
        <ele>3.98</ele>
        <time>2018-04-18T05:02:44Z</time>
      </trkpt>
      <trkpt lat="38.7565" lon="15.15449">
        <ele>4.46</ele>
        <time>2018-04-18T05:03:03Z</time>
      </trkpt>
      <trkpt lat="38.75619" lon="15.15428">
        <ele>2.06</ele>
        <time>2018-04-18T05:03:21Z</time>
      </trkpt>
      <trkpt lat="38.75595" lon="15.1541">
        <ele>1.58</ele>
        <time>2018-04-18T05:03:35Z</time>
      </trkpt>
      <trkpt lat="38.75572" lon="15.15394">
        <ele>2.06</ele>
        <time>2018-04-18T05:03:49Z</time>
      </trkpt>
      <trkpt lat="38.75544" lon="15.15374">
        <ele>1.58</ele>
        <time>2018-04-18T05:04:05Z</time>
      </trkpt>
      <trkpt lat="38.75517" lon="15.15355">
        <ele>1.1</ele>
        <time>2018-04-18T05:04:20Z</time>
      </trkpt>
      <trkpt lat="38.75499" lon="15.15342">
        <ele>-0.34</ele>
        <time>2018-04-18T05:04:31Z</time>
      </trkpt>
      <trkpt lat="38.7549" lon="15.15336">
        <ele>-0.34</ele>
        <time>2018-04-18T05:04:36Z</time>
      </trkpt>
      <trkpt lat="38.7546" lon="15.15314">
        <ele>0.62</ele>
        <time>2018-04-18T05:04:54Z</time>
      </trkpt>
      <trkpt lat="38.75435" lon="15.15297">
        <ele>1.58</ele>
        <time>2018-04-18T05:05:08Z</time>
      </trkpt>
      <trkpt lat="38.75405" lon="15.15277">
        <ele>2.54</ele>
        <time>2018-04-18T05:05:25Z</time>
      </trkpt>
      <trkpt lat="38.75386" lon="15.15263">
        <ele>2.06</ele>
        <time>2018-04-18T05:05:36Z</time>
      </trkpt>
      <trkpt lat="38.75352" lon="15.15238">
        <ele>2.06</ele>
        <time>2018-04-18T05:05:56Z</time>
      </trkpt>
      <trkpt lat="38.75322" lon="15.15216">
        <ele>2.06</ele>
        <time>2018-04-18T05:06:13Z</time>
      </trkpt>
      <trkpt lat="38.75293" lon="15.15195">
        <ele>3.02</ele>
        <time>2018-04-18T05:06:30Z</time>
      </trkpt>
      <trkpt lat="38.75258" lon="15.15169">
        <ele>3.5</ele>
        <time>2018-04-18T05:06:51Z</time>
      </trkpt>
      <trkpt lat="38.75227" lon="15.15147">
        <ele>3.5</ele>
        <time>2018-04-18T05:07:09Z</time>
      </trkpt>
      <trkpt lat="38.75197" lon="15.15125">
        <ele>3.5</ele>
        <time>2018-04-18T05:07:26Z</time>
      </trkpt>
      <trkpt lat="38.75163" lon="15.15101">
        <ele>3.02</ele>
        <time>2018-04-18T05:07:45Z</time>
      </trkpt>
      <trkpt lat="38.7513" lon="15.15078">
        <ele>3.02</ele>
        <time>2018-04-18T05:08:04Z</time>
      </trkpt>
      <trkpt lat="38.75105" lon="15.15058">
        <ele>3.98</ele>
        <time>2018-04-18T05:08:19Z</time>
      </trkpt>
      <trkpt lat="38.75073" lon="15.15034">
        <ele>2.06</ele>
        <time>2018-04-18T05:08:37Z</time>
      </trkpt>
      <trkpt lat="38.75048" lon="15.15015">
        <ele>2.06</ele>
        <time>2018-04-18T05:08:52Z</time>
      </trkpt>
      <trkpt lat="38.75025" lon="15.15">
        <ele>2.06</ele>
        <time>2018-04-18T05:09:05Z</time>
      </trkpt>
      <trkpt lat="38.75003" lon="15.14983">
        <ele>3.02</ele>
        <time>2018-04-18T05:09:18Z</time>
      </trkpt>
      <trkpt lat="38.74972" lon="15.1496">
        <ele>3.02</ele>
        <time>2018-04-18T05:09:36Z</time>
      </trkpt>
      <trkpt lat="38.74946" lon="15.1494">
        <ele>3.98</ele>
        <time>2018-04-18T05:09:52Z</time>
      </trkpt>
      <trkpt lat="38.7491" lon="15.14913">
        <ele>3.5</ele>
        <time>2018-04-18T05:10:13Z</time>
      </trkpt>
      <trkpt lat="38.74884" lon="15.14893">
        <ele>4.46</ele>
        <time>2018-04-18T05:10:28Z</time>
      </trkpt>
      <trkpt lat="38.74861" lon="15.14874">
        <ele>3.02</ele>
        <time>2018-04-18T05:10:41Z</time>
      </trkpt>
      <trkpt lat="38.74849" lon="15.14865">
        <ele>2.54</ele>
        <time>2018-04-18T05:10:48Z</time>
      </trkpt>
      <trkpt lat="38.74839" lon="15.14856">
        <ele>2.06</ele>
        <time>2018-04-18T05:10:54Z</time>
      </trkpt>
      <trkpt lat="38.74818" lon="15.1484">
        <ele>3.5</ele>
        <time>2018-04-18T05:11:08Z</time>
      </trkpt>
      <trkpt lat="38.74794" lon="15.14821">
        <ele>5.42</ele>
        <time>2018-04-18T05:11:23Z</time>
      </trkpt>
      <trkpt lat="38.74771" lon="15.14805">
        <ele>4.94</ele>
        <time>2018-04-18T05:11:37Z</time>
      </trkpt>
      <trkpt lat="38.74743" lon="15.14783">
        <ele>4.46</ele>
        <time>2018-04-18T05:11:53Z</time>
      </trkpt>
      <trkpt lat="38.74719" lon="15.14764">
        <ele>4.46</ele>
        <time>2018-04-18T05:12:07Z</time>
      </trkpt>
      <trkpt lat="38.74695" lon="15.14745">
        <ele>3.5</ele>
        <time>2018-04-18T05:12:21Z</time>
      </trkpt>
      <trkpt lat="38.74664" lon="15.14723">
        <ele>2.54</ele>
        <time>2018-04-18T05:12:39Z</time>
      </trkpt>
      <trkpt lat="38.74637" lon="15.14701">
        <ele>3.5</ele>
        <time>2018-04-18T05:12:55Z</time>
      </trkpt>
      <trkpt lat="38.74609" lon="15.14681">
        <ele>4.94</ele>
        <time>2018-04-18T05:13:11Z</time>
      </trkpt>
      <trkpt lat="38.74582" lon="15.14659">
        <ele>4.94</ele>
        <time>2018-04-18T05:13:27Z</time>
      </trkpt>
      <trkpt lat="38.74551" lon="15.14635">
        <ele>3.5</ele>
        <time>2018-04-18T05:13:46Z</time>
      </trkpt>
      <trkpt lat="38.74528" lon="15.14616">
        <ele>4.46</ele>
        <time>2018-04-18T05:14:06Z</time>
      </trkpt>
      <trkpt lat="38.74523" lon="15.14612">
        <ele>4.46</ele>
        <time>2018-04-18T05:14:12Z</time>
      </trkpt>
      <trkpt lat="38.74515" lon="15.14606">
        <ele>4.94</ele>
        <time>2018-04-18T05:14:22Z</time>
      </trkpt>
      <trkpt lat="38.74503" lon="15.14596">
        <ele>5.91</ele>
        <time>2018-04-18T05:14:37Z</time>
      </trkpt>
      <trkpt lat="38.74493" lon="15.14587">
        <ele>5.91</ele>
        <time>2018-04-18T05:14:53Z</time>
      </trkpt>
      <trkpt lat="38.74484" lon="15.14575">
        <ele>4.46</ele>
        <time>2018-04-18T05:15:09Z</time>
      </trkpt>
      <trkpt lat="38.74475" lon="15.14563">
        <ele>4.94</ele>
        <time>2018-04-18T05:15:24Z</time>
      </trkpt>
      <trkpt lat="38.74467" lon="15.14552">
        <ele>4.46</ele>
        <time>2018-04-18T05:15:39Z</time>
      </trkpt>
      <trkpt lat="38.74457" lon="15.14542">
        <ele>4.46</ele>
        <time>2018-04-18T05:15:51Z</time>
      </trkpt>
      <trkpt lat="38.74448" lon="15.14534">
        <ele>3.98</ele>
        <time>2018-04-18T05:16:01Z</time>
      </trkpt>
      <trkpt lat="38.74438" lon="15.14522">
        <ele>3.98</ele>
        <time>2018-04-18T05:16:13Z</time>
      </trkpt>
      <trkpt lat="38.74435" lon="15.14519">
        <ele>4.46</ele>
        <time>2018-04-18T05:16:17Z</time>
      </trkpt>
      <trkpt lat="38.74428" lon="15.14509">
        <ele>5.91</ele>
        <time>2018-04-18T05:16:30Z</time>
      </trkpt>
      <trkpt lat="38.74423" lon="15.14505">
        <ele>5.91</ele>
        <time>2018-04-18T05:16:36Z</time>
      </trkpt>
      <trkpt lat="38.74416" lon="15.14497">
        <ele>5.42</ele>
        <time>2018-04-18T05:16:46Z</time>
      </trkpt>
      <trkpt lat="38.74408" lon="15.14489">
        <ele>4.94</ele>
        <time>2018-04-18T05:16:56Z</time>
      </trkpt>
      <trkpt lat="38.744" lon="15.14481">
        <ele>4.94</ele>
        <time>2018-04-18T05:17:08Z</time>
      </trkpt>
      <trkpt lat="38.74393" lon="15.14474">
        <ele>4.94</ele>
        <time>2018-04-18T05:17:21Z</time>
      </trkpt>
      <trkpt lat="38.74382" lon="15.14462">
        <ele>4.94</ele>
        <time>2018-04-18T05:17:36Z</time>
      </trkpt>
      <trkpt lat="38.74375" lon="15.14455">
        <ele>4.94</ele>
        <time>2018-04-18T05:17:47Z</time>
      </trkpt>
      <trkpt lat="38.74364" lon="15.14443">
        <ele>5.91</ele>
        <time>2018-04-18T05:18:01Z</time>
      </trkpt>
      <trkpt lat="38.74353" lon="15.14432">
        <ele>5.91</ele>
        <time>2018-04-18T05:18:18Z</time>
      </trkpt>
      <trkpt lat="38.74347" lon="15.14425">
        <ele>5.91</ele>
        <time>2018-04-18T05:18:27Z</time>
      </trkpt>
      <trkpt lat="38.74334" lon="15.14411">
        <ele>5.91</ele>
        <time>2018-04-18T05:18:45Z</time>
      </trkpt>
      <trkpt lat="38.74319" lon="15.14395">
        <ele>6.39</ele>
        <time>2018-04-18T05:19:05Z</time>
      </trkpt>
      <trkpt lat="38.74315" lon="15.14392">
        <ele>6.39</ele>
        <time>2018-04-18T05:19:10Z</time>
      </trkpt>
      <trkpt lat="38.74304" lon="15.1438">
        <ele>6.39</ele>
        <time>2018-04-18T05:19:26Z</time>
      </trkpt>
      <trkpt lat="38.74294" lon="15.1437">
        <ele>5.91</ele>
        <time>2018-04-18T05:19:39Z</time>
      </trkpt>
      <trkpt lat="38.74284" lon="15.14361">
        <ele>4.94</ele>
        <time>2018-04-18T05:19:53Z</time>
      </trkpt>
      <trkpt lat="38.74283" lon="15.14359">
        <ele>4.94</ele>
        <time>2018-04-18T05:19:55Z</time>
      </trkpt>
      <trkpt lat="38.7428" lon="15.14356">
        <ele>5.42</ele>
        <time>2018-04-18T05:19:59Z</time>
      </trkpt>
      <trkpt lat="38.7427" lon="15.14346">
        <ele>5.42</ele>
        <time>2018-04-18T05:20:12Z</time>
      </trkpt>
      <trkpt lat="38.74266" lon="15.14343">
        <ele>5.42</ele>
        <time>2018-04-18T05:20:17Z</time>
      </trkpt>
      <trkpt lat="38.74252" lon="15.14328">
        <ele>5.42</ele>
        <time>2018-04-18T05:20:36Z</time>
      </trkpt>
      <trkpt lat="38.74242" lon="15.14318">
        <ele>5.42</ele>
        <time>2018-04-18T05:20:49Z</time>
      </trkpt>
      <trkpt lat="38.74237" lon="15.14312">
        <ele>4.94</ele>
        <time>2018-04-18T05:20:56Z</time>
      </trkpt>
      <trkpt lat="38.74235" lon="15.14311">
        <ele>4.94</ele>
        <time>2018-04-18T05:20:58Z</time>
      </trkpt>
      <trkpt lat="38.74229" lon="15.14305">
        <ele>4.94</ele>
        <time>2018-04-18T05:21:06Z</time>
      </trkpt>
      <trkpt lat="38.74227" lon="15.14304">
        <ele>5.42</ele>
        <time>2018-04-18T05:21:08Z</time>
      </trkpt>
      <trkpt lat="38.74224" lon="15.14301">
        <ele>5.42</ele>
        <time>2018-04-18T05:21:12Z</time>
      </trkpt>
      <trkpt lat="38.74214" lon="15.14289">
        <ele>5.91</ele>
        <time>2018-04-18T05:21:28Z</time>
      </trkpt>
      <trkpt lat="38.74208" lon="15.14283">
        <ele>4.94</ele>
        <time>2018-04-18T05:21:42Z</time>
      </trkpt>
      <trkpt lat="38.74201" lon="15.14276">
        <ele>3.98</ele>
        <time>2018-04-18T05:21:51Z</time>
      </trkpt>
      <trkpt lat="38.74189" lon="15.14263">
        <ele>3.5</ele>
        <time>2018-04-18T05:22:07Z</time>
      </trkpt>
      <trkpt lat="38.74177" lon="15.14251">
        <ele>4.46</ele>
        <time>2018-04-18T05:22:23Z</time>
      </trkpt>
      <trkpt lat="38.74174" lon="15.14247">
        <ele>4.94</ele>
        <time>2018-04-18T05:22:27Z</time>
      </trkpt>
      <trkpt lat="38.7416" lon="15.14232">
        <ele>4.46</ele>
        <time>2018-04-18T05:22:45Z</time>
      </trkpt>
      <trkpt lat="38.74158" lon="15.1423">
        <ele>4.46</ele>
        <time>2018-04-18T05:22:47Z</time>
      </trkpt>
      <trkpt lat="38.74146" lon="15.14217">
        <ele>4.46</ele>
        <time>2018-04-18T05:23:03Z</time>
      </trkpt>
      <trkpt lat="38.74132" lon="15.14204">
        <ele>5.42</ele>
        <time>2018-04-18T05:23:19Z</time>
      </trkpt>
      <trkpt lat="38.74118" lon="15.14191">
        <ele>4.94</ele>
        <time>2018-04-18T05:23:38Z</time>
      </trkpt>
      <trkpt lat="38.74106" lon="15.14178">
        <ele>4.46</ele>
        <time>2018-04-18T05:23:54Z</time>
      </trkpt>
      <trkpt lat="38.74093" lon="15.14164">
        <ele>4.46</ele>
        <time>2018-04-18T05:24:12Z</time>
      </trkpt>
      <trkpt lat="38.7408" lon="15.14153">
        <ele>3.98</ele>
        <time>2018-04-18T05:24:28Z</time>
      </trkpt>
      <trkpt lat="38.74065" lon="15.14137">
        <ele>4.46</ele>
        <time>2018-04-18T05:24:49Z</time>
      </trkpt>
      <trkpt lat="38.74057" lon="15.14129">
        <ele>3.98</ele>
        <time>2018-04-18T05:24:59Z</time>
      </trkpt>
      <trkpt lat="38.74055" lon="15.14127">
        <ele>3.98</ele>
        <time>2018-04-18T05:25:01Z</time>
      </trkpt>
      <trkpt lat="38.74048" lon="15.14121">
        <ele>4.46</ele>
        <time>2018-04-18T05:25:09Z</time>
      </trkpt>
      <trkpt lat="38.74037" lon="15.1411">
        <ele>3.98</ele>
        <time>2018-04-18T05:25:22Z</time>
      </trkpt>
      <trkpt lat="38.74024" lon="15.14099">
        <ele>5.42</ele>
        <time>2018-04-18T05:25:37Z</time>
      </trkpt>
      <trkpt lat="38.74011" lon="15.14086">
        <ele>4.46</ele>
        <time>2018-04-18T05:25:51Z</time>
      </trkpt>
      <trkpt lat="38.74" lon="15.14075">
        <ele>4.46</ele>
        <time>2018-04-18T05:26:03Z</time>
      </trkpt>
      <trkpt lat="38.73995" lon="15.14071">
        <ele>4.46</ele>
        <time>2018-04-18T05:26:08Z</time>
      </trkpt>
      <trkpt lat="38.73979" lon="15.14056">
        <ele>4.46</ele>
        <time>2018-04-18T05:26:22Z</time>
      </trkpt>
      <trkpt lat="38.7397" lon="15.14044">
        <ele>4.94</ele>
        <time>2018-04-18T05:26:36Z</time>
      </trkpt>
      <trkpt lat="38.73956" lon="15.1403">
        <ele>4.94</ele>
        <time>2018-04-18T05:26:49Z</time>
      </trkpt>
      <trkpt lat="38.73953" lon="15.14028">
        <ele>5.42</ele>
        <time>2018-04-18T05:26:53Z</time>
      </trkpt>
      <trkpt lat="38.73941" lon="15.14015">
        <ele>5.42</ele>
        <time>2018-04-18T05:27:07Z</time>
      </trkpt>
      <trkpt lat="38.73938" lon="15.14011">
        <ele>5.42</ele>
        <time>2018-04-18T05:27:11Z</time>
      </trkpt>
      <trkpt lat="38.73933" lon="15.14006">
        <ele>5.91</ele>
        <time>2018-04-18T05:27:20Z</time>
      </trkpt>
      <trkpt lat="38.73923" lon="15.13997">
        <ele>5.91</ele>
        <time>2018-04-18T05:27:32Z</time>
      </trkpt>
      <trkpt lat="38.7391" lon="15.13995">
        <ele>5.91</ele>
        <time>2018-04-18T05:27:47Z</time>
      </trkpt>
      <trkpt lat="38.73901" lon="15.14">
        <ele>4.94</ele>
        <time>2018-04-18T05:28:02Z</time>
      </trkpt>
      <trkpt lat="38.73898" lon="15.14005">
        <ele>5.42</ele>
        <time>2018-04-18T05:28:13Z</time>
      </trkpt>
      <trkpt lat="38.73898" lon="15.14008">
        <ele>5.42</ele>
        <time>2018-04-18T05:28:22Z</time>
      </trkpt>
      <trkpt lat="38.73895" lon="15.14011">
        <ele>5.91</ele>
        <time>2018-04-18T05:28:26Z</time>
      </trkpt>
      <trkpt lat="38.73893" lon="15.14015">
        <ele>5.91</ele>
        <time>2018-04-18T05:28:37Z</time>
      </trkpt>
      <trkpt lat="38.73892" lon="15.14016">
        <ele>5.91</ele>
        <time>2018-04-18T05:28:53Z</time>
      </trkpt>
      <trkpt lat="38.73892" lon="15.14017">
        <ele>5.42</ele>
        <time>2018-04-18T05:29:06Z</time>
      </trkpt>
      <trkpt lat="38.73891" lon="15.14017">
        <ele>4.46</ele>
        <time>2018-04-18T05:29:20Z</time>
      </trkpt>
      <trkpt lat="38.7389" lon="15.14018">
        <ele>4.46</ele>
        <time>2018-04-18T05:29:35Z</time>
      </trkpt>
      <trkpt lat="38.73889" lon="15.14017">
        <ele>4.46</ele>
        <time>2018-04-18T05:29:50Z</time>
      </trkpt>
      <trkpt lat="38.73886" lon="15.14018">
        <ele>3.98</ele>
        <time>2018-04-18T05:30:07Z</time>
      </trkpt>
      <trkpt lat="38.73884" lon="15.14021">
        <ele>4.46</ele>
        <time>2018-04-18T05:30:16Z</time>
      </trkpt>
      <trkpt lat="38.73883" lon="15.14024">
        <ele>4.46</ele>
        <time>2018-04-18T05:30:31Z</time>
      </trkpt>
      <trkpt lat="38.73881" lon="15.14026">
        <ele>3.98</ele>
        <time>2018-04-18T05:30:43Z</time>
      </trkpt>
      <trkpt lat="38.73879" lon="15.14028">
        <ele>3.98</ele>
        <time>2018-04-18T05:30:56Z</time>
      </trkpt>
      <trkpt lat="38.73878" lon="15.1403">
        <ele>3.98</ele>
        <time>2018-04-18T05:31:08Z</time>
      </trkpt>
      <trkpt lat="38.73876" lon="15.14043">
        <ele>3.02</ele>
        <time>2018-04-18T05:31:22Z</time>
      </trkpt>
      <trkpt lat="38.73875" lon="15.1405">
        <ele>3.02</ele>
        <time>2018-04-18T05:31:28Z</time>
      </trkpt>
      <trkpt lat="38.73875" lon="15.14061">
        <ele>4.46</ele>
        <time>2018-04-18T05:31:42Z</time>
      </trkpt>
      <trkpt lat="38.73879" lon="15.14075">
        <ele>3.5</ele>
        <time>2018-04-18T05:31:57Z</time>
      </trkpt>
      <trkpt lat="38.73884" lon="15.14092">
        <ele>4.46</ele>
        <time>2018-04-18T05:32:13Z</time>
      </trkpt>
      <trkpt lat="38.73884" lon="15.14099">
        <ele>2.06</ele>
        <time>2018-04-18T05:32:24Z</time>
      </trkpt>
      <trkpt lat="38.73884" lon="15.14114">
        <ele>2.06</ele>
        <time>2018-04-18T05:32:37Z</time>
      </trkpt>
      <trkpt lat="38.73884" lon="15.14126">
        <ele>2.06</ele>
        <time>2018-04-18T05:32:49Z</time>
      </trkpt>
      <trkpt lat="38.73884" lon="15.14139">
        <ele>2.54</ele>
        <time>2018-04-18T05:33:03Z</time>
      </trkpt>
      <trkpt lat="38.73884" lon="15.14151">
        <ele>3.02</ele>
        <time>2018-04-18T05:33:20Z</time>
      </trkpt>
      <trkpt lat="38.73874" lon="15.14151">
        <ele>3.02</ele>
        <time>2018-04-18T05:33:36Z</time>
      </trkpt>
      <trkpt lat="38.73867" lon="15.14142">
        <ele>4.46</ele>
        <time>2018-04-18T05:33:51Z</time>
      </trkpt>
      <trkpt lat="38.73857" lon="15.14135">
        <ele>3.98</ele>
        <time>2018-04-18T05:34:06Z</time>
      </trkpt>
      <trkpt lat="38.73846" lon="15.14125">
        <ele>3.98</ele>
        <time>2018-04-18T05:34:23Z</time>
      </trkpt>
      <trkpt lat="38.73844" lon="15.14125">
        <ele>3.98</ele>
        <time>2018-04-18T05:34:25Z</time>
      </trkpt>
      <trkpt lat="38.73842" lon="15.14122">
        <ele>4.46</ele>
        <time>2018-04-18T05:34:28Z</time>
      </trkpt>
      <trkpt lat="38.73834" lon="15.14116">
        <ele>4.94</ele>
        <time>2018-04-18T05:34:38Z</time>
      </trkpt>
      <trkpt lat="38.73818" lon="15.14104">
        <ele>4.46</ele>
        <time>2018-04-18T05:34:55Z</time>
      </trkpt>
      <trkpt lat="38.73814" lon="15.14103">
        <ele>4.94</ele>
        <time>2018-04-18T05:34:58Z</time>
      </trkpt>
      <trkpt lat="38.73809" lon="15.14098">
        <ele>4.46</ele>
        <time>2018-04-18T05:35:02Z</time>
      </trkpt>
      <trkpt lat="38.73796" lon="15.14089">
        <ele>4.46</ele>
        <time>2018-04-18T05:35:12Z</time>
      </trkpt>
      <trkpt lat="38.73776" lon="15.1407">
        <ele>4.94</ele>
        <time>2018-04-18T05:35:28Z</time>
      </trkpt>
      <trkpt lat="38.73765" lon="15.14061">
        <ele>4.94</ele>
        <time>2018-04-18T05:35:37Z</time>
      </trkpt>
      <trkpt lat="38.7376" lon="15.14057">
        <ele>5.42</ele>
        <time>2018-04-18T05:35:41Z</time>
      </trkpt>
      <trkpt lat="38.7374" lon="15.14043">
        <ele>4.46</ele>
        <time>2018-04-18T05:35:56Z</time>
      </trkpt>
      <trkpt lat="38.73716" lon="15.14027">
        <ele>4.94</ele>
        <time>2018-04-18T05:36:13Z</time>
      </trkpt>
      <trkpt lat="38.73694" lon="15.1401">
        <ele>3.98</ele>
        <time>2018-04-18T05:36:29Z</time>
      </trkpt>
      <trkpt lat="38.73665" lon="15.13986">
        <ele>3.98</ele>
        <time>2018-04-18T05:36:50Z</time>
      </trkpt>
      <trkpt lat="38.73647" lon="15.13971">
        <ele>4.46</ele>
        <time>2018-04-18T05:37:04Z</time>
      </trkpt>
      <trkpt lat="38.73622" lon="15.13954">
        <ele>4.94</ele>
        <time>2018-04-18T05:37:22Z</time>
      </trkpt>
      <trkpt lat="38.73596" lon="15.13932">
        <ele>4.46</ele>
        <time>2018-04-18T05:37:43Z</time>
      </trkpt>
      <trkpt lat="38.73571" lon="15.13911">
        <ele>3.98</ele>
        <time>2018-04-18T05:38:03Z</time>
      </trkpt>
      <trkpt lat="38.73545" lon="15.13892">
        <ele>3.5</ele>
        <time>2018-04-18T05:38:23Z</time>
      </trkpt>
      <trkpt lat="38.73516" lon="15.13873">
        <ele>3.5</ele>
        <time>2018-04-18T05:38:44Z</time>
      </trkpt>
      <trkpt lat="38.73496" lon="15.13858">
        <ele>3.02</ele>
        <time>2018-04-18T05:38:59Z</time>
      </trkpt>
      <trkpt lat="38.73468" lon="15.13834">
        <ele>3.5</ele>
        <time>2018-04-18T05:39:20Z</time>
      </trkpt>
      <trkpt lat="38.7344" lon="15.13813">
        <ele>3.5</ele>
        <time>2018-04-18T05:39:41Z</time>
      </trkpt>
      <trkpt lat="38.73413" lon="15.13791">
        <ele>4.46</ele>
        <time>2018-04-18T05:40:02Z</time>
      </trkpt>
      <trkpt lat="38.73387" lon="15.13772">
        <ele>5.91</ele>
        <time>2018-04-18T05:40:21Z</time>
      </trkpt>
      <trkpt lat="38.73368" lon="15.13759">
        <ele>4.46</ele>
        <time>2018-04-18T05:40:36Z</time>
      </trkpt>
      <trkpt lat="38.73356" lon="15.13749">
        <ele>5.42</ele>
        <time>2018-04-18T05:40:46Z</time>
      </trkpt>
      <trkpt lat="38.7335" lon="15.13743">
        <ele>5.42</ele>
        <time>2018-04-18T05:40:52Z</time>
      </trkpt>
      <trkpt lat="38.73336" lon="15.13733">
        <ele>5.42</ele>
        <time>2018-04-18T05:41:04Z</time>
      </trkpt>
      <trkpt lat="38.73319" lon="15.1372">
        <ele>4.94</ele>
        <time>2018-04-18T05:41:20Z</time>
      </trkpt>
      <trkpt lat="38.73298" lon="15.13702">
        <ele>4.46</ele>
        <time>2018-04-18T05:41:42Z</time>
      </trkpt>
      <trkpt lat="38.73283" lon="15.13686">
        <ele>3.98</ele>
        <time>2018-04-18T05:41:58Z</time>
      </trkpt>
      <trkpt lat="38.73279" lon="15.13683">
        <ele>3.98</ele>
        <time>2018-04-18T05:42:03Z</time>
      </trkpt>
      <trkpt lat="38.73255" lon="15.13662">
        <ele>3.98</ele>
        <time>2018-04-18T05:42:26Z</time>
      </trkpt>
      <trkpt lat="38.73241" lon="15.13649">
        <ele>4.46</ele>
        <time>2018-04-18T05:42:40Z</time>
      </trkpt>
      <trkpt lat="38.73234" lon="15.13642">
        <ele>4.94</ele>
        <time>2018-04-18T05:42:46Z</time>
      </trkpt>
      <trkpt lat="38.73219" lon="15.1363">
        <ele>4.94</ele>
        <time>2018-04-18T05:42:58Z</time>
      </trkpt>
      <trkpt lat="38.73216" lon="15.13626">
        <ele>3.98</ele>
        <time>2018-04-18T05:43:01Z</time>
      </trkpt>
      <trkpt lat="38.73214" lon="15.13624">
        <ele>3.98</ele>
        <time>2018-04-18T05:43:03Z</time>
      </trkpt>
      <trkpt lat="38.73206" lon="15.13617">
        <ele>3.5</ele>
        <time>2018-04-18T05:43:10Z</time>
      </trkpt>
      <trkpt lat="38.73195" lon="15.13607">
        <ele>3.5</ele>
        <time>2018-04-18T05:43:20Z</time>
      </trkpt>
      <trkpt lat="38.73183" lon="15.13599">
        <ele>3.02</ele>
        <time>2018-04-18T05:43:33Z</time>
      </trkpt>
      <trkpt lat="38.73182" lon="15.13599">
        <ele>3.5</ele>
        <time>2018-04-18T05:43:34Z</time>
      </trkpt>
      <trkpt lat="38.73165" lon="15.13587">
        <ele>3.5</ele>
        <time>2018-04-18T05:43:49Z</time>
      </trkpt>
      <trkpt lat="38.73158" lon="15.13581">
        <ele>2.54</ele>
        <time>2018-04-18T05:43:56Z</time>
      </trkpt>
      <trkpt lat="38.73152" lon="15.13576">
        <ele>3.5</ele>
        <time>2018-04-18T05:44:01Z</time>
      </trkpt>
      <trkpt lat="38.73127" lon="15.13559">
        <ele>3.5</ele>
        <time>2018-04-18T05:44:21Z</time>
      </trkpt>
      <trkpt lat="38.73105" lon="15.13541">
        <ele>4.46</ele>
        <time>2018-04-18T05:44:39Z</time>
      </trkpt>
      <trkpt lat="38.73084" lon="15.13527">
        <ele>5.42</ele>
        <time>2018-04-18T05:44:56Z</time>
      </trkpt>
      <trkpt lat="38.73057" lon="15.1351">
        <ele>5.91</ele>
        <time>2018-04-18T05:45:18Z</time>
      </trkpt>
      <trkpt lat="38.73037" lon="15.13496">
        <ele>5.42</ele>
        <time>2018-04-18T05:45:34Z</time>
      </trkpt>
      <trkpt lat="38.7301" lon="15.13477">
        <ele>4.94</ele>
        <time>2018-04-18T05:45:54Z</time>
      </trkpt>
      <trkpt lat="38.72983" lon="15.13456">
        <ele>4.46</ele>
        <time>2018-04-18T05:46:15Z</time>
      </trkpt>
      <trkpt lat="38.72961" lon="15.1344">
        <ele>2.54</ele>
        <time>2018-04-18T05:46:31Z</time>
      </trkpt>
      <trkpt lat="38.72932" lon="15.13418">
        <ele>3.98</ele>
        <time>2018-04-18T05:46:51Z</time>
      </trkpt>
      <trkpt lat="38.72909" lon="15.13402">
        <ele>4.46</ele>
        <time>2018-04-18T05:47:07Z</time>
      </trkpt>
      <trkpt lat="38.72886" lon="15.13385">
        <ele>4.46</ele>
        <time>2018-04-18T05:47:23Z</time>
      </trkpt>
      <trkpt lat="38.7286" lon="15.13364">
        <ele>4.94</ele>
        <time>2018-04-18T05:47:42Z</time>
      </trkpt>
      <trkpt lat="38.72835" lon="15.13344">
        <ele>4.94</ele>
        <time>2018-04-18T05:48:00Z</time>
      </trkpt>
      <trkpt lat="38.7281" lon="15.13322">
        <ele>3.02</ele>
        <time>2018-04-18T05:48:19Z</time>
      </trkpt>
      <trkpt lat="38.7278" lon="15.13301">
        <ele>2.54</ele>
        <time>2018-04-18T05:48:40Z</time>
      </trkpt>
      <trkpt lat="38.7276" lon="15.13279">
        <ele>3.02</ele>
        <time>2018-04-18T05:48:55Z</time>
      </trkpt>
      <trkpt lat="38.72749" lon="15.13255">
        <ele>3.98</ele>
        <time>2018-04-18T05:49:09Z</time>
      </trkpt>
      <trkpt lat="38.72734" lon="15.13229">
        <ele>3.98</ele>
        <time>2018-04-18T05:49:27Z</time>
      </trkpt>
      <trkpt lat="38.72723" lon="15.13213">
        <ele>3.5</ele>
        <time>2018-04-18T05:49:40Z</time>
      </trkpt>
      <trkpt lat="38.72719" lon="15.13209">
        <ele>3.02</ele>
        <time>2018-04-18T05:49:44Z</time>
      </trkpt>
      <trkpt lat="38.72707" lon="15.13191">
        <ele>3.5</ele>
        <time>2018-04-18T05:49:59Z</time>
      </trkpt>
      <trkpt lat="38.72701" lon="15.13181">
        <ele>3.02</ele>
        <time>2018-04-18T05:50:08Z</time>
      </trkpt>
      <trkpt lat="38.72699" lon="15.13176">
        <ele>3.5</ele>
        <time>2018-04-18T05:50:12Z</time>
      </trkpt>
      <trkpt lat="38.72695" lon="15.1317">
        <ele>3.5</ele>
        <time>2018-04-18T05:50:18Z</time>
      </trkpt>
      <trkpt lat="38.72685" lon="15.13154">
        <ele>3.98</ele>
        <time>2018-04-18T05:50:34Z</time>
      </trkpt>
      <trkpt lat="38.72674" lon="15.13136">
        <ele>3.02</ele>
        <time>2018-04-18T05:50:52Z</time>
      </trkpt>
      <trkpt lat="38.72665" lon="15.13121">
        <ele>3.5</ele>
        <time>2018-04-18T05:51:07Z</time>
      </trkpt>
      <trkpt lat="38.72654" lon="15.13106">
        <ele>3.02</ele>
        <time>2018-04-18T05:51:19Z</time>
      </trkpt>
      <trkpt lat="38.72652" lon="15.13101">
        <ele>3.02</ele>
        <time>2018-04-18T05:51:23Z</time>
      </trkpt>
      <trkpt lat="38.72641" lon="15.13085">
        <ele>2.54</ele>
        <time>2018-04-18T05:51:41Z</time>
      </trkpt>
      <trkpt lat="38.7264" lon="15.13081">
        <ele>2.54</ele>
        <time>2018-04-18T05:51:44Z</time>
      </trkpt>
      <trkpt lat="38.72634" lon="15.13071">
        <ele>4.46</ele>
        <time>2018-04-18T05:51:56Z</time>
      </trkpt>
      <trkpt lat="38.72624" lon="15.13053">
        <ele>3.98</ele>
        <time>2018-04-18T05:52:13Z</time>
      </trkpt>
      <trkpt lat="38.72622" lon="15.13049">
        <ele>3.5</ele>
        <time>2018-04-18T05:52:16Z</time>
      </trkpt>
      <trkpt lat="38.72609" lon="15.13029">
        <ele>4.46</ele>
        <time>2018-04-18T05:52:35Z</time>
      </trkpt>
      <trkpt lat="38.72598" lon="15.13012">
        <ele>4.46</ele>
        <time>2018-04-18T05:52:52Z</time>
      </trkpt>
      <trkpt lat="38.72595" lon="15.13007">
        <ele>4.46</ele>
        <time>2018-04-18T05:52:57Z</time>
      </trkpt>
      <trkpt lat="38.72583" lon="15.1299">
        <ele>3.02</ele>
        <time>2018-04-18T05:53:14Z</time>
      </trkpt>
      <trkpt lat="38.72582" lon="15.12988">
        <ele>3.02</ele>
        <time>2018-04-18T05:53:16Z</time>
      </trkpt>
      <trkpt lat="38.72571" lon="15.1297">
        <ele>3.02</ele>
        <time>2018-04-18T05:53:33Z</time>
      </trkpt>
      <trkpt lat="38.72559" lon="15.12952">
        <ele>3.98</ele>
        <time>2018-04-18T05:53:50Z</time>
      </trkpt>
      <trkpt lat="38.72549" lon="15.12934">
        <ele>5.42</ele>
        <time>2018-04-18T05:54:05Z</time>
      </trkpt>
      <trkpt lat="38.72537" lon="15.12917">
        <ele>5.42</ele>
        <time>2018-04-18T05:54:21Z</time>
      </trkpt>
      <trkpt lat="38.72524" lon="15.12898">
        <ele>5.42</ele>
        <time>2018-04-18T05:54:38Z</time>
      </trkpt>
      <trkpt lat="38.72509" lon="15.12876">
        <ele>4.94</ele>
        <time>2018-04-18T05:54:56Z</time>
      </trkpt>
      <trkpt lat="38.72505" lon="15.12869">
        <ele>4.94</ele>
        <time>2018-04-18T05:55:02Z</time>
      </trkpt>
      <trkpt lat="38.72498" lon="15.12854">
        <ele>4.46</ele>
        <time>2018-04-18T05:55:15Z</time>
      </trkpt>
      <trkpt lat="38.72496" lon="15.12849">
        <ele>3.98</ele>
        <time>2018-04-18T05:55:20Z</time>
      </trkpt>
      <trkpt lat="38.72493" lon="15.12841">
        <ele>5.42</ele>
        <time>2018-04-18T05:55:27Z</time>
      </trkpt>
      <trkpt lat="38.7248" lon="15.12817">
        <ele>5.91</ele>
        <time>2018-04-18T05:55:45Z</time>
      </trkpt>
      <trkpt lat="38.72479" lon="15.12812">
        <ele>5.42</ele>
        <time>2018-04-18T05:55:48Z</time>
      </trkpt>
      <trkpt lat="38.72474" lon="15.128">
        <ele>6.39</ele>
        <time>2018-04-18T05:55:57Z</time>
      </trkpt>
      <trkpt lat="38.72471" lon="15.12794">
        <ele>6.39</ele>
        <time>2018-04-18T05:56:02Z</time>
      </trkpt>
      <trkpt lat="38.72469" lon="15.12792">
        <ele>5.91</ele>
        <time>2018-04-18T05:56:06Z</time>
      </trkpt>
      <trkpt lat="38.72458" lon="15.12774">
        <ele>4.94</ele>
        <time>2018-04-18T05:56:21Z</time>
      </trkpt>
      <trkpt lat="38.72455" lon="15.12769">
        <ele>4.94</ele>
        <time>2018-04-18T05:56:27Z</time>
      </trkpt>
      <trkpt lat="38.72453" lon="15.12765">
        <ele>3.98</ele>
        <time>2018-04-18T05:56:31Z</time>
      </trkpt>
      <trkpt lat="38.72441" lon="15.12747">
        <ele>3.98</ele>
        <time>2018-04-18T05:56:47Z</time>
      </trkpt>
      <trkpt lat="38.72438" lon="15.12742">
        <ele>4.46</ele>
        <time>2018-04-18T05:56:51Z</time>
      </trkpt>
      <trkpt lat="38.72435" lon="15.12738">
        <ele>4.46</ele>
        <time>2018-04-18T05:56:55Z</time>
      </trkpt>
      <trkpt lat="38.7242" lon="15.12715">
        <ele>4.46</ele>
        <time>2018-04-18T05:57:15Z</time>
      </trkpt>
      <trkpt lat="38.72415" lon="15.12708">
        <ele>4.46</ele>
        <time>2018-04-18T05:57:22Z</time>
      </trkpt>
      <trkpt lat="38.72402" lon="15.12687">
        <ele>4.46</ele>
        <time>2018-04-18T05:57:40Z</time>
      </trkpt>
      <trkpt lat="38.72397" lon="15.1268">
        <ele>3.98</ele>
        <time>2018-04-18T05:57:47Z</time>
      </trkpt>
      <trkpt lat="38.72396" lon="15.12677">
        <ele>3.98</ele>
        <time>2018-04-18T05:57:49Z</time>
      </trkpt>
      <trkpt lat="38.72393" lon="15.12672">
        <ele>3.5</ele>
        <time>2018-04-18T05:57:54Z</time>
      </trkpt>
      <trkpt lat="38.72387" lon="15.12664">
        <ele>3.98</ele>
        <time>2018-04-18T05:58:02Z</time>
      </trkpt>
      <trkpt lat="38.72386" lon="15.12661">
        <ele>4.46</ele>
        <time>2018-04-18T05:58:04Z</time>
      </trkpt>
      <trkpt lat="38.72375" lon="15.12645">
        <ele>4.46</ele>
        <time>2018-04-18T05:58:20Z</time>
      </trkpt>
      <trkpt lat="38.72363" lon="15.12628">
        <ele>4.94</ele>
        <time>2018-04-18T05:58:36Z</time>
      </trkpt>
      <trkpt lat="38.72352" lon="15.12611">
        <ele>3.98</ele>
        <time>2018-04-18T05:58:52Z</time>
      </trkpt>
      <trkpt lat="38.72342" lon="15.12594">
        <ele>4.46</ele>
        <time>2018-04-18T05:59:09Z</time>
      </trkpt>
      <trkpt lat="38.7233" lon="15.12576">
        <ele>4.46</ele>
        <time>2018-04-18T05:59:28Z</time>
      </trkpt>
      <trkpt lat="38.72327" lon="15.1257">
        <ele>4.94</ele>
        <time>2018-04-18T05:59:33Z</time>
      </trkpt>
      <trkpt lat="38.72324" lon="15.12565">
        <ele>5.91</ele>
        <time>2018-04-18T05:59:39Z</time>
      </trkpt>
      <trkpt lat="38.72315" lon="15.1255">
        <ele>5.42</ele>
        <time>2018-04-18T05:59:54Z</time>
      </trkpt>
      <trkpt lat="38.72303" lon="15.12534">
        <ele>4.94</ele>
        <time>2018-04-18T06:00:12Z</time>
      </trkpt>
      <trkpt lat="38.72294" lon="15.12519">
        <ele>4.46</ele>
        <time>2018-04-18T06:00:28Z</time>
      </trkpt>
      <trkpt lat="38.72285" lon="15.12503">
        <ele>4.46</ele>
        <time>2018-04-18T06:00:45Z</time>
      </trkpt>
      <trkpt lat="38.72274" lon="15.12485">
        <ele>4.94</ele>
        <time>2018-04-18T06:01:06Z</time>
      </trkpt>
      <trkpt lat="38.72265" lon="15.1247">
        <ele>4.94</ele>
        <time>2018-04-18T06:01:23Z</time>
      </trkpt>
      <trkpt lat="38.72255" lon="15.12454">
        <ele>5.42</ele>
        <time>2018-04-18T06:01:40Z</time>
      </trkpt>
      <trkpt lat="38.72247" lon="15.12439">
        <ele>5.91</ele>
        <time>2018-04-18T06:01:55Z</time>
      </trkpt>
      <trkpt lat="38.72246" lon="15.12437">
        <ele>5.91</ele>
        <time>2018-04-18T06:01:57Z</time>
      </trkpt>
      <trkpt lat="38.72241" lon="15.12425">
        <ele>4.46</ele>
        <time>2018-04-18T06:02:09Z</time>
      </trkpt>
      <trkpt lat="38.72233" lon="15.1241">
        <ele>6.39</ele>
        <time>2018-04-18T06:02:24Z</time>
      </trkpt>
      <trkpt lat="38.72229" lon="15.12398">
        <ele>7.35</ele>
        <time>2018-04-18T06:02:35Z</time>
      </trkpt>
      <trkpt lat="38.72224" lon="15.1239">
        <ele>8.31</ele>
        <time>2018-04-18T06:02:43Z</time>
      </trkpt>
      <trkpt lat="38.72222" lon="15.12385">
        <ele>8.31</ele>
        <time>2018-04-18T06:02:48Z</time>
      </trkpt>
      <trkpt lat="38.72221" lon="15.12379">
        <ele>8.31</ele>
        <time>2018-04-18T06:02:54Z</time>
      </trkpt>
      <trkpt lat="38.72214" lon="15.12364">
        <ele>6.87</ele>
        <time>2018-04-18T06:03:10Z</time>
      </trkpt>
      <trkpt lat="38.72207" lon="15.1235">
        <ele>3.98</ele>
        <time>2018-04-18T06:03:25Z</time>
      </trkpt>
      <trkpt lat="38.72201" lon="15.12336">
        <ele>3.02</ele>
        <time>2018-04-18T06:03:41Z</time>
      </trkpt>
      <trkpt lat="38.72194" lon="15.12321">
        <ele>1.1</ele>
        <time>2018-04-18T06:03:58Z</time>
      </trkpt>
      <trkpt lat="38.72186" lon="15.12307">
        <ele>1.1</ele>
        <time>2018-04-18T06:04:14Z</time>
      </trkpt>
      <trkpt lat="38.72175" lon="15.12293">
        <ele>2.06</ele>
        <time>2018-04-18T06:04:34Z</time>
      </trkpt>
      <trkpt lat="38.72173" lon="15.12292">
        <ele>2.06</ele>
        <time>2018-04-18T06:04:36Z</time>
      </trkpt>
      <trkpt lat="38.72172" lon="15.1229">
        <ele>2.06</ele>
        <time>2018-04-18T06:04:38Z</time>
      </trkpt>
      <trkpt lat="38.7217" lon="15.12288">
        <ele>2.54</ele>
        <time>2018-04-18T06:04:41Z</time>
      </trkpt>
      <trkpt lat="38.72157" lon="15.12274">
        <ele>3.02</ele>
        <time>2018-04-18T06:04:56Z</time>
      </trkpt>
      <trkpt lat="38.72154" lon="15.1227">
        <ele>3.02</ele>
        <time>2018-04-18T06:05:00Z</time>
      </trkpt>
      <trkpt lat="38.72151" lon="15.12264">
        <ele>3.98</ele>
        <time>2018-04-18T06:05:05Z</time>
      </trkpt>
      <trkpt lat="38.7214" lon="15.12244">
        <ele>3.98</ele>
        <time>2018-04-18T06:05:22Z</time>
      </trkpt>
      <trkpt lat="38.72128" lon="15.12217">
        <ele>3.98</ele>
        <time>2018-04-18T06:05:40Z</time>
      </trkpt>
      <trkpt lat="38.72104" lon="15.12172">
        <ele>4.94</ele>
        <time>2018-04-18T06:06:00Z</time>
      </trkpt>
      <trkpt lat="38.72077" lon="15.12124">
        <ele>4.46</ele>
        <time>2018-04-18T06:06:18Z</time>
      </trkpt>
      <trkpt lat="38.72048" lon="15.12072">
        <ele>3.98</ele>
        <time>2018-04-18T06:06:36Z</time>
      </trkpt>
      <trkpt lat="38.72016" lon="15.12016">
        <ele>3.98</ele>
        <time>2018-04-18T06:06:54Z</time>
      </trkpt>
      <trkpt lat="38.71993" lon="15.11957">
        <ele>3.5</ele>
        <time>2018-04-18T06:07:11Z</time>
      </trkpt>
      <trkpt lat="38.71981" lon="15.11897">
        <ele>3.98</ele>
        <time>2018-04-18T06:07:27Z</time>
      </trkpt>
      <trkpt lat="38.71966" lon="15.1183">
        <ele>3.5</ele>
        <time>2018-04-18T06:07:45Z</time>
      </trkpt>
      <trkpt lat="38.7195" lon="15.11771">
        <ele>3.98</ele>
        <time>2018-04-18T06:08:01Z</time>
      </trkpt>
      <trkpt lat="38.7193" lon="15.11697">
        <ele>3.5</ele>
        <time>2018-04-18T06:08:21Z</time>
      </trkpt>
      <trkpt lat="38.71912" lon="15.11631">
        <ele>3.02</ele>
        <time>2018-04-18T06:08:39Z</time>
      </trkpt>
      <trkpt lat="38.71896" lon="15.11572">
        <ele>3.02</ele>
        <time>2018-04-18T06:08:55Z</time>
      </trkpt>
      <trkpt lat="38.71878" lon="15.11506">
        <ele>3.02</ele>
        <time>2018-04-18T06:09:13Z</time>
      </trkpt>
      <trkpt lat="38.7186" lon="15.11439">
        <ele>3.5</ele>
        <time>2018-04-18T06:09:31Z</time>
      </trkpt>
      <trkpt lat="38.71843" lon="15.11376">
        <ele>3.98</ele>
        <time>2018-04-18T06:09:48Z</time>
      </trkpt>
      <trkpt lat="38.71825" lon="15.11314">
        <ele>3.02</ele>
        <time>2018-04-18T06:10:05Z</time>
      </trkpt>
      <trkpt lat="38.71809" lon="15.11256">
        <ele>3.5</ele>
        <time>2018-04-18T06:10:21Z</time>
      </trkpt>
      <trkpt lat="38.71785" lon="15.11174">
        <ele>3.5</ele>
        <time>2018-04-18T06:10:43Z</time>
      </trkpt>
      <trkpt lat="38.71767" lon="15.11108">
        <ele>3.5</ele>
        <time>2018-04-18T06:11:01Z</time>
      </trkpt>
      <trkpt lat="38.71749" lon="15.11045">
        <ele>3.98</ele>
        <time>2018-04-18T06:11:18Z</time>
      </trkpt>
      <trkpt lat="38.71727" lon="15.10967">
        <ele>4.94</ele>
        <time>2018-04-18T06:11:39Z</time>
      </trkpt>
      <trkpt lat="38.71705" lon="15.10885">
        <ele>4.94</ele>
        <time>2018-04-18T06:12:01Z</time>
      </trkpt>
      <trkpt lat="38.71683" lon="15.10804">
        <ele>5.42</ele>
        <time>2018-04-18T06:12:23Z</time>
      </trkpt>
      <trkpt lat="38.71669" lon="15.10753">
        <ele>5.42</ele>
        <time>2018-04-18T06:12:37Z</time>
      </trkpt>
      <trkpt lat="38.71653" lon="15.10696">
        <ele>5.91</ele>
        <time>2018-04-18T06:12:52Z</time>
      </trkpt>
      <trkpt lat="38.7164" lon="15.10645">
        <ele>3.98</ele>
        <time>2018-04-18T06:13:06Z</time>
      </trkpt>
      <trkpt lat="38.71623" lon="15.10582">
        <ele>4.46</ele>
        <time>2018-04-18T06:13:23Z</time>
      </trkpt>
      <trkpt lat="38.71607" lon="15.1052">
        <ele>2.54</ele>
        <time>2018-04-18T06:13:40Z</time>
      </trkpt>
      <trkpt lat="38.7159" lon="15.10453">
        <ele>3.02</ele>
        <time>2018-04-18T06:13:58Z</time>
      </trkpt>
      <trkpt lat="38.7157" lon="15.10382">
        <ele>3.5</ele>
        <time>2018-04-18T06:14:17Z</time>
      </trkpt>
      <trkpt lat="38.7155" lon="15.10307">
        <ele>4.94</ele>
        <time>2018-04-18T06:14:37Z</time>
      </trkpt>
      <trkpt lat="38.71528" lon="15.10225">
        <ele>5.42</ele>
        <time>2018-04-18T06:14:59Z</time>
      </trkpt>
      <trkpt lat="38.71513" lon="15.10168">
        <ele>5.42</ele>
        <time>2018-04-18T06:15:14Z</time>
      </trkpt>
      <trkpt lat="38.71496" lon="15.10104">
        <ele>5.91</ele>
        <time>2018-04-18T06:15:31Z</time>
      </trkpt>
      <trkpt lat="38.71479" lon="15.10041">
        <ele>5.91</ele>
        <time>2018-04-18T06:15:48Z</time>
      </trkpt>
      <trkpt lat="38.71459" lon="15.09966">
        <ele>6.39</ele>
        <time>2018-04-18T06:16:08Z</time>
      </trkpt>
      <trkpt lat="38.71441" lon="15.09895">
        <ele>5.91</ele>
        <time>2018-04-18T06:16:27Z</time>
      </trkpt>
      <trkpt lat="38.71422" lon="15.09824">
        <ele>5.42</ele>
        <time>2018-04-18T06:16:46Z</time>
      </trkpt>
      <trkpt lat="38.71405" lon="15.09756">
        <ele>5.91</ele>
        <time>2018-04-18T06:17:04Z</time>
      </trkpt>
      <trkpt lat="38.71391" lon="15.09704">
        <ele>5.42</ele>
        <time>2018-04-18T06:17:18Z</time>
      </trkpt>
      <trkpt lat="38.71377" lon="15.09649">
        <ele>4.46</ele>
        <time>2018-04-18T06:17:33Z</time>
      </trkpt>
      <trkpt lat="38.71361" lon="15.09586">
        <ele>5.42</ele>
        <time>2018-04-18T06:17:50Z</time>
      </trkpt>
      <trkpt lat="38.71345" lon="15.09526">
        <ele>5.91</ele>
        <time>2018-04-18T06:18:06Z</time>
      </trkpt>
      <trkpt lat="38.7133" lon="15.09466">
        <ele>5.42</ele>
        <time>2018-04-18T06:18:22Z</time>
      </trkpt>
      <trkpt lat="38.71309" lon="15.09384">
        <ele>5.91</ele>
        <time>2018-04-18T06:18:44Z</time>
      </trkpt>
      <trkpt lat="38.71294" lon="15.09329">
        <ele>5.42</ele>
        <time>2018-04-18T06:18:59Z</time>
      </trkpt>
      <trkpt lat="38.71279" lon="15.09271">
        <ele>6.39</ele>
        <time>2018-04-18T06:19:15Z</time>
      </trkpt>
      <trkpt lat="38.71268" lon="15.09225">
        <ele>2.54</ele>
        <time>2018-04-18T06:19:28Z</time>
      </trkpt>
      <trkpt lat="38.71252" lon="15.09163">
        <ele>1.58</ele>
        <time>2018-04-18T06:19:45Z</time>
      </trkpt>
      <trkpt lat="38.71235" lon="15.09101">
        <ele>3.98</ele>
        <time>2018-04-18T06:20:02Z</time>
      </trkpt>
      <trkpt lat="38.71223" lon="15.09052">
        <ele>2.06</ele>
        <time>2018-04-18T06:20:14Z</time>
      </trkpt>
      <trkpt lat="38.71208" lon="15.08998">
        <ele>0.62</ele>
        <time>2018-04-18T06:20:29Z</time>
      </trkpt>
      <trkpt lat="38.71193" lon="15.08945">
        <ele>1.1</ele>
        <time>2018-04-18T06:20:44Z</time>
      </trkpt>
      <trkpt lat="38.71184" lon="15.08903">
        <ele>2.54</ele>
        <time>2018-04-18T06:20:56Z</time>
      </trkpt>
      <trkpt lat="38.71169" lon="15.08843">
        <ele>4.94</ele>
        <time>2018-04-18T06:21:12Z</time>
      </trkpt>
      <trkpt lat="38.71156" lon="15.08789">
        <ele>4.94</ele>
        <time>2018-04-18T06:21:27Z</time>
      </trkpt>
      <trkpt lat="38.7114" lon="15.08727">
        <ele>4.94</ele>
        <time>2018-04-18T06:21:44Z</time>
      </trkpt>
      <trkpt lat="38.7112" lon="15.08646">
        <ele>4.46</ele>
        <time>2018-04-18T06:22:06Z</time>
      </trkpt>
      <trkpt lat="38.71101" lon="15.0857">
        <ele>4.94</ele>
        <time>2018-04-18T06:22:27Z</time>
      </trkpt>
      <trkpt lat="38.71084" lon="15.08508">
        <ele>4.94</ele>
        <time>2018-04-18T06:22:44Z</time>
      </trkpt>
      <trkpt lat="38.71067" lon="15.08439">
        <ele>5.42</ele>
        <time>2018-04-18T06:23:03Z</time>
      </trkpt>
      <trkpt lat="38.71048" lon="15.08367">
        <ele>4.94</ele>
        <time>2018-04-18T06:23:23Z</time>
      </trkpt>
      <trkpt lat="38.71023" lon="15.08273">
        <ele>4.46</ele>
        <time>2018-04-18T06:23:49Z</time>
      </trkpt>
      <trkpt lat="38.71001" lon="15.08186">
        <ele>4.46</ele>
        <time>2018-04-18T06:24:13Z</time>
      </trkpt>
      <trkpt lat="38.70984" lon="15.08117">
        <ele>4.94</ele>
        <time>2018-04-18T06:24:32Z</time>
      </trkpt>
      <trkpt lat="38.70967" lon="15.08051">
        <ele>4.94</ele>
        <time>2018-04-18T06:24:50Z</time>
      </trkpt>
      <trkpt lat="38.70951" lon="15.0799">
        <ele>4.94</ele>
        <time>2018-04-18T06:25:07Z</time>
      </trkpt>
      <trkpt lat="38.70937" lon="15.07931">
        <ele>4.94</ele>
        <time>2018-04-18T06:25:23Z</time>
      </trkpt>
      <trkpt lat="38.7092" lon="15.07866">
        <ele>5.42</ele>
        <time>2018-04-18T06:25:41Z</time>
      </trkpt>
      <trkpt lat="38.70904" lon="15.07804">
        <ele>5.42</ele>
        <time>2018-04-18T06:25:58Z</time>
      </trkpt>
      <trkpt lat="38.70885" lon="15.07732">
        <ele>4.94</ele>
        <time>2018-04-18T06:26:18Z</time>
      </trkpt>
      <trkpt lat="38.70867" lon="15.0766">
        <ele>4.94</ele>
        <time>2018-04-18T06:26:38Z</time>
      </trkpt>
      <trkpt lat="38.70852" lon="15.07602">
        <ele>5.91</ele>
        <time>2018-04-18T06:26:54Z</time>
      </trkpt>
      <trkpt lat="38.70832" lon="15.07524">
        <ele>6.39</ele>
        <time>2018-04-18T06:27:15Z</time>
      </trkpt>
      <trkpt lat="38.70815" lon="15.07455">
        <ele>7.35</ele>
        <time>2018-04-18T06:27:34Z</time>
      </trkpt>
      <trkpt lat="38.708" lon="15.07396">
        <ele>7.35</ele>
        <time>2018-04-18T06:27:50Z</time>
      </trkpt>
      <trkpt lat="38.70779" lon="15.07316">
        <ele>7.83</ele>
        <time>2018-04-18T06:28:12Z</time>
      </trkpt>
      <trkpt lat="38.70765" lon="15.07259">
        <ele>8.31</ele>
        <time>2018-04-18T06:28:28Z</time>
      </trkpt>
      <trkpt lat="38.70754" lon="15.07215">
        <ele>8.79</ele>
        <time>2018-04-18T06:28:39Z</time>
      </trkpt>
      <trkpt lat="38.7074" lon="15.07159">
        <ele>6.39</ele>
        <time>2018-04-18T06:28:54Z</time>
      </trkpt>
      <trkpt lat="38.70725" lon="15.07101">
        <ele>5.42</ele>
        <time>2018-04-18T06:29:10Z</time>
      </trkpt>
      <trkpt lat="38.70709" lon="15.07031">
        <ele>5.42</ele>
        <time>2018-04-18T06:29:29Z</time>
      </trkpt>
      <trkpt lat="38.70697" lon="15.06986">
        <ele>5.42</ele>
        <time>2018-04-18T06:29:42Z</time>
      </trkpt>
      <trkpt lat="38.70682" lon="15.06928">
        <ele>4.46</ele>
        <time>2018-04-18T06:29:58Z</time>
      </trkpt>
      <trkpt lat="38.70671" lon="15.06883">
        <ele>4.46</ele>
        <time>2018-04-18T06:30:11Z</time>
      </trkpt>
      <trkpt lat="38.70654" lon="15.06814">
        <ele>3.98</ele>
        <time>2018-04-18T06:30:30Z</time>
      </trkpt>
      <trkpt lat="38.70639" lon="15.06748">
        <ele>4.46</ele>
        <time>2018-04-18T06:30:48Z</time>
      </trkpt>
      <trkpt lat="38.7062" lon="15.06677">
        <ele>3.98</ele>
        <time>2018-04-18T06:31:08Z</time>
      </trkpt>
      <trkpt lat="38.70607" lon="15.06621">
        <ele>3.5</ele>
        <time>2018-04-18T06:31:23Z</time>
      </trkpt>
      <trkpt lat="38.70587" lon="15.06538">
        <ele>3.98</ele>
        <time>2018-04-18T06:31:46Z</time>
      </trkpt>
      <trkpt lat="38.70567" lon="15.06462">
        <ele>4.46</ele>
        <time>2018-04-18T06:32:07Z</time>
      </trkpt>
      <trkpt lat="38.70549" lon="15.06389">
        <ele>3.98</ele>
        <time>2018-04-18T06:32:27Z</time>
      </trkpt>
      <trkpt lat="38.70531" lon="15.06318">
        <ele>3.98</ele>
        <time>2018-04-18T06:32:46Z</time>
      </trkpt>
      <trkpt lat="38.70514" lon="15.06253">
        <ele>3.02</ele>
        <time>2018-04-18T06:33:04Z</time>
      </trkpt>
      <trkpt lat="38.70495" lon="15.06184">
        <ele>3.02</ele>
        <time>2018-04-18T06:33:23Z</time>
      </trkpt>
      <trkpt lat="38.70471" lon="15.0609">
        <ele>1.58</ele>
        <time>2018-04-18T06:33:49Z</time>
      </trkpt>
      <trkpt lat="38.70453" lon="15.06021">
        <ele>1.58</ele>
        <time>2018-04-18T06:34:08Z</time>
      </trkpt>
      <trkpt lat="38.70435" lon="15.05951">
        <ele>3.02</ele>
        <time>2018-04-18T06:34:27Z</time>
      </trkpt>
      <trkpt lat="38.70414" lon="15.05875">
        <ele>4.46</ele>
        <time>2018-04-18T06:34:48Z</time>
      </trkpt>
      <trkpt lat="38.70392" lon="15.05792">
        <ele>4.46</ele>
        <time>2018-04-18T06:35:11Z</time>
      </trkpt>
      <trkpt lat="38.70376" lon="15.05726">
        <ele>4.94</ele>
        <time>2018-04-18T06:35:29Z</time>
      </trkpt>
      <trkpt lat="38.70357" lon="15.05649">
        <ele>4.46</ele>
        <time>2018-04-18T06:35:50Z</time>
      </trkpt>
      <trkpt lat="38.70339" lon="15.05579">
        <ele>3.98</ele>
        <time>2018-04-18T06:36:09Z</time>
      </trkpt>
      <trkpt lat="38.70322" lon="15.05513">
        <ele>3.98</ele>
        <time>2018-04-18T06:36:27Z</time>
      </trkpt>
      <trkpt lat="38.70303" lon="15.05444">
        <ele>3.98</ele>
        <time>2018-04-18T06:36:46Z</time>
      </trkpt>
      <trkpt lat="38.70283" lon="15.05363">
        <ele>2.54</ele>
        <time>2018-04-18T06:37:08Z</time>
      </trkpt>
      <trkpt lat="38.70263" lon="15.05289">
        <ele>1.1</ele>
        <time>2018-04-18T06:37:28Z</time>
      </trkpt>
      <trkpt lat="38.70243" lon="15.05211">
        <ele>1.1</ele>
        <time>2018-04-18T06:37:49Z</time>
      </trkpt>
      <trkpt lat="38.7022" lon="15.05127">
        <ele>1.58</ele>
        <time>2018-04-18T06:38:12Z</time>
      </trkpt>
      <trkpt lat="38.70199" lon="15.05051">
        <ele>2.06</ele>
        <time>2018-04-18T06:38:33Z</time>
      </trkpt>
      <trkpt lat="38.70186" lon="15.04997">
        <ele>2.54</ele>
        <time>2018-04-18T06:38:48Z</time>
      </trkpt>
      <trkpt lat="38.7017" lon="15.04941">
        <ele>3.5</ele>
        <time>2018-04-18T06:39:03Z</time>
      </trkpt>
      <trkpt lat="38.70155" lon="15.04883">
        <ele>2.54</ele>
        <time>2018-04-18T06:39:18Z</time>
      </trkpt>
      <trkpt lat="38.7014" lon="15.04828">
        <ele>1.58</ele>
        <time>2018-04-18T06:39:33Z</time>
      </trkpt>
      <trkpt lat="38.70128" lon="15.04782">
        <ele>2.06</ele>
        <time>2018-04-18T06:39:46Z</time>
      </trkpt>
      <trkpt lat="38.70112" lon="15.04723">
        <ele>3.02</ele>
        <time>2018-04-18T06:40:03Z</time>
      </trkpt>
      <trkpt lat="38.70099" lon="15.04677">
        <ele>3.02</ele>
        <time>2018-04-18T06:40:16Z</time>
      </trkpt>
      <trkpt lat="38.7008" lon="15.04609">
        <ele>3.02</ele>
        <time>2018-04-18T06:40:35Z</time>
      </trkpt>
      <trkpt lat="38.70066" lon="15.04555">
        <ele>3.02</ele>
        <time>2018-04-18T06:40:50Z</time>
      </trkpt>
      <trkpt lat="38.70048" lon="15.04492">
        <ele>3.98</ele>
        <time>2018-04-18T06:41:08Z</time>
      </trkpt>
      <trkpt lat="38.70032" lon="15.04435">
        <ele>4.46</ele>
        <time>2018-04-18T06:41:24Z</time>
      </trkpt>
      <trkpt lat="38.70016" lon="15.04371">
        <ele>4.94</ele>
        <time>2018-04-18T06:41:42Z</time>
      </trkpt>
      <trkpt lat="38.69996" lon="15.04297">
        <ele>4.94</ele>
        <time>2018-04-18T06:42:03Z</time>
      </trkpt>
      <trkpt lat="38.69981" lon="15.0424">
        <ele>5.42</ele>
        <time>2018-04-18T06:42:19Z</time>
      </trkpt>
      <trkpt lat="38.69964" lon="15.04175">
        <ele>5.42</ele>
        <time>2018-04-18T06:42:37Z</time>
      </trkpt>
      <trkpt lat="38.6995" lon="15.04121">
        <ele>5.42</ele>
        <time>2018-04-18T06:42:52Z</time>
      </trkpt>
      <trkpt lat="38.69934" lon="15.04063">
        <ele>4.46</ele>
        <time>2018-04-18T06:43:08Z</time>
      </trkpt>
      <trkpt lat="38.69921" lon="15.04014">
        <ele>4.94</ele>
        <time>2018-04-18T06:43:22Z</time>
      </trkpt>
      <trkpt lat="38.69903" lon="15.03946">
        <ele>3.98</ele>
        <time>2018-04-18T06:43:41Z</time>
      </trkpt>
      <trkpt lat="38.69885" lon="15.0388">
        <ele>3.98</ele>
        <time>2018-04-18T06:43:59Z</time>
      </trkpt>
      <trkpt lat="38.69869" lon="15.03823">
        <ele>3.98</ele>
        <time>2018-04-18T06:44:15Z</time>
      </trkpt>
      <trkpt lat="38.69852" lon="15.03755">
        <ele>4.46</ele>
        <time>2018-04-18T06:44:34Z</time>
      </trkpt>
      <trkpt lat="38.69837" lon="15.03698">
        <ele>4.94</ele>
        <time>2018-04-18T06:44:50Z</time>
      </trkpt>
      <trkpt lat="38.69821" lon="15.0364">
        <ele>3.5</ele>
        <time>2018-04-18T06:45:06Z</time>
      </trkpt>
      <trkpt lat="38.69804" lon="15.03576">
        <ele>3.02</ele>
        <time>2018-04-18T06:45:24Z</time>
      </trkpt>
      <trkpt lat="38.69787" lon="15.03513">
        <ele>3.5</ele>
        <time>2018-04-18T06:45:42Z</time>
      </trkpt>
      <trkpt lat="38.69766" lon="15.03439">
        <ele>3.5</ele>
        <time>2018-04-18T06:46:03Z</time>
      </trkpt>
      <trkpt lat="38.69749" lon="15.03372">
        <ele>3.98</ele>
        <time>2018-04-18T06:46:22Z</time>
      </trkpt>
      <trkpt lat="38.69729" lon="15.03297">
        <ele>4.46</ele>
        <time>2018-04-18T06:46:43Z</time>
      </trkpt>
      <trkpt lat="38.6971" lon="15.03226">
        <ele>5.42</ele>
        <time>2018-04-18T06:47:03Z</time>
      </trkpt>
      <trkpt lat="38.69691" lon="15.03154">
        <ele>5.42</ele>
        <time>2018-04-18T06:47:23Z</time>
      </trkpt>
      <trkpt lat="38.69672" lon="15.03083">
        <ele>4.94</ele>
        <time>2018-04-18T06:47:43Z</time>
      </trkpt>
      <trkpt lat="38.69655" lon="15.03015">
        <ele>5.42</ele>
        <time>2018-04-18T06:48:02Z</time>
      </trkpt>
      <trkpt lat="38.69642" lon="15.02965">
        <ele>4.46</ele>
        <time>2018-04-18T06:48:16Z</time>
      </trkpt>
      <trkpt lat="38.69626" lon="15.02898">
        <ele>5.91</ele>
        <time>2018-04-18T06:48:35Z</time>
      </trkpt>
      <trkpt lat="38.69612" lon="15.02841">
        <ele>5.91</ele>
        <time>2018-04-18T06:48:51Z</time>
      </trkpt>
      <trkpt lat="38.69598" lon="15.02784">
        <ele>6.39</ele>
        <time>2018-04-18T06:49:07Z</time>
      </trkpt>
      <trkpt lat="38.69581" lon="15.0272">
        <ele>5.42</ele>
        <time>2018-04-18T06:49:25Z</time>
      </trkpt>
      <trkpt lat="38.69563" lon="15.02651">
        <ele>4.46</ele>
        <time>2018-04-18T06:49:44Z</time>
      </trkpt>
      <trkpt lat="38.69552" lon="15.02597">
        <ele>3.5</ele>
        <time>2018-04-18T06:49:59Z</time>
      </trkpt>
      <trkpt lat="38.69537" lon="15.02537">
        <ele>3.98</ele>
        <time>2018-04-18T06:50:16Z</time>
      </trkpt>
      <trkpt lat="38.69519" lon="15.02473">
        <ele>3.98</ele>
        <time>2018-04-18T06:50:34Z</time>
      </trkpt>
      <trkpt lat="38.69508" lon="15.02433">
        <ele>3.5</ele>
        <time>2018-04-18T06:50:45Z</time>
      </trkpt>
      <trkpt lat="38.69491" lon="15.02365">
        <ele>2.54</ele>
        <time>2018-04-18T06:51:04Z</time>
      </trkpt>
      <trkpt lat="38.69477" lon="15.02311">
        <ele>3.5</ele>
        <time>2018-04-18T06:51:19Z</time>
      </trkpt>
      <trkpt lat="38.69461" lon="15.02247">
        <ele>3.02</ele>
        <time>2018-04-18T06:51:37Z</time>
      </trkpt>
      <trkpt lat="38.69448" lon="15.02192">
        <ele>3.98</ele>
        <time>2018-04-18T06:51:53Z</time>
      </trkpt>
      <trkpt lat="38.69431" lon="15.02124">
        <ele>3.5</ele>
        <time>2018-04-18T06:52:12Z</time>
      </trkpt>
      <trkpt lat="38.69414" lon="15.02057">
        <ele>3.02</ele>
        <time>2018-04-18T06:52:31Z</time>
      </trkpt>
      <trkpt lat="38.69398" lon="15.01992">
        <ele>3.02</ele>
        <time>2018-04-18T06:52:49Z</time>
      </trkpt>
      <trkpt lat="38.69386" lon="15.01946">
        <ele>3.5</ele>
        <time>2018-04-18T06:53:02Z</time>
      </trkpt>
      <trkpt lat="38.69372" lon="15.01885">
        <ele>3.5</ele>
        <time>2018-04-18T06:53:19Z</time>
      </trkpt>
      <trkpt lat="38.69357" lon="15.01824">
        <ele>3.5</ele>
        <time>2018-04-18T06:53:36Z</time>
      </trkpt>
      <trkpt lat="38.69345" lon="15.01776">
        <ele>3.02</ele>
        <time>2018-04-18T06:53:49Z</time>
      </trkpt>
      <trkpt lat="38.69328" lon="15.01712">
        <ele>3.98</ele>
        <time>2018-04-18T06:54:07Z</time>
      </trkpt>
      <trkpt lat="38.69315" lon="15.01659">
        <ele>3.02</ele>
        <time>2018-04-18T06:54:22Z</time>
      </trkpt>
      <trkpt lat="38.69293" lon="15.01577">
        <ele>3.5</ele>
        <time>2018-04-18T06:54:45Z</time>
      </trkpt>
      <trkpt lat="38.69271" lon="15.015">
        <ele>3.5</ele>
        <time>2018-04-18T06:55:07Z</time>
      </trkpt>
      <trkpt lat="38.69253" lon="15.01436">
        <ele>2.06</ele>
        <time>2018-04-18T06:55:25Z</time>
      </trkpt>
      <trkpt lat="38.69237" lon="15.01379">
        <ele>2.54</ele>
        <time>2018-04-18T06:55:41Z</time>
      </trkpt>
      <trkpt lat="38.69224" lon="15.01329">
        <ele>2.06</ele>
        <time>2018-04-18T06:55:55Z</time>
      </trkpt>
      <trkpt lat="38.69206" lon="15.0126">
        <ele>1.58</ele>
        <time>2018-04-18T06:56:14Z</time>
      </trkpt>
      <trkpt lat="38.69189" lon="15.01199">
        <ele>2.54</ele>
        <time>2018-04-18T06:56:31Z</time>
      </trkpt>
      <trkpt lat="38.69172" lon="15.01135">
        <ele>2.54</ele>
        <time>2018-04-18T06:56:49Z</time>
      </trkpt>
      <trkpt lat="38.69159" lon="15.01084">
        <ele>3.5</ele>
        <time>2018-04-18T06:57:03Z</time>
      </trkpt>
      <trkpt lat="38.69141" lon="15.01016">
        <ele>3.5</ele>
        <time>2018-04-18T06:57:22Z</time>
      </trkpt>
      <trkpt lat="38.69122" lon="15.00945">
        <ele>3.98</ele>
        <time>2018-04-18T06:57:42Z</time>
      </trkpt>
      <trkpt lat="38.69104" lon="15.00878">
        <ele>3.98</ele>
        <time>2018-04-18T06:58:01Z</time>
      </trkpt>
      <trkpt lat="38.69086" lon="15.00811">
        <ele>3.5</ele>
        <time>2018-04-18T06:58:20Z</time>
      </trkpt>
      <trkpt lat="38.69069" lon="15.00748">
        <ele>3.98</ele>
        <time>2018-04-18T06:58:38Z</time>
      </trkpt>
      <trkpt lat="38.69052" lon="15.00687">
        <ele>3.02</ele>
        <time>2018-04-18T06:58:55Z</time>
      </trkpt>
      <trkpt lat="38.69036" lon="15.00627">
        <ele>3.5</ele>
        <time>2018-04-18T06:59:12Z</time>
      </trkpt>
      <trkpt lat="38.6902" lon="15.00566">
        <ele>3.5</ele>
        <time>2018-04-18T06:59:29Z</time>
      </trkpt>
      <trkpt lat="38.69001" lon="15.00499">
        <ele>3.02</ele>
        <time>2018-04-18T06:59:48Z</time>
      </trkpt>
      <trkpt lat="38.68984" lon="15.00435">
        <ele>3.02</ele>
        <time>2018-04-18T07:00:06Z</time>
      </trkpt>
      <trkpt lat="38.68968" lon="15.00375">
        <ele>3.98</ele>
        <time>2018-04-18T07:00:23Z</time>
      </trkpt>
      <trkpt lat="38.6895" lon="15.00313">
        <ele>3.02</ele>
        <time>2018-04-18T07:00:40Z</time>
      </trkpt>
      <trkpt lat="38.68937" lon="15.00264">
        <ele>3.02</ele>
        <time>2018-04-18T07:00:54Z</time>
      </trkpt>
      <trkpt lat="38.68925" lon="15.00218">
        <ele>3.02</ele>
        <time>2018-04-18T07:01:07Z</time>
      </trkpt>
      <trkpt lat="38.68911" lon="15.00164">
        <ele>3.5</ele>
        <time>2018-04-18T07:01:22Z</time>
      </trkpt>
      <trkpt lat="38.68911" lon="15.00118">
        <ele>3.5</ele>
        <time>2018-04-18T07:01:35Z</time>
      </trkpt>
      <trkpt lat="38.68922" lon="15.00068">
        <ele>3.98</ele>
        <time>2018-04-18T07:01:49Z</time>
      </trkpt>
      <trkpt lat="38.68945" lon="15.00012">
        <ele>3.98</ele>
        <time>2018-04-18T07:02:06Z</time>
      </trkpt>
      <trkpt lat="38.68964" lon="14.99953">
        <ele>4.94</ele>
        <time>2018-04-18T07:02:23Z</time>
      </trkpt>
      <trkpt lat="38.68957" lon="14.99907">
        <ele>4.46</ele>
        <time>2018-04-18T07:02:36Z</time>
      </trkpt>
      <trkpt lat="38.68944" lon="14.99847">
        <ele>4.46</ele>
        <time>2018-04-18T07:02:53Z</time>
      </trkpt>
      <trkpt lat="38.6894" lon="14.99829">
        <ele>4.46</ele>
        <time>2018-04-18T07:02:58Z</time>
      </trkpt>
      <trkpt lat="38.68934" lon="14.99805">
        <ele>3.5</ele>
        <time>2018-04-18T07:03:04Z</time>
      </trkpt>
      <trkpt lat="38.6893" lon="14.99761">
        <ele>3.98</ele>
        <time>2018-04-18T07:03:15Z</time>
      </trkpt>
      <trkpt lat="38.68924" lon="14.99706">
        <ele>2.54</ele>
        <time>2018-04-18T07:03:31Z</time>
      </trkpt>
      <trkpt lat="38.68919" lon="14.99666">
        <ele>3.5</ele>
        <time>2018-04-18T07:03:42Z</time>
      </trkpt>
      <trkpt lat="38.68908" lon="14.99605">
        <ele>3.5</ele>
        <time>2018-04-18T07:03:59Z</time>
      </trkpt>
      <trkpt lat="38.68895" lon="14.99547">
        <ele>3.5</ele>
        <time>2018-04-18T07:04:15Z</time>
      </trkpt>
      <trkpt lat="38.68887" lon="14.99494">
        <ele>3.98</ele>
        <time>2018-04-18T07:04:30Z</time>
      </trkpt>
      <trkpt lat="38.68866" lon="14.99411">
        <ele>4.94</ele>
        <time>2018-04-18T07:04:54Z</time>
      </trkpt>
      <trkpt lat="38.68847" lon="14.99343">
        <ele>4.94</ele>
        <time>2018-04-18T07:05:14Z</time>
      </trkpt>
      <trkpt lat="38.68831" lon="14.9929">
        <ele>4.46</ele>
        <time>2018-04-18T07:05:29Z</time>
      </trkpt>
      <trkpt lat="38.68819" lon="14.99244">
        <ele>3.5</ele>
        <time>2018-04-18T07:05:42Z</time>
      </trkpt>
      <trkpt lat="38.68806" lon="14.99196">
        <ele>3.5</ele>
        <time>2018-04-18T07:05:56Z</time>
      </trkpt>
      <trkpt lat="38.6879" lon="14.99134">
        <ele>3.5</ele>
        <time>2018-04-18T07:06:14Z</time>
      </trkpt>
      <trkpt lat="38.68776" lon="14.99086">
        <ele>3.02</ele>
        <time>2018-04-18T07:06:28Z</time>
      </trkpt>
      <trkpt lat="38.68758" lon="14.9902">
        <ele>2.06</ele>
        <time>2018-04-18T07:06:47Z</time>
      </trkpt>
      <trkpt lat="38.68738" lon="14.98948">
        <ele>2.06</ele>
        <time>2018-04-18T07:07:08Z</time>
      </trkpt>
      <trkpt lat="38.6872" lon="14.98886">
        <ele>2.06</ele>
        <time>2018-04-18T07:07:26Z</time>
      </trkpt>
      <trkpt lat="38.68701" lon="14.98818">
        <ele>2.54</ele>
        <time>2018-04-18T07:07:46Z</time>
      </trkpt>
      <trkpt lat="38.68683" lon="14.98754">
        <ele>2.54</ele>
        <time>2018-04-18T07:08:05Z</time>
      </trkpt>
      <trkpt lat="38.68667" lon="14.98698">
        <ele>2.54</ele>
        <time>2018-04-18T07:08:21Z</time>
      </trkpt>
      <trkpt lat="38.6865" lon="14.98637">
        <ele>2.54</ele>
        <time>2018-04-18T07:08:39Z</time>
      </trkpt>
      <trkpt lat="38.68629" lon="14.98566">
        <ele>2.54</ele>
        <time>2018-04-18T07:09:00Z</time>
      </trkpt>
      <trkpt lat="38.68612" lon="14.98507">
        <ele>2.06</ele>
        <time>2018-04-18T07:09:17Z</time>
      </trkpt>
      <trkpt lat="38.68594" lon="14.98448">
        <ele>1.1</ele>
        <time>2018-04-18T07:09:34Z</time>
      </trkpt>
      <trkpt lat="38.68581" lon="14.98397">
        <ele>2.54</ele>
        <time>2018-04-18T07:09:49Z</time>
      </trkpt>
      <trkpt lat="38.68563" lon="14.98338">
        <ele>3.5</ele>
        <time>2018-04-18T07:10:06Z</time>
      </trkpt>
      <trkpt lat="38.68544" lon="14.98272">
        <ele>4.46</ele>
        <time>2018-04-18T07:10:25Z</time>
      </trkpt>
      <trkpt lat="38.6853" lon="14.98224">
        <ele>3.5</ele>
        <time>2018-04-18T07:10:39Z</time>
      </trkpt>
      <trkpt lat="38.68516" lon="14.98169">
        <ele>3.5</ele>
        <time>2018-04-18T07:10:55Z</time>
      </trkpt>
      <trkpt lat="38.68504" lon="14.98125">
        <ele>3.98</ele>
        <time>2018-04-18T07:11:08Z</time>
      </trkpt>
      <trkpt lat="38.68486" lon="14.98062">
        <ele>3.5</ele>
        <time>2018-04-18T07:11:26Z</time>
      </trkpt>
      <trkpt lat="38.6847" lon="14.98003">
        <ele>3.5</ele>
        <time>2018-04-18T07:11:43Z</time>
      </trkpt>
      <trkpt lat="38.6845" lon="14.97934">
        <ele>3.02</ele>
        <time>2018-04-18T07:12:03Z</time>
      </trkpt>
      <trkpt lat="38.68432" lon="14.97864">
        <ele>2.54</ele>
        <time>2018-04-18T07:12:23Z</time>
      </trkpt>
      <trkpt lat="38.68415" lon="14.97806">
        <ele>2.06</ele>
        <time>2018-04-18T07:12:39Z</time>
      </trkpt>
      <trkpt lat="38.68399" lon="14.9775">
        <ele>1.1</ele>
        <time>2018-04-18T07:12:54Z</time>
      </trkpt>
      <trkpt lat="38.68387" lon="14.97701">
        <ele>0.14</ele>
        <time>2018-04-18T07:13:09Z</time>
      </trkpt>
      <trkpt lat="38.68367" lon="14.97629">
        <ele>2.06</ele>
        <time>2018-04-18T07:13:30Z</time>
      </trkpt>
      <trkpt lat="38.6835" lon="14.97565">
        <ele>2.06</ele>
        <time>2018-04-18T07:13:48Z</time>
      </trkpt>
      <trkpt lat="38.68329" lon="14.97484">
        <ele>2.06</ele>
        <time>2018-04-18T07:14:11Z</time>
      </trkpt>
      <trkpt lat="38.68307" lon="14.97401">
        <ele>3.02</ele>
        <time>2018-04-18T07:14:35Z</time>
      </trkpt>
      <trkpt lat="38.68287" lon="14.9732">
        <ele>3.98</ele>
        <time>2018-04-18T07:14:58Z</time>
      </trkpt>
      <trkpt lat="38.68265" lon="14.97241">
        <ele>3.02</ele>
        <time>2018-04-18T07:15:20Z</time>
      </trkpt>
      <trkpt lat="38.68245" lon="14.9717">
        <ele>2.54</ele>
        <time>2018-04-18T07:15:40Z</time>
      </trkpt>
      <trkpt lat="38.68226" lon="14.97096">
        <ele>3.02</ele>
        <time>2018-04-18T07:16:01Z</time>
      </trkpt>
      <trkpt lat="38.68205" lon="14.97024">
        <ele>3.02</ele>
        <time>2018-04-18T07:16:21Z</time>
      </trkpt>
      <trkpt lat="38.68193" lon="14.96978">
        <ele>3.98</ele>
        <time>2018-04-18T07:16:34Z</time>
      </trkpt>
      <trkpt lat="38.68173" lon="14.96904">
        <ele>3.02</ele>
        <time>2018-04-18T07:16:55Z</time>
      </trkpt>
      <trkpt lat="38.68153" lon="14.96828">
        <ele>3.5</ele>
        <time>2018-04-18T07:17:16Z</time>
      </trkpt>
      <trkpt lat="38.68135" lon="14.9676">
        <ele>3.5</ele>
        <time>2018-04-18T07:17:35Z</time>
      </trkpt>
      <trkpt lat="38.68113" lon="14.96677">
        <ele>3.98</ele>
        <time>2018-04-18T07:17:58Z</time>
      </trkpt>
      <trkpt lat="38.68093" lon="14.96605">
        <ele>3.98</ele>
        <time>2018-04-18T07:18:18Z</time>
      </trkpt>
      <trkpt lat="38.68078" lon="14.96546">
        <ele>3.5</ele>
        <time>2018-04-18T07:18:34Z</time>
      </trkpt>
      <trkpt lat="38.68063" lon="14.96488">
        <ele>3.98</ele>
        <time>2018-04-18T07:18:50Z</time>
      </trkpt>
      <trkpt lat="38.68044" lon="14.96415">
        <ele>3.98</ele>
        <time>2018-04-18T07:19:10Z</time>
      </trkpt>
      <trkpt lat="38.68021" lon="14.96331">
        <ele>3.98</ele>
        <time>2018-04-18T07:19:33Z</time>
      </trkpt>
      <trkpt lat="38.68003" lon="14.96256">
        <ele>4.46</ele>
        <time>2018-04-18T07:19:53Z</time>
      </trkpt>
      <trkpt lat="38.67983" lon="14.96179">
        <ele>3.5</ele>
        <time>2018-04-18T07:20:14Z</time>
      </trkpt>
      <trkpt lat="38.67963" lon="14.96098">
        <ele>3.5</ele>
        <time>2018-04-18T07:20:36Z</time>
      </trkpt>
      <trkpt lat="38.67947" lon="14.96031">
        <ele>3.98</ele>
        <time>2018-04-18T07:20:54Z</time>
      </trkpt>
      <trkpt lat="38.67929" lon="14.95965">
        <ele>3.98</ele>
        <time>2018-04-18T07:21:12Z</time>
      </trkpt>
      <trkpt lat="38.67912" lon="14.95899">
        <ele>3.98</ele>
        <time>2018-04-18T07:21:30Z</time>
      </trkpt>
      <trkpt lat="38.67893" lon="14.95824">
        <ele>4.94</ele>
        <time>2018-04-18T07:21:50Z</time>
      </trkpt>
      <trkpt lat="38.67874" lon="14.95754">
        <ele>4.46</ele>
        <time>2018-04-18T07:22:09Z</time>
      </trkpt>
      <trkpt lat="38.67857" lon="14.95687">
        <ele>3.98</ele>
        <time>2018-04-18T07:22:27Z</time>
      </trkpt>
      <trkpt lat="38.67836" lon="14.95605">
        <ele>3.5</ele>
        <time>2018-04-18T07:22:49Z</time>
      </trkpt>
      <trkpt lat="38.67817" lon="14.95527">
        <ele>3.5</ele>
        <time>2018-04-18T07:23:10Z</time>
      </trkpt>
      <trkpt lat="38.67797" lon="14.95452">
        <ele>3.98</ele>
        <time>2018-04-18T07:23:30Z</time>
      </trkpt>
      <trkpt lat="38.67782" lon="14.95389">
        <ele>3.98</ele>
        <time>2018-04-18T07:23:47Z</time>
      </trkpt>
      <trkpt lat="38.67765" lon="14.95322">
        <ele>4.46</ele>
        <time>2018-04-18T07:24:05Z</time>
      </trkpt>
      <trkpt lat="38.67747" lon="14.95247">
        <ele>4.46</ele>
        <time>2018-04-18T07:24:25Z</time>
      </trkpt>
      <trkpt lat="38.6773" lon="14.9518">
        <ele>3.98</ele>
        <time>2018-04-18T07:24:43Z</time>
      </trkpt>
      <trkpt lat="38.67713" lon="14.95109">
        <ele>3.98</ele>
        <time>2018-04-18T07:25:02Z</time>
      </trkpt>
      <trkpt lat="38.67695" lon="14.9503">
        <ele>4.46</ele>
        <time>2018-04-18T07:25:23Z</time>
      </trkpt>
      <trkpt lat="38.67676" lon="14.94955">
        <ele>3.98</ele>
        <time>2018-04-18T07:25:43Z</time>
      </trkpt>
      <trkpt lat="38.67657" lon="14.94872">
        <ele>3.98</ele>
        <time>2018-04-18T07:26:05Z</time>
      </trkpt>
      <trkpt lat="38.67639" lon="14.94797">
        <ele>3.98</ele>
        <time>2018-04-18T07:26:25Z</time>
      </trkpt>
      <trkpt lat="38.67622" lon="14.94727">
        <ele>3.98</ele>
        <time>2018-04-18T07:26:44Z</time>
      </trkpt>
      <trkpt lat="38.67603" lon="14.94646">
        <ele>4.46</ele>
        <time>2018-04-18T07:27:06Z</time>
      </trkpt>
      <trkpt lat="38.67587" lon="14.94576">
        <ele>4.46</ele>
        <time>2018-04-18T07:27:25Z</time>
      </trkpt>
      <trkpt lat="38.67571" lon="14.94506">
        <ele>3.98</ele>
        <time>2018-04-18T07:27:44Z</time>
      </trkpt>
      <trkpt lat="38.67562" lon="14.94466">
        <ele>3.02</ele>
        <time>2018-04-18T07:27:59Z</time>
      </trkpt>
      <trkpt lat="38.67556" lon="14.94426">
        <ele>3.98</ele>
        <time>2018-04-18T07:28:19Z</time>
      </trkpt>
      <trkpt lat="38.67552" lon="14.94388">
        <ele>4.46</ele>
        <time>2018-04-18T07:28:41Z</time>
      </trkpt>
      <trkpt lat="38.67549" lon="14.94362">
        <ele>4.46</ele>
        <time>2018-04-18T07:28:58Z</time>
      </trkpt>
      <trkpt lat="38.67547" lon="14.94335">
        <ele>4.46</ele>
        <time>2018-04-18T07:29:17Z</time>
      </trkpt>
      <trkpt lat="38.67544" lon="14.94302">
        <ele>4.46</ele>
        <time>2018-04-18T07:29:39Z</time>
      </trkpt>
      <trkpt lat="38.67536" lon="14.94257">
        <ele>4.46</ele>
        <time>2018-04-18T07:29:55Z</time>
      </trkpt>
      <trkpt lat="38.67521" lon="14.94187">
        <ele>4.94</ele>
        <time>2018-04-18T07:30:15Z</time>
      </trkpt>
      <trkpt lat="38.67504" lon="14.94112">
        <ele>4.94</ele>
        <time>2018-04-18T07:30:36Z</time>
      </trkpt>
      <trkpt lat="38.67487" lon="14.9404">
        <ele>4.46</ele>
        <time>2018-04-18T07:30:56Z</time>
      </trkpt>
      <trkpt lat="38.67469" lon="14.93956">
        <ele>3.98</ele>
        <time>2018-04-18T07:31:19Z</time>
      </trkpt>
      <trkpt lat="38.6745" lon="14.93869">
        <ele>3.98</ele>
        <time>2018-04-18T07:31:43Z</time>
      </trkpt>
      <trkpt lat="38.67435" lon="14.93801">
        <ele>3.5</ele>
        <time>2018-04-18T07:32:02Z</time>
      </trkpt>
      <trkpt lat="38.67424" lon="14.93747">
        <ele>3.5</ele>
        <time>2018-04-18T07:32:17Z</time>
      </trkpt>
      <trkpt lat="38.67408" lon="14.93678">
        <ele>3.98</ele>
        <time>2018-04-18T07:32:36Z</time>
      </trkpt>
      <trkpt lat="38.67396" lon="14.93621">
        <ele>3.98</ele>
        <time>2018-04-18T07:32:52Z</time>
      </trkpt>
      <trkpt lat="38.67379" lon="14.93542">
        <ele>3.5</ele>
        <time>2018-04-18T07:33:14Z</time>
      </trkpt>
      <trkpt lat="38.67365" lon="14.93477">
        <ele>3.02</ele>
        <time>2018-04-18T07:33:32Z</time>
      </trkpt>
      <trkpt lat="38.67349" lon="14.93405">
        <ele>3.5</ele>
        <time>2018-04-18T07:33:52Z</time>
      </trkpt>
      <trkpt lat="38.67334" lon="14.93343">
        <ele>3.5</ele>
        <time>2018-04-18T07:34:09Z</time>
      </trkpt>
      <trkpt lat="38.67319" lon="14.93278">
        <ele>3.5</ele>
        <time>2018-04-18T07:34:27Z</time>
      </trkpt>
      <trkpt lat="38.67306" lon="14.93217">
        <ele>3.5</ele>
        <time>2018-04-18T07:34:44Z</time>
      </trkpt>
      <trkpt lat="38.67288" lon="14.93141">
        <ele>3.5</ele>
        <time>2018-04-18T07:35:05Z</time>
      </trkpt>
      <trkpt lat="38.67273" lon="14.93076">
        <ele>2.54</ele>
        <time>2018-04-18T07:35:23Z</time>
      </trkpt>
      <trkpt lat="38.67257" lon="14.93011">
        <ele>3.02</ele>
        <time>2018-04-18T07:35:41Z</time>
      </trkpt>
      <trkpt lat="38.67243" lon="14.92946">
        <ele>3.5</ele>
        <time>2018-04-18T07:35:59Z</time>
      </trkpt>
      <trkpt lat="38.67229" lon="14.92885">
        <ele>3.5</ele>
        <time>2018-04-18T07:36:16Z</time>
      </trkpt>
      <trkpt lat="38.67213" lon="14.92812">
        <ele>4.46</ele>
        <time>2018-04-18T07:36:36Z</time>
      </trkpt>
      <trkpt lat="38.67198" lon="14.92742">
        <ele>3.98</ele>
        <time>2018-04-18T07:36:55Z</time>
      </trkpt>
      <trkpt lat="38.67181" lon="14.92665">
        <ele>3.98</ele>
        <time>2018-04-18T07:37:16Z</time>
      </trkpt>
      <trkpt lat="38.67166" lon="14.92593">
        <ele>3.5</ele>
        <time>2018-04-18T07:37:36Z</time>
      </trkpt>
      <trkpt lat="38.67152" lon="14.92528">
        <ele>3.5</ele>
        <time>2018-04-18T07:37:54Z</time>
      </trkpt>
      <trkpt lat="38.67137" lon="14.92459">
        <ele>3.98</ele>
        <time>2018-04-18T07:38:13Z</time>
      </trkpt>
      <trkpt lat="38.67123" lon="14.92394">
        <ele>3.98</ele>
        <time>2018-04-18T07:38:31Z</time>
      </trkpt>
      <trkpt lat="38.67107" lon="14.92318">
        <ele>4.46</ele>
        <time>2018-04-18T07:38:52Z</time>
      </trkpt>
      <trkpt lat="38.67092" lon="14.9225">
        <ele>4.46</ele>
        <time>2018-04-18T07:39:11Z</time>
      </trkpt>
      <trkpt lat="38.67079" lon="14.92181">
        <ele>3.5</ele>
        <time>2018-04-18T07:39:30Z</time>
      </trkpt>
      <trkpt lat="38.67064" lon="14.92111">
        <ele>4.46</ele>
        <time>2018-04-18T07:39:49Z</time>
      </trkpt>
      <trkpt lat="38.67048" lon="14.92039">
        <ele>4.46</ele>
        <time>2018-04-18T07:40:09Z</time>
      </trkpt>
      <trkpt lat="38.67037" lon="14.91984">
        <ele>4.46</ele>
        <time>2018-04-18T07:40:24Z</time>
      </trkpt>
      <trkpt lat="38.67022" lon="14.91911">
        <ele>3.5</ele>
        <time>2018-04-18T07:40:44Z</time>
      </trkpt>
      <trkpt lat="38.67008" lon="14.91842">
        <ele>3.5</ele>
        <time>2018-04-18T07:41:03Z</time>
      </trkpt>
      <trkpt lat="38.66995" lon="14.91776">
        <ele>3.5</ele>
        <time>2018-04-18T07:41:21Z</time>
      </trkpt>
      <trkpt lat="38.66976" lon="14.91685">
        <ele>2.54</ele>
        <time>2018-04-18T07:41:46Z</time>
      </trkpt>
      <trkpt lat="38.66963" lon="14.91614">
        <ele>3.5</ele>
        <time>2018-04-18T07:42:05Z</time>
      </trkpt>
      <trkpt lat="38.66951" lon="14.91547">
        <ele>2.54</ele>
        <time>2018-04-18T07:42:23Z</time>
      </trkpt>
      <trkpt lat="38.66939" lon="14.91484">
        <ele>3.02</ele>
        <time>2018-04-18T07:42:40Z</time>
      </trkpt>
      <trkpt lat="38.66928" lon="14.91425">
        <ele>3.98</ele>
        <time>2018-04-18T07:42:56Z</time>
      </trkpt>
      <trkpt lat="38.66915" lon="14.91354">
        <ele>3.98</ele>
        <time>2018-04-18T07:43:15Z</time>
      </trkpt>
      <trkpt lat="38.66904" lon="14.9129">
        <ele>3.98</ele>
        <time>2018-04-18T07:43:32Z</time>
      </trkpt>
      <trkpt lat="38.66891" lon="14.91219">
        <ele>3.02</ele>
        <time>2018-04-18T07:43:51Z</time>
      </trkpt>
      <trkpt lat="38.66879" lon="14.91156">
        <ele>3.5</ele>
        <time>2018-04-18T07:44:08Z</time>
      </trkpt>
      <trkpt lat="38.66866" lon="14.91088">
        <ele>3.02</ele>
        <time>2018-04-18T07:44:26Z</time>
      </trkpt>
      <trkpt lat="38.66854" lon="14.9102">
        <ele>3.02</ele>
        <time>2018-04-18T07:44:44Z</time>
      </trkpt>
      <trkpt lat="38.66844" lon="14.90959">
        <ele>3.5</ele>
        <time>2018-04-18T07:45:00Z</time>
      </trkpt>
      <trkpt lat="38.66832" lon="14.90888">
        <ele>3.02</ele>
        <time>2018-04-18T07:45:19Z</time>
      </trkpt>
      <trkpt lat="38.66822" lon="14.90817">
        <ele>3.5</ele>
        <time>2018-04-18T07:45:38Z</time>
      </trkpt>
      <trkpt lat="38.66809" lon="14.90739">
        <ele>3.5</ele>
        <time>2018-04-18T07:45:59Z</time>
      </trkpt>
      <trkpt lat="38.66798" lon="14.90667">
        <ele>3.5</ele>
        <time>2018-04-18T07:46:18Z</time>
      </trkpt>
      <trkpt lat="38.66785" lon="14.90592">
        <ele>3.02</ele>
        <time>2018-04-18T07:46:38Z</time>
      </trkpt>
      <trkpt lat="38.66772" lon="14.90521">
        <ele>3.5</ele>
        <time>2018-04-18T07:46:57Z</time>
      </trkpt>
      <trkpt lat="38.66757" lon="14.90442">
        <ele>4.94</ele>
        <time>2018-04-18T07:47:18Z</time>
      </trkpt>
      <trkpt lat="38.66742" lon="14.90355">
        <ele>5.91</ele>
        <time>2018-04-18T07:47:41Z</time>
      </trkpt>
      <trkpt lat="38.66728" lon="14.90288">
        <ele>5.91</ele>
        <time>2018-04-18T07:47:59Z</time>
      </trkpt>
      <trkpt lat="38.66715" lon="14.90225">
        <ele>5.91</ele>
        <time>2018-04-18T07:48:16Z</time>
      </trkpt>
      <trkpt lat="38.66699" lon="14.9015">
        <ele>6.39</ele>
        <time>2018-04-18T07:48:36Z</time>
      </trkpt>
      <trkpt lat="38.66683" lon="14.90068">
        <ele>6.39</ele>
        <time>2018-04-18T07:48:58Z</time>
      </trkpt>
      <trkpt lat="38.66667" lon="14.89989">
        <ele>5.42</ele>
        <time>2018-04-18T07:49:19Z</time>
      </trkpt>
      <trkpt lat="38.6665" lon="14.89906">
        <ele>5.42</ele>
        <time>2018-04-18T07:49:41Z</time>
      </trkpt>
      <trkpt lat="38.66637" lon="14.89842">
        <ele>5.42</ele>
        <time>2018-04-18T07:49:58Z</time>
      </trkpt>
      <trkpt lat="38.66622" lon="14.89771">
        <ele>3.98</ele>
        <time>2018-04-18T07:50:17Z</time>
      </trkpt>
      <trkpt lat="38.66609" lon="14.8971">
        <ele>4.46</ele>
        <time>2018-04-18T07:50:33Z</time>
      </trkpt>
      <trkpt lat="38.66592" lon="14.89626">
        <ele>4.46</ele>
        <time>2018-04-18T07:50:55Z</time>
      </trkpt>
      <trkpt lat="38.66574" lon="14.89539">
        <ele>4.94</ele>
        <time>2018-04-18T07:51:18Z</time>
      </trkpt>
      <trkpt lat="38.66557" lon="14.89459">
        <ele>4.46</ele>
        <time>2018-04-18T07:51:39Z</time>
      </trkpt>
      <trkpt lat="38.6654" lon="14.89379">
        <ele>3.98</ele>
        <time>2018-04-18T07:52:00Z</time>
      </trkpt>
      <trkpt lat="38.66526" lon="14.89311">
        <ele>3.98</ele>
        <time>2018-04-18T07:52:18Z</time>
      </trkpt>
      <trkpt lat="38.6651" lon="14.89243">
        <ele>4.46</ele>
        <time>2018-04-18T07:52:36Z</time>
      </trkpt>
      <trkpt lat="38.66494" lon="14.89167">
        <ele>4.46</ele>
        <time>2018-04-18T07:52:56Z</time>
      </trkpt>
      <trkpt lat="38.66475" lon="14.89087">
        <ele>4.94</ele>
        <time>2018-04-18T07:53:17Z</time>
      </trkpt>
      <trkpt lat="38.66457" lon="14.89009">
        <ele>4.46</ele>
        <time>2018-04-18T07:53:38Z</time>
      </trkpt>
      <trkpt lat="38.66435" lon="14.88924">
        <ele>3.02</ele>
        <time>2018-04-18T07:54:01Z</time>
      </trkpt>
      <trkpt lat="38.66416" lon="14.88845">
        <ele>3.02</ele>
        <time>2018-04-18T07:54:22Z</time>
      </trkpt>
      <trkpt lat="38.66398" lon="14.88763">
        <ele>3.5</ele>
        <time>2018-04-18T07:54:44Z</time>
      </trkpt>
      <trkpt lat="38.66375" lon="14.88674">
        <ele>3.5</ele>
        <time>2018-04-18T07:55:08Z</time>
      </trkpt>
      <trkpt lat="38.66356" lon="14.88603">
        <ele>3.98</ele>
        <time>2018-04-18T07:55:27Z</time>
      </trkpt>
      <trkpt lat="38.66334" lon="14.88518">
        <ele>3.98</ele>
        <time>2018-04-18T07:55:50Z</time>
      </trkpt>
      <trkpt lat="38.66313" lon="14.8844">
        <ele>3.98</ele>
        <time>2018-04-18T07:56:11Z</time>
      </trkpt>
      <trkpt lat="38.66289" lon="14.88354">
        <ele>4.94</ele>
        <time>2018-04-18T07:56:34Z</time>
      </trkpt>
      <trkpt lat="38.66266" lon="14.88277">
        <ele>5.91</ele>
        <time>2018-04-18T07:56:55Z</time>
      </trkpt>
      <trkpt lat="38.66241" lon="14.88195">
        <ele>5.91</ele>
        <time>2018-04-18T07:57:17Z</time>
      </trkpt>
      <trkpt lat="38.66218" lon="14.88121">
        <ele>5.91</ele>
        <time>2018-04-18T07:57:37Z</time>
      </trkpt>
      <trkpt lat="38.66195" lon="14.88047">
        <ele>5.91</ele>
        <time>2018-04-18T07:57:57Z</time>
      </trkpt>
      <trkpt lat="38.66172" lon="14.87972">
        <ele>4.94</ele>
        <time>2018-04-18T07:58:17Z</time>
      </trkpt>
      <trkpt lat="38.66146" lon="14.87887">
        <ele>4.94</ele>
        <time>2018-04-18T07:58:40Z</time>
      </trkpt>
      <trkpt lat="38.66121" lon="14.87805">
        <ele>5.42</ele>
        <time>2018-04-18T07:59:02Z</time>
      </trkpt>
      <trkpt lat="38.66095" lon="14.8772">
        <ele>4.94</ele>
        <time>2018-04-18T07:59:25Z</time>
      </trkpt>
      <trkpt lat="38.6607" lon="14.87639">
        <ele>3.5</ele>
        <time>2018-04-18T07:59:47Z</time>
      </trkpt>
      <trkpt lat="38.6605" lon="14.87577">
        <ele>3.98</ele>
        <time>2018-04-18T08:00:04Z</time>
      </trkpt>
      <trkpt lat="38.66028" lon="14.87507">
        <ele>3.98</ele>
        <time>2018-04-18T08:00:23Z</time>
      </trkpt>
      <trkpt lat="38.66008" lon="14.87444">
        <ele>3.5</ele>
        <time>2018-04-18T08:00:40Z</time>
      </trkpt>
      <trkpt lat="38.65987" lon="14.8738">
        <ele>3.98</ele>
        <time>2018-04-18T08:00:57Z</time>
      </trkpt>
      <trkpt lat="38.65963" lon="14.87301">
        <ele>3.98</ele>
        <time>2018-04-18T08:01:18Z</time>
      </trkpt>
      <trkpt lat="38.65935" lon="14.87211">
        <ele>3.5</ele>
        <time>2018-04-18T08:01:42Z</time>
      </trkpt>
      <trkpt lat="38.65911" lon="14.87136">
        <ele>3.02</ele>
        <time>2018-04-18T08:02:02Z</time>
      </trkpt>
      <trkpt lat="38.65885" lon="14.87049">
        <ele>3.02</ele>
        <time>2018-04-18T08:02:25Z</time>
      </trkpt>
      <trkpt lat="38.6586" lon="14.86966">
        <ele>2.54</ele>
        <time>2018-04-18T08:02:47Z</time>
      </trkpt>
      <trkpt lat="38.65836" lon="14.86886">
        <ele>3.02</ele>
        <time>2018-04-18T08:03:08Z</time>
      </trkpt>
      <trkpt lat="38.65812" lon="14.86805">
        <ele>3.5</ele>
        <time>2018-04-18T08:03:29Z</time>
      </trkpt>
      <trkpt lat="38.65791" lon="14.86733">
        <ele>3.98</ele>
        <time>2018-04-18T08:03:48Z</time>
      </trkpt>
      <trkpt lat="38.65764" lon="14.86646">
        <ele>4.46</ele>
        <time>2018-04-18T08:04:11Z</time>
      </trkpt>
      <trkpt lat="38.65741" lon="14.86569">
        <ele>4.94</ele>
        <time>2018-04-18T08:04:31Z</time>
      </trkpt>
      <trkpt lat="38.65715" lon="14.86486">
        <ele>4.94</ele>
        <time>2018-04-18T08:04:53Z</time>
      </trkpt>
      <trkpt lat="38.65687" lon="14.86395">
        <ele>5.42</ele>
        <time>2018-04-18T08:05:17Z</time>
      </trkpt>
      <trkpt lat="38.6566" lon="14.86308">
        <ele>5.42</ele>
        <time>2018-04-18T08:05:40Z</time>
      </trkpt>
      <trkpt lat="38.65635" lon="14.86224">
        <ele>4.94</ele>
        <time>2018-04-18T08:06:02Z</time>
      </trkpt>
      <trkpt lat="38.65608" lon="14.86137">
        <ele>4.46</ele>
        <time>2018-04-18T08:06:25Z</time>
      </trkpt>
      <trkpt lat="38.65578" lon="14.86044">
        <ele>4.46</ele>
        <time>2018-04-18T08:06:50Z</time>
      </trkpt>
      <trkpt lat="38.65546" lon="14.85943">
        <ele>3.98</ele>
        <time>2018-04-18T08:07:17Z</time>
      </trkpt>
      <trkpt lat="38.65517" lon="14.85855">
        <ele>4.94</ele>
        <time>2018-04-18T08:07:41Z</time>
      </trkpt>
      <trkpt lat="38.65491" lon="14.85773">
        <ele>4.46</ele>
        <time>2018-04-18T08:08:03Z</time>
      </trkpt>
      <trkpt lat="38.65471" lon="14.85711">
        <ele>4.46</ele>
        <time>2018-04-18T08:08:20Z</time>
      </trkpt>
      <trkpt lat="38.65452" lon="14.85651">
        <ele>3.98</ele>
        <time>2018-04-18T08:08:36Z</time>
      </trkpt>
      <trkpt lat="38.6543" lon="14.85582">
        <ele>5.42</ele>
        <time>2018-04-18T08:08:55Z</time>
      </trkpt>
      <trkpt lat="38.65405" lon="14.85503">
        <ele>5.91</ele>
        <time>2018-04-18T08:09:16Z</time>
      </trkpt>
      <trkpt lat="38.65378" lon="14.85421">
        <ele>5.91</ele>
        <time>2018-04-18T08:09:38Z</time>
      </trkpt>
      <trkpt lat="38.65355" lon="14.8535">
        <ele>5.42</ele>
        <time>2018-04-18T08:09:57Z</time>
      </trkpt>
      <trkpt lat="38.6533" lon="14.85275">
        <ele>4.46</ele>
        <time>2018-04-18T08:10:17Z</time>
      </trkpt>
      <trkpt lat="38.65306" lon="14.85205">
        <ele>4.94</ele>
        <time>2018-04-18T08:10:36Z</time>
      </trkpt>
      <trkpt lat="38.65278" lon="14.85124">
        <ele>4.94</ele>
        <time>2018-04-18T08:10:58Z</time>
      </trkpt>
      <trkpt lat="38.65251" lon="14.85046">
        <ele>4.94</ele>
        <time>2018-04-18T08:11:19Z</time>
      </trkpt>
      <trkpt lat="38.6523" lon="14.84988">
        <ele>4.46</ele>
        <time>2018-04-18T08:11:35Z</time>
      </trkpt>
      <trkpt lat="38.65212" lon="14.84936">
        <ele>3.98</ele>
        <time>2018-04-18T08:11:49Z</time>
      </trkpt>
      <trkpt lat="38.65196" lon="14.8489">
        <ele>5.42</ele>
        <time>2018-04-18T08:12:01Z</time>
      </trkpt>
      <trkpt lat="38.65185" lon="14.84853">
        <ele>4.46</ele>
        <time>2018-04-18T08:12:10Z</time>
      </trkpt>
      <trkpt lat="38.65166" lon="14.84801">
        <ele>3.98</ele>
        <time>2018-04-18T08:12:24Z</time>
      </trkpt>
      <trkpt lat="38.6514" lon="14.84726">
        <ele>4.46</ele>
        <time>2018-04-18T08:12:44Z</time>
      </trkpt>
      <trkpt lat="38.65108" lon="14.84638">
        <ele>5.42</ele>
        <time>2018-04-18T08:13:08Z</time>
      </trkpt>
      <trkpt lat="38.65085" lon="14.84572">
        <ele>5.91</ele>
        <time>2018-04-18T08:13:26Z</time>
      </trkpt>
      <trkpt lat="38.65059" lon="14.84499">
        <ele>5.91</ele>
        <time>2018-04-18T08:13:46Z</time>
      </trkpt>
      <trkpt lat="38.65036" lon="14.84433">
        <ele>5.91</ele>
        <time>2018-04-18T08:14:04Z</time>
      </trkpt>
      <trkpt lat="38.65009" lon="14.8436">
        <ele>5.91</ele>
        <time>2018-04-18T08:14:24Z</time>
      </trkpt>
      <trkpt lat="38.64979" lon="14.84276">
        <ele>5.42</ele>
        <time>2018-04-18T08:14:47Z</time>
      </trkpt>
      <trkpt lat="38.64951" lon="14.84199">
        <ele>5.42</ele>
        <time>2018-04-18T08:15:08Z</time>
      </trkpt>
      <trkpt lat="38.64918" lon="14.84107">
        <ele>5.42</ele>
        <time>2018-04-18T08:15:33Z</time>
      </trkpt>
      <trkpt lat="38.64889" lon="14.84034">
        <ele>5.91</ele>
        <time>2018-04-18T08:15:54Z</time>
      </trkpt>
      <trkpt lat="38.64865" lon="14.83968">
        <ele>6.39</ele>
        <time>2018-04-18T08:16:13Z</time>
      </trkpt>
      <trkpt lat="38.64839" lon="14.83902">
        <ele>7.35</ele>
        <time>2018-04-18T08:16:31Z</time>
      </trkpt>
      <trkpt lat="38.64811" lon="14.8383">
        <ele>6.87</ele>
        <time>2018-04-18T08:16:53Z</time>
      </trkpt>
      <trkpt lat="38.6478" lon="14.83748">
        <ele>6.39</ele>
        <time>2018-04-18T08:17:15Z</time>
      </trkpt>
      <trkpt lat="38.64527" lon="14.83049">
        <ele>7.35</ele>
        <time>2018-04-18T08:20:31Z</time>
      </trkpt>
      <trkpt lat="38.64504" lon="14.82982">
        <ele>6.39</ele>
        <time>2018-04-18T08:20:49Z</time>
      </trkpt>
      <trkpt lat="38.64479" lon="14.82908">
        <ele>5.42</ele>
        <time>2018-04-18T08:21:09Z</time>
      </trkpt>
      <trkpt lat="38.6445" lon="14.82838">
        <ele>4.46</ele>
        <time>2018-04-18T08:21:29Z</time>
      </trkpt>
      <trkpt lat="38.64397" lon="14.82753">
        <ele>3.98</ele>
        <time>2018-04-18T08:21:57Z</time>
      </trkpt>
      <trkpt lat="38.64376" lon="14.8268">
        <ele>3.98</ele>
        <time>2018-04-18T08:22:16Z</time>
      </trkpt>
      <trkpt lat="38.64359" lon="14.82597">
        <ele>4.94</ele>
        <time>2018-04-18T08:22:35Z</time>
      </trkpt>
      <trkpt lat="38.64342" lon="14.82501">
        <ele>6.39</ele>
        <time>2018-04-18T08:23:01Z</time>
      </trkpt>
      <trkpt lat="38.64307" lon="14.82391">
        <ele>8.31</ele>
        <time>2018-04-18T08:23:30Z</time>
      </trkpt>
      <trkpt lat="38.64266" lon="14.82321">
        <ele>9.27</ele>
        <time>2018-04-18T08:23:52Z</time>
      </trkpt>
      <trkpt lat="38.64237" lon="14.82226">
        <ele>9.27</ele>
        <time>2018-04-18T08:24:17Z</time>
      </trkpt>
      <trkpt lat="38.64202" lon="14.82119">
        <ele>10.71</ele>
        <time>2018-04-18T08:24:46Z</time>
      </trkpt>
      <trkpt lat="38.64169" lon="14.82022">
        <ele>9.27</ele>
        <time>2018-04-18T08:25:13Z</time>
      </trkpt>
      <trkpt lat="38.6414" lon="14.81926">
        <ele>8.79</ele>
        <time>2018-04-18T08:25:38Z</time>
      </trkpt>
      <trkpt lat="38.64106" lon="14.81844">
        <ele>4.94</ele>
        <time>2018-04-18T08:26:03Z</time>
      </trkpt>
      <trkpt lat="38.64074" lon="14.81739">
        <ele>-0.82</ele>
        <time>2018-04-18T08:26:29Z</time>
      </trkpt>
      <trkpt lat="38.64042" lon="14.81628">
        <ele>-1.3</ele>
        <time>2018-04-18T08:26:58Z</time>
      </trkpt>
      <trkpt lat="38.64013" lon="14.8155">
        <ele>3.02</ele>
        <time>2018-04-18T08:27:20Z</time>
      </trkpt>
      <trkpt lat="38.63989" lon="14.81484">
        <ele>3.02</ele>
        <time>2018-04-18T08:27:38Z</time>
      </trkpt>
      <trkpt lat="38.63959" lon="14.81393">
        <ele>3.98</ele>
        <time>2018-04-18T08:28:03Z</time>
      </trkpt>
      <trkpt lat="38.63942" lon="14.8134">
        <ele>4.46</ele>
        <time>2018-04-18T08:28:17Z</time>
      </trkpt>
      <trkpt lat="38.63924" lon="14.81285">
        <ele>4.94</ele>
        <time>2018-04-18T08:28:32Z</time>
      </trkpt>
      <trkpt lat="38.63901" lon="14.81215">
        <ele>5.42</ele>
        <time>2018-04-18T08:28:51Z</time>
      </trkpt>
      <trkpt lat="38.63879" lon="14.81144">
        <ele>4.94</ele>
        <time>2018-04-18T08:29:10Z</time>
      </trkpt>
      <trkpt lat="38.63855" lon="14.8107">
        <ele>5.42</ele>
        <time>2018-04-18T08:29:30Z</time>
      </trkpt>
      <trkpt lat="38.63832" lon="14.80995">
        <ele>4.94</ele>
        <time>2018-04-18T08:29:50Z</time>
      </trkpt>
      <trkpt lat="38.63811" lon="14.80928">
        <ele>4.94</ele>
        <time>2018-04-18T08:30:08Z</time>
      </trkpt>
      <trkpt lat="38.63785" lon="14.80846">
        <ele>4.94</ele>
        <time>2018-04-18T08:30:30Z</time>
      </trkpt>
      <trkpt lat="38.63765" lon="14.80782">
        <ele>4.94</ele>
        <time>2018-04-18T08:30:47Z</time>
      </trkpt>
      <trkpt lat="38.63746" lon="14.80719">
        <ele>5.91</ele>
        <time>2018-04-18T08:31:04Z</time>
      </trkpt>
      <trkpt lat="38.63725" lon="14.80651">
        <ele>5.42</ele>
        <time>2018-04-18T08:31:22Z</time>
      </trkpt>
      <trkpt lat="38.63707" lon="14.80591">
        <ele>5.91</ele>
        <time>2018-04-18T08:31:38Z</time>
      </trkpt>
      <trkpt lat="38.63691" lon="14.80539">
        <ele>5.42</ele>
        <time>2018-04-18T08:31:52Z</time>
      </trkpt>
      <trkpt lat="38.6367" lon="14.80468">
        <ele>5.42</ele>
        <time>2018-04-18T08:32:11Z</time>
      </trkpt>
      <trkpt lat="38.6365" lon="14.804">
        <ele>5.42</ele>
        <time>2018-04-18T08:32:29Z</time>
      </trkpt>
      <trkpt lat="38.63628" lon="14.80324">
        <ele>5.42</ele>
        <time>2018-04-18T08:32:49Z</time>
      </trkpt>
      <trkpt lat="38.63607" lon="14.80252">
        <ele>5.42</ele>
        <time>2018-04-18T08:33:08Z</time>
      </trkpt>
      <trkpt lat="38.63588" lon="14.80187">
        <ele>6.39</ele>
        <time>2018-04-18T08:33:25Z</time>
      </trkpt>
      <trkpt lat="38.6357" lon="14.80126">
        <ele>6.39</ele>
        <time>2018-04-18T08:33:41Z</time>
      </trkpt>
      <trkpt lat="38.63557" lon="14.8008">
        <ele>5.91</ele>
        <time>2018-04-18T08:33:53Z</time>
      </trkpt>
      <trkpt lat="38.63541" lon="14.80023">
        <ele>6.39</ele>
        <time>2018-04-18T08:34:08Z</time>
      </trkpt>
      <trkpt lat="38.63521" lon="14.79947">
        <ele>5.42</ele>
        <time>2018-04-18T08:34:28Z</time>
      </trkpt>
      <trkpt lat="38.63502" lon="14.79878">
        <ele>5.91</ele>
        <time>2018-04-18T08:34:46Z</time>
      </trkpt>
      <trkpt lat="38.6348" lon="14.79801">
        <ele>5.42</ele>
        <time>2018-04-18T08:35:06Z</time>
      </trkpt>
      <trkpt lat="38.63462" lon="14.79736">
        <ele>5.91</ele>
        <time>2018-04-18T08:35:23Z</time>
      </trkpt>
      <trkpt lat="38.63444" lon="14.79671">
        <ele>5.91</ele>
        <time>2018-04-18T08:35:40Z</time>
      </trkpt>
      <trkpt lat="38.63423" lon="14.79594">
        <ele>5.42</ele>
        <time>2018-04-18T08:36:00Z</time>
      </trkpt>
      <trkpt lat="38.63396" lon="14.79499">
        <ele>5.91</ele>
        <time>2018-04-18T08:36:25Z</time>
      </trkpt>
      <trkpt lat="38.63378" lon="14.79433">
        <ele>5.42</ele>
        <time>2018-04-18T08:36:42Z</time>
      </trkpt>
      <trkpt lat="38.63358" lon="14.7936">
        <ele>5.42</ele>
        <time>2018-04-18T08:37:01Z</time>
      </trkpt>
      <trkpt lat="38.63337" lon="14.79287">
        <ele>4.94</ele>
        <time>2018-04-18T08:37:20Z</time>
      </trkpt>
      <trkpt lat="38.63316" lon="14.7921">
        <ele>4.94</ele>
        <time>2018-04-18T08:37:40Z</time>
      </trkpt>
      <trkpt lat="38.63296" lon="14.79134">
        <ele>4.46</ele>
        <time>2018-04-18T08:38:00Z</time>
      </trkpt>
      <trkpt lat="38.63275" lon="14.79057">
        <ele>4.94</ele>
        <time>2018-04-18T08:38:20Z</time>
      </trkpt>
      <trkpt lat="38.63255" lon="14.78984">
        <ele>4.94</ele>
        <time>2018-04-18T08:38:39Z</time>
      </trkpt>
      <trkpt lat="38.63231" lon="14.78897">
        <ele>4.94</ele>
        <time>2018-04-18T08:39:02Z</time>
      </trkpt>
      <trkpt lat="38.6321" lon="14.78821">
        <ele>4.94</ele>
        <time>2018-04-18T08:39:22Z</time>
      </trkpt>
      <trkpt lat="38.63193" lon="14.7876">
        <ele>4.94</ele>
        <time>2018-04-18T08:39:38Z</time>
      </trkpt>
      <trkpt lat="38.63175" lon="14.78692">
        <ele>4.94</ele>
        <time>2018-04-18T08:39:56Z</time>
      </trkpt>
      <trkpt lat="38.63153" lon="14.78612">
        <ele>4.46</ele>
        <time>2018-04-18T08:40:17Z</time>
      </trkpt>
      <trkpt lat="38.63132" lon="14.78532">
        <ele>4.46</ele>
        <time>2018-04-18T08:40:38Z</time>
      </trkpt>
      <trkpt lat="38.63111" lon="14.78449">
        <ele>3.98</ele>
        <time>2018-04-18T08:41:00Z</time>
      </trkpt>
      <trkpt lat="38.6309" lon="14.78369">
        <ele>3.5</ele>
        <time>2018-04-18T08:41:21Z</time>
      </trkpt>
      <trkpt lat="38.63069" lon="14.78289">
        <ele>3.5</ele>
        <time>2018-04-18T08:41:42Z</time>
      </trkpt>
      <trkpt lat="38.6305" lon="14.78218">
        <ele>3.98</ele>
        <time>2018-04-18T08:42:01Z</time>
      </trkpt>
      <trkpt lat="38.63032" lon="14.7815">
        <ele>3.98</ele>
        <time>2018-04-18T08:42:19Z</time>
      </trkpt>
      <trkpt lat="38.63011" lon="14.78067">
        <ele>3.5</ele>
        <time>2018-04-18T08:42:41Z</time>
      </trkpt>
      <trkpt lat="38.62988" lon="14.77981">
        <ele>3.5</ele>
        <time>2018-04-18T08:43:04Z</time>
      </trkpt>
      <trkpt lat="38.6297" lon="14.7791">
        <ele>3.02</ele>
        <time>2018-04-18T08:43:23Z</time>
      </trkpt>
      <trkpt lat="38.6295" lon="14.77831">
        <ele>3.5</ele>
        <time>2018-04-18T08:43:44Z</time>
      </trkpt>
      <trkpt lat="38.62931" lon="14.77756">
        <ele>3.02</ele>
        <time>2018-04-18T08:44:04Z</time>
      </trkpt>
      <trkpt lat="38.62911" lon="14.77669">
        <ele>2.54</ele>
        <time>2018-04-18T08:44:27Z</time>
      </trkpt>
      <trkpt lat="38.62898" lon="14.77617">
        <ele>2.54</ele>
        <time>2018-04-18T08:44:41Z</time>
      </trkpt>
      <trkpt lat="38.6288" lon="14.77542">
        <ele>2.06</ele>
        <time>2018-04-18T08:45:01Z</time>
      </trkpt>
      <trkpt lat="38.62864" lon="14.77474">
        <ele>1.58</ele>
        <time>2018-04-18T08:45:19Z</time>
      </trkpt>
      <trkpt lat="38.62846" lon="14.77404">
        <ele>1.58</ele>
        <time>2018-04-18T08:45:38Z</time>
      </trkpt>
      <trkpt lat="38.62829" lon="14.77329">
        <ele>2.06</ele>
        <time>2018-04-18T08:45:58Z</time>
      </trkpt>
      <trkpt lat="38.62812" lon="14.77254">
        <ele>1.1</ele>
        <time>2018-04-18T08:46:18Z</time>
      </trkpt>
      <trkpt lat="38.62796" lon="14.77187">
        <ele>1.1</ele>
        <time>2018-04-18T08:46:36Z</time>
      </trkpt>
      <trkpt lat="38.62781" lon="14.7712">
        <ele>2.06</ele>
        <time>2018-04-18T08:46:54Z</time>
      </trkpt>
      <trkpt lat="38.62765" lon="14.77053">
        <ele>2.06</ele>
        <time>2018-04-18T08:47:12Z</time>
      </trkpt>
      <trkpt lat="38.62751" lon="14.76991">
        <ele>2.06</ele>
        <time>2018-04-18T08:47:29Z</time>
      </trkpt>
      <trkpt lat="38.62733" lon="14.7691">
        <ele>2.54</ele>
        <time>2018-04-18T08:47:51Z</time>
      </trkpt>
      <trkpt lat="38.62714" lon="14.76824">
        <ele>3.02</ele>
        <time>2018-04-18T08:48:14Z</time>
      </trkpt>
      <trkpt lat="38.62698" lon="14.76748">
        <ele>2.06</ele>
        <time>2018-04-18T08:48:34Z</time>
      </trkpt>
      <trkpt lat="38.62684" lon="14.76685">
        <ele>2.06</ele>
        <time>2018-04-18T08:48:51Z</time>
      </trkpt>
      <trkpt lat="38.62669" lon="14.76614">
        <ele>2.54</ele>
        <time>2018-04-18T08:49:10Z</time>
      </trkpt>
      <trkpt lat="38.62654" lon="14.76543">
        <ele>2.54</ele>
        <time>2018-04-18T08:49:29Z</time>
      </trkpt>
      <trkpt lat="38.62639" lon="14.76472">
        <ele>1.58</ele>
        <time>2018-04-18T08:49:48Z</time>
      </trkpt>
      <trkpt lat="38.62623" lon="14.76393">
        <ele>1.58</ele>
        <time>2018-04-18T08:50:09Z</time>
      </trkpt>
      <trkpt lat="38.62609" lon="14.76321">
        <ele>0.62</ele>
        <time>2018-04-18T08:50:28Z</time>
      </trkpt>
      <trkpt lat="38.62595" lon="14.76249">
        <ele>0.62</ele>
        <time>2018-04-18T08:50:47Z</time>
      </trkpt>
      <trkpt lat="38.62581" lon="14.76178">
        <ele>0.62</ele>
        <time>2018-04-18T08:51:06Z</time>
      </trkpt>
      <trkpt lat="38.62566" lon="14.76099">
        <ele>0.62</ele>
        <time>2018-04-18T08:51:27Z</time>
      </trkpt>
      <trkpt lat="38.62554" lon="14.76035">
        <ele>1.1</ele>
        <time>2018-04-18T08:51:44Z</time>
      </trkpt>
      <trkpt lat="38.62539" lon="14.75957">
        <ele>0.62</ele>
        <time>2018-04-18T08:52:05Z</time>
      </trkpt>
      <trkpt lat="38.62525" lon="14.75881">
        <ele>0.62</ele>
        <time>2018-04-18T08:52:25Z</time>
      </trkpt>
      <trkpt lat="38.62512" lon="14.75814">
        <ele>0.62</ele>
        <time>2018-04-18T08:52:43Z</time>
      </trkpt>
      <trkpt lat="38.62497" lon="14.75731">
        <ele>1.1</ele>
        <time>2018-04-18T08:53:05Z</time>
      </trkpt>
      <trkpt lat="38.62485" lon="14.75663">
        <ele>1.1</ele>
        <time>2018-04-18T08:53:23Z</time>
      </trkpt>
      <trkpt lat="38.62508" lon="14.7562">
        <ele>0.14</ele>
        <time>2018-04-18T08:53:36Z</time>
      </trkpt>
      <trkpt lat="38.6254" lon="14.75566">
        <ele>1.58</ele>
        <time>2018-04-18T08:53:52Z</time>
      </trkpt>
      <trkpt lat="38.62556" lon="14.75535">
        <ele>1.1</ele>
        <time>2018-04-18T08:54:01Z</time>
      </trkpt>
      <trkpt lat="38.62569" lon="14.75498">
        <ele>-0.34</ele>
        <time>2018-04-18T08:54:12Z</time>
      </trkpt>
      <trkpt lat="38.62577" lon="14.75462">
        <ele>-1.79</ele>
        <time>2018-04-18T08:54:22Z</time>
      </trkpt>
      <trkpt lat="38.62597" lon="14.75408">
        <ele>0.14</ele>
        <time>2018-04-18T08:54:36Z</time>
      </trkpt>
      <trkpt lat="38.62599" lon="14.75405">
        <ele>0.14</ele>
        <time>2018-04-18T08:54:37Z</time>
      </trkpt>
      <trkpt lat="38.62604" lon="14.75351">
        <ele>-1.3</ele>
        <time>2018-04-18T08:54:50Z</time>
      </trkpt>
      <trkpt lat="38.6261" lon="14.75293">
        <ele>-3.71</ele>
        <time>2018-04-18T08:55:04Z</time>
      </trkpt>
      <trkpt lat="38.62616" lon="14.75208">
        <ele>-3.23</ele>
        <time>2018-04-18T08:55:25Z</time>
      </trkpt>
      <trkpt lat="38.62628" lon="14.75128">
        <ele>-2.27</ele>
        <time>2018-04-18T08:55:45Z</time>
      </trkpt>
      <trkpt lat="38.62637" lon="14.75057">
        <ele>-1.79</ele>
        <time>2018-04-18T08:56:03Z</time>
      </trkpt>
      <trkpt lat="38.62642" lon="14.74979">
        <ele>-0.34</ele>
        <time>2018-04-18T08:56:23Z</time>
      </trkpt>
      <trkpt lat="38.62638" lon="14.74909">
        <ele>1.58</ele>
        <time>2018-04-18T08:56:41Z</time>
      </trkpt>
      <trkpt lat="38.62631" lon="14.74855">
        <ele>2.54</ele>
        <time>2018-04-18T08:56:56Z</time>
      </trkpt>
      <trkpt lat="38.62619" lon="14.74797">
        <ele>3.02</ele>
        <time>2018-04-18T08:57:12Z</time>
      </trkpt>
      <trkpt lat="38.62613" lon="14.74738">
        <ele>2.06</ele>
        <time>2018-04-18T08:57:28Z</time>
      </trkpt>
      <trkpt lat="38.62612" lon="14.74665">
        <ele>2.54</ele>
        <time>2018-04-18T08:57:47Z</time>
      </trkpt>
      <trkpt lat="38.62609" lon="14.74605">
        <ele>1.58</ele>
        <time>2018-04-18T08:58:03Z</time>
      </trkpt>
      <trkpt lat="38.62601" lon="14.74539">
        <ele>2.06</ele>
        <time>2018-04-18T08:58:21Z</time>
      </trkpt>
      <trkpt lat="38.62593" lon="14.74461">
        <ele>2.06</ele>
        <time>2018-04-18T08:58:42Z</time>
      </trkpt>
      <trkpt lat="38.62589" lon="14.74396">
        <ele>2.06</ele>
        <time>2018-04-18T08:58:59Z</time>
      </trkpt>
      <trkpt lat="38.62593" lon="14.74335">
        <ele>2.06</ele>
        <time>2018-04-18T08:59:15Z</time>
      </trkpt>
      <trkpt lat="38.62615" lon="14.74267">
        <ele>2.06</ele>
        <time>2018-04-18T08:59:33Z</time>
      </trkpt>
      <trkpt lat="38.62631" lon="14.74203">
        <ele>2.54</ele>
        <time>2018-04-18T08:59:50Z</time>
      </trkpt>
      <trkpt lat="38.62649" lon="14.74138">
        <ele>2.54</ele>
        <time>2018-04-18T09:00:07Z</time>
      </trkpt>
      <trkpt lat="38.62679" lon="14.74074">
        <ele>2.06</ele>
        <time>2018-04-18T09:00:25Z</time>
      </trkpt>
      <trkpt lat="38.62715" lon="14.7402">
        <ele>1.58</ele>
        <time>2018-04-18T09:00:42Z</time>
      </trkpt>
      <trkpt lat="38.62755" lon="14.73975">
        <ele>1.58</ele>
        <time>2018-04-18T09:00:58Z</time>
      </trkpt>
      <trkpt lat="38.62799" lon="14.7393">
        <ele>1.1</ele>
        <time>2018-04-18T09:01:15Z</time>
      </trkpt>
      <trkpt lat="38.62858" lon="14.73888">
        <ele>1.1</ele>
        <time>2018-04-18T09:01:35Z</time>
      </trkpt>
      <trkpt lat="38.62903" lon="14.73846">
        <ele>2.54</ele>
        <time>2018-04-18T09:01:52Z</time>
      </trkpt>
      <trkpt lat="38.62915" lon="14.73791">
        <ele>2.54</ele>
        <time>2018-04-18T09:02:07Z</time>
      </trkpt>
      <trkpt lat="38.62908" lon="14.73726">
        <ele>2.06</ele>
        <time>2018-04-18T09:02:25Z</time>
      </trkpt>
      <trkpt lat="38.62894" lon="14.73659">
        <ele>1.58</ele>
        <time>2018-04-18T09:02:44Z</time>
      </trkpt>
      <trkpt lat="38.62881" lon="14.73606">
        <ele>1.1</ele>
        <time>2018-04-18T09:03:00Z</time>
      </trkpt>
      <trkpt lat="38.62866" lon="14.73542">
        <ele>0.14</ele>
        <time>2018-04-18T09:03:19Z</time>
      </trkpt>
      <trkpt lat="38.62853" lon="14.73481">
        <ele>0.62</ele>
        <time>2018-04-18T09:03:37Z</time>
      </trkpt>
      <trkpt lat="38.62841" lon="14.73416">
        <ele>1.58</ele>
        <time>2018-04-18T09:03:56Z</time>
      </trkpt>
      <trkpt lat="38.62835" lon="14.73356">
        <ele>2.54</ele>
        <time>2018-04-18T09:04:13Z</time>
      </trkpt>
      <trkpt lat="38.6283" lon="14.73288">
        <ele>1.58</ele>
        <time>2018-04-18T09:04:32Z</time>
      </trkpt>
      <trkpt lat="38.62815" lon="14.73236">
        <ele>1.1</ele>
        <time>2018-04-18T09:04:48Z</time>
      </trkpt>
      <trkpt lat="38.62802" lon="14.73179">
        <ele>1.1</ele>
        <time>2018-04-18T09:05:05Z</time>
      </trkpt>
      <trkpt lat="38.62791" lon="14.73123">
        <ele>2.06</ele>
        <time>2018-04-18T09:05:21Z</time>
      </trkpt>
      <trkpt lat="38.62782" lon="14.73063">
        <ele>2.54</ele>
        <time>2018-04-18T09:05:38Z</time>
      </trkpt>
      <trkpt lat="38.62773" lon="14.7299">
        <ele>3.02</ele>
        <time>2018-04-18T09:05:58Z</time>
      </trkpt>
      <trkpt lat="38.62764" lon="14.72906">
        <ele>3.02</ele>
        <time>2018-04-18T09:06:21Z</time>
      </trkpt>
      <trkpt lat="38.62757" lon="14.72837">
        <ele>3.02</ele>
        <time>2018-04-18T09:06:40Z</time>
      </trkpt>
      <trkpt lat="38.62752" lon="14.7277">
        <ele>1.58</ele>
        <time>2018-04-18T09:06:58Z</time>
      </trkpt>
      <trkpt lat="38.62749" lon="14.727">
        <ele>1.58</ele>
        <time>2018-04-18T09:07:17Z</time>
      </trkpt>
      <trkpt lat="38.62747" lon="14.72632">
        <ele>2.06</ele>
        <time>2018-04-18T09:07:35Z</time>
      </trkpt>
      <trkpt lat="38.62742" lon="14.72557">
        <ele>2.06</ele>
        <time>2018-04-18T09:07:55Z</time>
      </trkpt>
      <trkpt lat="38.62741" lon="14.72489">
        <ele>1.58</ele>
        <time>2018-04-18T09:08:13Z</time>
      </trkpt>
      <trkpt lat="38.62741" lon="14.72417">
        <ele>1.58</ele>
        <time>2018-04-18T09:08:32Z</time>
      </trkpt>
      <trkpt lat="38.62741" lon="14.7234">
        <ele>2.06</ele>
        <time>2018-04-18T09:08:52Z</time>
      </trkpt>
      <trkpt lat="38.62739" lon="14.72268">
        <ele>1.58</ele>
        <time>2018-04-18T09:09:11Z</time>
      </trkpt>
      <trkpt lat="38.62736" lon="14.72197">
        <ele>1.1</ele>
        <time>2018-04-18T09:09:30Z</time>
      </trkpt>
      <trkpt lat="38.62736" lon="14.72114">
        <ele>1.58</ele>
        <time>2018-04-18T09:09:52Z</time>
      </trkpt>
      <trkpt lat="38.62733" lon="14.72049">
        <ele>1.1</ele>
        <time>2018-04-18T09:10:09Z</time>
      </trkpt>
      <trkpt lat="38.62734" lon="14.71977">
        <ele>0.62</ele>
        <time>2018-04-18T09:10:28Z</time>
      </trkpt>
      <trkpt lat="38.62732" lon="14.71897">
        <ele>1.58</ele>
        <time>2018-04-18T09:10:49Z</time>
      </trkpt>
      <trkpt lat="38.6273" lon="14.71829">
        <ele>1.1</ele>
        <time>2018-04-18T09:11:07Z</time>
      </trkpt>
      <trkpt lat="38.62734" lon="14.71755">
        <ele>2.06</ele>
        <time>2018-04-18T09:11:26Z</time>
      </trkpt>
      <trkpt lat="38.62739" lon="14.71689">
        <ele>1.1</ele>
        <time>2018-04-18T09:11:43Z</time>
      </trkpt>
      <trkpt lat="38.62737" lon="14.71609">
        <ele>0.62</ele>
        <time>2018-04-18T09:12:04Z</time>
      </trkpt>
      <trkpt lat="38.62738" lon="14.71533">
        <ele>0.62</ele>
        <time>2018-04-18T09:12:24Z</time>
      </trkpt>
      <trkpt lat="38.62736" lon="14.71457">
        <ele>0.14</ele>
        <time>2018-04-18T09:12:44Z</time>
      </trkpt>
      <trkpt lat="38.62734" lon="14.71388">
        <ele>0.14</ele>
        <time>2018-04-18T09:13:02Z</time>
      </trkpt>
      <trkpt lat="38.62733" lon="14.71308">
        <ele>1.1</ele>
        <time>2018-04-18T09:13:23Z</time>
      </trkpt>
      <trkpt lat="38.62732" lon="14.71223">
        <ele>0.62</ele>
        <time>2018-04-18T09:13:45Z</time>
      </trkpt>
      <trkpt lat="38.62732" lon="14.7115">
        <ele>0.62</ele>
        <time>2018-04-18T09:14:04Z</time>
      </trkpt>
      <trkpt lat="38.62731" lon="14.71077">
        <ele>1.1</ele>
        <time>2018-04-18T09:14:23Z</time>
      </trkpt>
      <trkpt lat="38.62729" lon="14.70992">
        <ele>1.1</ele>
        <time>2018-04-18T09:14:45Z</time>
      </trkpt>
      <trkpt lat="38.62729" lon="14.70919">
        <ele>1.1</ele>
        <time>2018-04-18T09:15:04Z</time>
      </trkpt>
      <trkpt lat="38.62729" lon="14.70827">
        <ele>1.1</ele>
        <time>2018-04-18T09:15:28Z</time>
      </trkpt>
      <trkpt lat="38.62728" lon="14.7075">
        <ele>1.1</ele>
        <time>2018-04-18T09:15:48Z</time>
      </trkpt>
      <trkpt lat="38.62729" lon="14.70672">
        <ele>1.1</ele>
        <time>2018-04-18T09:16:08Z</time>
      </trkpt>
      <trkpt lat="38.62728" lon="14.70618">
        <ele>1.1</ele>
        <time>2018-04-18T09:16:22Z</time>
      </trkpt>
      <trkpt lat="38.62728" lon="14.7054">
        <ele>1.1</ele>
        <time>2018-04-18T09:16:42Z</time>
      </trkpt>
      <trkpt lat="38.62727" lon="14.70462">
        <ele>1.1</ele>
        <time>2018-04-18T09:17:02Z</time>
      </trkpt>
      <trkpt lat="38.62727" lon="14.70392">
        <ele>1.58</ele>
        <time>2018-04-18T09:17:20Z</time>
      </trkpt>
      <trkpt lat="38.62728" lon="14.70314">
        <ele>1.1</ele>
        <time>2018-04-18T09:17:40Z</time>
      </trkpt>
      <trkpt lat="38.62728" lon="14.70243">
        <ele>1.58</ele>
        <time>2018-04-18T09:17:59Z</time>
      </trkpt>
      <trkpt lat="38.6273" lon="14.70201">
        <ele>1.58</ele>
        <time>2018-04-18T09:18:15Z</time>
      </trkpt>
      <trkpt lat="38.62731" lon="14.70154">
        <ele>1.58</ele>
        <time>2018-04-18T09:18:31Z</time>
      </trkpt>
      <trkpt lat="38.62731" lon="14.7008">
        <ele>2.54</ele>
        <time>2018-04-18T09:18:51Z</time>
      </trkpt>
      <trkpt lat="38.62731" lon="14.70023">
        <ele>2.54</ele>
        <time>2018-04-18T09:19:06Z</time>
      </trkpt>
      <trkpt lat="38.6273" lon="14.69947">
        <ele>3.5</ele>
        <time>2018-04-18T09:19:26Z</time>
      </trkpt>
      <trkpt lat="38.6273" lon="14.6987">
        <ele>2.54</ele>
        <time>2018-04-18T09:19:46Z</time>
      </trkpt>
      <trkpt lat="38.62728" lon="14.6979">
        <ele>2.06</ele>
        <time>2018-04-18T09:20:07Z</time>
      </trkpt>
      <trkpt lat="38.62728" lon="14.69718">
        <ele>2.06</ele>
        <time>2018-04-18T09:20:26Z</time>
      </trkpt>
      <trkpt lat="38.62727" lon="14.69642">
        <ele>3.02</ele>
        <time>2018-04-18T09:20:46Z</time>
      </trkpt>
      <trkpt lat="38.62726" lon="14.69566">
        <ele>3.02</ele>
        <time>2018-04-18T09:21:06Z</time>
      </trkpt>
      <trkpt lat="38.6272" lon="14.69492">
        <ele>1.1</ele>
        <time>2018-04-18T09:21:26Z</time>
      </trkpt>
      <trkpt lat="38.62712" lon="14.69419">
        <ele>0.62</ele>
        <time>2018-04-18T09:21:46Z</time>
      </trkpt>
      <trkpt lat="38.62705" lon="14.69347">
        <ele>0.14</ele>
        <time>2018-04-18T09:22:06Z</time>
      </trkpt>
      <trkpt lat="38.62698" lon="14.69266">
        <ele>0.62</ele>
        <time>2018-04-18T09:22:28Z</time>
      </trkpt>
      <trkpt lat="38.62689" lon="14.69182">
        <ele>0.62</ele>
        <time>2018-04-18T09:22:51Z</time>
      </trkpt>
      <trkpt lat="38.62683" lon="14.69123">
        <ele>0.62</ele>
        <time>2018-04-18T09:23:07Z</time>
      </trkpt>
      <trkpt lat="38.62676" lon="14.6906">
        <ele>0.62</ele>
        <time>2018-04-18T09:23:24Z</time>
      </trkpt>
      <trkpt lat="38.62668" lon="14.69006">
        <ele>1.1</ele>
        <time>2018-04-18T09:23:39Z</time>
      </trkpt>
      <trkpt lat="38.62651" lon="14.68929">
        <ele>2.06</ele>
        <time>2018-04-18T09:24:01Z</time>
      </trkpt>
      <trkpt lat="38.62631" lon="14.68849">
        <ele>1.58</ele>
        <time>2018-04-18T09:24:24Z</time>
      </trkpt>
      <trkpt lat="38.62616" lon="14.6879">
        <ele>0.62</ele>
        <time>2018-04-18T09:24:41Z</time>
      </trkpt>
      <trkpt lat="38.626" lon="14.68727">
        <ele>1.1</ele>
        <time>2018-04-18T09:24:59Z</time>
      </trkpt>
      <trkpt lat="38.62582" lon="14.68658">
        <ele>1.58</ele>
        <time>2018-04-18T09:25:19Z</time>
      </trkpt>
      <trkpt lat="38.62561" lon="14.68582">
        <ele>3.02</ele>
        <time>2018-04-18T09:25:41Z</time>
      </trkpt>
      <trkpt lat="38.6254" lon="14.68503">
        <ele>2.54</ele>
        <time>2018-04-18T09:26:04Z</time>
      </trkpt>
      <trkpt lat="38.62525" lon="14.68443">
        <ele>2.06</ele>
        <time>2018-04-18T09:26:21Z</time>
      </trkpt>
      <trkpt lat="38.62508" lon="14.6838">
        <ele>1.58</ele>
        <time>2018-04-18T09:26:39Z</time>
      </trkpt>
      <trkpt lat="38.62493" lon="14.68317">
        <ele>1.58</ele>
        <time>2018-04-18T09:26:57Z</time>
      </trkpt>
      <trkpt lat="38.62478" lon="14.68257">
        <ele>1.58</ele>
        <time>2018-04-18T09:27:14Z</time>
      </trkpt>
      <trkpt lat="38.62464" lon="14.68201">
        <ele>2.06</ele>
        <time>2018-04-18T09:27:30Z</time>
      </trkpt>
      <trkpt lat="38.62447" lon="14.68134">
        <ele>1.1</ele>
        <time>2018-04-18T09:27:49Z</time>
      </trkpt>
      <trkpt lat="38.6243" lon="14.68067">
        <ele>0.62</ele>
        <time>2018-04-18T09:28:08Z</time>
      </trkpt>
      <trkpt lat="38.62412" lon="14.67994">
        <ele>0.62</ele>
        <time>2018-04-18T09:28:29Z</time>
      </trkpt>
      <trkpt lat="38.62392" lon="14.6792">
        <ele>1.58</ele>
        <time>2018-04-18T09:28:50Z</time>
      </trkpt>
      <trkpt lat="38.62373" lon="14.67847">
        <ele>1.58</ele>
        <time>2018-04-18T09:29:11Z</time>
      </trkpt>
      <trkpt lat="38.62357" lon="14.67784">
        <ele>1.58</ele>
        <time>2018-04-18T09:29:29Z</time>
      </trkpt>
      <trkpt lat="38.6234" lon="14.67718">
        <ele>2.06</ele>
        <time>2018-04-18T09:29:48Z</time>
      </trkpt>
      <trkpt lat="38.62327" lon="14.67662">
        <ele>1.58</ele>
        <time>2018-04-18T09:30:04Z</time>
      </trkpt>
      <trkpt lat="38.62309" lon="14.67593">
        <ele>1.58</ele>
        <time>2018-04-18T09:30:24Z</time>
      </trkpt>
      <trkpt lat="38.6229" lon="14.67517">
        <ele>2.54</ele>
        <time>2018-04-18T09:30:46Z</time>
      </trkpt>
      <trkpt lat="38.62276" lon="14.67462">
        <ele>3.02</ele>
        <time>2018-04-18T09:31:02Z</time>
      </trkpt>
      <trkpt lat="38.62257" lon="14.67394">
        <ele>3.5</ele>
        <time>2018-04-18T09:31:22Z</time>
      </trkpt>
      <trkpt lat="38.62242" lon="14.67336">
        <ele>3.5</ele>
        <time>2018-04-18T09:31:39Z</time>
      </trkpt>
      <trkpt lat="38.62225" lon="14.67271">
        <ele>3.98</ele>
        <time>2018-04-18T09:31:58Z</time>
      </trkpt>
      <trkpt lat="38.62208" lon="14.67206">
        <ele>2.54</ele>
        <time>2018-04-18T09:32:17Z</time>
      </trkpt>
      <trkpt lat="38.6219" lon="14.67137">
        <ele>2.06</ele>
        <time>2018-04-18T09:32:37Z</time>
      </trkpt>
      <trkpt lat="38.62172" lon="14.67068">
        <ele>2.54</ele>
        <time>2018-04-18T09:32:57Z</time>
      </trkpt>
      <trkpt lat="38.62154" lon="14.67003">
        <ele>2.06</ele>
        <time>2018-04-18T09:33:16Z</time>
      </trkpt>
      <trkpt lat="38.62134" lon="14.66931">
        <ele>2.54</ele>
        <time>2018-04-18T09:33:37Z</time>
      </trkpt>
      <trkpt lat="38.62118" lon="14.66869">
        <ele>2.54</ele>
        <time>2018-04-18T09:33:55Z</time>
      </trkpt>
      <trkpt lat="38.62102" lon="14.66811">
        <ele>2.54</ele>
        <time>2018-04-18T09:34:12Z</time>
      </trkpt>
      <trkpt lat="38.62087" lon="14.66753">
        <ele>2.54</ele>
        <time>2018-04-18T09:34:29Z</time>
      </trkpt>
      <trkpt lat="38.62073" lon="14.66702">
        <ele>3.02</ele>
        <time>2018-04-18T09:34:44Z</time>
      </trkpt>
      <trkpt lat="38.62054" lon="14.66638">
        <ele>3.5</ele>
        <time>2018-04-18T09:35:03Z</time>
      </trkpt>
      <trkpt lat="38.62038" lon="14.6658">
        <ele>3.98</ele>
        <time>2018-04-18T09:35:20Z</time>
      </trkpt>
      <trkpt lat="38.6202" lon="14.6652">
        <ele>3.98</ele>
        <time>2018-04-18T09:35:38Z</time>
      </trkpt>
      <trkpt lat="38.62001" lon="14.66456">
        <ele>3.5</ele>
        <time>2018-04-18T09:35:57Z</time>
      </trkpt>
      <trkpt lat="38.61983" lon="14.66399">
        <ele>4.46</ele>
        <time>2018-04-18T09:36:14Z</time>
      </trkpt>
      <trkpt lat="38.61959" lon="14.66321">
        <ele>3.98</ele>
        <time>2018-04-18T09:36:37Z</time>
      </trkpt>
      <trkpt lat="38.61943" lon="14.66271">
        <ele>3.98</ele>
        <time>2018-04-18T09:36:52Z</time>
      </trkpt>
      <trkpt lat="38.61922" lon="14.66204">
        <ele>3.98</ele>
        <time>2018-04-18T09:37:12Z</time>
      </trkpt>
      <trkpt lat="38.61905" lon="14.6615">
        <ele>4.46</ele>
        <time>2018-04-18T09:37:28Z</time>
      </trkpt>
      <trkpt lat="38.61882" lon="14.6608">
        <ele>4.94</ele>
        <time>2018-04-18T09:37:49Z</time>
      </trkpt>
      <trkpt lat="38.61862" lon="14.6602">
        <ele>4.46</ele>
        <time>2018-04-18T09:38:07Z</time>
      </trkpt>
      <trkpt lat="38.61845" lon="14.65967">
        <ele>4.46</ele>
        <time>2018-04-18T09:38:23Z</time>
      </trkpt>
      <trkpt lat="38.61824" lon="14.65907">
        <ele>4.94</ele>
        <time>2018-04-18T09:38:41Z</time>
      </trkpt>
      <trkpt lat="38.61804" lon="14.65847">
        <ele>4.46</ele>
        <time>2018-04-18T09:38:59Z</time>
      </trkpt>
      <trkpt lat="38.61784" lon="14.65786">
        <ele>3.98</ele>
        <time>2018-04-18T09:39:17Z</time>
      </trkpt>
      <trkpt lat="38.61765" lon="14.65716">
        <ele>3.98</ele>
        <time>2018-04-18T09:39:37Z</time>
      </trkpt>
      <trkpt lat="38.6175" lon="14.65649">
        <ele>3.5</ele>
        <time>2018-04-18T09:39:56Z</time>
      </trkpt>
      <trkpt lat="38.61737" lon="14.65596">
        <ele>3.5</ele>
        <time>2018-04-18T09:40:11Z</time>
      </trkpt>
      <trkpt lat="38.61719" lon="14.65528">
        <ele>2.54</ele>
        <time>2018-04-18T09:40:31Z</time>
      </trkpt>
      <trkpt lat="38.61701" lon="14.65467">
        <ele>3.02</ele>
        <time>2018-04-18T09:40:49Z</time>
      </trkpt>
      <trkpt lat="38.61686" lon="14.65415">
        <ele>3.5</ele>
        <time>2018-04-18T09:41:04Z</time>
      </trkpt>
      <trkpt lat="38.61667" lon="14.65355">
        <ele>3.5</ele>
        <time>2018-04-18T09:41:22Z</time>
      </trkpt>
      <trkpt lat="38.61652" lon="14.65296">
        <ele>2.54</ele>
        <time>2018-04-18T09:41:39Z</time>
      </trkpt>
      <trkpt lat="38.61636" lon="14.65233">
        <ele>2.54</ele>
        <time>2018-04-18T09:41:57Z</time>
      </trkpt>
      <trkpt lat="38.61621" lon="14.65177">
        <ele>2.06</ele>
        <time>2018-04-18T09:42:13Z</time>
      </trkpt>
      <trkpt lat="38.61605" lon="14.65118">
        <ele>2.06</ele>
        <time>2018-04-18T09:42:30Z</time>
      </trkpt>
      <trkpt lat="38.61585" lon="14.65049">
        <ele>2.06</ele>
        <time>2018-04-18T09:42:50Z</time>
      </trkpt>
      <trkpt lat="38.61569" lon="14.6499">
        <ele>2.54</ele>
        <time>2018-04-18T09:43:07Z</time>
      </trkpt>
      <trkpt lat="38.61552" lon="14.6493">
        <ele>2.54</ele>
        <time>2018-04-18T09:43:24Z</time>
      </trkpt>
      <trkpt lat="38.61535" lon="14.64872">
        <ele>2.54</ele>
        <time>2018-04-18T09:43:41Z</time>
      </trkpt>
      <trkpt lat="38.61517" lon="14.64805">
        <ele>2.54</ele>
        <time>2018-04-18T09:44:00Z</time>
      </trkpt>
      <trkpt lat="38.61497" lon="14.64734">
        <ele>2.54</ele>
        <time>2018-04-18T09:44:20Z</time>
      </trkpt>
      <trkpt lat="38.61477" lon="14.64664">
        <ele>2.06</ele>
        <time>2018-04-18T09:44:40Z</time>
      </trkpt>
      <trkpt lat="38.61454" lon="14.64587">
        <ele>1.58</ele>
        <time>2018-04-18T09:45:02Z</time>
      </trkpt>
      <trkpt lat="38.61436" lon="14.64524">
        <ele>2.06</ele>
        <time>2018-04-18T09:45:20Z</time>
      </trkpt>
      <trkpt lat="38.61417" lon="14.64457">
        <ele>2.06</ele>
        <time>2018-04-18T09:45:39Z</time>
      </trkpt>
      <trkpt lat="38.61396" lon="14.64388">
        <ele>3.5</ele>
        <time>2018-04-18T09:45:59Z</time>
      </trkpt>
      <trkpt lat="38.61376" lon="14.64317">
        <ele>2.54</ele>
        <time>2018-04-18T09:46:19Z</time>
      </trkpt>
      <trkpt lat="38.6136" lon="14.6426">
        <ele>2.54</ele>
        <time>2018-04-18T09:46:35Z</time>
      </trkpt>
      <trkpt lat="38.61336" lon="14.64174">
        <ele>2.54</ele>
        <time>2018-04-18T09:46:59Z</time>
      </trkpt>
      <trkpt lat="38.61316" lon="14.64107">
        <ele>2.06</ele>
        <time>2018-04-18T09:47:18Z</time>
      </trkpt>
      <trkpt lat="38.61299" lon="14.64047">
        <ele>2.54</ele>
        <time>2018-04-18T09:47:35Z</time>
      </trkpt>
      <trkpt lat="38.61284" lon="14.63994">
        <ele>2.54</ele>
        <time>2018-04-18T09:47:50Z</time>
      </trkpt>
      <trkpt lat="38.61265" lon="14.63927">
        <ele>1.58</ele>
        <time>2018-04-18T09:48:09Z</time>
      </trkpt>
      <trkpt lat="38.61246" lon="14.63863">
        <ele>2.06</ele>
        <time>2018-04-18T09:48:27Z</time>
      </trkpt>
      <trkpt lat="38.61227" lon="14.63796">
        <ele>1.58</ele>
        <time>2018-04-18T09:48:46Z</time>
      </trkpt>
      <trkpt lat="38.61206" lon="14.63721">
        <ele>1.58</ele>
        <time>2018-04-18T09:49:07Z</time>
      </trkpt>
      <trkpt lat="38.61188" lon="14.63657">
        <ele>1.58</ele>
        <time>2018-04-18T09:49:25Z</time>
      </trkpt>
      <trkpt lat="38.61167" lon="14.63585">
        <ele>0.62</ele>
        <time>2018-04-18T09:49:45Z</time>
      </trkpt>
      <trkpt lat="38.61148" lon="14.63518">
        <ele>0.62</ele>
        <time>2018-04-18T09:50:04Z</time>
      </trkpt>
      <trkpt lat="38.6113" lon="14.63454">
        <ele>1.1</ele>
        <time>2018-04-18T09:50:22Z</time>
      </trkpt>
      <trkpt lat="38.61113" lon="14.63394">
        <ele>1.58</ele>
        <time>2018-04-18T09:50:39Z</time>
      </trkpt>
      <trkpt lat="38.61093" lon="14.63323">
        <ele>1.58</ele>
        <time>2018-04-18T09:50:59Z</time>
      </trkpt>
      <trkpt lat="38.61078" lon="14.63266">
        <ele>2.06</ele>
        <time>2018-04-18T09:51:15Z</time>
      </trkpt>
      <trkpt lat="38.61062" lon="14.6321">
        <ele>2.06</ele>
        <time>2018-04-18T09:51:31Z</time>
      </trkpt>
      <trkpt lat="38.61047" lon="14.6316">
        <ele>1.58</ele>
        <time>2018-04-18T09:51:45Z</time>
      </trkpt>
      <trkpt lat="38.61029" lon="14.63088">
        <ele>2.54</ele>
        <time>2018-04-18T09:52:05Z</time>
      </trkpt>
      <trkpt lat="38.61012" lon="14.6302">
        <ele>2.54</ele>
        <time>2018-04-18T09:52:24Z</time>
      </trkpt>
      <trkpt lat="38.60996" lon="14.62956">
        <ele>2.54</ele>
        <time>2018-04-18T09:52:42Z</time>
      </trkpt>
      <trkpt lat="38.6098" lon="14.62895">
        <ele>2.06</ele>
        <time>2018-04-18T09:52:59Z</time>
      </trkpt>
      <trkpt lat="38.60962" lon="14.6282">
        <ele>2.06</ele>
        <time>2018-04-18T09:53:20Z</time>
      </trkpt>
      <trkpt lat="38.60943" lon="14.62749">
        <ele>1.58</ele>
        <time>2018-04-18T09:53:40Z</time>
      </trkpt>
      <trkpt lat="38.60928" lon="14.62692">
        <ele>2.06</ele>
        <time>2018-04-18T09:53:56Z</time>
      </trkpt>
      <trkpt lat="38.60911" lon="14.62621">
        <ele>3.02</ele>
        <time>2018-04-18T09:54:16Z</time>
      </trkpt>
      <trkpt lat="38.60896" lon="14.62564">
        <ele>2.54</ele>
        <time>2018-04-18T09:54:32Z</time>
      </trkpt>
      <trkpt lat="38.60874" lon="14.62486">
        <ele>3.02</ele>
        <time>2018-04-18T09:54:54Z</time>
      </trkpt>
      <trkpt lat="38.60856" lon="14.6242">
        <ele>3.02</ele>
        <time>2018-04-18T09:55:13Z</time>
      </trkpt>
      <trkpt lat="38.60836" lon="14.62349">
        <ele>3.5</ele>
        <time>2018-04-18T09:55:34Z</time>
      </trkpt>
      <trkpt lat="38.60816" lon="14.62278">
        <ele>3.02</ele>
        <time>2018-04-18T09:55:55Z</time>
      </trkpt>
      <trkpt lat="38.60797" lon="14.62211">
        <ele>3.02</ele>
        <time>2018-04-18T09:56:15Z</time>
      </trkpt>
      <trkpt lat="38.60781" lon="14.62153">
        <ele>3.02</ele>
        <time>2018-04-18T09:56:32Z</time>
      </trkpt>
      <trkpt lat="38.6076" lon="14.62082">
        <ele>2.54</ele>
        <time>2018-04-18T09:56:53Z</time>
      </trkpt>
      <trkpt lat="38.60742" lon="14.62018">
        <ele>2.54</ele>
        <time>2018-04-18T09:57:12Z</time>
      </trkpt>
      <trkpt lat="38.60724" lon="14.61954">
        <ele>3.5</ele>
        <time>2018-04-18T09:57:31Z</time>
      </trkpt>
      <trkpt lat="38.60706" lon="14.61894">
        <ele>3.02</ele>
        <time>2018-04-18T09:57:49Z</time>
      </trkpt>
      <trkpt lat="38.60683" lon="14.61814">
        <ele>3.02</ele>
        <time>2018-04-18T09:58:13Z</time>
      </trkpt>
      <trkpt lat="38.60668" lon="14.61762">
        <ele>3.5</ele>
        <time>2018-04-18T09:58:29Z</time>
      </trkpt>
      <trkpt lat="38.60652" lon="14.6171">
        <ele>3.5</ele>
        <time>2018-04-18T09:58:45Z</time>
      </trkpt>
      <trkpt lat="38.60631" lon="14.61634">
        <ele>3.02</ele>
        <time>2018-04-18T09:59:08Z</time>
      </trkpt>
      <trkpt lat="38.60613" lon="14.61572">
        <ele>3.02</ele>
        <time>2018-04-18T09:59:28Z</time>
      </trkpt>
      <trkpt lat="38.606" lon="14.61529">
        <ele>3.02</ele>
        <time>2018-04-18T09:59:45Z</time>
      </trkpt>
      <trkpt lat="38.60588" lon="14.61485">
        <ele>3.5</ele>
        <time>2018-04-18T10:00:04Z</time>
      </trkpt>
      <trkpt lat="38.60578" lon="14.61449">
        <ele>3.02</ele>
        <time>2018-04-18T10:00:18Z</time>
      </trkpt>
      <trkpt lat="38.60562" lon="14.6139">
        <ele>2.54</ele>
        <time>2018-04-18T10:00:37Z</time>
      </trkpt>
      <trkpt lat="38.6054" lon="14.61311">
        <ele>2.54</ele>
        <time>2018-04-18T10:01:01Z</time>
      </trkpt>
      <trkpt lat="38.6052" lon="14.61237">
        <ele>2.06</ele>
        <time>2018-04-18T10:01:23Z</time>
      </trkpt>
      <trkpt lat="38.60504" lon="14.6118">
        <ele>3.02</ele>
        <time>2018-04-18T10:01:40Z</time>
      </trkpt>
      <trkpt lat="38.6049" lon="14.61129">
        <ele>2.06</ele>
        <time>2018-04-18T10:01:55Z</time>
      </trkpt>
      <trkpt lat="38.60469" lon="14.61051">
        <ele>2.06</ele>
        <time>2018-04-18T10:02:18Z</time>
      </trkpt>
      <trkpt lat="38.60453" lon="14.60994">
        <ele>2.54</ele>
        <time>2018-04-18T10:02:35Z</time>
      </trkpt>
      <trkpt lat="38.60438" lon="14.6094">
        <ele>2.54</ele>
        <time>2018-04-18T10:02:51Z</time>
      </trkpt>
      <trkpt lat="38.60421" lon="14.60876">
        <ele>2.06</ele>
        <time>2018-04-18T10:03:10Z</time>
      </trkpt>
      <trkpt lat="38.60401" lon="14.60806">
        <ele>2.06</ele>
        <time>2018-04-18T10:03:30Z</time>
      </trkpt>
      <trkpt lat="38.60383" lon="14.60742">
        <ele>2.06</ele>
        <time>2018-04-18T10:03:48Z</time>
      </trkpt>
      <trkpt lat="38.60363" lon="14.60672">
        <ele>2.06</ele>
        <time>2018-04-18T10:04:08Z</time>
      </trkpt>
      <trkpt lat="38.60345" lon="14.60608">
        <ele>1.1</ele>
        <time>2018-04-18T10:04:26Z</time>
      </trkpt>
      <trkpt lat="38.60325" lon="14.60536">
        <ele>2.06</ele>
        <time>2018-04-18T10:04:46Z</time>
      </trkpt>
      <trkpt lat="38.60305" lon="14.60465">
        <ele>2.06</ele>
        <time>2018-04-18T10:05:06Z</time>
      </trkpt>
      <trkpt lat="38.60289" lon="14.60409">
        <ele>1.58</ele>
        <time>2018-04-18T10:05:22Z</time>
      </trkpt>
      <trkpt lat="38.60267" lon="14.60338">
        <ele>2.54</ele>
        <time>2018-04-18T10:05:42Z</time>
      </trkpt>
      <trkpt lat="38.6025" lon="14.60278">
        <ele>3.02</ele>
        <time>2018-04-18T10:05:59Z</time>
      </trkpt>
      <trkpt lat="38.60231" lon="14.60214">
        <ele>2.06</ele>
        <time>2018-04-18T10:06:17Z</time>
      </trkpt>
      <trkpt lat="38.60211" lon="14.60147">
        <ele>1.1</ele>
        <time>2018-04-18T10:06:36Z</time>
      </trkpt>
      <trkpt lat="38.60189" lon="14.60065">
        <ele>1.58</ele>
        <time>2018-04-18T10:06:59Z</time>
      </trkpt>
      <trkpt lat="38.60166" lon="14.59986">
        <ele>2.54</ele>
        <time>2018-04-18T10:07:21Z</time>
      </trkpt>
      <trkpt lat="38.60147" lon="14.5992">
        <ele>3.02</ele>
        <time>2018-04-18T10:07:40Z</time>
      </trkpt>
      <trkpt lat="38.60129" lon="14.59852">
        <ele>3.5</ele>
        <time>2018-04-18T10:07:59Z</time>
      </trkpt>
      <trkpt lat="38.60109" lon="14.59782">
        <ele>3.5</ele>
        <time>2018-04-18T10:08:19Z</time>
      </trkpt>
      <trkpt lat="38.60089" lon="14.59709">
        <ele>2.06</ele>
        <time>2018-04-18T10:08:40Z</time>
      </trkpt>
      <trkpt lat="38.60071" lon="14.59646">
        <ele>3.02</ele>
        <time>2018-04-18T10:08:58Z</time>
      </trkpt>
      <trkpt lat="38.60053" lon="14.5958">
        <ele>3.02</ele>
        <time>2018-04-18T10:09:17Z</time>
      </trkpt>
      <trkpt lat="38.60036" lon="14.59517">
        <ele>3.02</ele>
        <time>2018-04-18T10:09:35Z</time>
      </trkpt>
      <trkpt lat="38.60019" lon="14.59453">
        <ele>2.54</ele>
        <time>2018-04-18T10:09:53Z</time>
      </trkpt>
      <trkpt lat="38.60001" lon="14.59383">
        <ele>3.02</ele>
        <time>2018-04-18T10:10:13Z</time>
      </trkpt>
      <trkpt lat="38.59982" lon="14.59313">
        <ele>2.54</ele>
        <time>2018-04-18T10:10:33Z</time>
      </trkpt>
      <trkpt lat="38.59964" lon="14.59249">
        <ele>2.54</ele>
        <time>2018-04-18T10:10:51Z</time>
      </trkpt>
      <trkpt lat="38.59946" lon="14.59182">
        <ele>2.06</ele>
        <time>2018-04-18T10:11:10Z</time>
      </trkpt>
      <trkpt lat="38.59926" lon="14.59111">
        <ele>3.02</ele>
        <time>2018-04-18T10:11:30Z</time>
      </trkpt>
      <trkpt lat="38.59907" lon="14.59039">
        <ele>2.54</ele>
        <time>2018-04-18T10:11:50Z</time>
      </trkpt>
      <trkpt lat="38.59885" lon="14.58958">
        <ele>2.54</ele>
        <time>2018-04-18T10:12:13Z</time>
      </trkpt>
      <trkpt lat="38.59865" lon="14.58883">
        <ele>3.02</ele>
        <time>2018-04-18T10:12:34Z</time>
      </trkpt>
      <trkpt lat="38.59843" lon="14.58798">
        <ele>3.02</ele>
        <time>2018-04-18T10:12:58Z</time>
      </trkpt>
      <trkpt lat="38.59823" lon="14.58723">
        <ele>3.5</ele>
        <time>2018-04-18T10:13:19Z</time>
      </trkpt>
      <trkpt lat="38.59804" lon="14.58647">
        <ele>3.5</ele>
        <time>2018-04-18T10:13:40Z</time>
      </trkpt>
      <trkpt lat="38.59787" lon="14.58583">
        <ele>3.02</ele>
        <time>2018-04-18T10:13:58Z</time>
      </trkpt>
      <trkpt lat="38.59769" lon="14.58509">
        <ele>3.02</ele>
        <time>2018-04-18T10:14:19Z</time>
      </trkpt>
      <trkpt lat="38.5977" lon="14.58471">
        <ele>1.1</ele>
        <time>2018-04-18T10:14:34Z</time>
      </trkpt>
      <trkpt lat="38.59787" lon="14.58441">
        <ele>-3.23</ele>
        <time>2018-04-18T10:14:51Z</time>
      </trkpt>
      <trkpt lat="38.59813" lon="14.58415">
        <ele>-1.79</ele>
        <time>2018-04-18T10:15:12Z</time>
      </trkpt>
      <trkpt lat="38.59831" lon="14.58399">
        <ele>-1.3</ele>
        <time>2018-04-18T10:15:29Z</time>
      </trkpt>
      <trkpt lat="38.59855" lon="14.58382">
        <ele>-0.82</ele>
        <time>2018-04-18T10:15:49Z</time>
      </trkpt>
      <trkpt lat="38.59877" lon="14.58367">
        <ele>-1.3</ele>
        <time>2018-04-18T10:16:06Z</time>
      </trkpt>
      <trkpt lat="38.59899" lon="14.58353">
        <ele>0.62</ele>
        <time>2018-04-18T10:16:23Z</time>
      </trkpt>
      <trkpt lat="38.59918" lon="14.58343">
        <ele>1.58</ele>
        <time>2018-04-18T10:16:38Z</time>
      </trkpt>
      <trkpt lat="38.59945" lon="14.58347">
        <ele>3.98</ele>
        <time>2018-04-18T10:16:59Z</time>
      </trkpt>
      <trkpt lat="38.5997" lon="14.58351">
        <ele>3.5</ele>
        <time>2018-04-18T10:17:18Z</time>
      </trkpt>
      <trkpt lat="38.59992" lon="14.58359">
        <ele>3.5</ele>
        <time>2018-04-18T10:17:35Z</time>
      </trkpt>
      <trkpt lat="38.60019" lon="14.58367">
        <ele>3.5</ele>
        <time>2018-04-18T10:17:54Z</time>
      </trkpt>
      <trkpt lat="38.60044" lon="14.58373">
        <ele>3.02</ele>
        <time>2018-04-18T10:18:12Z</time>
      </trkpt>
      <trkpt lat="38.60075" lon="14.58378">
        <ele>3.02</ele>
        <time>2018-04-18T10:18:34Z</time>
      </trkpt>
      <trkpt lat="38.60104" lon="14.58381">
        <ele>2.54</ele>
        <time>2018-04-18T10:18:54Z</time>
      </trkpt>
      <trkpt lat="38.60117" lon="14.58361">
        <ele>1.58</ele>
        <time>2018-04-18T10:19:10Z</time>
      </trkpt>
      <trkpt lat="38.60111" lon="14.58333">
        <ele>2.54</ele>
        <time>2018-04-18T10:19:26Z</time>
      </trkpt>
      <trkpt lat="38.6011" lon="14.58298">
        <ele>2.54</ele>
        <time>2018-04-18T10:19:44Z</time>
      </trkpt>
      <trkpt lat="38.60102" lon="14.5826">
        <ele>3.5</ele>
        <time>2018-04-18T10:20:01Z</time>
      </trkpt>
      <trkpt lat="38.6009" lon="14.58227">
        <ele>2.06</ele>
        <time>2018-04-18T10:20:14Z</time>
      </trkpt>
      <trkpt lat="38.6007" lon="14.58189">
        <ele>1.58</ele>
        <time>2018-04-18T10:20:30Z</time>
      </trkpt>
      <trkpt lat="38.60049" lon="14.58146">
        <ele>1.58</ele>
        <time>2018-04-18T10:20:46Z</time>
      </trkpt>
      <trkpt lat="38.60033" lon="14.58114">
        <ele>1.1</ele>
        <time>2018-04-18T10:20:57Z</time>
      </trkpt>
      <trkpt lat="38.60006" lon="14.58062">
        <ele>2.54</ele>
        <time>2018-04-18T10:21:15Z</time>
      </trkpt>
      <trkpt lat="38.59987" lon="14.58017">
        <ele>1.58</ele>
        <time>2018-04-18T10:21:30Z</time>
      </trkpt>
      <trkpt lat="38.59971" lon="14.5797">
        <ele>1.58</ele>
        <time>2018-04-18T10:21:45Z</time>
      </trkpt>
      <trkpt lat="38.59956" lon="14.57928">
        <ele>1.58</ele>
        <time>2018-04-18T10:21:58Z</time>
      </trkpt>
      <trkpt lat="38.59936" lon="14.57878">
        <ele>0.62</ele>
        <time>2018-04-18T10:22:14Z</time>
      </trkpt>
      <trkpt lat="38.59915" lon="14.57821">
        <ele>1.1</ele>
        <time>2018-04-18T10:22:32Z</time>
      </trkpt>
      <trkpt lat="38.59896" lon="14.5776">
        <ele>2.06</ele>
        <time>2018-04-18T10:22:51Z</time>
      </trkpt>
      <trkpt lat="38.5988" lon="14.57704">
        <ele>2.54</ele>
        <time>2018-04-18T10:23:08Z</time>
      </trkpt>
      <trkpt lat="38.5986" lon="14.57639">
        <ele>2.54</ele>
        <time>2018-04-18T10:23:28Z</time>
      </trkpt>
      <trkpt lat="38.59836" lon="14.57574">
        <ele>3.02</ele>
        <time>2018-04-18T10:23:49Z</time>
      </trkpt>
      <trkpt lat="38.59817" lon="14.57528">
        <ele>1.58</ele>
        <time>2018-04-18T10:24:04Z</time>
      </trkpt>
      <trkpt lat="38.598" lon="14.57466">
        <ele>2.54</ele>
        <time>2018-04-18T10:24:23Z</time>
      </trkpt>
      <trkpt lat="38.59778" lon="14.5741">
        <ele>2.54</ele>
        <time>2018-04-18T10:24:41Z</time>
      </trkpt>
      <trkpt lat="38.59772" lon="14.57348">
        <ele>2.06</ele>
        <time>2018-04-18T10:24:59Z</time>
      </trkpt>
      <trkpt lat="38.5976" lon="14.57282">
        <ele>3.5</ele>
        <time>2018-04-18T10:25:18Z</time>
      </trkpt>
      <trkpt lat="38.59748" lon="14.57206">
        <ele>2.54</ele>
        <time>2018-04-18T10:25:39Z</time>
      </trkpt>
      <trkpt lat="38.59738" lon="14.57134">
        <ele>2.54</ele>
        <time>2018-04-18T10:25:59Z</time>
      </trkpt>
      <trkpt lat="38.59729" lon="14.57069">
        <ele>2.06</ele>
        <time>2018-04-18T10:26:17Z</time>
      </trkpt>
      <trkpt lat="38.59718" lon="14.57001">
        <ele>2.54</ele>
        <time>2018-04-18T10:26:36Z</time>
      </trkpt>
      <trkpt lat="38.59699" lon="14.56936">
        <ele>3.02</ele>
        <time>2018-04-18T10:26:55Z</time>
      </trkpt>
      <trkpt lat="38.59687" lon="14.56864">
        <ele>3.98</ele>
        <time>2018-04-18T10:27:15Z</time>
      </trkpt>
      <trkpt lat="38.59677" lon="14.56799">
        <ele>2.54</ele>
        <time>2018-04-18T10:27:33Z</time>
      </trkpt>
      <trkpt lat="38.59675" lon="14.5674">
        <ele>0.14</ele>
        <time>2018-04-18T10:27:49Z</time>
      </trkpt>
      <trkpt lat="38.59672" lon="14.56685">
        <ele>0.62</ele>
        <time>2018-04-18T10:28:04Z</time>
      </trkpt>
      <trkpt lat="38.5966" lon="14.5661">
        <ele>2.06</ele>
        <time>2018-04-18T10:28:25Z</time>
      </trkpt>
      <trkpt lat="38.59651" lon="14.56541">
        <ele>2.06</ele>
        <time>2018-04-18T10:28:44Z</time>
      </trkpt>
      <trkpt lat="38.59637" lon="14.56463">
        <ele>2.54</ele>
        <time>2018-04-18T10:29:06Z</time>
      </trkpt>
      <trkpt lat="38.59622" lon="14.56392">
        <ele>3.02</ele>
        <time>2018-04-18T10:29:26Z</time>
      </trkpt>
      <trkpt lat="38.59606" lon="14.56318">
        <ele>3.5</ele>
        <time>2018-04-18T10:29:47Z</time>
      </trkpt>
      <trkpt lat="38.59594" lon="14.56261">
        <ele>3.5</ele>
        <time>2018-04-18T10:30:03Z</time>
      </trkpt>
      <trkpt lat="38.59579" lon="14.56202">
        <ele>3.98</ele>
        <time>2018-04-18T10:30:20Z</time>
      </trkpt>
      <trkpt lat="38.59565" lon="14.56146">
        <ele>3.02</ele>
        <time>2018-04-18T10:30:36Z</time>
      </trkpt>
      <trkpt lat="38.59551" lon="14.5609">
        <ele>3.5</ele>
        <time>2018-04-18T10:30:52Z</time>
      </trkpt>
      <trkpt lat="38.59537" lon="14.5603">
        <ele>3.5</ele>
        <time>2018-04-18T10:31:09Z</time>
      </trkpt>
      <trkpt lat="38.5952" lon="14.55968">
        <ele>3.5</ele>
        <time>2018-04-18T10:31:27Z</time>
      </trkpt>
      <trkpt lat="38.59497" lon="14.55908">
        <ele>2.06</ele>
        <time>2018-04-18T10:31:45Z</time>
      </trkpt>
      <trkpt lat="38.59476" lon="14.55854">
        <ele>0.62</ele>
        <time>2018-04-18T10:32:02Z</time>
      </trkpt>
      <trkpt lat="38.59455" lon="14.55798">
        <ele>0.62</ele>
        <time>2018-04-18T10:32:19Z</time>
      </trkpt>
      <trkpt lat="38.5944" lon="14.55748">
        <ele>1.1</ele>
        <time>2018-04-18T10:32:34Z</time>
      </trkpt>
      <trkpt lat="38.59426" lon="14.55697">
        <ele>2.06</ele>
        <time>2018-04-18T10:32:49Z</time>
      </trkpt>
      <trkpt lat="38.59409" lon="14.55621">
        <ele>2.06</ele>
        <time>2018-04-18T10:33:11Z</time>
      </trkpt>
      <trkpt lat="38.59403" lon="14.5557">
        <ele>1.58</ele>
        <time>2018-04-18T10:33:26Z</time>
      </trkpt>
      <trkpt lat="38.59397" lon="14.5552">
        <ele>2.06</ele>
        <time>2018-04-18T10:33:41Z</time>
      </trkpt>
      <trkpt lat="38.5938" lon="14.55452">
        <ele>0.62</ele>
        <time>2018-04-18T10:34:01Z</time>
      </trkpt>
      <trkpt lat="38.59362" lon="14.55381">
        <ele>0.14</ele>
        <time>2018-04-18T10:34:22Z</time>
      </trkpt>
      <trkpt lat="38.59344" lon="14.55322">
        <ele>0.62</ele>
        <time>2018-04-18T10:34:40Z</time>
      </trkpt>
      <trkpt lat="38.59331" lon="14.55277">
        <ele>0.62</ele>
        <time>2018-04-18T10:34:53Z</time>
      </trkpt>
      <trkpt lat="38.59312" lon="14.55235">
        <ele>0.14</ele>
        <time>2018-04-18T10:35:07Z</time>
      </trkpt>
      <trkpt lat="38.59286" lon="14.55186">
        <ele>-0.82</ele>
        <time>2018-04-18T10:35:24Z</time>
      </trkpt>
      <trkpt lat="38.59263" lon="14.5514">
        <ele>-0.34</ele>
        <time>2018-04-18T10:35:39Z</time>
      </trkpt>
      <trkpt lat="38.59238" lon="14.551">
        <ele>0.14</ele>
        <time>2018-04-18T10:35:58Z</time>
      </trkpt>
      <trkpt lat="38.59212" lon="14.55068">
        <ele>0.14</ele>
        <time>2018-04-18T10:36:21Z</time>
      </trkpt>
      <trkpt lat="38.59191" lon="14.55047">
        <ele>0.62</ele>
        <time>2018-04-18T10:36:40Z</time>
      </trkpt>
      <trkpt lat="38.59167" lon="14.55029">
        <ele>0.62</ele>
        <time>2018-04-18T10:37:02Z</time>
      </trkpt>
      <trkpt lat="38.59144" lon="14.55015">
        <ele>0.62</ele>
        <time>2018-04-18T10:37:22Z</time>
      </trkpt>
      <trkpt lat="38.59122" lon="14.55005">
        <ele>1.1</ele>
        <time>2018-04-18T10:37:41Z</time>
      </trkpt>
      <trkpt lat="38.59098" lon="14.54997">
        <ele>2.06</ele>
        <time>2018-04-18T10:38:02Z</time>
      </trkpt>
      <trkpt lat="38.59069" lon="14.54986">
        <ele>2.54</ele>
        <time>2018-04-18T10:38:21Z</time>
      </trkpt>
      <trkpt lat="38.59038" lon="14.54973">
        <ele>3.02</ele>
        <time>2018-04-18T10:38:39Z</time>
      </trkpt>
      <trkpt lat="38.59011" lon="14.54963">
        <ele>4.46</ele>
        <time>2018-04-18T10:38:55Z</time>
      </trkpt>
      <trkpt lat="38.58979" lon="14.54962">
        <ele>3.5</ele>
        <time>2018-04-18T10:39:16Z</time>
      </trkpt>
      <trkpt lat="38.58952" lon="14.54957">
        <ele>3.5</ele>
        <time>2018-04-18T10:39:35Z</time>
      </trkpt>
      <trkpt lat="38.58919" lon="14.54946">
        <ele>4.94</ele>
        <time>2018-04-18T10:39:56Z</time>
      </trkpt>
      <trkpt lat="38.58894" lon="14.54937">
        <ele>3.98</ele>
        <time>2018-04-18T10:40:12Z</time>
      </trkpt>
      <trkpt lat="38.58868" lon="14.54924">
        <ele>3.98</ele>
        <time>2018-04-18T10:40:29Z</time>
      </trkpt>
      <trkpt lat="38.58841" lon="14.54915">
        <ele>4.94</ele>
        <time>2018-04-18T10:40:47Z</time>
      </trkpt>
      <trkpt lat="38.58808" lon="14.54912">
        <ele>3.98</ele>
        <time>2018-04-18T10:41:08Z</time>
      </trkpt>
      <trkpt lat="38.58783" lon="14.54919">
        <ele>3.5</ele>
        <time>2018-04-18T10:41:27Z</time>
      </trkpt>
      <trkpt lat="38.58758" lon="14.54921">
        <ele>3.02</ele>
        <time>2018-04-18T10:41:49Z</time>
      </trkpt>
      <trkpt lat="38.58735" lon="14.54922">
        <ele>3.5</ele>
        <time>2018-04-18T10:42:11Z</time>
      </trkpt>
      <trkpt lat="38.58711" lon="14.54924">
        <ele>3.98</ele>
        <time>2018-04-18T10:42:35Z</time>
      </trkpt>
      <trkpt lat="38.58707" lon="14.54924">
        <ele>3.5</ele>
        <time>2018-04-18T10:42:57Z</time>
      </trkpt>
      <trkpt lat="38.58706" lon="14.54923">
        <ele>4.46</ele>
        <time>2018-04-18T10:43:18Z</time>
      </trkpt>
      <trkpt lat="38.58705" lon="14.54919">
        <ele>5.42</ele>
        <time>2018-04-18T10:43:39Z</time>
      </trkpt>
      <trkpt lat="38.58703" lon="14.54913">
        <ele>5.42</ele>
        <time>2018-04-18T10:43:54Z</time>
      </trkpt>
      <trkpt lat="38.58702" lon="14.54909">
        <ele>4.46</ele>
        <time>2018-04-18T10:44:13Z</time>
      </trkpt>
      <trkpt lat="38.587" lon="14.54905">
        <ele>3.98</ele>
        <time>2018-04-18T10:44:33Z</time>
      </trkpt>
      <trkpt lat="38.58699" lon="14.549">
        <ele>3.98</ele>
        <time>2018-04-18T10:44:57Z</time>
      </trkpt>
      <trkpt lat="38.58699" lon="14.54897">
        <ele>3.98</ele>
        <time>2018-04-18T10:45:19Z</time>
      </trkpt>
      <trkpt lat="38.58698" lon="14.54893">
        <ele>4.46</ele>
        <time>2018-04-18T10:45:36Z</time>
      </trkpt>
      <trkpt lat="38.58697" lon="14.5489">
        <ele>4.46</ele>
        <time>2018-04-18T10:45:58Z</time>
      </trkpt>
      <trkpt lat="38.58695" lon="14.54888">
        <ele>3.5</ele>
        <time>2018-04-18T10:46:20Z</time>
      </trkpt>
      <trkpt lat="38.58694" lon="14.54886">
        <ele>3.5</ele>
        <time>2018-04-18T10:46:42Z</time>
      </trkpt>
      <trkpt lat="38.58693" lon="14.54885">
        <ele>3.5</ele>
        <time>2018-04-18T10:47:02Z</time>
      </trkpt>
      <trkpt lat="38.58692" lon="14.54885">
        <ele>3.02</ele>
        <time>2018-04-18T10:47:26Z</time>
      </trkpt>
      <trkpt lat="38.5869" lon="14.54884">
        <ele>2.54</ele>
        <time>2018-04-18T10:47:48Z</time>
      </trkpt>
      <trkpt lat="38.5869" lon="14.54884">
        <ele>2.06</ele>
        <time>2018-04-18T10:48:08Z</time>
      </trkpt>
      <trkpt lat="38.58689" lon="14.54883">
        <ele>2.06</ele>
        <time>2018-04-18T10:48:28Z</time>
      </trkpt>
      <trkpt lat="38.58687" lon="14.54883">
        <ele>2.54</ele>
        <time>2018-04-18T10:48:50Z</time>
      </trkpt>
      <trkpt lat="38.58686" lon="14.54883">
        <ele>2.54</ele>
        <time>2018-04-18T10:49:16Z</time>
      </trkpt>
      <trkpt lat="38.58686" lon="14.54883">
        <ele>2.54</ele>
        <time>2018-04-18T10:49:39Z</time>
      </trkpt>
      <trkpt lat="38.58686" lon="14.54884">
        <ele>2.54</ele>
        <time>2018-04-18T10:50:03Z</time>
      </trkpt>
      <trkpt lat="38.58686" lon="14.54884">
        <ele>2.06</ele>
        <time>2018-04-18T10:50:25Z</time>
      </trkpt>
      <trkpt lat="38.58686" lon="14.54885">
        <ele>2.06</ele>
        <time>2018-04-18T10:50:32Z</time>
      </trkpt>
      <trkpt lat="38.58664" lon="14.54877">
        <ele>-5.15</ele>
        <time>2018-04-18T11:57:04Z</time>
      </trkpt>
      <trkpt lat="38.58679" lon="14.54879">
        <ele>-3.71</ele>
        <time>2018-04-18T11:57:06Z</time>
      </trkpt>
      <trkpt lat="38.58694" lon="14.54888">
        <ele>0.62</ele>
        <time>2018-04-18T11:57:13Z</time>
      </trkpt>
      <trkpt lat="38.58692" lon="14.5489">
        <ele>0.62</ele>
        <time>2018-04-18T11:57:24Z</time>
      </trkpt>
      <trkpt lat="38.5869" lon="14.54893">
        <ele>-3.23</ele>
        <time>2018-04-18T11:57:34Z</time>
      </trkpt>
      <trkpt lat="38.58688" lon="14.54893">
        <ele>-4.67</ele>
        <time>2018-04-18T11:57:47Z</time>
      </trkpt>
      <trkpt lat="38.58688" lon="14.54899">
        <ele>-3.71</ele>
        <time>2018-04-18T11:58:02Z</time>
      </trkpt>
      <trkpt lat="38.5869" lon="14.54899">
        <ele>-2.27</ele>
        <time>2018-04-18T11:58:16Z</time>
      </trkpt>
      <trkpt lat="38.5869" lon="14.549">
        <ele>-1.3</ele>
        <time>2018-04-18T11:58:26Z</time>
      </trkpt>
      <trkpt lat="38.5869" lon="14.54902">
        <ele>-1.79</ele>
        <time>2018-04-18T11:58:43Z</time>
      </trkpt>
      <trkpt lat="38.5869" lon="14.54901">
        <ele>-0.82</ele>
        <time>2018-04-18T11:58:56Z</time>
      </trkpt>
      <trkpt lat="38.5869" lon="14.54905">
        <ele>-1.3</ele>
        <time>2018-04-18T11:59:16Z</time>
      </trkpt>
      <trkpt lat="38.58691" lon="14.54907">
        <ele>-0.34</ele>
        <time>2018-04-18T11:59:28Z</time>
      </trkpt>
      <trkpt lat="38.58691" lon="14.54908">
        <ele>-0.82</ele>
        <time>2018-04-18T11:59:38Z</time>
      </trkpt>
      <trkpt lat="38.58693" lon="14.5491">
        <ele>-0.34</ele>
        <time>2018-04-18T11:59:48Z</time>
      </trkpt>
      <trkpt lat="38.58695" lon="14.54909">
        <ele>-0.82</ele>
        <time>2018-04-18T12:00:00Z</time>
      </trkpt>
      <trkpt lat="38.58698" lon="14.54909">
        <ele>-1.3</ele>
        <time>2018-04-18T12:00:12Z</time>
      </trkpt>
      <trkpt lat="38.58702" lon="14.54915">
        <ele>-1.79</ele>
        <time>2018-04-18T12:00:22Z</time>
      </trkpt>
      <trkpt lat="38.58705" lon="14.54919">
        <ele>-2.27</ele>
        <time>2018-04-18T12:00:26Z</time>
      </trkpt>
      <trkpt lat="38.5871" lon="14.54924">
        <ele>-2.27</ele>
        <time>2018-04-18T12:00:31Z</time>
      </trkpt>
      <trkpt lat="38.58712" lon="14.54927">
        <ele>-2.75</ele>
        <time>2018-04-18T12:00:35Z</time>
      </trkpt>
      <trkpt lat="38.58715" lon="14.54929">
        <ele>-3.71</ele>
        <time>2018-04-18T12:00:38Z</time>
      </trkpt>
      <trkpt lat="38.58727" lon="14.54937">
        <ele>-3.71</ele>
        <time>2018-04-18T12:00:50Z</time>
      </trkpt>
      <trkpt lat="38.58727" lon="14.54938">
        <ele>-3.71</ele>
        <time>2018-04-18T12:00:51Z</time>
      </trkpt>
      <trkpt lat="38.58732" lon="14.54942">
        <ele>-4.19</ele>
        <time>2018-04-18T12:00:55Z</time>
      </trkpt>
      <trkpt lat="38.58733" lon="14.54946">
        <ele>-4.67</ele>
        <time>2018-04-18T12:00:59Z</time>
      </trkpt>
      <trkpt lat="38.58732" lon="14.54958">
        <ele>-5.15</ele>
        <time>2018-04-18T12:01:05Z</time>
      </trkpt>
      <trkpt lat="38.58736" lon="14.54989">
        <ele>-3.71</ele>
        <time>2018-04-18T12:01:19Z</time>
      </trkpt>
      <trkpt lat="38.58744" lon="14.55015">
        <ele>-1.79</ele>
        <time>2018-04-18T12:01:30Z</time>
      </trkpt>
      <trkpt lat="38.58753" lon="14.55056">
        <ele>3.98</ele>
        <time>2018-04-18T12:01:48Z</time>
      </trkpt>
      <trkpt lat="38.58758" lon="14.551">
        <ele>3.98</ele>
        <time>2018-04-18T12:02:08Z</time>
      </trkpt>
      <trkpt lat="38.58766" lon="14.55134">
        <ele>3.98</ele>
        <time>2018-04-18T12:02:27Z</time>
      </trkpt>
      <trkpt lat="38.58772" lon="14.55167">
        <ele>3.98</ele>
        <time>2018-04-18T12:02:46Z</time>
      </trkpt>
      <trkpt lat="38.58779" lon="14.55196">
        <ele>3.98</ele>
        <time>2018-04-18T12:03:03Z</time>
      </trkpt>
      <trkpt lat="38.58787" lon="14.55231">
        <ele>4.94</ele>
        <time>2018-04-18T12:03:23Z</time>
      </trkpt>
      <trkpt lat="38.58792" lon="14.55288">
        <ele>5.42</ele>
        <time>2018-04-18T12:03:47Z</time>
      </trkpt>
      <trkpt lat="38.5881" lon="14.5536">
        <ele>4.94</ele>
        <time>2018-04-18T12:04:09Z</time>
      </trkpt>
      <trkpt lat="38.5882" lon="14.5545">
        <ele>5.91</ele>
        <time>2018-04-18T12:04:34Z</time>
      </trkpt>
      <trkpt lat="38.58825" lon="14.55491">
        <ele>1.58</ele>
        <time>2018-04-18T12:04:49Z</time>
      </trkpt>
      <trkpt lat="38.58825" lon="14.55534">
        <ele>0.62</ele>
        <time>2018-04-18T12:05:02Z</time>
      </trkpt>
      <trkpt lat="38.58822" lon="14.55576">
        <ele>0.14</ele>
        <time>2018-04-18T12:05:15Z</time>
      </trkpt>
      <trkpt lat="38.5882" lon="14.55606">
        <ele>0.62</ele>
        <time>2018-04-18T12:05:24Z</time>
      </trkpt>
      <trkpt lat="38.58815" lon="14.55664">
        <ele>1.58</ele>
        <time>2018-04-18T12:05:41Z</time>
      </trkpt>
      <trkpt lat="38.58805" lon="14.5572">
        <ele>0.62</ele>
        <time>2018-04-18T12:05:58Z</time>
      </trkpt>
      <trkpt lat="38.58793" lon="14.55779">
        <ele>2.06</ele>
        <time>2018-04-18T12:06:16Z</time>
      </trkpt>
      <trkpt lat="38.58785" lon="14.55836">
        <ele>3.02</ele>
        <time>2018-04-18T12:06:33Z</time>
      </trkpt>
      <trkpt lat="38.58777" lon="14.55889">
        <ele>3.02</ele>
        <time>2018-04-18T12:06:49Z</time>
      </trkpt>
      <trkpt lat="38.58766" lon="14.55944">
        <ele>3.02</ele>
        <time>2018-04-18T12:07:06Z</time>
      </trkpt>
      <trkpt lat="38.58761" lon="14.55998">
        <ele>3.02</ele>
        <time>2018-04-18T12:07:22Z</time>
      </trkpt>
      <trkpt lat="38.58766" lon="14.56052">
        <ele>3.02</ele>
        <time>2018-04-18T12:07:38Z</time>
      </trkpt>
      <trkpt lat="38.58763" lon="14.56095">
        <ele>3.02</ele>
        <time>2018-04-18T12:07:51Z</time>
      </trkpt>
      <trkpt lat="38.5875" lon="14.56154">
        <ele>3.02</ele>
        <time>2018-04-18T12:08:09Z</time>
      </trkpt>
      <trkpt lat="38.58744" lon="14.56205">
        <ele>2.54</ele>
        <time>2018-04-18T12:08:24Z</time>
      </trkpt>
      <trkpt lat="38.58735" lon="14.56258">
        <ele>2.54</ele>
        <time>2018-04-18T12:08:40Z</time>
      </trkpt>
      <trkpt lat="38.58727" lon="14.56316">
        <ele>3.5</ele>
        <time>2018-04-18T12:08:57Z</time>
      </trkpt>
      <trkpt lat="38.58717" lon="14.5638">
        <ele>3.98</ele>
        <time>2018-04-18T12:09:16Z</time>
      </trkpt>
      <trkpt lat="38.58707" lon="14.56441">
        <ele>3.98</ele>
        <time>2018-04-18T12:09:34Z</time>
      </trkpt>
      <trkpt lat="38.58695" lon="14.56505">
        <ele>4.46</ele>
        <time>2018-04-18T12:09:53Z</time>
      </trkpt>
      <trkpt lat="38.58685" lon="14.56569">
        <ele>3.98</ele>
        <time>2018-04-18T12:10:12Z</time>
      </trkpt>
      <trkpt lat="38.58677" lon="14.56628">
        <ele>4.46</ele>
        <time>2018-04-18T12:10:29Z</time>
      </trkpt>
      <trkpt lat="38.58668" lon="14.5669">
        <ele>5.42</ele>
        <time>2018-04-18T12:10:47Z</time>
      </trkpt>
      <trkpt lat="38.58664" lon="14.56732">
        <ele>5.42</ele>
        <time>2018-04-18T12:10:59Z</time>
      </trkpt>
      <trkpt lat="38.58657" lon="14.56783">
        <ele>4.94</ele>
        <time>2018-04-18T12:11:14Z</time>
      </trkpt>
      <trkpt lat="38.5865" lon="14.56837">
        <ele>4.94</ele>
        <time>2018-04-18T12:11:30Z</time>
      </trkpt>
      <trkpt lat="38.58641" lon="14.56894">
        <ele>3.5</ele>
        <time>2018-04-18T12:11:47Z</time>
      </trkpt>
      <trkpt lat="38.58626" lon="14.56946">
        <ele>3.5</ele>
        <time>2018-04-18T12:12:03Z</time>
      </trkpt>
      <trkpt lat="38.58608" lon="14.57001">
        <ele>3.98</ele>
        <time>2018-04-18T12:12:20Z</time>
      </trkpt>
      <trkpt lat="38.58581" lon="14.57062">
        <ele>3.02</ele>
        <time>2018-04-18T12:12:40Z</time>
      </trkpt>
      <trkpt lat="38.58559" lon="14.57117">
        <ele>3.5</ele>
        <time>2018-04-18T12:12:58Z</time>
      </trkpt>
      <trkpt lat="38.58538" lon="14.5717">
        <ele>3.02</ele>
        <time>2018-04-18T12:13:15Z</time>
      </trkpt>
      <trkpt lat="38.58521" lon="14.57225">
        <ele>2.54</ele>
        <time>2018-04-18T12:13:32Z</time>
      </trkpt>
      <trkpt lat="38.58505" lon="14.57277">
        <ele>2.06</ele>
        <time>2018-04-18T12:13:48Z</time>
      </trkpt>
      <trkpt lat="38.58484" lon="14.57339">
        <ele>2.54</ele>
        <time>2018-04-18T12:14:07Z</time>
      </trkpt>
      <trkpt lat="38.58463" lon="14.57396">
        <ele>2.06</ele>
        <time>2018-04-18T12:14:25Z</time>
      </trkpt>
      <trkpt lat="38.58435" lon="14.57466">
        <ele>2.54</ele>
        <time>2018-04-18T12:14:47Z</time>
      </trkpt>
      <trkpt lat="38.58414" lon="14.57515">
        <ele>2.06</ele>
        <time>2018-04-18T12:15:03Z</time>
      </trkpt>
      <trkpt lat="38.58384" lon="14.57571">
        <ele>3.02</ele>
        <time>2018-04-18T12:15:22Z</time>
      </trkpt>
      <trkpt lat="38.58356" lon="14.5763">
        <ele>3.5</ele>
        <time>2018-04-18T12:15:41Z</time>
      </trkpt>
      <trkpt lat="38.58325" lon="14.57696">
        <ele>3.02</ele>
        <time>2018-04-18T12:16:03Z</time>
      </trkpt>
      <trkpt lat="38.58307" lon="14.57746">
        <ele>2.06</ele>
        <time>2018-04-18T12:16:19Z</time>
      </trkpt>
      <trkpt lat="38.58283" lon="14.57801">
        <ele>2.54</ele>
        <time>2018-04-18T12:16:37Z</time>
      </trkpt>
      <trkpt lat="38.5826" lon="14.57868">
        <ele>2.06</ele>
        <time>2018-04-18T12:16:58Z</time>
      </trkpt>
      <trkpt lat="38.58239" lon="14.57927">
        <ele>2.54</ele>
        <time>2018-04-18T12:17:17Z</time>
      </trkpt>
      <trkpt lat="38.58205" lon="14.5799">
        <ele>2.54</ele>
        <time>2018-04-18T12:17:39Z</time>
      </trkpt>
      <trkpt lat="38.58189" lon="14.58065">
        <ele>2.54</ele>
        <time>2018-04-18T12:18:01Z</time>
      </trkpt>
      <trkpt lat="38.58168" lon="14.58121">
        <ele>1.58</ele>
        <time>2018-04-18T12:18:19Z</time>
      </trkpt>
      <trkpt lat="38.58146" lon="14.58167">
        <ele>1.1</ele>
        <time>2018-04-18T12:18:35Z</time>
      </trkpt>
      <trkpt lat="38.58116" lon="14.58213">
        <ele>0.14</ele>
        <time>2018-04-18T12:18:53Z</time>
      </trkpt>
      <trkpt lat="38.58089" lon="14.58258">
        <ele>0.14</ele>
        <time>2018-04-18T12:19:10Z</time>
      </trkpt>
      <trkpt lat="38.58049" lon="14.58296">
        <ele>3.02</ele>
        <time>2018-04-18T12:19:29Z</time>
      </trkpt>
      <trkpt lat="38.58006" lon="14.58332">
        <ele>3.98</ele>
        <time>2018-04-18T12:19:49Z</time>
      </trkpt>
      <trkpt lat="38.57972" lon="14.58362">
        <ele>4.46</ele>
        <time>2018-04-18T12:20:05Z</time>
      </trkpt>
      <trkpt lat="38.57926" lon="14.58391">
        <ele>4.46</ele>
        <time>2018-04-18T12:20:25Z</time>
      </trkpt>
      <trkpt lat="38.57877" lon="14.58417">
        <ele>3.98</ele>
        <time>2018-04-18T12:20:45Z</time>
      </trkpt>
      <trkpt lat="38.57829" lon="14.58438">
        <ele>3.5</ele>
        <time>2018-04-18T12:21:04Z</time>
      </trkpt>
      <trkpt lat="38.5778" lon="14.58452">
        <ele>3.5</ele>
        <time>2018-04-18T12:21:23Z</time>
      </trkpt>
      <trkpt lat="38.57731" lon="14.58468">
        <ele>2.54</ele>
        <time>2018-04-18T12:21:42Z</time>
      </trkpt>
      <trkpt lat="38.57675" lon="14.58484">
        <ele>1.58</ele>
        <time>2018-04-18T12:22:04Z</time>
      </trkpt>
      <trkpt lat="38.57617" lon="14.58487">
        <ele>1.1</ele>
        <time>2018-04-18T12:22:26Z</time>
      </trkpt>
      <trkpt lat="38.57566" lon="14.58491">
        <ele>0.62</ele>
        <time>2018-04-18T12:22:45Z</time>
      </trkpt>
      <trkpt lat="38.57515" lon="14.58513">
        <ele>1.1</ele>
        <time>2018-04-18T12:23:05Z</time>
      </trkpt>
      <trkpt lat="38.57464" lon="14.58534">
        <ele>1.58</ele>
        <time>2018-04-18T12:23:25Z</time>
      </trkpt>
      <trkpt lat="38.57407" lon="14.58545">
        <ele>0.62</ele>
        <time>2018-04-18T12:23:47Z</time>
      </trkpt>
      <trkpt lat="38.5734" lon="14.58551">
        <ele>1.1</ele>
        <time>2018-04-18T12:24:12Z</time>
      </trkpt>
      <trkpt lat="38.57279" lon="14.58559">
        <ele>0.62</ele>
        <time>2018-04-18T12:24:35Z</time>
      </trkpt>
      <trkpt lat="38.57227" lon="14.58576">
        <ele>1.58</ele>
        <time>2018-04-18T12:24:55Z</time>
      </trkpt>
      <trkpt lat="38.5717" lon="14.58587">
        <ele>1.1</ele>
        <time>2018-04-18T12:25:16Z</time>
      </trkpt>
      <trkpt lat="38.57113" lon="14.58592">
        <ele>1.58</ele>
        <time>2018-04-18T12:25:37Z</time>
      </trkpt>
      <trkpt lat="38.57065" lon="14.58595">
        <ele>0.62</ele>
        <time>2018-04-18T12:25:54Z</time>
      </trkpt>
      <trkpt lat="38.57011" lon="14.58607">
        <ele>0.14</ele>
        <time>2018-04-18T12:26:13Z</time>
      </trkpt>
      <trkpt lat="38.56966" lon="14.58615">
        <ele>0.62</ele>
        <time>2018-04-18T12:26:30Z</time>
      </trkpt>
      <trkpt lat="38.56912" lon="14.58624">
        <ele>1.58</ele>
        <time>2018-04-18T12:26:51Z</time>
      </trkpt>
      <trkpt lat="38.56875" lon="14.58625">
        <ele>2.54</ele>
        <time>2018-04-18T12:27:05Z</time>
      </trkpt>
      <trkpt lat="38.56826" lon="14.58629">
        <ele>2.54</ele>
        <time>2018-04-18T12:27:24Z</time>
      </trkpt>
      <trkpt lat="38.56768" lon="14.58636">
        <ele>2.54</ele>
        <time>2018-04-18T12:27:47Z</time>
      </trkpt>
      <trkpt lat="38.56701" lon="14.58645">
        <ele>3.02</ele>
        <time>2018-04-18T12:28:13Z</time>
      </trkpt>
      <trkpt lat="38.56645" lon="14.5865">
        <ele>3.02</ele>
        <time>2018-04-18T12:28:35Z</time>
      </trkpt>
      <trkpt lat="38.56582" lon="14.58654">
        <ele>2.06</ele>
        <time>2018-04-18T12:29:00Z</time>
      </trkpt>
      <trkpt lat="38.56523" lon="14.58654">
        <ele>1.58</ele>
        <time>2018-04-18T12:29:23Z</time>
      </trkpt>
      <trkpt lat="38.5647" lon="14.5866">
        <ele>0.62</ele>
        <time>2018-04-18T12:29:44Z</time>
      </trkpt>
      <trkpt lat="38.56407" lon="14.58663">
        <ele>2.06</ele>
        <time>2018-04-18T12:30:08Z</time>
      </trkpt>
      <trkpt lat="38.56366" lon="14.58665">
        <ele>1.58</ele>
        <time>2018-04-18T12:30:24Z</time>
      </trkpt>
      <trkpt lat="38.56318" lon="14.58668">
        <ele>1.1</ele>
        <time>2018-04-18T12:30:43Z</time>
      </trkpt>
      <trkpt lat="38.56279" lon="14.58672">
        <ele>2.06</ele>
        <time>2018-04-18T12:31:00Z</time>
      </trkpt>
      <trkpt lat="38.56252" lon="14.58673">
        <ele>2.06</ele>
        <time>2018-04-18T12:31:13Z</time>
      </trkpt>
      <trkpt lat="38.56209" lon="14.58674">
        <ele>1.58</ele>
        <time>2018-04-18T12:31:34Z</time>
      </trkpt>
      <trkpt lat="38.56188" lon="14.58676">
        <ele>1.1</ele>
        <time>2018-04-18T12:31:46Z</time>
      </trkpt>
      <trkpt lat="38.56153" lon="14.58681">
        <ele>0.62</ele>
        <time>2018-04-18T12:32:02Z</time>
      </trkpt>
      <trkpt lat="38.56128" lon="14.58684">
        <ele>1.58</ele>
        <time>2018-04-18T12:32:16Z</time>
      </trkpt>
      <trkpt lat="38.56093" lon="14.58684">
        <ele>3.02</ele>
        <time>2018-04-18T12:32:37Z</time>
      </trkpt>
      <trkpt lat="38.56059" lon="14.58683">
        <ele>3.5</ele>
        <time>2018-04-18T12:32:57Z</time>
      </trkpt>
      <trkpt lat="38.56037" lon="14.5868">
        <ele>2.06</ele>
        <time>2018-04-18T12:33:10Z</time>
      </trkpt>
      <trkpt lat="38.56003" lon="14.58674">
        <ele>0.14</ele>
        <time>2018-04-18T12:33:30Z</time>
      </trkpt>
      <trkpt lat="38.55982" lon="14.58668">
        <ele>1.58</ele>
        <time>2018-04-18T12:33:44Z</time>
      </trkpt>
      <trkpt lat="38.55964" lon="14.58661">
        <ele>1.1</ele>
        <time>2018-04-18T12:34:02Z</time>
      </trkpt>
      <trkpt lat="38.55959" lon="14.58659">
        <ele>1.58</ele>
        <time>2018-04-18T12:34:13Z</time>
      </trkpt>
      <trkpt lat="38.55957" lon="14.58657">
        <ele>1.58</ele>
        <time>2018-04-18T12:34:38Z</time>
      </trkpt>
      <trkpt lat="38.55957" lon="14.58655">
        <ele>1.58</ele>
        <time>2018-04-18T12:35:00Z</time>
      </trkpt>
      <trkpt lat="38.55958" lon="14.58654">
        <ele>1.58</ele>
        <time>2018-04-18T12:35:19Z</time>
      </trkpt>
      <trkpt lat="38.55961" lon="14.58655">
        <ele>0.14</ele>
        <time>2018-04-18T12:35:34Z</time>
      </trkpt>
      <trkpt lat="38.55964" lon="14.58654">
        <ele>0.14</ele>
        <time>2018-04-18T12:35:47Z</time>
      </trkpt>
      <trkpt lat="38.55967" lon="14.58651">
        <ele>0.14</ele>
        <time>2018-04-18T12:35:59Z</time>
      </trkpt>
      <trkpt lat="38.55966" lon="14.58647">
        <ele>1.1</ele>
        <time>2018-04-18T12:36:26Z</time>
      </trkpt>
      <trkpt lat="38.55963" lon="14.58642">
        <ele>1.58</ele>
        <time>2018-04-18T12:36:55Z</time>
      </trkpt>
      <trkpt lat="38.55959" lon="14.58638">
        <ele>2.54</ele>
        <time>2018-04-18T12:37:14Z</time>
      </trkpt>
      <trkpt lat="38.55956" lon="14.58634">
        <ele>2.06</ele>
        <time>2018-04-18T12:37:37Z</time>
      </trkpt>
      <trkpt lat="38.55952" lon="14.58633">
        <ele>1.58</ele>
        <time>2018-04-18T12:38:09Z</time>
      </trkpt>
      <trkpt lat="38.5595" lon="14.58633">
        <ele>2.06</ele>
        <time>2018-04-18T12:38:35Z</time>
      </trkpt>
      <trkpt lat="38.55949" lon="14.58637">
        <ele>2.06</ele>
        <time>2018-04-18T12:38:49Z</time>
      </trkpt>
      <trkpt lat="38.55948" lon="14.58637">
        <ele>2.06</ele>
        <time>2018-04-18T12:38:53Z</time>
      </trkpt>
      <trkpt lat="38.55948" lon="14.58639">
        <ele>0.62</ele>
        <time>2018-04-18T12:39:06Z</time>
      </trkpt>
      <trkpt lat="38.55946" lon="14.58638">
        <ele>0.14</ele>
        <time>2018-04-18T12:39:27Z</time>
      </trkpt>
      <trkpt lat="38.55945" lon="14.58639">
        <ele>0.14</ele>
        <time>2018-04-18T12:39:40Z</time>
      </trkpt>
      <trkpt lat="38.55945" lon="14.5864">
        <ele>-1.3</ele>
        <time>2018-04-18T12:39:53Z</time>
      </trkpt>
      <trkpt lat="38.55945" lon="14.58641">
        <ele>-2.27</ele>
        <time>2018-04-18T12:40:07Z</time>
      </trkpt>
      <trkpt lat="38.55944" lon="14.5864">
        <ele>-2.27</ele>
        <time>2018-04-18T12:40:34Z</time>
      </trkpt>
      <trkpt lat="38.55944" lon="14.5864">
        <ele>-2.27</ele>
        <time>2018-04-18T12:40:49Z</time>
      </trkpt>
      <trkpt lat="38.55943" lon="14.58638">
        <ele>-1.3</ele>
        <time>2018-04-18T12:41:02Z</time>
      </trkpt>
      <trkpt lat="38.55943" lon="14.58638">
        <ele>-0.82</ele>
        <time>2018-04-18T12:41:21Z</time>
      </trkpt>
      <trkpt lat="38.55943" lon="14.58638">
        <ele>0.14</ele>
        <time>2018-04-18T12:41:50Z</time>
      </trkpt>
      <trkpt lat="38.55943" lon="14.58638">
        <ele>0.62</ele>
        <time>2018-04-18T12:42:13Z</time>
      </trkpt>
      <trkpt lat="38.55943" lon="14.58639">
        <ele>0.62</ele>
        <time>2018-04-18T12:42:39Z</time>
      </trkpt>
      <trkpt lat="38.55943" lon="14.58639">
        <ele>1.1</ele>
        <time>2018-04-18T12:43:09Z</time>
      </trkpt>
      <trkpt lat="38.55943" lon="14.58638">
        <ele>1.1</ele>
        <time>2018-04-18T12:43:34Z</time>
      </trkpt>
      <trkpt lat="38.55943" lon="14.58638">
        <ele>1.1</ele>
        <time>2018-04-18T12:43:59Z</time>
      </trkpt>
      <trkpt lat="38.55943" lon="14.58638">
        <ele>1.1</ele>
        <time>2018-04-18T12:44:28Z</time>
      </trkpt>
      <trkpt lat="38.55943" lon="14.58638">
        <ele>0.62</ele>
        <time>2018-04-18T12:44:55Z</time>
      </trkpt>
      <trkpt lat="38.55942" lon="14.58638">
        <ele>0.62</ele>
        <time>2018-04-18T12:45:18Z</time>
      </trkpt>
      <trkpt lat="38.55943" lon="14.58639">
        <ele>1.1</ele>
        <time>2018-04-18T12:45:31Z</time>
      </trkpt>
      <trkpt lat="38.55943" lon="14.58641">
        <ele>0.62</ele>
        <time>2018-04-18T12:45:34Z</time>
      </trkpt>
      <trkpt lat="38.55944" lon="14.58638">
        <ele>1.1</ele>
        <time>2018-04-18T12:52:25Z</time>
      </trkpt>
      <trkpt lat="38.55949" lon="14.58641">
        <ele>0.62</ele>
        <time>2018-04-18T12:52:39Z</time>
      </trkpt>
      <trkpt lat="38.55957" lon="14.58652">
        <ele>1.1</ele>
        <time>2018-04-18T12:53:01Z</time>
      </trkpt>
      <trkpt lat="38.55958" lon="14.58659">
        <ele>1.1</ele>
        <time>2018-04-18T12:53:22Z</time>
      </trkpt>
      <trkpt lat="38.55957" lon="14.58658">
        <ele>0.62</ele>
        <time>2018-04-18T12:53:42Z</time>
      </trkpt>
      <trkpt lat="38.55957" lon="14.58651">
        <ele>1.1</ele>
        <time>2018-04-18T12:54:03Z</time>
      </trkpt>
      <trkpt lat="38.55957" lon="14.58645">
        <ele>0.62</ele>
        <time>2018-04-18T12:54:24Z</time>
      </trkpt>
      <trkpt lat="38.55954" lon="14.58644">
        <ele>0.62</ele>
        <time>2018-04-18T12:54:46Z</time>
      </trkpt>
      <trkpt lat="38.55955" lon="14.58657">
        <ele>1.1</ele>
        <time>2018-04-18T12:55:04Z</time>
      </trkpt>
      <trkpt lat="38.55983" lon="14.58686">
        <ele>2.06</ele>
        <time>2018-04-18T12:55:28Z</time>
      </trkpt>
      <trkpt lat="38.56022" lon="14.58717">
        <ele>1.1</ele>
        <time>2018-04-18T12:55:50Z</time>
      </trkpt>
      <trkpt lat="38.56051" lon="14.5876">
        <ele>1.1</ele>
        <time>2018-04-18T12:56:10Z</time>
      </trkpt>
      <trkpt lat="38.56071" lon="14.58806">
        <ele>0.62</ele>
        <time>2018-04-18T12:56:28Z</time>
      </trkpt>
      <trkpt lat="38.56091" lon="14.58847">
        <ele>1.1</ele>
        <time>2018-04-18T12:56:45Z</time>
      </trkpt>
      <trkpt lat="38.56122" lon="14.58879">
        <ele>1.58</ele>
        <time>2018-04-18T12:57:03Z</time>
      </trkpt>
      <trkpt lat="38.56153" lon="14.58907">
        <ele>1.1</ele>
        <time>2018-04-18T12:57:22Z</time>
      </trkpt>
      <trkpt lat="38.56194" lon="14.58936">
        <ele>1.1</ele>
        <time>2018-04-18T12:57:45Z</time>
      </trkpt>
      <trkpt lat="38.56242" lon="14.58962">
        <ele>0.62</ele>
        <time>2018-04-18T12:58:11Z</time>
      </trkpt>
      <trkpt lat="38.56294" lon="14.58981">
        <ele>0.62</ele>
        <time>2018-04-18T12:58:38Z</time>
      </trkpt>
      <trkpt lat="38.56332" lon="14.58996">
        <ele>1.1</ele>
        <time>2018-04-18T12:58:58Z</time>
      </trkpt>
      <trkpt lat="38.56379" lon="14.59008">
        <ele>-0.34</ele>
        <time>2018-04-18T12:59:22Z</time>
      </trkpt>
      <trkpt lat="38.56431" lon="14.59015">
        <ele>-0.34</ele>
        <time>2018-04-18T12:59:48Z</time>
      </trkpt>
      <trkpt lat="38.56481" lon="14.59025">
        <ele>0.14</ele>
        <time>2018-04-18T13:00:13Z</time>
      </trkpt>
      <trkpt lat="38.56513" lon="14.59055">
        <ele>-0.34</ele>
        <time>2018-04-18T13:00:34Z</time>
      </trkpt>
      <trkpt lat="38.5652" lon="14.59116">
        <ele>0.14</ele>
        <time>2018-04-18T13:00:54Z</time>
      </trkpt>
      <trkpt lat="38.5651" lon="14.59199">
        <ele>0.62</ele>
        <time>2018-04-18T13:01:17Z</time>
      </trkpt>
      <trkpt lat="38.5649" lon="14.59265">
        <ele>0.14</ele>
        <time>2018-04-18T13:01:36Z</time>
      </trkpt>
      <trkpt lat="38.56475" lon="14.5934">
        <ele>-0.82</ele>
        <time>2018-04-18T13:01:57Z</time>
      </trkpt>
      <trkpt lat="38.56447" lon="14.59426">
        <ele>-0.34</ele>
        <time>2018-04-18T13:02:22Z</time>
      </trkpt>
      <trkpt lat="38.56399" lon="14.59509">
        <ele>1.1</ele>
        <time>2018-04-18T13:02:49Z</time>
      </trkpt>
      <trkpt lat="38.56346" lon="14.59585">
        <ele>1.1</ele>
        <time>2018-04-18T13:03:15Z</time>
      </trkpt>
      <trkpt lat="38.56299" lon="14.59669">
        <ele>1.58</ele>
        <time>2018-04-18T13:03:41Z</time>
      </trkpt>
      <trkpt lat="38.56266" lon="14.59741">
        <ele>2.06</ele>
        <time>2018-04-18T13:04:02Z</time>
      </trkpt>
      <trkpt lat="38.56237" lon="14.5981">
        <ele>2.06</ele>
        <time>2018-04-18T13:04:22Z</time>
      </trkpt>
      <trkpt lat="38.56206" lon="14.59883">
        <ele>2.06</ele>
        <time>2018-04-18T13:04:43Z</time>
      </trkpt>
      <trkpt lat="38.56184" lon="14.59939">
        <ele>2.06</ele>
        <time>2018-04-18T13:04:59Z</time>
      </trkpt>
      <trkpt lat="38.56154" lon="14.60012">
        <ele>1.58</ele>
        <time>2018-04-18T13:05:20Z</time>
      </trkpt>
      <trkpt lat="38.56122" lon="14.60088">
        <ele>2.06</ele>
        <time>2018-04-18T13:05:42Z</time>
      </trkpt>
      <trkpt lat="38.56091" lon="14.60167">
        <ele>1.58</ele>
        <time>2018-04-18T13:06:04Z</time>
      </trkpt>
      <trkpt lat="38.56061" lon="14.60243">
        <ele>2.06</ele>
        <time>2018-04-18T13:06:25Z</time>
      </trkpt>
      <trkpt lat="38.56025" lon="14.60332">
        <ele>-0.34</ele>
        <time>2018-04-18T13:06:50Z</time>
      </trkpt>
      <trkpt lat="38.55992" lon="14.60415">
        <ele>0.62</ele>
        <time>2018-04-18T13:07:13Z</time>
      </trkpt>
      <trkpt lat="38.55961" lon="14.60495">
        <ele>0.62</ele>
        <time>2018-04-18T13:07:35Z</time>
      </trkpt>
      <trkpt lat="38.55925" lon="14.60585">
        <ele>0.62</ele>
        <time>2018-04-18T13:08:00Z</time>
      </trkpt>
      <trkpt lat="38.55886" lon="14.60687">
        <ele>0.62</ele>
        <time>2018-04-18T13:08:28Z</time>
      </trkpt>
      <trkpt lat="38.55855" lon="14.60763">
        <ele>1.1</ele>
        <time>2018-04-18T13:08:49Z</time>
      </trkpt>
      <trkpt lat="38.55825" lon="14.6084">
        <ele>1.1</ele>
        <time>2018-04-18T13:09:10Z</time>
      </trkpt>
      <trkpt lat="38.55791" lon="14.60928">
        <ele>1.58</ele>
        <time>2018-04-18T13:09:34Z</time>
      </trkpt>
      <trkpt lat="38.55752" lon="14.61026">
        <ele>1.1</ele>
        <time>2018-04-18T13:10:01Z</time>
      </trkpt>
      <trkpt lat="38.55714" lon="14.61126">
        <ele>1.1</ele>
        <time>2018-04-18T13:10:29Z</time>
      </trkpt>
      <trkpt lat="38.55681" lon="14.61213">
        <ele>1.1</ele>
        <time>2018-04-18T13:10:53Z</time>
      </trkpt>
      <trkpt lat="38.55647" lon="14.61304">
        <ele>1.1</ele>
        <time>2018-04-18T13:11:18Z</time>
      </trkpt>
      <trkpt lat="38.55611" lon="14.61398">
        <ele>0.62</ele>
        <time>2018-04-18T13:11:44Z</time>
      </trkpt>
      <trkpt lat="38.5558" lon="14.61481">
        <ele>0.14</ele>
        <time>2018-04-18T13:12:07Z</time>
      </trkpt>
      <trkpt lat="38.55551" lon="14.61557">
        <ele>-0.34</ele>
        <time>2018-04-18T13:12:28Z</time>
      </trkpt>
      <trkpt lat="38.55521" lon="14.6164">
        <ele>-0.34</ele>
        <time>2018-04-18T13:12:51Z</time>
      </trkpt>
      <trkpt lat="38.55488" lon="14.61731">
        <ele>-0.34</ele>
        <time>2018-04-18T13:13:16Z</time>
      </trkpt>
      <trkpt lat="38.55456" lon="14.61822">
        <ele>-0.82</ele>
        <time>2018-04-18T13:13:41Z</time>
      </trkpt>
      <trkpt lat="38.55428" lon="14.61898">
        <ele>-0.34</ele>
        <time>2018-04-18T13:14:02Z</time>
      </trkpt>
      <trkpt lat="38.55399" lon="14.61978">
        <ele>-0.34</ele>
        <time>2018-04-18T13:14:24Z</time>
      </trkpt>
      <trkpt lat="38.55373" lon="14.62051">
        <ele>-0.34</ele>
        <time>2018-04-18T13:14:44Z</time>
      </trkpt>
      <trkpt lat="38.55344" lon="14.62131">
        <ele>-0.34</ele>
        <time>2018-04-18T13:15:06Z</time>
      </trkpt>
      <trkpt lat="38.55314" lon="14.62214">
        <ele>-0.82</ele>
        <time>2018-04-18T13:15:29Z</time>
      </trkpt>
      <trkpt lat="38.55278" lon="14.6231">
        <ele>0.62</ele>
        <time>2018-04-18T13:15:56Z</time>
      </trkpt>
      <trkpt lat="38.5525" lon="14.62389">
        <ele>0.62</ele>
        <time>2018-04-18T13:16:18Z</time>
      </trkpt>
      <trkpt lat="38.55215" lon="14.62482">
        <ele>0.14</ele>
        <time>2018-04-18T13:16:44Z</time>
      </trkpt>
      <trkpt lat="38.55182" lon="14.62572">
        <ele>0.14</ele>
        <time>2018-04-18T13:17:09Z</time>
      </trkpt>
      <trkpt lat="38.55155" lon="14.62647">
        <ele>-0.34</ele>
        <time>2018-04-18T13:17:30Z</time>
      </trkpt>
      <trkpt lat="38.55122" lon="14.6274">
        <ele>0.62</ele>
        <time>2018-04-18T13:17:56Z</time>
      </trkpt>
      <trkpt lat="38.55092" lon="14.62826">
        <ele>1.1</ele>
        <time>2018-04-18T13:18:20Z</time>
      </trkpt>
      <trkpt lat="38.55062" lon="14.62907">
        <ele>0.62</ele>
        <time>2018-04-18T13:18:43Z</time>
      </trkpt>
      <trkpt lat="38.55033" lon="14.62986">
        <ele>0.62</ele>
        <time>2018-04-18T13:19:05Z</time>
      </trkpt>
      <trkpt lat="38.55005" lon="14.63063">
        <ele>1.1</ele>
        <time>2018-04-18T13:19:27Z</time>
      </trkpt>
      <trkpt lat="38.54979" lon="14.63134">
        <ele>-0.34</ele>
        <time>2018-04-18T13:19:47Z</time>
      </trkpt>
      <trkpt lat="38.54955" lon="14.63201">
        <ele>0.14</ele>
        <time>2018-04-18T13:20:06Z</time>
      </trkpt>
      <trkpt lat="38.54932" lon="14.63264">
        <ele>0.62</ele>
        <time>2018-04-18T13:20:24Z</time>
      </trkpt>
      <trkpt lat="38.54906" lon="14.63339">
        <ele>0.14</ele>
        <time>2018-04-18T13:20:45Z</time>
      </trkpt>
      <trkpt lat="38.54872" lon="14.6343">
        <ele>0.14</ele>
        <time>2018-04-18T13:21:11Z</time>
      </trkpt>
      <trkpt lat="38.54846" lon="14.63504">
        <ele>0.14</ele>
        <time>2018-04-18T13:21:32Z</time>
      </trkpt>
      <trkpt lat="38.54821" lon="14.63572">
        <ele>0.14</ele>
        <time>2018-04-18T13:21:51Z</time>
      </trkpt>
      <trkpt lat="38.54797" lon="14.63639">
        <ele>-0.82</ele>
        <time>2018-04-18T13:22:10Z</time>
      </trkpt>
      <trkpt lat="38.54773" lon="14.63706">
        <ele>-0.34</ele>
        <time>2018-04-18T13:22:29Z</time>
      </trkpt>
      <trkpt lat="38.54743" lon="14.63789">
        <ele>-0.34</ele>
        <time>2018-04-18T13:22:52Z</time>
      </trkpt>
      <trkpt lat="38.54708" lon="14.63884">
        <ele>-0.34</ele>
        <time>2018-04-18T13:23:19Z</time>
      </trkpt>
      <trkpt lat="38.54674" lon="14.63978">
        <ele>-0.34</ele>
        <time>2018-04-18T13:23:45Z</time>
      </trkpt>
      <trkpt lat="38.54642" lon="14.64063">
        <ele>-0.34</ele>
        <time>2018-04-18T13:24:09Z</time>
      </trkpt>
      <trkpt lat="38.54609" lon="14.64151">
        <ele>-0.34</ele>
        <time>2018-04-18T13:24:34Z</time>
      </trkpt>
      <trkpt lat="38.54577" lon="14.64235">
        <ele>-0.82</ele>
        <time>2018-04-18T13:24:58Z</time>
      </trkpt>
      <trkpt lat="38.54547" lon="14.64316">
        <ele>-0.82</ele>
        <time>2018-04-18T13:25:21Z</time>
      </trkpt>
      <trkpt lat="38.54513" lon="14.64407">
        <ele>-0.82</ele>
        <time>2018-04-18T13:25:47Z</time>
      </trkpt>
      <trkpt lat="38.54481" lon="14.6449">
        <ele>-0.82</ele>
        <time>2018-04-18T13:26:11Z</time>
      </trkpt>
      <trkpt lat="38.54452" lon="14.64567">
        <ele>-0.34</ele>
        <time>2018-04-18T13:26:33Z</time>
      </trkpt>
      <trkpt lat="38.54426" lon="14.64637">
        <ele>-0.34</ele>
        <time>2018-04-18T13:26:53Z</time>
      </trkpt>
      <trkpt lat="38.54393" lon="14.64726">
        <ele>-0.34</ele>
        <time>2018-04-18T13:27:18Z</time>
      </trkpt>
      <trkpt lat="38.54361" lon="14.64816">
        <ele>0.14</ele>
        <time>2018-04-18T13:27:43Z</time>
      </trkpt>
      <trkpt lat="38.54324" lon="14.64912">
        <ele>-0.34</ele>
        <time>2018-04-18T13:28:10Z</time>
      </trkpt>
      <trkpt lat="38.54286" lon="14.65014">
        <ele>0.14</ele>
        <time>2018-04-18T13:28:39Z</time>
      </trkpt>
      <trkpt lat="38.54253" lon="14.65105">
        <ele>0.14</ele>
        <time>2018-04-18T13:29:05Z</time>
      </trkpt>
      <trkpt lat="38.5422" lon="14.65192">
        <ele>0.14</ele>
        <time>2018-04-18T13:29:30Z</time>
      </trkpt>
      <trkpt lat="38.54187" lon="14.65285">
        <ele>0.14</ele>
        <time>2018-04-18T13:29:56Z</time>
      </trkpt>
      <trkpt lat="38.54151" lon="14.65381">
        <ele>0.14</ele>
        <time>2018-04-18T13:30:23Z</time>
      </trkpt>
      <trkpt lat="38.54121" lon="14.65463">
        <ele>0.62</ele>
        <time>2018-04-18T13:30:46Z</time>
      </trkpt>
      <trkpt lat="38.54093" lon="14.65542">
        <ele>0.14</ele>
        <time>2018-04-18T13:31:08Z</time>
      </trkpt>
      <trkpt lat="38.54059" lon="14.65634">
        <ele>-0.34</ele>
        <time>2018-04-18T13:31:34Z</time>
      </trkpt>
      <trkpt lat="38.54027" lon="14.65723">
        <ele>-0.34</ele>
        <time>2018-04-18T13:31:59Z</time>
      </trkpt>
      <trkpt lat="38.53998" lon="14.65805">
        <ele>-0.82</ele>
        <time>2018-04-18T13:32:22Z</time>
      </trkpt>
      <trkpt lat="38.53973" lon="14.65877">
        <ele>-0.82</ele>
        <time>2018-04-18T13:32:42Z</time>
      </trkpt>
      <trkpt lat="38.53947" lon="14.65948">
        <ele>-0.82</ele>
        <time>2018-04-18T13:33:02Z</time>
      </trkpt>
      <trkpt lat="38.53921" lon="14.66022">
        <ele>-0.34</ele>
        <time>2018-04-18T13:33:23Z</time>
      </trkpt>
      <trkpt lat="38.53894" lon="14.66098">
        <ele>-0.34</ele>
        <time>2018-04-18T13:33:44Z</time>
      </trkpt>
      <trkpt lat="38.53862" lon="14.6619">
        <ele>-0.34</ele>
        <time>2018-04-18T13:34:10Z</time>
      </trkpt>
      <trkpt lat="38.53832" lon="14.66272">
        <ele>-0.82</ele>
        <time>2018-04-18T13:34:33Z</time>
      </trkpt>
      <trkpt lat="38.53804" lon="14.66353">
        <ele>-0.82</ele>
        <time>2018-04-18T13:34:56Z</time>
      </trkpt>
      <trkpt lat="38.53779" lon="14.66429">
        <ele>0.14</ele>
        <time>2018-04-18T13:35:17Z</time>
      </trkpt>
      <trkpt lat="38.53747" lon="14.66523">
        <ele>0.14</ele>
        <time>2018-04-18T13:35:43Z</time>
      </trkpt>
      <trkpt lat="38.53718" lon="14.66604">
        <ele>-0.34</ele>
        <time>2018-04-18T13:36:06Z</time>
      </trkpt>
      <trkpt lat="38.53691" lon="14.66683">
        <ele>0.14</ele>
        <time>2018-04-18T13:36:28Z</time>
      </trkpt>
      <trkpt lat="38.53661" lon="14.66772">
        <ele>0.14</ele>
        <time>2018-04-18T13:36:53Z</time>
      </trkpt>
      <trkpt lat="38.53631" lon="14.66865">
        <ele>-0.82</ele>
        <time>2018-04-18T13:37:19Z</time>
      </trkpt>
      <trkpt lat="38.53601" lon="14.66953">
        <ele>-1.3</ele>
        <time>2018-04-18T13:37:44Z</time>
      </trkpt>
      <trkpt lat="38.53578" lon="14.67026">
        <ele>-0.82</ele>
        <time>2018-04-18T13:38:05Z</time>
      </trkpt>
      <trkpt lat="38.53551" lon="14.67105">
        <ele>-0.34</ele>
        <time>2018-04-18T13:38:28Z</time>
      </trkpt>
      <trkpt lat="38.53529" lon="14.67175">
        <ele>-0.34</ele>
        <time>2018-04-18T13:38:48Z</time>
      </trkpt>
      <trkpt lat="38.53509" lon="14.67237">
        <ele>-0.34</ele>
        <time>2018-04-18T13:39:06Z</time>
      </trkpt>
      <trkpt lat="38.53488" lon="14.67303">
        <ele>-0.34</ele>
        <time>2018-04-18T13:39:25Z</time>
      </trkpt>
      <trkpt lat="38.53466" lon="14.67372">
        <ele>0.14</ele>
        <time>2018-04-18T13:39:45Z</time>
      </trkpt>
      <trkpt lat="38.53442" lon="14.67449">
        <ele>-0.34</ele>
        <time>2018-04-18T13:40:07Z</time>
      </trkpt>
      <trkpt lat="38.53421" lon="14.67514">
        <ele>0.14</ele>
        <time>2018-04-18T13:40:26Z</time>
      </trkpt>
      <trkpt lat="38.53397" lon="14.67587">
        <ele>0.14</ele>
        <time>2018-04-18T13:40:47Z</time>
      </trkpt>
      <trkpt lat="38.53373" lon="14.67667">
        <ele>0.14</ele>
        <time>2018-04-18T13:41:10Z</time>
      </trkpt>
      <trkpt lat="38.53353" lon="14.67729">
        <ele>0.14</ele>
        <time>2018-04-18T13:41:28Z</time>
      </trkpt>
      <trkpt lat="38.53328" lon="14.67809">
        <ele>0.14</ele>
        <time>2018-04-18T13:41:51Z</time>
      </trkpt>
      <trkpt lat="38.53297" lon="14.67906">
        <ele>-0.34</ele>
        <time>2018-04-18T13:42:19Z</time>
      </trkpt>
      <trkpt lat="38.53268" lon="14.67993">
        <ele>0.14</ele>
        <time>2018-04-18T13:42:44Z</time>
      </trkpt>
      <trkpt lat="38.53233" lon="14.68101">
        <ele>0.14</ele>
        <time>2018-04-18T13:43:15Z</time>
      </trkpt>
      <trkpt lat="38.53204" lon="14.68195">
        <ele>0.62</ele>
        <time>2018-04-18T13:43:42Z</time>
      </trkpt>
      <trkpt lat="38.53173" lon="14.68285">
        <ele>0.62</ele>
        <time>2018-04-18T13:44:08Z</time>
      </trkpt>
      <trkpt lat="38.5315" lon="14.68354">
        <ele>1.1</ele>
        <time>2018-04-18T13:44:28Z</time>
      </trkpt>
      <trkpt lat="38.53122" lon="14.68436">
        <ele>1.1</ele>
        <time>2018-04-18T13:44:52Z</time>
      </trkpt>
      <trkpt lat="38.53093" lon="14.68522">
        <ele>1.1</ele>
        <time>2018-04-18T13:45:17Z</time>
      </trkpt>
      <trkpt lat="38.53063" lon="14.68611">
        <ele>1.1</ele>
        <time>2018-04-18T13:45:43Z</time>
      </trkpt>
      <trkpt lat="38.53034" lon="14.68696">
        <ele>1.1</ele>
        <time>2018-04-18T13:46:08Z</time>
      </trkpt>
      <trkpt lat="38.53007" lon="14.68775">
        <ele>0.62</ele>
        <time>2018-04-18T13:46:31Z</time>
      </trkpt>
      <trkpt lat="38.52985" lon="14.6884">
        <ele>0.62</ele>
        <time>2018-04-18T13:46:50Z</time>
      </trkpt>
      <trkpt lat="38.52962" lon="14.68912">
        <ele>1.1</ele>
        <time>2018-04-18T13:47:11Z</time>
      </trkpt>
      <trkpt lat="38.52935" lon="14.68992">
        <ele>0.62</ele>
        <time>2018-04-18T13:47:34Z</time>
      </trkpt>
      <trkpt lat="38.52907" lon="14.6907">
        <ele>1.58</ele>
        <time>2018-04-18T13:47:57Z</time>
      </trkpt>
      <trkpt lat="38.52884" lon="14.69139">
        <ele>1.1</ele>
        <time>2018-04-18T13:48:17Z</time>
      </trkpt>
      <trkpt lat="38.52863" lon="14.69199">
        <ele>0.62</ele>
        <time>2018-04-18T13:48:35Z</time>
      </trkpt>
      <trkpt lat="38.52841" lon="14.6926">
        <ele>1.1</ele>
        <time>2018-04-18T13:48:53Z</time>
      </trkpt>
      <trkpt lat="38.52819" lon="14.6933">
        <ele>0.62</ele>
        <time>2018-04-18T13:49:13Z</time>
      </trkpt>
      <trkpt lat="38.52791" lon="14.69415">
        <ele>0.62</ele>
        <time>2018-04-18T13:49:38Z</time>
      </trkpt>
      <trkpt lat="38.52761" lon="14.69501">
        <ele>-0.34</ele>
        <time>2018-04-18T13:50:03Z</time>
      </trkpt>
      <trkpt lat="38.52733" lon="14.6958">
        <ele>-0.34</ele>
        <time>2018-04-18T13:50:26Z</time>
      </trkpt>
      <trkpt lat="38.52705" lon="14.69662">
        <ele>0.14</ele>
        <time>2018-04-18T13:50:50Z</time>
      </trkpt>
      <trkpt lat="38.52678" lon="14.69739">
        <ele>0.14</ele>
        <time>2018-04-18T13:51:12Z</time>
      </trkpt>
      <trkpt lat="38.52653" lon="14.69812">
        <ele>0.14</ele>
        <time>2018-04-18T13:51:33Z</time>
      </trkpt>
      <trkpt lat="38.52625" lon="14.69892">
        <ele>-0.34</ele>
        <time>2018-04-18T13:51:56Z</time>
      </trkpt>
      <trkpt lat="38.52597" lon="14.69975">
        <ele>0.14</ele>
        <time>2018-04-18T13:52:20Z</time>
      </trkpt>
      <trkpt lat="38.52568" lon="14.7006">
        <ele>0.14</ele>
        <time>2018-04-18T13:52:44Z</time>
      </trkpt>
      <trkpt lat="38.52541" lon="14.70135">
        <ele>-0.34</ele>
        <time>2018-04-18T13:53:06Z</time>
      </trkpt>
      <trkpt lat="38.52512" lon="14.70219">
        <ele>0.14</ele>
        <time>2018-04-18T13:53:30Z</time>
      </trkpt>
      <trkpt lat="38.52485" lon="14.70295">
        <ele>-0.34</ele>
        <time>2018-04-18T13:53:52Z</time>
      </trkpt>
      <trkpt lat="38.52461" lon="14.70365">
        <ele>0.14</ele>
        <time>2018-04-18T13:54:12Z</time>
      </trkpt>
      <trkpt lat="38.52431" lon="14.70445">
        <ele>0.14</ele>
        <time>2018-04-18T13:54:35Z</time>
      </trkpt>
      <trkpt lat="38.52402" lon="14.70529">
        <ele>-0.34</ele>
        <time>2018-04-18T13:54:59Z</time>
      </trkpt>
      <trkpt lat="38.52371" lon="14.70616">
        <ele>-0.82</ele>
        <time>2018-04-18T13:55:23Z</time>
      </trkpt>
      <trkpt lat="38.52335" lon="14.7072">
        <ele>-1.3</ele>
        <time>2018-04-18T13:55:52Z</time>
      </trkpt>
      <trkpt lat="38.52308" lon="14.70794">
        <ele>-1.3</ele>
        <time>2018-04-18T13:56:13Z</time>
      </trkpt>
      <trkpt lat="38.52277" lon="14.70883">
        <ele>-1.3</ele>
        <time>2018-04-18T13:56:38Z</time>
      </trkpt>
      <trkpt lat="38.52251" lon="14.70957">
        <ele>-0.82</ele>
        <time>2018-04-18T13:56:59Z</time>
      </trkpt>
      <trkpt lat="38.52225" lon="14.71027">
        <ele>-0.34</ele>
        <time>2018-04-18T13:57:19Z</time>
      </trkpt>
      <trkpt lat="38.52201" lon="14.71098">
        <ele>-0.34</ele>
        <time>2018-04-18T13:57:39Z</time>
      </trkpt>
      <trkpt lat="38.5217" lon="14.71183">
        <ele>-0.34</ele>
        <time>2018-04-18T13:58:03Z</time>
      </trkpt>
      <trkpt lat="38.5214" lon="14.71268">
        <ele>-0.34</ele>
        <time>2018-04-18T13:58:27Z</time>
      </trkpt>
      <trkpt lat="38.52112" lon="14.71347">
        <ele>0.14</ele>
        <time>2018-04-18T13:58:49Z</time>
      </trkpt>
      <trkpt lat="38.52089" lon="14.71415">
        <ele>-0.34</ele>
        <time>2018-04-18T13:59:08Z</time>
      </trkpt>
      <trkpt lat="38.52062" lon="14.7149">
        <ele>-0.82</ele>
        <time>2018-04-18T13:59:29Z</time>
      </trkpt>
      <trkpt lat="38.52036" lon="14.71565">
        <ele>-0.34</ele>
        <time>2018-04-18T13:59:50Z</time>
      </trkpt>
      <trkpt lat="38.52005" lon="14.7165">
        <ele>-0.34</ele>
        <time>2018-04-18T14:00:14Z</time>
      </trkpt>
      <trkpt lat="38.51974" lon="14.71736">
        <ele>0.14</ele>
        <time>2018-04-18T14:00:38Z</time>
      </trkpt>
      <trkpt lat="38.51949" lon="14.71807">
        <ele>0.14</ele>
        <time>2018-04-18T14:00:58Z</time>
      </trkpt>
      <trkpt lat="38.51921" lon="14.71885">
        <ele>0.14</ele>
        <time>2018-04-18T14:01:20Z</time>
      </trkpt>
      <trkpt lat="38.51894" lon="14.7196">
        <ele>0.14</ele>
        <time>2018-04-18T14:01:41Z</time>
      </trkpt>
      <trkpt lat="38.51865" lon="14.72042">
        <ele>0.14</ele>
        <time>2018-04-18T14:02:04Z</time>
      </trkpt>
      <trkpt lat="38.51835" lon="14.72125">
        <ele>0.62</ele>
        <time>2018-04-18T14:02:27Z</time>
      </trkpt>
      <trkpt lat="38.51806" lon="14.72206">
        <ele>0.14</ele>
        <time>2018-04-18T14:02:50Z</time>
      </trkpt>
      <trkpt lat="38.51781" lon="14.72278">
        <ele>0.14</ele>
        <time>2018-04-18T14:03:10Z</time>
      </trkpt>
      <trkpt lat="38.51749" lon="14.72368">
        <ele>-0.34</ele>
        <time>2018-04-18T14:03:35Z</time>
      </trkpt>
      <trkpt lat="38.51718" lon="14.72458">
        <ele>-0.34</ele>
        <time>2018-04-18T14:04:00Z</time>
      </trkpt>
      <trkpt lat="38.51687" lon="14.72545">
        <ele>-0.34</ele>
        <time>2018-04-18T14:04:24Z</time>
      </trkpt>
      <trkpt lat="38.51658" lon="14.72629">
        <ele>-0.34</ele>
        <time>2018-04-18T14:04:47Z</time>
      </trkpt>
      <trkpt lat="38.51627" lon="14.72715">
        <ele>-0.34</ele>
        <time>2018-04-18T14:05:11Z</time>
      </trkpt>
      <trkpt lat="38.51598" lon="14.72798">
        <ele>-0.82</ele>
        <time>2018-04-18T14:05:34Z</time>
      </trkpt>
      <trkpt lat="38.51567" lon="14.72887">
        <ele>-0.34</ele>
        <time>2018-04-18T14:05:59Z</time>
      </trkpt>
      <trkpt lat="38.5154" lon="14.72966">
        <ele>-0.34</ele>
        <time>2018-04-18T14:06:21Z</time>
      </trkpt>
      <trkpt lat="38.51511" lon="14.73052">
        <ele>0.14</ele>
        <time>2018-04-18T14:06:45Z</time>
      </trkpt>
      <trkpt lat="38.5148" lon="14.73137">
        <ele>-0.34</ele>
        <time>2018-04-18T14:07:09Z</time>
      </trkpt>
      <trkpt lat="38.5145" lon="14.73223">
        <ele>-0.82</ele>
        <time>2018-04-18T14:07:33Z</time>
      </trkpt>
      <trkpt lat="38.51421" lon="14.73309">
        <ele>-0.82</ele>
        <time>2018-04-18T14:07:57Z</time>
      </trkpt>
      <trkpt lat="38.51386" lon="14.73409">
        <ele>-1.3</ele>
        <time>2018-04-18T14:08:25Z</time>
      </trkpt>
      <trkpt lat="38.51365" lon="14.7347">
        <ele>-0.34</ele>
        <time>2018-04-18T14:08:42Z</time>
      </trkpt>
      <trkpt lat="38.51336" lon="14.73553">
        <ele>0.14</ele>
        <time>2018-04-18T14:09:05Z</time>
      </trkpt>
      <trkpt lat="38.51312" lon="14.73621">
        <ele>0.14</ele>
        <time>2018-04-18T14:09:24Z</time>
      </trkpt>
      <trkpt lat="38.51285" lon="14.73699">
        <ele>-0.34</ele>
        <time>2018-04-18T14:09:46Z</time>
      </trkpt>
      <trkpt lat="38.51258" lon="14.73779">
        <ele>-0.34</ele>
        <time>2018-04-18T14:10:08Z</time>
      </trkpt>
      <trkpt lat="38.51227" lon="14.73869">
        <ele>-0.34</ele>
        <time>2018-04-18T14:10:33Z</time>
      </trkpt>
      <trkpt lat="38.51204" lon="14.73937">
        <ele>-0.34</ele>
        <time>2018-04-18T14:10:52Z</time>
      </trkpt>
      <trkpt lat="38.51173" lon="14.74031">
        <ele>0.14</ele>
        <time>2018-04-18T14:11:18Z</time>
      </trkpt>
      <trkpt lat="38.51144" lon="14.74121">
        <ele>0.62</ele>
        <time>2018-04-18T14:11:43Z</time>
      </trkpt>
      <trkpt lat="38.51119" lon="14.74192">
        <ele>0.62</ele>
        <time>2018-04-18T14:12:03Z</time>
      </trkpt>
      <trkpt lat="38.51095" lon="14.74268">
        <ele>1.1</ele>
        <time>2018-04-18T14:12:24Z</time>
      </trkpt>
      <trkpt lat="38.51071" lon="14.74344">
        <ele>1.1</ele>
        <time>2018-04-18T14:12:45Z</time>
      </trkpt>
      <trkpt lat="38.51047" lon="14.74415">
        <ele>1.58</ele>
        <time>2018-04-18T14:13:05Z</time>
      </trkpt>
      <trkpt lat="38.51023" lon="14.74491">
        <ele>2.06</ele>
        <time>2018-04-18T14:13:26Z</time>
      </trkpt>
      <trkpt lat="38.50995" lon="14.74576">
        <ele>2.54</ele>
        <time>2018-04-18T14:13:50Z</time>
      </trkpt>
      <trkpt lat="38.50968" lon="14.74658">
        <ele>0.62</ele>
        <time>2018-04-18T14:14:13Z</time>
      </trkpt>
      <trkpt lat="38.50943" lon="14.74736">
        <ele>-0.82</ele>
        <time>2018-04-18T14:14:35Z</time>
      </trkpt>
      <trkpt lat="38.50917" lon="14.7482">
        <ele>-0.82</ele>
        <time>2018-04-18T14:14:59Z</time>
      </trkpt>
      <trkpt lat="38.50891" lon="14.74901">
        <ele>-1.3</ele>
        <time>2018-04-18T14:15:22Z</time>
      </trkpt>
      <trkpt lat="38.50867" lon="14.74981">
        <ele>-0.82</ele>
        <time>2018-04-18T14:15:45Z</time>
      </trkpt>
      <trkpt lat="38.50844" lon="14.75057">
        <ele>-1.3</ele>
        <time>2018-04-18T14:16:07Z</time>
      </trkpt>
      <trkpt lat="38.50817" lon="14.75143">
        <ele>-1.3</ele>
        <time>2018-04-18T14:16:32Z</time>
      </trkpt>
      <trkpt lat="38.50792" lon="14.75226">
        <ele>-0.82</ele>
        <time>2018-04-18T14:16:56Z</time>
      </trkpt>
      <trkpt lat="38.5077" lon="14.75303">
        <ele>-1.3</ele>
        <time>2018-04-18T14:17:18Z</time>
      </trkpt>
      <trkpt lat="38.50745" lon="14.75386">
        <ele>-0.82</ele>
        <time>2018-04-18T14:17:42Z</time>
      </trkpt>
      <trkpt lat="38.50715" lon="14.75482">
        <ele>-1.3</ele>
        <time>2018-04-18T14:18:10Z</time>
      </trkpt>
      <trkpt lat="38.50689" lon="14.75569">
        <ele>-1.3</ele>
        <time>2018-04-18T14:18:35Z</time>
      </trkpt>
      <trkpt lat="38.50666" lon="14.75641">
        <ele>-1.79</ele>
        <time>2018-04-18T14:18:56Z</time>
      </trkpt>
      <trkpt lat="38.5064" lon="14.75723">
        <ele>-0.82</ele>
        <time>2018-04-18T14:19:20Z</time>
      </trkpt>
      <trkpt lat="38.50615" lon="14.75804">
        <ele>-0.34</ele>
        <time>2018-04-18T14:19:44Z</time>
      </trkpt>
      <trkpt lat="38.50591" lon="14.7588">
        <ele>-0.34</ele>
        <time>2018-04-18T14:20:06Z</time>
      </trkpt>
      <trkpt lat="38.50572" lon="14.75942">
        <ele>-0.34</ele>
        <time>2018-04-18T14:20:24Z</time>
      </trkpt>
      <trkpt lat="38.50551" lon="14.76011">
        <ele>-0.82</ele>
        <time>2018-04-18T14:20:44Z</time>
      </trkpt>
      <trkpt lat="38.50523" lon="14.761">
        <ele>-0.82</ele>
        <time>2018-04-18T14:21:10Z</time>
      </trkpt>
      <trkpt lat="38.50494" lon="14.76189">
        <ele>-0.82</ele>
        <time>2018-04-18T14:21:36Z</time>
      </trkpt>
      <trkpt lat="38.5047" lon="14.76268">
        <ele>-0.34</ele>
        <time>2018-04-18T14:21:59Z</time>
      </trkpt>
      <trkpt lat="38.50445" lon="14.7635">
        <ele>-0.34</ele>
        <time>2018-04-18T14:22:23Z</time>
      </trkpt>
      <trkpt lat="38.50419" lon="14.76436">
        <ele>-0.34</ele>
        <time>2018-04-18T14:22:48Z</time>
      </trkpt>
      <trkpt lat="38.50393" lon="14.76522">
        <ele>0.14</ele>
        <time>2018-04-18T14:23:13Z</time>
      </trkpt>
      <trkpt lat="38.50363" lon="14.7661">
        <ele>0.14</ele>
        <time>2018-04-18T14:23:39Z</time>
      </trkpt>
      <trkpt lat="38.50337" lon="14.76692">
        <ele>0.62</ele>
        <time>2018-04-18T14:24:03Z</time>
      </trkpt>
      <trkpt lat="38.50316" lon="14.76761">
        <ele>0.62</ele>
        <time>2018-04-18T14:24:23Z</time>
      </trkpt>
      <trkpt lat="38.50295" lon="14.76829">
        <ele>1.1</ele>
        <time>2018-04-18T14:24:43Z</time>
      </trkpt>
      <trkpt lat="38.50274" lon="14.76899">
        <ele>1.1</ele>
        <time>2018-04-18T14:25:03Z</time>
      </trkpt>
      <trkpt lat="38.5025" lon="14.76975">
        <ele>1.58</ele>
        <time>2018-04-18T14:25:25Z</time>
      </trkpt>
      <trkpt lat="38.50229" lon="14.77043">
        <ele>1.1</ele>
        <time>2018-04-18T14:25:45Z</time>
      </trkpt>
      <trkpt lat="38.50207" lon="14.77112">
        <ele>1.58</ele>
        <time>2018-04-18T14:26:05Z</time>
      </trkpt>
      <trkpt lat="38.50182" lon="14.77195">
        <ele>1.58</ele>
        <time>2018-04-18T14:26:29Z</time>
      </trkpt>
      <trkpt lat="38.50158" lon="14.77275">
        <ele>1.58</ele>
        <time>2018-04-18T14:26:52Z</time>
      </trkpt>
      <trkpt lat="38.50135" lon="14.77351">
        <ele>1.1</ele>
        <time>2018-04-18T14:27:14Z</time>
      </trkpt>
      <trkpt lat="38.50111" lon="14.77427">
        <ele>1.1</ele>
        <time>2018-04-18T14:27:36Z</time>
      </trkpt>
      <trkpt lat="38.50085" lon="14.77515">
        <ele>1.1</ele>
        <time>2018-04-18T14:28:01Z</time>
      </trkpt>
      <trkpt lat="38.50062" lon="14.77592">
        <ele>1.58</ele>
        <time>2018-04-18T14:28:23Z</time>
      </trkpt>
      <trkpt lat="38.50036" lon="14.77681">
        <ele>1.1</ele>
        <time>2018-04-18T14:28:48Z</time>
      </trkpt>
      <trkpt lat="38.50015" lon="14.77752">
        <ele>1.1</ele>
        <time>2018-04-18T14:29:08Z</time>
      </trkpt>
      <trkpt lat="38.49992" lon="14.77828">
        <ele>0.62</ele>
        <time>2018-04-18T14:29:30Z</time>
      </trkpt>
      <trkpt lat="38.49969" lon="14.77906">
        <ele>0.62</ele>
        <time>2018-04-18T14:29:52Z</time>
      </trkpt>
      <trkpt lat="38.49947" lon="14.77985">
        <ele>0.14</ele>
        <time>2018-04-18T14:30:14Z</time>
      </trkpt>
      <trkpt lat="38.49923" lon="14.78066">
        <ele>0.62</ele>
        <time>2018-04-18T14:30:37Z</time>
      </trkpt>
      <trkpt lat="38.49902" lon="14.78137">
        <ele>0.62</ele>
        <time>2018-04-18T14:30:57Z</time>
      </trkpt>
      <trkpt lat="38.49881" lon="14.78212">
        <ele>1.1</ele>
        <time>2018-04-18T14:31:18Z</time>
      </trkpt>
      <trkpt lat="38.49862" lon="14.78279">
        <ele>1.1</ele>
        <time>2018-04-18T14:31:37Z</time>
      </trkpt>
      <trkpt lat="38.49841" lon="14.78348">
        <ele>0.62</ele>
        <time>2018-04-18T14:31:57Z</time>
      </trkpt>
      <trkpt lat="38.49823" lon="14.78411">
        <ele>1.1</ele>
        <time>2018-04-18T14:32:15Z</time>
      </trkpt>
      <trkpt lat="38.49804" lon="14.78477">
        <ele>1.58</ele>
        <time>2018-04-18T14:32:34Z</time>
      </trkpt>
      <trkpt lat="38.49785" lon="14.78543">
        <ele>1.58</ele>
        <time>2018-04-18T14:32:53Z</time>
      </trkpt>
      <trkpt lat="38.49763" lon="14.78621">
        <ele>1.58</ele>
        <time>2018-04-18T14:33:15Z</time>
      </trkpt>
      <trkpt lat="38.49739" lon="14.78705">
        <ele>1.1</ele>
        <time>2018-04-18T14:33:39Z</time>
      </trkpt>
      <trkpt lat="38.49719" lon="14.78772">
        <ele>0.62</ele>
        <time>2018-04-18T14:33:58Z</time>
      </trkpt>
      <trkpt lat="38.49699" lon="14.78846">
        <ele>0.62</ele>
        <time>2018-04-18T14:34:19Z</time>
      </trkpt>
      <trkpt lat="38.49676" lon="14.78931">
        <ele>0.62</ele>
        <time>2018-04-18T14:34:43Z</time>
      </trkpt>
      <trkpt lat="38.49655" lon="14.79005">
        <ele>1.1</ele>
        <time>2018-04-18T14:35:04Z</time>
      </trkpt>
      <trkpt lat="38.49633" lon="14.79082">
        <ele>0.62</ele>
        <time>2018-04-18T14:35:26Z</time>
      </trkpt>
      <trkpt lat="38.49608" lon="14.7917">
        <ele>0.62</ele>
        <time>2018-04-18T14:35:51Z</time>
      </trkpt>
      <trkpt lat="38.49588" lon="14.7924">
        <ele>0.14</ele>
        <time>2018-04-18T14:36:11Z</time>
      </trkpt>
      <trkpt lat="38.49567" lon="14.79313">
        <ele>0.14</ele>
        <time>2018-04-18T14:36:32Z</time>
      </trkpt>
      <trkpt lat="38.49543" lon="14.79397">
        <ele>0.14</ele>
        <time>2018-04-18T14:36:56Z</time>
      </trkpt>
      <trkpt lat="38.49522" lon="14.79471">
        <ele>0.14</ele>
        <time>2018-04-18T14:37:17Z</time>
      </trkpt>
      <trkpt lat="38.49505" lon="14.79535">
        <ele>0.62</ele>
        <time>2018-04-18T14:37:35Z</time>
      </trkpt>
      <trkpt lat="38.49485" lon="14.79606">
        <ele>0.14</ele>
        <time>2018-04-18T14:37:55Z</time>
      </trkpt>
      <trkpt lat="38.49463" lon="14.79686">
        <ele>0.14</ele>
        <time>2018-04-18T14:38:18Z</time>
      </trkpt>
      <trkpt lat="38.49439" lon="14.79769">
        <ele>0.14</ele>
        <time>2018-04-18T14:38:42Z</time>
      </trkpt>
      <trkpt lat="38.49422" lon="14.79835">
        <ele>0.62</ele>
        <time>2018-04-18T14:39:01Z</time>
      </trkpt>
      <trkpt lat="38.49404" lon="14.79901">
        <ele>0.62</ele>
        <time>2018-04-18T14:39:20Z</time>
      </trkpt>
      <trkpt lat="38.49385" lon="14.79965">
        <ele>0.62</ele>
        <time>2018-04-18T14:39:39Z</time>
      </trkpt>
      <trkpt lat="38.49369" lon="14.80028">
        <ele>0.62</ele>
        <time>2018-04-18T14:39:57Z</time>
      </trkpt>
      <trkpt lat="38.49348" lon="14.801">
        <ele>0.62</ele>
        <time>2018-04-18T14:40:18Z</time>
      </trkpt>
      <trkpt lat="38.49326" lon="14.80183">
        <ele>0.14</ele>
        <time>2018-04-18T14:40:42Z</time>
      </trkpt>
      <trkpt lat="38.49306" lon="14.80254">
        <ele>0.62</ele>
        <time>2018-04-18T14:41:03Z</time>
      </trkpt>
      <trkpt lat="38.49288" lon="14.80319">
        <ele>1.1</ele>
        <time>2018-04-18T14:41:22Z</time>
      </trkpt>
      <trkpt lat="38.49271" lon="14.80381">
        <ele>1.1</ele>
        <time>2018-04-18T14:41:40Z</time>
      </trkpt>
      <trkpt lat="38.49254" lon="14.80442">
        <ele>1.1</ele>
        <time>2018-04-18T14:41:58Z</time>
      </trkpt>
      <trkpt lat="38.49235" lon="14.8051">
        <ele>1.1</ele>
        <time>2018-04-18T14:42:18Z</time>
      </trkpt>
      <trkpt lat="38.49217" lon="14.80574">
        <ele>0.62</ele>
        <time>2018-04-18T14:42:37Z</time>
      </trkpt>
      <trkpt lat="38.49197" lon="14.80648">
        <ele>0.14</ele>
        <time>2018-04-18T14:42:59Z</time>
      </trkpt>
      <trkpt lat="38.49176" lon="14.80719">
        <ele>0.14</ele>
        <time>2018-04-18T14:43:20Z</time>
      </trkpt>
      <trkpt lat="38.49157" lon="14.80786">
        <ele>0.14</ele>
        <time>2018-04-18T14:43:40Z</time>
      </trkpt>
      <trkpt lat="38.49134" lon="14.80871">
        <ele>0.14</ele>
        <time>2018-04-18T14:44:05Z</time>
      </trkpt>
      <trkpt lat="38.49112" lon="14.80948">
        <ele>0.14</ele>
        <time>2018-04-18T14:44:28Z</time>
      </trkpt>
      <trkpt lat="38.49087" lon="14.81036">
        <ele>0.14</ele>
        <time>2018-04-18T14:44:54Z</time>
      </trkpt>
      <trkpt lat="38.49067" lon="14.81115">
        <ele>0.62</ele>
        <time>2018-04-18T14:45:17Z</time>
      </trkpt>
      <trkpt lat="38.49043" lon="14.81199">
        <ele>0.62</ele>
        <time>2018-04-18T14:45:42Z</time>
      </trkpt>
      <trkpt lat="38.49026" lon="14.8126">
        <ele>0.14</ele>
        <time>2018-04-18T14:46:00Z</time>
      </trkpt>
      <trkpt lat="38.49007" lon="14.81328">
        <ele>0.14</ele>
        <time>2018-04-18T14:46:20Z</time>
      </trkpt>
      <trkpt lat="38.48987" lon="14.81402">
        <ele>0.62</ele>
        <time>2018-04-18T14:46:42Z</time>
      </trkpt>
      <trkpt lat="38.48966" lon="14.81477">
        <ele>0.62</ele>
        <time>2018-04-18T14:47:04Z</time>
      </trkpt>
      <trkpt lat="38.48948" lon="14.81544">
        <ele>0.14</ele>
        <time>2018-04-18T14:47:24Z</time>
      </trkpt>
      <trkpt lat="38.48927" lon="14.81621">
        <ele>0.62</ele>
        <time>2018-04-18T14:47:47Z</time>
      </trkpt>
      <trkpt lat="38.48908" lon="14.81688">
        <ele>0.62</ele>
        <time>2018-04-18T14:48:07Z</time>
      </trkpt>
      <trkpt lat="38.48889" lon="14.81759">
        <ele>0.62</ele>
        <time>2018-04-18T14:48:28Z</time>
      </trkpt>
      <trkpt lat="38.48873" lon="14.8182">
        <ele>0.62</ele>
        <time>2018-04-18T14:48:46Z</time>
      </trkpt>
      <trkpt lat="38.48859" lon="14.81871">
        <ele>0.62</ele>
        <time>2018-04-18T14:49:01Z</time>
      </trkpt>
      <trkpt lat="38.48845" lon="14.81925">
        <ele>0.62</ele>
        <time>2018-04-18T14:49:17Z</time>
      </trkpt>
      <trkpt lat="38.48832" lon="14.81976">
        <ele>0.14</ele>
        <time>2018-04-18T14:49:32Z</time>
      </trkpt>
      <trkpt lat="38.48816" lon="14.82038">
        <ele>0.62</ele>
        <time>2018-04-18T14:49:50Z</time>
      </trkpt>
      <trkpt lat="38.48799" lon="14.82105">
        <ele>0.62</ele>
        <time>2018-04-18T14:50:10Z</time>
      </trkpt>
      <trkpt lat="38.48786" lon="14.82156">
        <ele>0.62</ele>
        <time>2018-04-18T14:50:25Z</time>
      </trkpt>
      <trkpt lat="38.48772" lon="14.8221">
        <ele>0.14</ele>
        <time>2018-04-18T14:50:41Z</time>
      </trkpt>
      <trkpt lat="38.48754" lon="14.82278">
        <ele>0.62</ele>
        <time>2018-04-18T14:51:01Z</time>
      </trkpt>
      <trkpt lat="38.48737" lon="14.82341">
        <ele>0.62</ele>
        <time>2018-04-18T14:51:20Z</time>
      </trkpt>
      <trkpt lat="38.48718" lon="14.82411">
        <ele>1.1</ele>
        <time>2018-04-18T14:51:41Z</time>
      </trkpt>
      <trkpt lat="38.487" lon="14.8248">
        <ele>1.58</ele>
        <time>2018-04-18T14:52:01Z</time>
      </trkpt>
      <trkpt lat="38.48682" lon="14.82548">
        <ele>1.58</ele>
        <time>2018-04-18T14:52:21Z</time>
      </trkpt>
      <trkpt lat="38.48664" lon="14.82619">
        <ele>2.06</ele>
        <time>2018-04-18T14:52:42Z</time>
      </trkpt>
      <trkpt lat="38.48645" lon="14.82691">
        <ele>2.06</ele>
        <time>2018-04-18T14:53:03Z</time>
      </trkpt>
      <trkpt lat="38.48625" lon="14.82764">
        <ele>2.54</ele>
        <time>2018-04-18T14:53:24Z</time>
      </trkpt>
      <trkpt lat="38.48606" lon="14.82836">
        <ele>2.06</ele>
        <time>2018-04-18T14:53:45Z</time>
      </trkpt>
      <trkpt lat="38.4859" lon="14.82901">
        <ele>2.54</ele>
        <time>2018-04-18T14:54:04Z</time>
      </trkpt>
      <trkpt lat="38.48572" lon="14.82968">
        <ele>2.06</ele>
        <time>2018-04-18T14:54:24Z</time>
      </trkpt>
      <trkpt lat="38.48551" lon="14.83043">
        <ele>2.06</ele>
        <time>2018-04-18T14:54:46Z</time>
      </trkpt>
      <trkpt lat="38.48531" lon="14.83118">
        <ele>2.54</ele>
        <time>2018-04-18T14:55:08Z</time>
      </trkpt>
      <trkpt lat="38.48517" lon="14.83176">
        <ele>2.06</ele>
        <time>2018-04-18T14:55:25Z</time>
      </trkpt>
      <trkpt lat="38.48496" lon="14.83248">
        <ele>2.06</ele>
        <time>2018-04-18T14:55:46Z</time>
      </trkpt>
      <trkpt lat="38.48474" lon="14.83314">
        <ele>2.54</ele>
        <time>2018-04-18T14:56:06Z</time>
      </trkpt>
      <trkpt lat="38.48452" lon="14.83379">
        <ele>2.54</ele>
        <time>2018-04-18T14:56:26Z</time>
      </trkpt>
      <trkpt lat="38.48427" lon="14.83451">
        <ele>2.06</ele>
        <time>2018-04-18T14:56:48Z</time>
      </trkpt>
      <trkpt lat="38.48402" lon="14.83525">
        <ele>2.06</ele>
        <time>2018-04-18T14:57:11Z</time>
      </trkpt>
      <trkpt lat="38.48384" lon="14.83578">
        <ele>1.58</ele>
        <time>2018-04-18T14:57:27Z</time>
      </trkpt>
      <trkpt lat="38.48364" lon="14.8364">
        <ele>1.58</ele>
        <time>2018-04-18T14:57:46Z</time>
      </trkpt>
      <trkpt lat="38.48343" lon="14.83701">
        <ele>2.06</ele>
        <time>2018-04-18T14:58:05Z</time>
      </trkpt>
      <trkpt lat="38.48323" lon="14.8376">
        <ele>2.06</ele>
        <time>2018-04-18T14:58:23Z</time>
      </trkpt>
      <trkpt lat="38.48298" lon="14.83831">
        <ele>2.06</ele>
        <time>2018-04-18T14:58:45Z</time>
      </trkpt>
      <trkpt lat="38.48273" lon="14.83907">
        <ele>1.58</ele>
        <time>2018-04-18T14:59:08Z</time>
      </trkpt>
      <trkpt lat="38.48244" lon="14.83984">
        <ele>2.54</ele>
        <time>2018-04-18T14:59:32Z</time>
      </trkpt>
      <trkpt lat="38.48219" lon="14.84043">
        <ele>3.02</ele>
        <time>2018-04-18T14:59:51Z</time>
      </trkpt>
      <trkpt lat="38.48193" lon="14.84109">
        <ele>3.02</ele>
        <time>2018-04-18T15:00:12Z</time>
      </trkpt>
      <trkpt lat="38.48166" lon="14.84178">
        <ele>3.02</ele>
        <time>2018-04-18T15:00:34Z</time>
      </trkpt>
      <trkpt lat="38.4814" lon="14.84242">
        <ele>3.5</ele>
        <time>2018-04-18T15:00:54Z</time>
      </trkpt>
      <trkpt lat="38.48112" lon="14.84316">
        <ele>2.54</ele>
        <time>2018-04-18T15:01:17Z</time>
      </trkpt>
      <trkpt lat="38.48089" lon="14.84371">
        <ele>2.54</ele>
        <time>2018-04-18T15:01:35Z</time>
      </trkpt>
      <trkpt lat="38.48065" lon="14.84433">
        <ele>2.06</ele>
        <time>2018-04-18T15:01:54Z</time>
      </trkpt>
      <trkpt lat="38.48044" lon="14.84496">
        <ele>2.06</ele>
        <time>2018-04-18T15:02:13Z</time>
      </trkpt>
      <trkpt lat="38.48022" lon="14.84554">
        <ele>2.54</ele>
        <time>2018-04-18T15:02:31Z</time>
      </trkpt>
      <trkpt lat="38.47996" lon="14.8462">
        <ele>2.06</ele>
        <time>2018-04-18T15:02:52Z</time>
      </trkpt>
      <trkpt lat="38.47969" lon="14.84687">
        <ele>2.06</ele>
        <time>2018-04-18T15:03:13Z</time>
      </trkpt>
      <trkpt lat="38.47937" lon="14.84762">
        <ele>1.58</ele>
        <time>2018-04-18T15:03:37Z</time>
      </trkpt>
      <trkpt lat="38.47908" lon="14.84827">
        <ele>1.58</ele>
        <time>2018-04-18T15:03:58Z</time>
      </trkpt>
      <trkpt lat="38.47879" lon="14.84887">
        <ele>1.58</ele>
        <time>2018-04-18T15:04:18Z</time>
      </trkpt>
      <trkpt lat="38.47848" lon="14.84952">
        <ele>2.06</ele>
        <time>2018-04-18T15:04:39Z</time>
      </trkpt>
      <trkpt lat="38.4782" lon="14.85018">
        <ele>2.54</ele>
        <time>2018-04-18T15:05:00Z</time>
      </trkpt>
      <trkpt lat="38.47796" lon="14.8507">
        <ele>1.58</ele>
        <time>2018-04-18T15:05:17Z</time>
      </trkpt>
      <trkpt lat="38.47769" lon="14.85128">
        <ele>2.54</ele>
        <time>2018-04-18T15:05:36Z</time>
      </trkpt>
      <trkpt lat="38.47742" lon="14.85186">
        <ele>3.02</ele>
        <time>2018-04-18T15:05:55Z</time>
      </trkpt>
      <trkpt lat="38.47712" lon="14.85245">
        <ele>2.06</ele>
        <time>2018-04-18T15:06:15Z</time>
      </trkpt>
      <trkpt lat="38.47672" lon="14.85325">
        <ele>2.06</ele>
        <time>2018-04-18T15:06:42Z</time>
      </trkpt>
      <trkpt lat="38.4764" lon="14.85389">
        <ele>2.06</ele>
        <time>2018-04-18T15:07:03Z</time>
      </trkpt>
      <trkpt lat="38.47606" lon="14.85457">
        <ele>2.06</ele>
        <time>2018-04-18T15:07:26Z</time>
      </trkpt>
      <trkpt lat="38.47578" lon="14.85515">
        <ele>2.06</ele>
        <time>2018-04-18T15:07:45Z</time>
      </trkpt>
      <trkpt lat="38.47553" lon="14.85565">
        <ele>1.58</ele>
        <time>2018-04-18T15:08:02Z</time>
      </trkpt>
      <trkpt lat="38.47529" lon="14.85613">
        <ele>1.1</ele>
        <time>2018-04-18T15:08:18Z</time>
      </trkpt>
      <trkpt lat="38.47505" lon="14.85664">
        <ele>1.58</ele>
        <time>2018-04-18T15:08:35Z</time>
      </trkpt>
      <trkpt lat="38.47474" lon="14.85727">
        <ele>1.58</ele>
        <time>2018-04-18T15:08:56Z</time>
      </trkpt>
      <trkpt lat="38.47445" lon="14.85787">
        <ele>1.58</ele>
        <time>2018-04-18T15:09:16Z</time>
      </trkpt>
      <trkpt lat="38.47415" lon="14.85851">
        <ele>1.1</ele>
        <time>2018-04-18T15:09:37Z</time>
      </trkpt>
      <trkpt lat="38.47389" lon="14.85906">
        <ele>1.1</ele>
        <time>2018-04-18T15:09:55Z</time>
      </trkpt>
      <trkpt lat="38.47352" lon="14.85982">
        <ele>0.62</ele>
        <time>2018-04-18T15:10:20Z</time>
      </trkpt>
      <trkpt lat="38.4732" lon="14.86048">
        <ele>1.1</ele>
        <time>2018-04-18T15:10:42Z</time>
      </trkpt>
      <trkpt lat="38.4729" lon="14.86108">
        <ele>1.1</ele>
        <time>2018-04-18T15:11:02Z</time>
      </trkpt>
      <trkpt lat="38.47259" lon="14.86168">
        <ele>1.58</ele>
        <time>2018-04-18T15:11:22Z</time>
      </trkpt>
      <trkpt lat="38.47234" lon="14.86219">
        <ele>1.58</ele>
        <time>2018-04-18T15:11:39Z</time>
      </trkpt>
      <trkpt lat="38.47205" lon="14.86276">
        <ele>1.58</ele>
        <time>2018-04-18T15:11:58Z</time>
      </trkpt>
      <trkpt lat="38.47172" lon="14.8634">
        <ele>2.06</ele>
        <time>2018-04-18T15:12:20Z</time>
      </trkpt>
      <trkpt lat="38.47141" lon="14.86403">
        <ele>1.58</ele>
        <time>2018-04-18T15:12:41Z</time>
      </trkpt>
      <trkpt lat="38.47115" lon="14.86454">
        <ele>1.58</ele>
        <time>2018-04-18T15:12:58Z</time>
      </trkpt>
      <trkpt lat="38.47087" lon="14.8651">
        <ele>2.06</ele>
        <time>2018-04-18T15:13:17Z</time>
      </trkpt>
      <trkpt lat="38.4705" lon="14.86582">
        <ele>2.06</ele>
        <time>2018-04-18T15:13:41Z</time>
      </trkpt>
      <trkpt lat="38.47022" lon="14.86639">
        <ele>2.06</ele>
        <time>2018-04-18T15:14:00Z</time>
      </trkpt>
      <trkpt lat="38.46996" lon="14.8669">
        <ele>2.06</ele>
        <time>2018-04-18T15:14:17Z</time>
      </trkpt>
      <trkpt lat="38.46966" lon="14.86749">
        <ele>1.58</ele>
        <time>2018-04-18T15:14:37Z</time>
      </trkpt>
      <trkpt lat="38.46937" lon="14.86805">
        <ele>1.58</ele>
        <time>2018-04-18T15:14:56Z</time>
      </trkpt>
      <trkpt lat="38.46903" lon="14.86861">
        <ele>1.1</ele>
        <time>2018-04-18T15:15:16Z</time>
      </trkpt>
      <trkpt lat="38.4687" lon="14.86934">
        <ele>2.06</ele>
        <time>2018-04-18T15:15:40Z</time>
      </trkpt>
      <trkpt lat="38.4684" lon="14.87002">
        <ele>1.1</ele>
        <time>2018-04-18T15:16:02Z</time>
      </trkpt>
      <trkpt lat="38.46808" lon="14.87046">
        <ele>1.1</ele>
        <time>2018-04-18T15:16:19Z</time>
      </trkpt>
      <trkpt lat="38.46781" lon="14.87104">
        <ele>2.54</ele>
        <time>2018-04-18T15:16:38Z</time>
      </trkpt>
      <trkpt lat="38.46757" lon="14.87164">
        <ele>3.02</ele>
        <time>2018-04-18T15:16:57Z</time>
      </trkpt>
      <trkpt lat="38.46733" lon="14.8722">
        <ele>3.02</ele>
        <time>2018-04-18T15:17:15Z</time>
      </trkpt>
      <trkpt lat="38.46703" lon="14.87294">
        <ele>3.02</ele>
        <time>2018-04-18T15:17:39Z</time>
      </trkpt>
      <trkpt lat="38.46679" lon="14.87361">
        <ele>3.5</ele>
        <time>2018-04-18T15:18:00Z</time>
      </trkpt>
      <trkpt lat="38.46651" lon="14.87436">
        <ele>3.02</ele>
        <time>2018-04-18T15:18:24Z</time>
      </trkpt>
      <trkpt lat="38.46624" lon="14.87508">
        <ele>3.98</ele>
        <time>2018-04-18T15:18:47Z</time>
      </trkpt>
      <trkpt lat="38.46597" lon="14.87585">
        <ele>3.5</ele>
        <time>2018-04-18T15:19:11Z</time>
      </trkpt>
      <trkpt lat="38.46576" lon="14.87642">
        <ele>3.98</ele>
        <time>2018-04-18T15:19:29Z</time>
      </trkpt>
      <trkpt lat="38.4656" lon="14.87685">
        <ele>3.98</ele>
        <time>2018-04-18T15:19:43Z</time>
      </trkpt>
      <trkpt lat="38.46536" lon="14.87745">
        <ele>3.5</ele>
        <time>2018-04-18T15:20:02Z</time>
      </trkpt>
      <trkpt lat="38.46511" lon="14.87811">
        <ele>3.5</ele>
        <time>2018-04-18T15:20:23Z</time>
      </trkpt>
      <trkpt lat="38.46485" lon="14.87877">
        <ele>3.5</ele>
        <time>2018-04-18T15:20:44Z</time>
      </trkpt>
      <trkpt lat="38.46465" lon="14.8793">
        <ele>3.98</ele>
        <time>2018-04-18T15:21:01Z</time>
      </trkpt>
      <trkpt lat="38.46439" lon="14.87998">
        <ele>3.02</ele>
        <time>2018-04-18T15:21:22Z</time>
      </trkpt>
      <trkpt lat="38.46413" lon="14.88056">
        <ele>3.98</ele>
        <time>2018-04-18T15:21:41Z</time>
      </trkpt>
      <trkpt lat="38.46385" lon="14.88124">
        <ele>4.46</ele>
        <time>2018-04-18T15:22:02Z</time>
      </trkpt>
      <trkpt lat="38.46365" lon="14.88175">
        <ele>4.46</ele>
        <time>2018-04-18T15:22:18Z</time>
      </trkpt>
      <trkpt lat="38.46338" lon="14.88239">
        <ele>4.46</ele>
        <time>2018-04-18T15:22:38Z</time>
      </trkpt>
      <trkpt lat="38.46299" lon="14.88333">
        <ele>4.46</ele>
        <time>2018-04-18T15:23:07Z</time>
      </trkpt>
      <trkpt lat="38.46272" lon="14.884">
        <ele>4.94</ele>
        <time>2018-04-18T15:23:28Z</time>
      </trkpt>
      <trkpt lat="38.46244" lon="14.88471">
        <ele>4.94</ele>
        <time>2018-04-18T15:23:50Z</time>
      </trkpt>
      <trkpt lat="38.46217" lon="14.88534">
        <ele>4.94</ele>
        <time>2018-04-18T15:24:10Z</time>
      </trkpt>
      <trkpt lat="38.46189" lon="14.88605">
        <ele>4.94</ele>
        <time>2018-04-18T15:24:32Z</time>
      </trkpt>
      <trkpt lat="38.46161" lon="14.88672">
        <ele>4.94</ele>
        <time>2018-04-18T15:24:53Z</time>
      </trkpt>
      <trkpt lat="38.46139" lon="14.88726">
        <ele>4.46</ele>
        <time>2018-04-18T15:25:10Z</time>
      </trkpt>
      <trkpt lat="38.46119" lon="14.88777">
        <ele>4.46</ele>
        <time>2018-04-18T15:25:26Z</time>
      </trkpt>
      <trkpt lat="38.46095" lon="14.88833">
        <ele>4.94</ele>
        <time>2018-04-18T15:25:44Z</time>
      </trkpt>
      <trkpt lat="38.46066" lon="14.88903">
        <ele>5.91</ele>
        <time>2018-04-18T15:26:06Z</time>
      </trkpt>
      <trkpt lat="38.46032" lon="14.88983">
        <ele>4.94</ele>
        <time>2018-04-18T15:26:31Z</time>
      </trkpt>
      <trkpt lat="38.46005" lon="14.89046">
        <ele>4.46</ele>
        <time>2018-04-18T15:26:51Z</time>
      </trkpt>
      <trkpt lat="38.45971" lon="14.89126">
        <ele>3.5</ele>
        <time>2018-04-18T15:27:16Z</time>
      </trkpt>
      <trkpt lat="38.45937" lon="14.89207">
        <ele>3.98</ele>
        <time>2018-04-18T15:27:41Z</time>
      </trkpt>
      <trkpt lat="38.45901" lon="14.8929">
        <ele>3.5</ele>
        <time>2018-04-18T15:28:07Z</time>
      </trkpt>
      <trkpt lat="38.45869" lon="14.89363">
        <ele>3.5</ele>
        <time>2018-04-18T15:28:30Z</time>
      </trkpt>
      <trkpt lat="38.45845" lon="14.8942">
        <ele>3.02</ele>
        <time>2018-04-18T15:28:48Z</time>
      </trkpt>
      <trkpt lat="38.45821" lon="14.89478">
        <ele>3.02</ele>
        <time>2018-04-18T15:29:06Z</time>
      </trkpt>
      <trkpt lat="38.45787" lon="14.89555">
        <ele>3.5</ele>
        <time>2018-04-18T15:29:30Z</time>
      </trkpt>
      <trkpt lat="38.45754" lon="14.89632">
        <ele>3.5</ele>
        <time>2018-04-18T15:29:54Z</time>
      </trkpt>
      <trkpt lat="38.45723" lon="14.89703">
        <ele>4.94</ele>
        <time>2018-04-18T15:30:16Z</time>
      </trkpt>
      <trkpt lat="38.45693" lon="14.8977">
        <ele>3.98</ele>
        <time>2018-04-18T15:30:37Z</time>
      </trkpt>
      <trkpt lat="38.45666" lon="14.89831">
        <ele>3.98</ele>
        <time>2018-04-18T15:30:56Z</time>
      </trkpt>
      <trkpt lat="38.45638" lon="14.89899">
        <ele>3.5</ele>
        <time>2018-04-18T15:31:17Z</time>
      </trkpt>
      <trkpt lat="38.45608" lon="14.89966">
        <ele>3.5</ele>
        <time>2018-04-18T15:31:38Z</time>
      </trkpt>
      <trkpt lat="38.45579" lon="14.9003">
        <ele>3.98</ele>
        <time>2018-04-18T15:31:58Z</time>
      </trkpt>
      <trkpt lat="38.45552" lon="14.9009">
        <ele>4.46</ele>
        <time>2018-04-18T15:32:17Z</time>
      </trkpt>
      <trkpt lat="38.45515" lon="14.90175">
        <ele>3.98</ele>
        <time>2018-04-18T15:32:43Z</time>
      </trkpt>
      <trkpt lat="38.45483" lon="14.90245">
        <ele>4.46</ele>
        <time>2018-04-18T15:33:05Z</time>
      </trkpt>
      <trkpt lat="38.45455" lon="14.90306">
        <ele>3.98</ele>
        <time>2018-04-18T15:33:24Z</time>
      </trkpt>
      <trkpt lat="38.45425" lon="14.90372">
        <ele>3.5</ele>
        <time>2018-04-18T15:33:44Z</time>
      </trkpt>
      <trkpt lat="38.45389" lon="14.90446">
        <ele>3.98</ele>
        <time>2018-04-18T15:34:07Z</time>
      </trkpt>
      <trkpt lat="38.45357" lon="14.90512">
        <ele>3.98</ele>
        <time>2018-04-18T15:34:28Z</time>
      </trkpt>
      <trkpt lat="38.4532" lon="14.90594">
        <ele>3.98</ele>
        <time>2018-04-18T15:34:53Z</time>
      </trkpt>
      <trkpt lat="38.45285" lon="14.90667">
        <ele>3.5</ele>
        <time>2018-04-18T15:35:16Z</time>
      </trkpt>
      <trkpt lat="38.45254" lon="14.90741">
        <ele>3.98</ele>
        <time>2018-04-18T15:35:38Z</time>
      </trkpt>
      <trkpt lat="38.4523" lon="14.90789">
        <ele>4.94</ele>
        <time>2018-04-18T15:35:53Z</time>
      </trkpt>
      <trkpt lat="38.45195" lon="14.90864">
        <ele>4.46</ele>
        <time>2018-04-18T15:36:16Z</time>
      </trkpt>
      <trkpt lat="38.45162" lon="14.90932">
        <ele>4.94</ele>
        <time>2018-04-18T15:36:37Z</time>
      </trkpt>
      <trkpt lat="38.45135" lon="14.91">
        <ele>4.46</ele>
        <time>2018-04-18T15:36:57Z</time>
      </trkpt>
      <trkpt lat="38.4511" lon="14.91063">
        <ele>4.94</ele>
        <time>2018-04-18T15:37:15Z</time>
      </trkpt>
      <trkpt lat="38.45082" lon="14.91144">
        <ele>5.42</ele>
        <time>2018-04-18T15:37:38Z</time>
      </trkpt>
      <trkpt lat="38.45059" lon="14.91211">
        <ele>3.98</ele>
        <time>2018-04-18T15:37:57Z</time>
      </trkpt>
      <trkpt lat="38.45034" lon="14.9129">
        <ele>3.5</ele>
        <time>2018-04-18T15:38:19Z</time>
      </trkpt>
      <trkpt lat="38.45006" lon="14.91376">
        <ele>3.98</ele>
        <time>2018-04-18T15:38:43Z</time>
      </trkpt>
      <trkpt lat="38.44977" lon="14.91465">
        <ele>3.02</ele>
        <time>2018-04-18T15:39:08Z</time>
      </trkpt>
      <trkpt lat="38.44955" lon="14.91537">
        <ele>3.02</ele>
        <time>2018-04-18T15:39:28Z</time>
      </trkpt>
      <trkpt lat="38.44936" lon="14.91599">
        <ele>3.02</ele>
        <time>2018-04-18T15:39:45Z</time>
      </trkpt>
      <trkpt lat="38.44915" lon="14.91674">
        <ele>3.02</ele>
        <time>2018-04-18T15:40:05Z</time>
      </trkpt>
      <trkpt lat="38.44892" lon="14.9175">
        <ele>2.54</ele>
        <time>2018-04-18T15:40:26Z</time>
      </trkpt>
      <trkpt lat="38.44866" lon="14.9182">
        <ele>2.54</ele>
        <time>2018-04-18T15:40:46Z</time>
      </trkpt>
      <trkpt lat="38.44839" lon="14.91886">
        <ele>3.02</ele>
        <time>2018-04-18T15:41:05Z</time>
      </trkpt>
      <trkpt lat="38.44813" lon="14.91949">
        <ele>3.02</ele>
        <time>2018-04-18T15:41:23Z</time>
      </trkpt>
      <trkpt lat="38.44786" lon="14.92016">
        <ele>3.5</ele>
        <time>2018-04-18T15:41:42Z</time>
      </trkpt>
      <trkpt lat="38.4476" lon="14.92078">
        <ele>3.5</ele>
        <time>2018-04-18T15:42:00Z</time>
      </trkpt>
      <trkpt lat="38.44733" lon="14.9214">
        <ele>3.5</ele>
        <time>2018-04-18T15:42:18Z</time>
      </trkpt>
      <trkpt lat="38.44699" lon="14.92216">
        <ele>3.5</ele>
        <time>2018-04-18T15:42:40Z</time>
      </trkpt>
      <trkpt lat="38.44669" lon="14.92295">
        <ele>3.98</ele>
        <time>2018-04-18T15:43:02Z</time>
      </trkpt>
      <trkpt lat="38.44646" lon="14.92365">
        <ele>4.46</ele>
        <time>2018-04-18T15:43:21Z</time>
      </trkpt>
      <trkpt lat="38.4462" lon="14.92433">
        <ele>4.46</ele>
        <time>2018-04-18T15:43:40Z</time>
      </trkpt>
      <trkpt lat="38.44588" lon="14.92512">
        <ele>4.94</ele>
        <time>2018-04-18T15:44:02Z</time>
      </trkpt>
      <trkpt lat="38.44558" lon="14.92582">
        <ele>5.42</ele>
        <time>2018-04-18T15:44:22Z</time>
      </trkpt>
      <trkpt lat="38.44524" lon="14.92664">
        <ele>5.42</ele>
        <time>2018-04-18T15:44:45Z</time>
      </trkpt>
      <trkpt lat="38.44489" lon="14.9275">
        <ele>3.5</ele>
        <time>2018-04-18T15:45:09Z</time>
      </trkpt>
      <trkpt lat="38.44456" lon="14.92828">
        <ele>3.02</ele>
        <time>2018-04-18T15:45:31Z</time>
      </trkpt>
      <trkpt lat="38.4442" lon="14.92923">
        <ele>3.5</ele>
        <time>2018-04-18T15:45:57Z</time>
      </trkpt>
      <trkpt lat="38.44389" lon="14.93009">
        <ele>3.98</ele>
        <time>2018-04-18T15:46:20Z</time>
      </trkpt>
      <trkpt lat="38.4436" lon="14.93091">
        <ele>4.46</ele>
        <time>2018-04-18T15:46:42Z</time>
      </trkpt>
      <trkpt lat="38.44332" lon="14.93178">
        <ele>3.98</ele>
        <time>2018-04-18T15:47:05Z</time>
      </trkpt>
      <trkpt lat="38.44303" lon="14.93266">
        <ele>4.46</ele>
        <time>2018-04-18T15:47:28Z</time>
      </trkpt>
      <trkpt lat="38.44279" lon="14.93343">
        <ele>5.42</ele>
        <time>2018-04-18T15:47:48Z</time>
      </trkpt>
      <trkpt lat="38.44257" lon="14.93407">
        <ele>5.91</ele>
        <time>2018-04-18T15:48:05Z</time>
      </trkpt>
      <trkpt lat="38.44231" lon="14.93501">
        <ele>5.42</ele>
        <time>2018-04-18T15:48:29Z</time>
      </trkpt>
      <trkpt lat="38.44207" lon="14.93588">
        <ele>4.94</ele>
        <time>2018-04-18T15:48:51Z</time>
      </trkpt>
      <trkpt lat="38.44184" lon="14.93675">
        <ele>3.98</ele>
        <time>2018-04-18T15:49:13Z</time>
      </trkpt>
      <trkpt lat="38.44166" lon="14.93765">
        <ele>3.98</ele>
        <time>2018-04-18T15:49:35Z</time>
      </trkpt>
      <trkpt lat="38.4415" lon="14.93864">
        <ele>3.98</ele>
        <time>2018-04-18T15:49:59Z</time>
      </trkpt>
      <trkpt lat="38.44133" lon="14.93963">
        <ele>3.98</ele>
        <time>2018-04-18T15:50:23Z</time>
      </trkpt>
      <trkpt lat="38.44119" lon="14.94046">
        <ele>3.98</ele>
        <time>2018-04-18T15:50:43Z</time>
      </trkpt>
      <trkpt lat="38.44106" lon="14.94129">
        <ele>3.5</ele>
        <time>2018-04-18T15:51:03Z</time>
      </trkpt>
      <trkpt lat="38.44086" lon="14.94227">
        <ele>2.54</ele>
        <time>2018-04-18T15:51:27Z</time>
      </trkpt>
      <trkpt lat="38.44064" lon="14.94322">
        <ele>3.02</ele>
        <time>2018-04-18T15:51:50Z</time>
      </trkpt>
      <trkpt lat="38.44038" lon="14.9442">
        <ele>3.98</ele>
        <time>2018-04-18T15:52:14Z</time>
      </trkpt>
      <trkpt lat="38.44007" lon="14.94525">
        <ele>3.98</ele>
        <time>2018-04-18T15:52:39Z</time>
      </trkpt>
      <trkpt lat="38.43966" lon="14.94631">
        <ele>3.98</ele>
        <time>2018-04-18T15:53:05Z</time>
      </trkpt>
      <trkpt lat="38.4393" lon="14.94729">
        <ele>4.46</ele>
        <time>2018-04-18T15:53:29Z</time>
      </trkpt>
      <trkpt lat="38.43902" lon="14.94808">
        <ele>3.98</ele>
        <time>2018-04-18T15:53:48Z</time>
      </trkpt>
      <trkpt lat="38.43863" lon="14.94929">
        <ele>3.5</ele>
        <time>2018-04-18T15:54:17Z</time>
      </trkpt>
      <trkpt lat="38.43827" lon="14.95039">
        <ele>3.98</ele>
        <time>2018-04-18T15:54:43Z</time>
      </trkpt>
      <trkpt lat="38.43804" lon="14.95139">
        <ele>3.02</ele>
        <time>2018-04-18T15:55:06Z</time>
      </trkpt>
      <trkpt lat="38.43784" lon="14.95242">
        <ele>2.54</ele>
        <time>2018-04-18T15:55:29Z</time>
      </trkpt>
      <trkpt lat="38.43766" lon="14.95358">
        <ele>3.02</ele>
        <time>2018-04-18T15:55:54Z</time>
      </trkpt>
      <trkpt lat="38.43762" lon="14.95456">
        <ele>3.5</ele>
        <time>2018-04-18T15:56:15Z</time>
      </trkpt>
      <trkpt lat="38.43784" lon="14.95568">
        <ele>3.02</ele>
        <time>2018-04-18T15:56:40Z</time>
      </trkpt>
      <trkpt lat="38.4383" lon="14.95642">
        <ele>2.54</ele>
        <time>2018-04-18T15:57:01Z</time>
      </trkpt>
      <trkpt lat="38.43891" lon="14.95723">
        <ele>2.06</ele>
        <time>2018-04-18T15:57:26Z</time>
      </trkpt>
      <trkpt lat="38.43961" lon="14.95811">
        <ele>2.06</ele>
        <time>2018-04-18T15:57:54Z</time>
      </trkpt>
      <trkpt lat="38.44026" lon="14.9588">
        <ele>1.58</ele>
        <time>2018-04-18T15:58:18Z</time>
      </trkpt>
      <trkpt lat="38.44091" lon="14.95941">
        <ele>1.58</ele>
        <time>2018-04-18T15:58:41Z</time>
      </trkpt>
      <trkpt lat="38.44169" lon="14.96016">
        <ele>2.06</ele>
        <time>2018-04-18T15:59:09Z</time>
      </trkpt>
      <trkpt lat="38.44237" lon="14.9607">
        <ele>2.06</ele>
        <time>2018-04-18T15:59:32Z</time>
      </trkpt>
      <trkpt lat="38.44314" lon="14.96123">
        <ele>2.06</ele>
        <time>2018-04-18T15:59:57Z</time>
      </trkpt>
      <trkpt lat="38.44391" lon="14.96177">
        <ele>2.06</ele>
        <time>2018-04-18T16:00:23Z</time>
      </trkpt>
      <trkpt lat="38.44459" lon="14.96229">
        <ele>2.06</ele>
        <time>2018-04-18T16:00:46Z</time>
      </trkpt>
      <trkpt lat="38.44528" lon="14.96285">
        <ele>3.02</ele>
        <time>2018-04-18T16:01:10Z</time>
      </trkpt>
      <trkpt lat="38.44613" lon="14.96354">
        <ele>4.46</ele>
        <time>2018-04-18T16:01:40Z</time>
      </trkpt>
      <trkpt lat="38.4468" lon="14.96404">
        <ele>6.39</ele>
        <time>2018-04-18T16:02:03Z</time>
      </trkpt>
      <trkpt lat="38.44755" lon="14.96448">
        <ele>4.46</ele>
        <time>2018-04-18T16:02:29Z</time>
      </trkpt>
      <trkpt lat="38.44832" lon="14.9649">
        <ele>3.98</ele>
        <time>2018-04-18T16:02:56Z</time>
      </trkpt>
      <trkpt lat="38.44899" lon="14.96505">
        <ele>4.46</ele>
        <time>2018-04-18T16:03:19Z</time>
      </trkpt>
      <trkpt lat="38.44948" lon="14.96521">
        <ele>3.98</ele>
        <time>2018-04-18T16:03:42Z</time>
      </trkpt>
      <trkpt lat="38.44975" lon="14.96557">
        <ele>3.98</ele>
        <time>2018-04-18T16:04:02Z</time>
      </trkpt>
      <trkpt lat="38.44984" lon="14.96618">
        <ele>3.98</ele>
        <time>2018-04-18T16:04:26Z</time>
      </trkpt>
      <trkpt lat="38.44991" lon="14.96664">
        <ele>3.5</ele>
        <time>2018-04-18T16:04:46Z</time>
      </trkpt>
      <trkpt lat="38.45018" lon="14.96664">
        <ele>4.46</ele>
        <time>2018-04-18T16:05:02Z</time>
      </trkpt>
      <trkpt lat="38.45065" lon="14.96669">
        <ele>4.46</ele>
        <time>2018-04-18T16:05:28Z</time>
      </trkpt>
      <trkpt lat="38.45112" lon="14.9666">
        <ele>3.98</ele>
        <time>2018-04-18T16:05:53Z</time>
      </trkpt>
      <trkpt lat="38.45163" lon="14.96646">
        <ele>3.02</ele>
        <time>2018-04-18T16:06:20Z</time>
      </trkpt>
      <trkpt lat="38.45208" lon="14.96635">
        <ele>3.5</ele>
        <time>2018-04-18T16:06:44Z</time>
      </trkpt>
      <trkpt lat="38.45242" lon="14.9663">
        <ele>3.5</ele>
        <time>2018-04-18T16:07:02Z</time>
      </trkpt>
      <trkpt lat="38.45272" lon="14.96624">
        <ele>3.98</ele>
        <time>2018-04-18T16:07:17Z</time>
      </trkpt>
      <trkpt lat="38.45303" lon="14.96617">
        <ele>3.98</ele>
        <time>2018-04-18T16:07:33Z</time>
      </trkpt>
      <trkpt lat="38.45339" lon="14.96604">
        <ele>4.46</ele>
        <time>2018-04-18T16:07:52Z</time>
      </trkpt>
      <trkpt lat="38.45379" lon="14.96587">
        <ele>4.46</ele>
        <time>2018-04-18T16:08:13Z</time>
      </trkpt>
      <trkpt lat="38.45412" lon="14.96573">
        <ele>4.94</ele>
        <time>2018-04-18T16:08:30Z</time>
      </trkpt>
      <trkpt lat="38.45455" lon="14.96555">
        <ele>4.94</ele>
        <time>2018-04-18T16:08:52Z</time>
      </trkpt>
      <trkpt lat="38.45487" lon="14.9654">
        <ele>4.46</ele>
        <time>2018-04-18T16:09:09Z</time>
      </trkpt>
      <trkpt lat="38.45532" lon="14.96518">
        <ele>3.98</ele>
        <time>2018-04-18T16:09:32Z</time>
      </trkpt>
      <trkpt lat="38.45581" lon="14.96495">
        <ele>5.42</ele>
        <time>2018-04-18T16:09:57Z</time>
      </trkpt>
      <trkpt lat="38.45633" lon="14.96475">
        <ele>5.91</ele>
        <time>2018-04-18T16:10:23Z</time>
      </trkpt>
      <trkpt lat="38.4568" lon="14.9646">
        <ele>4.46</ele>
        <time>2018-04-18T16:10:44Z</time>
      </trkpt>
      <trkpt lat="38.45733" lon="14.96461">
        <ele>4.94</ele>
        <time>2018-04-18T16:11:06Z</time>
      </trkpt>
      <trkpt lat="38.45791" lon="14.96459">
        <ele>4.46</ele>
        <time>2018-04-18T16:11:28Z</time>
      </trkpt>
      <trkpt lat="38.45853" lon="14.9646">
        <ele>5.91</ele>
        <time>2018-04-18T16:11:51Z</time>
      </trkpt>
      <trkpt lat="38.45903" lon="14.96452">
        <ele>4.94</ele>
        <time>2018-04-18T16:12:10Z</time>
      </trkpt>
      <trkpt lat="38.45963" lon="14.96433">
        <ele>4.94</ele>
        <time>2018-04-18T16:12:33Z</time>
      </trkpt>
      <trkpt lat="38.46028" lon="14.96411">
        <ele>5.42</ele>
        <time>2018-04-18T16:12:58Z</time>
      </trkpt>
      <trkpt lat="38.46092" lon="14.96396">
        <ele>4.46</ele>
        <time>2018-04-18T16:13:22Z</time>
      </trkpt>
      <trkpt lat="38.46145" lon="14.96386">
        <ele>3.5</ele>
        <time>2018-04-18T16:13:42Z</time>
      </trkpt>
      <trkpt lat="38.46187" lon="14.96383">
        <ele>3.5</ele>
        <time>2018-04-18T16:13:58Z</time>
      </trkpt>
      <trkpt lat="38.46234" lon="14.96382">
        <ele>4.46</ele>
        <time>2018-04-18T16:14:16Z</time>
      </trkpt>
      <trkpt lat="38.46297" lon="14.96377">
        <ele>3.98</ele>
        <time>2018-04-18T16:14:40Z</time>
      </trkpt>
      <trkpt lat="38.46369" lon="14.96371">
        <ele>4.46</ele>
        <time>2018-04-18T16:15:07Z</time>
      </trkpt>
      <trkpt lat="38.46438" lon="14.96362">
        <ele>4.46</ele>
        <time>2018-04-18T16:15:33Z</time>
      </trkpt>
      <trkpt lat="38.46513" lon="14.96352">
        <ele>3.5</ele>
        <time>2018-04-18T16:16:01Z</time>
      </trkpt>
      <trkpt lat="38.46582" lon="14.96339">
        <ele>4.94</ele>
        <time>2018-04-18T16:16:27Z</time>
      </trkpt>
      <trkpt lat="38.46648" lon="14.96321">
        <ele>5.42</ele>
        <time>2018-04-18T16:16:52Z</time>
      </trkpt>
      <trkpt lat="38.46703" lon="14.96307">
        <ele>5.42</ele>
        <time>2018-04-18T16:17:13Z</time>
      </trkpt>
      <trkpt lat="38.46753" lon="14.96294">
        <ele>5.42</ele>
        <time>2018-04-18T16:17:32Z</time>
      </trkpt>
      <trkpt lat="38.46817" lon="14.96281">
        <ele>5.42</ele>
        <time>2018-04-18T16:17:56Z</time>
      </trkpt>
      <trkpt lat="38.46873" lon="14.96272">
        <ele>4.94</ele>
        <time>2018-04-18T16:18:17Z</time>
      </trkpt>
      <trkpt lat="38.46927" lon="14.96265">
        <ele>4.46</ele>
        <time>2018-04-18T16:18:37Z</time>
      </trkpt>
      <trkpt lat="38.46978" lon="14.96258">
        <ele>4.46</ele>
        <time>2018-04-18T16:18:56Z</time>
      </trkpt>
      <trkpt lat="38.47036" lon="14.96249">
        <ele>4.94</ele>
        <time>2018-04-18T16:19:18Z</time>
      </trkpt>
      <trkpt lat="38.47108" lon="14.96232">
        <ele>5.42</ele>
        <time>2018-04-18T16:19:45Z</time>
      </trkpt>
      <trkpt lat="38.47178" lon="14.96218">
        <ele>4.94</ele>
        <time>2018-04-18T16:20:11Z</time>
      </trkpt>
      <trkpt lat="38.47234" lon="14.96209">
        <ele>5.42</ele>
        <time>2018-04-18T16:20:32Z</time>
      </trkpt>
      <trkpt lat="38.47295" lon="14.96206">
        <ele>3.98</ele>
        <time>2018-04-18T16:20:55Z</time>
      </trkpt>
      <trkpt lat="38.47357" lon="14.96202">
        <ele>5.42</ele>
        <time>2018-04-18T16:21:20Z</time>
      </trkpt>
      <trkpt lat="38.47403" lon="14.96198">
        <ele>5.42</ele>
        <time>2018-04-18T16:21:44Z</time>
      </trkpt>
      <trkpt lat="38.47446" lon="14.96196">
        <ele>4.94</ele>
        <time>2018-04-18T16:22:06Z</time>
      </trkpt>
      <trkpt lat="38.47489" lon="14.96194">
        <ele>5.42</ele>
        <time>2018-04-18T16:22:27Z</time>
      </trkpt>
      <trkpt lat="38.47531" lon="14.96188">
        <ele>5.42</ele>
        <time>2018-04-18T16:22:48Z</time>
      </trkpt>
      <trkpt lat="38.47559" lon="14.96187">
        <ele>5.42</ele>
        <time>2018-04-18T16:23:05Z</time>
      </trkpt>
      <trkpt lat="38.47587" lon="14.96185">
        <ele>4.46</ele>
        <time>2018-04-18T16:23:28Z</time>
      </trkpt>
      <trkpt lat="38.47609" lon="14.96189">
        <ele>4.46</ele>
        <time>2018-04-18T16:23:47Z</time>
      </trkpt>
      <trkpt lat="38.47638" lon="14.962">
        <ele>4.94</ele>
        <time>2018-04-18T16:24:06Z</time>
      </trkpt>
      <trkpt lat="38.47672" lon="14.96222">
        <ele>3.98</ele>
        <time>2018-04-18T16:24:31Z</time>
      </trkpt>
      <trkpt lat="38.47691" lon="14.96248">
        <ele>2.54</ele>
        <time>2018-04-18T16:24:54Z</time>
      </trkpt>
      <trkpt lat="38.47706" lon="14.96278">
        <ele>4.46</ele>
        <time>2018-04-18T16:25:21Z</time>
      </trkpt>
      <trkpt lat="38.47719" lon="14.96307">
        <ele>4.94</ele>
        <time>2018-04-18T16:25:47Z</time>
      </trkpt>
      <trkpt lat="38.47734" lon="14.96339">
        <ele>5.42</ele>
        <time>2018-04-18T16:26:16Z</time>
      </trkpt>
      <trkpt lat="38.47752" lon="14.9637">
        <ele>5.42</ele>
        <time>2018-04-18T16:26:47Z</time>
      </trkpt>
      <trkpt lat="38.47757" lon="14.96387">
        <ele>4.46</ele>
        <time>2018-04-18T16:27:15Z</time>
      </trkpt>
      <trkpt lat="38.47769" lon="14.96369">
        <ele>4.46</ele>
        <time>2018-04-18T16:27:40Z</time>
      </trkpt>
      <trkpt lat="38.47778" lon="14.96357">
        <ele>3.98</ele>
        <time>2018-04-18T16:28:11Z</time>
      </trkpt>
      <trkpt lat="38.47781" lon="14.96354">
        <ele>4.46</ele>
        <time>2018-04-18T16:28:44Z</time>
      </trkpt>
      <trkpt lat="38.47782" lon="14.96354">
        <ele>3.98</ele>
        <time>2018-04-18T16:29:12Z</time>
      </trkpt>
      <trkpt lat="38.47783" lon="14.96352">
        <ele>3.5</ele>
        <time>2018-04-18T16:29:41Z</time>
      </trkpt>
      <trkpt lat="38.47783" lon="14.96352">
        <ele>3.98</ele>
        <time>2018-04-18T16:30:09Z</time>
      </trkpt>
      <trkpt lat="38.47783" lon="14.96352">
        <ele>3.5</ele>
        <time>2018-04-18T16:30:38Z</time>
      </trkpt>
      <trkpt lat="38.47783" lon="14.96352">
        <ele>3.02</ele>
        <time>2018-04-18T16:30:59Z</time>
      </trkpt>
      <trkpt lat="38.47783" lon="14.96352">
        <ele>3.5</ele>
        <time>2018-04-18T16:31:16Z</time>
      </trkpt>
      <trkpt lat="38.47783" lon="14.96353">
        <ele>3.5</ele>
        <time>2018-04-18T16:31:19Z</time>
      </trkpt>
    </trkseg>
  </trk>
</gpx>